<?xml version="1.0" encoding="UTF-8" standalone="no" ?>
<gpx xmlns="http://www.topografix.com/GPX/1/1" xmlns:xsi="http://www.w3.org/2001/XMLSchema-instance" xsi:schemaLocation="http://www.topografix.com/GPX/1/1 http://www.topografix.com/GPX/1/1/gpx.xsd" version="1.1" creator="VisuGPX - https://www.visugpx.com">
  <metadata>
    <name>20140827 La Beunaz Dent d\'Oche</name>
    <desc><![CDATA[2ème étape du circuit GR5 de Thonon les Bains à Chamonix]]></desc>
  </metadata>
  <trk>
    <name><![CDATA[20140827 La Beunaz Dent d\'Oche_1]]></name>
    <trkseg>
      <trkpt lat="46.36817" lon="6.65592">
        <ele>975.6</ele>
        <time>2014-08-27T08:35:12Z</time>
      </trkpt>
      <trkpt lat="46.36818" lon="6.65592">
        <ele>975.6</ele>
        <time>2014-08-27T08:35:17Z</time>
      </trkpt>
      <trkpt lat="46.3682" lon="6.65592">
        <ele>975.6</ele>
        <time>2014-08-27T08:35:22Z</time>
      </trkpt>
      <trkpt lat="46.36814" lon="6.65595">
        <ele>975.6</ele>
        <time>2014-08-27T08:35:27Z</time>
      </trkpt>
      <trkpt lat="46.36811" lon="6.65596">
        <ele>973.1751</ele>
        <time>2014-08-27T08:35:32Z</time>
      </trkpt>
      <trkpt lat="46.36805" lon="6.65597">
        <ele>973.1751</ele>
        <time>2014-08-27T08:35:37Z</time>
      </trkpt>
      <trkpt lat="46.36799" lon="6.656">
        <ele>976.79364</ele>
        <time>2014-08-27T08:35:42Z</time>
      </trkpt>
      <trkpt lat="46.36796" lon="6.65606">
        <ele>976.79364</ele>
        <time>2014-08-27T08:35:47Z</time>
      </trkpt>
      <trkpt lat="46.36792" lon="6.6561">
        <ele>980.705</ele>
        <time>2014-08-27T08:35:52Z</time>
      </trkpt>
      <trkpt lat="46.36789" lon="6.65614">
        <ele>980.705</ele>
        <time>2014-08-27T08:35:57Z</time>
      </trkpt>
      <trkpt lat="46.36785" lon="6.6562">
        <ele>984.4878</ele>
        <time>2014-08-27T08:36:02Z</time>
      </trkpt>
      <trkpt lat="46.36778" lon="6.65627">
        <ele>984.4878</ele>
        <time>2014-08-27T08:36:07Z</time>
      </trkpt>
      <trkpt lat="46.36774" lon="6.65634">
        <ele>988.00574</ele>
        <time>2014-08-27T08:36:12Z</time>
      </trkpt>
      <trkpt lat="46.36769" lon="6.65639">
        <ele>988.00574</ele>
        <time>2014-08-27T08:36:17Z</time>
      </trkpt>
      <trkpt lat="46.36765" lon="6.65645">
        <ele>991.2848</ele>
        <time>2014-08-27T08:36:22Z</time>
      </trkpt>
      <trkpt lat="46.36758" lon="6.6565">
        <ele>991.2848</ele>
        <time>2014-08-27T08:36:27Z</time>
      </trkpt>
      <trkpt lat="46.36754" lon="6.65656">
        <ele>994.3593</ele>
        <time>2014-08-27T08:36:32Z</time>
      </trkpt>
      <trkpt lat="46.3675" lon="6.65661">
        <ele>994.3593</ele>
        <time>2014-08-27T08:36:37Z</time>
      </trkpt>
      <trkpt lat="46.36747" lon="6.65666">
        <ele>997.0479</ele>
        <time>2014-08-27T08:36:42Z</time>
      </trkpt>
      <trkpt lat="46.36744" lon="6.65674">
        <ele>997.0479</ele>
        <time>2014-08-27T08:36:47Z</time>
      </trkpt>
      <trkpt lat="46.36742" lon="6.65681">
        <ele>999.428</ele>
        <time>2014-08-27T08:36:52Z</time>
      </trkpt>
      <trkpt lat="46.36739" lon="6.65687">
        <ele>999.428</ele>
        <time>2014-08-27T08:36:57Z</time>
      </trkpt>
      <trkpt lat="46.36736" lon="6.65694">
        <ele>1001.3659</ele>
        <time>2014-08-27T08:37:02Z</time>
      </trkpt>
      <trkpt lat="46.36734" lon="6.65698">
        <ele>1001.3659</ele>
        <time>2014-08-27T08:37:07Z</time>
      </trkpt>
      <trkpt lat="46.36733" lon="6.65701">
        <ele>1001.3659</ele>
        <time>2014-08-27T08:37:12Z</time>
      </trkpt>
      <trkpt lat="46.3673" lon="6.65706">
        <ele>1002.935</ele>
        <time>2014-08-27T08:37:17Z</time>
      </trkpt>
      <trkpt lat="46.36723" lon="6.65711">
        <ele>1002.935</ele>
        <time>2014-08-27T08:37:22Z</time>
      </trkpt>
      <trkpt lat="46.36721" lon="6.65714">
        <ele>1004.16254</ele>
        <time>2014-08-27T08:37:27Z</time>
      </trkpt>
      <trkpt lat="46.36719" lon="6.65716">
        <ele>1004.16254</ele>
        <time>2014-08-27T08:37:32Z</time>
      </trkpt>
      <trkpt lat="46.36715" lon="6.65718">
        <ele>1004.16254</ele>
        <time>2014-08-27T08:37:37Z</time>
      </trkpt>
      <trkpt lat="46.36709" lon="6.65717">
        <ele>1005.0174</ele>
        <time>2014-08-27T08:37:42Z</time>
      </trkpt>
      <trkpt lat="46.36706" lon="6.65717">
        <ele>1005.0174</ele>
        <time>2014-08-27T08:37:47Z</time>
      </trkpt>
      <trkpt lat="46.36704" lon="6.65716">
        <ele>1005.0174</ele>
        <time>2014-08-27T08:37:52Z</time>
      </trkpt>
      <trkpt lat="46.36701" lon="6.65717">
        <ele>1005.0174</ele>
        <time>2014-08-27T08:37:57Z</time>
      </trkpt>
      <trkpt lat="46.36699" lon="6.6572">
        <ele>1005.4187</ele>
        <time>2014-08-27T08:38:02Z</time>
      </trkpt>
      <trkpt lat="46.36692" lon="6.65724">
        <ele>1005.4187</ele>
        <time>2014-08-27T08:38:07Z</time>
      </trkpt>
      <trkpt lat="46.36686" lon="6.65728">
        <ele>1005.39923</ele>
        <time>2014-08-27T08:38:12Z</time>
      </trkpt>
      <trkpt lat="46.36681" lon="6.65729">
        <ele>1005.39923</ele>
        <time>2014-08-27T08:38:17Z</time>
      </trkpt>
      <trkpt lat="46.36678" lon="6.65733">
        <ele>1005.089</ele>
        <time>2014-08-27T08:38:22Z</time>
      </trkpt>
      <trkpt lat="46.36674" lon="6.65737">
        <ele>1005.089</ele>
        <time>2014-08-27T08:38:27Z</time>
      </trkpt>
      <trkpt lat="46.3667" lon="6.65735">
        <ele>1004.4212</ele>
        <time>2014-08-27T08:38:32Z</time>
      </trkpt>
      <trkpt lat="46.36669" lon="6.65732">
        <ele>1004.4212</ele>
        <time>2014-08-27T08:38:37Z</time>
      </trkpt>
      <trkpt lat="46.36668" lon="6.65733">
        <ele>1004.4212</ele>
        <time>2014-08-27T08:38:42Z</time>
      </trkpt>
      <trkpt lat="46.36667" lon="6.65734">
        <ele>1004.4212</ele>
        <time>2014-08-27T08:38:47Z</time>
      </trkpt>
      <trkpt lat="46.36667" lon="6.65732">
        <ele>1004.4212</ele>
        <time>2014-08-27T08:38:52Z</time>
      </trkpt>
      <trkpt lat="46.36664" lon="6.65733">
        <ele>1004.4212</ele>
        <time>2014-08-27T08:38:57Z</time>
      </trkpt>
      <trkpt lat="46.36659" lon="6.6574">
        <ele>1003.97833</ele>
        <time>2014-08-27T08:39:02Z</time>
      </trkpt>
      <trkpt lat="46.36655" lon="6.65743">
        <ele>1003.97833</ele>
        <time>2014-08-27T08:39:07Z</time>
      </trkpt>
      <trkpt lat="46.36652" lon="6.65753">
        <ele>1003.275</ele>
        <time>2014-08-27T08:39:12Z</time>
      </trkpt>
      <trkpt lat="46.36651" lon="6.6576">
        <ele>1003.275</ele>
        <time>2014-08-27T08:39:17Z</time>
      </trkpt>
      <trkpt lat="46.36649" lon="6.65765">
        <ele>1003.275</ele>
        <time>2014-08-27T08:39:22Z</time>
      </trkpt>
      <trkpt lat="46.36646" lon="6.65772">
        <ele>1002.58746</ele>
        <time>2014-08-27T08:39:27Z</time>
      </trkpt>
      <trkpt lat="46.36638" lon="6.65778">
        <ele>1001.9338</ele>
        <time>2014-08-27T08:39:32Z</time>
      </trkpt>
      <trkpt lat="46.36633" lon="6.65786">
        <ele>1001.9338</ele>
        <time>2014-08-27T08:39:37Z</time>
      </trkpt>
      <trkpt lat="46.36629" lon="6.65792">
        <ele>1001.4311</ele>
        <time>2014-08-27T08:39:42Z</time>
      </trkpt>
      <trkpt lat="46.36625" lon="6.65793">
        <ele>1001.4311</ele>
        <time>2014-08-27T08:39:47Z</time>
      </trkpt>
      <trkpt lat="46.36617" lon="6.65791">
        <ele>1000.9517</ele>
        <time>2014-08-27T08:39:52Z</time>
      </trkpt>
      <trkpt lat="46.36611" lon="6.65786">
        <ele>1000.9517</ele>
        <time>2014-08-27T08:39:57Z</time>
      </trkpt>
      <trkpt lat="46.36606" lon="6.65781">
        <ele>1000.5728</ele>
        <time>2014-08-27T08:40:02Z</time>
      </trkpt>
      <trkpt lat="46.36604" lon="6.65777">
        <ele>1000.5728</ele>
        <time>2014-08-27T08:40:07Z</time>
      </trkpt>
      <trkpt lat="46.36601" lon="6.65776">
        <ele>1000.5728</ele>
        <time>2014-08-27T08:40:12Z</time>
      </trkpt>
      <trkpt lat="46.36596" lon="6.65773">
        <ele>1000.2867</ele>
        <time>2014-08-27T08:40:17Z</time>
      </trkpt>
      <trkpt lat="46.36592" lon="6.65769">
        <ele>1000.2867</ele>
        <time>2014-08-27T08:40:22Z</time>
      </trkpt>
      <trkpt lat="46.36586" lon="6.65759">
        <ele>999.926</ele>
        <time>2014-08-27T08:40:27Z</time>
      </trkpt>
      <trkpt lat="46.36582" lon="6.65749">
        <ele>999.926</ele>
        <time>2014-08-27T08:40:32Z</time>
      </trkpt>
      <trkpt lat="46.36576" lon="6.65743">
        <ele>999.5551</ele>
        <time>2014-08-27T08:40:37Z</time>
      </trkpt>
      <trkpt lat="46.36572" lon="6.65738">
        <ele>999.5551</ele>
        <time>2014-08-27T08:40:42Z</time>
      </trkpt>
      <trkpt lat="46.36566" lon="6.65731">
        <ele>999.244</ele>
        <time>2014-08-27T08:40:47Z</time>
      </trkpt>
      <trkpt lat="46.36561" lon="6.65726">
        <ele>999.244</ele>
        <time>2014-08-27T08:40:52Z</time>
      </trkpt>
      <trkpt lat="46.36556" lon="6.65722">
        <ele>998.83136</ele>
        <time>2014-08-27T08:40:57Z</time>
      </trkpt>
      <trkpt lat="46.36552" lon="6.65716">
        <ele>998.83136</ele>
        <time>2014-08-27T08:41:02Z</time>
      </trkpt>
      <trkpt lat="46.36549" lon="6.65712">
        <ele>998.30994</ele>
        <time>2014-08-27T08:41:07Z</time>
      </trkpt>
      <trkpt lat="46.36546" lon="6.65708">
        <ele>998.30994</ele>
        <time>2014-08-27T08:41:12Z</time>
      </trkpt>
      <trkpt lat="46.36543" lon="6.65702">
        <ele>998.30994</ele>
        <time>2014-08-27T08:41:17Z</time>
      </trkpt>
      <trkpt lat="46.3654" lon="6.65698">
        <ele>997.8121</ele>
        <time>2014-08-27T08:41:22Z</time>
      </trkpt>
      <trkpt lat="46.36537" lon="6.65692">
        <ele>997.8121</ele>
        <time>2014-08-27T08:41:27Z</time>
      </trkpt>
      <trkpt lat="46.36532" lon="6.65684">
        <ele>997.0296</ele>
        <time>2014-08-27T08:41:32Z</time>
      </trkpt>
      <trkpt lat="46.36528" lon="6.6568">
        <ele>997.0296</ele>
        <time>2014-08-27T08:41:37Z</time>
      </trkpt>
      <trkpt lat="46.36525" lon="6.65683">
        <ele>997.0296</ele>
        <time>2014-08-27T08:41:42Z</time>
      </trkpt>
      <trkpt lat="46.36524" lon="6.65687">
        <ele>995.66364</ele>
        <time>2014-08-27T08:41:47Z</time>
      </trkpt>
      <trkpt lat="46.36523" lon="6.65696">
        <ele>995.66364</ele>
        <time>2014-08-27T08:41:52Z</time>
      </trkpt>
      <trkpt lat="46.36522" lon="6.65703">
        <ele>994.2145</ele>
        <time>2014-08-27T08:41:57Z</time>
      </trkpt>
      <trkpt lat="46.36518" lon="6.65714">
        <ele>994.2145</ele>
        <time>2014-08-27T08:42:02Z</time>
      </trkpt>
      <trkpt lat="46.36517" lon="6.65719">
        <ele>993.02515</ele>
        <time>2014-08-27T08:42:07Z</time>
      </trkpt>
      <trkpt lat="46.36517" lon="6.65727">
        <ele>993.02515</ele>
        <time>2014-08-27T08:42:12Z</time>
      </trkpt>
      <trkpt lat="46.36516" lon="6.65738">
        <ele>992.06946</ele>
        <time>2014-08-27T08:42:17Z</time>
      </trkpt>
      <trkpt lat="46.36515" lon="6.65744">
        <ele>992.06946</ele>
        <time>2014-08-27T08:42:22Z</time>
      </trkpt>
      <trkpt lat="46.36514" lon="6.65749">
        <ele>992.06946</ele>
        <time>2014-08-27T08:42:27Z</time>
      </trkpt>
      <trkpt lat="46.36513" lon="6.65757">
        <ele>991.38055</ele>
        <time>2014-08-27T08:42:32Z</time>
      </trkpt>
      <trkpt lat="46.36513" lon="6.65767">
        <ele>991.38055</ele>
        <time>2014-08-27T08:42:37Z</time>
      </trkpt>
      <trkpt lat="46.3651" lon="6.65779">
        <ele>990.7639</ele>
        <time>2014-08-27T08:42:42Z</time>
      </trkpt>
      <trkpt lat="46.36509" lon="6.65788">
        <ele>990.7639</ele>
        <time>2014-08-27T08:42:47Z</time>
      </trkpt>
      <trkpt lat="46.3651" lon="6.65798">
        <ele>990.17834</ele>
        <time>2014-08-27T08:42:52Z</time>
      </trkpt>
      <trkpt lat="46.3651" lon="6.65809">
        <ele>990.17834</ele>
        <time>2014-08-27T08:42:57Z</time>
      </trkpt>
      <trkpt lat="46.3651" lon="6.65816">
        <ele>989.64264</ele>
        <time>2014-08-27T08:43:02Z</time>
      </trkpt>
      <trkpt lat="46.36509" lon="6.65824">
        <ele>989.64264</ele>
        <time>2014-08-27T08:43:07Z</time>
      </trkpt>
      <trkpt lat="46.36508" lon="6.65832">
        <ele>989.2037</ele>
        <time>2014-08-27T08:43:12Z</time>
      </trkpt>
      <trkpt lat="46.36508" lon="6.65841">
        <ele>989.2037</ele>
        <time>2014-08-27T08:43:17Z</time>
      </trkpt>
      <trkpt lat="46.36507" lon="6.6585">
        <ele>988.8473</ele>
        <time>2014-08-27T08:43:22Z</time>
      </trkpt>
      <trkpt lat="46.36507" lon="6.65859">
        <ele>988.8473</ele>
        <time>2014-08-27T08:43:27Z</time>
      </trkpt>
      <trkpt lat="46.36506" lon="6.65868">
        <ele>988.5597</ele>
        <time>2014-08-27T08:43:32Z</time>
      </trkpt>
      <trkpt lat="46.36506" lon="6.65877">
        <ele>988.5597</ele>
        <time>2014-08-27T08:43:37Z</time>
      </trkpt>
      <trkpt lat="46.36505" lon="6.65887">
        <ele>988.3124</ele>
        <time>2014-08-27T08:43:42Z</time>
      </trkpt>
      <trkpt lat="46.36504" lon="6.65897">
        <ele>988.3124</ele>
        <time>2014-08-27T08:43:47Z</time>
      </trkpt>
      <trkpt lat="46.36503" lon="6.65908">
        <ele>988.19666</ele>
        <time>2014-08-27T08:43:52Z</time>
      </trkpt>
      <trkpt lat="46.36501" lon="6.65919">
        <ele>988.19666</ele>
        <time>2014-08-27T08:43:57Z</time>
      </trkpt>
      <trkpt lat="46.365" lon="6.65929">
        <ele>988.2527</ele>
        <time>2014-08-27T08:44:02Z</time>
      </trkpt>
      <trkpt lat="46.36499" lon="6.65938">
        <ele>988.2527</ele>
        <time>2014-08-27T08:44:07Z</time>
      </trkpt>
      <trkpt lat="46.36497" lon="6.65948">
        <ele>988.41235</ele>
        <time>2014-08-27T08:44:12Z</time>
      </trkpt>
      <trkpt lat="46.36497" lon="6.65956">
        <ele>988.41235</ele>
        <time>2014-08-27T08:44:17Z</time>
      </trkpt>
      <trkpt lat="46.36495" lon="6.65964">
        <ele>988.6707</ele>
        <time>2014-08-27T08:44:22Z</time>
      </trkpt>
      <trkpt lat="46.36495" lon="6.65969">
        <ele>988.6707</ele>
        <time>2014-08-27T08:44:27Z</time>
      </trkpt>
      <trkpt lat="46.36495" lon="6.65975">
        <ele>988.6707</ele>
        <time>2014-08-27T08:44:32Z</time>
      </trkpt>
      <trkpt lat="46.36494" lon="6.65977">
        <ele>988.6707</ele>
        <time>2014-08-27T08:44:37Z</time>
      </trkpt>
      <trkpt lat="46.36492" lon="6.65977">
        <ele>988.902</ele>
        <time>2014-08-27T08:44:42Z</time>
      </trkpt>
      <trkpt lat="46.36488" lon="6.65978">
        <ele>988.902</ele>
        <time>2014-08-27T08:44:47Z</time>
      </trkpt>
      <trkpt lat="46.36488" lon="6.65978">
        <ele>988.902</ele>
        <time>2014-08-27T08:44:52Z</time>
      </trkpt>
      <trkpt lat="46.36488" lon="6.65979">
        <ele>988.902</ele>
        <time>2014-08-27T08:44:57Z</time>
      </trkpt>
      <trkpt lat="46.36488" lon="6.65979">
        <ele>988.902</ele>
        <time>2014-08-27T08:45:02Z</time>
      </trkpt>
      <trkpt lat="46.36488" lon="6.6598">
        <ele>988.902</ele>
        <time>2014-08-27T08:45:07Z</time>
      </trkpt>
      <trkpt lat="46.36489" lon="6.65982">
        <ele>988.902</ele>
        <time>2014-08-27T08:45:12Z</time>
      </trkpt>
      <trkpt lat="46.3649" lon="6.65983">
        <ele>988.92865</ele>
        <time>2014-08-27T08:45:17Z</time>
      </trkpt>
      <trkpt lat="46.36493" lon="6.65987">
        <ele>988.92865</ele>
        <time>2014-08-27T08:45:22Z</time>
      </trkpt>
      <trkpt lat="46.36493" lon="6.65987">
        <ele>988.92865</ele>
        <time>2014-08-27T08:45:27Z</time>
      </trkpt>
      <trkpt lat="46.36495" lon="6.65993">
        <ele>988.92865</ele>
        <time>2014-08-27T08:45:32Z</time>
      </trkpt>
      <trkpt lat="46.36493" lon="6.66001">
        <ele>988.7073</ele>
        <time>2014-08-27T08:45:37Z</time>
      </trkpt>
      <trkpt lat="46.36492" lon="6.66008">
        <ele>988.7073</ele>
        <time>2014-08-27T08:45:42Z</time>
      </trkpt>
      <trkpt lat="46.36491" lon="6.66015">
        <ele>988.2593</ele>
        <time>2014-08-27T08:45:47Z</time>
      </trkpt>
      <trkpt lat="46.3649" lon="6.66022">
        <ele>988.2593</ele>
        <time>2014-08-27T08:45:52Z</time>
      </trkpt>
      <trkpt lat="46.36489" lon="6.66032">
        <ele>987.5604</ele>
        <time>2014-08-27T08:45:57Z</time>
      </trkpt>
      <trkpt lat="46.36487" lon="6.66041">
        <ele>987.5604</ele>
        <time>2014-08-27T08:46:02Z</time>
      </trkpt>
      <trkpt lat="46.36487" lon="6.66048">
        <ele>986.7702</ele>
        <time>2014-08-27T08:46:07Z</time>
      </trkpt>
      <trkpt lat="46.36485" lon="6.6606">
        <ele>986.7702</ele>
        <time>2014-08-27T08:46:12Z</time>
      </trkpt>
      <trkpt lat="46.36484" lon="6.66071">
        <ele>986.08124</ele>
        <time>2014-08-27T08:46:17Z</time>
      </trkpt>
      <trkpt lat="46.36483" lon="6.66084">
        <ele>986.08124</ele>
        <time>2014-08-27T08:46:22Z</time>
      </trkpt>
      <trkpt lat="46.36481" lon="6.66095">
        <ele>985.51935</ele>
        <time>2014-08-27T08:46:27Z</time>
      </trkpt>
      <trkpt lat="46.36481" lon="6.66104">
        <ele>985.51935</ele>
        <time>2014-08-27T08:46:32Z</time>
      </trkpt>
      <trkpt lat="46.36481" lon="6.66114">
        <ele>985.01733</ele>
        <time>2014-08-27T08:46:37Z</time>
      </trkpt>
      <trkpt lat="46.36481" lon="6.66124">
        <ele>985.01733</ele>
        <time>2014-08-27T08:46:42Z</time>
      </trkpt>
      <trkpt lat="46.36481" lon="6.66135">
        <ele>984.58813</ele>
        <time>2014-08-27T08:46:47Z</time>
      </trkpt>
      <trkpt lat="46.36481" lon="6.66145">
        <ele>984.58813</ele>
        <time>2014-08-27T08:46:52Z</time>
      </trkpt>
      <trkpt lat="46.3648" lon="6.66153">
        <ele>984.1833</ele>
        <time>2014-08-27T08:46:57Z</time>
      </trkpt>
      <trkpt lat="46.36479" lon="6.66163">
        <ele>984.1833</ele>
        <time>2014-08-27T08:47:02Z</time>
      </trkpt>
      <trkpt lat="46.36478" lon="6.66173">
        <ele>983.6835</ele>
        <time>2014-08-27T08:47:07Z</time>
      </trkpt>
      <trkpt lat="46.36477" lon="6.66181">
        <ele>983.6835</ele>
        <time>2014-08-27T08:47:12Z</time>
      </trkpt>
      <trkpt lat="46.36475" lon="6.6619">
        <ele>983.0839</ele>
        <time>2014-08-27T08:47:17Z</time>
      </trkpt>
      <trkpt lat="46.36473" lon="6.66198">
        <ele>983.0839</ele>
        <time>2014-08-27T08:47:22Z</time>
      </trkpt>
      <trkpt lat="46.36469" lon="6.66207">
        <ele>982.48444</ele>
        <time>2014-08-27T08:47:27Z</time>
      </trkpt>
      <trkpt lat="46.36465" lon="6.66216">
        <ele>982.48444</ele>
        <time>2014-08-27T08:47:32Z</time>
      </trkpt>
      <trkpt lat="46.36461" lon="6.66225">
        <ele>982.07996</ele>
        <time>2014-08-27T08:47:37Z</time>
      </trkpt>
      <trkpt lat="46.36455" lon="6.66234">
        <ele>982.07996</ele>
        <time>2014-08-27T08:47:42Z</time>
      </trkpt>
      <trkpt lat="46.36452" lon="6.66239">
        <ele>981.8712</ele>
        <time>2014-08-27T08:47:47Z</time>
      </trkpt>
      <trkpt lat="46.36449" lon="6.66245">
        <ele>981.8712</ele>
        <time>2014-08-27T08:47:52Z</time>
      </trkpt>
      <trkpt lat="46.36444" lon="6.66249">
        <ele>981.75476</ele>
        <time>2014-08-27T08:47:57Z</time>
      </trkpt>
      <trkpt lat="46.36439" lon="6.66254">
        <ele>981.75476</ele>
        <time>2014-08-27T08:48:02Z</time>
      </trkpt>
      <trkpt lat="46.36434" lon="6.66262">
        <ele>981.6211</ele>
        <time>2014-08-27T08:48:07Z</time>
      </trkpt>
      <trkpt lat="46.36428" lon="6.66269">
        <ele>981.6211</ele>
        <time>2014-08-27T08:48:12Z</time>
      </trkpt>
      <trkpt lat="46.36423" lon="6.66273">
        <ele>981.4283</ele>
        <time>2014-08-27T08:48:17Z</time>
      </trkpt>
      <trkpt lat="46.36417" lon="6.66278">
        <ele>981.4283</ele>
        <time>2014-08-27T08:48:22Z</time>
      </trkpt>
      <trkpt lat="46.36412" lon="6.66283">
        <ele>981.21136</ele>
        <time>2014-08-27T08:48:27Z</time>
      </trkpt>
      <trkpt lat="46.36408" lon="6.6629">
        <ele>981.21136</ele>
        <time>2014-08-27T08:48:32Z</time>
      </trkpt>
      <trkpt lat="46.36404" lon="6.66298">
        <ele>980.9876</ele>
        <time>2014-08-27T08:48:37Z</time>
      </trkpt>
      <trkpt lat="46.36399" lon="6.66308">
        <ele>980.9876</ele>
        <time>2014-08-27T08:48:42Z</time>
      </trkpt>
      <trkpt lat="46.36394" lon="6.66313">
        <ele>980.56885</ele>
        <time>2014-08-27T08:48:47Z</time>
      </trkpt>
      <trkpt lat="46.36391" lon="6.66318">
        <ele>980.56885</ele>
        <time>2014-08-27T08:48:52Z</time>
      </trkpt>
      <trkpt lat="46.36386" lon="6.66324">
        <ele>979.9134</ele>
        <time>2014-08-27T08:48:57Z</time>
      </trkpt>
      <trkpt lat="46.3638" lon="6.66331">
        <ele>979.9134</ele>
        <time>2014-08-27T08:49:02Z</time>
      </trkpt>
      <trkpt lat="46.36374" lon="6.66334">
        <ele>978.9979</ele>
        <time>2014-08-27T08:49:07Z</time>
      </trkpt>
      <trkpt lat="46.36368" lon="6.6634">
        <ele>978.9979</ele>
        <time>2014-08-27T08:49:12Z</time>
      </trkpt>
      <trkpt lat="46.36364" lon="6.66343">
        <ele>977.816</ele>
        <time>2014-08-27T08:49:17Z</time>
      </trkpt>
      <trkpt lat="46.36359" lon="6.66344">
        <ele>977.816</ele>
        <time>2014-08-27T08:49:22Z</time>
      </trkpt>
      <trkpt lat="46.36352" lon="6.66347">
        <ele>976.3912</ele>
        <time>2014-08-27T08:49:27Z</time>
      </trkpt>
      <trkpt lat="46.36345" lon="6.66351">
        <ele>976.3912</ele>
        <time>2014-08-27T08:49:32Z</time>
      </trkpt>
      <trkpt lat="46.3634" lon="6.66354">
        <ele>974.74567</ele>
        <time>2014-08-27T08:49:37Z</time>
      </trkpt>
      <trkpt lat="46.36333" lon="6.66357">
        <ele>974.74567</ele>
        <time>2014-08-27T08:49:42Z</time>
      </trkpt>
      <trkpt lat="46.36327" lon="6.66362">
        <ele>972.799</ele>
        <time>2014-08-27T08:49:47Z</time>
      </trkpt>
      <trkpt lat="46.3632" lon="6.66368">
        <ele>972.799</ele>
        <time>2014-08-27T08:49:52Z</time>
      </trkpt>
      <trkpt lat="46.36311" lon="6.66373">
        <ele>970.9115</ele>
        <time>2014-08-27T08:49:57Z</time>
      </trkpt>
      <trkpt lat="46.36303" lon="6.66377">
        <ele>970.9115</ele>
        <time>2014-08-27T08:50:02Z</time>
      </trkpt>
      <trkpt lat="46.36296" lon="6.66382">
        <ele>969.34314</ele>
        <time>2014-08-27T08:50:07Z</time>
      </trkpt>
      <trkpt lat="46.36291" lon="6.66387">
        <ele>969.34314</ele>
        <time>2014-08-27T08:50:12Z</time>
      </trkpt>
      <trkpt lat="46.36285" lon="6.66392">
        <ele>968.04474</ele>
        <time>2014-08-27T08:50:17Z</time>
      </trkpt>
      <trkpt lat="46.36279" lon="6.664">
        <ele>968.04474</ele>
        <time>2014-08-27T08:50:22Z</time>
      </trkpt>
      <trkpt lat="46.36272" lon="6.66404">
        <ele>967.0855</ele>
        <time>2014-08-27T08:50:27Z</time>
      </trkpt>
      <trkpt lat="46.36266" lon="6.66409">
        <ele>967.0855</ele>
        <time>2014-08-27T08:50:32Z</time>
      </trkpt>
      <trkpt lat="46.36261" lon="6.66417">
        <ele>966.3987</ele>
        <time>2014-08-27T08:50:37Z</time>
      </trkpt>
      <trkpt lat="46.36256" lon="6.66425">
        <ele>966.3987</ele>
        <time>2014-08-27T08:50:42Z</time>
      </trkpt>
      <trkpt lat="46.36252" lon="6.66429">
        <ele>965.7918</ele>
        <time>2014-08-27T08:50:47Z</time>
      </trkpt>
      <trkpt lat="46.36248" lon="6.66435">
        <ele>965.7918</ele>
        <time>2014-08-27T08:50:52Z</time>
      </trkpt>
      <trkpt lat="46.36244" lon="6.66441">
        <ele>965.21655</ele>
        <time>2014-08-27T08:50:57Z</time>
      </trkpt>
      <trkpt lat="46.36239" lon="6.66447">
        <ele>965.21655</ele>
        <time>2014-08-27T08:51:02Z</time>
      </trkpt>
      <trkpt lat="46.36234" lon="6.66452">
        <ele>964.59894</ele>
        <time>2014-08-27T08:51:07Z</time>
      </trkpt>
      <trkpt lat="46.3623" lon="6.66458">
        <ele>964.59894</ele>
        <time>2014-08-27T08:51:12Z</time>
      </trkpt>
      <trkpt lat="46.36226" lon="6.66463">
        <ele>963.957</ele>
        <time>2014-08-27T08:51:17Z</time>
      </trkpt>
      <trkpt lat="46.36221" lon="6.66469">
        <ele>963.957</ele>
        <time>2014-08-27T08:51:22Z</time>
      </trkpt>
      <trkpt lat="46.36213" lon="6.66476">
        <ele>963.3652</ele>
        <time>2014-08-27T08:51:27Z</time>
      </trkpt>
      <trkpt lat="46.36208" lon="6.66481">
        <ele>963.3652</ele>
        <time>2014-08-27T08:51:32Z</time>
      </trkpt>
      <trkpt lat="46.36203" lon="6.66487">
        <ele>962.8632</ele>
        <time>2014-08-27T08:51:37Z</time>
      </trkpt>
      <trkpt lat="46.36197" lon="6.66493">
        <ele>962.8632</ele>
        <time>2014-08-27T08:51:42Z</time>
      </trkpt>
      <trkpt lat="46.36193" lon="6.66498">
        <ele>962.3725</ele>
        <time>2014-08-27T08:51:47Z</time>
      </trkpt>
      <trkpt lat="46.36191" lon="6.66501">
        <ele>962.3725</ele>
        <time>2014-08-27T08:51:52Z</time>
      </trkpt>
      <trkpt lat="46.36183" lon="6.66512">
        <ele>962.0217</ele>
        <time>2014-08-27T08:51:57Z</time>
      </trkpt>
      <trkpt lat="46.36177" lon="6.66516">
        <ele>962.0217</ele>
        <time>2014-08-27T08:52:02Z</time>
      </trkpt>
      <trkpt lat="46.36173" lon="6.66523">
        <ele>961.7712</ele>
        <time>2014-08-27T08:52:07Z</time>
      </trkpt>
      <trkpt lat="46.36168" lon="6.66527">
        <ele>961.7712</ele>
        <time>2014-08-27T08:52:12Z</time>
      </trkpt>
      <trkpt lat="46.36163" lon="6.66531">
        <ele>961.5836</ele>
        <time>2014-08-27T08:52:17Z</time>
      </trkpt>
      <trkpt lat="46.36157" lon="6.66538">
        <ele>961.5836</ele>
        <time>2014-08-27T08:52:22Z</time>
      </trkpt>
      <trkpt lat="46.36153" lon="6.66544">
        <ele>961.4389</ele>
        <time>2014-08-27T08:52:27Z</time>
      </trkpt>
      <trkpt lat="46.36147" lon="6.66552">
        <ele>961.4389</ele>
        <time>2014-08-27T08:52:32Z</time>
      </trkpt>
      <trkpt lat="46.36143" lon="6.66559">
        <ele>961.3757</ele>
        <time>2014-08-27T08:52:37Z</time>
      </trkpt>
      <trkpt lat="46.36139" lon="6.66566">
        <ele>961.3757</ele>
        <time>2014-08-27T08:52:42Z</time>
      </trkpt>
      <trkpt lat="46.36136" lon="6.66571">
        <ele>961.3143</ele>
        <time>2014-08-27T08:52:47Z</time>
      </trkpt>
      <trkpt lat="46.36133" lon="6.6657">
        <ele>961.3143</ele>
        <time>2014-08-27T08:52:52Z</time>
      </trkpt>
      <trkpt lat="46.3613" lon="6.66558">
        <ele>961.44037</ele>
        <time>2014-08-27T08:52:57Z</time>
      </trkpt>
      <trkpt lat="46.36129" lon="6.66558">
        <ele>961.44037</ele>
        <time>2014-08-27T08:53:02Z</time>
      </trkpt>
      <trkpt lat="46.36127" lon="6.66559">
        <ele>961.44037</ele>
        <time>2014-08-27T08:53:07Z</time>
      </trkpt>
      <trkpt lat="46.36126" lon="6.66559">
        <ele>961.44037</ele>
        <time>2014-08-27T08:53:12Z</time>
      </trkpt>
      <trkpt lat="46.36125" lon="6.6656">
        <ele>961.44037</ele>
        <time>2014-08-27T08:53:17Z</time>
      </trkpt>
      <trkpt lat="46.36126" lon="6.66559">
        <ele>961.44037</ele>
        <time>2014-08-27T08:53:22Z</time>
      </trkpt>
      <trkpt lat="46.36128" lon="6.66556">
        <ele>961.70905</ele>
        <time>2014-08-27T08:53:27Z</time>
      </trkpt>
      <trkpt lat="46.36128" lon="6.66556">
        <ele>961.70905</ele>
        <time>2014-08-27T08:53:32Z</time>
      </trkpt>
      <trkpt lat="46.36128" lon="6.66556">
        <ele>961.70905</ele>
        <time>2014-08-27T08:53:37Z</time>
      </trkpt>
      <trkpt lat="46.36128" lon="6.66556">
        <ele>961.70905</ele>
        <time>2014-08-27T08:53:42Z</time>
      </trkpt>
      <trkpt lat="46.36128" lon="6.66555">
        <ele>961.70905</ele>
        <time>2014-08-27T08:53:47Z</time>
      </trkpt>
      <trkpt lat="46.36128" lon="6.66557">
        <ele>961.70905</ele>
        <time>2014-08-27T08:53:52Z</time>
      </trkpt>
      <trkpt lat="46.36128" lon="6.66557">
        <ele>961.70905</ele>
        <time>2014-08-27T08:53:57Z</time>
      </trkpt>
      <trkpt lat="46.36128" lon="6.66557">
        <ele>961.70905</ele>
        <time>2014-08-27T08:54:02Z</time>
      </trkpt>
      <trkpt lat="46.36126" lon="6.66562">
        <ele>961.70905</ele>
        <time>2014-08-27T08:54:27Z</time>
      </trkpt>
      <trkpt lat="46.36122" lon="6.66571">
        <ele>962.38135</ele>
        <time>2014-08-27T08:54:32Z</time>
      </trkpt>
      <trkpt lat="46.36117" lon="6.66581">
        <ele>962.38135</ele>
        <time>2014-08-27T08:54:37Z</time>
      </trkpt>
      <trkpt lat="46.36111" lon="6.66588">
        <ele>963.294</ele>
        <time>2014-08-27T08:54:42Z</time>
      </trkpt>
      <trkpt lat="46.36105" lon="6.66594">
        <ele>963.294</ele>
        <time>2014-08-27T08:54:47Z</time>
      </trkpt>
      <trkpt lat="46.36098" lon="6.66597">
        <ele>964.396</ele>
        <time>2014-08-27T08:54:52Z</time>
      </trkpt>
      <trkpt lat="46.36094" lon="6.66601">
        <ele>964.396</ele>
        <time>2014-08-27T08:54:57Z</time>
      </trkpt>
      <trkpt lat="46.36088" lon="6.66607">
        <ele>965.69727</ele>
        <time>2014-08-27T08:55:02Z</time>
      </trkpt>
      <trkpt lat="46.36084" lon="6.66614">
        <ele>965.69727</ele>
        <time>2014-08-27T08:55:07Z</time>
      </trkpt>
      <trkpt lat="46.36079" lon="6.66621">
        <ele>967.07684</ele>
        <time>2014-08-27T08:55:12Z</time>
      </trkpt>
      <trkpt lat="46.36075" lon="6.66627">
        <ele>967.07684</ele>
        <time>2014-08-27T08:55:17Z</time>
      </trkpt>
      <trkpt lat="46.36071" lon="6.66632">
        <ele>968.46545</ele>
        <time>2014-08-27T08:55:22Z</time>
      </trkpt>
      <trkpt lat="46.36067" lon="6.6664">
        <ele>968.46545</ele>
        <time>2014-08-27T08:55:27Z</time>
      </trkpt>
      <trkpt lat="46.36064" lon="6.66645">
        <ele>969.7127</ele>
        <time>2014-08-27T08:55:32Z</time>
      </trkpt>
      <trkpt lat="46.3606" lon="6.66651">
        <ele>969.7127</ele>
        <time>2014-08-27T08:55:37Z</time>
      </trkpt>
      <trkpt lat="46.36057" lon="6.66659">
        <ele>970.75165</ele>
        <time>2014-08-27T08:55:42Z</time>
      </trkpt>
      <trkpt lat="46.36053" lon="6.66665">
        <ele>970.75165</ele>
        <time>2014-08-27T08:55:47Z</time>
      </trkpt>
      <trkpt lat="46.3605" lon="6.66672">
        <ele>971.5067</ele>
        <time>2014-08-27T08:55:52Z</time>
      </trkpt>
      <trkpt lat="46.36045" lon="6.66677">
        <ele>971.5067</ele>
        <time>2014-08-27T08:55:57Z</time>
      </trkpt>
      <trkpt lat="46.3604" lon="6.66683">
        <ele>971.93744</ele>
        <time>2014-08-27T08:56:02Z</time>
      </trkpt>
      <trkpt lat="46.36035" lon="6.66689">
        <ele>971.93744</ele>
        <time>2014-08-27T08:56:07Z</time>
      </trkpt>
      <trkpt lat="46.36031" lon="6.66699">
        <ele>972.18054</ele>
        <time>2014-08-27T08:56:12Z</time>
      </trkpt>
      <trkpt lat="46.36027" lon="6.66707">
        <ele>972.18054</ele>
        <time>2014-08-27T08:56:17Z</time>
      </trkpt>
      <trkpt lat="46.36023" lon="6.66715">
        <ele>972.2479</ele>
        <time>2014-08-27T08:56:22Z</time>
      </trkpt>
      <trkpt lat="46.36021" lon="6.66723">
        <ele>972.2479</ele>
        <time>2014-08-27T08:56:27Z</time>
      </trkpt>
      <trkpt lat="46.36019" lon="6.66731">
        <ele>972.1656</ele>
        <time>2014-08-27T08:56:32Z</time>
      </trkpt>
      <trkpt lat="46.36017" lon="6.66738">
        <ele>972.1656</ele>
        <time>2014-08-27T08:56:37Z</time>
      </trkpt>
      <trkpt lat="46.36013" lon="6.66747">
        <ele>971.99695</ele>
        <time>2014-08-27T08:56:42Z</time>
      </trkpt>
      <trkpt lat="46.36012" lon="6.66757">
        <ele>971.8283</ele>
        <time>2014-08-27T08:56:47Z</time>
      </trkpt>
      <trkpt lat="46.3601" lon="6.66765">
        <ele>971.8283</ele>
        <time>2014-08-27T08:56:52Z</time>
      </trkpt>
      <trkpt lat="46.36009" lon="6.66775">
        <ele>971.31256</ele>
        <time>2014-08-27T08:56:57Z</time>
      </trkpt>
      <trkpt lat="46.36009" lon="6.66784">
        <ele>971.0371</ele>
        <time>2014-08-27T08:57:02Z</time>
      </trkpt>
      <trkpt lat="46.36009" lon="6.66791">
        <ele>970.7617</ele>
        <time>2014-08-27T08:57:07Z</time>
      </trkpt>
      <trkpt lat="46.36008" lon="6.66799">
        <ele>970.7617</ele>
        <time>2014-08-27T08:57:12Z</time>
      </trkpt>
      <trkpt lat="46.36008" lon="6.66808">
        <ele>970.27997</ele>
        <time>2014-08-27T08:57:17Z</time>
      </trkpt>
      <trkpt lat="46.36005" lon="6.66818">
        <ele>970.27997</ele>
        <time>2014-08-27T08:57:22Z</time>
      </trkpt>
      <trkpt lat="46.36004" lon="6.66828">
        <ele>970.1367</ele>
        <time>2014-08-27T08:57:27Z</time>
      </trkpt>
      <trkpt lat="46.36002" lon="6.66839">
        <ele>970.1367</ele>
        <time>2014-08-27T08:57:32Z</time>
      </trkpt>
      <trkpt lat="46.36002" lon="6.66847">
        <ele>970.35004</ele>
        <time>2014-08-27T08:57:37Z</time>
      </trkpt>
      <trkpt lat="46.36001" lon="6.66855">
        <ele>970.35004</ele>
        <time>2014-08-27T08:57:42Z</time>
      </trkpt>
      <trkpt lat="46.36004" lon="6.66862">
        <ele>970.8059</ele>
        <time>2014-08-27T08:57:47Z</time>
      </trkpt>
      <trkpt lat="46.36006" lon="6.66872">
        <ele>970.8059</ele>
        <time>2014-08-27T08:57:52Z</time>
      </trkpt>
      <trkpt lat="46.36007" lon="6.66885">
        <ele>971.3837</ele>
        <time>2014-08-27T08:57:57Z</time>
      </trkpt>
      <trkpt lat="46.36007" lon="6.66897">
        <ele>971.3837</ele>
        <time>2014-08-27T08:58:02Z</time>
      </trkpt>
      <trkpt lat="46.36008" lon="6.66907">
        <ele>972.05786</ele>
        <time>2014-08-27T08:58:07Z</time>
      </trkpt>
      <trkpt lat="46.36009" lon="6.66917">
        <ele>972.05786</ele>
        <time>2014-08-27T08:58:12Z</time>
      </trkpt>
      <trkpt lat="46.36011" lon="6.66927">
        <ele>972.7901</ele>
        <time>2014-08-27T08:58:17Z</time>
      </trkpt>
      <trkpt lat="46.36012" lon="6.66935">
        <ele>972.7901</ele>
        <time>2014-08-27T08:58:22Z</time>
      </trkpt>
      <trkpt lat="46.36015" lon="6.66944">
        <ele>973.444</ele>
        <time>2014-08-27T08:58:27Z</time>
      </trkpt>
      <trkpt lat="46.36015" lon="6.66954">
        <ele>973.444</ele>
        <time>2014-08-27T08:58:32Z</time>
      </trkpt>
      <trkpt lat="46.36016" lon="6.66965">
        <ele>974.1815</ele>
        <time>2014-08-27T08:58:37Z</time>
      </trkpt>
      <trkpt lat="46.36016" lon="6.66973">
        <ele>974.1815</ele>
        <time>2014-08-27T08:58:42Z</time>
      </trkpt>
      <trkpt lat="46.36017" lon="6.66982">
        <ele>974.8934</ele>
        <time>2014-08-27T08:58:47Z</time>
      </trkpt>
      <trkpt lat="46.36018" lon="6.6699">
        <ele>974.8934</ele>
        <time>2014-08-27T08:58:52Z</time>
      </trkpt>
      <trkpt lat="46.3602" lon="6.66998">
        <ele>975.4783</ele>
        <time>2014-08-27T08:58:57Z</time>
      </trkpt>
      <trkpt lat="46.36022" lon="6.67006">
        <ele>975.4783</ele>
        <time>2014-08-27T08:59:02Z</time>
      </trkpt>
      <trkpt lat="46.36025" lon="6.67014">
        <ele>975.9006</ele>
        <time>2014-08-27T08:59:07Z</time>
      </trkpt>
      <trkpt lat="46.36026" lon="6.67014">
        <ele>975.9006</ele>
        <time>2014-08-27T08:59:12Z</time>
      </trkpt>
      <trkpt lat="46.36028" lon="6.67021">
        <ele>975.9006</ele>
        <time>2014-08-27T08:59:17Z</time>
      </trkpt>
      <trkpt lat="46.3603" lon="6.67028">
        <ele>976.15656</ele>
        <time>2014-08-27T08:59:22Z</time>
      </trkpt>
      <trkpt lat="46.36033" lon="6.67035">
        <ele>976.15656</ele>
        <time>2014-08-27T08:59:27Z</time>
      </trkpt>
      <trkpt lat="46.36035" lon="6.67043">
        <ele>976.27203</ele>
        <time>2014-08-27T08:59:32Z</time>
      </trkpt>
      <trkpt lat="46.3604" lon="6.67051">
        <ele>976.27203</ele>
        <time>2014-08-27T08:59:37Z</time>
      </trkpt>
      <trkpt lat="46.36044" lon="6.67058">
        <ele>976.3003</ele>
        <time>2014-08-27T08:59:42Z</time>
      </trkpt>
      <trkpt lat="46.36047" lon="6.67066">
        <ele>976.3003</ele>
        <time>2014-08-27T08:59:47Z</time>
      </trkpt>
      <trkpt lat="46.36051" lon="6.67077">
        <ele>976.24774</ele>
        <time>2014-08-27T08:59:52Z</time>
      </trkpt>
      <trkpt lat="46.36054" lon="6.67087">
        <ele>976.24774</ele>
        <time>2014-08-27T08:59:57Z</time>
      </trkpt>
      <trkpt lat="46.36059" lon="6.67095">
        <ele>976.10626</ele>
        <time>2014-08-27T09:00:02Z</time>
      </trkpt>
      <trkpt lat="46.36062" lon="6.67102">
        <ele>976.10626</ele>
        <time>2014-08-27T09:00:07Z</time>
      </trkpt>
      <trkpt lat="46.36064" lon="6.67111">
        <ele>975.9262</ele>
        <time>2014-08-27T09:00:12Z</time>
      </trkpt>
      <trkpt lat="46.36067" lon="6.67119">
        <ele>975.9262</ele>
        <time>2014-08-27T09:00:17Z</time>
      </trkpt>
      <trkpt lat="46.3607" lon="6.67131">
        <ele>975.6102</ele>
        <time>2014-08-27T09:00:22Z</time>
      </trkpt>
      <trkpt lat="46.36072" lon="6.67142">
        <ele>975.6102</ele>
        <time>2014-08-27T09:00:27Z</time>
      </trkpt>
      <trkpt lat="46.36075" lon="6.6715">
        <ele>975.19836</ele>
        <time>2014-08-27T09:00:32Z</time>
      </trkpt>
      <trkpt lat="46.36078" lon="6.67159">
        <ele>975.19836</ele>
        <time>2014-08-27T09:00:37Z</time>
      </trkpt>
      <trkpt lat="46.36081" lon="6.67168">
        <ele>974.69904</ele>
        <time>2014-08-27T09:00:42Z</time>
      </trkpt>
      <trkpt lat="46.36084" lon="6.67176">
        <ele>974.69904</ele>
        <time>2014-08-27T09:00:47Z</time>
      </trkpt>
      <trkpt lat="46.36087" lon="6.67185">
        <ele>974.23584</ele>
        <time>2014-08-27T09:00:52Z</time>
      </trkpt>
      <trkpt lat="46.36091" lon="6.67195">
        <ele>974.23584</ele>
        <time>2014-08-27T09:00:57Z</time>
      </trkpt>
      <trkpt lat="46.36095" lon="6.67204">
        <ele>973.75006</ele>
        <time>2014-08-27T09:01:02Z</time>
      </trkpt>
      <trkpt lat="46.36097" lon="6.67212">
        <ele>973.75006</ele>
        <time>2014-08-27T09:01:07Z</time>
      </trkpt>
      <trkpt lat="46.36099" lon="6.67217">
        <ele>973.2739</ele>
        <time>2014-08-27T09:01:12Z</time>
      </trkpt>
      <trkpt lat="46.36099" lon="6.67218">
        <ele>973.2739</ele>
        <time>2014-08-27T09:01:17Z</time>
      </trkpt>
      <trkpt lat="46.36099" lon="6.67218">
        <ele>973.2739</ele>
        <time>2014-08-27T09:01:22Z</time>
      </trkpt>
      <trkpt lat="46.361" lon="6.67221">
        <ele>973.2739</ele>
        <time>2014-08-27T09:01:27Z</time>
      </trkpt>
      <trkpt lat="46.36103" lon="6.67228">
        <ele>972.722</ele>
        <time>2014-08-27T09:01:32Z</time>
      </trkpt>
      <trkpt lat="46.36105" lon="6.67236">
        <ele>972.722</ele>
        <time>2014-08-27T09:01:37Z</time>
      </trkpt>
      <trkpt lat="46.36109" lon="6.67244">
        <ele>972.08734</ele>
        <time>2014-08-27T09:01:42Z</time>
      </trkpt>
      <trkpt lat="46.36111" lon="6.67255">
        <ele>972.08734</ele>
        <time>2014-08-27T09:01:47Z</time>
      </trkpt>
      <trkpt lat="46.36113" lon="6.67267">
        <ele>971.4646</ele>
        <time>2014-08-27T09:01:52Z</time>
      </trkpt>
      <trkpt lat="46.36117" lon="6.67278">
        <ele>971.4646</ele>
        <time>2014-08-27T09:01:57Z</time>
      </trkpt>
      <trkpt lat="46.36121" lon="6.67287">
        <ele>970.94165</ele>
        <time>2014-08-27T09:02:02Z</time>
      </trkpt>
      <trkpt lat="46.36124" lon="6.67298">
        <ele>970.94165</ele>
        <time>2014-08-27T09:02:07Z</time>
      </trkpt>
      <trkpt lat="46.36127" lon="6.67308">
        <ele>970.57043</ele>
        <time>2014-08-27T09:02:12Z</time>
      </trkpt>
      <trkpt lat="46.3613" lon="6.67319">
        <ele>970.57043</ele>
        <time>2014-08-27T09:02:17Z</time>
      </trkpt>
      <trkpt lat="46.36133" lon="6.67328">
        <ele>970.3845</ele>
        <time>2014-08-27T09:02:22Z</time>
      </trkpt>
      <trkpt lat="46.36137" lon="6.6734">
        <ele>970.2991</ele>
        <time>2014-08-27T09:02:27Z</time>
      </trkpt>
      <trkpt lat="46.36139" lon="6.67351">
        <ele>970.2991</ele>
        <time>2014-08-27T09:02:32Z</time>
      </trkpt>
      <trkpt lat="46.36142" lon="6.6736">
        <ele>970.35046</ele>
        <time>2014-08-27T09:02:37Z</time>
      </trkpt>
      <trkpt lat="46.36144" lon="6.6737">
        <ele>970.35046</ele>
        <time>2014-08-27T09:02:42Z</time>
      </trkpt>
      <trkpt lat="46.36144" lon="6.67378">
        <ele>970.5287</ele>
        <time>2014-08-27T09:02:47Z</time>
      </trkpt>
      <trkpt lat="46.36145" lon="6.67387">
        <ele>970.5287</ele>
        <time>2014-08-27T09:02:52Z</time>
      </trkpt>
      <trkpt lat="46.36146" lon="6.67396">
        <ele>970.7234</ele>
        <time>2014-08-27T09:02:57Z</time>
      </trkpt>
      <trkpt lat="46.36146" lon="6.674">
        <ele>970.7234</ele>
        <time>2014-08-27T09:03:02Z</time>
      </trkpt>
      <trkpt lat="46.36147" lon="6.67407">
        <ele>970.7234</ele>
        <time>2014-08-27T09:03:07Z</time>
      </trkpt>
      <trkpt lat="46.36148" lon="6.67415">
        <ele>970.8176</ele>
        <time>2014-08-27T09:03:12Z</time>
      </trkpt>
      <trkpt lat="46.36149" lon="6.67421">
        <ele>970.8176</ele>
        <time>2014-08-27T09:03:17Z</time>
      </trkpt>
      <trkpt lat="46.3615" lon="6.67428">
        <ele>970.8176</ele>
        <time>2014-08-27T09:03:22Z</time>
      </trkpt>
      <trkpt lat="46.36149" lon="6.67439">
        <ele>970.6459</ele>
        <time>2014-08-27T09:03:27Z</time>
      </trkpt>
      <trkpt lat="46.36147" lon="6.6745">
        <ele>970.6459</ele>
        <time>2014-08-27T09:03:32Z</time>
      </trkpt>
      <trkpt lat="46.36145" lon="6.67461">
        <ele>970.38684</ele>
        <time>2014-08-27T09:03:37Z</time>
      </trkpt>
      <trkpt lat="46.36141" lon="6.67469">
        <ele>970.38684</ele>
        <time>2014-08-27T09:03:42Z</time>
      </trkpt>
      <trkpt lat="46.36134" lon="6.67477">
        <ele>969.9469</ele>
        <time>2014-08-27T09:03:47Z</time>
      </trkpt>
      <trkpt lat="46.36131" lon="6.67481">
        <ele>969.9469</ele>
        <time>2014-08-27T09:03:52Z</time>
      </trkpt>
      <trkpt lat="46.36131" lon="6.67488">
        <ele>969.2543</ele>
        <time>2014-08-27T09:03:57Z</time>
      </trkpt>
      <trkpt lat="46.36129" lon="6.67497">
        <ele>969.2543</ele>
        <time>2014-08-27T09:04:02Z</time>
      </trkpt>
      <trkpt lat="46.36127" lon="6.67507">
        <ele>968.15674</ele>
        <time>2014-08-27T09:04:07Z</time>
      </trkpt>
      <trkpt lat="46.36124" lon="6.67513">
        <ele>968.15674</ele>
        <time>2014-08-27T09:04:12Z</time>
      </trkpt>
      <trkpt lat="46.3612" lon="6.67517">
        <ele>966.90326</ele>
        <time>2014-08-27T09:04:17Z</time>
      </trkpt>
      <trkpt lat="46.36119" lon="6.67518">
        <ele>966.90326</ele>
        <time>2014-08-27T09:04:22Z</time>
      </trkpt>
      <trkpt lat="46.36117" lon="6.67519">
        <ele>966.90326</ele>
        <time>2014-08-27T09:04:27Z</time>
      </trkpt>
      <trkpt lat="46.36112" lon="6.67517">
        <ele>966.90326</ele>
        <time>2014-08-27T09:04:32Z</time>
      </trkpt>
      <trkpt lat="46.36104" lon="6.67517">
        <ele>965.4801</ele>
        <time>2014-08-27T09:04:37Z</time>
      </trkpt>
      <trkpt lat="46.36096" lon="6.67518">
        <ele>965.4801</ele>
        <time>2014-08-27T09:04:42Z</time>
      </trkpt>
      <trkpt lat="46.36088" lon="6.6752">
        <ele>964.13434</ele>
        <time>2014-08-27T09:04:47Z</time>
      </trkpt>
      <trkpt lat="46.36081" lon="6.67521">
        <ele>964.13434</ele>
        <time>2014-08-27T09:04:52Z</time>
      </trkpt>
      <trkpt lat="46.36073" lon="6.67523">
        <ele>962.80634</ele>
        <time>2014-08-27T09:04:57Z</time>
      </trkpt>
      <trkpt lat="46.36063" lon="6.67525">
        <ele>961.44086</ele>
        <time>2014-08-27T09:05:02Z</time>
      </trkpt>
      <trkpt lat="46.36057" lon="6.67525">
        <ele>961.44086</ele>
        <time>2014-08-27T09:05:07Z</time>
      </trkpt>
      <trkpt lat="46.36052" lon="6.67528">
        <ele>959.97217</ele>
        <time>2014-08-27T09:05:12Z</time>
      </trkpt>
      <trkpt lat="46.36043" lon="6.67528">
        <ele>958.5127</ele>
        <time>2014-08-27T09:05:17Z</time>
      </trkpt>
      <trkpt lat="46.36033" lon="6.67527">
        <ele>957.03674</ele>
        <time>2014-08-27T09:05:22Z</time>
      </trkpt>
      <trkpt lat="46.36027" lon="6.67528">
        <ele>957.03674</ele>
        <time>2014-08-27T09:05:27Z</time>
      </trkpt>
      <trkpt lat="46.36021" lon="6.67529">
        <ele>955.3619</ele>
        <time>2014-08-27T09:05:32Z</time>
      </trkpt>
      <trkpt lat="46.36013" lon="6.67531">
        <ele>955.3619</ele>
        <time>2014-08-27T09:05:37Z</time>
      </trkpt>
      <trkpt lat="46.36006" lon="6.67531">
        <ele>953.52136</ele>
        <time>2014-08-27T09:05:42Z</time>
      </trkpt>
      <trkpt lat="46.35999" lon="6.67531">
        <ele>953.52136</ele>
        <time>2014-08-27T09:05:47Z</time>
      </trkpt>
      <trkpt lat="46.35992" lon="6.67529">
        <ele>951.71936</ele>
        <time>2014-08-27T09:05:52Z</time>
      </trkpt>
      <trkpt lat="46.35984" lon="6.67528">
        <ele>951.71936</ele>
        <time>2014-08-27T09:05:57Z</time>
      </trkpt>
      <trkpt lat="46.35976" lon="6.67529">
        <ele>950.00055</ele>
        <time>2014-08-27T09:06:02Z</time>
      </trkpt>
      <trkpt lat="46.35971" lon="6.6753">
        <ele>950.00055</ele>
        <time>2014-08-27T09:06:07Z</time>
      </trkpt>
      <trkpt lat="46.35964" lon="6.67529">
        <ele>948.2477</ele>
        <time>2014-08-27T09:06:12Z</time>
      </trkpt>
      <trkpt lat="46.35957" lon="6.67524">
        <ele>948.2477</ele>
        <time>2014-08-27T09:06:17Z</time>
      </trkpt>
      <trkpt lat="46.35949" lon="6.67521">
        <ele>946.2511</ele>
        <time>2014-08-27T09:06:22Z</time>
      </trkpt>
      <trkpt lat="46.35943" lon="6.6752">
        <ele>946.2511</ele>
        <time>2014-08-27T09:06:27Z</time>
      </trkpt>
      <trkpt lat="46.35937" lon="6.67519">
        <ele>944.1774</ele>
        <time>2014-08-27T09:06:32Z</time>
      </trkpt>
      <trkpt lat="46.35929" lon="6.6752">
        <ele>944.1774</ele>
        <time>2014-08-27T09:06:37Z</time>
      </trkpt>
      <trkpt lat="46.35924" lon="6.67519">
        <ele>942.109</ele>
        <time>2014-08-27T09:06:42Z</time>
      </trkpt>
      <trkpt lat="46.35917" lon="6.67517">
        <ele>942.109</ele>
        <time>2014-08-27T09:06:47Z</time>
      </trkpt>
      <trkpt lat="46.3591" lon="6.67517">
        <ele>940.1078</ele>
        <time>2014-08-27T09:06:52Z</time>
      </trkpt>
      <trkpt lat="46.35901" lon="6.67516">
        <ele>940.1078</ele>
        <time>2014-08-27T09:06:57Z</time>
      </trkpt>
      <trkpt lat="46.35895" lon="6.67516">
        <ele>938.3459</ele>
        <time>2014-08-27T09:07:02Z</time>
      </trkpt>
      <trkpt lat="46.35891" lon="6.67516">
        <ele>938.3459</ele>
        <time>2014-08-27T09:07:07Z</time>
      </trkpt>
      <trkpt lat="46.35882" lon="6.67516">
        <ele>936.8092</ele>
        <time>2014-08-27T09:07:12Z</time>
      </trkpt>
      <trkpt lat="46.35873" lon="6.67514">
        <ele>935.4983</ele>
        <time>2014-08-27T09:07:17Z</time>
      </trkpt>
      <trkpt lat="46.35865" lon="6.67514">
        <ele>935.4983</ele>
        <time>2014-08-27T09:07:22Z</time>
      </trkpt>
      <trkpt lat="46.35861" lon="6.67517">
        <ele>934.312</ele>
        <time>2014-08-27T09:07:27Z</time>
      </trkpt>
      <trkpt lat="46.35856" lon="6.67517">
        <ele>934.312</ele>
        <time>2014-08-27T09:07:32Z</time>
      </trkpt>
      <trkpt lat="46.35851" lon="6.67516">
        <ele>933.32916</ele>
        <time>2014-08-27T09:07:37Z</time>
      </trkpt>
      <trkpt lat="46.35845" lon="6.67515">
        <ele>933.32916</ele>
        <time>2014-08-27T09:07:42Z</time>
      </trkpt>
      <trkpt lat="46.3584" lon="6.67515">
        <ele>932.52106</ele>
        <time>2014-08-27T09:07:47Z</time>
      </trkpt>
      <trkpt lat="46.35832" lon="6.67517">
        <ele>932.52106</ele>
        <time>2014-08-27T09:07:52Z</time>
      </trkpt>
      <trkpt lat="46.35828" lon="6.67519">
        <ele>931.88947</ele>
        <time>2014-08-27T09:07:57Z</time>
      </trkpt>
      <trkpt lat="46.35822" lon="6.6752">
        <ele>931.88947</ele>
        <time>2014-08-27T09:08:02Z</time>
      </trkpt>
      <trkpt lat="46.35816" lon="6.67517">
        <ele>931.2913</ele>
        <time>2014-08-27T09:08:07Z</time>
      </trkpt>
      <trkpt lat="46.35812" lon="6.67517">
        <ele>931.2913</ele>
        <time>2014-08-27T09:08:12Z</time>
      </trkpt>
      <trkpt lat="46.35807" lon="6.67518">
        <ele>930.75226</ele>
        <time>2014-08-27T09:08:17Z</time>
      </trkpt>
      <trkpt lat="46.35801" lon="6.67518">
        <ele>930.75226</ele>
        <time>2014-08-27T09:08:22Z</time>
      </trkpt>
      <trkpt lat="46.35796" lon="6.67518">
        <ele>930.368</ele>
        <time>2014-08-27T09:08:27Z</time>
      </trkpt>
      <trkpt lat="46.35789" lon="6.6752">
        <ele>930.368</ele>
        <time>2014-08-27T09:08:32Z</time>
      </trkpt>
      <trkpt lat="46.35784" lon="6.67521">
        <ele>930.1977</ele>
        <time>2014-08-27T09:08:37Z</time>
      </trkpt>
      <trkpt lat="46.35784" lon="6.67521">
        <ele>930.1977</ele>
        <time>2014-08-27T09:08:42Z</time>
      </trkpt>
      <trkpt lat="46.35785" lon="6.67521">
        <ele>930.1977</ele>
        <time>2014-08-27T09:08:47Z</time>
      </trkpt>
      <trkpt lat="46.35785" lon="6.67521">
        <ele>930.1977</ele>
        <time>2014-08-27T09:08:52Z</time>
      </trkpt>
      <trkpt lat="46.35777" lon="6.67521">
        <ele>930.1977</ele>
        <time>2014-08-27T09:09:27Z</time>
      </trkpt>
      <trkpt lat="46.35773" lon="6.67524">
        <ele>930.09406</ele>
        <time>2014-08-27T09:09:32Z</time>
      </trkpt>
      <trkpt lat="46.35767" lon="6.67525">
        <ele>930.09406</ele>
        <time>2014-08-27T09:09:37Z</time>
      </trkpt>
      <trkpt lat="46.35758" lon="6.67527">
        <ele>930.1506</ele>
        <time>2014-08-27T09:09:42Z</time>
      </trkpt>
      <trkpt lat="46.35751" lon="6.67534">
        <ele>930.1506</ele>
        <time>2014-08-27T09:09:47Z</time>
      </trkpt>
      <trkpt lat="46.35747" lon="6.67543">
        <ele>930.42487</ele>
        <time>2014-08-27T09:09:52Z</time>
      </trkpt>
      <trkpt lat="46.35745" lon="6.67552">
        <ele>930.42487</ele>
        <time>2014-08-27T09:09:57Z</time>
      </trkpt>
      <trkpt lat="46.35745" lon="6.67561">
        <ele>930.9694</ele>
        <time>2014-08-27T09:10:02Z</time>
      </trkpt>
      <trkpt lat="46.35745" lon="6.67571">
        <ele>930.9694</ele>
        <time>2014-08-27T09:10:07Z</time>
      </trkpt>
      <trkpt lat="46.35745" lon="6.67576">
        <ele>931.73145</ele>
        <time>2014-08-27T09:10:12Z</time>
      </trkpt>
      <trkpt lat="46.35747" lon="6.67583">
        <ele>931.73145</ele>
        <time>2014-08-27T09:10:17Z</time>
      </trkpt>
      <trkpt lat="46.35745" lon="6.6759">
        <ele>932.6324</ele>
        <time>2014-08-27T09:10:22Z</time>
      </trkpt>
      <trkpt lat="46.35744" lon="6.67598">
        <ele>932.6324</ele>
        <time>2014-08-27T09:10:27Z</time>
      </trkpt>
      <trkpt lat="46.35743" lon="6.67607">
        <ele>933.58484</ele>
        <time>2014-08-27T09:10:32Z</time>
      </trkpt>
      <trkpt lat="46.35742" lon="6.67613">
        <ele>933.58484</ele>
        <time>2014-08-27T09:10:37Z</time>
      </trkpt>
      <trkpt lat="46.35741" lon="6.6762">
        <ele>933.58484</ele>
        <time>2014-08-27T09:10:42Z</time>
      </trkpt>
      <trkpt lat="46.3574" lon="6.6763">
        <ele>934.62286</ele>
        <time>2014-08-27T09:10:47Z</time>
      </trkpt>
      <trkpt lat="46.3574" lon="6.67639">
        <ele>934.62286</ele>
        <time>2014-08-27T09:10:52Z</time>
      </trkpt>
      <trkpt lat="46.35738" lon="6.67652">
        <ele>935.7491</ele>
        <time>2014-08-27T09:10:57Z</time>
      </trkpt>
      <trkpt lat="46.35736" lon="6.67661">
        <ele>935.7491</ele>
        <time>2014-08-27T09:11:02Z</time>
      </trkpt>
      <trkpt lat="46.35732" lon="6.67667">
        <ele>937.0521</ele>
        <time>2014-08-27T09:11:07Z</time>
      </trkpt>
      <trkpt lat="46.35731" lon="6.67675">
        <ele>937.0521</ele>
        <time>2014-08-27T09:11:12Z</time>
      </trkpt>
      <trkpt lat="46.35731" lon="6.67685">
        <ele>938.4696</ele>
        <time>2014-08-27T09:11:17Z</time>
      </trkpt>
      <trkpt lat="46.3573" lon="6.67692">
        <ele>938.4696</ele>
        <time>2014-08-27T09:11:22Z</time>
      </trkpt>
      <trkpt lat="46.35729" lon="6.67698">
        <ele>939.75616</ele>
        <time>2014-08-27T09:11:27Z</time>
      </trkpt>
      <trkpt lat="46.35729" lon="6.67707">
        <ele>939.75616</ele>
        <time>2014-08-27T09:11:32Z</time>
      </trkpt>
      <trkpt lat="46.35728" lon="6.67714">
        <ele>941.1172</ele>
        <time>2014-08-27T09:11:37Z</time>
      </trkpt>
      <trkpt lat="46.35728" lon="6.67723">
        <ele>941.1172</ele>
        <time>2014-08-27T09:11:42Z</time>
      </trkpt>
      <trkpt lat="46.35728" lon="6.67733">
        <ele>942.3971</ele>
        <time>2014-08-27T09:11:47Z</time>
      </trkpt>
      <trkpt lat="46.35725" lon="6.67738">
        <ele>942.3971</ele>
        <time>2014-08-27T09:11:52Z</time>
      </trkpt>
      <trkpt lat="46.35724" lon="6.67748">
        <ele>943.6249</ele>
        <time>2014-08-27T09:11:57Z</time>
      </trkpt>
      <trkpt lat="46.35722" lon="6.67758">
        <ele>943.6249</ele>
        <time>2014-08-27T09:12:02Z</time>
      </trkpt>
      <trkpt lat="46.35719" lon="6.67764">
        <ele>945.00073</ele>
        <time>2014-08-27T09:12:07Z</time>
      </trkpt>
      <trkpt lat="46.35719" lon="6.67767">
        <ele>945.00073</ele>
        <time>2014-08-27T09:12:12Z</time>
      </trkpt>
      <trkpt lat="46.3572" lon="6.67767">
        <ele>945.00073</ele>
        <time>2014-08-27T09:12:17Z</time>
      </trkpt>
      <trkpt lat="46.35722" lon="6.67766">
        <ele>945.00073</ele>
        <time>2014-08-27T09:12:22Z</time>
      </trkpt>
      <trkpt lat="46.35724" lon="6.67766">
        <ele>945.00073</ele>
        <time>2014-08-27T09:12:27Z</time>
      </trkpt>
      <trkpt lat="46.35725" lon="6.67766">
        <ele>945.00073</ele>
        <time>2014-08-27T09:12:32Z</time>
      </trkpt>
      <trkpt lat="46.35726" lon="6.67765">
        <ele>946.3639</ele>
        <time>2014-08-27T09:12:37Z</time>
      </trkpt>
      <trkpt lat="46.35726" lon="6.67764">
        <ele>946.3639</ele>
        <time>2014-08-27T09:12:42Z</time>
      </trkpt>
      <trkpt lat="46.35726" lon="6.67764">
        <ele>946.3639</ele>
        <time>2014-08-27T09:12:47Z</time>
      </trkpt>
      <trkpt lat="46.35725" lon="6.67765">
        <ele>946.3639</ele>
        <time>2014-08-27T09:13:07Z</time>
      </trkpt>
      <trkpt lat="46.35722" lon="6.67765">
        <ele>946.3639</ele>
        <time>2014-08-27T09:13:12Z</time>
      </trkpt>
      <trkpt lat="46.3572" lon="6.67763">
        <ele>946.3639</ele>
        <time>2014-08-27T09:13:17Z</time>
      </trkpt>
      <trkpt lat="46.35721" lon="6.67762">
        <ele>946.3639</ele>
        <time>2014-08-27T09:13:22Z</time>
      </trkpt>
      <trkpt lat="46.35722" lon="6.67763">
        <ele>946.3639</ele>
        <time>2014-08-27T09:13:27Z</time>
      </trkpt>
      <trkpt lat="46.35721" lon="6.67763">
        <ele>946.3639</ele>
        <time>2014-08-27T09:13:32Z</time>
      </trkpt>
      <trkpt lat="46.35721" lon="6.67764">
        <ele>947.63776</ele>
        <time>2014-08-27T09:13:37Z</time>
      </trkpt>
      <trkpt lat="46.3572" lon="6.67763">
        <ele>947.63776</ele>
        <time>2014-08-27T09:13:42Z</time>
      </trkpt>
      <trkpt lat="46.3572" lon="6.67763">
        <ele>947.63776</ele>
        <time>2014-08-27T09:13:47Z</time>
      </trkpt>
      <trkpt lat="46.3572" lon="6.67764">
        <ele>947.63776</ele>
        <time>2014-08-27T09:13:52Z</time>
      </trkpt>
      <trkpt lat="46.35721" lon="6.67765">
        <ele>947.63776</ele>
        <time>2014-08-27T09:13:57Z</time>
      </trkpt>
      <trkpt lat="46.35722" lon="6.67765">
        <ele>947.63776</ele>
        <time>2014-08-27T09:14:02Z</time>
      </trkpt>
      <trkpt lat="46.35723" lon="6.67766">
        <ele>947.63776</ele>
        <time>2014-08-27T09:14:07Z</time>
      </trkpt>
      <trkpt lat="46.35723" lon="6.67765">
        <ele>947.63776</ele>
        <time>2014-08-27T09:14:12Z</time>
      </trkpt>
      <trkpt lat="46.35724" lon="6.67765">
        <ele>947.63776</ele>
        <time>2014-08-27T09:14:17Z</time>
      </trkpt>
      <trkpt lat="46.35724" lon="6.67765">
        <ele>947.63776</ele>
        <time>2014-08-27T09:14:22Z</time>
      </trkpt>
      <trkpt lat="46.35726" lon="6.67768">
        <ele>948.8669</ele>
        <time>2014-08-27T09:14:27Z</time>
      </trkpt>
      <trkpt lat="46.35726" lon="6.67768">
        <ele>948.8669</ele>
        <time>2014-08-27T09:14:32Z</time>
      </trkpt>
      <trkpt lat="46.35725" lon="6.67767">
        <ele>948.8669</ele>
        <time>2014-08-27T09:14:37Z</time>
      </trkpt>
      <trkpt lat="46.35724" lon="6.67767">
        <ele>948.8669</ele>
        <time>2014-08-27T09:14:42Z</time>
      </trkpt>
      <trkpt lat="46.35724" lon="6.67766">
        <ele>948.8669</ele>
        <time>2014-08-27T09:14:47Z</time>
      </trkpt>
      <trkpt lat="46.35724" lon="6.67765">
        <ele>948.8669</ele>
        <time>2014-08-27T09:14:52Z</time>
      </trkpt>
      <trkpt lat="46.35724" lon="6.67765">
        <ele>948.8669</ele>
        <time>2014-08-27T09:14:57Z</time>
      </trkpt>
      <trkpt lat="46.35723" lon="6.67766">
        <ele>948.8669</ele>
        <time>2014-08-27T09:15:02Z</time>
      </trkpt>
      <trkpt lat="46.35725" lon="6.67767">
        <ele>948.8669</ele>
        <time>2014-08-27T09:15:07Z</time>
      </trkpt>
      <trkpt lat="46.35725" lon="6.67767">
        <ele>948.8669</ele>
        <time>2014-08-27T09:15:12Z</time>
      </trkpt>
      <trkpt lat="46.35724" lon="6.67767">
        <ele>948.8669</ele>
        <time>2014-08-27T09:15:17Z</time>
      </trkpt>
      <trkpt lat="46.35724" lon="6.67766">
        <ele>948.8669</ele>
        <time>2014-08-27T09:15:22Z</time>
      </trkpt>
      <trkpt lat="46.35724" lon="6.67765">
        <ele>948.8669</ele>
        <time>2014-08-27T09:15:27Z</time>
      </trkpt>
      <trkpt lat="46.35724" lon="6.67765">
        <ele>948.8669</ele>
        <time>2014-08-27T09:15:32Z</time>
      </trkpt>
      <trkpt lat="46.35724" lon="6.67765">
        <ele>948.8669</ele>
        <time>2014-08-27T09:15:37Z</time>
      </trkpt>
      <trkpt lat="46.35724" lon="6.67765">
        <ele>948.8669</ele>
        <time>2014-08-27T09:15:42Z</time>
      </trkpt>
      <trkpt lat="46.35722" lon="6.67765">
        <ele>950.0353</ele>
        <time>2014-08-27T09:16:12Z</time>
      </trkpt>
      <trkpt lat="46.35722" lon="6.67765">
        <ele>950.0353</ele>
        <time>2014-08-27T09:16:17Z</time>
      </trkpt>
      <trkpt lat="46.35721" lon="6.67764">
        <ele>950.0353</ele>
        <time>2014-08-27T09:16:32Z</time>
      </trkpt>
      <trkpt lat="46.35716" lon="6.6776">
        <ele>950.0353</ele>
        <time>2014-08-27T09:16:37Z</time>
      </trkpt>
      <trkpt lat="46.35711" lon="6.67755">
        <ele>951.07074</ele>
        <time>2014-08-27T09:16:42Z</time>
      </trkpt>
      <trkpt lat="46.35706" lon="6.67748">
        <ele>951.07074</ele>
        <time>2014-08-27T09:16:47Z</time>
      </trkpt>
      <trkpt lat="46.35701" lon="6.67742">
        <ele>952.0079</ele>
        <time>2014-08-27T09:16:52Z</time>
      </trkpt>
      <trkpt lat="46.35697" lon="6.67736">
        <ele>952.0079</ele>
        <time>2014-08-27T09:16:57Z</time>
      </trkpt>
      <trkpt lat="46.35695" lon="6.67733">
        <ele>952.0079</ele>
        <time>2014-08-27T09:17:02Z</time>
      </trkpt>
      <trkpt lat="46.3569" lon="6.67727">
        <ele>952.8215</ele>
        <time>2014-08-27T09:17:07Z</time>
      </trkpt>
      <trkpt lat="46.35685" lon="6.67722">
        <ele>952.8215</ele>
        <time>2014-08-27T09:17:12Z</time>
      </trkpt>
      <trkpt lat="46.35681" lon="6.67712">
        <ele>953.5895</ele>
        <time>2014-08-27T09:17:17Z</time>
      </trkpt>
      <trkpt lat="46.35677" lon="6.67706">
        <ele>953.5895</ele>
        <time>2014-08-27T09:17:22Z</time>
      </trkpt>
      <trkpt lat="46.35677" lon="6.67702">
        <ele>953.5895</ele>
        <time>2014-08-27T09:17:27Z</time>
      </trkpt>
      <trkpt lat="46.35675" lon="6.67698">
        <ele>954.3557</ele>
        <time>2014-08-27T09:17:32Z</time>
      </trkpt>
      <trkpt lat="46.35671" lon="6.67695">
        <ele>954.3557</ele>
        <time>2014-08-27T09:17:37Z</time>
      </trkpt>
      <trkpt lat="46.35666" lon="6.67695">
        <ele>954.84375</ele>
        <time>2014-08-27T09:17:42Z</time>
      </trkpt>
      <trkpt lat="46.35662" lon="6.67696">
        <ele>954.84375</ele>
        <time>2014-08-27T09:17:47Z</time>
      </trkpt>
      <trkpt lat="46.35659" lon="6.67696">
        <ele>954.84375</ele>
        <time>2014-08-27T09:17:52Z</time>
      </trkpt>
      <trkpt lat="46.35658" lon="6.67696">
        <ele>954.84375</ele>
        <time>2014-08-27T09:17:57Z</time>
      </trkpt>
      <trkpt lat="46.35654" lon="6.67696">
        <ele>954.7985</ele>
        <time>2014-08-27T09:18:02Z</time>
      </trkpt>
      <trkpt lat="46.35652" lon="6.67695">
        <ele>954.7985</ele>
        <time>2014-08-27T09:18:07Z</time>
      </trkpt>
      <trkpt lat="46.35651" lon="6.67695">
        <ele>954.7985</ele>
        <time>2014-08-27T09:18:12Z</time>
      </trkpt>
      <trkpt lat="46.35646" lon="6.67692">
        <ele>954.7985</ele>
        <time>2014-08-27T09:18:17Z</time>
      </trkpt>
      <trkpt lat="46.35645" lon="6.67692">
        <ele>955.0228</ele>
        <time>2014-08-27T09:18:22Z</time>
      </trkpt>
      <trkpt lat="46.35644" lon="6.67692">
        <ele>955.0228</ele>
        <time>2014-08-27T09:18:27Z</time>
      </trkpt>
      <trkpt lat="46.35636" lon="6.6769">
        <ele>955.4384</ele>
        <time>2014-08-27T09:18:32Z</time>
      </trkpt>
      <trkpt lat="46.35627" lon="6.67686">
        <ele>955.8284</ele>
        <time>2014-08-27T09:18:37Z</time>
      </trkpt>
      <trkpt lat="46.35614" lon="6.6768">
        <ele>956.17926</ele>
        <time>2014-08-27T09:18:42Z</time>
      </trkpt>
      <trkpt lat="46.35609" lon="6.67679">
        <ele>956.17926</ele>
        <time>2014-08-27T09:18:47Z</time>
      </trkpt>
      <trkpt lat="46.35604" lon="6.67677">
        <ele>956.46423</ele>
        <time>2014-08-27T09:18:52Z</time>
      </trkpt>
      <trkpt lat="46.35602" lon="6.67676">
        <ele>956.46423</ele>
        <time>2014-08-27T09:18:57Z</time>
      </trkpt>
      <trkpt lat="46.35602" lon="6.67674">
        <ele>956.46423</ele>
        <time>2014-08-27T09:19:02Z</time>
      </trkpt>
      <trkpt lat="46.35601" lon="6.67674">
        <ele>956.46423</ele>
        <time>2014-08-27T09:19:07Z</time>
      </trkpt>
      <trkpt lat="46.35597" lon="6.67673">
        <ele>956.46423</ele>
        <time>2014-08-27T09:19:12Z</time>
      </trkpt>
      <trkpt lat="46.35594" lon="6.67673">
        <ele>956.78864</ele>
        <time>2014-08-27T09:19:17Z</time>
      </trkpt>
      <trkpt lat="46.35593" lon="6.67673">
        <ele>956.78864</ele>
        <time>2014-08-27T09:19:22Z</time>
      </trkpt>
      <trkpt lat="46.35585" lon="6.67672">
        <ele>956.78864</ele>
        <time>2014-08-27T09:19:27Z</time>
      </trkpt>
      <trkpt lat="46.35582" lon="6.67672">
        <ele>957.24994</ele>
        <time>2014-08-27T09:19:32Z</time>
      </trkpt>
      <trkpt lat="46.35581" lon="6.67672">
        <ele>957.24994</ele>
        <time>2014-08-27T09:19:37Z</time>
      </trkpt>
      <trkpt lat="46.35581" lon="6.67672">
        <ele>957.24994</ele>
        <time>2014-08-27T09:19:42Z</time>
      </trkpt>
      <trkpt lat="46.35581" lon="6.67672">
        <ele>957.24994</ele>
        <time>2014-08-27T09:19:47Z</time>
      </trkpt>
      <trkpt lat="46.35581" lon="6.67673">
        <ele>957.24994</ele>
        <time>2014-08-27T09:19:52Z</time>
      </trkpt>
      <trkpt lat="46.35581" lon="6.67673">
        <ele>957.24994</ele>
        <time>2014-08-27T09:19:57Z</time>
      </trkpt>
      <trkpt lat="46.35577" lon="6.67673">
        <ele>957.24994</ele>
        <time>2014-08-27T09:20:02Z</time>
      </trkpt>
      <trkpt lat="46.35577" lon="6.67673">
        <ele>957.24994</ele>
        <time>2014-08-27T09:20:07Z</time>
      </trkpt>
      <trkpt lat="46.35577" lon="6.67673">
        <ele>957.24994</ele>
        <time>2014-08-27T09:20:12Z</time>
      </trkpt>
      <trkpt lat="46.35573" lon="6.67675">
        <ele>959.2496</ele>
        <time>2014-08-27T09:20:17Z</time>
      </trkpt>
      <trkpt lat="46.3557" lon="6.67676">
        <ele>959.2496</ele>
        <time>2014-08-27T09:20:22Z</time>
      </trkpt>
      <trkpt lat="46.35565" lon="6.6768">
        <ele>959.2496</ele>
        <time>2014-08-27T09:20:27Z</time>
      </trkpt>
      <trkpt lat="46.35559" lon="6.67688">
        <ele>961.77606</ele>
        <time>2014-08-27T09:20:32Z</time>
      </trkpt>
      <trkpt lat="46.35555" lon="6.67692">
        <ele>961.77606</ele>
        <time>2014-08-27T09:20:37Z</time>
      </trkpt>
      <trkpt lat="46.35552" lon="6.67698">
        <ele>964.32324</ele>
        <time>2014-08-27T09:20:42Z</time>
      </trkpt>
      <trkpt lat="46.35544" lon="6.67706">
        <ele>966.6382</ele>
        <time>2014-08-27T09:20:47Z</time>
      </trkpt>
      <trkpt lat="46.35543" lon="6.6771">
        <ele>966.6382</ele>
        <time>2014-08-27T09:20:52Z</time>
      </trkpt>
      <trkpt lat="46.35533" lon="6.67707">
        <ele>968.8045</ele>
        <time>2014-08-27T09:20:57Z</time>
      </trkpt>
      <trkpt lat="46.35533" lon="6.67717">
        <ele>968.8045</ele>
        <time>2014-08-27T09:21:02Z</time>
      </trkpt>
      <trkpt lat="46.35531" lon="6.67726">
        <ele>970.9578</ele>
        <time>2014-08-27T09:21:07Z</time>
      </trkpt>
      <trkpt lat="46.35531" lon="6.6773">
        <ele>970.9578</ele>
        <time>2014-08-27T09:21:12Z</time>
      </trkpt>
      <trkpt lat="46.35528" lon="6.67734">
        <ele>970.9578</ele>
        <time>2014-08-27T09:21:17Z</time>
      </trkpt>
      <trkpt lat="46.35526" lon="6.67735">
        <ele>972.9213</ele>
        <time>2014-08-27T09:21:22Z</time>
      </trkpt>
      <trkpt lat="46.35526" lon="6.67739">
        <ele>972.9213</ele>
        <time>2014-08-27T09:21:27Z</time>
      </trkpt>
      <trkpt lat="46.35527" lon="6.67745">
        <ele>972.9213</ele>
        <time>2014-08-27T09:21:32Z</time>
      </trkpt>
      <trkpt lat="46.35527" lon="6.67756">
        <ele>974.9353</ele>
        <time>2014-08-27T09:21:37Z</time>
      </trkpt>
      <trkpt lat="46.35526" lon="6.67762">
        <ele>974.9353</ele>
        <time>2014-08-27T09:21:42Z</time>
      </trkpt>
      <trkpt lat="46.35527" lon="6.67769">
        <ele>974.9353</ele>
        <time>2014-08-27T09:21:47Z</time>
      </trkpt>
      <trkpt lat="46.35526" lon="6.67778">
        <ele>977.1216</ele>
        <time>2014-08-27T09:21:52Z</time>
      </trkpt>
      <trkpt lat="46.3552" lon="6.67784">
        <ele>977.1216</ele>
        <time>2014-08-27T09:21:57Z</time>
      </trkpt>
      <trkpt lat="46.35519" lon="6.67787">
        <ele>979.2468</ele>
        <time>2014-08-27T09:22:02Z</time>
      </trkpt>
      <trkpt lat="46.35517" lon="6.67789">
        <ele>979.2468</ele>
        <time>2014-08-27T09:22:07Z</time>
      </trkpt>
      <trkpt lat="46.35513" lon="6.67791">
        <ele>979.2468</ele>
        <time>2014-08-27T09:22:12Z</time>
      </trkpt>
      <trkpt lat="46.35506" lon="6.67793">
        <ele>981.22485</ele>
        <time>2014-08-27T09:22:17Z</time>
      </trkpt>
      <trkpt lat="46.35502" lon="6.67795">
        <ele>981.22485</ele>
        <time>2014-08-27T09:22:22Z</time>
      </trkpt>
      <trkpt lat="46.355" lon="6.67801">
        <ele>981.22485</ele>
        <time>2014-08-27T09:22:27Z</time>
      </trkpt>
      <trkpt lat="46.35496" lon="6.67808">
        <ele>982.861</ele>
        <time>2014-08-27T09:22:32Z</time>
      </trkpt>
      <trkpt lat="46.35495" lon="6.67818">
        <ele>982.861</ele>
        <time>2014-08-27T09:22:37Z</time>
      </trkpt>
      <trkpt lat="46.35495" lon="6.67819">
        <ele>982.861</ele>
        <time>2014-08-27T09:22:42Z</time>
      </trkpt>
      <trkpt lat="46.35495" lon="6.67823">
        <ele>984.4518</ele>
        <time>2014-08-27T09:22:47Z</time>
      </trkpt>
      <trkpt lat="46.35495" lon="6.67826">
        <ele>984.4518</ele>
        <time>2014-08-27T09:22:52Z</time>
      </trkpt>
      <trkpt lat="46.35495" lon="6.67826">
        <ele>984.4518</ele>
        <time>2014-08-27T09:22:57Z</time>
      </trkpt>
      <trkpt lat="46.35493" lon="6.67826">
        <ele>984.4518</ele>
        <time>2014-08-27T09:23:42Z</time>
      </trkpt>
      <trkpt lat="46.35492" lon="6.67827">
        <ele>984.4518</ele>
        <time>2014-08-27T09:23:47Z</time>
      </trkpt>
      <trkpt lat="46.3549" lon="6.67835">
        <ele>985.6522</ele>
        <time>2014-08-27T09:23:52Z</time>
      </trkpt>
      <trkpt lat="46.35489" lon="6.67846">
        <ele>985.6522</ele>
        <time>2014-08-27T09:23:57Z</time>
      </trkpt>
      <trkpt lat="46.35488" lon="6.67857">
        <ele>986.908</ele>
        <time>2014-08-27T09:24:02Z</time>
      </trkpt>
      <trkpt lat="46.35485" lon="6.67867">
        <ele>986.908</ele>
        <time>2014-08-27T09:24:07Z</time>
      </trkpt>
      <trkpt lat="46.35483" lon="6.6787">
        <ele>988.32916</ele>
        <time>2014-08-27T09:24:12Z</time>
      </trkpt>
      <trkpt lat="46.35479" lon="6.67872">
        <ele>988.32916</ele>
        <time>2014-08-27T09:24:17Z</time>
      </trkpt>
      <trkpt lat="46.35478" lon="6.67878">
        <ele>988.32916</ele>
        <time>2014-08-27T09:24:22Z</time>
      </trkpt>
      <trkpt lat="46.35473" lon="6.67885">
        <ele>989.74365</ele>
        <time>2014-08-27T09:24:27Z</time>
      </trkpt>
      <trkpt lat="46.35469" lon="6.6789">
        <ele>989.74365</ele>
        <time>2014-08-27T09:24:32Z</time>
      </trkpt>
      <trkpt lat="46.35464" lon="6.67899">
        <ele>991.194</ele>
        <time>2014-08-27T09:24:37Z</time>
      </trkpt>
      <trkpt lat="46.35463" lon="6.67903">
        <ele>991.194</ele>
        <time>2014-08-27T09:24:42Z</time>
      </trkpt>
      <trkpt lat="46.35463" lon="6.67903">
        <ele>991.194</ele>
        <time>2014-08-27T09:24:47Z</time>
      </trkpt>
      <trkpt lat="46.35461" lon="6.67909">
        <ele>991.194</ele>
        <time>2014-08-27T09:24:52Z</time>
      </trkpt>
      <trkpt lat="46.35459" lon="6.67918">
        <ele>992.76263</ele>
        <time>2014-08-27T09:24:57Z</time>
      </trkpt>
      <trkpt lat="46.35459" lon="6.67922">
        <ele>992.76263</ele>
        <time>2014-08-27T09:25:02Z</time>
      </trkpt>
      <trkpt lat="46.35459" lon="6.67923">
        <ele>992.76263</ele>
        <time>2014-08-27T09:25:07Z</time>
      </trkpt>
      <trkpt lat="46.35462" lon="6.67924">
        <ele>992.76263</ele>
        <time>2014-08-27T09:25:12Z</time>
      </trkpt>
      <trkpt lat="46.35463" lon="6.67924">
        <ele>992.76263</ele>
        <time>2014-08-27T09:25:17Z</time>
      </trkpt>
      <trkpt lat="46.35463" lon="6.67924">
        <ele>992.76263</ele>
        <time>2014-08-27T09:25:22Z</time>
      </trkpt>
      <trkpt lat="46.35461" lon="6.67928">
        <ele>994.22327</ele>
        <time>2014-08-27T09:25:37Z</time>
      </trkpt>
      <trkpt lat="46.35459" lon="6.6793">
        <ele>994.22327</ele>
        <time>2014-08-27T09:25:42Z</time>
      </trkpt>
      <trkpt lat="46.35459" lon="6.67934">
        <ele>994.22327</ele>
        <time>2014-08-27T09:25:47Z</time>
      </trkpt>
      <trkpt lat="46.35459" lon="6.67939">
        <ele>994.22327</ele>
        <time>2014-08-27T09:25:52Z</time>
      </trkpt>
      <trkpt lat="46.35456" lon="6.67944">
        <ele>996.21686</ele>
        <time>2014-08-27T09:25:57Z</time>
      </trkpt>
      <trkpt lat="46.35454" lon="6.67952">
        <ele>996.21686</ele>
        <time>2014-08-27T09:26:02Z</time>
      </trkpt>
      <trkpt lat="46.3545" lon="6.67962">
        <ele>998.24066</ele>
        <time>2014-08-27T09:26:07Z</time>
      </trkpt>
      <trkpt lat="46.35447" lon="6.67966">
        <ele>998.24066</ele>
        <time>2014-08-27T09:26:12Z</time>
      </trkpt>
      <trkpt lat="46.35447" lon="6.67972">
        <ele>998.24066</ele>
        <time>2014-08-27T09:26:17Z</time>
      </trkpt>
      <trkpt lat="46.35447" lon="6.67979">
        <ele>1000.2035</ele>
        <time>2014-08-27T09:26:22Z</time>
      </trkpt>
      <trkpt lat="46.35445" lon="6.67986">
        <ele>1000.2035</ele>
        <time>2014-08-27T09:26:27Z</time>
      </trkpt>
      <trkpt lat="46.35444" lon="6.6799">
        <ele>1000.2035</ele>
        <time>2014-08-27T09:26:32Z</time>
      </trkpt>
      <trkpt lat="46.35446" lon="6.67998">
        <ele>1001.8482</ele>
        <time>2014-08-27T09:26:37Z</time>
      </trkpt>
      <trkpt lat="46.35445" lon="6.68001">
        <ele>1001.8482</ele>
        <time>2014-08-27T09:26:42Z</time>
      </trkpt>
      <trkpt lat="46.35446" lon="6.68009">
        <ele>1001.8482</ele>
        <time>2014-08-27T09:26:47Z</time>
      </trkpt>
      <trkpt lat="46.35444" lon="6.68015">
        <ele>1003.37</ele>
        <time>2014-08-27T09:26:52Z</time>
      </trkpt>
      <trkpt lat="46.35442" lon="6.68023">
        <ele>1003.37</ele>
        <time>2014-08-27T09:26:57Z</time>
      </trkpt>
      <trkpt lat="46.35438" lon="6.68027">
        <ele>1004.7483</ele>
        <time>2014-08-27T09:27:02Z</time>
      </trkpt>
      <trkpt lat="46.35435" lon="6.6803">
        <ele>1004.7483</ele>
        <time>2014-08-27T09:27:07Z</time>
      </trkpt>
      <trkpt lat="46.35433" lon="6.68035">
        <ele>1004.7483</ele>
        <time>2014-08-27T09:27:12Z</time>
      </trkpt>
      <trkpt lat="46.3543" lon="6.68036">
        <ele>1006.28156</ele>
        <time>2014-08-27T09:27:17Z</time>
      </trkpt>
      <trkpt lat="46.35431" lon="6.68039">
        <ele>1006.28156</ele>
        <time>2014-08-27T09:27:22Z</time>
      </trkpt>
      <trkpt lat="46.35429" lon="6.68039">
        <ele>1006.28156</ele>
        <time>2014-08-27T09:27:27Z</time>
      </trkpt>
      <trkpt lat="46.35426" lon="6.68042">
        <ele>1006.28156</ele>
        <time>2014-08-27T09:27:32Z</time>
      </trkpt>
      <trkpt lat="46.35425" lon="6.68045">
        <ele>1007.75604</ele>
        <time>2014-08-27T09:27:37Z</time>
      </trkpt>
      <trkpt lat="46.35424" lon="6.68049">
        <ele>1007.75604</ele>
        <time>2014-08-27T09:27:42Z</time>
      </trkpt>
      <trkpt lat="46.35425" lon="6.68051">
        <ele>1007.75604</ele>
        <time>2014-08-27T09:27:47Z</time>
      </trkpt>
      <trkpt lat="46.35423" lon="6.68054">
        <ele>1007.75604</ele>
        <time>2014-08-27T09:27:52Z</time>
      </trkpt>
      <trkpt lat="46.35422" lon="6.68056">
        <ele>1009.01715</ele>
        <time>2014-08-27T09:27:57Z</time>
      </trkpt>
      <trkpt lat="46.35422" lon="6.68057">
        <ele>1009.01715</ele>
        <time>2014-08-27T09:28:02Z</time>
      </trkpt>
      <trkpt lat="46.3542" lon="6.68058">
        <ele>1009.01715</ele>
        <time>2014-08-27T09:28:07Z</time>
      </trkpt>
      <trkpt lat="46.35419" lon="6.6806">
        <ele>1009.01715</ele>
        <time>2014-08-27T09:28:12Z</time>
      </trkpt>
      <trkpt lat="46.35418" lon="6.68065">
        <ele>1009.01715</ele>
        <time>2014-08-27T09:28:17Z</time>
      </trkpt>
      <trkpt lat="46.35414" lon="6.6807">
        <ele>1011.03204</ele>
        <time>2014-08-27T09:28:22Z</time>
      </trkpt>
      <trkpt lat="46.35415" lon="6.68072">
        <ele>1011.03204</ele>
        <time>2014-08-27T09:28:27Z</time>
      </trkpt>
      <trkpt lat="46.35415" lon="6.68072">
        <ele>1011.03204</ele>
        <time>2014-08-27T09:28:32Z</time>
      </trkpt>
      <trkpt lat="46.35414" lon="6.68075">
        <ele>1011.03204</ele>
        <time>2014-08-27T09:28:37Z</time>
      </trkpt>
      <trkpt lat="46.35414" lon="6.68081">
        <ele>1011.03204</ele>
        <time>2014-08-27T09:28:42Z</time>
      </trkpt>
      <trkpt lat="46.35412" lon="6.68087">
        <ele>1013.7436</ele>
        <time>2014-08-27T09:28:47Z</time>
      </trkpt>
      <trkpt lat="46.35405" lon="6.68106">
        <ele>1016.39087</ele>
        <time>2014-08-27T09:28:52Z</time>
      </trkpt>
      <trkpt lat="46.35402" lon="6.6811">
        <ele>1016.39087</ele>
        <time>2014-08-27T09:28:57Z</time>
      </trkpt>
      <trkpt lat="46.35405" lon="6.68125">
        <ele>1018.88873</ele>
        <time>2014-08-27T09:29:02Z</time>
      </trkpt>
      <trkpt lat="46.35404" lon="6.6813">
        <ele>1018.88873</ele>
        <time>2014-08-27T09:29:07Z</time>
      </trkpt>
      <trkpt lat="46.35403" lon="6.68133">
        <ele>1018.88873</ele>
        <time>2014-08-27T09:29:12Z</time>
      </trkpt>
      <trkpt lat="46.35401" lon="6.68137">
        <ele>1021.00024</ele>
        <time>2014-08-27T09:29:17Z</time>
      </trkpt>
      <trkpt lat="46.35401" lon="6.68141">
        <ele>1021.00024</ele>
        <time>2014-08-27T09:29:22Z</time>
      </trkpt>
      <trkpt lat="46.35402" lon="6.68147">
        <ele>1021.00024</ele>
        <time>2014-08-27T09:29:27Z</time>
      </trkpt>
      <trkpt lat="46.35403" lon="6.68149">
        <ele>1021.00024</ele>
        <time>2014-08-27T09:29:32Z</time>
      </trkpt>
      <trkpt lat="46.35403" lon="6.6815">
        <ele>1023.0837</ele>
        <time>2014-08-27T09:29:37Z</time>
      </trkpt>
      <trkpt lat="46.35403" lon="6.6815">
        <ele>1023.0837</ele>
        <time>2014-08-27T09:29:42Z</time>
      </trkpt>
      <trkpt lat="46.35403" lon="6.68151">
        <ele>1023.0837</ele>
        <time>2014-08-27T09:29:47Z</time>
      </trkpt>
      <trkpt lat="46.35404" lon="6.68153">
        <ele>1023.0837</ele>
        <time>2014-08-27T09:29:52Z</time>
      </trkpt>
      <trkpt lat="46.35404" lon="6.68153">
        <ele>1023.0837</ele>
        <time>2014-08-27T09:29:57Z</time>
      </trkpt>
      <trkpt lat="46.35401" lon="6.68157">
        <ele>1023.0837</ele>
        <time>2014-08-27T09:30:02Z</time>
      </trkpt>
      <trkpt lat="46.35401" lon="6.68157">
        <ele>1023.0837</ele>
        <time>2014-08-27T09:30:07Z</time>
      </trkpt>
      <trkpt lat="46.354" lon="6.68158">
        <ele>1023.0837</ele>
        <time>2014-08-27T09:30:12Z</time>
      </trkpt>
      <trkpt lat="46.354" lon="6.68158">
        <ele>1023.0837</ele>
        <time>2014-08-27T09:30:17Z</time>
      </trkpt>
      <trkpt lat="46.35398" lon="6.68161">
        <ele>1025.5718</ele>
        <time>2014-08-27T09:30:22Z</time>
      </trkpt>
      <trkpt lat="46.35395" lon="6.68167">
        <ele>1025.5718</ele>
        <time>2014-08-27T09:30:27Z</time>
      </trkpt>
      <trkpt lat="46.35395" lon="6.68167">
        <ele>1025.5718</ele>
        <time>2014-08-27T09:30:32Z</time>
      </trkpt>
      <trkpt lat="46.35394" lon="6.68169">
        <ele>1025.5718</ele>
        <time>2014-08-27T09:30:37Z</time>
      </trkpt>
      <trkpt lat="46.35394" lon="6.68169">
        <ele>1025.5718</ele>
        <time>2014-08-27T09:30:42Z</time>
      </trkpt>
      <trkpt lat="46.35391" lon="6.68175">
        <ele>1028.4753</ele>
        <time>2014-08-27T09:30:57Z</time>
      </trkpt>
      <trkpt lat="46.3539" lon="6.68178">
        <ele>1028.4753</ele>
        <time>2014-08-27T09:31:02Z</time>
      </trkpt>
      <trkpt lat="46.35387" lon="6.68184">
        <ele>1028.4753</ele>
        <time>2014-08-27T09:31:07Z</time>
      </trkpt>
      <trkpt lat="46.35387" lon="6.68184">
        <ele>1028.4753</ele>
        <time>2014-08-27T09:31:12Z</time>
      </trkpt>
      <trkpt lat="46.35386" lon="6.68189">
        <ele>1031.7748</ele>
        <time>2014-08-27T09:31:17Z</time>
      </trkpt>
      <trkpt lat="46.35386" lon="6.68192">
        <ele>1031.7748</ele>
        <time>2014-08-27T09:31:22Z</time>
      </trkpt>
      <trkpt lat="46.35383" lon="6.68198">
        <ele>1031.7748</ele>
        <time>2014-08-27T09:31:27Z</time>
      </trkpt>
      <trkpt lat="46.35382" lon="6.68214">
        <ele>1034.9751</ele>
        <time>2014-08-27T09:31:32Z</time>
      </trkpt>
      <trkpt lat="46.35385" lon="6.68225">
        <ele>1034.9751</ele>
        <time>2014-08-27T09:31:37Z</time>
      </trkpt>
      <trkpt lat="46.35381" lon="6.68232">
        <ele>1037.7765</ele>
        <time>2014-08-27T09:31:42Z</time>
      </trkpt>
      <trkpt lat="46.3538" lon="6.68234">
        <ele>1037.7765</ele>
        <time>2014-08-27T09:31:47Z</time>
      </trkpt>
      <trkpt lat="46.3538" lon="6.68234">
        <ele>1037.7765</ele>
        <time>2014-08-27T09:31:52Z</time>
      </trkpt>
      <trkpt lat="46.35381" lon="6.68247">
        <ele>1040.378</ele>
        <time>2014-08-27T09:31:57Z</time>
      </trkpt>
      <trkpt lat="46.35378" lon="6.68253">
        <ele>1040.378</ele>
        <time>2014-08-27T09:32:02Z</time>
      </trkpt>
      <trkpt lat="46.35367" lon="6.68262">
        <ele>1042.7778</ele>
        <time>2014-08-27T09:32:07Z</time>
      </trkpt>
      <trkpt lat="46.35366" lon="6.68263">
        <ele>1042.7778</ele>
        <time>2014-08-27T09:32:12Z</time>
      </trkpt>
      <trkpt lat="46.35366" lon="6.68263">
        <ele>1042.7778</ele>
        <time>2014-08-27T09:32:17Z</time>
      </trkpt>
      <trkpt lat="46.35367" lon="6.68266">
        <ele>1042.7778</ele>
        <time>2014-08-27T09:32:22Z</time>
      </trkpt>
      <trkpt lat="46.35365" lon="6.68267">
        <ele>1042.7778</ele>
        <time>2014-08-27T09:32:27Z</time>
      </trkpt>
      <trkpt lat="46.35365" lon="6.68268">
        <ele>1042.7778</ele>
        <time>2014-08-27T09:32:32Z</time>
      </trkpt>
      <trkpt lat="46.35355" lon="6.68276">
        <ele>1045.8533</ele>
        <time>2014-08-27T09:32:37Z</time>
      </trkpt>
      <trkpt lat="46.35352" lon="6.68282">
        <ele>1045.8533</ele>
        <time>2014-08-27T09:32:42Z</time>
      </trkpt>
      <trkpt lat="46.3535" lon="6.6829">
        <ele>1048.7153</ele>
        <time>2014-08-27T09:32:47Z</time>
      </trkpt>
      <trkpt lat="46.35345" lon="6.68304">
        <ele>1051.1896</ele>
        <time>2014-08-27T09:32:52Z</time>
      </trkpt>
      <trkpt lat="46.35345" lon="6.68304">
        <ele>1051.1896</ele>
        <time>2014-08-27T09:32:57Z</time>
      </trkpt>
      <trkpt lat="46.35344" lon="6.68306">
        <ele>1051.1896</ele>
        <time>2014-08-27T09:33:02Z</time>
      </trkpt>
      <trkpt lat="46.35345" lon="6.68311">
        <ele>1051.1896</ele>
        <time>2014-08-27T09:33:07Z</time>
      </trkpt>
      <trkpt lat="46.35344" lon="6.68315">
        <ele>1051.1896</ele>
        <time>2014-08-27T09:33:12Z</time>
      </trkpt>
      <trkpt lat="46.35345" lon="6.68317">
        <ele>1053.6053</ele>
        <time>2014-08-27T09:33:17Z</time>
      </trkpt>
      <trkpt lat="46.35345" lon="6.6832">
        <ele>1053.6053</ele>
        <time>2014-08-27T09:33:22Z</time>
      </trkpt>
      <trkpt lat="46.35343" lon="6.68323">
        <ele>1053.6053</ele>
        <time>2014-08-27T09:33:27Z</time>
      </trkpt>
      <trkpt lat="46.35343" lon="6.68323">
        <ele>1053.6053</ele>
        <time>2014-08-27T09:33:32Z</time>
      </trkpt>
      <trkpt lat="46.35342" lon="6.68324">
        <ele>1053.6053</ele>
        <time>2014-08-27T09:34:07Z</time>
      </trkpt>
      <trkpt lat="46.35342" lon="6.68324">
        <ele>1053.6053</ele>
        <time>2014-08-27T09:34:12Z</time>
      </trkpt>
      <trkpt lat="46.35342" lon="6.68327">
        <ele>1053.6053</ele>
        <time>2014-08-27T09:34:17Z</time>
      </trkpt>
      <trkpt lat="46.35338" lon="6.6833">
        <ele>1056.9598</ele>
        <time>2014-08-27T09:34:22Z</time>
      </trkpt>
      <trkpt lat="46.35335" lon="6.68334">
        <ele>1056.9598</ele>
        <time>2014-08-27T09:34:27Z</time>
      </trkpt>
      <trkpt lat="46.35333" lon="6.68337">
        <ele>1056.9598</ele>
        <time>2014-08-27T09:34:32Z</time>
      </trkpt>
      <trkpt lat="46.3533" lon="6.68341">
        <ele>1060.618</ele>
        <time>2014-08-27T09:34:37Z</time>
      </trkpt>
      <trkpt lat="46.3533" lon="6.68341">
        <ele>1060.618</ele>
        <time>2014-08-27T09:34:42Z</time>
      </trkpt>
      <trkpt lat="46.35327" lon="6.68345">
        <ele>1060.618</ele>
        <time>2014-08-27T09:34:52Z</time>
      </trkpt>
      <trkpt lat="46.35324" lon="6.6835">
        <ele>1060.618</ele>
        <time>2014-08-27T09:34:57Z</time>
      </trkpt>
      <trkpt lat="46.3532" lon="6.68357">
        <ele>1064.1783</ele>
        <time>2014-08-27T09:35:02Z</time>
      </trkpt>
      <trkpt lat="46.3532" lon="6.68357">
        <ele>1064.1783</ele>
        <time>2014-08-27T09:35:07Z</time>
      </trkpt>
      <trkpt lat="46.35314" lon="6.68366">
        <ele>1064.1783</ele>
        <time>2014-08-27T09:35:12Z</time>
      </trkpt>
      <trkpt lat="46.35314" lon="6.68366">
        <ele>1064.1783</ele>
        <time>2014-08-27T09:35:17Z</time>
      </trkpt>
      <trkpt lat="46.35313" lon="6.68368">
        <ele>1067.5139</ele>
        <time>2014-08-27T09:35:22Z</time>
      </trkpt>
      <trkpt lat="46.35313" lon="6.6837">
        <ele>1067.5139</ele>
        <time>2014-08-27T09:35:27Z</time>
      </trkpt>
      <trkpt lat="46.35313" lon="6.68377">
        <ele>1067.5139</ele>
        <time>2014-08-27T09:35:32Z</time>
      </trkpt>
      <trkpt lat="46.35311" lon="6.68378">
        <ele>1067.5139</ele>
        <time>2014-08-27T09:35:37Z</time>
      </trkpt>
      <trkpt lat="46.3531" lon="6.68386">
        <ele>1071.1276</ele>
        <time>2014-08-27T09:35:42Z</time>
      </trkpt>
      <trkpt lat="46.35306" lon="6.68393">
        <ele>1071.1276</ele>
        <time>2014-08-27T09:35:47Z</time>
      </trkpt>
      <trkpt lat="46.35308" lon="6.68409">
        <ele>1074.5334</ele>
        <time>2014-08-27T09:35:52Z</time>
      </trkpt>
      <trkpt lat="46.35311" lon="6.68412">
        <ele>1074.5334</ele>
        <time>2014-08-27T09:35:57Z</time>
      </trkpt>
      <trkpt lat="46.35313" lon="6.68417">
        <ele>1074.5334</ele>
        <time>2014-08-27T09:36:02Z</time>
      </trkpt>
      <trkpt lat="46.35313" lon="6.68417">
        <ele>1074.5334</ele>
        <time>2014-08-27T09:36:07Z</time>
      </trkpt>
      <trkpt lat="46.35312" lon="6.68419">
        <ele>1077.8586</ele>
        <time>2014-08-27T09:36:12Z</time>
      </trkpt>
      <trkpt lat="46.35309" lon="6.68422">
        <ele>1077.8586</ele>
        <time>2014-08-27T09:36:17Z</time>
      </trkpt>
      <trkpt lat="46.35309" lon="6.68429">
        <ele>1077.8586</ele>
        <time>2014-08-27T09:36:22Z</time>
      </trkpt>
      <trkpt lat="46.3531" lon="6.68431">
        <ele>1081.0049</ele>
        <time>2014-08-27T09:36:27Z</time>
      </trkpt>
      <trkpt lat="46.35309" lon="6.68431">
        <ele>1081.0049</ele>
        <time>2014-08-27T09:36:32Z</time>
      </trkpt>
      <trkpt lat="46.35308" lon="6.68432">
        <ele>1081.0049</ele>
        <time>2014-08-27T09:36:37Z</time>
      </trkpt>
      <trkpt lat="46.35308" lon="6.68432">
        <ele>1081.0049</ele>
        <time>2014-08-27T09:36:42Z</time>
      </trkpt>
      <trkpt lat="46.35307" lon="6.68434">
        <ele>1081.0049</ele>
        <time>2014-08-27T09:36:52Z</time>
      </trkpt>
      <trkpt lat="46.35305" lon="6.68435">
        <ele>1081.0049</ele>
        <time>2014-08-27T09:36:57Z</time>
      </trkpt>
      <trkpt lat="46.35299" lon="6.68439">
        <ele>1084.3574</ele>
        <time>2014-08-27T09:37:02Z</time>
      </trkpt>
      <trkpt lat="46.35296" lon="6.68442">
        <ele>1084.3574</ele>
        <time>2014-08-27T09:37:07Z</time>
      </trkpt>
      <trkpt lat="46.35296" lon="6.68442">
        <ele>1084.3574</ele>
        <time>2014-08-27T09:37:12Z</time>
      </trkpt>
      <trkpt lat="46.35293" lon="6.68444">
        <ele>1084.3574</ele>
        <time>2014-08-27T09:37:22Z</time>
      </trkpt>
      <trkpt lat="46.35292" lon="6.68455">
        <ele>1087.4081</ele>
        <time>2014-08-27T09:37:27Z</time>
      </trkpt>
      <trkpt lat="46.35292" lon="6.68458">
        <ele>1087.4081</ele>
        <time>2014-08-27T09:37:32Z</time>
      </trkpt>
      <trkpt lat="46.35292" lon="6.68458">
        <ele>1087.4081</ele>
        <time>2014-08-27T09:37:37Z</time>
      </trkpt>
      <trkpt lat="46.35289" lon="6.68461">
        <ele>1087.4081</ele>
        <time>2014-08-27T09:37:42Z</time>
      </trkpt>
      <trkpt lat="46.35288" lon="6.68461">
        <ele>1087.4081</ele>
        <time>2014-08-27T09:37:47Z</time>
      </trkpt>
      <trkpt lat="46.35287" lon="6.68463">
        <ele>1087.4081</ele>
        <time>2014-08-27T09:37:52Z</time>
      </trkpt>
      <trkpt lat="46.35287" lon="6.68463">
        <ele>1087.4081</ele>
        <time>2014-08-27T09:37:57Z</time>
      </trkpt>
      <trkpt lat="46.35285" lon="6.68466">
        <ele>1089.7736</ele>
        <time>2014-08-27T09:38:07Z</time>
      </trkpt>
      <trkpt lat="46.35285" lon="6.68466">
        <ele>1089.7736</ele>
        <time>2014-08-27T09:38:12Z</time>
      </trkpt>
      <trkpt lat="46.35284" lon="6.68469">
        <ele>1089.7736</ele>
        <time>2014-08-27T09:38:27Z</time>
      </trkpt>
      <trkpt lat="46.35284" lon="6.68471">
        <ele>1089.7736</ele>
        <time>2014-08-27T09:38:32Z</time>
      </trkpt>
      <trkpt lat="46.35283" lon="6.68472">
        <ele>1089.7736</ele>
        <time>2014-08-27T09:38:37Z</time>
      </trkpt>
      <trkpt lat="46.35284" lon="6.68477">
        <ele>1089.7736</ele>
        <time>2014-08-27T09:38:42Z</time>
      </trkpt>
      <trkpt lat="46.35281" lon="6.68482">
        <ele>1092.7866</ele>
        <time>2014-08-27T09:38:47Z</time>
      </trkpt>
      <trkpt lat="46.3528" lon="6.68483">
        <ele>1092.7866</ele>
        <time>2014-08-27T09:38:52Z</time>
      </trkpt>
      <trkpt lat="46.35276" lon="6.68487">
        <ele>1092.7866</ele>
        <time>2014-08-27T09:38:57Z</time>
      </trkpt>
      <trkpt lat="46.35276" lon="6.68487">
        <ele>1092.7866</ele>
        <time>2014-08-27T09:39:02Z</time>
      </trkpt>
      <trkpt lat="46.35276" lon="6.68488">
        <ele>1092.7866</ele>
        <time>2014-08-27T09:39:07Z</time>
      </trkpt>
      <trkpt lat="46.35275" lon="6.68493">
        <ele>1096.0953</ele>
        <time>2014-08-27T09:39:12Z</time>
      </trkpt>
      <trkpt lat="46.35275" lon="6.68496">
        <ele>1096.0953</ele>
        <time>2014-08-27T09:39:17Z</time>
      </trkpt>
      <trkpt lat="46.35274" lon="6.68497">
        <ele>1096.0953</ele>
        <time>2014-08-27T09:39:22Z</time>
      </trkpt>
      <trkpt lat="46.35273" lon="6.68498">
        <ele>1096.0953</ele>
        <time>2014-08-27T09:39:27Z</time>
      </trkpt>
      <trkpt lat="46.35272" lon="6.685">
        <ele>1096.0953</ele>
        <time>2014-08-27T09:39:32Z</time>
      </trkpt>
      <trkpt lat="46.35274" lon="6.68506">
        <ele>1099.5457</ele>
        <time>2014-08-27T09:39:37Z</time>
      </trkpt>
      <trkpt lat="46.35273" lon="6.68512">
        <ele>1099.5457</ele>
        <time>2014-08-27T09:39:42Z</time>
      </trkpt>
      <trkpt lat="46.35273" lon="6.68513">
        <ele>1099.5457</ele>
        <time>2014-08-27T09:39:47Z</time>
      </trkpt>
      <trkpt lat="46.35274" lon="6.68514">
        <ele>1099.5457</ele>
        <time>2014-08-27T09:39:52Z</time>
      </trkpt>
      <trkpt lat="46.35274" lon="6.68514">
        <ele>1099.5457</ele>
        <time>2014-08-27T09:39:57Z</time>
      </trkpt>
      <trkpt lat="46.35273" lon="6.68516">
        <ele>1099.5457</ele>
        <time>2014-08-27T09:40:37Z</time>
      </trkpt>
      <trkpt lat="46.35274" lon="6.68517">
        <ele>1099.5457</ele>
        <time>2014-08-27T09:40:42Z</time>
      </trkpt>
      <trkpt lat="46.35274" lon="6.68517">
        <ele>1099.5457</ele>
        <time>2014-08-27T09:40:47Z</time>
      </trkpt>
      <trkpt lat="46.35274" lon="6.68518">
        <ele>1099.5457</ele>
        <time>2014-08-27T09:40:52Z</time>
      </trkpt>
      <trkpt lat="46.35273" lon="6.68521">
        <ele>1103.1536</ele>
        <time>2014-08-27T09:40:57Z</time>
      </trkpt>
      <trkpt lat="46.35274" lon="6.68524">
        <ele>1103.1536</ele>
        <time>2014-08-27T09:41:02Z</time>
      </trkpt>
      <trkpt lat="46.35274" lon="6.68524">
        <ele>1103.1536</ele>
        <time>2014-08-27T09:41:07Z</time>
      </trkpt>
      <trkpt lat="46.35271" lon="6.68535">
        <ele>1106.5294</ele>
        <time>2014-08-27T09:41:12Z</time>
      </trkpt>
      <trkpt lat="46.35271" lon="6.68535">
        <ele>1106.5294</ele>
        <time>2014-08-27T09:41:17Z</time>
      </trkpt>
      <trkpt lat="46.35271" lon="6.68536">
        <ele>1106.5294</ele>
        <time>2014-08-27T09:41:22Z</time>
      </trkpt>
      <trkpt lat="46.35271" lon="6.68536">
        <ele>1106.5294</ele>
        <time>2014-08-27T09:41:27Z</time>
      </trkpt>
      <trkpt lat="46.35271" lon="6.68543">
        <ele>1106.5294</ele>
        <time>2014-08-27T09:41:32Z</time>
      </trkpt>
      <trkpt lat="46.35272" lon="6.68547">
        <ele>1106.5294</ele>
        <time>2014-08-27T09:41:37Z</time>
      </trkpt>
      <trkpt lat="46.35268" lon="6.68554">
        <ele>1109.0972</ele>
        <time>2014-08-27T09:41:42Z</time>
      </trkpt>
      <trkpt lat="46.35264" lon="6.68561">
        <ele>1109.0972</ele>
        <time>2014-08-27T09:41:47Z</time>
      </trkpt>
      <trkpt lat="46.35266" lon="6.6857">
        <ele>1111.4639</ele>
        <time>2014-08-27T09:41:52Z</time>
      </trkpt>
      <trkpt lat="46.35266" lon="6.68576">
        <ele>1111.4639</ele>
        <time>2014-08-27T09:41:57Z</time>
      </trkpt>
      <trkpt lat="46.35264" lon="6.68578">
        <ele>1111.4639</ele>
        <time>2014-08-27T09:42:02Z</time>
      </trkpt>
      <trkpt lat="46.35264" lon="6.68578">
        <ele>1111.4639</ele>
        <time>2014-08-27T09:42:07Z</time>
      </trkpt>
      <trkpt lat="46.35264" lon="6.68579">
        <ele>1111.4639</ele>
        <time>2014-08-27T09:42:12Z</time>
      </trkpt>
      <trkpt lat="46.35264" lon="6.68579">
        <ele>1111.4639</ele>
        <time>2014-08-27T09:42:17Z</time>
      </trkpt>
      <trkpt lat="46.35265" lon="6.68581">
        <ele>1111.4639</ele>
        <time>2014-08-27T09:42:22Z</time>
      </trkpt>
      <trkpt lat="46.35265" lon="6.68581">
        <ele>1111.4639</ele>
        <time>2014-08-27T09:42:27Z</time>
      </trkpt>
      <trkpt lat="46.35267" lon="6.68582">
        <ele>1114.2645</ele>
        <time>2014-08-27T09:42:32Z</time>
      </trkpt>
      <trkpt lat="46.35267" lon="6.68582">
        <ele>1114.2645</ele>
        <time>2014-08-27T09:42:37Z</time>
      </trkpt>
      <trkpt lat="46.35265" lon="6.68585">
        <ele>1114.2645</ele>
        <time>2014-08-27T09:42:42Z</time>
      </trkpt>
      <trkpt lat="46.35264" lon="6.68589">
        <ele>1114.2645</ele>
        <time>2014-08-27T09:42:47Z</time>
      </trkpt>
      <trkpt lat="46.35264" lon="6.68589">
        <ele>1114.2645</ele>
        <time>2014-08-27T09:42:52Z</time>
      </trkpt>
      <trkpt lat="46.35263" lon="6.6859">
        <ele>1114.2645</ele>
        <time>2014-08-27T09:42:57Z</time>
      </trkpt>
      <trkpt lat="46.35263" lon="6.68592">
        <ele>1114.2645</ele>
        <time>2014-08-27T09:43:02Z</time>
      </trkpt>
      <trkpt lat="46.35263" lon="6.68592">
        <ele>1114.2645</ele>
        <time>2014-08-27T09:43:07Z</time>
      </trkpt>
      <trkpt lat="46.35266" lon="6.68597">
        <ele>1117.6542</ele>
        <time>2014-08-27T09:43:12Z</time>
      </trkpt>
      <trkpt lat="46.35266" lon="6.68597">
        <ele>1117.6542</ele>
        <time>2014-08-27T09:43:17Z</time>
      </trkpt>
      <trkpt lat="46.35265" lon="6.68601">
        <ele>1117.6542</ele>
        <time>2014-08-27T09:43:22Z</time>
      </trkpt>
      <trkpt lat="46.35267" lon="6.68609">
        <ele>1117.6542</ele>
        <time>2014-08-27T09:43:27Z</time>
      </trkpt>
      <trkpt lat="46.35266" lon="6.68615">
        <ele>1120.7374</ele>
        <time>2014-08-27T09:43:32Z</time>
      </trkpt>
      <trkpt lat="46.35264" lon="6.68626">
        <ele>1120.7374</ele>
        <time>2014-08-27T09:43:37Z</time>
      </trkpt>
      <trkpt lat="46.35258" lon="6.6863">
        <ele>1123.4779</ele>
        <time>2014-08-27T09:43:42Z</time>
      </trkpt>
      <trkpt lat="46.35249" lon="6.68633">
        <ele>1125.8864</ele>
        <time>2014-08-27T09:43:47Z</time>
      </trkpt>
      <trkpt lat="46.35249" lon="6.68638">
        <ele>1125.8864</ele>
        <time>2014-08-27T09:43:52Z</time>
      </trkpt>
      <trkpt lat="46.35245" lon="6.68643">
        <ele>1125.8864</ele>
        <time>2014-08-27T09:43:57Z</time>
      </trkpt>
      <trkpt lat="46.3524" lon="6.68648">
        <ele>1128.0748</ele>
        <time>2014-08-27T09:44:02Z</time>
      </trkpt>
      <trkpt lat="46.35235" lon="6.68652">
        <ele>1128.0748</ele>
        <time>2014-08-27T09:44:07Z</time>
      </trkpt>
      <trkpt lat="46.35234" lon="6.68655">
        <ele>1128.0748</ele>
        <time>2014-08-27T09:44:12Z</time>
      </trkpt>
      <trkpt lat="46.35233" lon="6.68663">
        <ele>1129.9456</ele>
        <time>2014-08-27T09:44:17Z</time>
      </trkpt>
      <trkpt lat="46.35231" lon="6.68668">
        <ele>1129.9456</ele>
        <time>2014-08-27T09:44:22Z</time>
      </trkpt>
      <trkpt lat="46.35229" lon="6.6867">
        <ele>1129.9456</ele>
        <time>2014-08-27T09:44:27Z</time>
      </trkpt>
      <trkpt lat="46.35227" lon="6.68671">
        <ele>1131.4237</ele>
        <time>2014-08-27T09:44:32Z</time>
      </trkpt>
      <trkpt lat="46.35223" lon="6.68675">
        <ele>1131.4237</ele>
        <time>2014-08-27T09:44:37Z</time>
      </trkpt>
      <trkpt lat="46.35222" lon="6.68681">
        <ele>1131.4237</ele>
        <time>2014-08-27T09:44:42Z</time>
      </trkpt>
      <trkpt lat="46.35222" lon="6.68687">
        <ele>1132.5852</ele>
        <time>2014-08-27T09:44:47Z</time>
      </trkpt>
      <trkpt lat="46.35219" lon="6.68688">
        <ele>1132.5852</ele>
        <time>2014-08-27T09:44:52Z</time>
      </trkpt>
      <trkpt lat="46.35216" lon="6.68691">
        <ele>1132.5852</ele>
        <time>2014-08-27T09:44:57Z</time>
      </trkpt>
      <trkpt lat="46.35213" lon="6.68693">
        <ele>1133.5875</ele>
        <time>2014-08-27T09:45:02Z</time>
      </trkpt>
      <trkpt lat="46.35214" lon="6.68697">
        <ele>1133.5875</ele>
        <time>2014-08-27T09:45:07Z</time>
      </trkpt>
      <trkpt lat="46.35213" lon="6.68701">
        <ele>1133.5875</ele>
        <time>2014-08-27T09:45:12Z</time>
      </trkpt>
      <trkpt lat="46.3521" lon="6.68701">
        <ele>1133.5875</ele>
        <time>2014-08-27T09:45:17Z</time>
      </trkpt>
      <trkpt lat="46.35209" lon="6.68701">
        <ele>1134.3177</ele>
        <time>2014-08-27T09:45:22Z</time>
      </trkpt>
      <trkpt lat="46.35203" lon="6.68698">
        <ele>1134.3177</ele>
        <time>2014-08-27T09:45:27Z</time>
      </trkpt>
      <trkpt lat="46.35201" lon="6.687">
        <ele>1134.9603</ele>
        <time>2014-08-27T09:45:32Z</time>
      </trkpt>
      <trkpt lat="46.35199" lon="6.68699">
        <ele>1134.9603</ele>
        <time>2014-08-27T09:45:37Z</time>
      </trkpt>
      <trkpt lat="46.35198" lon="6.68698">
        <ele>1134.9603</ele>
        <time>2014-08-27T09:45:42Z</time>
      </trkpt>
      <trkpt lat="46.35197" lon="6.68698">
        <ele>1134.9603</ele>
        <time>2014-08-27T09:45:47Z</time>
      </trkpt>
      <trkpt lat="46.35196" lon="6.68699">
        <ele>1134.9603</ele>
        <time>2014-08-27T09:45:52Z</time>
      </trkpt>
      <trkpt lat="46.35195" lon="6.68699">
        <ele>1134.9603</ele>
        <time>2014-08-27T09:45:57Z</time>
      </trkpt>
      <trkpt lat="46.35194" lon="6.68699">
        <ele>1134.9603</ele>
        <time>2014-08-27T09:46:02Z</time>
      </trkpt>
      <trkpt lat="46.35192" lon="6.68699">
        <ele>1136.0466</ele>
        <time>2014-08-27T09:46:07Z</time>
      </trkpt>
      <trkpt lat="46.3519" lon="6.68699">
        <ele>1136.0466</ele>
        <time>2014-08-27T09:46:12Z</time>
      </trkpt>
      <trkpt lat="46.35188" lon="6.687">
        <ele>1136.0466</ele>
        <time>2014-08-27T09:46:17Z</time>
      </trkpt>
      <trkpt lat="46.35185" lon="6.687">
        <ele>1136.0466</ele>
        <time>2014-08-27T09:46:22Z</time>
      </trkpt>
      <trkpt lat="46.35185" lon="6.687">
        <ele>1136.0466</ele>
        <time>2014-08-27T09:46:27Z</time>
      </trkpt>
      <trkpt lat="46.35178" lon="6.68702">
        <ele>1138.3702</ele>
        <time>2014-08-27T09:46:32Z</time>
      </trkpt>
      <trkpt lat="46.35174" lon="6.68703">
        <ele>1138.3702</ele>
        <time>2014-08-27T09:46:37Z</time>
      </trkpt>
      <trkpt lat="46.35169" lon="6.68704">
        <ele>1140.7751</ele>
        <time>2014-08-27T09:46:42Z</time>
      </trkpt>
      <trkpt lat="46.35166" lon="6.68708">
        <ele>1140.7751</ele>
        <time>2014-08-27T09:46:47Z</time>
      </trkpt>
      <trkpt lat="46.35165" lon="6.68711">
        <ele>1140.7751</ele>
        <time>2014-08-27T09:46:52Z</time>
      </trkpt>
      <trkpt lat="46.35163" lon="6.68713">
        <ele>1140.7751</ele>
        <time>2014-08-27T09:46:57Z</time>
      </trkpt>
      <trkpt lat="46.35162" lon="6.68714">
        <ele>1143.2852</ele>
        <time>2014-08-27T09:47:02Z</time>
      </trkpt>
      <trkpt lat="46.35162" lon="6.68714">
        <ele>1143.2852</ele>
        <time>2014-08-27T09:47:07Z</time>
      </trkpt>
      <trkpt lat="46.3516" lon="6.68715">
        <ele>1143.2852</ele>
        <time>2014-08-27T09:47:12Z</time>
      </trkpt>
      <trkpt lat="46.3516" lon="6.68715">
        <ele>1143.2852</ele>
        <time>2014-08-27T09:47:17Z</time>
      </trkpt>
      <trkpt lat="46.3516" lon="6.68715">
        <ele>1143.2852</ele>
        <time>2014-08-27T09:47:22Z</time>
      </trkpt>
      <trkpt lat="46.3516" lon="6.68716">
        <ele>1143.2852</ele>
        <time>2014-08-27T09:48:57Z</time>
      </trkpt>
      <trkpt lat="46.3516" lon="6.68716">
        <ele>1143.2852</ele>
        <time>2014-08-27T09:49:02Z</time>
      </trkpt>
      <trkpt lat="46.35164" lon="6.68719">
        <ele>1143.2852</ele>
        <time>2014-08-27T09:49:32Z</time>
      </trkpt>
      <trkpt lat="46.35166" lon="6.68721">
        <ele>1146.2681</ele>
        <time>2014-08-27T09:49:37Z</time>
      </trkpt>
      <trkpt lat="46.35166" lon="6.68722">
        <ele>1146.2681</ele>
        <time>2014-08-27T09:49:42Z</time>
      </trkpt>
      <trkpt lat="46.35167" lon="6.68721">
        <ele>1146.2681</ele>
        <time>2014-08-27T09:49:47Z</time>
      </trkpt>
      <trkpt lat="46.35167" lon="6.68718">
        <ele>1146.2681</ele>
        <time>2014-08-27T09:49:52Z</time>
      </trkpt>
      <trkpt lat="46.35162" lon="6.68719">
        <ele>1146.2681</ele>
        <time>2014-08-27T09:49:57Z</time>
      </trkpt>
      <trkpt lat="46.3516" lon="6.6872">
        <ele>1148.8237</ele>
        <time>2014-08-27T09:50:02Z</time>
      </trkpt>
      <trkpt lat="46.35157" lon="6.68723">
        <ele>1148.8237</ele>
        <time>2014-08-27T09:50:07Z</time>
      </trkpt>
      <trkpt lat="46.35157" lon="6.68723">
        <ele>1148.8237</ele>
        <time>2014-08-27T09:50:12Z</time>
      </trkpt>
      <trkpt lat="46.35153" lon="6.68725">
        <ele>1148.8237</ele>
        <time>2014-08-27T09:50:17Z</time>
      </trkpt>
      <trkpt lat="46.35151" lon="6.68726">
        <ele>1151.2866</ele>
        <time>2014-08-27T09:50:22Z</time>
      </trkpt>
      <trkpt lat="46.35141" lon="6.68735">
        <ele>1153.5776</ele>
        <time>2014-08-27T09:50:27Z</time>
      </trkpt>
      <trkpt lat="46.35141" lon="6.68735">
        <ele>1153.5776</ele>
        <time>2014-08-27T09:50:32Z</time>
      </trkpt>
      <trkpt lat="46.3514" lon="6.68736">
        <ele>1153.5776</ele>
        <time>2014-08-27T09:50:37Z</time>
      </trkpt>
      <trkpt lat="46.35139" lon="6.68737">
        <ele>1153.5776</ele>
        <time>2014-08-27T09:50:42Z</time>
      </trkpt>
      <trkpt lat="46.35139" lon="6.68737">
        <ele>1153.5776</ele>
        <time>2014-08-27T09:50:47Z</time>
      </trkpt>
      <trkpt lat="46.35138" lon="6.68739">
        <ele>1153.5776</ele>
        <time>2014-08-27T09:50:57Z</time>
      </trkpt>
      <trkpt lat="46.35136" lon="6.6874">
        <ele>1153.5776</ele>
        <time>2014-08-27T09:51:02Z</time>
      </trkpt>
      <trkpt lat="46.35131" lon="6.68749">
        <ele>1155.8116</ele>
        <time>2014-08-27T09:51:07Z</time>
      </trkpt>
      <trkpt lat="46.35129" lon="6.68752">
        <ele>1155.8116</ele>
        <time>2014-08-27T09:51:12Z</time>
      </trkpt>
      <trkpt lat="46.35126" lon="6.68759">
        <ele>1155.8116</ele>
        <time>2014-08-27T09:51:17Z</time>
      </trkpt>
      <trkpt lat="46.35125" lon="6.68766">
        <ele>1157.9651</ele>
        <time>2014-08-27T09:51:22Z</time>
      </trkpt>
      <trkpt lat="46.35124" lon="6.68768">
        <ele>1157.9651</ele>
        <time>2014-08-27T09:51:27Z</time>
      </trkpt>
      <trkpt lat="46.35123" lon="6.6877">
        <ele>1157.9651</ele>
        <time>2014-08-27T09:51:32Z</time>
      </trkpt>
      <trkpt lat="46.3512" lon="6.68778">
        <ele>1160.0165</ele>
        <time>2014-08-27T09:51:37Z</time>
      </trkpt>
      <trkpt lat="46.3512" lon="6.68778">
        <ele>1160.0165</ele>
        <time>2014-08-27T09:51:42Z</time>
      </trkpt>
      <trkpt lat="46.35118" lon="6.68783">
        <ele>1160.0165</ele>
        <time>2014-08-27T09:51:47Z</time>
      </trkpt>
      <trkpt lat="46.35118" lon="6.68785">
        <ele>1160.0165</ele>
        <time>2014-08-27T09:51:52Z</time>
      </trkpt>
      <trkpt lat="46.35114" lon="6.68791">
        <ele>1161.6437</ele>
        <time>2014-08-27T09:51:57Z</time>
      </trkpt>
      <trkpt lat="46.35109" lon="6.688">
        <ele>1161.6437</ele>
        <time>2014-08-27T09:52:02Z</time>
      </trkpt>
      <trkpt lat="46.35107" lon="6.68806">
        <ele>1162.8661</ele>
        <time>2014-08-27T09:52:07Z</time>
      </trkpt>
      <trkpt lat="46.35107" lon="6.68806">
        <ele>1162.8661</ele>
        <time>2014-08-27T09:52:12Z</time>
      </trkpt>
      <trkpt lat="46.35104" lon="6.6881">
        <ele>1162.8661</ele>
        <time>2014-08-27T09:52:22Z</time>
      </trkpt>
      <trkpt lat="46.35099" lon="6.68813">
        <ele>1163.948</ele>
        <time>2014-08-27T09:52:27Z</time>
      </trkpt>
      <trkpt lat="46.35095" lon="6.68816">
        <ele>1163.948</ele>
        <time>2014-08-27T09:52:32Z</time>
      </trkpt>
      <trkpt lat="46.35093" lon="6.68817">
        <ele>1163.948</ele>
        <time>2014-08-27T09:52:37Z</time>
      </trkpt>
      <trkpt lat="46.35092" lon="6.68816">
        <ele>1163.948</ele>
        <time>2014-08-27T09:52:42Z</time>
      </trkpt>
      <trkpt lat="46.35092" lon="6.68816">
        <ele>1163.948</ele>
        <time>2014-08-27T09:52:47Z</time>
      </trkpt>
      <trkpt lat="46.3509" lon="6.68815">
        <ele>1164.7887</ele>
        <time>2014-08-27T09:53:12Z</time>
      </trkpt>
      <trkpt lat="46.3509" lon="6.68815">
        <ele>1164.7887</ele>
        <time>2014-08-27T09:53:17Z</time>
      </trkpt>
      <trkpt lat="46.3509" lon="6.68815">
        <ele>1164.7887</ele>
        <time>2014-08-27T09:53:47Z</time>
      </trkpt>
      <trkpt lat="46.3509" lon="6.68816">
        <ele>1164.7887</ele>
        <time>2014-08-27T09:53:52Z</time>
      </trkpt>
      <trkpt lat="46.3509" lon="6.68816">
        <ele>1164.7887</ele>
        <time>2014-08-27T09:53:57Z</time>
      </trkpt>
      <trkpt lat="46.35089" lon="6.68815">
        <ele>1164.7887</ele>
        <time>2014-08-27T09:54:02Z</time>
      </trkpt>
      <trkpt lat="46.35089" lon="6.68815">
        <ele>1164.7887</ele>
        <time>2014-08-27T09:54:07Z</time>
      </trkpt>
      <trkpt lat="46.35088" lon="6.68814">
        <ele>1164.7887</ele>
        <time>2014-08-27T09:54:17Z</time>
      </trkpt>
      <trkpt lat="46.35087" lon="6.68812">
        <ele>1164.7887</ele>
        <time>2014-08-27T09:54:22Z</time>
      </trkpt>
      <trkpt lat="46.35087" lon="6.68808">
        <ele>1164.7887</ele>
        <time>2014-08-27T09:54:27Z</time>
      </trkpt>
      <trkpt lat="46.35087" lon="6.68802">
        <ele>1165.7998</ele>
        <time>2014-08-27T09:54:32Z</time>
      </trkpt>
      <trkpt lat="46.35087" lon="6.68797">
        <ele>1165.7998</ele>
        <time>2014-08-27T09:54:37Z</time>
      </trkpt>
      <trkpt lat="46.35082" lon="6.68786">
        <ele>1166.8578</ele>
        <time>2014-08-27T09:54:42Z</time>
      </trkpt>
      <trkpt lat="46.35082" lon="6.68783">
        <ele>1166.8578</ele>
        <time>2014-08-27T09:54:47Z</time>
      </trkpt>
      <trkpt lat="46.35083" lon="6.68776">
        <ele>1166.8578</ele>
        <time>2014-08-27T09:54:52Z</time>
      </trkpt>
      <trkpt lat="46.35082" lon="6.68768">
        <ele>1167.9634</ele>
        <time>2014-08-27T09:54:57Z</time>
      </trkpt>
      <trkpt lat="46.35081" lon="6.68765">
        <ele>1167.9634</ele>
        <time>2014-08-27T09:55:02Z</time>
      </trkpt>
      <trkpt lat="46.35081" lon="6.68764">
        <ele>1167.9634</ele>
        <time>2014-08-27T09:55:07Z</time>
      </trkpt>
      <trkpt lat="46.35081" lon="6.68762">
        <ele>1167.9634</ele>
        <time>2014-08-27T09:55:12Z</time>
      </trkpt>
      <trkpt lat="46.3508" lon="6.68754">
        <ele>1168.8574</ele>
        <time>2014-08-27T09:55:17Z</time>
      </trkpt>
      <trkpt lat="46.3508" lon="6.68751">
        <ele>1168.8574</ele>
        <time>2014-08-27T09:55:22Z</time>
      </trkpt>
      <trkpt lat="46.3508" lon="6.6875">
        <ele>1168.8574</ele>
        <time>2014-08-27T09:55:27Z</time>
      </trkpt>
      <trkpt lat="46.3508" lon="6.68749">
        <ele>1168.8574</ele>
        <time>2014-08-27T09:55:32Z</time>
      </trkpt>
      <trkpt lat="46.3508" lon="6.68748">
        <ele>1168.8574</ele>
        <time>2014-08-27T09:55:37Z</time>
      </trkpt>
      <trkpt lat="46.35079" lon="6.68744">
        <ele>1168.8574</ele>
        <time>2014-08-27T09:55:42Z</time>
      </trkpt>
      <trkpt lat="46.35081" lon="6.68729">
        <ele>1170.3093</ele>
        <time>2014-08-27T09:55:47Z</time>
      </trkpt>
      <trkpt lat="46.35085" lon="6.68722">
        <ele>1170.3093</ele>
        <time>2014-08-27T09:55:52Z</time>
      </trkpt>
      <trkpt lat="46.35086" lon="6.68719">
        <ele>1170.3093</ele>
        <time>2014-08-27T09:55:57Z</time>
      </trkpt>
      <trkpt lat="46.35088" lon="6.68713">
        <ele>1171.733</ele>
        <time>2014-08-27T09:56:02Z</time>
      </trkpt>
      <trkpt lat="46.3509" lon="6.68708">
        <ele>1171.733</ele>
        <time>2014-08-27T09:56:07Z</time>
      </trkpt>
      <trkpt lat="46.3509" lon="6.68706">
        <ele>1171.733</ele>
        <time>2014-08-27T09:56:12Z</time>
      </trkpt>
      <trkpt lat="46.3509" lon="6.68704">
        <ele>1171.733</ele>
        <time>2014-08-27T09:56:17Z</time>
      </trkpt>
      <trkpt lat="46.35091" lon="6.68701">
        <ele>1172.9749</ele>
        <time>2014-08-27T09:56:22Z</time>
      </trkpt>
      <trkpt lat="46.35092" lon="6.68697">
        <ele>1172.9749</ele>
        <time>2014-08-27T09:56:27Z</time>
      </trkpt>
      <trkpt lat="46.35092" lon="6.68689">
        <ele>1172.9749</ele>
        <time>2014-08-27T09:56:32Z</time>
      </trkpt>
      <trkpt lat="46.35092" lon="6.68689">
        <ele>1172.9749</ele>
        <time>2014-08-27T09:56:37Z</time>
      </trkpt>
      <trkpt lat="46.35091" lon="6.68687">
        <ele>1174.5845</ele>
        <time>2014-08-27T09:56:42Z</time>
      </trkpt>
      <trkpt lat="46.35091" lon="6.68685">
        <ele>1174.5845</ele>
        <time>2014-08-27T09:56:47Z</time>
      </trkpt>
      <trkpt lat="46.35092" lon="6.68681">
        <ele>1174.5845</ele>
        <time>2014-08-27T09:56:52Z</time>
      </trkpt>
      <trkpt lat="46.35092" lon="6.68678">
        <ele>1174.5845</ele>
        <time>2014-08-27T09:56:57Z</time>
      </trkpt>
      <trkpt lat="46.35095" lon="6.68672">
        <ele>1176.508</ele>
        <time>2014-08-27T09:57:02Z</time>
      </trkpt>
      <trkpt lat="46.35097" lon="6.68666">
        <ele>1176.508</ele>
        <time>2014-08-27T09:57:07Z</time>
      </trkpt>
      <trkpt lat="46.35099" lon="6.68662">
        <ele>1176.508</ele>
        <time>2014-08-27T09:57:12Z</time>
      </trkpt>
      <trkpt lat="46.35098" lon="6.68658">
        <ele>1178.4928</ele>
        <time>2014-08-27T09:57:17Z</time>
      </trkpt>
      <trkpt lat="46.35098" lon="6.68653">
        <ele>1178.4928</ele>
        <time>2014-08-27T09:57:22Z</time>
      </trkpt>
      <trkpt lat="46.351" lon="6.68651">
        <ele>1178.4928</ele>
        <time>2014-08-27T09:57:27Z</time>
      </trkpt>
      <trkpt lat="46.35101" lon="6.6865">
        <ele>1178.4928</ele>
        <time>2014-08-27T09:57:32Z</time>
      </trkpt>
      <trkpt lat="46.35099" lon="6.68646">
        <ele>1180.2035</ele>
        <time>2014-08-27T09:57:37Z</time>
      </trkpt>
      <trkpt lat="46.35099" lon="6.6864">
        <ele>1180.2035</ele>
        <time>2014-08-27T09:57:42Z</time>
      </trkpt>
      <trkpt lat="46.351" lon="6.68637">
        <ele>1180.2035</ele>
        <time>2014-08-27T09:57:47Z</time>
      </trkpt>
      <trkpt lat="46.35101" lon="6.68634">
        <ele>1180.2035</ele>
        <time>2014-08-27T09:57:52Z</time>
      </trkpt>
      <trkpt lat="46.35101" lon="6.68631">
        <ele>1181.7338</ele>
        <time>2014-08-27T09:57:57Z</time>
      </trkpt>
      <trkpt lat="46.35103" lon="6.6863">
        <ele>1181.7338</ele>
        <time>2014-08-27T09:58:02Z</time>
      </trkpt>
      <trkpt lat="46.35107" lon="6.68629">
        <ele>1181.7338</ele>
        <time>2014-08-27T09:58:07Z</time>
      </trkpt>
      <trkpt lat="46.3511" lon="6.68626">
        <ele>1183.2428</ele>
        <time>2014-08-27T09:58:12Z</time>
      </trkpt>
      <trkpt lat="46.35112" lon="6.68624">
        <ele>1183.2428</ele>
        <time>2014-08-27T09:58:17Z</time>
      </trkpt>
      <trkpt lat="46.35112" lon="6.68622">
        <ele>1183.2428</ele>
        <time>2014-08-27T09:58:22Z</time>
      </trkpt>
      <trkpt lat="46.35114" lon="6.68619">
        <ele>1183.2428</ele>
        <time>2014-08-27T09:58:27Z</time>
      </trkpt>
      <trkpt lat="46.35114" lon="6.68618">
        <ele>1183.2428</ele>
        <time>2014-08-27T09:58:32Z</time>
      </trkpt>
      <trkpt lat="46.35112" lon="6.68613">
        <ele>1184.6187</ele>
        <time>2014-08-27T09:58:37Z</time>
      </trkpt>
      <trkpt lat="46.35113" lon="6.68612">
        <ele>1184.6187</ele>
        <time>2014-08-27T09:58:42Z</time>
      </trkpt>
      <trkpt lat="46.35113" lon="6.6861">
        <ele>1184.6187</ele>
        <time>2014-08-27T09:58:47Z</time>
      </trkpt>
      <trkpt lat="46.35111" lon="6.68608">
        <ele>1184.6187</ele>
        <time>2014-08-27T09:58:52Z</time>
      </trkpt>
      <trkpt lat="46.3511" lon="6.68606">
        <ele>1184.6187</ele>
        <time>2014-08-27T09:58:57Z</time>
      </trkpt>
      <trkpt lat="46.3511" lon="6.68606">
        <ele>1184.6187</ele>
        <time>2014-08-27T09:59:02Z</time>
      </trkpt>
      <trkpt lat="46.35111" lon="6.68605">
        <ele>1184.6187</ele>
        <time>2014-08-27T09:59:07Z</time>
      </trkpt>
      <trkpt lat="46.35111" lon="6.68604">
        <ele>1186.219</ele>
        <time>2014-08-27T09:59:12Z</time>
      </trkpt>
      <trkpt lat="46.3511" lon="6.68594">
        <ele>1186.219</ele>
        <time>2014-08-27T09:59:17Z</time>
      </trkpt>
      <trkpt lat="46.35109" lon="6.68589">
        <ele>1188.1295</ele>
        <time>2014-08-27T09:59:22Z</time>
      </trkpt>
      <trkpt lat="46.35105" lon="6.68583">
        <ele>1188.1295</ele>
        <time>2014-08-27T09:59:27Z</time>
      </trkpt>
      <trkpt lat="46.35104" lon="6.68582">
        <ele>1188.1295</ele>
        <time>2014-08-27T09:59:32Z</time>
      </trkpt>
      <trkpt lat="46.35105" lon="6.6858">
        <ele>1188.1295</ele>
        <time>2014-08-27T09:59:37Z</time>
      </trkpt>
      <trkpt lat="46.35105" lon="6.68578">
        <ele>1190.3279</ele>
        <time>2014-08-27T09:59:42Z</time>
      </trkpt>
      <trkpt lat="46.35105" lon="6.68575">
        <ele>1190.3279</ele>
        <time>2014-08-27T09:59:47Z</time>
      </trkpt>
      <trkpt lat="46.35104" lon="6.68571">
        <ele>1190.3279</ele>
        <time>2014-08-27T09:59:52Z</time>
      </trkpt>
      <trkpt lat="46.35102" lon="6.68569">
        <ele>1190.3279</ele>
        <time>2014-08-27T09:59:57Z</time>
      </trkpt>
      <trkpt lat="46.35099" lon="6.68566">
        <ele>1192.2737</ele>
        <time>2014-08-27T10:00:02Z</time>
      </trkpt>
      <trkpt lat="46.351" lon="6.6856">
        <ele>1192.2737</ele>
        <time>2014-08-27T10:00:07Z</time>
      </trkpt>
      <trkpt lat="46.35099" lon="6.68552">
        <ele>1194.173</ele>
        <time>2014-08-27T10:00:12Z</time>
      </trkpt>
      <trkpt lat="46.35103" lon="6.68545">
        <ele>1194.173</ele>
        <time>2014-08-27T10:00:17Z</time>
      </trkpt>
      <trkpt lat="46.35101" lon="6.6854">
        <ele>1196.1014</ele>
        <time>2014-08-27T10:00:22Z</time>
      </trkpt>
      <trkpt lat="46.351" lon="6.68535">
        <ele>1196.1014</ele>
        <time>2014-08-27T10:00:27Z</time>
      </trkpt>
      <trkpt lat="46.351" lon="6.68531">
        <ele>1196.1014</ele>
        <time>2014-08-27T10:00:32Z</time>
      </trkpt>
      <trkpt lat="46.351" lon="6.68531">
        <ele>1196.1014</ele>
        <time>2014-08-27T10:00:37Z</time>
      </trkpt>
      <trkpt lat="46.35099" lon="6.68529">
        <ele>1196.1014</ele>
        <time>2014-08-27T10:00:42Z</time>
      </trkpt>
      <trkpt lat="46.35097" lon="6.68524">
        <ele>1198.7344</ele>
        <time>2014-08-27T10:00:47Z</time>
      </trkpt>
      <trkpt lat="46.35098" lon="6.68523">
        <ele>1198.7344</ele>
        <time>2014-08-27T10:00:52Z</time>
      </trkpt>
      <trkpt lat="46.35097" lon="6.68519">
        <ele>1198.7344</ele>
        <time>2014-08-27T10:00:57Z</time>
      </trkpt>
      <trkpt lat="46.35097" lon="6.68518">
        <ele>1198.7344</ele>
        <time>2014-08-27T10:01:02Z</time>
      </trkpt>
      <trkpt lat="46.35097" lon="6.68516">
        <ele>1198.7344</ele>
        <time>2014-08-27T10:01:07Z</time>
      </trkpt>
      <trkpt lat="46.35097" lon="6.6851">
        <ele>1201.8883</ele>
        <time>2014-08-27T10:01:12Z</time>
      </trkpt>
      <trkpt lat="46.35098" lon="6.68501">
        <ele>1201.8883</ele>
        <time>2014-08-27T10:01:17Z</time>
      </trkpt>
      <trkpt lat="46.35099" lon="6.685">
        <ele>1201.8883</ele>
        <time>2014-08-27T10:01:22Z</time>
      </trkpt>
      <trkpt lat="46.35103" lon="6.68497">
        <ele>1204.9163</ele>
        <time>2014-08-27T10:01:27Z</time>
      </trkpt>
      <trkpt lat="46.35104" lon="6.68494">
        <ele>1204.9163</ele>
        <time>2014-08-27T10:01:32Z</time>
      </trkpt>
      <trkpt lat="46.35104" lon="6.68491">
        <ele>1204.9163</ele>
        <time>2014-08-27T10:01:37Z</time>
      </trkpt>
      <trkpt lat="46.35104" lon="6.68491">
        <ele>1204.9163</ele>
        <time>2014-08-27T10:01:42Z</time>
      </trkpt>
      <trkpt lat="46.35105" lon="6.6849">
        <ele>1204.9163</ele>
        <time>2014-08-27T10:01:47Z</time>
      </trkpt>
      <trkpt lat="46.35105" lon="6.68489">
        <ele>1204.9163</ele>
        <time>2014-08-27T10:01:52Z</time>
      </trkpt>
      <trkpt lat="46.35111" lon="6.68485">
        <ele>1208.4296</ele>
        <time>2014-08-27T10:01:57Z</time>
      </trkpt>
      <trkpt lat="46.35114" lon="6.68477">
        <ele>1208.4296</ele>
        <time>2014-08-27T10:02:02Z</time>
      </trkpt>
      <trkpt lat="46.35115" lon="6.68475">
        <ele>1208.4296</ele>
        <time>2014-08-27T10:02:07Z</time>
      </trkpt>
      <trkpt lat="46.35116" lon="6.68471">
        <ele>1211.7109</ele>
        <time>2014-08-27T10:02:12Z</time>
      </trkpt>
      <trkpt lat="46.35116" lon="6.6847">
        <ele>1211.7109</ele>
        <time>2014-08-27T10:02:17Z</time>
      </trkpt>
      <trkpt lat="46.35116" lon="6.68466">
        <ele>1211.7109</ele>
        <time>2014-08-27T10:02:22Z</time>
      </trkpt>
      <trkpt lat="46.35115" lon="6.68464">
        <ele>1211.7109</ele>
        <time>2014-08-27T10:02:27Z</time>
      </trkpt>
      <trkpt lat="46.35114" lon="6.68462">
        <ele>1211.7109</ele>
        <time>2014-08-27T10:02:32Z</time>
      </trkpt>
      <trkpt lat="46.35114" lon="6.6846">
        <ele>1211.7109</ele>
        <time>2014-08-27T10:02:37Z</time>
      </trkpt>
      <trkpt lat="46.35115" lon="6.68458">
        <ele>1214.4706</ele>
        <time>2014-08-27T10:02:42Z</time>
      </trkpt>
      <trkpt lat="46.35116" lon="6.68456">
        <ele>1214.4706</ele>
        <time>2014-08-27T10:02:47Z</time>
      </trkpt>
      <trkpt lat="46.35116" lon="6.68455">
        <ele>1214.4706</ele>
        <time>2014-08-27T10:02:52Z</time>
      </trkpt>
      <trkpt lat="46.35116" lon="6.68455">
        <ele>1214.4706</ele>
        <time>2014-08-27T10:02:57Z</time>
      </trkpt>
      <trkpt lat="46.35116" lon="6.68453">
        <ele>1214.4706</ele>
        <time>2014-08-27T10:03:07Z</time>
      </trkpt>
      <trkpt lat="46.35114" lon="6.68451">
        <ele>1214.4706</ele>
        <time>2014-08-27T10:03:12Z</time>
      </trkpt>
      <trkpt lat="46.35115" lon="6.68448">
        <ele>1214.4706</ele>
        <time>2014-08-27T10:03:17Z</time>
      </trkpt>
      <trkpt lat="46.35111" lon="6.68441">
        <ele>1217.278</ele>
        <time>2014-08-27T10:03:22Z</time>
      </trkpt>
      <trkpt lat="46.35111" lon="6.68441">
        <ele>1217.278</ele>
        <time>2014-08-27T10:03:27Z</time>
      </trkpt>
      <trkpt lat="46.35108" lon="6.68432">
        <ele>1217.278</ele>
        <time>2014-08-27T10:03:47Z</time>
      </trkpt>
      <trkpt lat="46.35107" lon="6.68429">
        <ele>1220.588</ele>
        <time>2014-08-27T10:03:52Z</time>
      </trkpt>
      <trkpt lat="46.35107" lon="6.68429">
        <ele>1220.588</ele>
        <time>2014-08-27T10:03:57Z</time>
      </trkpt>
      <trkpt lat="46.35107" lon="6.68424">
        <ele>1220.588</ele>
        <time>2014-08-27T10:04:07Z</time>
      </trkpt>
      <trkpt lat="46.35108" lon="6.68422">
        <ele>1220.588</ele>
        <time>2014-08-27T10:04:12Z</time>
      </trkpt>
      <trkpt lat="46.35111" lon="6.68413">
        <ele>1223.8844</ele>
        <time>2014-08-27T10:04:17Z</time>
      </trkpt>
      <trkpt lat="46.3513" lon="6.68388">
        <ele>1226.8328</ele>
        <time>2014-08-27T10:04:22Z</time>
      </trkpt>
      <trkpt lat="46.35134" lon="6.6838">
        <ele>1226.8328</ele>
        <time>2014-08-27T10:04:27Z</time>
      </trkpt>
      <trkpt lat="46.35131" lon="6.68373">
        <ele>1229.4847</ele>
        <time>2014-08-27T10:04:32Z</time>
      </trkpt>
      <trkpt lat="46.35131" lon="6.68365">
        <ele>1229.4847</ele>
        <time>2014-08-27T10:04:37Z</time>
      </trkpt>
      <trkpt lat="46.35132" lon="6.6836">
        <ele>1231.86</ele>
        <time>2014-08-27T10:04:42Z</time>
      </trkpt>
      <trkpt lat="46.35132" lon="6.68357">
        <ele>1231.86</ele>
        <time>2014-08-27T10:04:47Z</time>
      </trkpt>
      <trkpt lat="46.35131" lon="6.68354">
        <ele>1231.86</ele>
        <time>2014-08-27T10:04:52Z</time>
      </trkpt>
      <trkpt lat="46.35132" lon="6.68352">
        <ele>1231.86</ele>
        <time>2014-08-27T10:04:57Z</time>
      </trkpt>
      <trkpt lat="46.35132" lon="6.6835">
        <ele>1231.86</ele>
        <time>2014-08-27T10:05:02Z</time>
      </trkpt>
      <trkpt lat="46.35132" lon="6.68347">
        <ele>1231.86</ele>
        <time>2014-08-27T10:05:07Z</time>
      </trkpt>
      <trkpt lat="46.3513" lon="6.68342">
        <ele>1233.6033</ele>
        <time>2014-08-27T10:05:12Z</time>
      </trkpt>
      <trkpt lat="46.35129" lon="6.68341">
        <ele>1233.6033</ele>
        <time>2014-08-27T10:05:17Z</time>
      </trkpt>
      <trkpt lat="46.35124" lon="6.68329">
        <ele>1235.1217</ele>
        <time>2014-08-27T10:05:22Z</time>
      </trkpt>
      <trkpt lat="46.35122" lon="6.68327">
        <ele>1235.1217</ele>
        <time>2014-08-27T10:05:27Z</time>
      </trkpt>
      <trkpt lat="46.35117" lon="6.68323">
        <ele>1235.1217</ele>
        <time>2014-08-27T10:05:32Z</time>
      </trkpt>
      <trkpt lat="46.35114" lon="6.68318">
        <ele>1236.4045</ele>
        <time>2014-08-27T10:05:37Z</time>
      </trkpt>
      <trkpt lat="46.35115" lon="6.68316">
        <ele>1236.4045</ele>
        <time>2014-08-27T10:05:42Z</time>
      </trkpt>
      <trkpt lat="46.35115" lon="6.68314">
        <ele>1236.4045</ele>
        <time>2014-08-27T10:05:47Z</time>
      </trkpt>
      <trkpt lat="46.35115" lon="6.68311">
        <ele>1236.4045</ele>
        <time>2014-08-27T10:05:52Z</time>
      </trkpt>
      <trkpt lat="46.35114" lon="6.6831">
        <ele>1236.4045</ele>
        <time>2014-08-27T10:05:57Z</time>
      </trkpt>
      <trkpt lat="46.35114" lon="6.6831">
        <ele>1236.4045</ele>
        <time>2014-08-27T10:06:02Z</time>
      </trkpt>
      <trkpt lat="46.35114" lon="6.6831">
        <ele>1236.4045</ele>
        <time>2014-08-27T10:06:07Z</time>
      </trkpt>
      <trkpt lat="46.35114" lon="6.68306">
        <ele>1236.4045</ele>
        <time>2014-08-27T10:06:47Z</time>
      </trkpt>
      <trkpt lat="46.35115" lon="6.68303">
        <ele>1237.3989</ele>
        <time>2014-08-27T10:06:52Z</time>
      </trkpt>
      <trkpt lat="46.35115" lon="6.68297">
        <ele>1237.3989</ele>
        <time>2014-08-27T10:06:57Z</time>
      </trkpt>
      <trkpt lat="46.35114" lon="6.68296">
        <ele>1237.3989</ele>
        <time>2014-08-27T10:07:02Z</time>
      </trkpt>
      <trkpt lat="46.35114" lon="6.68295">
        <ele>1237.3989</ele>
        <time>2014-08-27T10:07:07Z</time>
      </trkpt>
      <trkpt lat="46.35113" lon="6.68293">
        <ele>1237.3989</ele>
        <time>2014-08-27T10:07:12Z</time>
      </trkpt>
      <trkpt lat="46.35113" lon="6.68293">
        <ele>1237.3989</ele>
        <time>2014-08-27T10:07:17Z</time>
      </trkpt>
      <trkpt lat="46.35114" lon="6.68293">
        <ele>1238.1724</ele>
        <time>2014-08-27T10:07:22Z</time>
      </trkpt>
      <trkpt lat="46.35115" lon="6.68293">
        <ele>1238.1724</ele>
        <time>2014-08-27T10:07:27Z</time>
      </trkpt>
      <trkpt lat="46.35116" lon="6.68292">
        <ele>1238.1724</ele>
        <time>2014-08-27T10:07:32Z</time>
      </trkpt>
      <trkpt lat="46.35116" lon="6.68291">
        <ele>1238.1724</ele>
        <time>2014-08-27T10:07:37Z</time>
      </trkpt>
      <trkpt lat="46.3512" lon="6.6829">
        <ele>1238.1724</ele>
        <time>2014-08-27T10:07:42Z</time>
      </trkpt>
      <trkpt lat="46.35119" lon="6.68289">
        <ele>1238.1724</ele>
        <time>2014-08-27T10:07:47Z</time>
      </trkpt>
      <trkpt lat="46.35118" lon="6.68289">
        <ele>1238.1724</ele>
        <time>2014-08-27T10:07:52Z</time>
      </trkpt>
      <trkpt lat="46.35117" lon="6.6829">
        <ele>1238.8596</ele>
        <time>2014-08-27T10:07:57Z</time>
      </trkpt>
      <trkpt lat="46.35115" lon="6.6829">
        <ele>1238.8596</ele>
        <time>2014-08-27T10:08:02Z</time>
      </trkpt>
      <trkpt lat="46.35113" lon="6.68291">
        <ele>1238.8596</ele>
        <time>2014-08-27T10:08:07Z</time>
      </trkpt>
      <trkpt lat="46.35113" lon="6.68291">
        <ele>1238.8596</ele>
        <time>2014-08-27T10:08:12Z</time>
      </trkpt>
      <trkpt lat="46.35114" lon="6.68292">
        <ele>1238.8596</ele>
        <time>2014-08-27T10:08:17Z</time>
      </trkpt>
      <trkpt lat="46.35114" lon="6.68292">
        <ele>1238.8596</ele>
        <time>2014-08-27T10:08:22Z</time>
      </trkpt>
      <trkpt lat="46.35114" lon="6.68293">
        <ele>1238.8596</ele>
        <time>2014-08-27T10:08:27Z</time>
      </trkpt>
      <trkpt lat="46.35114" lon="6.68291">
        <ele>1238.8596</ele>
        <time>2014-08-27T10:08:32Z</time>
      </trkpt>
      <trkpt lat="46.35113" lon="6.6829">
        <ele>1238.8596</ele>
        <time>2014-08-27T10:08:37Z</time>
      </trkpt>
      <trkpt lat="46.35112" lon="6.6829">
        <ele>1238.8596</ele>
        <time>2014-08-27T10:08:42Z</time>
      </trkpt>
      <trkpt lat="46.35112" lon="6.6829">
        <ele>1239.3125</ele>
        <time>2014-08-27T10:08:47Z</time>
      </trkpt>
      <trkpt lat="46.35112" lon="6.68291">
        <ele>1239.3125</ele>
        <time>2014-08-27T10:08:52Z</time>
      </trkpt>
      <trkpt lat="46.35114" lon="6.68291">
        <ele>1239.3125</ele>
        <time>2014-08-27T10:08:57Z</time>
      </trkpt>
      <trkpt lat="46.35115" lon="6.68292">
        <ele>1239.3125</ele>
        <time>2014-08-27T10:09:02Z</time>
      </trkpt>
      <trkpt lat="46.35115" lon="6.68292">
        <ele>1239.3125</ele>
        <time>2014-08-27T10:09:07Z</time>
      </trkpt>
      <trkpt lat="46.35116" lon="6.68293">
        <ele>1239.3125</ele>
        <time>2014-08-27T10:09:12Z</time>
      </trkpt>
      <trkpt lat="46.35115" lon="6.68292">
        <ele>1239.3125</ele>
        <time>2014-08-27T10:09:17Z</time>
      </trkpt>
      <trkpt lat="46.35115" lon="6.68292">
        <ele>1239.3125</ele>
        <time>2014-08-27T10:09:22Z</time>
      </trkpt>
      <trkpt lat="46.35115" lon="6.68292">
        <ele>1239.3125</ele>
        <time>2014-08-27T10:09:27Z</time>
      </trkpt>
      <trkpt lat="46.35113" lon="6.68292">
        <ele>1239.3125</ele>
        <time>2014-08-27T10:09:32Z</time>
      </trkpt>
      <trkpt lat="46.35114" lon="6.68292">
        <ele>1239.5524</ele>
        <time>2014-08-27T10:09:37Z</time>
      </trkpt>
      <trkpt lat="46.35111" lon="6.68294">
        <ele>1239.5524</ele>
        <time>2014-08-27T10:09:42Z</time>
      </trkpt>
      <trkpt lat="46.35109" lon="6.68294">
        <ele>1239.5524</ele>
        <time>2014-08-27T10:09:47Z</time>
      </trkpt>
      <trkpt lat="46.35109" lon="6.68294">
        <ele>1239.5524</ele>
        <time>2014-08-27T10:09:52Z</time>
      </trkpt>
      <trkpt lat="46.35109" lon="6.68293">
        <ele>1239.5524</ele>
        <time>2014-08-27T10:09:57Z</time>
      </trkpt>
      <trkpt lat="46.35109" lon="6.68293">
        <ele>1239.5524</ele>
        <time>2014-08-27T10:10:02Z</time>
      </trkpt>
      <trkpt lat="46.35109" lon="6.68293">
        <ele>1239.5524</ele>
        <time>2014-08-27T10:10:07Z</time>
      </trkpt>
      <trkpt lat="46.3511" lon="6.68294">
        <ele>1239.5524</ele>
        <time>2014-08-27T10:10:12Z</time>
      </trkpt>
      <trkpt lat="46.3511" lon="6.68293">
        <ele>1239.6002</ele>
        <time>2014-08-27T10:10:17Z</time>
      </trkpt>
      <trkpt lat="46.35111" lon="6.68292">
        <ele>1239.6002</ele>
        <time>2014-08-27T10:10:22Z</time>
      </trkpt>
      <trkpt lat="46.35109" lon="6.68289">
        <ele>1239.6002</ele>
        <time>2014-08-27T10:10:27Z</time>
      </trkpt>
      <trkpt lat="46.35108" lon="6.68289">
        <ele>1239.6002</ele>
        <time>2014-08-27T10:10:32Z</time>
      </trkpt>
      <trkpt lat="46.35108" lon="6.68288">
        <ele>1239.6002</ele>
        <time>2014-08-27T10:10:37Z</time>
      </trkpt>
      <trkpt lat="46.35108" lon="6.68287">
        <ele>1239.6002</ele>
        <time>2014-08-27T10:10:42Z</time>
      </trkpt>
      <trkpt lat="46.35108" lon="6.68286">
        <ele>1239.6002</ele>
        <time>2014-08-27T10:10:47Z</time>
      </trkpt>
      <trkpt lat="46.35107" lon="6.68286">
        <ele>1239.6002</ele>
        <time>2014-08-27T10:10:52Z</time>
      </trkpt>
      <trkpt lat="46.35107" lon="6.68287">
        <ele>1239.6002</ele>
        <time>2014-08-27T10:10:57Z</time>
      </trkpt>
      <trkpt lat="46.35105" lon="6.68286">
        <ele>1239.6626</ele>
        <time>2014-08-27T10:11:02Z</time>
      </trkpt>
      <trkpt lat="46.35104" lon="6.68285">
        <ele>1239.6626</ele>
        <time>2014-08-27T10:11:07Z</time>
      </trkpt>
      <trkpt lat="46.35102" lon="6.68284">
        <ele>1239.6626</ele>
        <time>2014-08-27T10:11:12Z</time>
      </trkpt>
      <trkpt lat="46.35099" lon="6.68282">
        <ele>1239.6626</ele>
        <time>2014-08-27T10:11:17Z</time>
      </trkpt>
      <trkpt lat="46.35097" lon="6.68278">
        <ele>1239.6721</ele>
        <time>2014-08-27T10:11:22Z</time>
      </trkpt>
      <trkpt lat="46.35097" lon="6.68278">
        <ele>1239.6721</ele>
        <time>2014-08-27T10:11:27Z</time>
      </trkpt>
      <trkpt lat="46.35094" lon="6.68276">
        <ele>1239.6721</ele>
        <time>2014-08-27T10:11:32Z</time>
      </trkpt>
      <trkpt lat="46.35091" lon="6.68275">
        <ele>1239.6721</ele>
        <time>2014-08-27T10:11:37Z</time>
      </trkpt>
      <trkpt lat="46.3509" lon="6.68274">
        <ele>1239.6721</ele>
        <time>2014-08-27T10:11:42Z</time>
      </trkpt>
      <trkpt lat="46.3509" lon="6.68273">
        <ele>1239.6721</ele>
        <time>2014-08-27T10:11:47Z</time>
      </trkpt>
      <trkpt lat="46.3509" lon="6.68273">
        <ele>1239.6812</ele>
        <time>2014-08-27T10:11:52Z</time>
      </trkpt>
      <trkpt lat="46.35089" lon="6.68271">
        <ele>1239.6812</ele>
        <time>2014-08-27T10:11:57Z</time>
      </trkpt>
      <trkpt lat="46.35088" lon="6.68269">
        <ele>1239.6812</ele>
        <time>2014-08-27T10:12:02Z</time>
      </trkpt>
      <trkpt lat="46.35088" lon="6.68267">
        <ele>1239.6812</ele>
        <time>2014-08-27T10:12:07Z</time>
      </trkpt>
      <trkpt lat="46.35088" lon="6.68266">
        <ele>1239.6812</ele>
        <time>2014-08-27T10:12:12Z</time>
      </trkpt>
      <trkpt lat="46.35089" lon="6.68263">
        <ele>1239.6812</ele>
        <time>2014-08-27T10:12:17Z</time>
      </trkpt>
      <trkpt lat="46.3509" lon="6.68262">
        <ele>1239.6812</ele>
        <time>2014-08-27T10:12:22Z</time>
      </trkpt>
      <trkpt lat="46.35091" lon="6.68261">
        <ele>1239.897</ele>
        <time>2014-08-27T10:12:27Z</time>
      </trkpt>
      <trkpt lat="46.3509" lon="6.68257">
        <ele>1239.897</ele>
        <time>2014-08-27T10:12:32Z</time>
      </trkpt>
      <trkpt lat="46.3509" lon="6.68259">
        <ele>1239.897</ele>
        <time>2014-08-27T10:12:37Z</time>
      </trkpt>
      <trkpt lat="46.3509" lon="6.68259">
        <ele>1239.897</ele>
        <time>2014-08-27T10:12:42Z</time>
      </trkpt>
      <trkpt lat="46.35088" lon="6.68258">
        <ele>1239.897</ele>
        <time>2014-08-27T10:12:47Z</time>
      </trkpt>
      <trkpt lat="46.35087" lon="6.68258">
        <ele>1239.897</ele>
        <time>2014-08-27T10:12:52Z</time>
      </trkpt>
      <trkpt lat="46.35086" lon="6.68259">
        <ele>1239.897</ele>
        <time>2014-08-27T10:12:57Z</time>
      </trkpt>
      <trkpt lat="46.35085" lon="6.68262">
        <ele>1240.6262</ele>
        <time>2014-08-27T10:13:02Z</time>
      </trkpt>
      <trkpt lat="46.35085" lon="6.68262">
        <ele>1240.6262</ele>
        <time>2014-08-27T10:13:07Z</time>
      </trkpt>
      <trkpt lat="46.35085" lon="6.68262">
        <ele>1240.6262</ele>
        <time>2014-08-27T10:13:12Z</time>
      </trkpt>
      <trkpt lat="46.35086" lon="6.68263">
        <ele>1240.6262</ele>
        <time>2014-08-27T10:13:17Z</time>
      </trkpt>
      <trkpt lat="46.35087" lon="6.68265">
        <ele>1240.6262</ele>
        <time>2014-08-27T10:13:22Z</time>
      </trkpt>
      <trkpt lat="46.35087" lon="6.68265">
        <ele>1240.6262</ele>
        <time>2014-08-27T10:13:27Z</time>
      </trkpt>
      <trkpt lat="46.35088" lon="6.6827">
        <ele>1240.6262</ele>
        <time>2014-08-27T10:13:32Z</time>
      </trkpt>
      <trkpt lat="46.35087" lon="6.68271">
        <ele>1240.6262</ele>
        <time>2014-08-27T10:13:37Z</time>
      </trkpt>
      <trkpt lat="46.35087" lon="6.68273">
        <ele>1240.6262</ele>
        <time>2014-08-27T10:13:42Z</time>
      </trkpt>
      <trkpt lat="46.35087" lon="6.68273">
        <ele>1241.5461</ele>
        <time>2014-08-27T10:13:47Z</time>
      </trkpt>
      <trkpt lat="46.35087" lon="6.68274">
        <ele>1241.5461</ele>
        <time>2014-08-27T10:13:52Z</time>
      </trkpt>
      <trkpt lat="46.35087" lon="6.68274">
        <ele>1241.5461</ele>
        <time>2014-08-27T10:13:57Z</time>
      </trkpt>
      <trkpt lat="46.35088" lon="6.68275">
        <ele>1241.5461</ele>
        <time>2014-08-27T10:14:02Z</time>
      </trkpt>
      <trkpt lat="46.35088" lon="6.68277">
        <ele>1241.5461</ele>
        <time>2014-08-27T10:14:07Z</time>
      </trkpt>
      <trkpt lat="46.35088" lon="6.68278">
        <ele>1241.5461</ele>
        <time>2014-08-27T10:14:12Z</time>
      </trkpt>
      <trkpt lat="46.35088" lon="6.68278">
        <ele>1241.5461</ele>
        <time>2014-08-27T10:14:17Z</time>
      </trkpt>
      <trkpt lat="46.3509" lon="6.68279">
        <ele>1241.5461</ele>
        <time>2014-08-27T10:14:22Z</time>
      </trkpt>
      <trkpt lat="46.35091" lon="6.68279">
        <ele>1241.5461</ele>
        <time>2014-08-27T10:14:27Z</time>
      </trkpt>
      <trkpt lat="46.35092" lon="6.68278">
        <ele>1241.5461</ele>
        <time>2014-08-27T10:14:32Z</time>
      </trkpt>
      <trkpt lat="46.35092" lon="6.68277">
        <ele>1241.5461</ele>
        <time>2014-08-27T10:14:37Z</time>
      </trkpt>
      <trkpt lat="46.35091" lon="6.68273">
        <ele>1242.3427</ele>
        <time>2014-08-27T10:14:42Z</time>
      </trkpt>
      <trkpt lat="46.3509" lon="6.68272">
        <ele>1242.3427</ele>
        <time>2014-08-27T10:14:47Z</time>
      </trkpt>
      <trkpt lat="46.3509" lon="6.68273">
        <ele>1242.3427</ele>
        <time>2014-08-27T10:14:52Z</time>
      </trkpt>
      <trkpt lat="46.3509" lon="6.68273">
        <ele>1242.3427</ele>
        <time>2014-08-27T10:14:57Z</time>
      </trkpt>
      <trkpt lat="46.3509" lon="6.68273">
        <ele>1242.3427</ele>
        <time>2014-08-27T10:15:02Z</time>
      </trkpt>
      <trkpt lat="46.35091" lon="6.68273">
        <ele>1242.3427</ele>
        <time>2014-08-27T10:15:07Z</time>
      </trkpt>
      <trkpt lat="46.3509" lon="6.68274">
        <ele>1242.3427</ele>
        <time>2014-08-27T10:15:12Z</time>
      </trkpt>
      <trkpt lat="46.35089" lon="6.68272">
        <ele>1242.3427</ele>
        <time>2014-08-27T10:15:17Z</time>
      </trkpt>
      <trkpt lat="46.35088" lon="6.68272">
        <ele>1242.3427</ele>
        <time>2014-08-27T10:15:22Z</time>
      </trkpt>
      <trkpt lat="46.35089" lon="6.68273">
        <ele>1242.3427</ele>
        <time>2014-08-27T10:15:27Z</time>
      </trkpt>
      <trkpt lat="46.35089" lon="6.68272">
        <ele>1242.3427</ele>
        <time>2014-08-27T10:15:32Z</time>
      </trkpt>
      <trkpt lat="46.35089" lon="6.68272">
        <ele>1242.3427</ele>
        <time>2014-08-27T10:15:37Z</time>
      </trkpt>
      <trkpt lat="46.35089" lon="6.68272">
        <ele>1242.3427</ele>
        <time>2014-08-27T10:15:42Z</time>
      </trkpt>
      <trkpt lat="46.35089" lon="6.68272">
        <ele>1242.3427</ele>
        <time>2014-08-27T10:15:47Z</time>
      </trkpt>
      <trkpt lat="46.35088" lon="6.68271">
        <ele>1242.3427</ele>
        <time>2014-08-27T10:15:52Z</time>
      </trkpt>
      <trkpt lat="46.35088" lon="6.68271">
        <ele>1242.3427</ele>
        <time>2014-08-27T10:15:57Z</time>
      </trkpt>
      <trkpt lat="46.35089" lon="6.68271">
        <ele>1242.3427</ele>
        <time>2014-08-27T10:16:02Z</time>
      </trkpt>
      <trkpt lat="46.35088" lon="6.68267">
        <ele>1243.633</ele>
        <time>2014-08-27T10:16:07Z</time>
      </trkpt>
      <trkpt lat="46.35087" lon="6.68266">
        <ele>1243.633</ele>
        <time>2014-08-27T10:16:12Z</time>
      </trkpt>
      <trkpt lat="46.35088" lon="6.68257">
        <ele>1243.633</ele>
        <time>2014-08-27T10:16:17Z</time>
      </trkpt>
      <trkpt lat="46.35087" lon="6.68256">
        <ele>1244.8347</ele>
        <time>2014-08-27T10:16:22Z</time>
      </trkpt>
      <trkpt lat="46.35085" lon="6.68257">
        <ele>1244.8347</ele>
        <time>2014-08-27T10:16:27Z</time>
      </trkpt>
      <trkpt lat="46.35082" lon="6.68259">
        <ele>1244.8347</ele>
        <time>2014-08-27T10:16:32Z</time>
      </trkpt>
      <trkpt lat="46.35081" lon="6.68259">
        <ele>1244.8347</ele>
        <time>2014-08-27T10:16:37Z</time>
      </trkpt>
      <trkpt lat="46.35081" lon="6.68257">
        <ele>1244.8347</ele>
        <time>2014-08-27T10:16:42Z</time>
      </trkpt>
      <trkpt lat="46.35078" lon="6.68254">
        <ele>1245.8549</ele>
        <time>2014-08-27T10:16:47Z</time>
      </trkpt>
      <trkpt lat="46.35074" lon="6.68253">
        <ele>1245.8549</ele>
        <time>2014-08-27T10:16:52Z</time>
      </trkpt>
      <trkpt lat="46.35072" lon="6.6825">
        <ele>1245.8549</ele>
        <time>2014-08-27T10:16:57Z</time>
      </trkpt>
      <trkpt lat="46.35071" lon="6.68249">
        <ele>1245.8549</ele>
        <time>2014-08-27T10:17:02Z</time>
      </trkpt>
      <trkpt lat="46.35072" lon="6.68245">
        <ele>1246.8961</ele>
        <time>2014-08-27T10:17:07Z</time>
      </trkpt>
      <trkpt lat="46.35072" lon="6.68236">
        <ele>1246.8961</ele>
        <time>2014-08-27T10:17:12Z</time>
      </trkpt>
      <trkpt lat="46.3507" lon="6.68235">
        <ele>1246.8961</ele>
        <time>2014-08-27T10:17:17Z</time>
      </trkpt>
      <trkpt lat="46.35067" lon="6.68233">
        <ele>1247.8434</ele>
        <time>2014-08-27T10:17:22Z</time>
      </trkpt>
      <trkpt lat="46.35067" lon="6.68233">
        <ele>1247.8434</ele>
        <time>2014-08-27T10:17:27Z</time>
      </trkpt>
      <trkpt lat="46.35059" lon="6.68222">
        <ele>1248.9938</ele>
        <time>2014-08-27T10:17:42Z</time>
      </trkpt>
      <trkpt lat="46.35057" lon="6.6822">
        <ele>1248.9938</ele>
        <time>2014-08-27T10:17:47Z</time>
      </trkpt>
      <trkpt lat="46.35058" lon="6.68217">
        <ele>1248.9938</ele>
        <time>2014-08-27T10:17:52Z</time>
      </trkpt>
      <trkpt lat="46.35056" lon="6.68216">
        <ele>1248.9938</ele>
        <time>2014-08-27T10:17:57Z</time>
      </trkpt>
      <trkpt lat="46.35058" lon="6.68211">
        <ele>1250.3048</ele>
        <time>2014-08-27T10:18:02Z</time>
      </trkpt>
      <trkpt lat="46.35055" lon="6.68205">
        <ele>1250.3048</ele>
        <time>2014-08-27T10:18:07Z</time>
      </trkpt>
      <trkpt lat="46.35052" lon="6.68204">
        <ele>1250.3048</ele>
        <time>2014-08-27T10:18:12Z</time>
      </trkpt>
      <trkpt lat="46.35048" lon="6.68201">
        <ele>1251.5927</ele>
        <time>2014-08-27T10:18:17Z</time>
      </trkpt>
      <trkpt lat="46.35044" lon="6.68196">
        <ele>1251.5927</ele>
        <time>2014-08-27T10:18:22Z</time>
      </trkpt>
      <trkpt lat="46.35044" lon="6.68195">
        <ele>1251.5927</ele>
        <time>2014-08-27T10:18:27Z</time>
      </trkpt>
      <trkpt lat="46.35044" lon="6.68192">
        <ele>1251.5927</ele>
        <time>2014-08-27T10:18:32Z</time>
      </trkpt>
      <trkpt lat="46.35042" lon="6.68192">
        <ele>1252.9028</ele>
        <time>2014-08-27T10:18:37Z</time>
      </trkpt>
      <trkpt lat="46.35041" lon="6.68191">
        <ele>1252.9028</ele>
        <time>2014-08-27T10:18:42Z</time>
      </trkpt>
      <trkpt lat="46.35041" lon="6.6819">
        <ele>1252.9028</ele>
        <time>2014-08-27T10:18:47Z</time>
      </trkpt>
      <trkpt lat="46.35039" lon="6.68186">
        <ele>1252.9028</ele>
        <time>2014-08-27T10:18:52Z</time>
      </trkpt>
      <trkpt lat="46.35036" lon="6.68182">
        <ele>1254.1481</ele>
        <time>2014-08-27T10:18:57Z</time>
      </trkpt>
      <trkpt lat="46.35036" lon="6.68181">
        <ele>1254.1481</ele>
        <time>2014-08-27T10:19:02Z</time>
      </trkpt>
      <trkpt lat="46.35039" lon="6.68182">
        <ele>1254.1481</ele>
        <time>2014-08-27T10:19:07Z</time>
      </trkpt>
      <trkpt lat="46.35039" lon="6.68182">
        <ele>1254.1481</ele>
        <time>2014-08-27T10:19:12Z</time>
      </trkpt>
      <trkpt lat="46.35038" lon="6.6818">
        <ele>1254.1481</ele>
        <time>2014-08-27T10:19:17Z</time>
      </trkpt>
      <trkpt lat="46.35039" lon="6.68171">
        <ele>1255.8956</ele>
        <time>2014-08-27T10:19:22Z</time>
      </trkpt>
      <trkpt lat="46.35033" lon="6.68165">
        <ele>1255.8956</ele>
        <time>2014-08-27T10:19:27Z</time>
      </trkpt>
      <trkpt lat="46.35033" lon="6.68162">
        <ele>1257.6182</ele>
        <time>2014-08-27T10:19:32Z</time>
      </trkpt>
      <trkpt lat="46.3503" lon="6.68159">
        <ele>1257.6182</ele>
        <time>2014-08-27T10:19:37Z</time>
      </trkpt>
      <trkpt lat="46.35028" lon="6.68155">
        <ele>1257.6182</ele>
        <time>2014-08-27T10:19:42Z</time>
      </trkpt>
      <trkpt lat="46.35028" lon="6.68153">
        <ele>1257.6182</ele>
        <time>2014-08-27T10:19:47Z</time>
      </trkpt>
      <trkpt lat="46.35028" lon="6.6815">
        <ele>1259.4752</ele>
        <time>2014-08-27T10:19:52Z</time>
      </trkpt>
      <trkpt lat="46.35027" lon="6.68148">
        <ele>1259.4752</ele>
        <time>2014-08-27T10:19:57Z</time>
      </trkpt>
      <trkpt lat="46.35026" lon="6.68147">
        <ele>1259.4752</ele>
        <time>2014-08-27T10:20:02Z</time>
      </trkpt>
      <trkpt lat="46.35026" lon="6.68143">
        <ele>1259.4752</ele>
        <time>2014-08-27T10:20:07Z</time>
      </trkpt>
      <trkpt lat="46.35026" lon="6.68141">
        <ele>1259.4752</ele>
        <time>2014-08-27T10:20:12Z</time>
      </trkpt>
      <trkpt lat="46.35024" lon="6.68135">
        <ele>1261.3691</ele>
        <time>2014-08-27T10:20:17Z</time>
      </trkpt>
      <trkpt lat="46.35024" lon="6.68133">
        <ele>1261.3691</ele>
        <time>2014-08-27T10:20:22Z</time>
      </trkpt>
      <trkpt lat="46.35024" lon="6.68133">
        <ele>1261.3691</ele>
        <time>2014-08-27T10:20:27Z</time>
      </trkpt>
      <trkpt lat="46.35023" lon="6.68131">
        <ele>1261.3691</ele>
        <time>2014-08-27T10:20:32Z</time>
      </trkpt>
      <trkpt lat="46.35022" lon="6.68129">
        <ele>1261.3691</ele>
        <time>2014-08-27T10:20:37Z</time>
      </trkpt>
      <trkpt lat="46.35022" lon="6.68129">
        <ele>1261.3691</ele>
        <time>2014-08-27T10:20:42Z</time>
      </trkpt>
      <trkpt lat="46.35021" lon="6.68127">
        <ele>1261.3691</ele>
        <time>2014-08-27T10:20:47Z</time>
      </trkpt>
      <trkpt lat="46.35019" lon="6.68123">
        <ele>1263.4257</ele>
        <time>2014-08-27T10:20:52Z</time>
      </trkpt>
      <trkpt lat="46.3502" lon="6.68117">
        <ele>1263.4257</ele>
        <time>2014-08-27T10:20:57Z</time>
      </trkpt>
      <trkpt lat="46.35019" lon="6.68115">
        <ele>1263.4257</ele>
        <time>2014-08-27T10:21:02Z</time>
      </trkpt>
      <trkpt lat="46.35016" lon="6.68114">
        <ele>1263.4257</ele>
        <time>2014-08-27T10:21:07Z</time>
      </trkpt>
      <trkpt lat="46.35015" lon="6.68111">
        <ele>1265.5159</ele>
        <time>2014-08-27T10:21:12Z</time>
      </trkpt>
      <trkpt lat="46.35013" lon="6.68108">
        <ele>1265.5159</ele>
        <time>2014-08-27T10:21:17Z</time>
      </trkpt>
      <trkpt lat="46.35011" lon="6.68106">
        <ele>1265.5159</ele>
        <time>2014-08-27T10:21:22Z</time>
      </trkpt>
      <trkpt lat="46.35011" lon="6.68106">
        <ele>1265.5159</ele>
        <time>2014-08-27T10:21:27Z</time>
      </trkpt>
      <trkpt lat="46.3501" lon="6.68104">
        <ele>1265.5159</ele>
        <time>2014-08-27T10:21:37Z</time>
      </trkpt>
      <trkpt lat="46.35007" lon="6.68096">
        <ele>1268.0676</ele>
        <time>2014-08-27T10:21:42Z</time>
      </trkpt>
      <trkpt lat="46.35002" lon="6.68087">
        <ele>1268.0676</ele>
        <time>2014-08-27T10:21:47Z</time>
      </trkpt>
      <trkpt lat="46.35004" lon="6.68079">
        <ele>1270.6833</ele>
        <time>2014-08-27T10:21:52Z</time>
      </trkpt>
      <trkpt lat="46.35005" lon="6.68075">
        <ele>1270.6833</ele>
        <time>2014-08-27T10:21:57Z</time>
      </trkpt>
      <trkpt lat="46.35002" lon="6.68074">
        <ele>1270.6833</ele>
        <time>2014-08-27T10:22:02Z</time>
      </trkpt>
      <trkpt lat="46.34999" lon="6.68067">
        <ele>1273.3406</ele>
        <time>2014-08-27T10:22:07Z</time>
      </trkpt>
      <trkpt lat="46.34997" lon="6.68062">
        <ele>1273.3406</ele>
        <time>2014-08-27T10:22:12Z</time>
      </trkpt>
      <trkpt lat="46.34992" lon="6.68057">
        <ele>1275.7157</ele>
        <time>2014-08-27T10:22:17Z</time>
      </trkpt>
      <trkpt lat="46.34992" lon="6.68055">
        <ele>1275.7157</ele>
        <time>2014-08-27T10:22:22Z</time>
      </trkpt>
      <trkpt lat="46.34989" lon="6.68054">
        <ele>1275.7157</ele>
        <time>2014-08-27T10:22:27Z</time>
      </trkpt>
      <trkpt lat="46.34987" lon="6.68053">
        <ele>1275.7157</ele>
        <time>2014-08-27T10:22:32Z</time>
      </trkpt>
      <trkpt lat="46.34985" lon="6.68042">
        <ele>1277.8843</ele>
        <time>2014-08-27T10:22:37Z</time>
      </trkpt>
      <trkpt lat="46.34985" lon="6.68039">
        <ele>1277.8843</ele>
        <time>2014-08-27T10:22:42Z</time>
      </trkpt>
      <trkpt lat="46.34986" lon="6.68039">
        <ele>1277.8843</ele>
        <time>2014-08-27T10:22:47Z</time>
      </trkpt>
      <trkpt lat="46.34986" lon="6.68039">
        <ele>1277.8843</ele>
        <time>2014-08-27T10:22:52Z</time>
      </trkpt>
      <trkpt lat="46.34986" lon="6.68039">
        <ele>1277.8843</ele>
        <time>2014-08-27T10:22:57Z</time>
      </trkpt>
      <trkpt lat="46.34987" lon="6.68039">
        <ele>1277.8843</ele>
        <time>2014-08-27T10:23:02Z</time>
      </trkpt>
      <trkpt lat="46.34987" lon="6.68039">
        <ele>1277.8843</ele>
        <time>2014-08-27T10:23:07Z</time>
      </trkpt>
      <trkpt lat="46.34986" lon="6.68038">
        <ele>1277.8843</ele>
        <time>2014-08-27T10:23:17Z</time>
      </trkpt>
      <trkpt lat="46.34985" lon="6.68036">
        <ele>1277.8843</ele>
        <time>2014-08-27T10:23:22Z</time>
      </trkpt>
      <trkpt lat="46.34982" lon="6.6802">
        <ele>1281.1132</ele>
        <time>2014-08-27T10:23:27Z</time>
      </trkpt>
      <trkpt lat="46.3498" lon="6.68011">
        <ele>1281.1132</ele>
        <time>2014-08-27T10:23:32Z</time>
      </trkpt>
      <trkpt lat="46.3498" lon="6.68005">
        <ele>1284.2528</ele>
        <time>2014-08-27T10:23:37Z</time>
      </trkpt>
      <trkpt lat="46.34977" lon="6.67997">
        <ele>1284.2528</ele>
        <time>2014-08-27T10:23:42Z</time>
      </trkpt>
      <trkpt lat="46.34975" lon="6.67991">
        <ele>1287.3193</ele>
        <time>2014-08-27T10:23:47Z</time>
      </trkpt>
      <trkpt lat="46.34971" lon="6.67989">
        <ele>1287.3193</ele>
        <time>2014-08-27T10:23:52Z</time>
      </trkpt>
      <trkpt lat="46.34969" lon="6.67986">
        <ele>1287.3193</ele>
        <time>2014-08-27T10:23:57Z</time>
      </trkpt>
      <trkpt lat="46.34969" lon="6.67985">
        <ele>1287.3193</ele>
        <time>2014-08-27T10:24:02Z</time>
      </trkpt>
      <trkpt lat="46.34969" lon="6.67984">
        <ele>1287.3193</ele>
        <time>2014-08-27T10:24:07Z</time>
      </trkpt>
      <trkpt lat="46.34968" lon="6.67984">
        <ele>1287.3193</ele>
        <time>2014-08-27T10:24:12Z</time>
      </trkpt>
      <trkpt lat="46.34968" lon="6.67983">
        <ele>1290.4723</ele>
        <time>2014-08-27T10:24:17Z</time>
      </trkpt>
      <trkpt lat="46.34963" lon="6.67979">
        <ele>1290.4723</ele>
        <time>2014-08-27T10:24:22Z</time>
      </trkpt>
      <trkpt lat="46.3496" lon="6.67978">
        <ele>1290.4723</ele>
        <time>2014-08-27T10:24:27Z</time>
      </trkpt>
      <trkpt lat="46.34959" lon="6.67978">
        <ele>1293.4409</ele>
        <time>2014-08-27T10:24:32Z</time>
      </trkpt>
      <trkpt lat="46.34955" lon="6.67981">
        <ele>1293.4409</ele>
        <time>2014-08-27T10:24:37Z</time>
      </trkpt>
      <trkpt lat="46.34955" lon="6.67981">
        <ele>1293.4409</ele>
        <time>2014-08-27T10:24:42Z</time>
      </trkpt>
      <trkpt lat="46.34945" lon="6.67979">
        <ele>1295.9609</ele>
        <time>2014-08-27T10:24:47Z</time>
      </trkpt>
      <trkpt lat="46.34937" lon="6.67975">
        <ele>1295.9609</ele>
        <time>2014-08-27T10:24:52Z</time>
      </trkpt>
      <trkpt lat="46.34933" lon="6.67973">
        <ele>1298.0624</ele>
        <time>2014-08-27T10:24:57Z</time>
      </trkpt>
      <trkpt lat="46.34929" lon="6.67971">
        <ele>1298.0624</ele>
        <time>2014-08-27T10:25:02Z</time>
      </trkpt>
      <trkpt lat="46.34927" lon="6.6797">
        <ele>1298.0624</ele>
        <time>2014-08-27T10:25:07Z</time>
      </trkpt>
      <trkpt lat="46.34926" lon="6.67969">
        <ele>1298.0624</ele>
        <time>2014-08-27T10:25:12Z</time>
      </trkpt>
      <trkpt lat="46.34924" lon="6.67968">
        <ele>1300.2211</ele>
        <time>2014-08-27T10:25:17Z</time>
      </trkpt>
      <trkpt lat="46.34924" lon="6.67968">
        <ele>1300.2211</ele>
        <time>2014-08-27T10:25:22Z</time>
      </trkpt>
      <trkpt lat="46.34924" lon="6.67967">
        <ele>1300.2211</ele>
        <time>2014-08-27T10:25:27Z</time>
      </trkpt>
      <trkpt lat="46.34924" lon="6.67967">
        <ele>1300.2211</ele>
        <time>2014-08-27T10:25:32Z</time>
      </trkpt>
      <trkpt lat="46.34924" lon="6.67967">
        <ele>1300.2211</ele>
        <time>2014-08-27T10:25:37Z</time>
      </trkpt>
      <trkpt lat="46.34924" lon="6.67967">
        <ele>1300.2211</ele>
        <time>2014-08-27T10:25:42Z</time>
      </trkpt>
      <trkpt lat="46.34922" lon="6.67967">
        <ele>1300.2211</ele>
        <time>2014-08-27T10:25:52Z</time>
      </trkpt>
      <trkpt lat="46.3492" lon="6.67967">
        <ele>1300.2211</ele>
        <time>2014-08-27T10:25:57Z</time>
      </trkpt>
      <trkpt lat="46.34919" lon="6.67967">
        <ele>1300.2211</ele>
        <time>2014-08-27T10:26:02Z</time>
      </trkpt>
      <trkpt lat="46.34914" lon="6.67961">
        <ele>1302.8204</ele>
        <time>2014-08-27T10:26:07Z</time>
      </trkpt>
      <trkpt lat="46.34914" lon="6.67961">
        <ele>1302.8204</ele>
        <time>2014-08-27T10:26:12Z</time>
      </trkpt>
      <trkpt lat="46.34912" lon="6.6796">
        <ele>1302.8204</ele>
        <time>2014-08-27T10:26:22Z</time>
      </trkpt>
      <trkpt lat="46.34912" lon="6.6796">
        <ele>1302.8204</ele>
        <time>2014-08-27T10:26:27Z</time>
      </trkpt>
      <trkpt lat="46.34907" lon="6.67957">
        <ele>1302.8204</ele>
        <time>2014-08-27T10:26:37Z</time>
      </trkpt>
      <trkpt lat="46.34903" lon="6.67954">
        <ele>1306.6466</ele>
        <time>2014-08-27T10:26:42Z</time>
      </trkpt>
      <trkpt lat="46.34899" lon="6.67953">
        <ele>1306.6466</ele>
        <time>2014-08-27T10:26:47Z</time>
      </trkpt>
      <trkpt lat="46.34899" lon="6.67953">
        <ele>1306.6466</ele>
        <time>2014-08-27T10:26:52Z</time>
      </trkpt>
      <trkpt lat="46.34897" lon="6.6795">
        <ele>1306.6466</ele>
        <time>2014-08-27T10:26:57Z</time>
      </trkpt>
      <trkpt lat="46.34897" lon="6.6795">
        <ele>1306.6466</ele>
        <time>2014-08-27T10:27:02Z</time>
      </trkpt>
      <trkpt lat="46.34889" lon="6.67942">
        <ele>1311.1278</ele>
        <time>2014-08-27T10:27:12Z</time>
      </trkpt>
      <trkpt lat="46.34888" lon="6.6794">
        <ele>1311.1278</ele>
        <time>2014-08-27T10:27:17Z</time>
      </trkpt>
      <trkpt lat="46.34888" lon="6.6794">
        <ele>1311.1278</ele>
        <time>2014-08-27T10:27:22Z</time>
      </trkpt>
      <trkpt lat="46.34888" lon="6.67937">
        <ele>1311.1278</ele>
        <time>2014-08-27T10:27:27Z</time>
      </trkpt>
      <trkpt lat="46.34888" lon="6.67937">
        <ele>1311.1278</ele>
        <time>2014-08-27T10:27:32Z</time>
      </trkpt>
      <trkpt lat="46.34886" lon="6.67937">
        <ele>1311.1278</ele>
        <time>2014-08-27T10:27:37Z</time>
      </trkpt>
      <trkpt lat="46.34885" lon="6.67937">
        <ele>1311.1278</ele>
        <time>2014-08-27T10:27:42Z</time>
      </trkpt>
      <trkpt lat="46.3488" lon="6.67933">
        <ele>1315.8619</ele>
        <time>2014-08-27T10:27:47Z</time>
      </trkpt>
      <trkpt lat="46.34879" lon="6.67932">
        <ele>1315.8619</ele>
        <time>2014-08-27T10:27:52Z</time>
      </trkpt>
      <trkpt lat="46.34877" lon="6.67931">
        <ele>1315.8619</ele>
        <time>2014-08-27T10:27:57Z</time>
      </trkpt>
      <trkpt lat="46.34876" lon="6.67931">
        <ele>1315.8619</ele>
        <time>2014-08-27T10:28:02Z</time>
      </trkpt>
      <trkpt lat="46.34872" lon="6.6793">
        <ele>1315.8619</ele>
        <time>2014-08-27T10:28:07Z</time>
      </trkpt>
      <trkpt lat="46.34872" lon="6.6793">
        <ele>1315.8619</ele>
        <time>2014-08-27T10:28:12Z</time>
      </trkpt>
      <trkpt lat="46.34867" lon="6.67926">
        <ele>1320.822</ele>
        <time>2014-08-27T10:28:17Z</time>
      </trkpt>
      <trkpt lat="46.34866" lon="6.67923">
        <ele>1320.822</ele>
        <time>2014-08-27T10:28:22Z</time>
      </trkpt>
      <trkpt lat="46.34866" lon="6.67923">
        <ele>1320.822</ele>
        <time>2014-08-27T10:28:27Z</time>
      </trkpt>
      <trkpt lat="46.34861" lon="6.6792">
        <ele>1320.822</ele>
        <time>2014-08-27T10:28:32Z</time>
      </trkpt>
      <trkpt lat="46.34861" lon="6.67917">
        <ele>1325.651</ele>
        <time>2014-08-27T10:28:37Z</time>
      </trkpt>
      <trkpt lat="46.34861" lon="6.67917">
        <ele>1325.651</ele>
        <time>2014-08-27T10:28:42Z</time>
      </trkpt>
      <trkpt lat="46.34857" lon="6.67912">
        <ele>1325.651</ele>
        <time>2014-08-27T10:28:52Z</time>
      </trkpt>
      <trkpt lat="46.34852" lon="6.67906">
        <ele>1330.177</ele>
        <time>2014-08-27T10:28:57Z</time>
      </trkpt>
      <trkpt lat="46.34852" lon="6.67904">
        <ele>1330.177</ele>
        <time>2014-08-27T10:29:02Z</time>
      </trkpt>
      <trkpt lat="46.34852" lon="6.67904">
        <ele>1330.177</ele>
        <time>2014-08-27T10:29:07Z</time>
      </trkpt>
      <trkpt lat="46.3485" lon="6.67901">
        <ele>1330.177</ele>
        <time>2014-08-27T10:29:17Z</time>
      </trkpt>
      <trkpt lat="46.3485" lon="6.67901">
        <ele>1330.177</ele>
        <time>2014-08-27T10:29:22Z</time>
      </trkpt>
      <trkpt lat="46.34849" lon="6.679">
        <ele>1330.177</ele>
        <time>2014-08-27T10:29:27Z</time>
      </trkpt>
      <trkpt lat="46.34849" lon="6.679">
        <ele>1330.177</ele>
        <time>2014-08-27T10:29:32Z</time>
      </trkpt>
      <trkpt lat="46.34848" lon="6.67899">
        <ele>1330.177</ele>
        <time>2014-08-27T10:29:37Z</time>
      </trkpt>
      <trkpt lat="46.34848" lon="6.67897">
        <ele>1330.177</ele>
        <time>2014-08-27T10:29:42Z</time>
      </trkpt>
      <trkpt lat="46.3484" lon="6.67894">
        <ele>1334.9479</ele>
        <time>2014-08-27T10:29:47Z</time>
      </trkpt>
      <trkpt lat="46.34834" lon="6.67889">
        <ele>1334.9479</ele>
        <time>2014-08-27T10:29:52Z</time>
      </trkpt>
      <trkpt lat="46.34832" lon="6.67883">
        <ele>1339.1741</ele>
        <time>2014-08-27T10:29:57Z</time>
      </trkpt>
      <trkpt lat="46.34827" lon="6.6788">
        <ele>1339.1741</ele>
        <time>2014-08-27T10:30:02Z</time>
      </trkpt>
      <trkpt lat="46.34822" lon="6.67872">
        <ele>1342.7594</ele>
        <time>2014-08-27T10:30:07Z</time>
      </trkpt>
      <trkpt lat="46.34821" lon="6.6787">
        <ele>1342.7594</ele>
        <time>2014-08-27T10:30:12Z</time>
      </trkpt>
      <trkpt lat="46.34818" lon="6.67868">
        <ele>1342.7594</ele>
        <time>2014-08-27T10:30:17Z</time>
      </trkpt>
      <trkpt lat="46.34819" lon="6.67861">
        <ele>1345.8763</ele>
        <time>2014-08-27T10:30:22Z</time>
      </trkpt>
      <trkpt lat="46.3482" lon="6.67858">
        <ele>1345.8763</ele>
        <time>2014-08-27T10:30:27Z</time>
      </trkpt>
      <trkpt lat="46.34822" lon="6.67857">
        <ele>1345.8763</ele>
        <time>2014-08-27T10:30:32Z</time>
      </trkpt>
      <trkpt lat="46.34825" lon="6.67854">
        <ele>1345.8763</ele>
        <time>2014-08-27T10:30:37Z</time>
      </trkpt>
      <trkpt lat="46.34829" lon="6.6785">
        <ele>1348.2826</ele>
        <time>2014-08-27T10:30:42Z</time>
      </trkpt>
      <trkpt lat="46.34832" lon="6.67846">
        <ele>1348.2826</ele>
        <time>2014-08-27T10:30:47Z</time>
      </trkpt>
      <trkpt lat="46.34832" lon="6.67843">
        <ele>1348.2826</ele>
        <time>2014-08-27T10:30:52Z</time>
      </trkpt>
      <trkpt lat="46.34832" lon="6.67839">
        <ele>1348.2826</ele>
        <time>2014-08-27T10:30:57Z</time>
      </trkpt>
      <trkpt lat="46.34832" lon="6.67834">
        <ele>1349.7128</ele>
        <time>2014-08-27T10:31:02Z</time>
      </trkpt>
      <trkpt lat="46.34832" lon="6.6783">
        <ele>1349.7128</ele>
        <time>2014-08-27T10:31:07Z</time>
      </trkpt>
      <trkpt lat="46.34832" lon="6.67823">
        <ele>1349.7128</ele>
        <time>2014-08-27T10:31:12Z</time>
      </trkpt>
      <trkpt lat="46.34835" lon="6.6782">
        <ele>1350.4712</ele>
        <time>2014-08-27T10:31:17Z</time>
      </trkpt>
      <trkpt lat="46.34836" lon="6.67816">
        <ele>1350.4712</ele>
        <time>2014-08-27T10:31:22Z</time>
      </trkpt>
      <trkpt lat="46.34836" lon="6.6781">
        <ele>1350.4712</ele>
        <time>2014-08-27T10:31:27Z</time>
      </trkpt>
      <trkpt lat="46.34839" lon="6.67803">
        <ele>1350.8134</ele>
        <time>2014-08-27T10:31:32Z</time>
      </trkpt>
      <trkpt lat="46.34839" lon="6.678">
        <ele>1350.8134</ele>
        <time>2014-08-27T10:31:37Z</time>
      </trkpt>
      <trkpt lat="46.34837" lon="6.67796">
        <ele>1350.8134</ele>
        <time>2014-08-27T10:31:42Z</time>
      </trkpt>
      <trkpt lat="46.34834" lon="6.67792">
        <ele>1350.8473</ele>
        <time>2014-08-27T10:31:47Z</time>
      </trkpt>
      <trkpt lat="46.34833" lon="6.67789">
        <ele>1350.8473</ele>
        <time>2014-08-27T10:31:52Z</time>
      </trkpt>
      <trkpt lat="46.34833" lon="6.67786">
        <ele>1350.8473</ele>
        <time>2014-08-27T10:31:57Z</time>
      </trkpt>
      <trkpt lat="46.34834" lon="6.67785">
        <ele>1350.8473</ele>
        <time>2014-08-27T10:32:02Z</time>
      </trkpt>
      <trkpt lat="46.34837" lon="6.67782">
        <ele>1350.6887</ele>
        <time>2014-08-27T10:32:07Z</time>
      </trkpt>
      <trkpt lat="46.34836" lon="6.6778">
        <ele>1350.6887</ele>
        <time>2014-08-27T10:32:12Z</time>
      </trkpt>
      <trkpt lat="46.34834" lon="6.67777">
        <ele>1350.6887</ele>
        <time>2014-08-27T10:32:17Z</time>
      </trkpt>
      <trkpt lat="46.34832" lon="6.67773">
        <ele>1350.6887</ele>
        <time>2014-08-27T10:32:22Z</time>
      </trkpt>
      <trkpt lat="46.34829" lon="6.67769">
        <ele>1350.3877</ele>
        <time>2014-08-27T10:32:27Z</time>
      </trkpt>
      <trkpt lat="46.34824" lon="6.6777">
        <ele>1350.3877</ele>
        <time>2014-08-27T10:32:32Z</time>
      </trkpt>
      <trkpt lat="46.34821" lon="6.6777">
        <ele>1350.3877</ele>
        <time>2014-08-27T10:32:37Z</time>
      </trkpt>
      <trkpt lat="46.34821" lon="6.67765">
        <ele>1349.8901</ele>
        <time>2014-08-27T10:32:42Z</time>
      </trkpt>
      <trkpt lat="46.34817" lon="6.67764">
        <ele>1349.8901</ele>
        <time>2014-08-27T10:32:47Z</time>
      </trkpt>
      <trkpt lat="46.34816" lon="6.67762">
        <ele>1349.8901</ele>
        <time>2014-08-27T10:32:52Z</time>
      </trkpt>
      <trkpt lat="46.34814" lon="6.6776">
        <ele>1349.8901</ele>
        <time>2014-08-27T10:32:57Z</time>
      </trkpt>
      <trkpt lat="46.34809" lon="6.67758">
        <ele>1349.0746</ele>
        <time>2014-08-27T10:33:02Z</time>
      </trkpt>
      <trkpt lat="46.34809" lon="6.67758">
        <ele>1349.0746</ele>
        <time>2014-08-27T10:33:07Z</time>
      </trkpt>
      <trkpt lat="46.34808" lon="6.67756">
        <ele>1349.0746</ele>
        <time>2014-08-27T10:33:12Z</time>
      </trkpt>
      <trkpt lat="46.34808" lon="6.67756">
        <ele>1349.0746</ele>
        <time>2014-08-27T10:33:17Z</time>
      </trkpt>
      <trkpt lat="46.34803" lon="6.67749">
        <ele>1348.9099</ele>
        <time>2014-08-27T10:33:37Z</time>
      </trkpt>
      <trkpt lat="46.34798" lon="6.67739">
        <ele>1348.9099</ele>
        <time>2014-08-27T10:33:42Z</time>
      </trkpt>
      <trkpt lat="46.34798" lon="6.67737">
        <ele>1348.9379</ele>
        <time>2014-08-27T10:33:47Z</time>
      </trkpt>
      <trkpt lat="46.34801" lon="6.67732">
        <ele>1348.9379</ele>
        <time>2014-08-27T10:33:52Z</time>
      </trkpt>
      <trkpt lat="46.34798" lon="6.67727">
        <ele>1348.9379</ele>
        <time>2014-08-27T10:33:57Z</time>
      </trkpt>
      <trkpt lat="46.34796" lon="6.67716">
        <ele>1349.3811</ele>
        <time>2014-08-27T10:34:02Z</time>
      </trkpt>
      <trkpt lat="46.34795" lon="6.67714">
        <ele>1349.3811</ele>
        <time>2014-08-27T10:34:07Z</time>
      </trkpt>
      <trkpt lat="46.34794" lon="6.67713">
        <ele>1349.3811</ele>
        <time>2014-08-27T10:34:12Z</time>
      </trkpt>
      <trkpt lat="46.34793" lon="6.6771">
        <ele>1349.3811</ele>
        <time>2014-08-27T10:34:17Z</time>
      </trkpt>
      <trkpt lat="46.34793" lon="6.67708">
        <ele>1349.3811</ele>
        <time>2014-08-27T10:34:22Z</time>
      </trkpt>
      <trkpt lat="46.34795" lon="6.67704">
        <ele>1350.2434</ele>
        <time>2014-08-27T10:34:27Z</time>
      </trkpt>
      <trkpt lat="46.34795" lon="6.67703">
        <ele>1350.2434</ele>
        <time>2014-08-27T10:34:32Z</time>
      </trkpt>
      <trkpt lat="46.34794" lon="6.67699">
        <ele>1350.2434</ele>
        <time>2014-08-27T10:34:37Z</time>
      </trkpt>
      <trkpt lat="46.34794" lon="6.67695">
        <ele>1350.2434</ele>
        <time>2014-08-27T10:34:42Z</time>
      </trkpt>
      <trkpt lat="46.34794" lon="6.67693">
        <ele>1350.2434</ele>
        <time>2014-08-27T10:34:47Z</time>
      </trkpt>
      <trkpt lat="46.34796" lon="6.67691">
        <ele>1351.2964</ele>
        <time>2014-08-27T10:34:52Z</time>
      </trkpt>
      <trkpt lat="46.34799" lon="6.67689">
        <ele>1351.2964</ele>
        <time>2014-08-27T10:34:57Z</time>
      </trkpt>
      <trkpt lat="46.34799" lon="6.67689">
        <ele>1351.2964</ele>
        <time>2014-08-27T10:35:02Z</time>
      </trkpt>
      <trkpt lat="46.34799" lon="6.67688">
        <ele>1351.2964</ele>
        <time>2014-08-27T10:35:07Z</time>
      </trkpt>
      <trkpt lat="46.34799" lon="6.67688">
        <ele>1351.2964</ele>
        <time>2014-08-27T10:35:12Z</time>
      </trkpt>
      <trkpt lat="46.34801" lon="6.67685">
        <ele>1351.2964</ele>
        <time>2014-08-27T10:35:17Z</time>
      </trkpt>
      <trkpt lat="46.34803" lon="6.67685">
        <ele>1351.2964</ele>
        <time>2014-08-27T10:35:22Z</time>
      </trkpt>
      <trkpt lat="46.34803" lon="6.67684">
        <ele>1351.2964</ele>
        <time>2014-08-27T10:35:27Z</time>
      </trkpt>
      <trkpt lat="46.34805" lon="6.67679">
        <ele>1352.9474</ele>
        <time>2014-08-27T10:35:32Z</time>
      </trkpt>
      <trkpt lat="46.34809" lon="6.67674">
        <ele>1352.9474</ele>
        <time>2014-08-27T10:35:37Z</time>
      </trkpt>
      <trkpt lat="46.34811" lon="6.67671">
        <ele>1352.9474</ele>
        <time>2014-08-27T10:35:42Z</time>
      </trkpt>
      <trkpt lat="46.34812" lon="6.67667">
        <ele>1354.6064</ele>
        <time>2014-08-27T10:35:47Z</time>
      </trkpt>
      <trkpt lat="46.34814" lon="6.67667">
        <ele>1354.6064</ele>
        <time>2014-08-27T10:35:52Z</time>
      </trkpt>
      <trkpt lat="46.34816" lon="6.67664">
        <ele>1354.6064</ele>
        <time>2014-08-27T10:35:57Z</time>
      </trkpt>
      <trkpt lat="46.34817" lon="6.67662">
        <ele>1354.6064</ele>
        <time>2014-08-27T10:36:02Z</time>
      </trkpt>
      <trkpt lat="46.34817" lon="6.67654">
        <ele>1356.0297</ele>
        <time>2014-08-27T10:36:07Z</time>
      </trkpt>
      <trkpt lat="46.34816" lon="6.6765">
        <ele>1356.0297</ele>
        <time>2014-08-27T10:36:12Z</time>
      </trkpt>
      <trkpt lat="46.34814" lon="6.67646">
        <ele>1356.0297</ele>
        <time>2014-08-27T10:36:17Z</time>
      </trkpt>
      <trkpt lat="46.34815" lon="6.67641">
        <ele>1357.1211</ele>
        <time>2014-08-27T10:36:22Z</time>
      </trkpt>
      <trkpt lat="46.34816" lon="6.67635">
        <ele>1357.1211</ele>
        <time>2014-08-27T10:36:27Z</time>
      </trkpt>
      <trkpt lat="46.34816" lon="6.6763">
        <ele>1357.1211</ele>
        <time>2014-08-27T10:36:32Z</time>
      </trkpt>
      <trkpt lat="46.34819" lon="6.67627">
        <ele>1357.8651</ele>
        <time>2014-08-27T10:36:37Z</time>
      </trkpt>
      <trkpt lat="46.34822" lon="6.67627">
        <ele>1357.8651</ele>
        <time>2014-08-27T10:36:42Z</time>
      </trkpt>
      <trkpt lat="46.34826" lon="6.67623">
        <ele>1357.8651</ele>
        <time>2014-08-27T10:36:47Z</time>
      </trkpt>
      <trkpt lat="46.34828" lon="6.6762">
        <ele>1358.4493</ele>
        <time>2014-08-27T10:36:52Z</time>
      </trkpt>
      <trkpt lat="46.34827" lon="6.67618">
        <ele>1358.4493</ele>
        <time>2014-08-27T10:36:57Z</time>
      </trkpt>
      <trkpt lat="46.34828" lon="6.67616">
        <ele>1358.4493</ele>
        <time>2014-08-27T10:37:02Z</time>
      </trkpt>
      <trkpt lat="46.34828" lon="6.67615">
        <ele>1358.4493</ele>
        <time>2014-08-27T10:37:07Z</time>
      </trkpt>
      <trkpt lat="46.3483" lon="6.67613">
        <ele>1358.4493</ele>
        <time>2014-08-27T10:37:12Z</time>
      </trkpt>
      <trkpt lat="46.34834" lon="6.67608">
        <ele>1359.063</ele>
        <time>2014-08-27T10:37:17Z</time>
      </trkpt>
      <trkpt lat="46.34834" lon="6.67604">
        <ele>1359.063</ele>
        <time>2014-08-27T10:37:22Z</time>
      </trkpt>
      <trkpt lat="46.34835" lon="6.67603">
        <ele>1359.063</ele>
        <time>2014-08-27T10:37:28Z</time>
      </trkpt>
      <trkpt lat="46.34837" lon="6.67602">
        <ele>1359.063</ele>
        <time>2014-08-27T10:37:32Z</time>
      </trkpt>
      <trkpt lat="46.34837" lon="6.67601">
        <ele>1359.063</ele>
        <time>2014-08-27T10:37:37Z</time>
      </trkpt>
      <trkpt lat="46.34838" lon="6.676">
        <ele>1359.063</ele>
        <time>2014-08-27T10:37:42Z</time>
      </trkpt>
      <trkpt lat="46.34839" lon="6.67597">
        <ele>1359.8951</ele>
        <time>2014-08-27T10:37:47Z</time>
      </trkpt>
      <trkpt lat="46.34841" lon="6.67596">
        <ele>1359.8951</ele>
        <time>2014-08-27T10:37:52Z</time>
      </trkpt>
      <trkpt lat="46.34841" lon="6.67595">
        <ele>1359.8951</ele>
        <time>2014-08-27T10:37:57Z</time>
      </trkpt>
      <trkpt lat="46.34842" lon="6.6759">
        <ele>1359.8951</ele>
        <time>2014-08-27T10:38:02Z</time>
      </trkpt>
      <trkpt lat="46.34841" lon="6.67589">
        <ele>1359.8951</ele>
        <time>2014-08-27T10:38:07Z</time>
      </trkpt>
      <trkpt lat="46.3484" lon="6.67589">
        <ele>1359.8951</ele>
        <time>2014-08-27T10:38:12Z</time>
      </trkpt>
      <trkpt lat="46.34841" lon="6.67587">
        <ele>1360.9042</ele>
        <time>2014-08-27T10:38:17Z</time>
      </trkpt>
      <trkpt lat="46.34839" lon="6.67586">
        <ele>1360.9042</ele>
        <time>2014-08-27T10:38:22Z</time>
      </trkpt>
      <trkpt lat="46.34839" lon="6.67586">
        <ele>1360.9042</ele>
        <time>2014-08-27T10:38:27Z</time>
      </trkpt>
      <trkpt lat="46.34838" lon="6.67586">
        <ele>1360.9042</ele>
        <time>2014-08-27T10:38:32Z</time>
      </trkpt>
      <trkpt lat="46.34838" lon="6.67584">
        <ele>1360.9042</ele>
        <time>2014-08-27T10:38:37Z</time>
      </trkpt>
      <trkpt lat="46.34837" lon="6.67579">
        <ele>1360.9042</ele>
        <time>2014-08-27T10:38:42Z</time>
      </trkpt>
      <trkpt lat="46.34835" lon="6.67576">
        <ele>1361.9071</ele>
        <time>2014-08-27T10:38:47Z</time>
      </trkpt>
      <trkpt lat="46.34835" lon="6.67574">
        <ele>1361.9071</ele>
        <time>2014-08-27T10:38:52Z</time>
      </trkpt>
      <trkpt lat="46.34835" lon="6.67574">
        <ele>1361.9071</ele>
        <time>2014-08-27T10:38:57Z</time>
      </trkpt>
      <trkpt lat="46.34831" lon="6.67575">
        <ele>1361.9071</ele>
        <time>2014-08-27T10:39:02Z</time>
      </trkpt>
      <trkpt lat="46.34829" lon="6.67577">
        <ele>1361.9071</ele>
        <time>2014-08-27T10:39:07Z</time>
      </trkpt>
      <trkpt lat="46.34824" lon="6.67576">
        <ele>1362.8925</ele>
        <time>2014-08-27T10:39:12Z</time>
      </trkpt>
      <trkpt lat="46.34821" lon="6.67573">
        <ele>1362.8925</ele>
        <time>2014-08-27T10:39:17Z</time>
      </trkpt>
      <trkpt lat="46.34821" lon="6.67575">
        <ele>1362.8925</ele>
        <time>2014-08-27T10:39:22Z</time>
      </trkpt>
      <trkpt lat="46.34821" lon="6.67576">
        <ele>1362.8925</ele>
        <time>2014-08-27T10:39:27Z</time>
      </trkpt>
      <trkpt lat="46.34821" lon="6.67576">
        <ele>1362.8925</ele>
        <time>2014-08-27T10:39:32Z</time>
      </trkpt>
      <trkpt lat="46.3482" lon="6.67577">
        <ele>1362.8925</ele>
        <time>2014-08-27T10:39:37Z</time>
      </trkpt>
      <trkpt lat="46.3482" lon="6.67578">
        <ele>1362.8925</ele>
        <time>2014-08-27T10:39:42Z</time>
      </trkpt>
      <trkpt lat="46.34819" lon="6.67579">
        <ele>1362.8925</ele>
        <time>2014-08-27T10:39:47Z</time>
      </trkpt>
      <trkpt lat="46.34819" lon="6.6758">
        <ele>1364.844</ele>
        <time>2014-08-27T10:39:52Z</time>
      </trkpt>
      <trkpt lat="46.34818" lon="6.67581">
        <ele>1364.844</ele>
        <time>2014-08-27T10:39:57Z</time>
      </trkpt>
      <trkpt lat="46.34817" lon="6.67581">
        <ele>1364.844</ele>
        <time>2014-08-27T10:40:02Z</time>
      </trkpt>
      <trkpt lat="46.34816" lon="6.67581">
        <ele>1364.844</ele>
        <time>2014-08-27T10:40:07Z</time>
      </trkpt>
      <trkpt lat="46.34814" lon="6.67582">
        <ele>1364.844</ele>
        <time>2014-08-27T10:40:12Z</time>
      </trkpt>
      <trkpt lat="46.34813" lon="6.67583">
        <ele>1364.844</ele>
        <time>2014-08-27T10:40:17Z</time>
      </trkpt>
      <trkpt lat="46.34811" lon="6.67583">
        <ele>1367.0712</ele>
        <time>2014-08-27T10:40:22Z</time>
      </trkpt>
      <trkpt lat="46.34809" lon="6.67584">
        <ele>1367.0712</ele>
        <time>2014-08-27T10:40:27Z</time>
      </trkpt>
      <trkpt lat="46.34807" lon="6.67585">
        <ele>1367.0712</ele>
        <time>2014-08-27T10:40:32Z</time>
      </trkpt>
      <trkpt lat="46.34807" lon="6.67585">
        <ele>1367.0712</ele>
        <time>2014-08-27T10:40:37Z</time>
      </trkpt>
      <trkpt lat="46.34804" lon="6.67582">
        <ele>1367.0712</ele>
        <time>2014-08-27T10:40:42Z</time>
      </trkpt>
      <trkpt lat="46.34802" lon="6.67582">
        <ele>1369.2064</ele>
        <time>2014-08-27T10:40:47Z</time>
      </trkpt>
      <trkpt lat="46.348" lon="6.67583">
        <ele>1369.2064</ele>
        <time>2014-08-27T10:40:52Z</time>
      </trkpt>
      <trkpt lat="46.34799" lon="6.67586">
        <ele>1369.2064</ele>
        <time>2014-08-27T10:40:57Z</time>
      </trkpt>
      <trkpt lat="46.34798" lon="6.67587">
        <ele>1369.2064</ele>
        <time>2014-08-27T10:41:02Z</time>
      </trkpt>
      <trkpt lat="46.34796" lon="6.67588">
        <ele>1369.2064</ele>
        <time>2014-08-27T10:41:07Z</time>
      </trkpt>
      <trkpt lat="46.34794" lon="6.67585">
        <ele>1371.6161</ele>
        <time>2014-08-27T10:41:12Z</time>
      </trkpt>
      <trkpt lat="46.34793" lon="6.67582">
        <ele>1371.6161</ele>
        <time>2014-08-27T10:41:17Z</time>
      </trkpt>
      <trkpt lat="46.34791" lon="6.6758">
        <ele>1371.6161</ele>
        <time>2014-08-27T10:41:22Z</time>
      </trkpt>
      <trkpt lat="46.34789" lon="6.6758">
        <ele>1371.6161</ele>
        <time>2014-08-27T10:41:27Z</time>
      </trkpt>
      <trkpt lat="46.34789" lon="6.6758">
        <ele>1371.6161</ele>
        <time>2014-08-27T10:41:32Z</time>
      </trkpt>
      <trkpt lat="46.34788" lon="6.67579">
        <ele>1371.6161</ele>
        <time>2014-08-27T10:41:37Z</time>
      </trkpt>
      <trkpt lat="46.34785" lon="6.67579">
        <ele>1373.889</ele>
        <time>2014-08-27T10:41:42Z</time>
      </trkpt>
      <trkpt lat="46.34785" lon="6.67577">
        <ele>1373.889</ele>
        <time>2014-08-27T10:41:47Z</time>
      </trkpt>
      <trkpt lat="46.34784" lon="6.67577">
        <ele>1373.889</ele>
        <time>2014-08-27T10:41:52Z</time>
      </trkpt>
      <trkpt lat="46.34781" lon="6.67576">
        <ele>1373.889</ele>
        <time>2014-08-27T10:41:57Z</time>
      </trkpt>
      <trkpt lat="46.34778" lon="6.67575">
        <ele>1373.889</ele>
        <time>2014-08-27T10:42:02Z</time>
      </trkpt>
      <trkpt lat="46.34777" lon="6.67577">
        <ele>1376.1348</ele>
        <time>2014-08-27T10:42:07Z</time>
      </trkpt>
      <trkpt lat="46.34775" lon="6.67576">
        <ele>1376.1348</ele>
        <time>2014-08-27T10:42:12Z</time>
      </trkpt>
      <trkpt lat="46.34774" lon="6.67574">
        <ele>1376.1348</ele>
        <time>2014-08-27T10:42:17Z</time>
      </trkpt>
      <trkpt lat="46.34773" lon="6.67571">
        <ele>1376.1348</ele>
        <time>2014-08-27T10:42:22Z</time>
      </trkpt>
      <trkpt lat="46.34772" lon="6.67569">
        <ele>1376.1348</ele>
        <time>2014-08-27T10:42:27Z</time>
      </trkpt>
      <trkpt lat="46.34771" lon="6.67568">
        <ele>1376.1348</ele>
        <time>2014-08-27T10:42:32Z</time>
      </trkpt>
      <trkpt lat="46.34771" lon="6.67567">
        <ele>1378.6133</ele>
        <time>2014-08-27T10:42:37Z</time>
      </trkpt>
      <trkpt lat="46.34771" lon="6.67565">
        <ele>1378.6133</ele>
        <time>2014-08-27T10:42:42Z</time>
      </trkpt>
      <trkpt lat="46.34771" lon="6.67562">
        <ele>1378.6133</ele>
        <time>2014-08-27T10:42:47Z</time>
      </trkpt>
      <trkpt lat="46.34769" lon="6.67561">
        <ele>1378.6133</ele>
        <time>2014-08-27T10:42:52Z</time>
      </trkpt>
      <trkpt lat="46.34766" lon="6.6756">
        <ele>1378.6133</ele>
        <time>2014-08-27T10:42:57Z</time>
      </trkpt>
      <trkpt lat="46.34765" lon="6.67559">
        <ele>1381.1035</ele>
        <time>2014-08-27T10:43:02Z</time>
      </trkpt>
      <trkpt lat="46.34766" lon="6.67556">
        <ele>1381.1035</ele>
        <time>2014-08-27T10:43:07Z</time>
      </trkpt>
      <trkpt lat="46.34767" lon="6.67553">
        <ele>1381.1035</ele>
        <time>2014-08-27T10:43:12Z</time>
      </trkpt>
      <trkpt lat="46.34767" lon="6.67549">
        <ele>1381.1035</ele>
        <time>2014-08-27T10:43:17Z</time>
      </trkpt>
      <trkpt lat="46.34762" lon="6.67543">
        <ele>1383.4152</ele>
        <time>2014-08-27T10:43:22Z</time>
      </trkpt>
      <trkpt lat="46.34761" lon="6.6754">
        <ele>1383.4152</ele>
        <time>2014-08-27T10:43:27Z</time>
      </trkpt>
      <trkpt lat="46.3476" lon="6.67539">
        <ele>1383.4152</ele>
        <time>2014-08-27T10:43:32Z</time>
      </trkpt>
      <trkpt lat="46.34756" lon="6.67539">
        <ele>1383.4152</ele>
        <time>2014-08-27T10:43:37Z</time>
      </trkpt>
      <trkpt lat="46.34753" lon="6.67539">
        <ele>1384.9543</ele>
        <time>2014-08-27T10:43:42Z</time>
      </trkpt>
      <trkpt lat="46.34751" lon="6.67538">
        <ele>1384.9543</ele>
        <time>2014-08-27T10:43:47Z</time>
      </trkpt>
      <trkpt lat="46.34751" lon="6.67534">
        <ele>1384.9543</ele>
        <time>2014-08-27T10:43:52Z</time>
      </trkpt>
      <trkpt lat="46.34752" lon="6.67532">
        <ele>1384.9543</ele>
        <time>2014-08-27T10:43:57Z</time>
      </trkpt>
      <trkpt lat="46.34752" lon="6.67532">
        <ele>1384.9543</ele>
        <time>2014-08-27T10:44:02Z</time>
      </trkpt>
      <trkpt lat="46.3475" lon="6.67532">
        <ele>1384.9543</ele>
        <time>2014-08-27T10:44:07Z</time>
      </trkpt>
      <trkpt lat="46.3475" lon="6.67532">
        <ele>1384.9543</ele>
        <time>2014-08-27T10:44:12Z</time>
      </trkpt>
      <trkpt lat="46.34743" lon="6.67527">
        <ele>1386.4266</ele>
        <time>2014-08-27T10:44:37Z</time>
      </trkpt>
      <trkpt lat="46.34737" lon="6.67523">
        <ele>1386.4266</ele>
        <time>2014-08-27T10:44:42Z</time>
      </trkpt>
      <trkpt lat="46.34737" lon="6.67523">
        <ele>1386.4266</ele>
        <time>2014-08-27T10:44:47Z</time>
      </trkpt>
      <trkpt lat="46.34732" lon="6.67516">
        <ele>1388.0249</ele>
        <time>2014-08-27T10:44:52Z</time>
      </trkpt>
      <trkpt lat="46.34732" lon="6.67516">
        <ele>1388.0249</ele>
        <time>2014-08-27T10:44:57Z</time>
      </trkpt>
      <trkpt lat="46.34719" lon="6.67471">
        <ele>1390.3885</ele>
        <time>2014-08-27T10:45:02Z</time>
      </trkpt>
      <trkpt lat="46.3472" lon="6.67462">
        <ele>1390.3885</ele>
        <time>2014-08-27T10:45:07Z</time>
      </trkpt>
      <trkpt lat="46.34721" lon="6.67455">
        <ele>1392.9119</ele>
        <time>2014-08-27T10:45:12Z</time>
      </trkpt>
      <trkpt lat="46.34721" lon="6.67454">
        <ele>1392.9119</ele>
        <time>2014-08-27T10:45:17Z</time>
      </trkpt>
      <trkpt lat="46.3472" lon="6.67452">
        <ele>1392.9119</ele>
        <time>2014-08-27T10:45:22Z</time>
      </trkpt>
      <trkpt lat="46.34717" lon="6.67452">
        <ele>1392.9119</ele>
        <time>2014-08-27T10:45:27Z</time>
      </trkpt>
      <trkpt lat="46.34714" lon="6.6745">
        <ele>1395.1915</ele>
        <time>2014-08-27T10:45:32Z</time>
      </trkpt>
      <trkpt lat="46.34712" lon="6.67448">
        <ele>1395.1915</ele>
        <time>2014-08-27T10:45:37Z</time>
      </trkpt>
      <trkpt lat="46.34711" lon="6.67446">
        <ele>1395.1915</ele>
        <time>2014-08-27T10:45:42Z</time>
      </trkpt>
      <trkpt lat="46.34709" lon="6.67446">
        <ele>1395.1915</ele>
        <time>2014-08-27T10:45:47Z</time>
      </trkpt>
      <trkpt lat="46.34708" lon="6.67447">
        <ele>1395.1915</ele>
        <time>2014-08-27T10:45:52Z</time>
      </trkpt>
      <trkpt lat="46.34707" lon="6.67446">
        <ele>1395.1915</ele>
        <time>2014-08-27T10:45:57Z</time>
      </trkpt>
      <trkpt lat="46.34705" lon="6.67445">
        <ele>1396.898</ele>
        <time>2014-08-27T10:46:02Z</time>
      </trkpt>
      <trkpt lat="46.34702" lon="6.67449">
        <ele>1396.898</ele>
        <time>2014-08-27T10:46:07Z</time>
      </trkpt>
      <trkpt lat="46.347" lon="6.67451">
        <ele>1396.898</ele>
        <time>2014-08-27T10:46:12Z</time>
      </trkpt>
      <trkpt lat="46.347" lon="6.67452">
        <ele>1396.898</ele>
        <time>2014-08-27T10:46:21Z</time>
      </trkpt>
      <trkpt lat="46.34699" lon="6.67452">
        <ele>1396.898</ele>
        <time>2014-08-27T10:46:22Z</time>
      </trkpt>
      <trkpt lat="46.347" lon="6.67453">
        <ele>1396.898</ele>
        <time>2014-08-27T10:46:27Z</time>
      </trkpt>
      <trkpt lat="46.347" lon="6.67453">
        <ele>1396.898</ele>
        <time>2014-08-27T10:46:32Z</time>
      </trkpt>
      <trkpt lat="46.347" lon="6.67452">
        <ele>1396.898</ele>
        <time>2014-08-27T10:46:57Z</time>
      </trkpt>
      <trkpt lat="46.347" lon="6.67446">
        <ele>1398.1018</ele>
        <time>2014-08-27T10:47:02Z</time>
      </trkpt>
      <trkpt lat="46.347" lon="6.67444">
        <ele>1398.1018</ele>
        <time>2014-08-27T10:47:07Z</time>
      </trkpt>
      <trkpt lat="46.347" lon="6.67444">
        <ele>1398.1018</ele>
        <time>2014-08-27T10:47:12Z</time>
      </trkpt>
      <trkpt lat="46.34701" lon="6.67445">
        <ele>1398.1018</ele>
        <time>2014-08-27T10:47:17Z</time>
      </trkpt>
      <trkpt lat="46.34699" lon="6.67443">
        <ele>1398.1018</ele>
        <time>2014-08-27T10:47:22Z</time>
      </trkpt>
      <trkpt lat="46.34699" lon="6.67444">
        <ele>1398.1018</ele>
        <time>2014-08-27T10:47:27Z</time>
      </trkpt>
      <trkpt lat="46.34699" lon="6.67444">
        <ele>1398.1018</ele>
        <time>2014-08-27T10:47:32Z</time>
      </trkpt>
      <trkpt lat="46.34698" lon="6.67445">
        <ele>1398.1018</ele>
        <time>2014-08-27T10:47:42Z</time>
      </trkpt>
      <trkpt lat="46.34698" lon="6.67445">
        <ele>1398.1018</ele>
        <time>2014-08-27T10:47:47Z</time>
      </trkpt>
      <trkpt lat="46.34698" lon="6.67446">
        <ele>1398.1018</ele>
        <time>2014-08-27T10:47:52Z</time>
      </trkpt>
      <trkpt lat="46.34696" lon="6.6745">
        <ele>1399.4609</ele>
        <time>2014-08-27T10:47:57Z</time>
      </trkpt>
      <trkpt lat="46.34696" lon="6.67449">
        <ele>1399.4609</ele>
        <time>2014-08-27T10:48:02Z</time>
      </trkpt>
      <trkpt lat="46.34696" lon="6.67449">
        <ele>1399.4609</ele>
        <time>2014-08-27T10:48:07Z</time>
      </trkpt>
      <trkpt lat="46.34695" lon="6.67449">
        <ele>1399.4609</ele>
        <time>2014-08-27T10:48:22Z</time>
      </trkpt>
      <trkpt lat="46.34693" lon="6.6745">
        <ele>1399.4609</ele>
        <time>2014-08-27T10:48:27Z</time>
      </trkpt>
      <trkpt lat="46.34693" lon="6.67451">
        <ele>1399.4609</ele>
        <time>2014-08-27T10:48:32Z</time>
      </trkpt>
      <trkpt lat="46.34695" lon="6.67451">
        <ele>1399.4609</ele>
        <time>2014-08-27T10:48:37Z</time>
      </trkpt>
      <trkpt lat="46.34697" lon="6.67454">
        <ele>1399.4609</ele>
        <time>2014-08-27T10:48:42Z</time>
      </trkpt>
      <trkpt lat="46.34697" lon="6.67454">
        <ele>1399.4609</ele>
        <time>2014-08-27T10:48:47Z</time>
      </trkpt>
      <trkpt lat="46.34696" lon="6.67454">
        <ele>1399.4609</ele>
        <time>2014-08-27T10:49:07Z</time>
      </trkpt>
      <trkpt lat="46.34695" lon="6.67454">
        <ele>1401.772</ele>
        <time>2014-08-27T10:49:12Z</time>
      </trkpt>
      <trkpt lat="46.34694" lon="6.67453">
        <ele>1401.772</ele>
        <time>2014-08-27T10:49:17Z</time>
      </trkpt>
      <trkpt lat="46.34692" lon="6.67457">
        <ele>1401.772</ele>
        <time>2014-08-27T10:49:27Z</time>
      </trkpt>
      <trkpt lat="46.34692" lon="6.67457">
        <ele>1401.772</ele>
        <time>2014-08-27T10:49:32Z</time>
      </trkpt>
      <trkpt lat="46.34692" lon="6.67459">
        <ele>1401.772</ele>
        <time>2014-08-27T10:49:37Z</time>
      </trkpt>
      <trkpt lat="46.34691" lon="6.6746">
        <ele>1401.772</ele>
        <time>2014-08-27T10:49:42Z</time>
      </trkpt>
      <trkpt lat="46.34691" lon="6.6746">
        <ele>1401.772</ele>
        <time>2014-08-27T10:49:47Z</time>
      </trkpt>
      <trkpt lat="46.34691" lon="6.67461">
        <ele>1401.772</ele>
        <time>2014-08-27T10:49:57Z</time>
      </trkpt>
      <trkpt lat="46.34689" lon="6.67467">
        <ele>1404.1704</ele>
        <time>2014-08-27T10:50:02Z</time>
      </trkpt>
      <trkpt lat="46.34687" lon="6.67466">
        <ele>1404.1704</ele>
        <time>2014-08-27T10:50:07Z</time>
      </trkpt>
      <trkpt lat="46.34685" lon="6.67467">
        <ele>1404.1704</ele>
        <time>2014-08-27T10:50:12Z</time>
      </trkpt>
      <trkpt lat="46.34683" lon="6.67469">
        <ele>1404.1704</ele>
        <time>2014-08-27T10:50:17Z</time>
      </trkpt>
      <trkpt lat="46.34683" lon="6.67471">
        <ele>1404.1704</ele>
        <time>2014-08-27T10:50:22Z</time>
      </trkpt>
      <trkpt lat="46.34685" lon="6.67475">
        <ele>1406.3595</ele>
        <time>2014-08-27T10:50:27Z</time>
      </trkpt>
      <trkpt lat="46.34685" lon="6.67478">
        <ele>1406.3595</ele>
        <time>2014-08-27T10:50:32Z</time>
      </trkpt>
      <trkpt lat="46.34686" lon="6.67481">
        <ele>1406.3595</ele>
        <time>2014-08-27T10:50:37Z</time>
      </trkpt>
      <trkpt lat="46.34686" lon="6.67483">
        <ele>1406.3595</ele>
        <time>2014-08-27T10:50:42Z</time>
      </trkpt>
      <trkpt lat="46.34685" lon="6.67484">
        <ele>1406.3595</ele>
        <time>2014-08-27T10:50:47Z</time>
      </trkpt>
      <trkpt lat="46.34684" lon="6.67486">
        <ele>1406.3595</ele>
        <time>2014-08-27T10:50:52Z</time>
      </trkpt>
      <trkpt lat="46.34684" lon="6.67486">
        <ele>1406.3595</ele>
        <time>2014-08-27T10:50:57Z</time>
      </trkpt>
      <trkpt lat="46.34684" lon="6.67487">
        <ele>1406.3595</ele>
        <time>2014-08-27T10:51:02Z</time>
      </trkpt>
      <trkpt lat="46.34684" lon="6.67488">
        <ele>1408.2523</ele>
        <time>2014-08-27T10:51:07Z</time>
      </trkpt>
      <trkpt lat="46.34685" lon="6.67489">
        <ele>1408.2523</ele>
        <time>2014-08-27T10:51:12Z</time>
      </trkpt>
      <trkpt lat="46.34683" lon="6.6749">
        <ele>1408.2523</ele>
        <time>2014-08-27T10:51:17Z</time>
      </trkpt>
      <trkpt lat="46.34683" lon="6.67493">
        <ele>1408.2523</ele>
        <time>2014-08-27T10:51:22Z</time>
      </trkpt>
      <trkpt lat="46.34683" lon="6.67494">
        <ele>1408.2523</ele>
        <time>2014-08-27T10:51:27Z</time>
      </trkpt>
      <trkpt lat="46.34682" lon="6.67494">
        <ele>1408.2523</ele>
        <time>2014-08-27T10:51:32Z</time>
      </trkpt>
      <trkpt lat="46.3468" lon="6.67494">
        <ele>1408.2523</ele>
        <time>2014-08-27T10:51:37Z</time>
      </trkpt>
      <trkpt lat="46.34679" lon="6.67495">
        <ele>1410.1006</ele>
        <time>2014-08-27T10:51:42Z</time>
      </trkpt>
      <trkpt lat="46.3468" lon="6.67497">
        <ele>1410.1006</ele>
        <time>2014-08-27T10:51:47Z</time>
      </trkpt>
      <trkpt lat="46.3468" lon="6.67499">
        <ele>1410.1006</ele>
        <time>2014-08-27T10:51:52Z</time>
      </trkpt>
      <trkpt lat="46.3468" lon="6.67502">
        <ele>1410.1006</ele>
        <time>2014-08-27T10:51:57Z</time>
      </trkpt>
      <trkpt lat="46.34681" lon="6.67504">
        <ele>1410.1006</ele>
        <time>2014-08-27T10:52:02Z</time>
      </trkpt>
      <trkpt lat="46.34681" lon="6.67505">
        <ele>1410.1006</ele>
        <time>2014-08-27T10:52:07Z</time>
      </trkpt>
      <trkpt lat="46.34683" lon="6.67508">
        <ele>1412.3394</ele>
        <time>2014-08-27T10:52:12Z</time>
      </trkpt>
      <trkpt lat="46.34684" lon="6.6751">
        <ele>1412.3394</ele>
        <time>2014-08-27T10:52:17Z</time>
      </trkpt>
      <trkpt lat="46.34685" lon="6.67511">
        <ele>1412.3394</ele>
        <time>2014-08-27T10:52:22Z</time>
      </trkpt>
      <trkpt lat="46.34684" lon="6.67515">
        <ele>1412.3394</ele>
        <time>2014-08-27T10:52:27Z</time>
      </trkpt>
      <trkpt lat="46.34685" lon="6.67517">
        <ele>1412.3394</ele>
        <time>2014-08-27T10:52:32Z</time>
      </trkpt>
      <trkpt lat="46.34686" lon="6.6752">
        <ele>1414.7367</ele>
        <time>2014-08-27T10:52:37Z</time>
      </trkpt>
      <trkpt lat="46.34687" lon="6.67522">
        <ele>1414.7367</ele>
        <time>2014-08-27T10:52:42Z</time>
      </trkpt>
      <trkpt lat="46.34687" lon="6.67527">
        <ele>1414.7367</ele>
        <time>2014-08-27T10:52:47Z</time>
      </trkpt>
      <trkpt lat="46.34687" lon="6.67527">
        <ele>1414.7367</ele>
        <time>2014-08-27T10:52:52Z</time>
      </trkpt>
      <trkpt lat="46.34686" lon="6.67526">
        <ele>1414.7367</ele>
        <time>2014-08-27T10:52:57Z</time>
      </trkpt>
      <trkpt lat="46.34686" lon="6.67527">
        <ele>1414.7367</ele>
        <time>2014-08-27T10:53:02Z</time>
      </trkpt>
      <trkpt lat="46.34685" lon="6.67532">
        <ele>1417.1924</ele>
        <time>2014-08-27T10:53:07Z</time>
      </trkpt>
      <trkpt lat="46.34686" lon="6.67536">
        <ele>1417.1924</ele>
        <time>2014-08-27T10:53:12Z</time>
      </trkpt>
      <trkpt lat="46.34687" lon="6.67538">
        <ele>1417.1924</ele>
        <time>2014-08-27T10:53:17Z</time>
      </trkpt>
      <trkpt lat="46.34687" lon="6.6754">
        <ele>1417.1924</ele>
        <time>2014-08-27T10:53:22Z</time>
      </trkpt>
      <trkpt lat="46.34687" lon="6.67544">
        <ele>1417.1924</ele>
        <time>2014-08-27T10:53:27Z</time>
      </trkpt>
      <trkpt lat="46.34687" lon="6.67547">
        <ele>1419.7289</ele>
        <time>2014-08-27T10:53:32Z</time>
      </trkpt>
      <trkpt lat="46.34687" lon="6.67553">
        <ele>1419.7289</ele>
        <time>2014-08-27T10:53:37Z</time>
      </trkpt>
      <trkpt lat="46.34684" lon="6.67557">
        <ele>1419.7289</ele>
        <time>2014-08-27T10:53:42Z</time>
      </trkpt>
      <trkpt lat="46.34684" lon="6.67557">
        <ele>1419.7289</ele>
        <time>2014-08-27T10:53:47Z</time>
      </trkpt>
      <trkpt lat="46.34683" lon="6.6756">
        <ele>1422.2513</ele>
        <time>2014-08-27T10:53:52Z</time>
      </trkpt>
      <trkpt lat="46.34683" lon="6.67562">
        <ele>1422.2513</ele>
        <time>2014-08-27T10:53:57Z</time>
      </trkpt>
      <trkpt lat="46.34681" lon="6.67565">
        <ele>1422.2513</ele>
        <time>2014-08-27T10:54:02Z</time>
      </trkpt>
      <trkpt lat="46.34681" lon="6.67569">
        <ele>1422.2513</ele>
        <time>2014-08-27T10:54:07Z</time>
      </trkpt>
      <trkpt lat="46.3468" lon="6.67575">
        <ele>1424.7585</ele>
        <time>2014-08-27T10:54:12Z</time>
      </trkpt>
      <trkpt lat="46.34679" lon="6.67577">
        <ele>1424.7585</ele>
        <time>2014-08-27T10:54:17Z</time>
      </trkpt>
      <trkpt lat="46.34679" lon="6.67581">
        <ele>1424.7585</ele>
        <time>2014-08-27T10:54:22Z</time>
      </trkpt>
      <trkpt lat="46.34679" lon="6.67587">
        <ele>1424.7585</ele>
        <time>2014-08-27T10:54:27Z</time>
      </trkpt>
      <trkpt lat="46.34678" lon="6.67591">
        <ele>1427.3359</ele>
        <time>2014-08-27T10:54:32Z</time>
      </trkpt>
      <trkpt lat="46.34677" lon="6.67596">
        <ele>1427.3359</ele>
        <time>2014-08-27T10:54:37Z</time>
      </trkpt>
      <trkpt lat="46.34678" lon="6.676">
        <ele>1427.3359</ele>
        <time>2014-08-27T10:54:42Z</time>
      </trkpt>
      <trkpt lat="46.34678" lon="6.67605">
        <ele>1429.8175</ele>
        <time>2014-08-27T10:54:47Z</time>
      </trkpt>
      <trkpt lat="46.34678" lon="6.67607">
        <ele>1429.8175</ele>
        <time>2014-08-27T10:54:52Z</time>
      </trkpt>
      <trkpt lat="46.34677" lon="6.67611">
        <ele>1429.8175</ele>
        <time>2014-08-27T10:54:57Z</time>
      </trkpt>
      <trkpt lat="46.34676" lon="6.67613">
        <ele>1429.8175</ele>
        <time>2014-08-27T10:55:02Z</time>
      </trkpt>
      <trkpt lat="46.34676" lon="6.67614">
        <ele>1429.8175</ele>
        <time>2014-08-27T10:55:07Z</time>
      </trkpt>
      <trkpt lat="46.34675" lon="6.67618">
        <ele>1432.309</ele>
        <time>2014-08-27T10:55:12Z</time>
      </trkpt>
      <trkpt lat="46.34673" lon="6.67625">
        <ele>1432.309</ele>
        <time>2014-08-27T10:55:17Z</time>
      </trkpt>
      <trkpt lat="46.34672" lon="6.67628">
        <ele>1432.309</ele>
        <time>2014-08-27T10:55:22Z</time>
      </trkpt>
      <trkpt lat="46.3467" lon="6.6763">
        <ele>1434.5194</ele>
        <time>2014-08-27T10:55:27Z</time>
      </trkpt>
      <trkpt lat="46.34667" lon="6.67632">
        <ele>1434.5194</ele>
        <time>2014-08-27T10:55:32Z</time>
      </trkpt>
      <trkpt lat="46.34667" lon="6.67633">
        <ele>1434.5194</ele>
        <time>2014-08-27T10:55:37Z</time>
      </trkpt>
      <trkpt lat="46.34664" lon="6.67635">
        <ele>1434.5194</ele>
        <time>2014-08-27T10:55:42Z</time>
      </trkpt>
      <trkpt lat="46.34661" lon="6.67638">
        <ele>1436.1945</ele>
        <time>2014-08-27T10:55:47Z</time>
      </trkpt>
      <trkpt lat="46.34658" lon="6.67641">
        <ele>1436.1945</ele>
        <time>2014-08-27T10:55:52Z</time>
      </trkpt>
      <trkpt lat="46.34656" lon="6.67643">
        <ele>1436.1945</ele>
        <time>2014-08-27T10:55:57Z</time>
      </trkpt>
      <trkpt lat="46.34655" lon="6.67644">
        <ele>1436.1945</ele>
        <time>2014-08-27T10:56:02Z</time>
      </trkpt>
      <trkpt lat="46.34654" lon="6.67644">
        <ele>1436.1945</ele>
        <time>2014-08-27T10:56:07Z</time>
      </trkpt>
      <trkpt lat="46.34654" lon="6.67644">
        <ele>1437.5901</ele>
        <time>2014-08-27T10:56:12Z</time>
      </trkpt>
      <trkpt lat="46.34653" lon="6.67646">
        <ele>1437.5901</ele>
        <time>2014-08-27T10:56:17Z</time>
      </trkpt>
      <trkpt lat="46.34652" lon="6.67646">
        <ele>1437.5901</ele>
        <time>2014-08-27T10:56:22Z</time>
      </trkpt>
      <trkpt lat="46.34652" lon="6.67646">
        <ele>1437.5901</ele>
        <time>2014-08-27T10:56:27Z</time>
      </trkpt>
      <trkpt lat="46.34652" lon="6.67646">
        <ele>1437.5901</ele>
        <time>2014-08-27T10:56:32Z</time>
      </trkpt>
      <trkpt lat="46.34653" lon="6.67646">
        <ele>1437.5901</ele>
        <time>2014-08-27T10:56:37Z</time>
      </trkpt>
      <trkpt lat="46.34653" lon="6.67646">
        <ele>1437.5901</ele>
        <time>2014-08-27T10:56:42Z</time>
      </trkpt>
      <trkpt lat="46.34654" lon="6.67645">
        <ele>1437.5901</ele>
        <time>2014-08-27T10:56:47Z</time>
      </trkpt>
      <trkpt lat="46.34654" lon="6.67645">
        <ele>1437.5901</ele>
        <time>2014-08-27T10:56:52Z</time>
      </trkpt>
      <trkpt lat="46.34655" lon="6.67645">
        <ele>1437.5901</ele>
        <time>2014-08-27T10:56:57Z</time>
      </trkpt>
      <trkpt lat="46.34655" lon="6.67645">
        <ele>1437.5901</ele>
        <time>2014-08-27T10:57:02Z</time>
      </trkpt>
      <trkpt lat="46.34655" lon="6.67645">
        <ele>1437.5901</ele>
        <time>2014-08-27T10:57:07Z</time>
      </trkpt>
      <trkpt lat="46.34656" lon="6.67645">
        <ele>1437.5901</ele>
        <time>2014-08-27T10:57:12Z</time>
      </trkpt>
      <trkpt lat="46.34655" lon="6.67649">
        <ele>1439.1603</ele>
        <time>2014-08-27T10:57:17Z</time>
      </trkpt>
      <trkpt lat="46.34654" lon="6.6765">
        <ele>1439.1603</ele>
        <time>2014-08-27T10:57:22Z</time>
      </trkpt>
      <trkpt lat="46.34654" lon="6.67649">
        <ele>1439.1603</ele>
        <time>2014-08-27T10:57:27Z</time>
      </trkpt>
      <trkpt lat="46.34654" lon="6.67647">
        <ele>1439.1603</ele>
        <time>2014-08-27T10:57:32Z</time>
      </trkpt>
      <trkpt lat="46.34654" lon="6.67646">
        <ele>1439.1603</ele>
        <time>2014-08-27T10:57:37Z</time>
      </trkpt>
      <trkpt lat="46.34655" lon="6.67645">
        <ele>1439.1603</ele>
        <time>2014-08-27T10:57:42Z</time>
      </trkpt>
      <trkpt lat="46.34658" lon="6.67641">
        <ele>1440.6478</ele>
        <time>2014-08-27T10:57:47Z</time>
      </trkpt>
      <trkpt lat="46.34662" lon="6.67637">
        <ele>1440.6478</ele>
        <time>2014-08-27T10:57:52Z</time>
      </trkpt>
      <trkpt lat="46.34662" lon="6.67636">
        <ele>1440.6478</ele>
        <time>2014-08-27T10:57:57Z</time>
      </trkpt>
      <trkpt lat="46.34662" lon="6.67637">
        <ele>1440.6478</ele>
        <time>2014-08-27T10:58:02Z</time>
      </trkpt>
      <trkpt lat="46.34663" lon="6.67638">
        <ele>1440.6478</ele>
        <time>2014-08-27T10:58:07Z</time>
      </trkpt>
      <trkpt lat="46.34663" lon="6.67638">
        <ele>1440.6478</ele>
        <time>2014-08-27T10:58:12Z</time>
      </trkpt>
      <trkpt lat="46.34663" lon="6.67638">
        <ele>1440.6478</ele>
        <time>2014-08-27T10:58:17Z</time>
      </trkpt>
      <trkpt lat="46.34663" lon="6.67638">
        <ele>1440.6478</ele>
        <time>2014-08-27T10:58:22Z</time>
      </trkpt>
      <trkpt lat="46.34664" lon="6.67637">
        <ele>1441.9734</ele>
        <time>2014-08-27T10:58:27Z</time>
      </trkpt>
      <trkpt lat="46.34664" lon="6.67637">
        <ele>1441.9734</ele>
        <time>2014-08-27T10:58:32Z</time>
      </trkpt>
      <trkpt lat="46.34664" lon="6.67641">
        <ele>1441.9734</ele>
        <time>2014-08-27T10:58:37Z</time>
      </trkpt>
      <trkpt lat="46.34661" lon="6.67642">
        <ele>1441.9734</ele>
        <time>2014-08-27T10:58:42Z</time>
      </trkpt>
      <trkpt lat="46.34657" lon="6.67644">
        <ele>1443.2802</ele>
        <time>2014-08-27T10:58:47Z</time>
      </trkpt>
      <trkpt lat="46.3465" lon="6.67645">
        <ele>1443.2802</ele>
        <time>2014-08-27T10:58:52Z</time>
      </trkpt>
      <trkpt lat="46.34645" lon="6.67643">
        <ele>1444.3259</ele>
        <time>2014-08-27T10:58:57Z</time>
      </trkpt>
      <trkpt lat="46.34642" lon="6.67642">
        <ele>1444.3259</ele>
        <time>2014-08-27T10:59:02Z</time>
      </trkpt>
      <trkpt lat="46.34639" lon="6.67643">
        <ele>1444.3259</ele>
        <time>2014-08-27T10:59:07Z</time>
      </trkpt>
      <trkpt lat="46.3464" lon="6.67643">
        <ele>1444.3259</ele>
        <time>2014-08-27T10:59:12Z</time>
      </trkpt>
      <trkpt lat="46.34641" lon="6.67644">
        <ele>1444.3259</ele>
        <time>2014-08-27T10:59:17Z</time>
      </trkpt>
      <trkpt lat="46.34641" lon="6.67645">
        <ele>1444.3259</ele>
        <time>2014-08-27T10:59:22Z</time>
      </trkpt>
      <trkpt lat="46.34641" lon="6.67646">
        <ele>1444.3259</ele>
        <time>2014-08-27T10:59:27Z</time>
      </trkpt>
      <trkpt lat="46.34641" lon="6.67646">
        <ele>1445.2188</ele>
        <time>2014-08-27T10:59:32Z</time>
      </trkpt>
      <trkpt lat="46.34642" lon="6.67646">
        <ele>1445.2188</ele>
        <time>2014-08-27T10:59:37Z</time>
      </trkpt>
      <trkpt lat="46.34641" lon="6.67646">
        <ele>1445.2188</ele>
        <time>2014-08-27T10:59:42Z</time>
      </trkpt>
      <trkpt lat="46.34641" lon="6.67645">
        <ele>1445.2188</ele>
        <time>2014-08-27T10:59:47Z</time>
      </trkpt>
      <trkpt lat="46.34641" lon="6.67644">
        <ele>1445.2188</ele>
        <time>2014-08-27T10:59:52Z</time>
      </trkpt>
      <trkpt lat="46.34641" lon="6.67645">
        <ele>1445.2188</ele>
        <time>2014-08-27T10:59:57Z</time>
      </trkpt>
      <trkpt lat="46.3464" lon="6.67645">
        <ele>1445.2188</ele>
        <time>2014-08-27T11:00:02Z</time>
      </trkpt>
      <trkpt lat="46.34641" lon="6.67646">
        <ele>1445.2188</ele>
        <time>2014-08-27T11:00:07Z</time>
      </trkpt>
      <trkpt lat="46.34641" lon="6.67647">
        <ele>1445.2188</ele>
        <time>2014-08-27T11:00:12Z</time>
      </trkpt>
      <trkpt lat="46.34642" lon="6.67648">
        <ele>1445.2188</ele>
        <time>2014-08-27T11:00:17Z</time>
      </trkpt>
      <trkpt lat="46.34642" lon="6.67648">
        <ele>1445.2188</ele>
        <time>2014-08-27T11:00:22Z</time>
      </trkpt>
      <trkpt lat="46.34641" lon="6.67647">
        <ele>1445.2188</ele>
        <time>2014-08-27T11:00:30Z</time>
      </trkpt>
      <trkpt lat="46.34641" lon="6.67646">
        <ele>1445.2188</ele>
        <time>2014-08-27T11:00:32Z</time>
      </trkpt>
      <trkpt lat="46.34641" lon="6.67645">
        <ele>1445.2188</ele>
        <time>2014-08-27T11:00:37Z</time>
      </trkpt>
      <trkpt lat="46.34641" lon="6.67646">
        <ele>1445.2188</ele>
        <time>2014-08-27T11:00:42Z</time>
      </trkpt>
      <trkpt lat="46.34641" lon="6.67645">
        <ele>1445.2188</ele>
        <time>2014-08-27T11:00:47Z</time>
      </trkpt>
      <trkpt lat="46.34641" lon="6.67644">
        <ele>1446.2175</ele>
        <time>2014-08-27T11:00:52Z</time>
      </trkpt>
      <trkpt lat="46.34641" lon="6.67642">
        <ele>1446.2175</ele>
        <time>2014-08-27T11:00:57Z</time>
      </trkpt>
      <trkpt lat="46.34641" lon="6.67642">
        <ele>1446.2175</ele>
        <time>2014-08-27T11:01:02Z</time>
      </trkpt>
      <trkpt lat="46.34641" lon="6.67641">
        <ele>1446.2175</ele>
        <time>2014-08-27T11:01:07Z</time>
      </trkpt>
      <trkpt lat="46.34642" lon="6.67641">
        <ele>1446.2175</ele>
        <time>2014-08-27T11:01:12Z</time>
      </trkpt>
      <trkpt lat="46.34643" lon="6.6764">
        <ele>1446.2175</ele>
        <time>2014-08-27T11:01:17Z</time>
      </trkpt>
      <trkpt lat="46.34643" lon="6.6764">
        <ele>1446.2175</ele>
        <time>2014-08-27T11:01:22Z</time>
      </trkpt>
      <trkpt lat="46.34642" lon="6.67638">
        <ele>1446.2175</ele>
        <time>2014-08-27T11:01:27Z</time>
      </trkpt>
      <trkpt lat="46.34642" lon="6.67639">
        <ele>1446.2175</ele>
        <time>2014-08-27T11:01:32Z</time>
      </trkpt>
      <trkpt lat="46.34643" lon="6.6764">
        <ele>1446.2175</ele>
        <time>2014-08-27T11:01:37Z</time>
      </trkpt>
      <trkpt lat="46.34643" lon="6.6764">
        <ele>1446.2175</ele>
        <time>2014-08-27T11:01:42Z</time>
      </trkpt>
      <trkpt lat="46.34644" lon="6.6764">
        <ele>1446.2175</ele>
        <time>2014-08-27T11:01:47Z</time>
      </trkpt>
      <trkpt lat="46.34645" lon="6.6764">
        <ele>1446.2175</ele>
        <time>2014-08-27T11:01:52Z</time>
      </trkpt>
      <trkpt lat="46.34644" lon="6.67641">
        <ele>1447.0286</ele>
        <time>2014-08-27T11:01:57Z</time>
      </trkpt>
      <trkpt lat="46.34643" lon="6.67641">
        <ele>1447.0286</ele>
        <time>2014-08-27T11:02:02Z</time>
      </trkpt>
      <trkpt lat="46.34642" lon="6.67641">
        <ele>1447.0286</ele>
        <time>2014-08-27T11:02:07Z</time>
      </trkpt>
      <trkpt lat="46.34642" lon="6.67641">
        <ele>1447.0286</ele>
        <time>2014-08-27T11:02:12Z</time>
      </trkpt>
      <trkpt lat="46.34642" lon="6.67642">
        <ele>1447.0286</ele>
        <time>2014-08-27T11:02:17Z</time>
      </trkpt>
      <trkpt lat="46.34642" lon="6.67642">
        <ele>1447.0286</ele>
        <time>2014-08-27T11:02:22Z</time>
      </trkpt>
      <trkpt lat="46.34642" lon="6.67642">
        <ele>1447.0286</ele>
        <time>2014-08-27T11:02:27Z</time>
      </trkpt>
      <trkpt lat="46.34643" lon="6.6764">
        <ele>1447.0286</ele>
        <time>2014-08-27T11:02:32Z</time>
      </trkpt>
      <trkpt lat="46.34643" lon="6.6764">
        <ele>1447.0286</ele>
        <time>2014-08-27T11:02:37Z</time>
      </trkpt>
      <trkpt lat="46.34644" lon="6.6764">
        <ele>1447.0286</ele>
        <time>2014-08-27T11:02:42Z</time>
      </trkpt>
      <trkpt lat="46.34644" lon="6.6764">
        <ele>1447.0286</ele>
        <time>2014-08-27T11:02:47Z</time>
      </trkpt>
      <trkpt lat="46.34644" lon="6.67641">
        <ele>1447.0286</ele>
        <time>2014-08-27T11:02:52Z</time>
      </trkpt>
      <trkpt lat="46.34644" lon="6.6764">
        <ele>1447.0286</ele>
        <time>2014-08-27T11:02:57Z</time>
      </trkpt>
      <trkpt lat="46.34643" lon="6.6764">
        <ele>1447.0286</ele>
        <time>2014-08-27T11:03:02Z</time>
      </trkpt>
      <trkpt lat="46.34643" lon="6.6764">
        <ele>1447.0286</ele>
        <time>2014-08-27T11:03:07Z</time>
      </trkpt>
      <trkpt lat="46.34643" lon="6.67641">
        <ele>1447.0286</ele>
        <time>2014-08-27T11:03:12Z</time>
      </trkpt>
      <trkpt lat="46.34644" lon="6.67641">
        <ele>1447.0286</ele>
        <time>2014-08-27T11:03:17Z</time>
      </trkpt>
      <trkpt lat="46.34643" lon="6.6764">
        <ele>1447.6544</ele>
        <time>2014-08-27T11:03:22Z</time>
      </trkpt>
      <trkpt lat="46.34642" lon="6.6764">
        <ele>1447.6544</ele>
        <time>2014-08-27T11:03:27Z</time>
      </trkpt>
      <trkpt lat="46.34642" lon="6.6764">
        <ele>1447.6544</ele>
        <time>2014-08-27T11:03:32Z</time>
      </trkpt>
      <trkpt lat="46.34642" lon="6.6764">
        <ele>1447.6544</ele>
        <time>2014-08-27T11:03:37Z</time>
      </trkpt>
      <trkpt lat="46.34642" lon="6.6764">
        <ele>1447.6544</ele>
        <time>2014-08-27T11:03:42Z</time>
      </trkpt>
      <trkpt lat="46.34642" lon="6.6764">
        <ele>1447.6544</ele>
        <time>2014-08-27T11:03:47Z</time>
      </trkpt>
      <trkpt lat="46.34643" lon="6.67641">
        <ele>1447.6544</ele>
        <time>2014-08-27T11:03:52Z</time>
      </trkpt>
      <trkpt lat="46.34643" lon="6.67641">
        <ele>1447.6544</ele>
        <time>2014-08-27T11:03:57Z</time>
      </trkpt>
      <trkpt lat="46.34643" lon="6.67641">
        <ele>1447.6544</ele>
        <time>2014-08-27T11:04:02Z</time>
      </trkpt>
      <trkpt lat="46.34643" lon="6.67641">
        <ele>1447.6544</ele>
        <time>2014-08-27T11:04:07Z</time>
      </trkpt>
      <trkpt lat="46.34642" lon="6.6764">
        <ele>1447.6544</ele>
        <time>2014-08-27T11:04:12Z</time>
      </trkpt>
      <trkpt lat="46.34642" lon="6.6764">
        <ele>1447.6544</ele>
        <time>2014-08-27T11:04:17Z</time>
      </trkpt>
      <trkpt lat="46.34641" lon="6.67639">
        <ele>1447.6544</ele>
        <time>2014-08-27T11:04:22Z</time>
      </trkpt>
      <trkpt lat="46.34641" lon="6.67639">
        <ele>1447.6544</ele>
        <time>2014-08-27T11:04:27Z</time>
      </trkpt>
      <trkpt lat="46.34641" lon="6.6764">
        <ele>1447.6544</ele>
        <time>2014-08-27T11:04:32Z</time>
      </trkpt>
      <trkpt lat="46.34641" lon="6.6764">
        <ele>1447.6544</ele>
        <time>2014-08-27T11:04:37Z</time>
      </trkpt>
      <trkpt lat="46.34641" lon="6.6764">
        <ele>1447.6544</ele>
        <time>2014-08-27T11:04:42Z</time>
      </trkpt>
      <trkpt lat="46.34642" lon="6.6764">
        <ele>1447.6544</ele>
        <time>2014-08-27T11:04:47Z</time>
      </trkpt>
      <trkpt lat="46.34642" lon="6.6764">
        <ele>1447.6544</ele>
        <time>2014-08-27T11:04:52Z</time>
      </trkpt>
      <trkpt lat="46.34642" lon="6.67639">
        <ele>1448.1263</ele>
        <time>2014-08-27T11:04:57Z</time>
      </trkpt>
      <trkpt lat="46.34641" lon="6.67639">
        <ele>1448.1263</ele>
        <time>2014-08-27T11:05:02Z</time>
      </trkpt>
      <trkpt lat="46.3464" lon="6.67641">
        <ele>1448.1263</ele>
        <time>2014-08-27T11:05:07Z</time>
      </trkpt>
      <trkpt lat="46.3464" lon="6.67641">
        <ele>1448.1263</ele>
        <time>2014-08-27T11:05:12Z</time>
      </trkpt>
      <trkpt lat="46.34641" lon="6.67641">
        <ele>1448.1263</ele>
        <time>2014-08-27T11:05:17Z</time>
      </trkpt>
      <trkpt lat="46.34641" lon="6.67643">
        <ele>1448.1263</ele>
        <time>2014-08-27T11:05:22Z</time>
      </trkpt>
      <trkpt lat="46.34643" lon="6.67644">
        <ele>1448.1263</ele>
        <time>2014-08-27T11:05:27Z</time>
      </trkpt>
      <trkpt lat="46.34643" lon="6.67644">
        <ele>1448.1263</ele>
        <time>2014-08-27T11:05:32Z</time>
      </trkpt>
      <trkpt lat="46.34643" lon="6.67642">
        <ele>1448.1263</ele>
        <time>2014-08-27T11:05:37Z</time>
      </trkpt>
      <trkpt lat="46.34644" lon="6.67641">
        <ele>1448.373</ele>
        <time>2014-08-27T11:05:42Z</time>
      </trkpt>
      <trkpt lat="46.34645" lon="6.67641">
        <ele>1448.373</ele>
        <time>2014-08-27T11:05:47Z</time>
      </trkpt>
      <trkpt lat="46.34646" lon="6.67641">
        <ele>1448.373</ele>
        <time>2014-08-27T11:05:52Z</time>
      </trkpt>
      <trkpt lat="46.34647" lon="6.67642">
        <ele>1448.373</ele>
        <time>2014-08-27T11:05:57Z</time>
      </trkpt>
      <trkpt lat="46.34648" lon="6.67641">
        <ele>1448.373</ele>
        <time>2014-08-27T11:06:02Z</time>
      </trkpt>
      <trkpt lat="46.34647" lon="6.6764">
        <ele>1448.373</ele>
        <time>2014-08-27T11:06:07Z</time>
      </trkpt>
      <trkpt lat="46.34646" lon="6.67639">
        <ele>1448.373</ele>
        <time>2014-08-27T11:06:12Z</time>
      </trkpt>
      <trkpt lat="46.34646" lon="6.67637">
        <ele>1448.373</ele>
        <time>2014-08-27T11:06:17Z</time>
      </trkpt>
      <trkpt lat="46.34649" lon="6.67632">
        <ele>1448.4878</ele>
        <time>2014-08-27T11:06:22Z</time>
      </trkpt>
      <trkpt lat="46.34649" lon="6.67631">
        <ele>1448.4878</ele>
        <time>2014-08-27T11:06:27Z</time>
      </trkpt>
      <trkpt lat="46.34649" lon="6.67631">
        <ele>1448.4878</ele>
        <time>2014-08-27T11:06:32Z</time>
      </trkpt>
      <trkpt lat="46.34647" lon="6.67634">
        <ele>1448.4878</ele>
        <time>2014-08-27T11:06:37Z</time>
      </trkpt>
      <trkpt lat="46.34646" lon="6.67636">
        <ele>1448.4878</ele>
        <time>2014-08-27T11:06:42Z</time>
      </trkpt>
      <trkpt lat="46.34646" lon="6.67637">
        <ele>1448.4878</ele>
        <time>2014-08-27T11:06:47Z</time>
      </trkpt>
      <trkpt lat="46.34646" lon="6.67637">
        <ele>1448.4878</ele>
        <time>2014-08-27T11:06:52Z</time>
      </trkpt>
      <trkpt lat="46.34645" lon="6.67638">
        <ele>1448.4878</ele>
        <time>2014-08-27T11:06:57Z</time>
      </trkpt>
      <trkpt lat="46.34645" lon="6.67638">
        <ele>1448.4878</ele>
        <time>2014-08-27T11:07:02Z</time>
      </trkpt>
      <trkpt lat="46.34643" lon="6.67637">
        <ele>1448.4415</ele>
        <time>2014-08-27T11:07:07Z</time>
      </trkpt>
      <trkpt lat="46.34643" lon="6.67637">
        <ele>1448.4415</ele>
        <time>2014-08-27T11:07:12Z</time>
      </trkpt>
      <trkpt lat="46.34644" lon="6.67638">
        <ele>1448.4415</ele>
        <time>2014-08-27T11:07:17Z</time>
      </trkpt>
      <trkpt lat="46.34644" lon="6.67639">
        <ele>1448.4415</ele>
        <time>2014-08-27T11:07:22Z</time>
      </trkpt>
      <trkpt lat="46.34644" lon="6.6764">
        <ele>1448.4415</ele>
        <time>2014-08-27T11:07:27Z</time>
      </trkpt>
      <trkpt lat="46.34643" lon="6.67641">
        <ele>1448.4415</ele>
        <time>2014-08-27T11:07:32Z</time>
      </trkpt>
      <trkpt lat="46.34642" lon="6.67642">
        <ele>1448.4415</ele>
        <time>2014-08-27T11:07:37Z</time>
      </trkpt>
      <trkpt lat="46.34641" lon="6.67642">
        <ele>1448.4415</ele>
        <time>2014-08-27T11:07:42Z</time>
      </trkpt>
      <trkpt lat="46.34642" lon="6.67643">
        <ele>1448.4415</ele>
        <time>2014-08-27T11:07:47Z</time>
      </trkpt>
      <trkpt lat="46.34643" lon="6.67645">
        <ele>1448.4415</ele>
        <time>2014-08-27T11:07:52Z</time>
      </trkpt>
      <trkpt lat="46.34643" lon="6.67647">
        <ele>1448.2225</ele>
        <time>2014-08-27T11:07:57Z</time>
      </trkpt>
      <trkpt lat="46.34644" lon="6.67647">
        <ele>1448.2225</ele>
        <time>2014-08-27T11:08:02Z</time>
      </trkpt>
      <trkpt lat="46.34644" lon="6.67647">
        <ele>1448.2225</ele>
        <time>2014-08-27T11:08:07Z</time>
      </trkpt>
      <trkpt lat="46.34644" lon="6.67647">
        <ele>1448.2225</ele>
        <time>2014-08-27T11:08:12Z</time>
      </trkpt>
      <trkpt lat="46.34644" lon="6.67648">
        <ele>1448.2225</ele>
        <time>2014-08-27T11:08:17Z</time>
      </trkpt>
      <trkpt lat="46.34643" lon="6.67645">
        <ele>1448.2225</ele>
        <time>2014-08-27T11:08:22Z</time>
      </trkpt>
      <trkpt lat="46.34642" lon="6.67645">
        <ele>1448.2225</ele>
        <time>2014-08-27T11:08:27Z</time>
      </trkpt>
      <trkpt lat="46.34641" lon="6.67646">
        <ele>1448.2225</ele>
        <time>2014-08-27T11:08:32Z</time>
      </trkpt>
      <trkpt lat="46.34641" lon="6.67647">
        <ele>1448.2225</ele>
        <time>2014-08-27T11:08:37Z</time>
      </trkpt>
      <trkpt lat="46.34642" lon="6.67647">
        <ele>1448.2225</ele>
        <time>2014-08-27T11:08:42Z</time>
      </trkpt>
      <trkpt lat="46.34642" lon="6.67647">
        <ele>1448.2225</ele>
        <time>2014-08-27T11:08:47Z</time>
      </trkpt>
      <trkpt lat="46.34641" lon="6.67645">
        <ele>1448.2225</ele>
        <time>2014-08-27T11:08:52Z</time>
      </trkpt>
      <trkpt lat="46.3464" lon="6.67643">
        <ele>1447.8347</ele>
        <time>2014-08-27T11:08:57Z</time>
      </trkpt>
      <trkpt lat="46.34639" lon="6.67643">
        <ele>1447.8347</ele>
        <time>2014-08-27T11:09:02Z</time>
      </trkpt>
      <trkpt lat="46.34637" lon="6.67644">
        <ele>1447.8347</ele>
        <time>2014-08-27T11:09:07Z</time>
      </trkpt>
      <trkpt lat="46.34637" lon="6.67643">
        <ele>1447.8347</ele>
        <time>2014-08-27T11:09:12Z</time>
      </trkpt>
      <trkpt lat="46.34636" lon="6.67642">
        <ele>1447.8347</ele>
        <time>2014-08-27T11:09:17Z</time>
      </trkpt>
      <trkpt lat="46.34637" lon="6.67642">
        <ele>1447.8347</ele>
        <time>2014-08-27T11:09:22Z</time>
      </trkpt>
      <trkpt lat="46.34637" lon="6.6764">
        <ele>1447.8347</ele>
        <time>2014-08-27T11:09:27Z</time>
      </trkpt>
      <trkpt lat="46.34637" lon="6.67639">
        <ele>1447.8347</ele>
        <time>2014-08-27T11:09:32Z</time>
      </trkpt>
      <trkpt lat="46.34637" lon="6.67639">
        <ele>1447.8347</ele>
        <time>2014-08-27T11:09:37Z</time>
      </trkpt>
      <trkpt lat="46.34638" lon="6.67641">
        <ele>1447.8347</ele>
        <time>2014-08-27T11:09:42Z</time>
      </trkpt>
      <trkpt lat="46.34638" lon="6.67641">
        <ele>1447.8347</ele>
        <time>2014-08-27T11:09:47Z</time>
      </trkpt>
      <trkpt lat="46.34638" lon="6.67641">
        <ele>1447.8347</ele>
        <time>2014-08-27T11:09:52Z</time>
      </trkpt>
      <trkpt lat="46.34638" lon="6.6764">
        <ele>1447.8347</ele>
        <time>2014-08-27T11:09:57Z</time>
      </trkpt>
      <trkpt lat="46.3464" lon="6.67641">
        <ele>1447.4836</ele>
        <time>2014-08-27T11:10:02Z</time>
      </trkpt>
      <trkpt lat="46.34642" lon="6.67643">
        <ele>1447.4836</ele>
        <time>2014-08-27T11:10:07Z</time>
      </trkpt>
      <trkpt lat="46.34642" lon="6.67642">
        <ele>1447.4836</ele>
        <time>2014-08-27T11:10:12Z</time>
      </trkpt>
      <trkpt lat="46.34643" lon="6.67641">
        <ele>1447.4836</ele>
        <time>2014-08-27T11:10:17Z</time>
      </trkpt>
      <trkpt lat="46.34643" lon="6.67641">
        <ele>1447.4836</ele>
        <time>2014-08-27T11:10:22Z</time>
      </trkpt>
      <trkpt lat="46.34643" lon="6.67641">
        <ele>1447.4836</ele>
        <time>2014-08-27T11:10:27Z</time>
      </trkpt>
      <trkpt lat="46.34643" lon="6.67644">
        <ele>1447.4836</ele>
        <time>2014-08-27T11:10:32Z</time>
      </trkpt>
      <trkpt lat="46.34642" lon="6.67647">
        <ele>1447.4836</ele>
        <time>2014-08-27T11:10:37Z</time>
      </trkpt>
      <trkpt lat="46.34642" lon="6.67648">
        <ele>1447.4836</ele>
        <time>2014-08-27T11:10:42Z</time>
      </trkpt>
      <trkpt lat="46.34641" lon="6.67648">
        <ele>1447.1582</ele>
        <time>2014-08-27T11:10:47Z</time>
      </trkpt>
      <trkpt lat="46.34636" lon="6.67647">
        <ele>1447.1582</ele>
        <time>2014-08-27T11:10:52Z</time>
      </trkpt>
      <trkpt lat="46.34632" lon="6.67649">
        <ele>1447.1582</ele>
        <time>2014-08-27T11:10:57Z</time>
      </trkpt>
      <trkpt lat="46.3463" lon="6.67649">
        <ele>1446.761</ele>
        <time>2014-08-27T11:11:02Z</time>
      </trkpt>
      <trkpt lat="46.34624" lon="6.67651">
        <ele>1446.761</ele>
        <time>2014-08-27T11:11:07Z</time>
      </trkpt>
      <trkpt lat="46.3462" lon="6.67653">
        <ele>1446.3175</ele>
        <time>2014-08-27T11:11:12Z</time>
      </trkpt>
      <trkpt lat="46.34616" lon="6.67656">
        <ele>1446.3175</ele>
        <time>2014-08-27T11:11:17Z</time>
      </trkpt>
      <trkpt lat="46.3461" lon="6.67658">
        <ele>1445.8224</ele>
        <time>2014-08-27T11:11:22Z</time>
      </trkpt>
      <trkpt lat="46.34606" lon="6.67661">
        <ele>1445.8224</ele>
        <time>2014-08-27T11:11:27Z</time>
      </trkpt>
      <trkpt lat="46.34603" lon="6.67664">
        <ele>1445.8224</ele>
        <time>2014-08-27T11:11:32Z</time>
      </trkpt>
      <trkpt lat="46.34599" lon="6.67668">
        <ele>1445.2852</ele>
        <time>2014-08-27T11:11:37Z</time>
      </trkpt>
      <trkpt lat="46.34595" lon="6.67672">
        <ele>1445.2852</ele>
        <time>2014-08-27T11:11:42Z</time>
      </trkpt>
      <trkpt lat="46.34592" lon="6.67676">
        <ele>1445.2852</ele>
        <time>2014-08-27T11:11:47Z</time>
      </trkpt>
      <trkpt lat="46.34589" lon="6.67681">
        <ele>1444.6858</ele>
        <time>2014-08-27T11:11:52Z</time>
      </trkpt>
      <trkpt lat="46.34589" lon="6.67686">
        <ele>1444.6858</ele>
        <time>2014-08-27T11:11:57Z</time>
      </trkpt>
      <trkpt lat="46.34588" lon="6.67691">
        <ele>1444.6858</ele>
        <time>2014-08-27T11:12:02Z</time>
      </trkpt>
      <trkpt lat="46.34584" lon="6.67692">
        <ele>1444.049</ele>
        <time>2014-08-27T11:12:07Z</time>
      </trkpt>
      <trkpt lat="46.34582" lon="6.67695">
        <ele>1444.049</ele>
        <time>2014-08-27T11:12:12Z</time>
      </trkpt>
      <trkpt lat="46.34579" lon="6.67702">
        <ele>1444.049</ele>
        <time>2014-08-27T11:12:17Z</time>
      </trkpt>
      <trkpt lat="46.34577" lon="6.67706">
        <ele>1443.3832</ele>
        <time>2014-08-27T11:12:22Z</time>
      </trkpt>
      <trkpt lat="46.34574" lon="6.67712">
        <ele>1443.3832</ele>
        <time>2014-08-27T11:12:27Z</time>
      </trkpt>
      <trkpt lat="46.3457" lon="6.67717">
        <ele>1442.696</ele>
        <time>2014-08-27T11:12:32Z</time>
      </trkpt>
      <trkpt lat="46.34566" lon="6.67723">
        <ele>1442.696</ele>
        <time>2014-08-27T11:12:37Z</time>
      </trkpt>
      <trkpt lat="46.34562" lon="6.67729">
        <ele>1442.0092</ele>
        <time>2014-08-27T11:12:42Z</time>
      </trkpt>
      <trkpt lat="46.34558" lon="6.67735">
        <ele>1442.0092</ele>
        <time>2014-08-27T11:12:47Z</time>
      </trkpt>
      <trkpt lat="46.34558" lon="6.67739">
        <ele>1442.0092</ele>
        <time>2014-08-27T11:12:52Z</time>
      </trkpt>
      <trkpt lat="46.34557" lon="6.6774">
        <ele>1441.3278</ele>
        <time>2014-08-27T11:12:57Z</time>
      </trkpt>
      <trkpt lat="46.34556" lon="6.67739">
        <ele>1441.3278</ele>
        <time>2014-08-27T11:13:02Z</time>
      </trkpt>
      <trkpt lat="46.34555" lon="6.67742">
        <ele>1441.3278</ele>
        <time>2014-08-27T11:13:07Z</time>
      </trkpt>
      <trkpt lat="46.34552" lon="6.67746">
        <ele>1441.3278</ele>
        <time>2014-08-27T11:13:12Z</time>
      </trkpt>
      <trkpt lat="46.34551" lon="6.67749">
        <ele>1440.6998</ele>
        <time>2014-08-27T11:13:17Z</time>
      </trkpt>
      <trkpt lat="46.3455" lon="6.67751">
        <ele>1440.6998</ele>
        <time>2014-08-27T11:13:22Z</time>
      </trkpt>
      <trkpt lat="46.34546" lon="6.67753">
        <ele>1440.6998</ele>
        <time>2014-08-27T11:13:27Z</time>
      </trkpt>
      <trkpt lat="46.34543" lon="6.67757">
        <ele>1440.0975</ele>
        <time>2014-08-27T11:13:32Z</time>
      </trkpt>
      <trkpt lat="46.34541" lon="6.67762">
        <ele>1440.0975</ele>
        <time>2014-08-27T11:13:37Z</time>
      </trkpt>
      <trkpt lat="46.34538" lon="6.67767">
        <ele>1440.0975</ele>
        <time>2014-08-27T11:13:42Z</time>
      </trkpt>
      <trkpt lat="46.34536" lon="6.67771">
        <ele>1439.538</ele>
        <time>2014-08-27T11:13:47Z</time>
      </trkpt>
      <trkpt lat="46.34533" lon="6.67775">
        <ele>1439.538</ele>
        <time>2014-08-27T11:13:52Z</time>
      </trkpt>
      <trkpt lat="46.34531" lon="6.67779">
        <ele>1439.538</ele>
        <time>2014-08-27T11:13:57Z</time>
      </trkpt>
      <trkpt lat="46.34529" lon="6.67781">
        <ele>1439.0367</ele>
        <time>2014-08-27T11:14:02Z</time>
      </trkpt>
      <trkpt lat="46.34526" lon="6.67784">
        <ele>1439.0367</ele>
        <time>2014-08-27T11:14:07Z</time>
      </trkpt>
      <trkpt lat="46.34524" lon="6.67787">
        <ele>1439.0367</ele>
        <time>2014-08-27T11:14:12Z</time>
      </trkpt>
      <trkpt lat="46.34523" lon="6.67791">
        <ele>1439.0367</ele>
        <time>2014-08-27T11:14:17Z</time>
      </trkpt>
      <trkpt lat="46.34521" lon="6.67794">
        <ele>1438.6223</ele>
        <time>2014-08-27T11:14:22Z</time>
      </trkpt>
      <trkpt lat="46.34519" lon="6.67796">
        <ele>1438.6223</ele>
        <time>2014-08-27T11:14:27Z</time>
      </trkpt>
      <trkpt lat="46.34518" lon="6.678">
        <ele>1438.6223</ele>
        <time>2014-08-27T11:14:32Z</time>
      </trkpt>
      <trkpt lat="46.34516" lon="6.67803">
        <ele>1438.6223</ele>
        <time>2014-08-27T11:14:37Z</time>
      </trkpt>
      <trkpt lat="46.34514" lon="6.67807">
        <ele>1438.2917</ele>
        <time>2014-08-27T11:14:42Z</time>
      </trkpt>
      <trkpt lat="46.34514" lon="6.67808">
        <ele>1438.2917</ele>
        <time>2014-08-27T11:14:47Z</time>
      </trkpt>
      <trkpt lat="46.34513" lon="6.67811">
        <ele>1438.2917</ele>
        <time>2014-08-27T11:14:52Z</time>
      </trkpt>
      <trkpt lat="46.34512" lon="6.67812">
        <ele>1438.2917</ele>
        <time>2014-08-27T11:14:57Z</time>
      </trkpt>
      <trkpt lat="46.34511" lon="6.67815">
        <ele>1438.2917</ele>
        <time>2014-08-27T11:15:02Z</time>
      </trkpt>
      <trkpt lat="46.34509" lon="6.6782">
        <ele>1438.0854</ele>
        <time>2014-08-27T11:15:07Z</time>
      </trkpt>
      <trkpt lat="46.34507" lon="6.67824">
        <ele>1438.0854</ele>
        <time>2014-08-27T11:15:12Z</time>
      </trkpt>
      <trkpt lat="46.34506" lon="6.67827">
        <ele>1438.0854</ele>
        <time>2014-08-27T11:15:17Z</time>
      </trkpt>
      <trkpt lat="46.34503" lon="6.6783">
        <ele>1438.0854</ele>
        <time>2014-08-27T11:15:22Z</time>
      </trkpt>
      <trkpt lat="46.34501" lon="6.67832">
        <ele>1437.968</ele>
        <time>2014-08-27T11:15:27Z</time>
      </trkpt>
      <trkpt lat="46.34499" lon="6.67837">
        <ele>1437.968</ele>
        <time>2014-08-27T11:15:32Z</time>
      </trkpt>
      <trkpt lat="46.34499" lon="6.67838">
        <ele>1437.968</ele>
        <time>2014-08-27T11:15:37Z</time>
      </trkpt>
      <trkpt lat="46.34498" lon="6.6784">
        <ele>1437.968</ele>
        <time>2014-08-27T11:15:42Z</time>
      </trkpt>
      <trkpt lat="46.34496" lon="6.67841">
        <ele>1437.968</ele>
        <time>2014-08-27T11:15:47Z</time>
      </trkpt>
      <trkpt lat="46.34495" lon="6.67844">
        <ele>1437.964</ele>
        <time>2014-08-27T11:15:52Z</time>
      </trkpt>
      <trkpt lat="46.34493" lon="6.67848">
        <ele>1437.964</ele>
        <time>2014-08-27T11:15:57Z</time>
      </trkpt>
      <trkpt lat="46.34491" lon="6.6785">
        <ele>1437.964</ele>
        <time>2014-08-27T11:16:02Z</time>
      </trkpt>
      <trkpt lat="46.3449" lon="6.67853">
        <ele>1437.964</ele>
        <time>2014-08-27T11:16:07Z</time>
      </trkpt>
      <trkpt lat="46.3449" lon="6.67854">
        <ele>1437.964</ele>
        <time>2014-08-27T11:16:12Z</time>
      </trkpt>
      <trkpt lat="46.34489" lon="6.67855">
        <ele>1438.0955</ele>
        <time>2014-08-27T11:16:17Z</time>
      </trkpt>
      <trkpt lat="46.34487" lon="6.67854">
        <ele>1438.0955</ele>
        <time>2014-08-27T11:16:22Z</time>
      </trkpt>
      <trkpt lat="46.34485" lon="6.67855">
        <ele>1438.0955</ele>
        <time>2014-08-27T11:16:27Z</time>
      </trkpt>
      <trkpt lat="46.34483" lon="6.67858">
        <ele>1438.0955</ele>
        <time>2014-08-27T11:16:32Z</time>
      </trkpt>
      <trkpt lat="46.34481" lon="6.67862">
        <ele>1438.3107</ele>
        <time>2014-08-27T11:16:37Z</time>
      </trkpt>
      <trkpt lat="46.34479" lon="6.67863">
        <ele>1438.3107</ele>
        <time>2014-08-27T11:16:42Z</time>
      </trkpt>
      <trkpt lat="46.34478" lon="6.67866">
        <ele>1438.3107</ele>
        <time>2014-08-27T11:16:47Z</time>
      </trkpt>
      <trkpt lat="46.34477" lon="6.67867">
        <ele>1438.3107</ele>
        <time>2014-08-27T11:16:52Z</time>
      </trkpt>
      <trkpt lat="46.34475" lon="6.67869">
        <ele>1438.3107</ele>
        <time>2014-08-27T11:16:57Z</time>
      </trkpt>
      <trkpt lat="46.34473" lon="6.6787">
        <ele>1438.6475</ele>
        <time>2014-08-27T11:17:02Z</time>
      </trkpt>
      <trkpt lat="46.34472" lon="6.67873">
        <ele>1438.6475</ele>
        <time>2014-08-27T11:17:07Z</time>
      </trkpt>
      <trkpt lat="46.34471" lon="6.67875">
        <ele>1438.6475</ele>
        <time>2014-08-27T11:17:12Z</time>
      </trkpt>
      <trkpt lat="46.34469" lon="6.67878">
        <ele>1438.6475</ele>
        <time>2014-08-27T11:17:17Z</time>
      </trkpt>
      <trkpt lat="46.34467" lon="6.67882">
        <ele>1439.1117</ele>
        <time>2014-08-27T11:17:22Z</time>
      </trkpt>
      <trkpt lat="46.34465" lon="6.67888">
        <ele>1439.1117</ele>
        <time>2014-08-27T11:17:27Z</time>
      </trkpt>
      <trkpt lat="46.34465" lon="6.6789">
        <ele>1439.1117</ele>
        <time>2014-08-27T11:17:32Z</time>
      </trkpt>
      <trkpt lat="46.34465" lon="6.67892">
        <ele>1439.1117</ele>
        <time>2014-08-27T11:17:37Z</time>
      </trkpt>
      <trkpt lat="46.34465" lon="6.67892">
        <ele>1439.1117</ele>
        <time>2014-08-27T11:17:42Z</time>
      </trkpt>
      <trkpt lat="46.34464" lon="6.67894">
        <ele>1439.7516</ele>
        <time>2014-08-27T11:17:47Z</time>
      </trkpt>
      <trkpt lat="46.34464" lon="6.67896">
        <ele>1439.7516</ele>
        <time>2014-08-27T11:17:52Z</time>
      </trkpt>
      <trkpt lat="46.34464" lon="6.67897">
        <ele>1439.7516</ele>
        <time>2014-08-27T11:17:57Z</time>
      </trkpt>
      <trkpt lat="46.34464" lon="6.67898">
        <ele>1439.7516</ele>
        <time>2014-08-27T11:18:02Z</time>
      </trkpt>
      <trkpt lat="46.34462" lon="6.67903">
        <ele>1439.7516</ele>
        <time>2014-08-27T11:18:07Z</time>
      </trkpt>
      <trkpt lat="46.34461" lon="6.67908">
        <ele>1440.5245</ele>
        <time>2014-08-27T11:18:12Z</time>
      </trkpt>
      <trkpt lat="46.3446" lon="6.67913">
        <ele>1440.5245</ele>
        <time>2014-08-27T11:18:17Z</time>
      </trkpt>
      <trkpt lat="46.34459" lon="6.67917">
        <ele>1440.5245</ele>
        <time>2014-08-27T11:18:22Z</time>
      </trkpt>
      <trkpt lat="46.34457" lon="6.67921">
        <ele>1441.362</ele>
        <time>2014-08-27T11:18:27Z</time>
      </trkpt>
      <trkpt lat="46.34455" lon="6.67924">
        <ele>1441.362</ele>
        <time>2014-08-27T11:18:32Z</time>
      </trkpt>
      <trkpt lat="46.34455" lon="6.67926">
        <ele>1441.362</ele>
        <time>2014-08-27T11:18:37Z</time>
      </trkpt>
      <trkpt lat="46.34454" lon="6.67929">
        <ele>1441.362</ele>
        <time>2014-08-27T11:18:42Z</time>
      </trkpt>
      <trkpt lat="46.34454" lon="6.67932">
        <ele>1441.362</ele>
        <time>2014-08-27T11:18:47Z</time>
      </trkpt>
      <trkpt lat="46.34453" lon="6.67934">
        <ele>1442.33</ele>
        <time>2014-08-27T11:18:52Z</time>
      </trkpt>
      <trkpt lat="46.34452" lon="6.67938">
        <ele>1442.33</ele>
        <time>2014-08-27T11:18:57Z</time>
      </trkpt>
      <trkpt lat="46.34451" lon="6.67942">
        <ele>1442.33</ele>
        <time>2014-08-27T11:19:02Z</time>
      </trkpt>
      <trkpt lat="46.3445" lon="6.67944">
        <ele>1442.33</ele>
        <time>2014-08-27T11:19:07Z</time>
      </trkpt>
      <trkpt lat="46.34449" lon="6.67947">
        <ele>1443.388</ele>
        <time>2014-08-27T11:19:12Z</time>
      </trkpt>
      <trkpt lat="46.34449" lon="6.67948">
        <ele>1443.388</ele>
        <time>2014-08-27T11:19:17Z</time>
      </trkpt>
      <trkpt lat="46.34447" lon="6.67952">
        <ele>1443.388</ele>
        <time>2014-08-27T11:19:22Z</time>
      </trkpt>
      <trkpt lat="46.34446" lon="6.67957">
        <ele>1443.388</ele>
        <time>2014-08-27T11:19:27Z</time>
      </trkpt>
      <trkpt lat="46.34445" lon="6.6796">
        <ele>1444.5416</ele>
        <time>2014-08-27T11:19:32Z</time>
      </trkpt>
      <trkpt lat="46.34444" lon="6.67962">
        <ele>1444.5416</ele>
        <time>2014-08-27T11:19:37Z</time>
      </trkpt>
      <trkpt lat="46.34442" lon="6.67966">
        <ele>1444.5416</ele>
        <time>2014-08-27T11:19:42Z</time>
      </trkpt>
      <trkpt lat="46.3444" lon="6.67969">
        <ele>1444.5416</ele>
        <time>2014-08-27T11:19:47Z</time>
      </trkpt>
      <trkpt lat="46.34441" lon="6.6797">
        <ele>1444.5416</ele>
        <time>2014-08-27T11:19:52Z</time>
      </trkpt>
      <trkpt lat="46.3444" lon="6.67971">
        <ele>1444.5416</ele>
        <time>2014-08-27T11:19:57Z</time>
      </trkpt>
      <trkpt lat="46.3444" lon="6.67974">
        <ele>1445.9109</ele>
        <time>2014-08-27T11:20:02Z</time>
      </trkpt>
      <trkpt lat="46.34439" lon="6.67979">
        <ele>1445.9109</ele>
        <time>2014-08-27T11:20:07Z</time>
      </trkpt>
      <trkpt lat="46.34438" lon="6.67983">
        <ele>1445.9109</ele>
        <time>2014-08-27T11:20:12Z</time>
      </trkpt>
      <trkpt lat="46.34436" lon="6.67987">
        <ele>1447.3185</ele>
        <time>2014-08-27T11:20:17Z</time>
      </trkpt>
      <trkpt lat="46.34436" lon="6.67988">
        <ele>1447.3185</ele>
        <time>2014-08-27T11:20:22Z</time>
      </trkpt>
      <trkpt lat="46.34437" lon="6.67988">
        <ele>1447.3185</ele>
        <time>2014-08-27T11:20:27Z</time>
      </trkpt>
      <trkpt lat="46.34438" lon="6.67989">
        <ele>1447.3185</ele>
        <time>2014-08-27T11:20:32Z</time>
      </trkpt>
      <trkpt lat="46.3444" lon="6.6799">
        <ele>1447.3185</ele>
        <time>2014-08-27T11:20:37Z</time>
      </trkpt>
      <trkpt lat="46.3444" lon="6.67992">
        <ele>1447.3185</ele>
        <time>2014-08-27T11:20:42Z</time>
      </trkpt>
      <trkpt lat="46.34441" lon="6.67993">
        <ele>1447.3185</ele>
        <time>2014-08-27T11:20:47Z</time>
      </trkpt>
      <trkpt lat="46.34441" lon="6.67994">
        <ele>1447.3185</ele>
        <time>2014-08-27T11:20:52Z</time>
      </trkpt>
      <trkpt lat="46.34441" lon="6.67994">
        <ele>1447.3185</ele>
        <time>2014-08-27T11:20:57Z</time>
      </trkpt>
      <trkpt lat="46.34442" lon="6.67994">
        <ele>1449.0895</ele>
        <time>2014-08-27T11:21:02Z</time>
      </trkpt>
      <trkpt lat="46.34444" lon="6.67994">
        <ele>1449.0895</ele>
        <time>2014-08-27T11:21:07Z</time>
      </trkpt>
      <trkpt lat="46.34444" lon="6.67994">
        <ele>1449.0895</ele>
        <time>2014-08-27T11:21:12Z</time>
      </trkpt>
      <trkpt lat="46.34445" lon="6.67999">
        <ele>1449.0895</ele>
        <time>2014-08-27T11:21:17Z</time>
      </trkpt>
      <trkpt lat="46.34444" lon="6.68001">
        <ele>1449.0895</ele>
        <time>2014-08-27T11:21:22Z</time>
      </trkpt>
      <trkpt lat="46.34441" lon="6.68004">
        <ele>1451.9424</ele>
        <time>2014-08-27T11:21:27Z</time>
      </trkpt>
      <trkpt lat="46.34437" lon="6.6801">
        <ele>1451.9424</ele>
        <time>2014-08-27T11:21:32Z</time>
      </trkpt>
      <trkpt lat="46.34434" lon="6.68016">
        <ele>1455.0406</ele>
        <time>2014-08-27T11:21:37Z</time>
      </trkpt>
      <trkpt lat="46.34432" lon="6.68023">
        <ele>1455.0406</ele>
        <time>2014-08-27T11:21:42Z</time>
      </trkpt>
      <trkpt lat="46.34431" lon="6.68027">
        <ele>1455.0406</ele>
        <time>2014-08-27T11:21:47Z</time>
      </trkpt>
      <trkpt lat="46.34429" lon="6.68032">
        <ele>1458.4304</ele>
        <time>2014-08-27T11:21:52Z</time>
      </trkpt>
      <trkpt lat="46.34426" lon="6.68038">
        <ele>1458.4304</ele>
        <time>2014-08-27T11:21:57Z</time>
      </trkpt>
      <trkpt lat="46.34423" lon="6.68043">
        <ele>1461.8796</ele>
        <time>2014-08-27T11:22:02Z</time>
      </trkpt>
      <trkpt lat="46.34418" lon="6.68045">
        <ele>1461.8796</ele>
        <time>2014-08-27T11:22:07Z</time>
      </trkpt>
      <trkpt lat="46.34415" lon="6.68052">
        <ele>1465.4614</ele>
        <time>2014-08-27T11:22:12Z</time>
      </trkpt>
      <trkpt lat="46.34414" lon="6.68053">
        <ele>1465.4614</ele>
        <time>2014-08-27T11:22:17Z</time>
      </trkpt>
      <trkpt lat="46.34411" lon="6.68057">
        <ele>1465.4614</ele>
        <time>2014-08-27T11:22:22Z</time>
      </trkpt>
      <trkpt lat="46.34409" lon="6.68063">
        <ele>1469.1279</ele>
        <time>2014-08-27T11:22:27Z</time>
      </trkpt>
      <trkpt lat="46.34407" lon="6.68068">
        <ele>1469.1279</ele>
        <time>2014-08-27T11:22:32Z</time>
      </trkpt>
      <trkpt lat="46.34405" lon="6.68076">
        <ele>1472.6187</ele>
        <time>2014-08-27T11:22:37Z</time>
      </trkpt>
      <trkpt lat="46.34405" lon="6.68082">
        <ele>1472.6187</ele>
        <time>2014-08-27T11:22:42Z</time>
      </trkpt>
      <trkpt lat="46.34403" lon="6.68088">
        <ele>1472.6187</ele>
        <time>2014-08-27T11:22:47Z</time>
      </trkpt>
      <trkpt lat="46.34401" lon="6.68093">
        <ele>1476.1827</ele>
        <time>2014-08-27T11:22:52Z</time>
      </trkpt>
      <trkpt lat="46.34401" lon="6.68096">
        <ele>1476.1827</ele>
        <time>2014-08-27T11:22:57Z</time>
      </trkpt>
      <trkpt lat="46.34401" lon="6.68106">
        <ele>1479.8635</ele>
        <time>2014-08-27T11:23:02Z</time>
      </trkpt>
      <trkpt lat="46.34399" lon="6.68114">
        <ele>1479.8635</ele>
        <time>2014-08-27T11:23:07Z</time>
      </trkpt>
      <trkpt lat="46.34398" lon="6.68117">
        <ele>1479.8635</ele>
        <time>2014-08-27T11:23:12Z</time>
      </trkpt>
      <trkpt lat="46.34397" lon="6.68122">
        <ele>1483.8453</ele>
        <time>2014-08-27T11:23:17Z</time>
      </trkpt>
      <trkpt lat="46.34396" lon="6.68129">
        <ele>1483.8453</ele>
        <time>2014-08-27T11:23:22Z</time>
      </trkpt>
      <trkpt lat="46.34394" lon="6.68132">
        <ele>1483.8453</ele>
        <time>2014-08-27T11:23:27Z</time>
      </trkpt>
      <trkpt lat="46.34394" lon="6.68133">
        <ele>1483.8453</ele>
        <time>2014-08-27T11:23:32Z</time>
      </trkpt>
      <trkpt lat="46.34394" lon="6.68133">
        <ele>1483.8453</ele>
        <time>2014-08-27T11:23:37Z</time>
      </trkpt>
      <trkpt lat="46.34394" lon="6.68138">
        <ele>1488.1395</ele>
        <time>2014-08-27T11:23:42Z</time>
      </trkpt>
      <trkpt lat="46.34394" lon="6.6814">
        <ele>1488.1395</ele>
        <time>2014-08-27T11:23:47Z</time>
      </trkpt>
      <trkpt lat="46.34395" lon="6.68149">
        <ele>1488.1395</ele>
        <time>2014-08-27T11:23:52Z</time>
      </trkpt>
      <trkpt lat="46.34395" lon="6.68155">
        <ele>1492.2373</ele>
        <time>2014-08-27T11:23:57Z</time>
      </trkpt>
      <trkpt lat="46.34397" lon="6.68159">
        <ele>1492.2373</ele>
        <time>2014-08-27T11:24:02Z</time>
      </trkpt>
      <trkpt lat="46.34399" lon="6.68163">
        <ele>1492.2373</ele>
        <time>2014-08-27T11:24:07Z</time>
      </trkpt>
      <trkpt lat="46.34399" lon="6.68165">
        <ele>1492.2373</ele>
        <time>2014-08-27T11:24:12Z</time>
      </trkpt>
      <trkpt lat="46.344" lon="6.68169">
        <ele>1496.0859</ele>
        <time>2014-08-27T11:24:17Z</time>
      </trkpt>
      <trkpt lat="46.344" lon="6.68171">
        <ele>1496.0859</ele>
        <time>2014-08-27T11:24:22Z</time>
      </trkpt>
      <trkpt lat="46.34401" lon="6.68175">
        <ele>1496.0859</ele>
        <time>2014-08-27T11:24:27Z</time>
      </trkpt>
      <trkpt lat="46.34401" lon="6.68175">
        <ele>1496.0859</ele>
        <time>2014-08-27T11:24:32Z</time>
      </trkpt>
      <trkpt lat="46.34404" lon="6.6818">
        <ele>1499.8967</ele>
        <time>2014-08-27T11:24:37Z</time>
      </trkpt>
      <trkpt lat="46.34407" lon="6.68188">
        <ele>1499.8967</ele>
        <time>2014-08-27T11:24:42Z</time>
      </trkpt>
      <trkpt lat="46.34409" lon="6.68191">
        <ele>1503.549</ele>
        <time>2014-08-27T11:24:47Z</time>
      </trkpt>
      <trkpt lat="46.3441" lon="6.68192">
        <ele>1503.549</ele>
        <time>2014-08-27T11:24:52Z</time>
      </trkpt>
      <trkpt lat="46.34411" lon="6.68197">
        <ele>1503.549</ele>
        <time>2014-08-27T11:24:57Z</time>
      </trkpt>
      <trkpt lat="46.34411" lon="6.68201">
        <ele>1503.549</ele>
        <time>2014-08-27T11:25:02Z</time>
      </trkpt>
      <trkpt lat="46.34411" lon="6.68203">
        <ele>1503.549</ele>
        <time>2014-08-27T11:25:07Z</time>
      </trkpt>
      <trkpt lat="46.34411" lon="6.68204">
        <ele>1507.0177</ele>
        <time>2014-08-27T11:25:12Z</time>
      </trkpt>
      <trkpt lat="46.34409" lon="6.68209">
        <ele>1507.0177</ele>
        <time>2014-08-27T11:25:17Z</time>
      </trkpt>
      <trkpt lat="46.34409" lon="6.68211">
        <ele>1507.0177</ele>
        <time>2014-08-27T11:25:22Z</time>
      </trkpt>
      <trkpt lat="46.34408" lon="6.68214">
        <ele>1507.0177</ele>
        <time>2014-08-27T11:25:27Z</time>
      </trkpt>
      <trkpt lat="46.34408" lon="6.68215">
        <ele>1507.0177</ele>
        <time>2014-08-27T11:25:32Z</time>
      </trkpt>
      <trkpt lat="46.34408" lon="6.6822">
        <ele>1510.1222</ele>
        <time>2014-08-27T11:25:37Z</time>
      </trkpt>
      <trkpt lat="46.34408" lon="6.68226">
        <ele>1510.1222</ele>
        <time>2014-08-27T11:25:42Z</time>
      </trkpt>
      <trkpt lat="46.34409" lon="6.68226">
        <ele>1510.1222</ele>
        <time>2014-08-27T11:25:47Z</time>
      </trkpt>
      <trkpt lat="46.34411" lon="6.68226">
        <ele>1510.1222</ele>
        <time>2014-08-27T11:25:52Z</time>
      </trkpt>
      <trkpt lat="46.34412" lon="6.68225">
        <ele>1510.1222</ele>
        <time>2014-08-27T11:25:57Z</time>
      </trkpt>
      <trkpt lat="46.34412" lon="6.68226">
        <ele>1510.1222</ele>
        <time>2014-08-27T11:26:02Z</time>
      </trkpt>
      <trkpt lat="46.34412" lon="6.68226">
        <ele>1510.1222</ele>
        <time>2014-08-27T11:26:07Z</time>
      </trkpt>
      <trkpt lat="46.34411" lon="6.68232">
        <ele>1513.0421</ele>
        <time>2014-08-27T11:26:12Z</time>
      </trkpt>
      <trkpt lat="46.34413" lon="6.68233">
        <ele>1513.0421</ele>
        <time>2014-08-27T11:26:17Z</time>
      </trkpt>
      <trkpt lat="46.34413" lon="6.68233">
        <ele>1513.0421</ele>
        <time>2014-08-27T11:26:22Z</time>
      </trkpt>
      <trkpt lat="46.34413" lon="6.68237">
        <ele>1513.0421</ele>
        <time>2014-08-27T11:26:47Z</time>
      </trkpt>
      <trkpt lat="46.34413" lon="6.68245">
        <ele>1515.8872</ele>
        <time>2014-08-27T11:26:52Z</time>
      </trkpt>
      <trkpt lat="46.34413" lon="6.68248">
        <ele>1515.8872</ele>
        <time>2014-08-27T11:26:57Z</time>
      </trkpt>
      <trkpt lat="46.34411" lon="6.68251">
        <ele>1515.8872</ele>
        <time>2014-08-27T11:27:02Z</time>
      </trkpt>
      <trkpt lat="46.34408" lon="6.68259">
        <ele>1518.4998</ele>
        <time>2014-08-27T11:27:07Z</time>
      </trkpt>
      <trkpt lat="46.34404" lon="6.68263">
        <ele>1518.4998</ele>
        <time>2014-08-27T11:27:12Z</time>
      </trkpt>
      <trkpt lat="46.34401" lon="6.68267">
        <ele>1520.9368</ele>
        <time>2014-08-27T11:27:17Z</time>
      </trkpt>
      <trkpt lat="46.34398" lon="6.68272">
        <ele>1520.9368</ele>
        <time>2014-08-27T11:27:22Z</time>
      </trkpt>
      <trkpt lat="46.34398" lon="6.68273">
        <ele>1520.9368</ele>
        <time>2014-08-27T11:27:27Z</time>
      </trkpt>
      <trkpt lat="46.34398" lon="6.68273">
        <ele>1520.9368</ele>
        <time>2014-08-27T11:27:32Z</time>
      </trkpt>
      <trkpt lat="46.34398" lon="6.68271">
        <ele>1520.9368</ele>
        <time>2014-08-27T11:27:37Z</time>
      </trkpt>
      <trkpt lat="46.34397" lon="6.68269">
        <ele>1520.9368</ele>
        <time>2014-08-27T11:27:42Z</time>
      </trkpt>
      <trkpt lat="46.34397" lon="6.68268">
        <ele>1523.2516</ele>
        <time>2014-08-27T11:27:47Z</time>
      </trkpt>
      <trkpt lat="46.34398" lon="6.68267">
        <ele>1523.2516</ele>
        <time>2014-08-27T11:27:52Z</time>
      </trkpt>
      <trkpt lat="46.34398" lon="6.68267">
        <ele>1523.2516</ele>
        <time>2014-08-27T11:27:57Z</time>
      </trkpt>
      <trkpt lat="46.34399" lon="6.68267">
        <ele>1523.2516</ele>
        <time>2014-08-27T11:28:02Z</time>
      </trkpt>
      <trkpt lat="46.34399" lon="6.68268">
        <ele>1523.2516</ele>
        <time>2014-08-27T11:28:07Z</time>
      </trkpt>
      <trkpt lat="46.34399" lon="6.68267">
        <ele>1523.2516</ele>
        <time>2014-08-27T11:28:12Z</time>
      </trkpt>
      <trkpt lat="46.34398" lon="6.68267">
        <ele>1523.2516</ele>
        <time>2014-08-27T11:28:17Z</time>
      </trkpt>
      <trkpt lat="46.34398" lon="6.68266">
        <ele>1523.2516</ele>
        <time>2014-08-27T11:28:22Z</time>
      </trkpt>
      <trkpt lat="46.34399" lon="6.68264">
        <ele>1523.2516</ele>
        <time>2014-08-27T11:28:27Z</time>
      </trkpt>
      <trkpt lat="46.344" lon="6.68264">
        <ele>1523.2516</ele>
        <time>2014-08-27T11:28:32Z</time>
      </trkpt>
      <trkpt lat="46.344" lon="6.68263">
        <ele>1523.2516</ele>
        <time>2014-08-27T11:28:37Z</time>
      </trkpt>
      <trkpt lat="46.34399" lon="6.68261">
        <ele>1523.2516</ele>
        <time>2014-08-27T11:28:42Z</time>
      </trkpt>
      <trkpt lat="46.34398" lon="6.6826">
        <ele>1525.4507</ele>
        <time>2014-08-27T11:28:47Z</time>
      </trkpt>
      <trkpt lat="46.34398" lon="6.6826">
        <ele>1525.4507</ele>
        <time>2014-08-27T11:28:52Z</time>
      </trkpt>
      <trkpt lat="46.34398" lon="6.6826">
        <ele>1525.4507</ele>
        <time>2014-08-27T11:28:57Z</time>
      </trkpt>
      <trkpt lat="46.34398" lon="6.68262">
        <ele>1525.4507</ele>
        <time>2014-08-27T11:29:02Z</time>
      </trkpt>
      <trkpt lat="46.34399" lon="6.68266">
        <ele>1525.4507</ele>
        <time>2014-08-27T11:29:07Z</time>
      </trkpt>
      <trkpt lat="46.34399" lon="6.68271">
        <ele>1525.4507</ele>
        <time>2014-08-27T11:29:12Z</time>
      </trkpt>
      <trkpt lat="46.34399" lon="6.68273">
        <ele>1527.3105</ele>
        <time>2014-08-27T11:29:17Z</time>
      </trkpt>
      <trkpt lat="46.34399" lon="6.68273">
        <ele>1527.3105</ele>
        <time>2014-08-27T11:29:22Z</time>
      </trkpt>
      <trkpt lat="46.34399" lon="6.68275">
        <ele>1527.3105</ele>
        <time>2014-08-27T11:29:27Z</time>
      </trkpt>
      <trkpt lat="46.34397" lon="6.68274">
        <ele>1527.3105</ele>
        <time>2014-08-27T11:29:32Z</time>
      </trkpt>
      <trkpt lat="46.34397" lon="6.68273">
        <ele>1527.3105</ele>
        <time>2014-08-27T11:29:37Z</time>
      </trkpt>
      <trkpt lat="46.34397" lon="6.68271">
        <ele>1527.3105</ele>
        <time>2014-08-27T11:29:42Z</time>
      </trkpt>
      <trkpt lat="46.34397" lon="6.68272">
        <ele>1527.3105</ele>
        <time>2014-08-27T11:29:47Z</time>
      </trkpt>
      <trkpt lat="46.34398" lon="6.68271">
        <ele>1527.3105</ele>
        <time>2014-08-27T11:29:52Z</time>
      </trkpt>
      <trkpt lat="46.34398" lon="6.68269">
        <ele>1527.3105</ele>
        <time>2014-08-27T11:29:57Z</time>
      </trkpt>
      <trkpt lat="46.34398" lon="6.68268">
        <ele>1527.3105</ele>
        <time>2014-08-27T11:30:02Z</time>
      </trkpt>
      <trkpt lat="46.34398" lon="6.68267">
        <ele>1527.3105</ele>
        <time>2014-08-27T11:30:07Z</time>
      </trkpt>
      <trkpt lat="46.34399" lon="6.68266">
        <ele>1529.1868</ele>
        <time>2014-08-27T11:30:12Z</time>
      </trkpt>
      <trkpt lat="46.344" lon="6.68265">
        <ele>1529.1868</ele>
        <time>2014-08-27T11:30:17Z</time>
      </trkpt>
      <trkpt lat="46.34402" lon="6.68264">
        <ele>1529.1868</ele>
        <time>2014-08-27T11:30:22Z</time>
      </trkpt>
      <trkpt lat="46.34401" lon="6.68267">
        <ele>1529.1868</ele>
        <time>2014-08-27T11:30:27Z</time>
      </trkpt>
      <trkpt lat="46.344" lon="6.68273">
        <ele>1530.6744</ele>
        <time>2014-08-27T11:30:32Z</time>
      </trkpt>
      <trkpt lat="46.34397" lon="6.68286">
        <ele>1531.8892</ele>
        <time>2014-08-27T11:30:37Z</time>
      </trkpt>
      <trkpt lat="46.34394" lon="6.68293">
        <ele>1531.8892</ele>
        <time>2014-08-27T11:30:42Z</time>
      </trkpt>
      <trkpt lat="46.34392" lon="6.68301">
        <ele>1532.8529</ele>
        <time>2014-08-27T11:30:47Z</time>
      </trkpt>
      <trkpt lat="46.34391" lon="6.68312">
        <ele>1532.8529</ele>
        <time>2014-08-27T11:30:52Z</time>
      </trkpt>
      <trkpt lat="46.3439" lon="6.6832">
        <ele>1533.6443</ele>
        <time>2014-08-27T11:30:57Z</time>
      </trkpt>
      <trkpt lat="46.34388" lon="6.68324">
        <ele>1533.6443</ele>
        <time>2014-08-27T11:31:02Z</time>
      </trkpt>
      <trkpt lat="46.34387" lon="6.68328">
        <ele>1533.6443</ele>
        <time>2014-08-27T11:31:07Z</time>
      </trkpt>
      <trkpt lat="46.34386" lon="6.68332">
        <ele>1534.2358</ele>
        <time>2014-08-27T11:31:12Z</time>
      </trkpt>
      <trkpt lat="46.34382" lon="6.68334">
        <ele>1534.2358</ele>
        <time>2014-08-27T11:31:17Z</time>
      </trkpt>
      <trkpt lat="46.34377" lon="6.68337">
        <ele>1534.4878</ele>
        <time>2014-08-27T11:31:22Z</time>
      </trkpt>
      <trkpt lat="46.34373" lon="6.68342">
        <ele>1534.4878</ele>
        <time>2014-08-27T11:31:27Z</time>
      </trkpt>
      <trkpt lat="46.34372" lon="6.68346">
        <ele>1534.4878</ele>
        <time>2014-08-27T11:31:32Z</time>
      </trkpt>
      <trkpt lat="46.34372" lon="6.6835">
        <ele>1534.3867</ele>
        <time>2014-08-27T11:31:37Z</time>
      </trkpt>
      <trkpt lat="46.3437" lon="6.68354">
        <ele>1534.3867</ele>
        <time>2014-08-27T11:31:42Z</time>
      </trkpt>
      <trkpt lat="46.3437" lon="6.6836">
        <ele>1534.3867</ele>
        <time>2014-08-27T11:31:47Z</time>
      </trkpt>
      <trkpt lat="46.3437" lon="6.68368">
        <ele>1533.9642</ele>
        <time>2014-08-27T11:31:52Z</time>
      </trkpt>
      <trkpt lat="46.34368" lon="6.68374">
        <ele>1533.9642</ele>
        <time>2014-08-27T11:31:57Z</time>
      </trkpt>
      <trkpt lat="46.34366" lon="6.68379">
        <ele>1533.9642</ele>
        <time>2014-08-27T11:32:02Z</time>
      </trkpt>
      <trkpt lat="46.34366" lon="6.68386">
        <ele>1533.0638</ele>
        <time>2014-08-27T11:32:07Z</time>
      </trkpt>
      <trkpt lat="46.34366" lon="6.68387">
        <ele>1533.0638</ele>
        <time>2014-08-27T11:32:12Z</time>
      </trkpt>
      <trkpt lat="46.34366" lon="6.68393">
        <ele>1533.0638</ele>
        <time>2014-08-27T11:32:17Z</time>
      </trkpt>
      <trkpt lat="46.34365" lon="6.68397">
        <ele>1533.0638</ele>
        <time>2014-08-27T11:32:22Z</time>
      </trkpt>
      <trkpt lat="46.34363" lon="6.684">
        <ele>1532.2906</ele>
        <time>2014-08-27T11:32:27Z</time>
      </trkpt>
      <trkpt lat="46.34362" lon="6.68407">
        <ele>1532.2906</ele>
        <time>2014-08-27T11:32:32Z</time>
      </trkpt>
      <trkpt lat="46.34362" lon="6.68412">
        <ele>1532.2906</ele>
        <time>2014-08-27T11:32:37Z</time>
      </trkpt>
      <trkpt lat="46.34362" lon="6.68418">
        <ele>1531.4127</ele>
        <time>2014-08-27T11:32:42Z</time>
      </trkpt>
      <trkpt lat="46.34366" lon="6.68427">
        <ele>1531.4127</ele>
        <time>2014-08-27T11:32:47Z</time>
      </trkpt>
      <trkpt lat="46.34366" lon="6.68427">
        <ele>1531.4127</ele>
        <time>2014-08-27T11:32:52Z</time>
      </trkpt>
      <trkpt lat="46.34364" lon="6.68429">
        <ele>1530.2441</ele>
        <time>2014-08-27T11:32:57Z</time>
      </trkpt>
      <trkpt lat="46.34361" lon="6.68433">
        <ele>1530.2441</ele>
        <time>2014-08-27T11:33:02Z</time>
      </trkpt>
      <trkpt lat="46.34358" lon="6.68439">
        <ele>1528.9159</ele>
        <time>2014-08-27T11:33:07Z</time>
      </trkpt>
      <trkpt lat="46.34356" lon="6.6845">
        <ele>1528.9159</ele>
        <time>2014-08-27T11:33:12Z</time>
      </trkpt>
      <trkpt lat="46.34355" lon="6.68457">
        <ele>1527.4636</ele>
        <time>2014-08-27T11:33:17Z</time>
      </trkpt>
      <trkpt lat="46.34354" lon="6.68462">
        <ele>1527.4636</ele>
        <time>2014-08-27T11:33:22Z</time>
      </trkpt>
      <trkpt lat="46.34355" lon="6.68466">
        <ele>1527.4636</ele>
        <time>2014-08-27T11:33:27Z</time>
      </trkpt>
      <trkpt lat="46.34354" lon="6.6847">
        <ele>1525.7472</ele>
        <time>2014-08-27T11:33:32Z</time>
      </trkpt>
      <trkpt lat="46.34355" lon="6.68482">
        <ele>1525.7472</ele>
        <time>2014-08-27T11:33:37Z</time>
      </trkpt>
      <trkpt lat="46.34356" lon="6.68489">
        <ele>1523.9115</ele>
        <time>2014-08-27T11:33:42Z</time>
      </trkpt>
      <trkpt lat="46.34357" lon="6.68493">
        <ele>1523.9115</ele>
        <time>2014-08-27T11:33:47Z</time>
      </trkpt>
      <trkpt lat="46.34356" lon="6.685">
        <ele>1523.9115</ele>
        <time>2014-08-27T11:33:52Z</time>
      </trkpt>
      <trkpt lat="46.34357" lon="6.68506">
        <ele>1521.9612</ele>
        <time>2014-08-27T11:33:57Z</time>
      </trkpt>
      <trkpt lat="46.34357" lon="6.68513">
        <ele>1521.9612</ele>
        <time>2014-08-27T11:34:02Z</time>
      </trkpt>
      <trkpt lat="46.34359" lon="6.68517">
        <ele>1521.9612</ele>
        <time>2014-08-27T11:34:07Z</time>
      </trkpt>
      <trkpt lat="46.3436" lon="6.68521">
        <ele>1519.8142</ele>
        <time>2014-08-27T11:34:12Z</time>
      </trkpt>
      <trkpt lat="46.3436" lon="6.68521">
        <ele>1519.8142</ele>
        <time>2014-08-27T11:34:17Z</time>
      </trkpt>
      <trkpt lat="46.3436" lon="6.68522">
        <ele>1519.8142</ele>
        <time>2014-08-27T11:34:37Z</time>
      </trkpt>
      <trkpt lat="46.3436" lon="6.68523">
        <ele>1519.8142</ele>
        <time>2014-08-27T11:34:42Z</time>
      </trkpt>
      <trkpt lat="46.34359" lon="6.68526">
        <ele>1519.8142</ele>
        <time>2014-08-27T11:34:47Z</time>
      </trkpt>
      <trkpt lat="46.34356" lon="6.68533">
        <ele>1519.8142</ele>
        <time>2014-08-27T11:34:52Z</time>
      </trkpt>
      <trkpt lat="46.34356" lon="6.68539">
        <ele>1516.9629</ele>
        <time>2014-08-27T11:34:57Z</time>
      </trkpt>
      <trkpt lat="46.34356" lon="6.6854">
        <ele>1516.9629</ele>
        <time>2014-08-27T11:35:02Z</time>
      </trkpt>
      <trkpt lat="46.34354" lon="6.68546">
        <ele>1516.9629</ele>
        <time>2014-08-27T11:35:07Z</time>
      </trkpt>
      <trkpt lat="46.34355" lon="6.68552">
        <ele>1513.8315</ele>
        <time>2014-08-27T11:35:12Z</time>
      </trkpt>
      <trkpt lat="46.34355" lon="6.68554">
        <ele>1513.8315</ele>
        <time>2014-08-27T11:35:17Z</time>
      </trkpt>
      <trkpt lat="46.34355" lon="6.68554">
        <ele>1513.8315</ele>
        <time>2014-08-27T11:35:22Z</time>
      </trkpt>
      <trkpt lat="46.34355" lon="6.68554">
        <ele>1513.8315</ele>
        <time>2014-08-27T11:35:27Z</time>
      </trkpt>
      <trkpt lat="46.34355" lon="6.68554">
        <ele>1513.8315</ele>
        <time>2014-08-27T11:35:32Z</time>
      </trkpt>
      <trkpt lat="46.34355" lon="6.68557">
        <ele>1513.8315</ele>
        <time>2014-08-27T11:35:42Z</time>
      </trkpt>
      <trkpt lat="46.34354" lon="6.68561">
        <ele>1513.8315</ele>
        <time>2014-08-27T11:35:47Z</time>
      </trkpt>
      <trkpt lat="46.34354" lon="6.68561">
        <ele>1513.8315</ele>
        <time>2014-08-27T11:35:52Z</time>
      </trkpt>
      <trkpt lat="46.34354" lon="6.68564">
        <ele>1513.8315</ele>
        <time>2014-08-27T11:35:57Z</time>
      </trkpt>
      <trkpt lat="46.34354" lon="6.68564">
        <ele>1513.8315</ele>
        <time>2014-08-27T11:36:02Z</time>
      </trkpt>
      <trkpt lat="46.34356" lon="6.68574">
        <ele>1509.8489</ele>
        <time>2014-08-27T11:36:07Z</time>
      </trkpt>
      <trkpt lat="46.34356" lon="6.68578">
        <ele>1509.8489</ele>
        <time>2014-08-27T11:36:12Z</time>
      </trkpt>
      <trkpt lat="46.34356" lon="6.68578">
        <ele>1509.8489</ele>
        <time>2014-08-27T11:36:17Z</time>
      </trkpt>
      <trkpt lat="46.34355" lon="6.68584">
        <ele>1509.8489</ele>
        <time>2014-08-27T11:36:22Z</time>
      </trkpt>
      <trkpt lat="46.34354" lon="6.6859">
        <ele>1506.2167</ele>
        <time>2014-08-27T11:36:27Z</time>
      </trkpt>
      <trkpt lat="46.34353" lon="6.68604">
        <ele>1502.9376</ele>
        <time>2014-08-27T11:36:32Z</time>
      </trkpt>
      <trkpt lat="46.34352" lon="6.68616">
        <ele>1502.9376</ele>
        <time>2014-08-27T11:36:37Z</time>
      </trkpt>
      <trkpt lat="46.3435" lon="6.68622">
        <ele>1499.7104</ele>
        <time>2014-08-27T11:36:42Z</time>
      </trkpt>
      <trkpt lat="46.34349" lon="6.68632">
        <ele>1499.7104</ele>
        <time>2014-08-27T11:36:47Z</time>
      </trkpt>
      <trkpt lat="46.34349" lon="6.68638">
        <ele>1496.3563</ele>
        <time>2014-08-27T11:36:52Z</time>
      </trkpt>
      <trkpt lat="46.34348" lon="6.68642">
        <ele>1496.3563</ele>
        <time>2014-08-27T11:36:57Z</time>
      </trkpt>
      <trkpt lat="46.34348" lon="6.68645">
        <ele>1496.3563</ele>
        <time>2014-08-27T11:37:02Z</time>
      </trkpt>
      <trkpt lat="46.34347" lon="6.68646">
        <ele>1496.3563</ele>
        <time>2014-08-27T11:37:07Z</time>
      </trkpt>
      <trkpt lat="46.34347" lon="6.68647">
        <ele>1496.3563</ele>
        <time>2014-08-27T11:37:12Z</time>
      </trkpt>
      <trkpt lat="46.34348" lon="6.6865">
        <ele>1496.3563</ele>
        <time>2014-08-27T11:37:17Z</time>
      </trkpt>
      <trkpt lat="46.34348" lon="6.68653">
        <ele>1492.4211</ele>
        <time>2014-08-27T11:37:22Z</time>
      </trkpt>
      <trkpt lat="46.34347" lon="6.68657">
        <ele>1492.4211</ele>
        <time>2014-08-27T11:37:27Z</time>
      </trkpt>
      <trkpt lat="46.34346" lon="6.68661">
        <ele>1492.4211</ele>
        <time>2014-08-27T11:37:32Z</time>
      </trkpt>
      <trkpt lat="46.34345" lon="6.68665">
        <ele>1488.1344</ele>
        <time>2014-08-27T11:37:37Z</time>
      </trkpt>
      <trkpt lat="46.34344" lon="6.68673">
        <ele>1488.1344</ele>
        <time>2014-08-27T11:37:42Z</time>
      </trkpt>
      <trkpt lat="46.34345" lon="6.68679">
        <ele>1483.9828</ele>
        <time>2014-08-27T11:37:47Z</time>
      </trkpt>
      <trkpt lat="46.34346" lon="6.68685">
        <ele>1483.9828</ele>
        <time>2014-08-27T11:37:52Z</time>
      </trkpt>
      <trkpt lat="46.34346" lon="6.6869">
        <ele>1483.9828</ele>
        <time>2014-08-27T11:37:57Z</time>
      </trkpt>
      <trkpt lat="46.34346" lon="6.68696">
        <ele>1479.8691</ele>
        <time>2014-08-27T11:38:02Z</time>
      </trkpt>
      <trkpt lat="46.34347" lon="6.68701">
        <ele>1479.8691</ele>
        <time>2014-08-27T11:38:07Z</time>
      </trkpt>
      <trkpt lat="46.34348" lon="6.68708">
        <ele>1479.8691</ele>
        <time>2014-08-27T11:38:12Z</time>
      </trkpt>
      <trkpt lat="46.34347" lon="6.68711">
        <ele>1475.5873</ele>
        <time>2014-08-27T11:38:17Z</time>
      </trkpt>
      <trkpt lat="46.34349" lon="6.68715">
        <ele>1475.5873</ele>
        <time>2014-08-27T11:38:22Z</time>
      </trkpt>
      <trkpt lat="46.34349" lon="6.68717">
        <ele>1475.5873</ele>
        <time>2014-08-27T11:38:27Z</time>
      </trkpt>
      <trkpt lat="46.34348" lon="6.68722">
        <ele>1475.5873</ele>
        <time>2014-08-27T11:38:32Z</time>
      </trkpt>
      <trkpt lat="46.34348" lon="6.68726">
        <ele>1471.091</ele>
        <time>2014-08-27T11:38:37Z</time>
      </trkpt>
      <trkpt lat="46.34347" lon="6.68731">
        <ele>1471.091</ele>
        <time>2014-08-27T11:38:42Z</time>
      </trkpt>
      <trkpt lat="46.34349" lon="6.68732">
        <ele>1471.091</ele>
        <time>2014-08-27T11:38:47Z</time>
      </trkpt>
      <trkpt lat="46.34349" lon="6.68731">
        <ele>1471.091</ele>
        <time>2014-08-27T11:38:52Z</time>
      </trkpt>
      <trkpt lat="46.34349" lon="6.68731">
        <ele>1471.091</ele>
        <time>2014-08-27T11:38:57Z</time>
      </trkpt>
      <trkpt lat="46.34349" lon="6.68731">
        <ele>1471.091</ele>
        <time>2014-08-27T11:39:02Z</time>
      </trkpt>
      <trkpt lat="46.34349" lon="6.68733">
        <ele>1471.091</ele>
        <time>2014-08-27T11:39:07Z</time>
      </trkpt>
      <trkpt lat="46.34349" lon="6.68734">
        <ele>1471.091</ele>
        <time>2014-08-27T11:39:12Z</time>
      </trkpt>
      <trkpt lat="46.34349" lon="6.68737">
        <ele>1466.6971</ele>
        <time>2014-08-27T11:39:17Z</time>
      </trkpt>
      <trkpt lat="46.34349" lon="6.68737">
        <ele>1466.6971</ele>
        <time>2014-08-27T11:39:22Z</time>
      </trkpt>
      <trkpt lat="46.34348" lon="6.68737">
        <ele>1466.6971</ele>
        <time>2014-08-27T11:39:27Z</time>
      </trkpt>
      <trkpt lat="46.34349" lon="6.68737">
        <ele>1466.6971</ele>
        <time>2014-08-27T11:39:32Z</time>
      </trkpt>
      <trkpt lat="46.34349" lon="6.68739">
        <ele>1466.6971</ele>
        <time>2014-08-27T11:39:37Z</time>
      </trkpt>
      <trkpt lat="46.34349" lon="6.68744">
        <ele>1466.6971</ele>
        <time>2014-08-27T11:39:42Z</time>
      </trkpt>
      <trkpt lat="46.34348" lon="6.68754">
        <ele>1462.7281</ele>
        <time>2014-08-27T11:39:47Z</time>
      </trkpt>
      <trkpt lat="46.34348" lon="6.68763">
        <ele>1462.7281</ele>
        <time>2014-08-27T11:39:52Z</time>
      </trkpt>
      <trkpt lat="46.34347" lon="6.68771">
        <ele>1458.9187</ele>
        <time>2014-08-27T11:39:57Z</time>
      </trkpt>
      <trkpt lat="46.34348" lon="6.6878">
        <ele>1458.9187</ele>
        <time>2014-08-27T11:40:02Z</time>
      </trkpt>
      <trkpt lat="46.34349" lon="6.68787">
        <ele>1455.2961</ele>
        <time>2014-08-27T11:40:07Z</time>
      </trkpt>
      <trkpt lat="46.34351" lon="6.68796">
        <ele>1455.2961</ele>
        <time>2014-08-27T11:40:12Z</time>
      </trkpt>
      <trkpt lat="46.34353" lon="6.68803">
        <ele>1451.9423</ele>
        <time>2014-08-27T11:40:17Z</time>
      </trkpt>
      <trkpt lat="46.34355" lon="6.68808">
        <ele>1451.9423</ele>
        <time>2014-08-27T11:40:22Z</time>
      </trkpt>
      <trkpt lat="46.34355" lon="6.68813">
        <ele>1451.9423</ele>
        <time>2014-08-27T11:40:27Z</time>
      </trkpt>
      <trkpt lat="46.34354" lon="6.68817">
        <ele>1448.7013</ele>
        <time>2014-08-27T11:40:32Z</time>
      </trkpt>
      <trkpt lat="46.34355" lon="6.68822">
        <ele>1448.7013</ele>
        <time>2014-08-27T11:40:37Z</time>
      </trkpt>
      <trkpt lat="46.34355" lon="6.68829">
        <ele>1448.7013</ele>
        <time>2014-08-27T11:40:42Z</time>
      </trkpt>
      <trkpt lat="46.34353" lon="6.68835">
        <ele>1445.558</ele>
        <time>2014-08-27T11:40:47Z</time>
      </trkpt>
      <trkpt lat="46.34352" lon="6.68842">
        <ele>1445.558</ele>
        <time>2014-08-27T11:40:52Z</time>
      </trkpt>
      <trkpt lat="46.34351" lon="6.68847">
        <ele>1445.558</ele>
        <time>2014-08-27T11:40:57Z</time>
      </trkpt>
      <trkpt lat="46.34349" lon="6.68852">
        <ele>1442.425</ele>
        <time>2014-08-27T11:41:02Z</time>
      </trkpt>
      <trkpt lat="46.34346" lon="6.68856">
        <ele>1442.425</ele>
        <time>2014-08-27T11:41:07Z</time>
      </trkpt>
      <trkpt lat="46.34344" lon="6.68862">
        <ele>1442.425</ele>
        <time>2014-08-27T11:41:12Z</time>
      </trkpt>
      <trkpt lat="46.34344" lon="6.68863">
        <ele>1439.2505</ele>
        <time>2014-08-27T11:41:17Z</time>
      </trkpt>
      <trkpt lat="46.34345" lon="6.68864">
        <ele>1439.2505</ele>
        <time>2014-08-27T11:41:22Z</time>
      </trkpt>
      <trkpt lat="46.34345" lon="6.68866">
        <ele>1439.2505</ele>
        <time>2014-08-27T11:41:27Z</time>
      </trkpt>
      <trkpt lat="46.34346" lon="6.68869">
        <ele>1439.2505</ele>
        <time>2014-08-27T11:41:32Z</time>
      </trkpt>
      <trkpt lat="46.34346" lon="6.6887">
        <ele>1439.2505</ele>
        <time>2014-08-27T11:41:37Z</time>
      </trkpt>
      <trkpt lat="46.34347" lon="6.6887">
        <ele>1439.2505</ele>
        <time>2014-08-27T11:41:42Z</time>
      </trkpt>
      <trkpt lat="46.34347" lon="6.68869">
        <ele>1439.2505</ele>
        <time>2014-08-27T11:41:47Z</time>
      </trkpt>
      <trkpt lat="46.34346" lon="6.68873">
        <ele>1435.9713</ele>
        <time>2014-08-27T11:41:52Z</time>
      </trkpt>
      <trkpt lat="46.34346" lon="6.68878">
        <ele>1435.9713</ele>
        <time>2014-08-27T11:41:57Z</time>
      </trkpt>
      <trkpt lat="46.34344" lon="6.68881">
        <ele>1435.9713</ele>
        <time>2014-08-27T11:42:02Z</time>
      </trkpt>
      <trkpt lat="46.34342" lon="6.68884">
        <ele>1432.918</ele>
        <time>2014-08-27T11:42:07Z</time>
      </trkpt>
      <trkpt lat="46.34342" lon="6.68884">
        <ele>1432.918</ele>
        <time>2014-08-27T11:42:12Z</time>
      </trkpt>
      <trkpt lat="46.34339" lon="6.68892">
        <ele>1432.918</ele>
        <time>2014-08-27T11:43:32Z</time>
      </trkpt>
      <trkpt lat="46.34335" lon="6.68899">
        <ele>1430.3959</ele>
        <time>2014-08-27T11:43:37Z</time>
      </trkpt>
      <trkpt lat="46.34334" lon="6.68903">
        <ele>1430.3959</ele>
        <time>2014-08-27T11:43:42Z</time>
      </trkpt>
      <trkpt lat="46.34335" lon="6.68906">
        <ele>1430.3959</ele>
        <time>2014-08-27T11:43:47Z</time>
      </trkpt>
      <trkpt lat="46.34333" lon="6.6891">
        <ele>1430.3959</ele>
        <time>2014-08-27T11:43:52Z</time>
      </trkpt>
      <trkpt lat="46.34332" lon="6.68912">
        <ele>1428.3114</ele>
        <time>2014-08-27T11:43:57Z</time>
      </trkpt>
      <trkpt lat="46.34331" lon="6.68918">
        <ele>1428.3114</ele>
        <time>2014-08-27T11:44:02Z</time>
      </trkpt>
      <trkpt lat="46.34329" lon="6.68927">
        <ele>1426.634</ele>
        <time>2014-08-27T11:44:07Z</time>
      </trkpt>
      <trkpt lat="46.34328" lon="6.68933">
        <ele>1426.634</ele>
        <time>2014-08-27T11:44:12Z</time>
      </trkpt>
      <trkpt lat="46.34327" lon="6.68934">
        <ele>1426.634</ele>
        <time>2014-08-27T11:44:17Z</time>
      </trkpt>
      <trkpt lat="46.34326" lon="6.68938">
        <ele>1426.634</ele>
        <time>2014-08-27T11:44:22Z</time>
      </trkpt>
      <trkpt lat="46.34323" lon="6.68941">
        <ele>1425.5211</ele>
        <time>2014-08-27T11:44:27Z</time>
      </trkpt>
      <trkpt lat="46.34319" lon="6.68944">
        <ele>1425.5211</ele>
        <time>2014-08-27T11:44:32Z</time>
      </trkpt>
      <trkpt lat="46.34317" lon="6.68949">
        <ele>1425.5211</ele>
        <time>2014-08-27T11:44:37Z</time>
      </trkpt>
      <trkpt lat="46.34316" lon="6.68953">
        <ele>1425.0015</ele>
        <time>2014-08-27T11:44:42Z</time>
      </trkpt>
      <trkpt lat="46.34313" lon="6.68955">
        <ele>1425.0015</ele>
        <time>2014-08-27T11:44:47Z</time>
      </trkpt>
      <trkpt lat="46.34312" lon="6.68957">
        <ele>1425.0015</ele>
        <time>2014-08-27T11:44:52Z</time>
      </trkpt>
      <trkpt lat="46.34312" lon="6.68957">
        <ele>1425.0015</ele>
        <time>2014-08-27T11:44:57Z</time>
      </trkpt>
      <trkpt lat="46.34309" lon="6.68958">
        <ele>1425.0015</ele>
        <time>2014-08-27T11:45:07Z</time>
      </trkpt>
      <trkpt lat="46.34307" lon="6.6896">
        <ele>1424.9847</ele>
        <time>2014-08-27T11:45:12Z</time>
      </trkpt>
      <trkpt lat="46.34307" lon="6.68962">
        <ele>1424.9847</ele>
        <time>2014-08-27T11:45:17Z</time>
      </trkpt>
      <trkpt lat="46.34305" lon="6.68969">
        <ele>1424.9847</ele>
        <time>2014-08-27T11:45:22Z</time>
      </trkpt>
      <trkpt lat="46.34306" lon="6.6898">
        <ele>1425.3707</ele>
        <time>2014-08-27T11:45:27Z</time>
      </trkpt>
      <trkpt lat="46.34306" lon="6.68986">
        <ele>1425.3707</ele>
        <time>2014-08-27T11:45:32Z</time>
      </trkpt>
      <trkpt lat="46.34305" lon="6.68989">
        <ele>1425.3707</ele>
        <time>2014-08-27T11:45:37Z</time>
      </trkpt>
      <trkpt lat="46.34303" lon="6.68996">
        <ele>1426.282</ele>
        <time>2014-08-27T11:45:42Z</time>
      </trkpt>
      <trkpt lat="46.34302" lon="6.69001">
        <ele>1426.282</ele>
        <time>2014-08-27T11:45:47Z</time>
      </trkpt>
      <trkpt lat="46.343" lon="6.69009">
        <ele>1427.5273</ele>
        <time>2014-08-27T11:45:52Z</time>
      </trkpt>
      <trkpt lat="46.343" lon="6.69013">
        <ele>1427.5273</ele>
        <time>2014-08-27T11:45:57Z</time>
      </trkpt>
      <trkpt lat="46.34299" lon="6.69017">
        <ele>1427.5273</ele>
        <time>2014-08-27T11:46:02Z</time>
      </trkpt>
      <trkpt lat="46.34298" lon="6.69019">
        <ele>1427.5273</ele>
        <time>2014-08-27T11:46:07Z</time>
      </trkpt>
      <trkpt lat="46.34298" lon="6.69021">
        <ele>1429.3755</ele>
        <time>2014-08-27T11:46:12Z</time>
      </trkpt>
      <trkpt lat="46.34298" lon="6.69021">
        <ele>1429.3755</ele>
        <time>2014-08-27T11:46:17Z</time>
      </trkpt>
      <trkpt lat="46.34298" lon="6.69027">
        <ele>1429.3755</ele>
        <time>2014-08-27T11:46:22Z</time>
      </trkpt>
      <trkpt lat="46.34296" lon="6.69032">
        <ele>1429.3755</ele>
        <time>2014-08-27T11:46:27Z</time>
      </trkpt>
      <trkpt lat="46.34295" lon="6.69033">
        <ele>1431.7423</ele>
        <time>2014-08-27T11:46:32Z</time>
      </trkpt>
      <trkpt lat="46.34293" lon="6.69038">
        <ele>1431.7423</ele>
        <time>2014-08-27T11:46:37Z</time>
      </trkpt>
      <trkpt lat="46.34291" lon="6.6904">
        <ele>1431.7423</ele>
        <time>2014-08-27T11:46:42Z</time>
      </trkpt>
      <trkpt lat="46.34291" lon="6.69042">
        <ele>1431.7423</ele>
        <time>2014-08-27T11:46:47Z</time>
      </trkpt>
      <trkpt lat="46.3429" lon="6.69047">
        <ele>1434.5051</ele>
        <time>2014-08-27T11:46:52Z</time>
      </trkpt>
      <trkpt lat="46.34288" lon="6.69052">
        <ele>1434.5051</ele>
        <time>2014-08-27T11:46:57Z</time>
      </trkpt>
      <trkpt lat="46.34288" lon="6.69052">
        <ele>1434.5051</ele>
        <time>2014-08-27T11:47:02Z</time>
      </trkpt>
      <trkpt lat="46.34289" lon="6.69054">
        <ele>1434.5051</ele>
        <time>2014-08-27T11:47:07Z</time>
      </trkpt>
      <trkpt lat="46.34288" lon="6.6906">
        <ele>1437.7794</ele>
        <time>2014-08-27T11:47:12Z</time>
      </trkpt>
      <trkpt lat="46.34287" lon="6.69065">
        <ele>1437.7794</ele>
        <time>2014-08-27T11:47:17Z</time>
      </trkpt>
      <trkpt lat="46.34288" lon="6.6907">
        <ele>1437.7794</ele>
        <time>2014-08-27T11:47:22Z</time>
      </trkpt>
      <trkpt lat="46.34288" lon="6.69077">
        <ele>1441.0947</ele>
        <time>2014-08-27T11:47:27Z</time>
      </trkpt>
      <trkpt lat="46.34288" lon="6.69079">
        <ele>1441.0947</ele>
        <time>2014-08-27T11:47:32Z</time>
      </trkpt>
      <trkpt lat="46.34287" lon="6.69083">
        <ele>1441.0947</ele>
        <time>2014-08-27T11:47:37Z</time>
      </trkpt>
      <trkpt lat="46.34286" lon="6.69088">
        <ele>1441.0947</ele>
        <time>2014-08-27T11:47:42Z</time>
      </trkpt>
      <trkpt lat="46.34284" lon="6.69089">
        <ele>1444.7642</ele>
        <time>2014-08-27T11:47:47Z</time>
      </trkpt>
      <trkpt lat="46.34282" lon="6.69096">
        <ele>1444.7642</ele>
        <time>2014-08-27T11:47:52Z</time>
      </trkpt>
      <trkpt lat="46.34282" lon="6.69096">
        <ele>1444.7642</ele>
        <time>2014-08-27T11:47:57Z</time>
      </trkpt>
      <trkpt lat="46.34281" lon="6.69099">
        <ele>1444.7642</ele>
        <time>2014-08-27T11:48:02Z</time>
      </trkpt>
      <trkpt lat="46.3428" lon="6.69101">
        <ele>1444.7642</ele>
        <time>2014-08-27T11:48:07Z</time>
      </trkpt>
      <trkpt lat="46.34281" lon="6.69103">
        <ele>1448.6306</ele>
        <time>2014-08-27T11:48:12Z</time>
      </trkpt>
      <trkpt lat="46.3428" lon="6.69105">
        <ele>1448.6306</ele>
        <time>2014-08-27T11:48:17Z</time>
      </trkpt>
      <trkpt lat="46.34279" lon="6.69109">
        <ele>1448.6306</ele>
        <time>2014-08-27T11:48:22Z</time>
      </trkpt>
      <trkpt lat="46.34278" lon="6.69111">
        <ele>1448.6306</ele>
        <time>2014-08-27T11:48:27Z</time>
      </trkpt>
      <trkpt lat="46.34278" lon="6.69112">
        <ele>1448.6306</ele>
        <time>2014-08-27T11:48:32Z</time>
      </trkpt>
      <trkpt lat="46.34278" lon="6.69112">
        <ele>1448.6306</ele>
        <time>2014-08-27T11:48:37Z</time>
      </trkpt>
      <trkpt lat="46.34278" lon="6.69115">
        <ele>1452.8505</ele>
        <time>2014-08-27T11:48:47Z</time>
      </trkpt>
      <trkpt lat="46.34278" lon="6.69115">
        <ele>1452.8505</ele>
        <time>2014-08-27T11:48:52Z</time>
      </trkpt>
      <trkpt lat="46.34276" lon="6.69117">
        <ele>1452.8505</ele>
        <time>2014-08-27T11:49:22Z</time>
      </trkpt>
      <trkpt lat="46.34276" lon="6.69117">
        <ele>1452.8505</ele>
        <time>2014-08-27T11:49:27Z</time>
      </trkpt>
      <trkpt lat="46.34277" lon="6.69117">
        <ele>1452.8505</ele>
        <time>2014-08-27T11:49:32Z</time>
      </trkpt>
      <trkpt lat="46.34277" lon="6.69117">
        <ele>1452.8505</ele>
        <time>2014-08-27T11:49:37Z</time>
      </trkpt>
      <trkpt lat="46.34277" lon="6.6912">
        <ele>1452.8505</ele>
        <time>2014-08-27T11:50:07Z</time>
      </trkpt>
      <trkpt lat="46.34276" lon="6.69128">
        <ele>1456.9769</ele>
        <time>2014-08-27T11:50:12Z</time>
      </trkpt>
      <trkpt lat="46.34273" lon="6.69128">
        <ele>1456.9769</ele>
        <time>2014-08-27T11:50:17Z</time>
      </trkpt>
      <trkpt lat="46.34272" lon="6.69131">
        <ele>1456.9769</ele>
        <time>2014-08-27T11:50:22Z</time>
      </trkpt>
      <trkpt lat="46.34269" lon="6.69133">
        <ele>1456.9769</ele>
        <time>2014-08-27T11:50:27Z</time>
      </trkpt>
      <trkpt lat="46.34269" lon="6.69136">
        <ele>1461.5192</ele>
        <time>2014-08-27T11:50:32Z</time>
      </trkpt>
      <trkpt lat="46.34269" lon="6.69136">
        <ele>1461.5192</ele>
        <time>2014-08-27T11:50:37Z</time>
      </trkpt>
      <trkpt lat="46.3427" lon="6.69137">
        <ele>1461.5192</ele>
        <time>2014-08-27T11:50:47Z</time>
      </trkpt>
      <trkpt lat="46.3427" lon="6.69137">
        <ele>1461.5192</ele>
        <time>2014-08-27T11:50:52Z</time>
      </trkpt>
      <trkpt lat="46.3427" lon="6.6914">
        <ele>1461.5192</ele>
        <time>2014-08-27T11:50:57Z</time>
      </trkpt>
      <trkpt lat="46.3427" lon="6.69142">
        <ele>1461.5192</ele>
        <time>2014-08-27T11:51:02Z</time>
      </trkpt>
      <trkpt lat="46.34271" lon="6.69143">
        <ele>1461.5192</ele>
        <time>2014-08-27T11:51:07Z</time>
      </trkpt>
      <trkpt lat="46.34271" lon="6.69146">
        <ele>1461.5192</ele>
        <time>2014-08-27T11:51:12Z</time>
      </trkpt>
      <trkpt lat="46.3427" lon="6.69147">
        <ele>1466.4</ele>
        <time>2014-08-27T11:51:17Z</time>
      </trkpt>
      <trkpt lat="46.34267" lon="6.69152">
        <ele>1466.4</ele>
        <time>2014-08-27T11:51:22Z</time>
      </trkpt>
      <trkpt lat="46.34267" lon="6.69155">
        <ele>1466.4</ele>
        <time>2014-08-27T11:51:27Z</time>
      </trkpt>
      <trkpt lat="46.34267" lon="6.69155">
        <ele>1466.4</ele>
        <time>2014-08-27T11:51:32Z</time>
      </trkpt>
      <trkpt lat="46.34266" lon="6.69156">
        <ele>1466.4</ele>
        <time>2014-08-27T11:51:47Z</time>
      </trkpt>
      <trkpt lat="46.34265" lon="6.69158">
        <ele>1471.1008</ele>
        <time>2014-08-27T11:51:52Z</time>
      </trkpt>
      <trkpt lat="46.34263" lon="6.69163">
        <ele>1471.1008</ele>
        <time>2014-08-27T11:51:57Z</time>
      </trkpt>
      <trkpt lat="46.34263" lon="6.69165">
        <ele>1471.1008</ele>
        <time>2014-08-27T11:52:02Z</time>
      </trkpt>
      <trkpt lat="46.34263" lon="6.6917">
        <ele>1471.1008</ele>
        <time>2014-08-27T11:52:07Z</time>
      </trkpt>
      <trkpt lat="46.34264" lon="6.69173">
        <ele>1475.4733</ele>
        <time>2014-08-27T11:52:12Z</time>
      </trkpt>
      <trkpt lat="46.34264" lon="6.6918">
        <ele>1475.4733</ele>
        <time>2014-08-27T11:52:17Z</time>
      </trkpt>
      <trkpt lat="46.34264" lon="6.69185">
        <ele>1475.4733</ele>
        <time>2014-08-27T11:52:22Z</time>
      </trkpt>
      <trkpt lat="46.34265" lon="6.69192">
        <ele>1479.8424</ele>
        <time>2014-08-27T11:52:27Z</time>
      </trkpt>
      <trkpt lat="46.34264" lon="6.69193">
        <ele>1479.8424</ele>
        <time>2014-08-27T11:52:32Z</time>
      </trkpt>
      <trkpt lat="46.34262" lon="6.69197">
        <ele>1479.8424</ele>
        <time>2014-08-27T11:52:37Z</time>
      </trkpt>
      <trkpt lat="46.34263" lon="6.69201">
        <ele>1479.8424</ele>
        <time>2014-08-27T11:52:42Z</time>
      </trkpt>
      <trkpt lat="46.34263" lon="6.69207">
        <ele>1483.9333</ele>
        <time>2014-08-27T11:52:47Z</time>
      </trkpt>
      <trkpt lat="46.34263" lon="6.69207">
        <ele>1483.9333</ele>
        <time>2014-08-27T11:52:52Z</time>
      </trkpt>
      <trkpt lat="46.34262" lon="6.69212">
        <ele>1483.9333</ele>
        <time>2014-08-27T11:52:57Z</time>
      </trkpt>
      <trkpt lat="46.34258" lon="6.69227">
        <ele>1487.752</ele>
        <time>2014-08-27T11:53:02Z</time>
      </trkpt>
      <trkpt lat="46.34257" lon="6.69235">
        <ele>1487.752</ele>
        <time>2014-08-27T11:53:07Z</time>
      </trkpt>
      <trkpt lat="46.34254" lon="6.69248">
        <ele>1491.2759</ele>
        <time>2014-08-27T11:53:12Z</time>
      </trkpt>
      <trkpt lat="46.34253" lon="6.69258">
        <ele>1491.2759</ele>
        <time>2014-08-27T11:53:17Z</time>
      </trkpt>
      <trkpt lat="46.34253" lon="6.69264">
        <ele>1494.5436</ele>
        <time>2014-08-27T11:53:22Z</time>
      </trkpt>
      <trkpt lat="46.34252" lon="6.6927">
        <ele>1494.5436</ele>
        <time>2014-08-27T11:53:27Z</time>
      </trkpt>
      <trkpt lat="46.3425" lon="6.69278">
        <ele>1497.534</ele>
        <time>2014-08-27T11:53:32Z</time>
      </trkpt>
      <trkpt lat="46.34249" lon="6.69286">
        <ele>1497.534</ele>
        <time>2014-08-27T11:53:37Z</time>
      </trkpt>
      <trkpt lat="46.34247" lon="6.69293">
        <ele>1500.3154</ele>
        <time>2014-08-27T11:53:42Z</time>
      </trkpt>
      <trkpt lat="46.34246" lon="6.69298">
        <ele>1500.3154</ele>
        <time>2014-08-27T11:53:47Z</time>
      </trkpt>
      <trkpt lat="46.34246" lon="6.69305">
        <ele>1500.3154</ele>
        <time>2014-08-27T11:53:52Z</time>
      </trkpt>
      <trkpt lat="46.34247" lon="6.69313">
        <ele>1502.8799</ele>
        <time>2014-08-27T11:53:57Z</time>
      </trkpt>
      <trkpt lat="46.34247" lon="6.69318">
        <ele>1502.8799</ele>
        <time>2014-08-27T11:54:02Z</time>
      </trkpt>
      <trkpt lat="46.34247" lon="6.69329">
        <ele>1505.322</ele>
        <time>2014-08-27T11:54:07Z</time>
      </trkpt>
      <trkpt lat="46.34247" lon="6.69339">
        <ele>1505.322</ele>
        <time>2014-08-27T11:54:12Z</time>
      </trkpt>
      <trkpt lat="46.34251" lon="6.69346">
        <ele>1507.687</ele>
        <time>2014-08-27T11:54:17Z</time>
      </trkpt>
      <trkpt lat="46.34253" lon="6.6935">
        <ele>1507.687</ele>
        <time>2014-08-27T11:54:22Z</time>
      </trkpt>
      <trkpt lat="46.34254" lon="6.69356">
        <ele>1507.687</ele>
        <time>2014-08-27T11:54:27Z</time>
      </trkpt>
      <trkpt lat="46.34256" lon="6.69363">
        <ele>1509.9166</ele>
        <time>2014-08-27T11:54:32Z</time>
      </trkpt>
      <trkpt lat="46.34257" lon="6.69368">
        <ele>1509.9166</ele>
        <time>2014-08-27T11:54:37Z</time>
      </trkpt>
      <trkpt lat="46.3426" lon="6.69374">
        <ele>1509.9166</ele>
        <time>2014-08-27T11:54:42Z</time>
      </trkpt>
      <trkpt lat="46.34262" lon="6.69381">
        <ele>1511.8854</ele>
        <time>2014-08-27T11:54:47Z</time>
      </trkpt>
      <trkpt lat="46.34265" lon="6.69388">
        <ele>1511.8854</ele>
        <time>2014-08-27T11:54:52Z</time>
      </trkpt>
      <trkpt lat="46.34267" lon="6.69394">
        <ele>1513.6079</ele>
        <time>2014-08-27T11:54:57Z</time>
      </trkpt>
      <trkpt lat="46.34268" lon="6.69398">
        <ele>1513.6079</ele>
        <time>2014-08-27T11:55:02Z</time>
      </trkpt>
      <trkpt lat="46.34269" lon="6.69405">
        <ele>1513.6079</ele>
        <time>2014-08-27T11:55:07Z</time>
      </trkpt>
      <trkpt lat="46.34271" lon="6.69413">
        <ele>1514.9403</ele>
        <time>2014-08-27T11:55:12Z</time>
      </trkpt>
      <trkpt lat="46.34272" lon="6.69419">
        <ele>1514.9403</ele>
        <time>2014-08-27T11:55:17Z</time>
      </trkpt>
      <trkpt lat="46.34272" lon="6.69423">
        <ele>1514.9403</ele>
        <time>2014-08-27T11:55:22Z</time>
      </trkpt>
      <trkpt lat="46.34276" lon="6.69433">
        <ele>1515.9812</ele>
        <time>2014-08-27T11:55:27Z</time>
      </trkpt>
      <trkpt lat="46.34276" lon="6.69441">
        <ele>1515.9812</ele>
        <time>2014-08-27T11:55:32Z</time>
      </trkpt>
      <trkpt lat="46.34276" lon="6.69448">
        <ele>1516.7944</ele>
        <time>2014-08-27T11:55:37Z</time>
      </trkpt>
      <trkpt lat="46.34277" lon="6.69455">
        <ele>1516.7944</ele>
        <time>2014-08-27T11:55:42Z</time>
      </trkpt>
      <trkpt lat="46.34276" lon="6.69462">
        <ele>1517.368</ele>
        <time>2014-08-27T11:55:47Z</time>
      </trkpt>
      <trkpt lat="46.34277" lon="6.69466">
        <ele>1517.368</ele>
        <time>2014-08-27T11:55:52Z</time>
      </trkpt>
      <trkpt lat="46.34278" lon="6.69472">
        <ele>1517.368</ele>
        <time>2014-08-27T11:55:57Z</time>
      </trkpt>
      <trkpt lat="46.34277" lon="6.69478">
        <ele>1517.7059</ele>
        <time>2014-08-27T11:56:02Z</time>
      </trkpt>
      <trkpt lat="46.34277" lon="6.6949">
        <ele>1517.7059</ele>
        <time>2014-08-27T11:56:07Z</time>
      </trkpt>
      <trkpt lat="46.34277" lon="6.69503">
        <ele>1517.8419</ele>
        <time>2014-08-27T11:56:12Z</time>
      </trkpt>
      <trkpt lat="46.34279" lon="6.69513">
        <ele>1517.8419</ele>
        <time>2014-08-27T11:56:17Z</time>
      </trkpt>
      <trkpt lat="46.34279" lon="6.69515">
        <ele>1517.8419</ele>
        <time>2014-08-27T11:56:22Z</time>
      </trkpt>
      <trkpt lat="46.34279" lon="6.69517">
        <ele>1518.053</ele>
        <time>2014-08-27T11:56:27Z</time>
      </trkpt>
      <trkpt lat="46.34279" lon="6.69517">
        <ele>1518.053</ele>
        <time>2014-08-27T11:56:32Z</time>
      </trkpt>
      <trkpt lat="46.34279" lon="6.69518">
        <ele>1518.053</ele>
        <time>2014-08-27T11:56:52Z</time>
      </trkpt>
      <trkpt lat="46.34279" lon="6.69519">
        <ele>1518.053</ele>
        <time>2014-08-27T11:56:57Z</time>
      </trkpt>
      <trkpt lat="46.34278" lon="6.6952">
        <ele>1518.053</ele>
        <time>2014-08-27T11:57:02Z</time>
      </trkpt>
      <trkpt lat="46.34274" lon="6.69522">
        <ele>1518.053</ele>
        <time>2014-08-27T11:57:07Z</time>
      </trkpt>
      <trkpt lat="46.34273" lon="6.69523">
        <ele>1518.053</ele>
        <time>2014-08-27T11:57:12Z</time>
      </trkpt>
      <trkpt lat="46.34273" lon="6.69524">
        <ele>1518.053</ele>
        <time>2014-08-27T11:57:17Z</time>
      </trkpt>
      <trkpt lat="46.34271" lon="6.69523">
        <ele>1517.6733</ele>
        <time>2014-08-27T11:57:22Z</time>
      </trkpt>
      <trkpt lat="46.3427" lon="6.69523">
        <ele>1517.6733</ele>
        <time>2014-08-27T11:57:27Z</time>
      </trkpt>
      <trkpt lat="46.34266" lon="6.69522">
        <ele>1517.6733</ele>
        <time>2014-08-27T11:57:32Z</time>
      </trkpt>
      <trkpt lat="46.34265" lon="6.69521">
        <ele>1517.6733</ele>
        <time>2014-08-27T11:57:37Z</time>
      </trkpt>
      <trkpt lat="46.34258" lon="6.69524">
        <ele>1517.3561</ele>
        <time>2014-08-27T11:57:42Z</time>
      </trkpt>
      <trkpt lat="46.34245" lon="6.69527">
        <ele>1516.986</ele>
        <time>2014-08-27T11:57:47Z</time>
      </trkpt>
      <trkpt lat="46.34237" lon="6.69529">
        <ele>1516.986</ele>
        <time>2014-08-27T11:57:52Z</time>
      </trkpt>
      <trkpt lat="46.34232" lon="6.69532">
        <ele>1516.4564</ele>
        <time>2014-08-27T11:57:57Z</time>
      </trkpt>
      <trkpt lat="46.34229" lon="6.69536">
        <ele>1516.4564</ele>
        <time>2014-08-27T11:58:02Z</time>
      </trkpt>
      <trkpt lat="46.34227" lon="6.69537">
        <ele>1516.4564</ele>
        <time>2014-08-27T11:58:07Z</time>
      </trkpt>
      <trkpt lat="46.34226" lon="6.69539">
        <ele>1516.4564</ele>
        <time>2014-08-27T11:58:12Z</time>
      </trkpt>
      <trkpt lat="46.34222" lon="6.69547">
        <ele>1515.8708</ele>
        <time>2014-08-27T11:58:17Z</time>
      </trkpt>
      <trkpt lat="46.34218" lon="6.69556">
        <ele>1515.8708</ele>
        <time>2014-08-27T11:58:22Z</time>
      </trkpt>
      <trkpt lat="46.34216" lon="6.69561">
        <ele>1515.1526</ele>
        <time>2014-08-27T11:58:27Z</time>
      </trkpt>
      <trkpt lat="46.34215" lon="6.69568">
        <ele>1515.1526</ele>
        <time>2014-08-27T11:58:32Z</time>
      </trkpt>
      <trkpt lat="46.34214" lon="6.69572">
        <ele>1515.1526</ele>
        <time>2014-08-27T11:58:37Z</time>
      </trkpt>
      <trkpt lat="46.34213" lon="6.69575">
        <ele>1514.1588</ele>
        <time>2014-08-27T11:58:42Z</time>
      </trkpt>
      <trkpt lat="46.34212" lon="6.6958">
        <ele>1514.1588</ele>
        <time>2014-08-27T11:58:47Z</time>
      </trkpt>
      <trkpt lat="46.34211" lon="6.69585">
        <ele>1514.1588</ele>
        <time>2014-08-27T11:58:52Z</time>
      </trkpt>
      <trkpt lat="46.3421" lon="6.69591">
        <ele>1513.0319</ele>
        <time>2014-08-27T11:58:57Z</time>
      </trkpt>
      <trkpt lat="46.34208" lon="6.69594">
        <ele>1513.0319</ele>
        <time>2014-08-27T11:59:02Z</time>
      </trkpt>
      <trkpt lat="46.34202" lon="6.69601">
        <ele>1511.7887</ele>
        <time>2014-08-27T11:59:07Z</time>
      </trkpt>
      <trkpt lat="46.34198" lon="6.69607">
        <ele>1511.7887</ele>
        <time>2014-08-27T11:59:12Z</time>
      </trkpt>
      <trkpt lat="46.34196" lon="6.69611">
        <ele>1511.7887</ele>
        <time>2014-08-27T11:59:17Z</time>
      </trkpt>
      <trkpt lat="46.34195" lon="6.69612">
        <ele>1510.3301</ele>
        <time>2014-08-27T11:59:22Z</time>
      </trkpt>
      <trkpt lat="46.34192" lon="6.69613">
        <ele>1510.3301</ele>
        <time>2014-08-27T11:59:27Z</time>
      </trkpt>
      <trkpt lat="46.34189" lon="6.69615">
        <ele>1510.3301</ele>
        <time>2014-08-27T11:59:32Z</time>
      </trkpt>
      <trkpt lat="46.34185" lon="6.69623">
        <ele>1508.8241</ele>
        <time>2014-08-27T11:59:37Z</time>
      </trkpt>
      <trkpt lat="46.34184" lon="6.69626">
        <ele>1508.8241</ele>
        <time>2014-08-27T11:59:42Z</time>
      </trkpt>
      <trkpt lat="46.34185" lon="6.69629">
        <ele>1508.8241</ele>
        <time>2014-08-27T11:59:47Z</time>
      </trkpt>
      <trkpt lat="46.34184" lon="6.69631">
        <ele>1508.8241</ele>
        <time>2014-08-27T11:59:52Z</time>
      </trkpt>
      <trkpt lat="46.34181" lon="6.69633">
        <ele>1507.3256</ele>
        <time>2014-08-27T11:59:57Z</time>
      </trkpt>
      <trkpt lat="46.34177" lon="6.69637">
        <ele>1507.3256</ele>
        <time>2014-08-27T12:00:02Z</time>
      </trkpt>
      <trkpt lat="46.34176" lon="6.69641">
        <ele>1507.3256</ele>
        <time>2014-08-27T12:00:07Z</time>
      </trkpt>
      <trkpt lat="46.34173" lon="6.69646">
        <ele>1505.9427</ele>
        <time>2014-08-27T12:00:12Z</time>
      </trkpt>
      <trkpt lat="46.34169" lon="6.6965">
        <ele>1505.9427</ele>
        <time>2014-08-27T12:00:17Z</time>
      </trkpt>
      <trkpt lat="46.34167" lon="6.69657">
        <ele>1504.5454</ele>
        <time>2014-08-27T12:00:22Z</time>
      </trkpt>
      <trkpt lat="46.34164" lon="6.6966">
        <ele>1504.5454</ele>
        <time>2014-08-27T12:00:27Z</time>
      </trkpt>
      <trkpt lat="46.34163" lon="6.69664">
        <ele>1504.5454</ele>
        <time>2014-08-27T12:00:32Z</time>
      </trkpt>
      <trkpt lat="46.34162" lon="6.69667">
        <ele>1504.5454</ele>
        <time>2014-08-27T12:00:37Z</time>
      </trkpt>
      <trkpt lat="46.34159" lon="6.6967">
        <ele>1503.3148</ele>
        <time>2014-08-27T12:00:42Z</time>
      </trkpt>
      <trkpt lat="46.34158" lon="6.69671">
        <ele>1503.3148</ele>
        <time>2014-08-27T12:00:47Z</time>
      </trkpt>
      <trkpt lat="46.34156" lon="6.69673">
        <ele>1503.3148</ele>
        <time>2014-08-27T12:00:52Z</time>
      </trkpt>
      <trkpt lat="46.34155" lon="6.69674">
        <ele>1503.3148</ele>
        <time>2014-08-27T12:00:57Z</time>
      </trkpt>
      <trkpt lat="46.34155" lon="6.69674">
        <ele>1503.3148</ele>
        <time>2014-08-27T12:01:02Z</time>
      </trkpt>
      <trkpt lat="46.34154" lon="6.69677">
        <ele>1503.3148</ele>
        <time>2014-08-27T12:01:12Z</time>
      </trkpt>
      <trkpt lat="46.34154" lon="6.69677">
        <ele>1503.3148</ele>
        <time>2014-08-27T12:01:17Z</time>
      </trkpt>
      <trkpt lat="46.34153" lon="6.69679">
        <ele>1502.9808</ele>
        <time>2014-08-27T12:01:22Z</time>
      </trkpt>
      <trkpt lat="46.34148" lon="6.69681">
        <ele>1502.9808</ele>
        <time>2014-08-27T12:01:27Z</time>
      </trkpt>
      <trkpt lat="46.34147" lon="6.6968">
        <ele>1502.9808</ele>
        <time>2014-08-27T12:01:32Z</time>
      </trkpt>
      <trkpt lat="46.3414" lon="6.69679">
        <ele>1502.7902</ele>
        <time>2014-08-27T12:01:37Z</time>
      </trkpt>
      <trkpt lat="46.34135" lon="6.69681">
        <ele>1502.7902</ele>
        <time>2014-08-27T12:01:42Z</time>
      </trkpt>
      <trkpt lat="46.34131" lon="6.69679">
        <ele>1502.5055</ele>
        <time>2014-08-27T12:01:47Z</time>
      </trkpt>
      <trkpt lat="46.34129" lon="6.69682">
        <ele>1502.5055</ele>
        <time>2014-08-27T12:01:52Z</time>
      </trkpt>
      <trkpt lat="46.34124" lon="6.69687">
        <ele>1502.5055</ele>
        <time>2014-08-27T12:01:57Z</time>
      </trkpt>
      <trkpt lat="46.34123" lon="6.6969">
        <ele>1502.3539</ele>
        <time>2014-08-27T12:02:02Z</time>
      </trkpt>
      <trkpt lat="46.34119" lon="6.69695">
        <ele>1502.3539</ele>
        <time>2014-08-27T12:02:07Z</time>
      </trkpt>
      <trkpt lat="46.34118" lon="6.69697">
        <ele>1502.3539</ele>
        <time>2014-08-27T12:02:12Z</time>
      </trkpt>
      <trkpt lat="46.34117" lon="6.69698">
        <ele>1502.3539</ele>
        <time>2014-08-27T12:02:17Z</time>
      </trkpt>
      <trkpt lat="46.34114" lon="6.69697">
        <ele>1502.4298</ele>
        <time>2014-08-27T12:02:22Z</time>
      </trkpt>
      <trkpt lat="46.34111" lon="6.69699">
        <ele>1502.4298</ele>
        <time>2014-08-27T12:02:27Z</time>
      </trkpt>
      <trkpt lat="46.3411" lon="6.69703">
        <ele>1502.4298</ele>
        <time>2014-08-27T12:02:32Z</time>
      </trkpt>
      <trkpt lat="46.34106" lon="6.69704">
        <ele>1502.647</ele>
        <time>2014-08-27T12:02:37Z</time>
      </trkpt>
      <trkpt lat="46.34105" lon="6.69707">
        <ele>1502.647</ele>
        <time>2014-08-27T12:02:42Z</time>
      </trkpt>
      <trkpt lat="46.34103" lon="6.69713">
        <ele>1502.647</ele>
        <time>2014-08-27T12:02:47Z</time>
      </trkpt>
      <trkpt lat="46.34103" lon="6.69712">
        <ele>1502.647</ele>
        <time>2014-08-27T12:02:52Z</time>
      </trkpt>
      <trkpt lat="46.34103" lon="6.69709">
        <ele>1502.9541</ele>
        <time>2014-08-27T12:02:57Z</time>
      </trkpt>
      <trkpt lat="46.34103" lon="6.69709">
        <ele>1502.9541</ele>
        <time>2014-08-27T12:03:02Z</time>
      </trkpt>
      <trkpt lat="46.34102" lon="6.69707">
        <ele>1502.9541</ele>
        <time>2014-08-27T12:03:07Z</time>
      </trkpt>
      <trkpt lat="46.341" lon="6.69707">
        <ele>1502.9541</ele>
        <time>2014-08-27T12:03:12Z</time>
      </trkpt>
      <trkpt lat="46.34096" lon="6.69707">
        <ele>1502.9541</ele>
        <time>2014-08-27T12:03:17Z</time>
      </trkpt>
      <trkpt lat="46.34094" lon="6.6971">
        <ele>1503.4182</ele>
        <time>2014-08-27T12:03:22Z</time>
      </trkpt>
      <trkpt lat="46.34094" lon="6.69712">
        <ele>1503.4182</ele>
        <time>2014-08-27T12:03:27Z</time>
      </trkpt>
      <trkpt lat="46.34093" lon="6.69713">
        <ele>1503.4182</ele>
        <time>2014-08-27T12:03:32Z</time>
      </trkpt>
      <trkpt lat="46.34091" lon="6.69714">
        <ele>1503.4182</ele>
        <time>2014-08-27T12:03:37Z</time>
      </trkpt>
      <trkpt lat="46.34089" lon="6.69714">
        <ele>1503.4182</ele>
        <time>2014-08-27T12:03:42Z</time>
      </trkpt>
      <trkpt lat="46.34084" lon="6.69716">
        <ele>1504.1155</ele>
        <time>2014-08-27T12:03:47Z</time>
      </trkpt>
      <trkpt lat="46.34082" lon="6.69719">
        <ele>1504.1155</ele>
        <time>2014-08-27T12:03:52Z</time>
      </trkpt>
      <trkpt lat="46.34079" lon="6.6972">
        <ele>1504.1155</ele>
        <time>2014-08-27T12:03:57Z</time>
      </trkpt>
      <trkpt lat="46.34076" lon="6.69723">
        <ele>1505.1012</ele>
        <time>2014-08-27T12:04:02Z</time>
      </trkpt>
      <trkpt lat="46.34076" lon="6.69722">
        <ele>1505.1012</ele>
        <time>2014-08-27T12:04:07Z</time>
      </trkpt>
      <trkpt lat="46.34071" lon="6.69722">
        <ele>1505.1012</ele>
        <time>2014-08-27T12:04:12Z</time>
      </trkpt>
      <trkpt lat="46.3407" lon="6.69722">
        <ele>1505.1012</ele>
        <time>2014-08-27T12:04:17Z</time>
      </trkpt>
      <trkpt lat="46.34065" lon="6.69724">
        <ele>1506.5408</ele>
        <time>2014-08-27T12:04:22Z</time>
      </trkpt>
      <trkpt lat="46.34065" lon="6.69724">
        <ele>1506.5408</ele>
        <time>2014-08-27T12:04:27Z</time>
      </trkpt>
      <trkpt lat="46.34064" lon="6.69723">
        <ele>1506.5408</ele>
        <time>2014-08-27T12:04:32Z</time>
      </trkpt>
      <trkpt lat="46.34063" lon="6.69722">
        <ele>1506.5408</ele>
        <time>2014-08-27T12:04:37Z</time>
      </trkpt>
      <trkpt lat="46.34054" lon="6.69733">
        <ele>1508.3127</ele>
        <time>2014-08-27T12:04:42Z</time>
      </trkpt>
      <trkpt lat="46.34053" lon="6.69736">
        <ele>1508.3127</ele>
        <time>2014-08-27T12:04:47Z</time>
      </trkpt>
      <trkpt lat="46.3405" lon="6.69732">
        <ele>1508.3127</ele>
        <time>2014-08-27T12:04:52Z</time>
      </trkpt>
      <trkpt lat="46.34048" lon="6.69729">
        <ele>1510.1879</ele>
        <time>2014-08-27T12:04:57Z</time>
      </trkpt>
      <trkpt lat="46.34047" lon="6.6973">
        <ele>1510.1879</ele>
        <time>2014-08-27T12:05:02Z</time>
      </trkpt>
      <trkpt lat="46.3403" lon="6.69731">
        <ele>1512.2129</ele>
        <time>2014-08-27T12:05:07Z</time>
      </trkpt>
      <trkpt lat="46.34029" lon="6.69731">
        <ele>1512.2129</ele>
        <time>2014-08-27T12:05:12Z</time>
      </trkpt>
      <trkpt lat="46.34028" lon="6.69733">
        <ele>1512.2129</ele>
        <time>2014-08-27T12:05:17Z</time>
      </trkpt>
      <trkpt lat="46.34028" lon="6.69735">
        <ele>1512.2129</ele>
        <time>2014-08-27T12:05:22Z</time>
      </trkpt>
      <trkpt lat="46.34028" lon="6.69736">
        <ele>1512.2129</ele>
        <time>2014-08-27T12:05:27Z</time>
      </trkpt>
      <trkpt lat="46.34029" lon="6.69737">
        <ele>1512.2129</ele>
        <time>2014-08-27T12:05:32Z</time>
      </trkpt>
      <trkpt lat="46.34029" lon="6.69737">
        <ele>1512.2129</ele>
        <time>2014-08-27T12:05:37Z</time>
      </trkpt>
      <trkpt lat="46.34029" lon="6.69737">
        <ele>1512.2129</ele>
        <time>2014-08-27T12:05:42Z</time>
      </trkpt>
      <trkpt lat="46.34029" lon="6.69737">
        <ele>1512.2129</ele>
        <time>2014-08-27T12:05:47Z</time>
      </trkpt>
      <trkpt lat="46.34029" lon="6.69736">
        <ele>1512.2129</ele>
        <time>2014-08-27T12:06:17Z</time>
      </trkpt>
      <trkpt lat="46.34028" lon="6.69737">
        <ele>1512.2129</ele>
        <time>2014-08-27T12:06:22Z</time>
      </trkpt>
      <trkpt lat="46.34028" lon="6.69738">
        <ele>1512.2129</ele>
        <time>2014-08-27T12:06:27Z</time>
      </trkpt>
      <trkpt lat="46.34028" lon="6.69738">
        <ele>1512.2129</ele>
        <time>2014-08-27T12:06:32Z</time>
      </trkpt>
      <trkpt lat="46.34029" lon="6.69738">
        <ele>1514.7189</ele>
        <time>2014-08-27T12:07:52Z</time>
      </trkpt>
      <trkpt lat="46.34029" lon="6.69738">
        <ele>1514.7189</ele>
        <time>2014-08-27T12:07:57Z</time>
      </trkpt>
      <trkpt lat="46.34027" lon="6.69739">
        <ele>1514.7189</ele>
        <time>2014-08-27T12:08:07Z</time>
      </trkpt>
      <trkpt lat="46.34026" lon="6.69739">
        <ele>1514.7189</ele>
        <time>2014-08-27T12:08:12Z</time>
      </trkpt>
      <trkpt lat="46.34026" lon="6.6974">
        <ele>1514.7189</ele>
        <time>2014-08-27T12:08:27Z</time>
      </trkpt>
      <trkpt lat="46.34017" lon="6.69748">
        <ele>1517.2041</ele>
        <time>2014-08-27T12:08:32Z</time>
      </trkpt>
      <trkpt lat="46.34017" lon="6.69749">
        <ele>1517.2041</ele>
        <time>2014-08-27T12:08:37Z</time>
      </trkpt>
      <trkpt lat="46.34016" lon="6.69751">
        <ele>1517.2041</ele>
        <time>2014-08-27T12:08:42Z</time>
      </trkpt>
      <trkpt lat="46.34012" lon="6.6976">
        <ele>1519.2904</ele>
        <time>2014-08-27T12:08:47Z</time>
      </trkpt>
      <trkpt lat="46.34012" lon="6.6976">
        <ele>1519.2904</ele>
        <time>2014-08-27T12:08:52Z</time>
      </trkpt>
      <trkpt lat="46.34009" lon="6.69765">
        <ele>1519.2904</ele>
        <time>2014-08-27T12:09:02Z</time>
      </trkpt>
      <trkpt lat="46.34008" lon="6.69766">
        <ele>1519.2904</ele>
        <time>2014-08-27T12:09:07Z</time>
      </trkpt>
      <trkpt lat="46.34007" lon="6.69767">
        <ele>1519.2904</ele>
        <time>2014-08-27T12:09:12Z</time>
      </trkpt>
      <trkpt lat="46.34007" lon="6.69767">
        <ele>1519.2904</ele>
        <time>2014-08-27T12:09:17Z</time>
      </trkpt>
      <trkpt lat="46.34006" lon="6.69771">
        <ele>1520.3977</ele>
        <time>2014-08-27T12:10:02Z</time>
      </trkpt>
      <trkpt lat="46.34005" lon="6.69775">
        <ele>1520.3977</ele>
        <time>2014-08-27T12:10:07Z</time>
      </trkpt>
      <trkpt lat="46.34" lon="6.69779">
        <ele>1520.3977</ele>
        <time>2014-08-27T12:10:12Z</time>
      </trkpt>
      <trkpt lat="46.33999" lon="6.6978">
        <ele>1521.2163</ele>
        <time>2014-08-27T12:10:17Z</time>
      </trkpt>
      <trkpt lat="46.33999" lon="6.6978">
        <ele>1521.2163</ele>
        <time>2014-08-27T12:10:22Z</time>
      </trkpt>
      <trkpt lat="46.33999" lon="6.69785">
        <ele>1521.2163</ele>
        <time>2014-08-27T12:10:27Z</time>
      </trkpt>
      <trkpt lat="46.33997" lon="6.69786">
        <ele>1521.2163</ele>
        <time>2014-08-27T12:10:32Z</time>
      </trkpt>
      <trkpt lat="46.33996" lon="6.69786">
        <ele>1521.2163</ele>
        <time>2014-08-27T12:10:37Z</time>
      </trkpt>
      <trkpt lat="46.33991" lon="6.69793">
        <ele>1521.594</ele>
        <time>2014-08-27T12:10:42Z</time>
      </trkpt>
      <trkpt lat="46.33985" lon="6.69799">
        <ele>1521.594</ele>
        <time>2014-08-27T12:10:47Z</time>
      </trkpt>
      <trkpt lat="46.3398" lon="6.69803">
        <ele>1521.8378</ele>
        <time>2014-08-27T12:10:52Z</time>
      </trkpt>
      <trkpt lat="46.33976" lon="6.69805">
        <ele>1521.8378</ele>
        <time>2014-08-27T12:10:57Z</time>
      </trkpt>
      <trkpt lat="46.3397" lon="6.69811">
        <ele>1521.8721</ele>
        <time>2014-08-27T12:11:02Z</time>
      </trkpt>
      <trkpt lat="46.3397" lon="6.69812">
        <ele>1521.8721</ele>
        <time>2014-08-27T12:11:07Z</time>
      </trkpt>
      <trkpt lat="46.33966" lon="6.69818">
        <ele>1521.8721</ele>
        <time>2014-08-27T12:11:12Z</time>
      </trkpt>
      <trkpt lat="46.33966" lon="6.69818">
        <ele>1521.8721</ele>
        <time>2014-08-27T12:11:17Z</time>
      </trkpt>
      <trkpt lat="46.33965" lon="6.69825">
        <ele>1521.7861</ele>
        <time>2014-08-27T12:11:22Z</time>
      </trkpt>
      <trkpt lat="46.33964" lon="6.69825">
        <ele>1521.7861</ele>
        <time>2014-08-27T12:11:27Z</time>
      </trkpt>
      <trkpt lat="46.33958" lon="6.69833">
        <ele>1521.7639</ele>
        <time>2014-08-27T12:11:32Z</time>
      </trkpt>
      <trkpt lat="46.33953" lon="6.69837">
        <ele>1521.7639</ele>
        <time>2014-08-27T12:11:37Z</time>
      </trkpt>
      <trkpt lat="46.3395" lon="6.69838">
        <ele>1521.7639</ele>
        <time>2014-08-27T12:11:42Z</time>
      </trkpt>
      <trkpt lat="46.33942" lon="6.69837">
        <ele>1521.9321</ele>
        <time>2014-08-27T12:11:47Z</time>
      </trkpt>
      <trkpt lat="46.3394" lon="6.69839">
        <ele>1521.9321</ele>
        <time>2014-08-27T12:11:52Z</time>
      </trkpt>
      <trkpt lat="46.33938" lon="6.69838">
        <ele>1521.9321</ele>
        <time>2014-08-27T12:11:57Z</time>
      </trkpt>
      <trkpt lat="46.33938" lon="6.6984">
        <ele>1521.9321</ele>
        <time>2014-08-27T12:12:02Z</time>
      </trkpt>
      <trkpt lat="46.33933" lon="6.69847">
        <ele>1522.3071</ele>
        <time>2014-08-27T12:12:07Z</time>
      </trkpt>
      <trkpt lat="46.3393" lon="6.69849">
        <ele>1522.3071</ele>
        <time>2014-08-27T12:12:12Z</time>
      </trkpt>
      <trkpt lat="46.33926" lon="6.69851">
        <ele>1522.3071</ele>
        <time>2014-08-27T12:12:17Z</time>
      </trkpt>
      <trkpt lat="46.33921" lon="6.69854">
        <ele>1522.7446</ele>
        <time>2014-08-27T12:12:22Z</time>
      </trkpt>
      <trkpt lat="46.3392" lon="6.69854">
        <ele>1522.7446</ele>
        <time>2014-08-27T12:12:27Z</time>
      </trkpt>
      <trkpt lat="46.33914" lon="6.69862">
        <ele>1523.5145</ele>
        <time>2014-08-27T12:12:32Z</time>
      </trkpt>
      <trkpt lat="46.33912" lon="6.69864">
        <ele>1523.5145</ele>
        <time>2014-08-27T12:12:37Z</time>
      </trkpt>
      <trkpt lat="46.33912" lon="6.69865">
        <ele>1523.5145</ele>
        <time>2014-08-27T12:12:42Z</time>
      </trkpt>
      <trkpt lat="46.33912" lon="6.69865">
        <ele>1523.5145</ele>
        <time>2014-08-27T12:12:47Z</time>
      </trkpt>
      <trkpt lat="46.33908" lon="6.69868">
        <ele>1523.5145</ele>
        <time>2014-08-27T12:12:52Z</time>
      </trkpt>
      <trkpt lat="46.33905" lon="6.69872">
        <ele>1524.6207</ele>
        <time>2014-08-27T12:12:57Z</time>
      </trkpt>
      <trkpt lat="46.33902" lon="6.69879">
        <ele>1524.6207</ele>
        <time>2014-08-27T12:13:02Z</time>
      </trkpt>
      <trkpt lat="46.339" lon="6.69882">
        <ele>1524.6207</ele>
        <time>2014-08-27T12:13:07Z</time>
      </trkpt>
      <trkpt lat="46.33898" lon="6.69885">
        <ele>1525.576</ele>
        <time>2014-08-27T12:13:12Z</time>
      </trkpt>
      <trkpt lat="46.33892" lon="6.6989">
        <ele>1525.576</ele>
        <time>2014-08-27T12:13:17Z</time>
      </trkpt>
      <trkpt lat="46.33889" lon="6.69891">
        <ele>1526.3762</ele>
        <time>2014-08-27T12:13:22Z</time>
      </trkpt>
      <trkpt lat="46.33883" lon="6.69894">
        <ele>1526.3762</ele>
        <time>2014-08-27T12:13:27Z</time>
      </trkpt>
      <trkpt lat="46.33882" lon="6.69894">
        <ele>1526.3762</ele>
        <time>2014-08-27T12:13:32Z</time>
      </trkpt>
      <trkpt lat="46.33881" lon="6.69898">
        <ele>1527.133</ele>
        <time>2014-08-27T12:13:37Z</time>
      </trkpt>
      <trkpt lat="46.3388" lon="6.69903">
        <ele>1527.133</ele>
        <time>2014-08-27T12:13:42Z</time>
      </trkpt>
      <trkpt lat="46.33879" lon="6.69904">
        <ele>1527.133</ele>
        <time>2014-08-27T12:13:47Z</time>
      </trkpt>
      <trkpt lat="46.33879" lon="6.69904">
        <ele>1527.133</ele>
        <time>2014-08-27T12:13:52Z</time>
      </trkpt>
      <trkpt lat="46.33879" lon="6.69906">
        <ele>1527.133</ele>
        <time>2014-08-27T12:13:57Z</time>
      </trkpt>
      <trkpt lat="46.33876" lon="6.69912">
        <ele>1528.296</ele>
        <time>2014-08-27T12:14:02Z</time>
      </trkpt>
      <trkpt lat="46.33877" lon="6.69913">
        <ele>1528.296</ele>
        <time>2014-08-27T12:14:07Z</time>
      </trkpt>
      <trkpt lat="46.33866" lon="6.69919">
        <ele>1529.5889</ele>
        <time>2014-08-27T12:14:12Z</time>
      </trkpt>
      <trkpt lat="46.33858" lon="6.69919">
        <ele>1529.5889</ele>
        <time>2014-08-27T12:14:17Z</time>
      </trkpt>
      <trkpt lat="46.33855" lon="6.69916">
        <ele>1530.9713</ele>
        <time>2014-08-27T12:14:22Z</time>
      </trkpt>
      <trkpt lat="46.33854" lon="6.69916">
        <ele>1530.9713</ele>
        <time>2014-08-27T12:14:27Z</time>
      </trkpt>
      <trkpt lat="46.33853" lon="6.69916">
        <ele>1530.9713</ele>
        <time>2014-08-27T12:14:32Z</time>
      </trkpt>
      <trkpt lat="46.33849" lon="6.69915">
        <ele>1530.9713</ele>
        <time>2014-08-27T12:14:37Z</time>
      </trkpt>
      <trkpt lat="46.33847" lon="6.69916">
        <ele>1530.9713</ele>
        <time>2014-08-27T12:14:42Z</time>
      </trkpt>
      <trkpt lat="46.33844" lon="6.69916">
        <ele>1532.4778</ele>
        <time>2014-08-27T12:14:47Z</time>
      </trkpt>
      <trkpt lat="46.33845" lon="6.69917">
        <ele>1532.4778</ele>
        <time>2014-08-27T12:14:52Z</time>
      </trkpt>
      <trkpt lat="46.33845" lon="6.69916">
        <ele>1532.4778</ele>
        <time>2014-08-27T12:14:57Z</time>
      </trkpt>
      <trkpt lat="46.33845" lon="6.69917">
        <ele>1532.4778</ele>
        <time>2014-08-27T12:15:02Z</time>
      </trkpt>
      <trkpt lat="46.33844" lon="6.6992">
        <ele>1532.4778</ele>
        <time>2014-08-27T12:15:07Z</time>
      </trkpt>
      <trkpt lat="46.33843" lon="6.69924">
        <ele>1532.4778</ele>
        <time>2014-08-27T12:15:12Z</time>
      </trkpt>
      <trkpt lat="46.33841" lon="6.69926">
        <ele>1533.9094</ele>
        <time>2014-08-27T12:15:17Z</time>
      </trkpt>
      <trkpt lat="46.33841" lon="6.69928">
        <ele>1533.9094</ele>
        <time>2014-08-27T12:15:22Z</time>
      </trkpt>
      <trkpt lat="46.33839" lon="6.69929">
        <ele>1533.9094</ele>
        <time>2014-08-27T12:15:27Z</time>
      </trkpt>
      <trkpt lat="46.33835" lon="6.69932">
        <ele>1533.9094</ele>
        <time>2014-08-27T12:15:32Z</time>
      </trkpt>
      <trkpt lat="46.33834" lon="6.69936">
        <ele>1535.5432</ele>
        <time>2014-08-27T12:15:37Z</time>
      </trkpt>
      <trkpt lat="46.33834" lon="6.69936">
        <ele>1535.5432</ele>
        <time>2014-08-27T12:15:42Z</time>
      </trkpt>
      <trkpt lat="46.33834" lon="6.69936">
        <ele>1535.5432</ele>
        <time>2014-08-27T12:15:47Z</time>
      </trkpt>
      <trkpt lat="46.33834" lon="6.69936">
        <ele>1535.5432</ele>
        <time>2014-08-27T12:16:07Z</time>
      </trkpt>
      <trkpt lat="46.33832" lon="6.69938">
        <ele>1535.5432</ele>
        <time>2014-08-27T12:16:12Z</time>
      </trkpt>
      <trkpt lat="46.33832" lon="6.69939">
        <ele>1535.5432</ele>
        <time>2014-08-27T12:16:17Z</time>
      </trkpt>
      <trkpt lat="46.33832" lon="6.69941">
        <ele>1535.5432</ele>
        <time>2014-08-27T12:16:22Z</time>
      </trkpt>
      <trkpt lat="46.3383" lon="6.69942">
        <ele>1535.5432</ele>
        <time>2014-08-27T12:16:27Z</time>
      </trkpt>
      <trkpt lat="46.33829" lon="6.69943">
        <ele>1535.5432</ele>
        <time>2014-08-27T12:16:32Z</time>
      </trkpt>
      <trkpt lat="46.33826" lon="6.69945">
        <ele>1538.3561</ele>
        <time>2014-08-27T12:16:37Z</time>
      </trkpt>
      <trkpt lat="46.33824" lon="6.69948">
        <ele>1538.3561</ele>
        <time>2014-08-27T12:16:42Z</time>
      </trkpt>
      <trkpt lat="46.33823" lon="6.69951">
        <ele>1538.3561</ele>
        <time>2014-08-27T12:16:47Z</time>
      </trkpt>
      <trkpt lat="46.3382" lon="6.69954">
        <ele>1540.8573</ele>
        <time>2014-08-27T12:16:52Z</time>
      </trkpt>
      <trkpt lat="46.3382" lon="6.69954">
        <ele>1540.8573</ele>
        <time>2014-08-27T12:16:57Z</time>
      </trkpt>
      <trkpt lat="46.33816" lon="6.69957">
        <ele>1540.8573</ele>
        <time>2014-08-27T12:17:02Z</time>
      </trkpt>
      <trkpt lat="46.33816" lon="6.69957">
        <ele>1540.8573</ele>
        <time>2014-08-27T12:17:07Z</time>
      </trkpt>
      <trkpt lat="46.33814" lon="6.6996">
        <ele>1540.8573</ele>
        <time>2014-08-27T12:17:12Z</time>
      </trkpt>
      <trkpt lat="46.33812" lon="6.69967">
        <ele>1543.4249</ele>
        <time>2014-08-27T12:17:17Z</time>
      </trkpt>
      <trkpt lat="46.33809" lon="6.69973">
        <ele>1543.4249</ele>
        <time>2014-08-27T12:17:22Z</time>
      </trkpt>
      <trkpt lat="46.33809" lon="6.69973">
        <ele>1543.4249</ele>
        <time>2014-08-27T12:17:27Z</time>
      </trkpt>
      <trkpt lat="46.33808" lon="6.69974">
        <ele>1543.4249</ele>
        <time>2014-08-27T12:17:32Z</time>
      </trkpt>
      <trkpt lat="46.33805" lon="6.69973">
        <ele>1543.4249</ele>
        <time>2014-08-27T12:17:37Z</time>
      </trkpt>
      <trkpt lat="46.33804" lon="6.69972">
        <ele>1546.2219</ele>
        <time>2014-08-27T12:17:42Z</time>
      </trkpt>
      <trkpt lat="46.33804" lon="6.69971">
        <ele>1546.2219</ele>
        <time>2014-08-27T12:17:47Z</time>
      </trkpt>
      <trkpt lat="46.33802" lon="6.69973">
        <ele>1546.2219</ele>
        <time>2014-08-27T12:17:52Z</time>
      </trkpt>
      <trkpt lat="46.33802" lon="6.69974">
        <ele>1546.2219</ele>
        <time>2014-08-27T12:17:57Z</time>
      </trkpt>
      <trkpt lat="46.33802" lon="6.69975">
        <ele>1546.2219</ele>
        <time>2014-08-27T12:18:02Z</time>
      </trkpt>
      <trkpt lat="46.33802" lon="6.69975">
        <ele>1546.2219</ele>
        <time>2014-08-27T12:18:07Z</time>
      </trkpt>
      <trkpt lat="46.338" lon="6.69976">
        <ele>1546.2219</ele>
        <time>2014-08-27T12:18:12Z</time>
      </trkpt>
      <trkpt lat="46.338" lon="6.69976">
        <ele>1546.2219</ele>
        <time>2014-08-27T12:18:17Z</time>
      </trkpt>
      <trkpt lat="46.33799" lon="6.69978">
        <ele>1546.2219</ele>
        <time>2014-08-27T12:18:27Z</time>
      </trkpt>
      <trkpt lat="46.33798" lon="6.69978">
        <ele>1546.2219</ele>
        <time>2014-08-27T12:18:32Z</time>
      </trkpt>
      <trkpt lat="46.33798" lon="6.69978">
        <ele>1546.2219</ele>
        <time>2014-08-27T12:18:37Z</time>
      </trkpt>
      <trkpt lat="46.33799" lon="6.6998">
        <ele>1549.1965</ele>
        <time>2014-08-27T12:19:17Z</time>
      </trkpt>
      <trkpt lat="46.33799" lon="6.6998">
        <ele>1549.1965</ele>
        <time>2014-08-27T12:19:22Z</time>
      </trkpt>
      <trkpt lat="46.33798" lon="6.69982">
        <ele>1549.1965</ele>
        <time>2014-08-27T12:19:27Z</time>
      </trkpt>
      <trkpt lat="46.33798" lon="6.69984">
        <ele>1549.1965</ele>
        <time>2014-08-27T12:19:32Z</time>
      </trkpt>
      <trkpt lat="46.338" lon="6.6999">
        <ele>1549.1965</ele>
        <time>2014-08-27T12:19:37Z</time>
      </trkpt>
      <trkpt lat="46.338" lon="6.69991">
        <ele>1549.1965</ele>
        <time>2014-08-27T12:19:42Z</time>
      </trkpt>
      <trkpt lat="46.338" lon="6.69991">
        <ele>1549.1965</ele>
        <time>2014-08-27T12:19:47Z</time>
      </trkpt>
      <trkpt lat="46.33801" lon="6.69991">
        <ele>1549.1965</ele>
        <time>2014-08-27T12:19:52Z</time>
      </trkpt>
      <trkpt lat="46.338" lon="6.69991">
        <ele>1552.3153</ele>
        <time>2014-08-27T12:19:57Z</time>
      </trkpt>
      <trkpt lat="46.33801" lon="6.69993">
        <ele>1552.3153</ele>
        <time>2014-08-27T12:20:02Z</time>
      </trkpt>
      <trkpt lat="46.33803" lon="6.69996">
        <ele>1552.3153</ele>
        <time>2014-08-27T12:20:07Z</time>
      </trkpt>
      <trkpt lat="46.33804" lon="6.69999">
        <ele>1552.3153</ele>
        <time>2014-08-27T12:20:12Z</time>
      </trkpt>
      <trkpt lat="46.33805" lon="6.7">
        <ele>1552.3153</ele>
        <time>2014-08-27T12:20:17Z</time>
      </trkpt>
      <trkpt lat="46.33805" lon="6.7">
        <ele>1552.3153</ele>
        <time>2014-08-27T12:20:22Z</time>
      </trkpt>
      <trkpt lat="46.33806" lon="6.69998">
        <ele>1555.7771</ele>
        <time>2014-08-27T12:20:27Z</time>
      </trkpt>
      <trkpt lat="46.33806" lon="6.69998">
        <ele>1555.7771</ele>
        <time>2014-08-27T12:20:32Z</time>
      </trkpt>
      <trkpt lat="46.33806" lon="6.69999">
        <ele>1555.7771</ele>
        <time>2014-08-27T12:20:37Z</time>
      </trkpt>
      <trkpt lat="46.33807" lon="6.70001">
        <ele>1555.7771</ele>
        <time>2014-08-27T12:20:42Z</time>
      </trkpt>
      <trkpt lat="46.33807" lon="6.70002">
        <ele>1555.7771</ele>
        <time>2014-08-27T12:20:47Z</time>
      </trkpt>
      <trkpt lat="46.33808" lon="6.70003">
        <ele>1555.7771</ele>
        <time>2014-08-27T12:20:52Z</time>
      </trkpt>
      <trkpt lat="46.33807" lon="6.70002">
        <ele>1555.7771</ele>
        <time>2014-08-27T12:20:57Z</time>
      </trkpt>
      <trkpt lat="46.33808" lon="6.70004">
        <ele>1555.7771</ele>
        <time>2014-08-27T12:21:02Z</time>
      </trkpt>
      <trkpt lat="46.33809" lon="6.70004">
        <ele>1555.7771</ele>
        <time>2014-08-27T12:21:07Z</time>
      </trkpt>
      <trkpt lat="46.33809" lon="6.70006">
        <ele>1555.7771</ele>
        <time>2014-08-27T12:21:12Z</time>
      </trkpt>
      <trkpt lat="46.3381" lon="6.70007">
        <ele>1560.5582</ele>
        <time>2014-08-27T12:21:17Z</time>
      </trkpt>
      <trkpt lat="46.33812" lon="6.7001">
        <ele>1560.5582</ele>
        <time>2014-08-27T12:21:22Z</time>
      </trkpt>
      <trkpt lat="46.33814" lon="6.7001">
        <ele>1560.5582</ele>
        <time>2014-08-27T12:21:27Z</time>
      </trkpt>
      <trkpt lat="46.33815" lon="6.7001">
        <ele>1560.5582</ele>
        <time>2014-08-27T12:21:32Z</time>
      </trkpt>
      <trkpt lat="46.33818" lon="6.70014">
        <ele>1565.4697</ele>
        <time>2014-08-27T12:21:37Z</time>
      </trkpt>
      <trkpt lat="46.3382" lon="6.70015">
        <ele>1565.4697</ele>
        <time>2014-08-27T12:21:42Z</time>
      </trkpt>
      <trkpt lat="46.33822" lon="6.70015">
        <ele>1565.4697</ele>
        <time>2014-08-27T12:21:47Z</time>
      </trkpt>
      <trkpt lat="46.33823" lon="6.70014">
        <ele>1565.4697</ele>
        <time>2014-08-27T12:21:52Z</time>
      </trkpt>
      <trkpt lat="46.33823" lon="6.70014">
        <ele>1565.4697</ele>
        <time>2014-08-27T12:21:57Z</time>
      </trkpt>
      <trkpt lat="46.33823" lon="6.70013">
        <ele>1565.4697</ele>
        <time>2014-08-27T12:22:02Z</time>
      </trkpt>
      <trkpt lat="46.33824" lon="6.70014">
        <ele>1565.4697</ele>
        <time>2014-08-27T12:22:12Z</time>
      </trkpt>
      <trkpt lat="46.33825" lon="6.70014">
        <ele>1565.4697</ele>
        <time>2014-08-27T12:22:17Z</time>
      </trkpt>
      <trkpt lat="46.33824" lon="6.70014">
        <ele>1565.4697</ele>
        <time>2014-08-27T12:22:22Z</time>
      </trkpt>
      <trkpt lat="46.33824" lon="6.70014">
        <ele>1565.4697</ele>
        <time>2014-08-27T12:22:27Z</time>
      </trkpt>
      <trkpt lat="46.33825" lon="6.70014">
        <ele>1565.4697</ele>
        <time>2014-08-27T12:22:32Z</time>
      </trkpt>
      <trkpt lat="46.33825" lon="6.70013">
        <ele>1570.6497</ele>
        <time>2014-08-27T12:22:37Z</time>
      </trkpt>
      <trkpt lat="46.33826" lon="6.70013">
        <ele>1570.6497</ele>
        <time>2014-08-27T12:22:42Z</time>
      </trkpt>
      <trkpt lat="46.33825" lon="6.70013">
        <ele>1570.6497</ele>
        <time>2014-08-27T12:22:47Z</time>
      </trkpt>
      <trkpt lat="46.33825" lon="6.70013">
        <ele>1570.6497</ele>
        <time>2014-08-27T12:22:52Z</time>
      </trkpt>
      <trkpt lat="46.33825" lon="6.70013">
        <ele>1570.6497</ele>
        <time>2014-08-27T12:22:57Z</time>
      </trkpt>
      <trkpt lat="46.33827" lon="6.70012">
        <ele>1570.6497</ele>
        <time>2014-08-27T12:23:02Z</time>
      </trkpt>
      <trkpt lat="46.3383" lon="6.70014">
        <ele>1570.6497</ele>
        <time>2014-08-27T12:23:07Z</time>
      </trkpt>
      <trkpt lat="46.33831" lon="6.70019">
        <ele>1575.4177</ele>
        <time>2014-08-27T12:23:12Z</time>
      </trkpt>
      <trkpt lat="46.33831" lon="6.70017">
        <ele>1575.4177</ele>
        <time>2014-08-27T12:23:17Z</time>
      </trkpt>
      <trkpt lat="46.33832" lon="6.70014">
        <ele>1575.4177</ele>
        <time>2014-08-27T12:23:22Z</time>
      </trkpt>
      <trkpt lat="46.33838" lon="6.70012">
        <ele>1579.7509</ele>
        <time>2014-08-27T12:23:27Z</time>
      </trkpt>
      <trkpt lat="46.33837" lon="6.70017">
        <ele>1579.7509</ele>
        <time>2014-08-27T12:23:32Z</time>
      </trkpt>
      <trkpt lat="46.33836" lon="6.70019">
        <ele>1579.7509</ele>
        <time>2014-08-27T12:23:37Z</time>
      </trkpt>
      <trkpt lat="46.33836" lon="6.70019">
        <ele>1579.7509</ele>
        <time>2014-08-27T12:23:42Z</time>
      </trkpt>
      <trkpt lat="46.33838" lon="6.70017">
        <ele>1579.7509</ele>
        <time>2014-08-27T12:23:47Z</time>
      </trkpt>
      <trkpt lat="46.3384" lon="6.70017">
        <ele>1584.1328</ele>
        <time>2014-08-27T12:23:52Z</time>
      </trkpt>
      <trkpt lat="46.33842" lon="6.70018">
        <ele>1584.1328</ele>
        <time>2014-08-27T12:23:57Z</time>
      </trkpt>
      <trkpt lat="46.33842" lon="6.70016">
        <ele>1584.1328</ele>
        <time>2014-08-27T12:24:02Z</time>
      </trkpt>
      <trkpt lat="46.33844" lon="6.70015">
        <ele>1584.1328</ele>
        <time>2014-08-27T12:24:07Z</time>
      </trkpt>
      <trkpt lat="46.33846" lon="6.70014">
        <ele>1584.1328</ele>
        <time>2014-08-27T12:24:12Z</time>
      </trkpt>
      <trkpt lat="46.33848" lon="6.70016">
        <ele>1588.5801</ele>
        <time>2014-08-27T12:24:17Z</time>
      </trkpt>
      <trkpt lat="46.33852" lon="6.70013">
        <ele>1588.5801</ele>
        <time>2014-08-27T12:24:22Z</time>
      </trkpt>
      <trkpt lat="46.33856" lon="6.70009">
        <ele>1592.8628</ele>
        <time>2014-08-27T12:24:27Z</time>
      </trkpt>
      <trkpt lat="46.33856" lon="6.70008">
        <ele>1592.8628</ele>
        <time>2014-08-27T12:24:32Z</time>
      </trkpt>
      <trkpt lat="46.33857" lon="6.70007">
        <ele>1592.8628</ele>
        <time>2014-08-27T12:24:37Z</time>
      </trkpt>
      <trkpt lat="46.33857" lon="6.70007">
        <ele>1592.8628</ele>
        <time>2014-08-27T12:24:42Z</time>
      </trkpt>
      <trkpt lat="46.33862" lon="6.70009">
        <ele>1592.8628</ele>
        <time>2014-08-27T12:24:47Z</time>
      </trkpt>
      <trkpt lat="46.33868" lon="6.70006">
        <ele>1597.0569</ele>
        <time>2014-08-27T12:24:52Z</time>
      </trkpt>
      <trkpt lat="46.33868" lon="6.70006">
        <ele>1597.0569</ele>
        <time>2014-08-27T12:24:57Z</time>
      </trkpt>
      <trkpt lat="46.3387" lon="6.70008">
        <ele>1597.0569</ele>
        <time>2014-08-27T12:25:02Z</time>
      </trkpt>
      <trkpt lat="46.3387" lon="6.70009">
        <ele>1597.0569</ele>
        <time>2014-08-27T12:25:07Z</time>
      </trkpt>
      <trkpt lat="46.33871" lon="6.70011">
        <ele>1597.0569</ele>
        <time>2014-08-27T12:25:12Z</time>
      </trkpt>
      <trkpt lat="46.33871" lon="6.70012">
        <ele>1597.0569</ele>
        <time>2014-08-27T12:25:17Z</time>
      </trkpt>
      <trkpt lat="46.33871" lon="6.70013">
        <ele>1597.0569</ele>
        <time>2014-08-27T12:25:22Z</time>
      </trkpt>
      <trkpt lat="46.33872" lon="6.70014">
        <ele>1597.0569</ele>
        <time>2014-08-27T12:25:27Z</time>
      </trkpt>
      <trkpt lat="46.33874" lon="6.70018">
        <ele>1600.2388</ele>
        <time>2014-08-27T12:25:32Z</time>
      </trkpt>
      <trkpt lat="46.33876" lon="6.70024">
        <ele>1600.2388</ele>
        <time>2014-08-27T12:25:37Z</time>
      </trkpt>
      <trkpt lat="46.33876" lon="6.70024">
        <ele>1600.2388</ele>
        <time>2014-08-27T12:25:42Z</time>
      </trkpt>
      <trkpt lat="46.33875" lon="6.70024">
        <ele>1600.2388</ele>
        <time>2014-08-27T12:25:47Z</time>
      </trkpt>
      <trkpt lat="46.33875" lon="6.70026">
        <ele>1600.2388</ele>
        <time>2014-08-27T12:25:52Z</time>
      </trkpt>
      <trkpt lat="46.33875" lon="6.70026">
        <ele>1600.2388</ele>
        <time>2014-08-27T12:25:57Z</time>
      </trkpt>
      <trkpt lat="46.33871" lon="6.70034">
        <ele>1602.1902</ele>
        <time>2014-08-27T12:26:02Z</time>
      </trkpt>
      <trkpt lat="46.33867" lon="6.70038">
        <ele>1602.1902</ele>
        <time>2014-08-27T12:26:07Z</time>
      </trkpt>
      <trkpt lat="46.33867" lon="6.7004">
        <ele>1602.1902</ele>
        <time>2014-08-27T12:26:12Z</time>
      </trkpt>
      <trkpt lat="46.33866" lon="6.7005">
        <ele>1604.0525</ele>
        <time>2014-08-27T12:26:17Z</time>
      </trkpt>
      <trkpt lat="46.33866" lon="6.70054">
        <ele>1604.0525</ele>
        <time>2014-08-27T12:26:22Z</time>
      </trkpt>
      <trkpt lat="46.33867" lon="6.70054">
        <ele>1604.0525</ele>
        <time>2014-08-27T12:26:27Z</time>
      </trkpt>
      <trkpt lat="46.33868" lon="6.70055">
        <ele>1604.0525</ele>
        <time>2014-08-27T12:26:32Z</time>
      </trkpt>
      <trkpt lat="46.33867" lon="6.70058">
        <ele>1604.0525</ele>
        <time>2014-08-27T12:26:37Z</time>
      </trkpt>
      <trkpt lat="46.33867" lon="6.70058">
        <ele>1604.0525</ele>
        <time>2014-08-27T12:26:42Z</time>
      </trkpt>
      <trkpt lat="46.33867" lon="6.70059">
        <ele>1604.0525</ele>
        <time>2014-08-27T12:26:47Z</time>
      </trkpt>
      <trkpt lat="46.33866" lon="6.70059">
        <ele>1604.0525</ele>
        <time>2014-08-27T12:26:52Z</time>
      </trkpt>
      <trkpt lat="46.33866" lon="6.70059">
        <ele>1604.0525</ele>
        <time>2014-08-27T12:26:57Z</time>
      </trkpt>
      <trkpt lat="46.33866" lon="6.70062">
        <ele>1606.855</ele>
        <time>2014-08-27T12:27:07Z</time>
      </trkpt>
      <trkpt lat="46.33867" lon="6.70064">
        <ele>1606.855</ele>
        <time>2014-08-27T12:27:12Z</time>
      </trkpt>
      <trkpt lat="46.33866" lon="6.70065">
        <ele>1606.855</ele>
        <time>2014-08-27T12:27:17Z</time>
      </trkpt>
      <trkpt lat="46.33865" lon="6.70066">
        <ele>1606.855</ele>
        <time>2014-08-27T12:27:22Z</time>
      </trkpt>
      <trkpt lat="46.33865" lon="6.70066">
        <ele>1606.855</ele>
        <time>2014-08-27T12:27:27Z</time>
      </trkpt>
      <trkpt lat="46.33865" lon="6.70068">
        <ele>1606.855</ele>
        <time>2014-08-27T12:27:57Z</time>
      </trkpt>
      <trkpt lat="46.33865" lon="6.70068">
        <ele>1606.855</ele>
        <time>2014-08-27T12:28:02Z</time>
      </trkpt>
      <trkpt lat="46.33863" lon="6.70073">
        <ele>1610.4681</ele>
        <time>2014-08-27T12:31:07Z</time>
      </trkpt>
      <trkpt lat="46.33862" lon="6.70083">
        <ele>1610.4681</ele>
        <time>2014-08-27T12:31:12Z</time>
      </trkpt>
      <trkpt lat="46.33859" lon="6.70089">
        <ele>1613.8763</ele>
        <time>2014-08-27T12:31:17Z</time>
      </trkpt>
      <trkpt lat="46.33858" lon="6.70091">
        <ele>1613.8763</ele>
        <time>2014-08-27T12:31:22Z</time>
      </trkpt>
      <trkpt lat="46.33858" lon="6.70091">
        <ele>1613.8763</ele>
        <time>2014-08-27T12:31:27Z</time>
      </trkpt>
      <trkpt lat="46.33858" lon="6.70092">
        <ele>1613.8763</ele>
        <time>2014-08-27T12:31:32Z</time>
      </trkpt>
      <trkpt lat="46.33853" lon="6.70102">
        <ele>1616.9896</ele>
        <time>2014-08-27T12:31:37Z</time>
      </trkpt>
      <trkpt lat="46.3385" lon="6.70104">
        <ele>1616.9896</ele>
        <time>2014-08-27T12:31:42Z</time>
      </trkpt>
      <trkpt lat="46.3385" lon="6.70104">
        <ele>1616.9896</ele>
        <time>2014-08-27T12:31:47Z</time>
      </trkpt>
      <trkpt lat="46.3385" lon="6.70105">
        <ele>1616.9896</ele>
        <time>2014-08-27T12:31:52Z</time>
      </trkpt>
      <trkpt lat="46.33847" lon="6.70109">
        <ele>1616.9896</ele>
        <time>2014-08-27T12:31:57Z</time>
      </trkpt>
      <trkpt lat="46.33843" lon="6.70113">
        <ele>1620.1868</ele>
        <time>2014-08-27T12:32:02Z</time>
      </trkpt>
      <trkpt lat="46.33841" lon="6.70115">
        <ele>1620.1868</ele>
        <time>2014-08-27T12:32:07Z</time>
      </trkpt>
      <trkpt lat="46.33841" lon="6.70115">
        <ele>1620.1868</ele>
        <time>2014-08-27T12:32:12Z</time>
      </trkpt>
      <trkpt lat="46.33839" lon="6.70118">
        <ele>1620.1868</ele>
        <time>2014-08-27T12:32:17Z</time>
      </trkpt>
      <trkpt lat="46.33839" lon="6.70118">
        <ele>1620.1868</ele>
        <time>2014-08-27T12:32:22Z</time>
      </trkpt>
      <trkpt lat="46.33837" lon="6.70117">
        <ele>1620.1868</ele>
        <time>2014-08-27T12:32:32Z</time>
      </trkpt>
      <trkpt lat="46.33837" lon="6.70117">
        <ele>1620.1868</ele>
        <time>2014-08-27T12:32:37Z</time>
      </trkpt>
      <trkpt lat="46.33833" lon="6.70117">
        <ele>1623.4585</ele>
        <time>2014-08-27T12:32:42Z</time>
      </trkpt>
      <trkpt lat="46.3383" lon="6.70115">
        <ele>1623.4585</ele>
        <time>2014-08-27T12:32:47Z</time>
      </trkpt>
      <trkpt lat="46.33827" lon="6.70114">
        <ele>1623.4585</ele>
        <time>2014-08-27T12:32:52Z</time>
      </trkpt>
      <trkpt lat="46.33823" lon="6.70117">
        <ele>1626.2197</ele>
        <time>2014-08-27T12:32:57Z</time>
      </trkpt>
      <trkpt lat="46.33821" lon="6.70118">
        <ele>1626.2197</ele>
        <time>2014-08-27T12:33:02Z</time>
      </trkpt>
      <trkpt lat="46.3382" lon="6.70117">
        <ele>1626.2197</ele>
        <time>2014-08-27T12:33:07Z</time>
      </trkpt>
      <trkpt lat="46.33819" lon="6.70118">
        <ele>1626.2197</ele>
        <time>2014-08-27T12:33:12Z</time>
      </trkpt>
      <trkpt lat="46.33818" lon="6.70119">
        <ele>1626.2197</ele>
        <time>2014-08-27T12:33:17Z</time>
      </trkpt>
      <trkpt lat="46.33816" lon="6.7012">
        <ele>1626.2197</ele>
        <time>2014-08-27T12:33:22Z</time>
      </trkpt>
      <trkpt lat="46.33817" lon="6.7012">
        <ele>1626.2197</ele>
        <time>2014-08-27T12:33:27Z</time>
      </trkpt>
      <trkpt lat="46.33817" lon="6.70119">
        <ele>1628.7083</ele>
        <time>2014-08-27T12:33:32Z</time>
      </trkpt>
      <trkpt lat="46.33818" lon="6.70118">
        <ele>1628.7083</ele>
        <time>2014-08-27T12:33:37Z</time>
      </trkpt>
      <trkpt lat="46.33819" lon="6.70118">
        <ele>1628.7083</ele>
        <time>2014-08-27T12:33:42Z</time>
      </trkpt>
      <trkpt lat="46.33818" lon="6.70117">
        <ele>1628.7083</ele>
        <time>2014-08-27T12:33:47Z</time>
      </trkpt>
      <trkpt lat="46.33816" lon="6.70117">
        <ele>1628.7083</ele>
        <time>2014-08-27T12:33:52Z</time>
      </trkpt>
      <trkpt lat="46.33814" lon="6.70118">
        <ele>1628.7083</ele>
        <time>2014-08-27T12:33:57Z</time>
      </trkpt>
      <trkpt lat="46.33813" lon="6.70119">
        <ele>1628.7083</ele>
        <time>2014-08-27T12:34:02Z</time>
      </trkpt>
      <trkpt lat="46.33812" lon="6.7012">
        <ele>1630.9576</ele>
        <time>2014-08-27T12:34:07Z</time>
      </trkpt>
      <trkpt lat="46.33811" lon="6.70123">
        <ele>1630.9576</ele>
        <time>2014-08-27T12:34:12Z</time>
      </trkpt>
      <trkpt lat="46.33809" lon="6.70127">
        <ele>1630.9576</ele>
        <time>2014-08-27T12:34:17Z</time>
      </trkpt>
      <trkpt lat="46.33807" lon="6.70128">
        <ele>1630.9576</ele>
        <time>2014-08-27T12:34:22Z</time>
      </trkpt>
      <trkpt lat="46.33805" lon="6.70129">
        <ele>1633.2886</ele>
        <time>2014-08-27T12:34:27Z</time>
      </trkpt>
      <trkpt lat="46.33802" lon="6.70132">
        <ele>1633.2886</ele>
        <time>2014-08-27T12:34:32Z</time>
      </trkpt>
      <trkpt lat="46.33799" lon="6.70133">
        <ele>1633.2886</ele>
        <time>2014-08-27T12:34:37Z</time>
      </trkpt>
      <trkpt lat="46.33798" lon="6.70133">
        <ele>1633.2886</ele>
        <time>2014-08-27T12:34:42Z</time>
      </trkpt>
      <trkpt lat="46.33798" lon="6.70132">
        <ele>1633.2886</ele>
        <time>2014-08-27T12:34:47Z</time>
      </trkpt>
      <trkpt lat="46.33798" lon="6.70132">
        <ele>1633.2886</ele>
        <time>2014-08-27T12:34:52Z</time>
      </trkpt>
      <trkpt lat="46.33797" lon="6.70133">
        <ele>1635.6951</ele>
        <time>2014-08-27T12:34:57Z</time>
      </trkpt>
      <trkpt lat="46.33797" lon="6.70133">
        <ele>1635.6951</ele>
        <time>2014-08-27T12:35:02Z</time>
      </trkpt>
      <trkpt lat="46.33796" lon="6.70135">
        <ele>1635.6951</ele>
        <time>2014-08-27T12:35:07Z</time>
      </trkpt>
      <trkpt lat="46.33794" lon="6.70136">
        <ele>1635.6951</ele>
        <time>2014-08-27T12:35:12Z</time>
      </trkpt>
      <trkpt lat="46.33794" lon="6.70137">
        <ele>1635.6951</ele>
        <time>2014-08-27T12:35:17Z</time>
      </trkpt>
      <trkpt lat="46.33794" lon="6.70139">
        <ele>1635.6951</ele>
        <time>2014-08-27T12:35:22Z</time>
      </trkpt>
      <trkpt lat="46.33793" lon="6.70141">
        <ele>1635.6951</ele>
        <time>2014-08-27T12:35:27Z</time>
      </trkpt>
      <trkpt lat="46.33792" lon="6.70142">
        <ele>1638.0563</ele>
        <time>2014-08-27T12:35:32Z</time>
      </trkpt>
      <trkpt lat="46.33791" lon="6.70142">
        <ele>1638.0563</ele>
        <time>2014-08-27T12:35:37Z</time>
      </trkpt>
      <trkpt lat="46.33791" lon="6.70142">
        <ele>1638.0563</ele>
        <time>2014-08-27T12:35:42Z</time>
      </trkpt>
      <trkpt lat="46.3379" lon="6.70142">
        <ele>1638.0563</ele>
        <time>2014-08-27T12:35:47Z</time>
      </trkpt>
      <trkpt lat="46.33791" lon="6.70141">
        <ele>1638.0563</ele>
        <time>2014-08-27T12:35:52Z</time>
      </trkpt>
      <trkpt lat="46.33791" lon="6.70141">
        <ele>1638.0563</ele>
        <time>2014-08-27T12:35:57Z</time>
      </trkpt>
      <trkpt lat="46.3379" lon="6.70141">
        <ele>1638.0563</ele>
        <time>2014-08-27T12:36:02Z</time>
      </trkpt>
      <trkpt lat="46.3379" lon="6.70141">
        <ele>1638.0563</ele>
        <time>2014-08-27T12:36:07Z</time>
      </trkpt>
      <trkpt lat="46.3379" lon="6.7014">
        <ele>1638.0563</ele>
        <time>2014-08-27T12:36:12Z</time>
      </trkpt>
      <trkpt lat="46.3379" lon="6.70137">
        <ele>1638.0563</ele>
        <time>2014-08-27T12:36:17Z</time>
      </trkpt>
      <trkpt lat="46.33789" lon="6.70133">
        <ele>1638.0563</ele>
        <time>2014-08-27T12:36:22Z</time>
      </trkpt>
      <trkpt lat="46.33789" lon="6.70132">
        <ele>1640.3472</ele>
        <time>2014-08-27T12:36:27Z</time>
      </trkpt>
      <trkpt lat="46.33788" lon="6.70134">
        <ele>1640.3472</ele>
        <time>2014-08-27T12:36:32Z</time>
      </trkpt>
      <trkpt lat="46.33787" lon="6.70136">
        <ele>1640.3472</ele>
        <time>2014-08-27T12:36:37Z</time>
      </trkpt>
      <trkpt lat="46.33788" lon="6.70137">
        <ele>1640.3472</ele>
        <time>2014-08-27T12:36:42Z</time>
      </trkpt>
      <trkpt lat="46.33788" lon="6.70138">
        <ele>1640.3472</ele>
        <time>2014-08-27T12:36:47Z</time>
      </trkpt>
      <trkpt lat="46.33787" lon="6.7014">
        <ele>1640.3472</ele>
        <time>2014-08-27T12:36:52Z</time>
      </trkpt>
      <trkpt lat="46.33786" lon="6.70141">
        <ele>1640.3472</ele>
        <time>2014-08-27T12:36:57Z</time>
      </trkpt>
      <trkpt lat="46.33784" lon="6.70142">
        <ele>1642.3286</ele>
        <time>2014-08-27T12:37:02Z</time>
      </trkpt>
      <trkpt lat="46.33782" lon="6.70143">
        <ele>1642.3286</ele>
        <time>2014-08-27T12:37:07Z</time>
      </trkpt>
      <trkpt lat="46.33781" lon="6.70144">
        <ele>1642.3286</ele>
        <time>2014-08-27T12:37:12Z</time>
      </trkpt>
      <trkpt lat="46.3378" lon="6.70144">
        <ele>1642.3286</ele>
        <time>2014-08-27T12:37:17Z</time>
      </trkpt>
      <trkpt lat="46.33777" lon="6.70144">
        <ele>1642.3286</ele>
        <time>2014-08-27T12:37:22Z</time>
      </trkpt>
      <trkpt lat="46.33775" lon="6.70143">
        <ele>1644.3562</ele>
        <time>2014-08-27T12:37:27Z</time>
      </trkpt>
      <trkpt lat="46.33774" lon="6.70143">
        <ele>1644.3562</ele>
        <time>2014-08-27T12:37:32Z</time>
      </trkpt>
      <trkpt lat="46.33773" lon="6.70145">
        <ele>1644.3562</ele>
        <time>2014-08-27T12:37:37Z</time>
      </trkpt>
      <trkpt lat="46.33772" lon="6.70146">
        <ele>1644.3562</ele>
        <time>2014-08-27T12:37:42Z</time>
      </trkpt>
      <trkpt lat="46.33771" lon="6.70146">
        <ele>1644.3562</ele>
        <time>2014-08-27T12:37:47Z</time>
      </trkpt>
      <trkpt lat="46.33769" lon="6.70147">
        <ele>1644.3562</ele>
        <time>2014-08-27T12:37:52Z</time>
      </trkpt>
      <trkpt lat="46.33768" lon="6.70149">
        <ele>1644.3562</ele>
        <time>2014-08-27T12:37:57Z</time>
      </trkpt>
      <trkpt lat="46.33767" lon="6.7015">
        <ele>1646.385</ele>
        <time>2014-08-27T12:38:02Z</time>
      </trkpt>
      <trkpt lat="46.33766" lon="6.70149">
        <ele>1646.385</ele>
        <time>2014-08-27T12:38:07Z</time>
      </trkpt>
      <trkpt lat="46.33766" lon="6.70151">
        <ele>1646.385</ele>
        <time>2014-08-27T12:38:12Z</time>
      </trkpt>
      <trkpt lat="46.33766" lon="6.70152">
        <ele>1646.385</ele>
        <time>2014-08-27T12:38:17Z</time>
      </trkpt>
      <trkpt lat="46.33764" lon="6.70153">
        <ele>1646.385</ele>
        <time>2014-08-27T12:38:22Z</time>
      </trkpt>
      <trkpt lat="46.33763" lon="6.70151">
        <ele>1646.385</ele>
        <time>2014-08-27T12:38:27Z</time>
      </trkpt>
      <trkpt lat="46.33763" lon="6.7015">
        <ele>1646.385</ele>
        <time>2014-08-27T12:38:32Z</time>
      </trkpt>
      <trkpt lat="46.33763" lon="6.70149">
        <ele>1648.359</ele>
        <time>2014-08-27T12:38:37Z</time>
      </trkpt>
      <trkpt lat="46.33763" lon="6.7015">
        <ele>1648.359</ele>
        <time>2014-08-27T12:38:42Z</time>
      </trkpt>
      <trkpt lat="46.33763" lon="6.70151">
        <ele>1648.359</ele>
        <time>2014-08-27T12:38:47Z</time>
      </trkpt>
      <trkpt lat="46.33763" lon="6.70152">
        <ele>1648.359</ele>
        <time>2014-08-27T12:38:52Z</time>
      </trkpt>
      <trkpt lat="46.33763" lon="6.70155">
        <ele>1648.359</ele>
        <time>2014-08-27T12:38:57Z</time>
      </trkpt>
      <trkpt lat="46.33764" lon="6.70156">
        <ele>1648.359</ele>
        <time>2014-08-27T12:39:02Z</time>
      </trkpt>
      <trkpt lat="46.33764" lon="6.70157">
        <ele>1648.359</ele>
        <time>2014-08-27T12:39:07Z</time>
      </trkpt>
      <trkpt lat="46.33764" lon="6.70158">
        <ele>1648.359</ele>
        <time>2014-08-27T12:39:32Z</time>
      </trkpt>
      <trkpt lat="46.33765" lon="6.7016">
        <ele>1648.359</ele>
        <time>2014-08-27T12:39:37Z</time>
      </trkpt>
      <trkpt lat="46.33765" lon="6.7016">
        <ele>1648.359</ele>
        <time>2014-08-27T12:39:42Z</time>
      </trkpt>
      <trkpt lat="46.33765" lon="6.70165">
        <ele>1651.3215</ele>
        <time>2014-08-27T12:39:52Z</time>
      </trkpt>
      <trkpt lat="46.33766" lon="6.70171">
        <ele>1651.3215</ele>
        <time>2014-08-27T12:39:57Z</time>
      </trkpt>
      <trkpt lat="46.33766" lon="6.70175">
        <ele>1651.3215</ele>
        <time>2014-08-27T12:40:02Z</time>
      </trkpt>
      <trkpt lat="46.33767" lon="6.70179">
        <ele>1653.96</ele>
        <time>2014-08-27T12:40:07Z</time>
      </trkpt>
      <trkpt lat="46.33767" lon="6.70181">
        <ele>1653.96</ele>
        <time>2014-08-27T12:40:12Z</time>
      </trkpt>
      <trkpt lat="46.33765" lon="6.70184">
        <ele>1653.96</ele>
        <time>2014-08-27T12:40:17Z</time>
      </trkpt>
      <trkpt lat="46.33765" lon="6.70186">
        <ele>1653.96</ele>
        <time>2014-08-27T12:40:22Z</time>
      </trkpt>
      <trkpt lat="46.33764" lon="6.70187">
        <ele>1653.96</ele>
        <time>2014-08-27T12:40:27Z</time>
      </trkpt>
      <trkpt lat="46.33764" lon="6.70187">
        <ele>1653.96</ele>
        <time>2014-08-27T12:40:32Z</time>
      </trkpt>
      <trkpt lat="46.33763" lon="6.70187">
        <ele>1653.96</ele>
        <time>2014-08-27T12:40:37Z</time>
      </trkpt>
      <trkpt lat="46.33763" lon="6.70187">
        <ele>1653.96</ele>
        <time>2014-08-27T12:40:42Z</time>
      </trkpt>
      <trkpt lat="46.33763" lon="6.70187">
        <ele>1653.96</ele>
        <time>2014-08-27T12:40:47Z</time>
      </trkpt>
      <trkpt lat="46.33764" lon="6.70188">
        <ele>1653.96</ele>
        <time>2014-08-27T12:40:52Z</time>
      </trkpt>
      <trkpt lat="46.33763" lon="6.70188">
        <ele>1656.4567</ele>
        <time>2014-08-27T12:40:57Z</time>
      </trkpt>
      <trkpt lat="46.33763" lon="6.70187">
        <ele>1656.4567</ele>
        <time>2014-08-27T12:41:02Z</time>
      </trkpt>
      <trkpt lat="46.33763" lon="6.70186">
        <ele>1656.4567</ele>
        <time>2014-08-27T12:41:07Z</time>
      </trkpt>
      <trkpt lat="46.33761" lon="6.70185">
        <ele>1656.4567</ele>
        <time>2014-08-27T12:41:12Z</time>
      </trkpt>
      <trkpt lat="46.33761" lon="6.70182">
        <ele>1656.4567</ele>
        <time>2014-08-27T12:41:17Z</time>
      </trkpt>
      <trkpt lat="46.33762" lon="6.70182">
        <ele>1656.4567</ele>
        <time>2014-08-27T12:41:22Z</time>
      </trkpt>
      <trkpt lat="46.33762" lon="6.70181">
        <ele>1656.4567</ele>
        <time>2014-08-27T12:41:27Z</time>
      </trkpt>
      <trkpt lat="46.33763" lon="6.70181">
        <ele>1656.4567</ele>
        <time>2014-08-27T12:41:32Z</time>
      </trkpt>
      <trkpt lat="46.33763" lon="6.70181">
        <ele>1656.4567</ele>
        <time>2014-08-27T12:41:37Z</time>
      </trkpt>
      <trkpt lat="46.33763" lon="6.7018">
        <ele>1656.4567</ele>
        <time>2014-08-27T12:41:52Z</time>
      </trkpt>
      <trkpt lat="46.33763" lon="6.7018">
        <ele>1656.4567</ele>
        <time>2014-08-27T12:42:02Z</time>
      </trkpt>
      <trkpt lat="46.33757" lon="6.70175">
        <ele>1659.154</ele>
        <time>2014-08-27T12:42:07Z</time>
      </trkpt>
      <trkpt lat="46.33754" lon="6.70177">
        <ele>1659.154</ele>
        <time>2014-08-27T12:42:12Z</time>
      </trkpt>
      <trkpt lat="46.33753" lon="6.70177">
        <ele>1659.154</ele>
        <time>2014-08-27T12:42:17Z</time>
      </trkpt>
      <trkpt lat="46.33751" lon="6.70176">
        <ele>1659.154</ele>
        <time>2014-08-27T12:42:22Z</time>
      </trkpt>
      <trkpt lat="46.3375" lon="6.70176">
        <ele>1659.154</ele>
        <time>2014-08-27T12:42:27Z</time>
      </trkpt>
      <trkpt lat="46.33749" lon="6.70177">
        <ele>1659.154</ele>
        <time>2014-08-27T12:42:32Z</time>
      </trkpt>
      <trkpt lat="46.33747" lon="6.70175">
        <ele>1662.4124</ele>
        <time>2014-08-27T12:42:37Z</time>
      </trkpt>
      <trkpt lat="46.33746" lon="6.70175">
        <ele>1662.4124</ele>
        <time>2014-08-27T12:42:42Z</time>
      </trkpt>
      <trkpt lat="46.33744" lon="6.70176">
        <ele>1662.4124</ele>
        <time>2014-08-27T12:42:47Z</time>
      </trkpt>
      <trkpt lat="46.33742" lon="6.70176">
        <ele>1662.4124</ele>
        <time>2014-08-27T12:42:52Z</time>
      </trkpt>
      <trkpt lat="46.33741" lon="6.70175">
        <ele>1662.4124</ele>
        <time>2014-08-27T12:42:57Z</time>
      </trkpt>
      <trkpt lat="46.33741" lon="6.70174">
        <ele>1662.4124</ele>
        <time>2014-08-27T12:43:02Z</time>
      </trkpt>
      <trkpt lat="46.33741" lon="6.70175">
        <ele>1662.4124</ele>
        <time>2014-08-27T12:43:07Z</time>
      </trkpt>
      <trkpt lat="46.3374" lon="6.70176">
        <ele>1662.4124</ele>
        <time>2014-08-27T12:43:12Z</time>
      </trkpt>
      <trkpt lat="46.33741" lon="6.70175">
        <ele>1662.4124</ele>
        <time>2014-08-27T12:43:17Z</time>
      </trkpt>
      <trkpt lat="46.3374" lon="6.70175">
        <ele>1662.4124</ele>
        <time>2014-08-27T12:43:22Z</time>
      </trkpt>
      <trkpt lat="46.33738" lon="6.70176">
        <ele>1665.6266</ele>
        <time>2014-08-27T12:43:27Z</time>
      </trkpt>
      <trkpt lat="46.33738" lon="6.70177">
        <ele>1665.6266</ele>
        <time>2014-08-27T12:43:32Z</time>
      </trkpt>
      <trkpt lat="46.33738" lon="6.70178">
        <ele>1665.6266</ele>
        <time>2014-08-27T12:43:37Z</time>
      </trkpt>
      <trkpt lat="46.33737" lon="6.70178">
        <ele>1665.6266</ele>
        <time>2014-08-27T12:43:42Z</time>
      </trkpt>
      <trkpt lat="46.33736" lon="6.70178">
        <ele>1665.6266</ele>
        <time>2014-08-27T12:43:47Z</time>
      </trkpt>
      <trkpt lat="46.33736" lon="6.70177">
        <ele>1665.6266</ele>
        <time>2014-08-27T12:43:52Z</time>
      </trkpt>
      <trkpt lat="46.33734" lon="6.70176">
        <ele>1665.6266</ele>
        <time>2014-08-27T12:43:57Z</time>
      </trkpt>
      <trkpt lat="46.33733" lon="6.70175">
        <ele>1665.6266</ele>
        <time>2014-08-27T12:44:02Z</time>
      </trkpt>
      <trkpt lat="46.33732" lon="6.70174">
        <ele>1665.6266</ele>
        <time>2014-08-27T12:44:07Z</time>
      </trkpt>
      <trkpt lat="46.33732" lon="6.70175">
        <ele>1665.6266</ele>
        <time>2014-08-27T12:44:12Z</time>
      </trkpt>
      <trkpt lat="46.33732" lon="6.70176">
        <ele>1665.6266</ele>
        <time>2014-08-27T12:44:17Z</time>
      </trkpt>
      <trkpt lat="46.33731" lon="6.70176">
        <ele>1668.7701</ele>
        <time>2014-08-27T12:44:22Z</time>
      </trkpt>
      <trkpt lat="46.33731" lon="6.70177">
        <ele>1668.7701</ele>
        <time>2014-08-27T12:44:27Z</time>
      </trkpt>
      <trkpt lat="46.33731" lon="6.70177">
        <ele>1668.7701</ele>
        <time>2014-08-27T12:44:32Z</time>
      </trkpt>
      <trkpt lat="46.33729" lon="6.7018">
        <ele>1668.7701</ele>
        <time>2014-08-27T12:44:37Z</time>
      </trkpt>
      <trkpt lat="46.33729" lon="6.7018">
        <ele>1668.7701</ele>
        <time>2014-08-27T12:44:42Z</time>
      </trkpt>
      <trkpt lat="46.33731" lon="6.70182">
        <ele>1668.7701</ele>
        <time>2014-08-27T12:44:47Z</time>
      </trkpt>
      <trkpt lat="46.33731" lon="6.70183">
        <ele>1668.7701</ele>
        <time>2014-08-27T12:44:52Z</time>
      </trkpt>
      <trkpt lat="46.3373" lon="6.70185">
        <ele>1668.7701</ele>
        <time>2014-08-27T12:44:57Z</time>
      </trkpt>
      <trkpt lat="46.3373" lon="6.70185">
        <ele>1668.7701</ele>
        <time>2014-08-27T12:45:02Z</time>
      </trkpt>
      <trkpt lat="46.33728" lon="6.70183">
        <ele>1671.8181</ele>
        <time>2014-08-27T12:45:07Z</time>
      </trkpt>
      <trkpt lat="46.33727" lon="6.70182">
        <ele>1671.8181</ele>
        <time>2014-08-27T12:45:12Z</time>
      </trkpt>
      <trkpt lat="46.33726" lon="6.70181">
        <ele>1671.8181</ele>
        <time>2014-08-27T12:45:17Z</time>
      </trkpt>
      <trkpt lat="46.33725" lon="6.70181">
        <ele>1671.8181</ele>
        <time>2014-08-27T12:45:22Z</time>
      </trkpt>
      <trkpt lat="46.33723" lon="6.70182">
        <ele>1671.8181</ele>
        <time>2014-08-27T12:45:27Z</time>
      </trkpt>
      <trkpt lat="46.33723" lon="6.70184">
        <ele>1671.8181</ele>
        <time>2014-08-27T12:45:32Z</time>
      </trkpt>
      <trkpt lat="46.3372" lon="6.70188">
        <ele>1674.532</ele>
        <time>2014-08-27T12:45:37Z</time>
      </trkpt>
      <trkpt lat="46.33717" lon="6.70189">
        <ele>1674.532</ele>
        <time>2014-08-27T12:45:42Z</time>
      </trkpt>
      <trkpt lat="46.33716" lon="6.70192">
        <ele>1674.532</ele>
        <time>2014-08-27T12:45:47Z</time>
      </trkpt>
      <trkpt lat="46.33715" lon="6.70193">
        <ele>1674.532</ele>
        <time>2014-08-27T12:45:52Z</time>
      </trkpt>
      <trkpt lat="46.33715" lon="6.70194">
        <ele>1674.532</ele>
        <time>2014-08-27T12:45:57Z</time>
      </trkpt>
      <trkpt lat="46.33714" lon="6.70195">
        <ele>1674.532</ele>
        <time>2014-08-27T12:46:02Z</time>
      </trkpt>
      <trkpt lat="46.33714" lon="6.70195">
        <ele>1674.532</ele>
        <time>2014-08-27T12:46:07Z</time>
      </trkpt>
      <trkpt lat="46.33713" lon="6.70195">
        <ele>1674.532</ele>
        <time>2014-08-27T12:46:42Z</time>
      </trkpt>
      <trkpt lat="46.33712" lon="6.70195">
        <ele>1677.7867</ele>
        <time>2014-08-27T12:46:47Z</time>
      </trkpt>
      <trkpt lat="46.33713" lon="6.70194">
        <ele>1677.7867</ele>
        <time>2014-08-27T12:46:52Z</time>
      </trkpt>
      <trkpt lat="46.33713" lon="6.70194">
        <ele>1677.7867</ele>
        <time>2014-08-27T12:46:57Z</time>
      </trkpt>
      <trkpt lat="46.33711" lon="6.70194">
        <ele>1677.7867</ele>
        <time>2014-08-27T12:47:02Z</time>
      </trkpt>
      <trkpt lat="46.3371" lon="6.70195">
        <ele>1677.7867</ele>
        <time>2014-08-27T12:47:07Z</time>
      </trkpt>
      <trkpt lat="46.33709" lon="6.70195">
        <ele>1677.7867</ele>
        <time>2014-08-27T12:47:12Z</time>
      </trkpt>
      <trkpt lat="46.3371" lon="6.70195">
        <ele>1677.7867</ele>
        <time>2014-08-27T12:47:17Z</time>
      </trkpt>
      <trkpt lat="46.3371" lon="6.70195">
        <ele>1677.7867</ele>
        <time>2014-08-27T12:47:22Z</time>
      </trkpt>
      <trkpt lat="46.33709" lon="6.70194">
        <ele>1677.7867</ele>
        <time>2014-08-27T12:47:27Z</time>
      </trkpt>
      <trkpt lat="46.33709" lon="6.70194">
        <ele>1677.7867</ele>
        <time>2014-08-27T12:47:32Z</time>
      </trkpt>
      <trkpt lat="46.33708" lon="6.70193">
        <ele>1677.7867</ele>
        <time>2014-08-27T12:47:37Z</time>
      </trkpt>
      <trkpt lat="46.33708" lon="6.70194">
        <ele>1677.7867</ele>
        <time>2014-08-27T12:47:42Z</time>
      </trkpt>
      <trkpt lat="46.33709" lon="6.70195">
        <ele>1681.7432</ele>
        <time>2014-08-27T12:47:47Z</time>
      </trkpt>
      <trkpt lat="46.33709" lon="6.70195">
        <ele>1681.7432</ele>
        <time>2014-08-27T12:47:52Z</time>
      </trkpt>
      <trkpt lat="46.33709" lon="6.70195">
        <ele>1681.7432</ele>
        <time>2014-08-27T12:47:57Z</time>
      </trkpt>
      <trkpt lat="46.33709" lon="6.70196">
        <ele>1681.7432</ele>
        <time>2014-08-27T12:48:02Z</time>
      </trkpt>
      <trkpt lat="46.33709" lon="6.70198">
        <ele>1681.7432</ele>
        <time>2014-08-27T12:48:07Z</time>
      </trkpt>
      <trkpt lat="46.33707" lon="6.702">
        <ele>1681.7432</ele>
        <time>2014-08-27T12:48:12Z</time>
      </trkpt>
      <trkpt lat="46.33706" lon="6.70201">
        <ele>1681.7432</ele>
        <time>2014-08-27T12:48:17Z</time>
      </trkpt>
      <trkpt lat="46.33704" lon="6.70203">
        <ele>1681.7432</ele>
        <time>2014-08-27T12:48:22Z</time>
      </trkpt>
      <trkpt lat="46.33704" lon="6.70203">
        <ele>1685.6116</ele>
        <time>2014-08-27T12:48:27Z</time>
      </trkpt>
      <trkpt lat="46.33703" lon="6.70203">
        <ele>1685.6116</ele>
        <time>2014-08-27T12:48:32Z</time>
      </trkpt>
      <trkpt lat="46.33702" lon="6.70203">
        <ele>1685.6116</ele>
        <time>2014-08-27T12:48:37Z</time>
      </trkpt>
      <trkpt lat="46.33701" lon="6.70201">
        <ele>1685.6116</ele>
        <time>2014-08-27T12:48:42Z</time>
      </trkpt>
      <trkpt lat="46.337" lon="6.70201">
        <ele>1685.6116</ele>
        <time>2014-08-27T12:48:47Z</time>
      </trkpt>
      <trkpt lat="46.337" lon="6.70201">
        <ele>1685.6116</ele>
        <time>2014-08-27T12:48:52Z</time>
      </trkpt>
      <trkpt lat="46.33699" lon="6.70202">
        <ele>1685.6116</ele>
        <time>2014-08-27T12:48:57Z</time>
      </trkpt>
      <trkpt lat="46.33698" lon="6.70204">
        <ele>1685.6116</ele>
        <time>2014-08-27T12:49:02Z</time>
      </trkpt>
      <trkpt lat="46.33699" lon="6.70206">
        <ele>1685.6116</ele>
        <time>2014-08-27T12:49:07Z</time>
      </trkpt>
      <trkpt lat="46.33698" lon="6.70208">
        <ele>1689.2227</ele>
        <time>2014-08-27T12:49:12Z</time>
      </trkpt>
      <trkpt lat="46.33697" lon="6.70207">
        <ele>1689.2227</ele>
        <time>2014-08-27T12:49:17Z</time>
      </trkpt>
      <trkpt lat="46.33696" lon="6.70208">
        <ele>1689.2227</ele>
        <time>2014-08-27T12:49:22Z</time>
      </trkpt>
      <trkpt lat="46.33696" lon="6.70208">
        <ele>1689.2227</ele>
        <time>2014-08-27T12:49:27Z</time>
      </trkpt>
      <trkpt lat="46.33696" lon="6.70209">
        <ele>1689.2227</ele>
        <time>2014-08-27T12:49:32Z</time>
      </trkpt>
      <trkpt lat="46.33696" lon="6.70209">
        <ele>1689.2227</ele>
        <time>2014-08-27T12:49:37Z</time>
      </trkpt>
      <trkpt lat="46.33696" lon="6.70208">
        <ele>1689.2227</ele>
        <time>2014-08-27T12:49:42Z</time>
      </trkpt>
      <trkpt lat="46.33696" lon="6.70208">
        <ele>1689.2227</ele>
        <time>2014-08-27T12:49:47Z</time>
      </trkpt>
      <trkpt lat="46.33695" lon="6.70209">
        <ele>1689.2227</ele>
        <time>2014-08-27T12:50:02Z</time>
      </trkpt>
      <trkpt lat="46.33695" lon="6.70209">
        <ele>1689.2227</ele>
        <time>2014-08-27T12:50:07Z</time>
      </trkpt>
      <trkpt lat="46.3369" lon="6.70207">
        <ele>1692.7949</ele>
        <time>2014-08-27T12:50:17Z</time>
      </trkpt>
      <trkpt lat="46.33686" lon="6.70207">
        <ele>1692.7949</ele>
        <time>2014-08-27T12:50:22Z</time>
      </trkpt>
      <trkpt lat="46.33684" lon="6.70207">
        <ele>1692.7949</ele>
        <time>2014-08-27T12:50:27Z</time>
      </trkpt>
      <trkpt lat="46.33682" lon="6.70207">
        <ele>1692.7949</ele>
        <time>2014-08-27T12:50:32Z</time>
      </trkpt>
      <trkpt lat="46.3368" lon="6.70209">
        <ele>1696.5311</ele>
        <time>2014-08-27T12:50:37Z</time>
      </trkpt>
      <trkpt lat="46.33678" lon="6.7021">
        <ele>1696.5311</ele>
        <time>2014-08-27T12:50:42Z</time>
      </trkpt>
      <trkpt lat="46.33677" lon="6.70211">
        <ele>1696.5311</ele>
        <time>2014-08-27T12:50:47Z</time>
      </trkpt>
      <trkpt lat="46.33676" lon="6.70212">
        <ele>1696.5311</ele>
        <time>2014-08-27T12:50:52Z</time>
      </trkpt>
      <trkpt lat="46.33674" lon="6.70214">
        <ele>1696.5311</ele>
        <time>2014-08-27T12:50:57Z</time>
      </trkpt>
      <trkpt lat="46.33672" lon="6.70212">
        <ele>1700.0278</ele>
        <time>2014-08-27T12:51:02Z</time>
      </trkpt>
      <trkpt lat="46.33671" lon="6.70212">
        <ele>1700.0278</ele>
        <time>2014-08-27T12:51:07Z</time>
      </trkpt>
      <trkpt lat="46.33671" lon="6.70211">
        <ele>1700.0278</ele>
        <time>2014-08-27T12:51:12Z</time>
      </trkpt>
      <trkpt lat="46.33671" lon="6.70212">
        <ele>1700.0278</ele>
        <time>2014-08-27T12:51:17Z</time>
      </trkpt>
      <trkpt lat="46.33672" lon="6.70212">
        <ele>1700.0278</ele>
        <time>2014-08-27T12:51:22Z</time>
      </trkpt>
      <trkpt lat="46.33673" lon="6.70214">
        <ele>1700.0278</ele>
        <time>2014-08-27T12:51:27Z</time>
      </trkpt>
      <trkpt lat="46.33674" lon="6.7022">
        <ele>1700.0278</ele>
        <time>2014-08-27T12:51:32Z</time>
      </trkpt>
      <trkpt lat="46.33674" lon="6.70222">
        <ele>1703.5604</ele>
        <time>2014-08-27T12:51:37Z</time>
      </trkpt>
      <trkpt lat="46.33675" lon="6.70222">
        <ele>1703.5604</ele>
        <time>2014-08-27T12:51:42Z</time>
      </trkpt>
      <trkpt lat="46.33674" lon="6.70222">
        <ele>1703.5604</ele>
        <time>2014-08-27T12:51:47Z</time>
      </trkpt>
      <trkpt lat="46.33674" lon="6.70222">
        <ele>1703.5604</ele>
        <time>2014-08-27T12:51:52Z</time>
      </trkpt>
      <trkpt lat="46.33673" lon="6.70223">
        <ele>1703.5604</ele>
        <time>2014-08-27T12:51:57Z</time>
      </trkpt>
      <trkpt lat="46.33672" lon="6.70224">
        <ele>1703.5604</ele>
        <time>2014-08-27T12:52:02Z</time>
      </trkpt>
      <trkpt lat="46.33672" lon="6.70224">
        <ele>1703.5604</ele>
        <time>2014-08-27T12:52:07Z</time>
      </trkpt>
      <trkpt lat="46.33669" lon="6.70223">
        <ele>1703.5604</ele>
        <time>2014-08-27T12:52:17Z</time>
      </trkpt>
      <trkpt lat="46.33669" lon="6.70223">
        <ele>1703.5604</ele>
        <time>2014-08-27T12:52:22Z</time>
      </trkpt>
      <trkpt lat="46.33667" lon="6.70222">
        <ele>1703.5604</ele>
        <time>2014-08-27T12:52:37Z</time>
      </trkpt>
      <trkpt lat="46.33667" lon="6.70222">
        <ele>1703.5604</ele>
        <time>2014-08-27T12:52:42Z</time>
      </trkpt>
      <trkpt lat="46.33665" lon="6.7022">
        <ele>1708.2053</ele>
        <time>2014-08-27T12:52:52Z</time>
      </trkpt>
      <trkpt lat="46.33665" lon="6.7022">
        <ele>1708.2053</ele>
        <time>2014-08-27T12:52:57Z</time>
      </trkpt>
      <trkpt lat="46.33664" lon="6.70221">
        <ele>1708.2053</ele>
        <time>2014-08-27T12:53:02Z</time>
      </trkpt>
      <trkpt lat="46.33663" lon="6.7022">
        <ele>1708.2053</ele>
        <time>2014-08-27T12:53:07Z</time>
      </trkpt>
      <trkpt lat="46.33662" lon="6.70221">
        <ele>1708.2053</ele>
        <time>2014-08-27T12:53:12Z</time>
      </trkpt>
      <trkpt lat="46.33662" lon="6.70221">
        <ele>1708.2053</ele>
        <time>2014-08-27T12:53:17Z</time>
      </trkpt>
      <trkpt lat="46.33661" lon="6.70223">
        <ele>1708.2053</ele>
        <time>2014-08-27T12:53:32Z</time>
      </trkpt>
      <trkpt lat="46.33661" lon="6.70222">
        <ele>1708.2053</ele>
        <time>2014-08-27T12:53:37Z</time>
      </trkpt>
      <trkpt lat="46.33661" lon="6.70221">
        <ele>1708.2053</ele>
        <time>2014-08-27T12:53:42Z</time>
      </trkpt>
      <trkpt lat="46.33659" lon="6.7022">
        <ele>1708.2053</ele>
        <time>2014-08-27T12:53:52Z</time>
      </trkpt>
      <trkpt lat="46.33658" lon="6.70221">
        <ele>1708.2053</ele>
        <time>2014-08-27T12:53:57Z</time>
      </trkpt>
      <trkpt lat="46.33658" lon="6.70221">
        <ele>1708.2053</ele>
        <time>2014-08-27T12:54:02Z</time>
      </trkpt>
      <trkpt lat="46.33656" lon="6.70226">
        <ele>1714.3519</ele>
        <time>2014-08-27T12:54:17Z</time>
      </trkpt>
      <trkpt lat="46.33656" lon="6.70229">
        <ele>1714.3519</ele>
        <time>2014-08-27T12:54:22Z</time>
      </trkpt>
      <trkpt lat="46.33656" lon="6.70229">
        <ele>1714.3519</ele>
        <time>2014-08-27T12:54:27Z</time>
      </trkpt>
      <trkpt lat="46.33656" lon="6.70233">
        <ele>1714.3519</ele>
        <time>2014-08-27T12:55:02Z</time>
      </trkpt>
      <trkpt lat="46.33659" lon="6.70242">
        <ele>1720.2091</ele>
        <time>2014-08-27T12:55:07Z</time>
      </trkpt>
      <trkpt lat="46.33659" lon="6.70255">
        <ele>1720.2091</ele>
        <time>2014-08-27T12:55:12Z</time>
      </trkpt>
      <trkpt lat="46.3366" lon="6.7026">
        <ele>1725.4302</ele>
        <time>2014-08-27T12:55:17Z</time>
      </trkpt>
      <trkpt lat="46.3366" lon="6.70262">
        <ele>1725.4302</ele>
        <time>2014-08-27T12:55:22Z</time>
      </trkpt>
      <trkpt lat="46.33661" lon="6.70266">
        <ele>1725.4302</ele>
        <time>2014-08-27T12:55:27Z</time>
      </trkpt>
      <trkpt lat="46.33662" lon="6.70268">
        <ele>1725.4302</ele>
        <time>2014-08-27T12:55:32Z</time>
      </trkpt>
      <trkpt lat="46.33662" lon="6.70268">
        <ele>1725.4302</ele>
        <time>2014-08-27T12:55:37Z</time>
      </trkpt>
      <trkpt lat="46.33662" lon="6.70269">
        <ele>1725.4302</ele>
        <time>2014-08-27T12:55:42Z</time>
      </trkpt>
      <trkpt lat="46.33662" lon="6.70272">
        <ele>1725.4302</ele>
        <time>2014-08-27T12:55:47Z</time>
      </trkpt>
      <trkpt lat="46.33662" lon="6.70272">
        <ele>1725.4302</ele>
        <time>2014-08-27T12:55:52Z</time>
      </trkpt>
      <trkpt lat="46.33662" lon="6.70272">
        <ele>1730.1277</ele>
        <time>2014-08-27T12:55:57Z</time>
      </trkpt>
      <trkpt lat="46.33661" lon="6.70272">
        <ele>1730.1277</ele>
        <time>2014-08-27T12:56:02Z</time>
      </trkpt>
      <trkpt lat="46.33661" lon="6.70271">
        <ele>1730.1277</ele>
        <time>2014-08-27T12:56:07Z</time>
      </trkpt>
      <trkpt lat="46.3366" lon="6.70272">
        <ele>1730.1277</ele>
        <time>2014-08-27T12:56:12Z</time>
      </trkpt>
      <trkpt lat="46.33659" lon="6.70272">
        <ele>1730.1277</ele>
        <time>2014-08-27T12:56:17Z</time>
      </trkpt>
      <trkpt lat="46.33656" lon="6.70272">
        <ele>1730.1277</ele>
        <time>2014-08-27T12:56:22Z</time>
      </trkpt>
      <trkpt lat="46.33656" lon="6.70272">
        <ele>1730.1277</ele>
        <time>2014-08-27T12:56:27Z</time>
      </trkpt>
      <trkpt lat="46.33654" lon="6.7027">
        <ele>1730.1277</ele>
        <time>2014-08-27T12:56:32Z</time>
      </trkpt>
      <trkpt lat="46.33652" lon="6.7027">
        <ele>1734.3501</ele>
        <time>2014-08-27T12:56:37Z</time>
      </trkpt>
      <trkpt lat="46.3365" lon="6.70271">
        <ele>1734.3501</ele>
        <time>2014-08-27T12:56:42Z</time>
      </trkpt>
      <trkpt lat="46.33648" lon="6.70272">
        <ele>1734.3501</ele>
        <time>2014-08-27T12:56:47Z</time>
      </trkpt>
      <trkpt lat="46.33647" lon="6.70271">
        <ele>1734.3501</ele>
        <time>2014-08-27T12:56:52Z</time>
      </trkpt>
      <trkpt lat="46.33647" lon="6.70271">
        <ele>1734.3501</ele>
        <time>2014-08-27T12:56:57Z</time>
      </trkpt>
      <trkpt lat="46.33647" lon="6.70269">
        <ele>1734.3501</ele>
        <time>2014-08-27T12:57:02Z</time>
      </trkpt>
      <trkpt lat="46.33647" lon="6.70267">
        <ele>1734.3501</ele>
        <time>2014-08-27T12:57:07Z</time>
      </trkpt>
      <trkpt lat="46.33648" lon="6.70266">
        <ele>1734.3501</ele>
        <time>2014-08-27T12:57:12Z</time>
      </trkpt>
      <trkpt lat="46.33645" lon="6.70264">
        <ele>1738.9797</ele>
        <time>2014-08-27T12:57:17Z</time>
      </trkpt>
      <trkpt lat="46.33642" lon="6.70263">
        <ele>1738.9797</ele>
        <time>2014-08-27T12:57:22Z</time>
      </trkpt>
      <trkpt lat="46.3364" lon="6.70262">
        <ele>1738.9797</ele>
        <time>2014-08-27T12:57:27Z</time>
      </trkpt>
      <trkpt lat="46.33639" lon="6.70263">
        <ele>1738.9797</ele>
        <time>2014-08-27T12:57:32Z</time>
      </trkpt>
      <trkpt lat="46.33639" lon="6.70263">
        <ele>1738.9797</ele>
        <time>2014-08-27T12:57:37Z</time>
      </trkpt>
      <trkpt lat="46.33638" lon="6.70264">
        <ele>1738.9797</ele>
        <time>2014-08-27T12:57:42Z</time>
      </trkpt>
      <trkpt lat="46.33635" lon="6.70264">
        <ele>1743.2042</ele>
        <time>2014-08-27T12:57:47Z</time>
      </trkpt>
      <trkpt lat="46.33634" lon="6.70262">
        <ele>1743.2042</ele>
        <time>2014-08-27T12:57:52Z</time>
      </trkpt>
      <trkpt lat="46.33632" lon="6.70261">
        <ele>1743.2042</ele>
        <time>2014-08-27T12:57:57Z</time>
      </trkpt>
      <trkpt lat="46.33631" lon="6.70262">
        <ele>1743.2042</ele>
        <time>2014-08-27T12:58:02Z</time>
      </trkpt>
      <trkpt lat="46.3363" lon="6.70262">
        <ele>1743.2042</ele>
        <time>2014-08-27T12:58:07Z</time>
      </trkpt>
      <trkpt lat="46.33629" lon="6.7026">
        <ele>1743.2042</ele>
        <time>2014-08-27T12:58:12Z</time>
      </trkpt>
      <trkpt lat="46.33627" lon="6.70259">
        <ele>1746.4309</ele>
        <time>2014-08-27T12:58:17Z</time>
      </trkpt>
      <trkpt lat="46.33627" lon="6.70259">
        <ele>1746.4309</ele>
        <time>2014-08-27T12:58:22Z</time>
      </trkpt>
      <trkpt lat="46.33627" lon="6.70259">
        <ele>1746.4309</ele>
        <time>2014-08-27T12:58:27Z</time>
      </trkpt>
      <trkpt lat="46.33626" lon="6.70258">
        <ele>1746.4309</ele>
        <time>2014-08-27T12:58:57Z</time>
      </trkpt>
      <trkpt lat="46.3362" lon="6.7026">
        <ele>1746.4309</ele>
        <time>2014-08-27T12:59:02Z</time>
      </trkpt>
      <trkpt lat="46.33615" lon="6.70261">
        <ele>1749.843</ele>
        <time>2014-08-27T12:59:07Z</time>
      </trkpt>
      <trkpt lat="46.33614" lon="6.70261">
        <ele>1749.843</ele>
        <time>2014-08-27T12:59:12Z</time>
      </trkpt>
      <trkpt lat="46.3361" lon="6.7026">
        <ele>1749.843</ele>
        <time>2014-08-27T12:59:17Z</time>
      </trkpt>
      <trkpt lat="46.33611" lon="6.7026">
        <ele>1749.843</ele>
        <time>2014-08-27T12:59:22Z</time>
      </trkpt>
      <trkpt lat="46.33611" lon="6.7026">
        <ele>1749.843</ele>
        <time>2014-08-27T12:59:27Z</time>
      </trkpt>
      <trkpt lat="46.33611" lon="6.70261">
        <ele>1749.843</ele>
        <time>2014-08-27T12:59:32Z</time>
      </trkpt>
      <trkpt lat="46.33609" lon="6.70261">
        <ele>1749.843</ele>
        <time>2014-08-27T12:59:37Z</time>
      </trkpt>
      <trkpt lat="46.33608" lon="6.70261">
        <ele>1752.5763</ele>
        <time>2014-08-27T12:59:42Z</time>
      </trkpt>
      <trkpt lat="46.33607" lon="6.70263">
        <ele>1752.5763</ele>
        <time>2014-08-27T12:59:47Z</time>
      </trkpt>
      <trkpt lat="46.33607" lon="6.70263">
        <ele>1752.5763</ele>
        <time>2014-08-27T12:59:52Z</time>
      </trkpt>
      <trkpt lat="46.33606" lon="6.70262">
        <ele>1752.5763</ele>
        <time>2014-08-27T12:59:57Z</time>
      </trkpt>
      <trkpt lat="46.33603" lon="6.70263">
        <ele>1752.5763</ele>
        <time>2014-08-27T13:00:02Z</time>
      </trkpt>
      <trkpt lat="46.33602" lon="6.70264">
        <ele>1752.5763</ele>
        <time>2014-08-27T13:00:07Z</time>
      </trkpt>
      <trkpt lat="46.33601" lon="6.70264">
        <ele>1752.5763</ele>
        <time>2014-08-27T13:00:47Z</time>
      </trkpt>
      <trkpt lat="46.33594" lon="6.70263">
        <ele>1756.1956</ele>
        <time>2014-08-27T13:00:52Z</time>
      </trkpt>
      <trkpt lat="46.33592" lon="6.70263">
        <ele>1756.1956</ele>
        <time>2014-08-27T13:00:57Z</time>
      </trkpt>
      <trkpt lat="46.33585" lon="6.70266">
        <ele>1759.5831</ele>
        <time>2014-08-27T13:01:02Z</time>
      </trkpt>
      <trkpt lat="46.3358" lon="6.70268">
        <ele>1759.5831</ele>
        <time>2014-08-27T13:01:07Z</time>
      </trkpt>
      <trkpt lat="46.33577" lon="6.70269">
        <ele>1759.5831</ele>
        <time>2014-08-27T13:01:12Z</time>
      </trkpt>
      <trkpt lat="46.33576" lon="6.70268">
        <ele>1762.5686</ele>
        <time>2014-08-27T13:01:17Z</time>
      </trkpt>
      <trkpt lat="46.33576" lon="6.70268">
        <ele>1762.5686</ele>
        <time>2014-08-27T13:01:22Z</time>
      </trkpt>
      <trkpt lat="46.33575" lon="6.70268">
        <ele>1762.5686</ele>
        <time>2014-08-27T13:01:27Z</time>
      </trkpt>
      <trkpt lat="46.33574" lon="6.70268">
        <ele>1762.5686</ele>
        <time>2014-08-27T13:01:32Z</time>
      </trkpt>
      <trkpt lat="46.33573" lon="6.70268">
        <ele>1762.5686</ele>
        <time>2014-08-27T13:01:37Z</time>
      </trkpt>
      <trkpt lat="46.33573" lon="6.70267">
        <ele>1762.5686</ele>
        <time>2014-08-27T13:01:42Z</time>
      </trkpt>
      <trkpt lat="46.33571" lon="6.70268">
        <ele>1762.5686</ele>
        <time>2014-08-27T13:01:47Z</time>
      </trkpt>
      <trkpt lat="46.3357" lon="6.70268">
        <ele>1762.5686</ele>
        <time>2014-08-27T13:01:52Z</time>
      </trkpt>
      <trkpt lat="46.33569" lon="6.7027">
        <ele>1762.5686</ele>
        <time>2014-08-27T13:02:02Z</time>
      </trkpt>
      <trkpt lat="46.33569" lon="6.7027">
        <ele>1762.5686</ele>
        <time>2014-08-27T13:02:07Z</time>
      </trkpt>
      <trkpt lat="46.33567" lon="6.70271">
        <ele>1764.9524</ele>
        <time>2014-08-27T13:02:17Z</time>
      </trkpt>
      <trkpt lat="46.33566" lon="6.70275">
        <ele>1764.9524</ele>
        <time>2014-08-27T13:02:22Z</time>
      </trkpt>
      <trkpt lat="46.33563" lon="6.7028">
        <ele>1764.9524</ele>
        <time>2014-08-27T13:02:27Z</time>
      </trkpt>
      <trkpt lat="46.33563" lon="6.70281">
        <ele>1764.9524</ele>
        <time>2014-08-27T13:02:32Z</time>
      </trkpt>
      <trkpt lat="46.33563" lon="6.70282">
        <ele>1767.0701</ele>
        <time>2014-08-27T13:02:37Z</time>
      </trkpt>
      <trkpt lat="46.33563" lon="6.70282">
        <ele>1767.0701</ele>
        <time>2014-08-27T13:02:42Z</time>
      </trkpt>
      <trkpt lat="46.33562" lon="6.70282">
        <ele>1767.0701</ele>
        <time>2014-08-27T13:02:47Z</time>
      </trkpt>
      <trkpt lat="46.33559" lon="6.70281">
        <ele>1767.0701</ele>
        <time>2014-08-27T13:02:52Z</time>
      </trkpt>
      <trkpt lat="46.33557" lon="6.7028">
        <ele>1767.0701</ele>
        <time>2014-08-27T13:02:57Z</time>
      </trkpt>
      <trkpt lat="46.33557" lon="6.7028">
        <ele>1767.0701</ele>
        <time>2014-08-27T13:03:02Z</time>
      </trkpt>
      <trkpt lat="46.33556" lon="6.70279">
        <ele>1767.0701</ele>
        <time>2014-08-27T13:03:07Z</time>
      </trkpt>
      <trkpt lat="46.33556" lon="6.70279">
        <ele>1767.0701</ele>
        <time>2014-08-27T13:03:12Z</time>
      </trkpt>
      <trkpt lat="46.33557" lon="6.7028">
        <ele>1767.0701</ele>
        <time>2014-08-27T13:03:17Z</time>
      </trkpt>
      <trkpt lat="46.33559" lon="6.7028">
        <ele>1769.2762</ele>
        <time>2014-08-27T13:03:22Z</time>
      </trkpt>
      <trkpt lat="46.33559" lon="6.7028">
        <ele>1769.2762</ele>
        <time>2014-08-27T13:03:27Z</time>
      </trkpt>
      <trkpt lat="46.33559" lon="6.70281">
        <ele>1769.2762</ele>
        <time>2014-08-27T13:03:32Z</time>
      </trkpt>
      <trkpt lat="46.33559" lon="6.70279">
        <ele>1769.2762</ele>
        <time>2014-08-27T13:03:37Z</time>
      </trkpt>
      <trkpt lat="46.33559" lon="6.70279">
        <ele>1769.2762</ele>
        <time>2014-08-27T13:03:42Z</time>
      </trkpt>
      <trkpt lat="46.33559" lon="6.70279">
        <ele>1769.2762</ele>
        <time>2014-08-27T13:03:47Z</time>
      </trkpt>
      <trkpt lat="46.3356" lon="6.70281">
        <ele>1769.2762</ele>
        <time>2014-08-27T13:03:52Z</time>
      </trkpt>
      <trkpt lat="46.3356" lon="6.7028">
        <ele>1769.2762</ele>
        <time>2014-08-27T13:03:57Z</time>
      </trkpt>
      <trkpt lat="46.3356" lon="6.70281">
        <ele>1769.2762</ele>
        <time>2014-08-27T13:04:02Z</time>
      </trkpt>
      <trkpt lat="46.33559" lon="6.70282">
        <ele>1769.2762</ele>
        <time>2014-08-27T13:04:07Z</time>
      </trkpt>
      <trkpt lat="46.33559" lon="6.70282">
        <ele>1769.2762</ele>
        <time>2014-08-27T13:04:12Z</time>
      </trkpt>
      <trkpt lat="46.33559" lon="6.70282">
        <ele>1769.2762</ele>
        <time>2014-08-27T13:04:17Z</time>
      </trkpt>
      <trkpt lat="46.3356" lon="6.70282">
        <ele>1769.2762</ele>
        <time>2014-08-27T13:04:22Z</time>
      </trkpt>
      <trkpt lat="46.3356" lon="6.70282">
        <ele>1769.2762</ele>
        <time>2014-08-27T13:04:27Z</time>
      </trkpt>
      <trkpt lat="46.33561" lon="6.70281">
        <ele>1771.8276</ele>
        <time>2014-08-27T13:04:32Z</time>
      </trkpt>
      <trkpt lat="46.33561" lon="6.70282">
        <ele>1771.8276</ele>
        <time>2014-08-27T13:04:37Z</time>
      </trkpt>
      <trkpt lat="46.33561" lon="6.70283">
        <ele>1771.8276</ele>
        <time>2014-08-27T13:04:42Z</time>
      </trkpt>
      <trkpt lat="46.33561" lon="6.70284">
        <ele>1771.8276</ele>
        <time>2014-08-27T13:04:47Z</time>
      </trkpt>
      <trkpt lat="46.33561" lon="6.70286">
        <ele>1771.8276</ele>
        <time>2014-08-27T13:04:52Z</time>
      </trkpt>
      <trkpt lat="46.33561" lon="6.70287">
        <ele>1771.8276</ele>
        <time>2014-08-27T13:04:57Z</time>
      </trkpt>
      <trkpt lat="46.33562" lon="6.70289">
        <ele>1771.8276</ele>
        <time>2014-08-27T13:05:02Z</time>
      </trkpt>
      <trkpt lat="46.33562" lon="6.7029">
        <ele>1771.8276</ele>
        <time>2014-08-27T13:05:07Z</time>
      </trkpt>
      <trkpt lat="46.33563" lon="6.70288">
        <ele>1771.8276</ele>
        <time>2014-08-27T13:05:12Z</time>
      </trkpt>
      <trkpt lat="46.33562" lon="6.70286">
        <ele>1771.8276</ele>
        <time>2014-08-27T13:05:17Z</time>
      </trkpt>
      <trkpt lat="46.33562" lon="6.70285">
        <ele>1774.4421</ele>
        <time>2014-08-27T13:05:22Z</time>
      </trkpt>
      <trkpt lat="46.33561" lon="6.70284">
        <ele>1774.4421</ele>
        <time>2014-08-27T13:05:27Z</time>
      </trkpt>
      <trkpt lat="46.3356" lon="6.70283">
        <ele>1774.4421</ele>
        <time>2014-08-27T13:05:32Z</time>
      </trkpt>
      <trkpt lat="46.3356" lon="6.70282">
        <ele>1774.4421</ele>
        <time>2014-08-27T13:05:37Z</time>
      </trkpt>
      <trkpt lat="46.3356" lon="6.70282">
        <ele>1774.4421</ele>
        <time>2014-08-27T13:05:42Z</time>
      </trkpt>
      <trkpt lat="46.33561" lon="6.70284">
        <ele>1774.4421</ele>
        <time>2014-08-27T13:05:47Z</time>
      </trkpt>
      <trkpt lat="46.33561" lon="6.70283">
        <ele>1774.4421</ele>
        <time>2014-08-27T13:05:52Z</time>
      </trkpt>
      <trkpt lat="46.33561" lon="6.70283">
        <ele>1774.4421</ele>
        <time>2014-08-27T13:05:57Z</time>
      </trkpt>
      <trkpt lat="46.33561" lon="6.70283">
        <ele>1774.4421</ele>
        <time>2014-08-27T13:06:02Z</time>
      </trkpt>
      <trkpt lat="46.3356" lon="6.70283">
        <ele>1774.4421</ele>
        <time>2014-08-27T13:06:07Z</time>
      </trkpt>
      <trkpt lat="46.3356" lon="6.70283">
        <ele>1774.4421</ele>
        <time>2014-08-27T13:06:12Z</time>
      </trkpt>
      <trkpt lat="46.3356" lon="6.70282">
        <ele>1774.4421</ele>
        <time>2014-08-27T13:06:17Z</time>
      </trkpt>
      <trkpt lat="46.3356" lon="6.70281">
        <ele>1774.4421</ele>
        <time>2014-08-27T13:06:22Z</time>
      </trkpt>
      <trkpt lat="46.3356" lon="6.70281">
        <ele>1774.4421</ele>
        <time>2014-08-27T13:06:27Z</time>
      </trkpt>
      <trkpt lat="46.3356" lon="6.7028">
        <ele>1776.9159</ele>
        <time>2014-08-27T13:06:32Z</time>
      </trkpt>
      <trkpt lat="46.33561" lon="6.7028">
        <ele>1776.9159</ele>
        <time>2014-08-27T13:06:37Z</time>
      </trkpt>
      <trkpt lat="46.33561" lon="6.70278">
        <ele>1776.9159</ele>
        <time>2014-08-27T13:06:42Z</time>
      </trkpt>
      <trkpt lat="46.33561" lon="6.70278">
        <ele>1776.9159</ele>
        <time>2014-08-27T13:06:47Z</time>
      </trkpt>
      <trkpt lat="46.33561" lon="6.70279">
        <ele>1776.9159</ele>
        <time>2014-08-27T13:06:52Z</time>
      </trkpt>
      <trkpt lat="46.33561" lon="6.70279">
        <ele>1776.9159</ele>
        <time>2014-08-27T13:06:57Z</time>
      </trkpt>
      <trkpt lat="46.33561" lon="6.70279">
        <ele>1776.9159</ele>
        <time>2014-08-27T13:07:02Z</time>
      </trkpt>
      <trkpt lat="46.3356" lon="6.70279">
        <ele>1776.9159</ele>
        <time>2014-08-27T13:07:07Z</time>
      </trkpt>
      <trkpt lat="46.33561" lon="6.70279">
        <ele>1776.9159</ele>
        <time>2014-08-27T13:07:12Z</time>
      </trkpt>
      <trkpt lat="46.33562" lon="6.70278">
        <ele>1776.9159</ele>
        <time>2014-08-27T13:07:17Z</time>
      </trkpt>
      <trkpt lat="46.33562" lon="6.70277">
        <ele>1776.9159</ele>
        <time>2014-08-27T13:07:22Z</time>
      </trkpt>
      <trkpt lat="46.33563" lon="6.70276">
        <ele>1776.9159</ele>
        <time>2014-08-27T13:07:27Z</time>
      </trkpt>
      <trkpt lat="46.33563" lon="6.70275">
        <ele>1776.9159</ele>
        <time>2014-08-27T13:07:32Z</time>
      </trkpt>
      <trkpt lat="46.33563" lon="6.70276">
        <ele>1776.9159</ele>
        <time>2014-08-27T13:07:37Z</time>
      </trkpt>
      <trkpt lat="46.33562" lon="6.70277">
        <ele>1778.7722</ele>
        <time>2014-08-27T13:07:42Z</time>
      </trkpt>
      <trkpt lat="46.33561" lon="6.70277">
        <ele>1778.7722</ele>
        <time>2014-08-27T13:07:47Z</time>
      </trkpt>
      <trkpt lat="46.33561" lon="6.70278">
        <ele>1778.7722</ele>
        <time>2014-08-27T13:07:52Z</time>
      </trkpt>
      <trkpt lat="46.3356" lon="6.70279">
        <ele>1778.7722</ele>
        <time>2014-08-27T13:07:57Z</time>
      </trkpt>
      <trkpt lat="46.3356" lon="6.70286">
        <ele>1778.7722</ele>
        <time>2014-08-27T13:37:05Z</time>
      </trkpt>
      <trkpt lat="46.3356" lon="6.70286">
        <ele>1778.7722</ele>
        <time>2014-08-27T13:37:10Z</time>
      </trkpt>
      <trkpt lat="46.33559" lon="6.70287">
        <ele>1778.7722</ele>
        <time>2014-08-27T13:37:15Z</time>
      </trkpt>
      <trkpt lat="46.33559" lon="6.70287">
        <ele>1778.7722</ele>
        <time>2014-08-27T13:37:20Z</time>
      </trkpt>
      <trkpt lat="46.33562" lon="6.70287">
        <ele>1782.0355</ele>
        <time>2014-08-27T13:37:25Z</time>
      </trkpt>
      <trkpt lat="46.33566" lon="6.70289">
        <ele>1782.0355</ele>
        <time>2014-08-27T13:37:30Z</time>
      </trkpt>
      <trkpt lat="46.3357" lon="6.70291">
        <ele>1784.816</ele>
        <time>2014-08-27T13:37:35Z</time>
      </trkpt>
      <trkpt lat="46.33577" lon="6.70293">
        <ele>1784.816</ele>
        <time>2014-08-27T13:37:40Z</time>
      </trkpt>
      <trkpt lat="46.33581" lon="6.70297">
        <ele>1787.0795</ele>
        <time>2014-08-27T13:37:45Z</time>
      </trkpt>
      <trkpt lat="46.33584" lon="6.70299">
        <ele>1787.0795</ele>
        <time>2014-08-27T13:37:50Z</time>
      </trkpt>
      <trkpt lat="46.3359" lon="6.70302">
        <ele>1788.9248</ele>
        <time>2014-08-27T13:37:55Z</time>
      </trkpt>
      <trkpt lat="46.33596" lon="6.70307">
        <ele>1788.9248</ele>
        <time>2014-08-27T13:38:00Z</time>
      </trkpt>
      <trkpt lat="46.33597" lon="6.7031">
        <ele>1790.445</ele>
        <time>2014-08-27T13:38:05Z</time>
      </trkpt>
      <trkpt lat="46.33599" lon="6.70313">
        <ele>1790.445</ele>
        <time>2014-08-27T13:38:10Z</time>
      </trkpt>
      <trkpt lat="46.33602" lon="6.70319">
        <ele>1790.445</ele>
        <time>2014-08-27T13:38:15Z</time>
      </trkpt>
      <trkpt lat="46.33605" lon="6.70325">
        <ele>1791.4965</ele>
        <time>2014-08-27T13:38:20Z</time>
      </trkpt>
      <trkpt lat="46.33606" lon="6.7033">
        <ele>1791.4965</ele>
        <time>2014-08-27T13:38:25Z</time>
      </trkpt>
      <trkpt lat="46.33607" lon="6.70336">
        <ele>1791.4965</ele>
        <time>2014-08-27T13:38:30Z</time>
      </trkpt>
      <trkpt lat="46.33608" lon="6.70341">
        <ele>1792.0629</ele>
        <time>2014-08-27T13:38:35Z</time>
      </trkpt>
      <trkpt lat="46.33609" lon="6.7035">
        <ele>1792.0629</ele>
        <time>2014-08-27T13:38:40Z</time>
      </trkpt>
      <trkpt lat="46.33611" lon="6.7036">
        <ele>1792.2454</ele>
        <time>2014-08-27T13:38:45Z</time>
      </trkpt>
      <trkpt lat="46.33613" lon="6.70367">
        <ele>1792.2454</ele>
        <time>2014-08-27T13:38:50Z</time>
      </trkpt>
      <trkpt lat="46.33616" lon="6.70375">
        <ele>1792.0956</ele>
        <time>2014-08-27T13:38:55Z</time>
      </trkpt>
      <trkpt lat="46.33618" lon="6.70384">
        <ele>1792.0956</ele>
        <time>2014-08-27T13:39:00Z</time>
      </trkpt>
      <trkpt lat="46.33621" lon="6.70388">
        <ele>1791.6191</ele>
        <time>2014-08-27T13:39:05Z</time>
      </trkpt>
      <trkpt lat="46.33623" lon="6.70391">
        <ele>1791.6191</ele>
        <time>2014-08-27T13:39:10Z</time>
      </trkpt>
      <trkpt lat="46.33625" lon="6.70398">
        <ele>1791.6191</ele>
        <time>2014-08-27T13:39:15Z</time>
      </trkpt>
      <trkpt lat="46.33628" lon="6.70401">
        <ele>1790.8503</ele>
        <time>2014-08-27T13:39:20Z</time>
      </trkpt>
      <trkpt lat="46.33633" lon="6.70408">
        <ele>1790.8503</ele>
        <time>2014-08-27T13:39:25Z</time>
      </trkpt>
      <trkpt lat="46.33634" lon="6.70417">
        <ele>1789.9519</ele>
        <time>2014-08-27T13:39:30Z</time>
      </trkpt>
      <trkpt lat="46.33636" lon="6.70427">
        <ele>1789.9519</ele>
        <time>2014-08-27T13:39:35Z</time>
      </trkpt>
      <trkpt lat="46.33639" lon="6.70434">
        <ele>1789.0023</ele>
        <time>2014-08-27T13:39:40Z</time>
      </trkpt>
      <trkpt lat="46.33641" lon="6.70441">
        <ele>1789.0023</ele>
        <time>2014-08-27T13:39:45Z</time>
      </trkpt>
      <trkpt lat="46.33643" lon="6.70447">
        <ele>1787.9159</ele>
        <time>2014-08-27T13:39:50Z</time>
      </trkpt>
      <trkpt lat="46.33644" lon="6.70456">
        <ele>1787.9159</ele>
        <time>2014-08-27T13:39:55Z</time>
      </trkpt>
      <trkpt lat="46.33645" lon="6.70462">
        <ele>1786.6998</ele>
        <time>2014-08-27T13:40:00Z</time>
      </trkpt>
      <trkpt lat="46.33647" lon="6.70468">
        <ele>1786.6998</ele>
        <time>2014-08-27T13:40:05Z</time>
      </trkpt>
      <trkpt lat="46.3365" lon="6.70476">
        <ele>1785.4043</ele>
        <time>2014-08-27T13:40:10Z</time>
      </trkpt>
      <trkpt lat="46.33653" lon="6.70483">
        <ele>1785.4043</ele>
        <time>2014-08-27T13:40:15Z</time>
      </trkpt>
      <trkpt lat="46.33658" lon="6.70491">
        <ele>1784.061</ele>
        <time>2014-08-27T13:40:20Z</time>
      </trkpt>
      <trkpt lat="46.33661" lon="6.70497">
        <ele>1784.061</ele>
        <time>2014-08-27T13:40:25Z</time>
      </trkpt>
      <trkpt lat="46.33664" lon="6.705">
        <ele>1784.061</ele>
        <time>2014-08-27T13:40:30Z</time>
      </trkpt>
      <trkpt lat="46.33666" lon="6.70507">
        <ele>1782.6709</ele>
        <time>2014-08-27T13:40:35Z</time>
      </trkpt>
      <trkpt lat="46.33669" lon="6.70517">
        <ele>1782.6709</ele>
        <time>2014-08-27T13:40:40Z</time>
      </trkpt>
      <trkpt lat="46.33672" lon="6.70525">
        <ele>1781.2773</ele>
        <time>2014-08-27T13:40:45Z</time>
      </trkpt>
      <trkpt lat="46.33673" lon="6.70531">
        <ele>1781.2773</ele>
        <time>2014-08-27T13:40:50Z</time>
      </trkpt>
      <trkpt lat="46.33676" lon="6.70537">
        <ele>1779.8918</ele>
        <time>2014-08-27T13:40:55Z</time>
      </trkpt>
      <trkpt lat="46.33677" lon="6.70544">
        <ele>1779.8918</ele>
        <time>2014-08-27T13:41:00Z</time>
      </trkpt>
      <trkpt lat="46.33677" lon="6.70553">
        <ele>1778.539</ele>
        <time>2014-08-27T13:41:05Z</time>
      </trkpt>
      <trkpt lat="46.3368" lon="6.70561">
        <ele>1778.539</ele>
        <time>2014-08-27T13:41:10Z</time>
      </trkpt>
      <trkpt lat="46.33682" lon="6.70566">
        <ele>1777.2554</ele>
        <time>2014-08-27T13:41:15Z</time>
      </trkpt>
      <trkpt lat="46.33686" lon="6.70573">
        <ele>1777.2554</ele>
        <time>2014-08-27T13:41:20Z</time>
      </trkpt>
      <trkpt lat="46.33689" lon="6.70578">
        <ele>1776.0748</ele>
        <time>2014-08-27T13:41:25Z</time>
      </trkpt>
      <trkpt lat="46.33691" lon="6.70583">
        <ele>1776.0748</ele>
        <time>2014-08-27T13:41:30Z</time>
      </trkpt>
      <trkpt lat="46.33694" lon="6.70591">
        <ele>1774.9845</ele>
        <time>2014-08-27T13:41:35Z</time>
      </trkpt>
      <trkpt lat="46.33696" lon="6.706">
        <ele>1774.9845</ele>
        <time>2014-08-27T13:41:40Z</time>
      </trkpt>
      <trkpt lat="46.33698" lon="6.70607">
        <ele>1773.9432</ele>
        <time>2014-08-27T13:41:45Z</time>
      </trkpt>
      <trkpt lat="46.33699" lon="6.70611">
        <ele>1773.9432</ele>
        <time>2014-08-27T13:41:50Z</time>
      </trkpt>
      <trkpt lat="46.33699" lon="6.70619">
        <ele>1772.8834</ele>
        <time>2014-08-27T13:41:55Z</time>
      </trkpt>
      <trkpt lat="46.33699" lon="6.70627">
        <ele>1772.8834</ele>
        <time>2014-08-27T13:42:00Z</time>
      </trkpt>
      <trkpt lat="46.33699" lon="6.7063">
        <ele>1772.8834</ele>
        <time>2014-08-27T13:42:05Z</time>
      </trkpt>
      <trkpt lat="46.33699" lon="6.70629">
        <ele>1772.8834</ele>
        <time>2014-08-27T13:42:10Z</time>
      </trkpt>
      <trkpt lat="46.33699" lon="6.70629">
        <ele>1772.8834</ele>
        <time>2014-08-27T13:42:15Z</time>
      </trkpt>
      <trkpt lat="46.337" lon="6.7063">
        <ele>1771.728</ele>
        <time>2014-08-27T13:42:20Z</time>
      </trkpt>
      <trkpt lat="46.337" lon="6.70633">
        <ele>1771.728</ele>
        <time>2014-08-27T13:42:25Z</time>
      </trkpt>
      <trkpt lat="46.33699" lon="6.70632">
        <ele>1771.728</ele>
        <time>2014-08-27T13:42:30Z</time>
      </trkpt>
      <trkpt lat="46.33699" lon="6.70632">
        <ele>1771.728</ele>
        <time>2014-08-27T13:42:35Z</time>
      </trkpt>
      <trkpt lat="46.33699" lon="6.70632">
        <ele>1771.728</ele>
        <time>2014-08-27T13:42:40Z</time>
      </trkpt>
      <trkpt lat="46.33699" lon="6.70633">
        <ele>1771.728</ele>
        <time>2014-08-27T13:42:45Z</time>
      </trkpt>
      <trkpt lat="46.33699" lon="6.70633">
        <ele>1771.728</ele>
        <time>2014-08-27T13:42:50Z</time>
      </trkpt>
      <trkpt lat="46.33699" lon="6.70633">
        <ele>1771.728</ele>
        <time>2014-08-27T13:42:55Z</time>
      </trkpt>
      <trkpt lat="46.33699" lon="6.70632">
        <ele>1771.728</ele>
        <time>2014-08-27T13:43:00Z</time>
      </trkpt>
      <trkpt lat="46.33699" lon="6.70633">
        <ele>1771.728</ele>
        <time>2014-08-27T13:43:05Z</time>
      </trkpt>
      <trkpt lat="46.33699" lon="6.70633">
        <ele>1771.728</ele>
        <time>2014-08-27T13:43:10Z</time>
      </trkpt>
      <trkpt lat="46.33699" lon="6.70633">
        <ele>1771.728</ele>
        <time>2014-08-27T13:43:15Z</time>
      </trkpt>
      <trkpt lat="46.33699" lon="6.70633">
        <ele>1771.728</ele>
        <time>2014-08-27T13:43:20Z</time>
      </trkpt>
      <trkpt lat="46.33699" lon="6.70632">
        <ele>1771.728</ele>
        <time>2014-08-27T13:43:25Z</time>
      </trkpt>
      <trkpt lat="46.33699" lon="6.70631">
        <ele>1771.728</ele>
        <time>2014-08-27T13:43:30Z</time>
      </trkpt>
      <trkpt lat="46.33699" lon="6.70631">
        <ele>1771.728</ele>
        <time>2014-08-27T13:43:35Z</time>
      </trkpt>
      <trkpt lat="46.33699" lon="6.70632">
        <ele>1771.728</ele>
        <time>2014-08-27T13:43:40Z</time>
      </trkpt>
      <trkpt lat="46.33699" lon="6.7063">
        <ele>1771.728</ele>
        <time>2014-08-27T13:43:45Z</time>
      </trkpt>
      <trkpt lat="46.33699" lon="6.7063">
        <ele>1771.728</ele>
        <time>2014-08-27T13:43:50Z</time>
      </trkpt>
      <trkpt lat="46.33701" lon="6.70629">
        <ele>1770.7512</ele>
        <time>2014-08-27T13:43:55Z</time>
      </trkpt>
      <trkpt lat="46.33701" lon="6.70628">
        <ele>1770.7512</ele>
        <time>2014-08-27T13:44:00Z</time>
      </trkpt>
      <trkpt lat="46.33701" lon="6.70628">
        <ele>1770.7512</ele>
        <time>2014-08-27T13:44:05Z</time>
      </trkpt>
      <trkpt lat="46.33703" lon="6.70633">
        <ele>1770.7512</ele>
        <time>2014-08-27T13:44:10Z</time>
      </trkpt>
      <trkpt lat="46.33702" lon="6.70642">
        <ele>1769.8604</ele>
        <time>2014-08-27T13:44:15Z</time>
      </trkpt>
      <trkpt lat="46.33697" lon="6.70655">
        <ele>1768.9547</ele>
        <time>2014-08-27T13:44:20Z</time>
      </trkpt>
      <trkpt lat="46.33694" lon="6.70663">
        <ele>1768.9547</ele>
        <time>2014-08-27T13:44:25Z</time>
      </trkpt>
      <trkpt lat="46.33692" lon="6.70669">
        <ele>1768.0128</ele>
        <time>2014-08-27T13:44:30Z</time>
      </trkpt>
      <trkpt lat="46.33689" lon="6.70676">
        <ele>1768.0128</ele>
        <time>2014-08-27T13:44:35Z</time>
      </trkpt>
      <trkpt lat="46.33688" lon="6.7068">
        <ele>1768.0128</ele>
        <time>2014-08-27T13:44:40Z</time>
      </trkpt>
      <trkpt lat="46.33687" lon="6.70681">
        <ele>1766.9856</ele>
        <time>2014-08-27T13:44:45Z</time>
      </trkpt>
      <trkpt lat="46.33687" lon="6.70681">
        <ele>1766.9856</ele>
        <time>2014-08-27T13:44:50Z</time>
      </trkpt>
      <trkpt lat="46.33687" lon="6.70681">
        <ele>1766.9856</ele>
        <time>2014-08-27T13:44:55Z</time>
      </trkpt>
      <trkpt lat="46.33688" lon="6.70686">
        <ele>1766.9856</ele>
        <time>2014-08-27T13:45:00Z</time>
      </trkpt>
      <trkpt lat="46.33689" lon="6.70697">
        <ele>1765.8997</ele>
        <time>2014-08-27T13:45:05Z</time>
      </trkpt>
      <trkpt lat="46.33689" lon="6.70703">
        <ele>1765.8997</ele>
        <time>2014-08-27T13:45:10Z</time>
      </trkpt>
      <trkpt lat="46.33688" lon="6.7071">
        <ele>1764.7793</ele>
        <time>2014-08-27T13:45:15Z</time>
      </trkpt>
      <trkpt lat="46.33689" lon="6.7071">
        <ele>1764.7793</ele>
        <time>2014-08-27T13:45:20Z</time>
      </trkpt>
      <trkpt lat="46.33689" lon="6.7071">
        <ele>1764.7793</ele>
        <time>2014-08-27T13:45:25Z</time>
      </trkpt>
      <trkpt lat="46.33689" lon="6.70715">
        <ele>1764.7793</ele>
        <time>2014-08-27T13:45:30Z</time>
      </trkpt>
      <trkpt lat="46.33689" lon="6.70723">
        <ele>1763.6039</ele>
        <time>2014-08-27T13:45:35Z</time>
      </trkpt>
      <trkpt lat="46.3369" lon="6.70734">
        <ele>1763.6039</ele>
        <time>2014-08-27T13:45:40Z</time>
      </trkpt>
      <trkpt lat="46.3369" lon="6.7074">
        <ele>1762.4838</ele>
        <time>2014-08-27T13:45:45Z</time>
      </trkpt>
      <trkpt lat="46.33692" lon="6.70748">
        <ele>1762.4838</ele>
        <time>2014-08-27T13:45:50Z</time>
      </trkpt>
      <trkpt lat="46.33692" lon="6.70751">
        <ele>1762.4838</ele>
        <time>2014-08-27T13:45:55Z</time>
      </trkpt>
      <trkpt lat="46.33693" lon="6.70758">
        <ele>1761.146</ele>
        <time>2014-08-27T13:46:00Z</time>
      </trkpt>
      <trkpt lat="46.33692" lon="6.70764">
        <ele>1761.146</ele>
        <time>2014-08-27T13:46:05Z</time>
      </trkpt>
      <trkpt lat="46.33693" lon="6.70772">
        <ele>1759.8281</ele>
        <time>2014-08-27T13:46:10Z</time>
      </trkpt>
      <trkpt lat="46.33695" lon="6.70778">
        <ele>1759.8281</ele>
        <time>2014-08-27T13:46:15Z</time>
      </trkpt>
      <trkpt lat="46.33698" lon="6.70792">
        <ele>1758.4902</ele>
        <time>2014-08-27T13:46:20Z</time>
      </trkpt>
      <trkpt lat="46.337" lon="6.708">
        <ele>1758.4902</ele>
        <time>2014-08-27T13:46:25Z</time>
      </trkpt>
      <trkpt lat="46.33701" lon="6.70811">
        <ele>1757.2396</ele>
        <time>2014-08-27T13:46:30Z</time>
      </trkpt>
      <trkpt lat="46.33703" lon="6.7082">
        <ele>1757.2396</ele>
        <time>2014-08-27T13:46:35Z</time>
      </trkpt>
      <trkpt lat="46.33706" lon="6.70827">
        <ele>1756.0162</ele>
        <time>2014-08-27T13:46:40Z</time>
      </trkpt>
      <trkpt lat="46.33709" lon="6.70832">
        <ele>1756.0162</ele>
        <time>2014-08-27T13:46:45Z</time>
      </trkpt>
      <trkpt lat="46.33714" lon="6.70836">
        <ele>1754.8511</ele>
        <time>2014-08-27T13:46:50Z</time>
      </trkpt>
      <trkpt lat="46.33718" lon="6.70842">
        <ele>1754.8511</ele>
        <time>2014-08-27T13:46:55Z</time>
      </trkpt>
      <trkpt lat="46.33721" lon="6.70848">
        <ele>1753.7433</ele>
        <time>2014-08-27T13:47:00Z</time>
      </trkpt>
      <trkpt lat="46.33724" lon="6.70853">
        <ele>1753.7433</ele>
        <time>2014-08-27T13:47:05Z</time>
      </trkpt>
      <trkpt lat="46.33728" lon="6.70859">
        <ele>1752.7351</ele>
        <time>2014-08-27T13:47:10Z</time>
      </trkpt>
      <trkpt lat="46.3373" lon="6.70862">
        <ele>1752.7351</ele>
        <time>2014-08-27T13:47:15Z</time>
      </trkpt>
      <trkpt lat="46.33731" lon="6.70865">
        <ele>1752.7351</ele>
        <time>2014-08-27T13:47:20Z</time>
      </trkpt>
      <trkpt lat="46.33734" lon="6.70868">
        <ele>1752.7351</ele>
        <time>2014-08-27T13:47:25Z</time>
      </trkpt>
      <trkpt lat="46.33736" lon="6.70869">
        <ele>1751.9225</ele>
        <time>2014-08-27T13:47:30Z</time>
      </trkpt>
      <trkpt lat="46.33739" lon="6.70872">
        <ele>1751.9225</ele>
        <time>2014-08-27T13:47:35Z</time>
      </trkpt>
      <trkpt lat="46.3374" lon="6.70875">
        <ele>1751.9225</ele>
        <time>2014-08-27T13:47:40Z</time>
      </trkpt>
      <trkpt lat="46.33741" lon="6.70881">
        <ele>1751.4948</ele>
        <time>2014-08-27T13:47:45Z</time>
      </trkpt>
      <trkpt lat="46.33742" lon="6.70883">
        <ele>1751.4948</ele>
        <time>2014-08-27T13:47:50Z</time>
      </trkpt>
      <trkpt lat="46.33745" lon="6.70886">
        <ele>1751.4948</ele>
        <time>2014-08-27T13:47:55Z</time>
      </trkpt>
      <trkpt lat="46.33748" lon="6.7089">
        <ele>1751.4386</ele>
        <time>2014-08-27T13:48:00Z</time>
      </trkpt>
      <trkpt lat="46.33749" lon="6.70891">
        <ele>1751.4386</ele>
        <time>2014-08-27T13:48:05Z</time>
      </trkpt>
      <trkpt lat="46.3375" lon="6.70893">
        <ele>1751.4386</ele>
        <time>2014-08-27T13:48:10Z</time>
      </trkpt>
      <trkpt lat="46.33752" lon="6.70896">
        <ele>1751.4386</ele>
        <time>2014-08-27T13:48:15Z</time>
      </trkpt>
      <trkpt lat="46.33753" lon="6.70897">
        <ele>1751.4386</ele>
        <time>2014-08-27T13:48:20Z</time>
      </trkpt>
      <trkpt lat="46.33754" lon="6.70901">
        <ele>1751.6827</ele>
        <time>2014-08-27T13:48:25Z</time>
      </trkpt>
      <trkpt lat="46.33755" lon="6.70905">
        <ele>1751.6827</ele>
        <time>2014-08-27T13:48:30Z</time>
      </trkpt>
      <trkpt lat="46.33756" lon="6.70909">
        <ele>1751.6827</ele>
        <time>2014-08-27T13:48:35Z</time>
      </trkpt>
      <trkpt lat="46.33759" lon="6.70913">
        <ele>1752.1892</ele>
        <time>2014-08-27T13:48:40Z</time>
      </trkpt>
      <trkpt lat="46.33761" lon="6.70917">
        <ele>1752.1892</ele>
        <time>2014-08-27T13:48:45Z</time>
      </trkpt>
      <trkpt lat="46.33764" lon="6.7092">
        <ele>1752.1892</ele>
        <time>2014-08-27T13:48:50Z</time>
      </trkpt>
      <trkpt lat="46.33766" lon="6.70922">
        <ele>1752.9937</ele>
        <time>2014-08-27T13:48:55Z</time>
      </trkpt>
      <trkpt lat="46.33769" lon="6.70927">
        <ele>1752.9937</ele>
        <time>2014-08-27T13:49:00Z</time>
      </trkpt>
      <trkpt lat="46.33771" lon="6.70929">
        <ele>1752.9937</ele>
        <time>2014-08-27T13:49:05Z</time>
      </trkpt>
      <trkpt lat="46.33773" lon="6.70934">
        <ele>1754.0128</ele>
        <time>2014-08-27T13:49:10Z</time>
      </trkpt>
      <trkpt lat="46.33774" lon="6.70936">
        <ele>1754.0128</ele>
        <time>2014-08-27T13:49:15Z</time>
      </trkpt>
      <trkpt lat="46.33777" lon="6.70939">
        <ele>1754.0128</ele>
        <time>2014-08-27T13:49:20Z</time>
      </trkpt>
      <trkpt lat="46.3378" lon="6.7094">
        <ele>1754.0128</ele>
        <time>2014-08-27T13:49:25Z</time>
      </trkpt>
      <trkpt lat="46.33781" lon="6.70942">
        <ele>1755.299</ele>
        <time>2014-08-27T13:49:30Z</time>
      </trkpt>
      <trkpt lat="46.33782" lon="6.70939">
        <ele>1755.299</ele>
        <time>2014-08-27T13:49:35Z</time>
      </trkpt>
      <trkpt lat="46.33781" lon="6.70938">
        <ele>1755.299</ele>
        <time>2014-08-27T13:49:40Z</time>
      </trkpt>
      <trkpt lat="46.3378" lon="6.70938">
        <ele>1755.299</ele>
        <time>2014-08-27T13:49:45Z</time>
      </trkpt>
      <trkpt lat="46.3378" lon="6.70939">
        <ele>1755.299</ele>
        <time>2014-08-27T13:49:50Z</time>
      </trkpt>
      <trkpt lat="46.33779" lon="6.70939">
        <ele>1755.299</ele>
        <time>2014-08-27T13:49:55Z</time>
      </trkpt>
      <trkpt lat="46.33779" lon="6.7094">
        <ele>1755.299</ele>
        <time>2014-08-27T13:50:00Z</time>
      </trkpt>
      <trkpt lat="46.33779" lon="6.70941">
        <ele>1755.299</ele>
        <time>2014-08-27T13:50:05Z</time>
      </trkpt>
      <trkpt lat="46.33779" lon="6.70942">
        <ele>1755.299</ele>
        <time>2014-08-27T13:50:10Z</time>
      </trkpt>
      <trkpt lat="46.3378" lon="6.70941">
        <ele>1755.299</ele>
        <time>2014-08-27T13:50:15Z</time>
      </trkpt>
      <trkpt lat="46.33781" lon="6.70941">
        <ele>1757.2596</ele>
        <time>2014-08-27T13:50:20Z</time>
      </trkpt>
      <trkpt lat="46.33782" lon="6.70942">
        <ele>1757.2596</ele>
        <time>2014-08-27T13:50:25Z</time>
      </trkpt>
      <trkpt lat="46.3378" lon="6.70944">
        <ele>1757.2596</ele>
        <time>2014-08-27T13:50:30Z</time>
      </trkpt>
      <trkpt lat="46.33776" lon="6.70949">
        <ele>1757.2596</ele>
        <time>2014-08-27T13:50:35Z</time>
      </trkpt>
      <trkpt lat="46.33776" lon="6.70952">
        <ele>1759.3624</ele>
        <time>2014-08-27T13:50:40Z</time>
      </trkpt>
      <trkpt lat="46.33774" lon="6.70958">
        <ele>1759.3624</ele>
        <time>2014-08-27T13:50:45Z</time>
      </trkpt>
      <trkpt lat="46.33773" lon="6.70965">
        <ele>1761.2004</ele>
        <time>2014-08-27T13:50:50Z</time>
      </trkpt>
      <trkpt lat="46.33772" lon="6.70971">
        <ele>1761.2004</ele>
        <time>2014-08-27T13:50:55Z</time>
      </trkpt>
      <trkpt lat="46.33772" lon="6.70971">
        <ele>1761.2004</ele>
        <time>2014-08-27T13:51:00Z</time>
      </trkpt>
      <trkpt lat="46.33773" lon="6.7097">
        <ele>1761.2004</ele>
        <time>2014-08-27T13:51:05Z</time>
      </trkpt>
      <trkpt lat="46.33774" lon="6.70969">
        <ele>1761.2004</ele>
        <time>2014-08-27T13:51:10Z</time>
      </trkpt>
      <trkpt lat="46.33775" lon="6.70969">
        <ele>1761.2004</ele>
        <time>2014-08-27T13:51:15Z</time>
      </trkpt>
      <trkpt lat="46.33775" lon="6.70971">
        <ele>1761.2004</ele>
        <time>2014-08-27T13:51:20Z</time>
      </trkpt>
      <trkpt lat="46.33776" lon="6.70971">
        <ele>1761.2004</ele>
        <time>2014-08-27T13:51:25Z</time>
      </trkpt>
      <trkpt lat="46.33777" lon="6.70972">
        <ele>1762.671</ele>
        <time>2014-08-27T13:51:30Z</time>
      </trkpt>
      <trkpt lat="46.33777" lon="6.70972">
        <ele>1762.671</ele>
        <time>2014-08-27T13:51:35Z</time>
      </trkpt>
      <trkpt lat="46.33777" lon="6.70971">
        <ele>1762.671</ele>
        <time>2014-08-27T13:51:40Z</time>
      </trkpt>
      <trkpt lat="46.33777" lon="6.7097">
        <ele>1762.671</ele>
        <time>2014-08-27T13:51:45Z</time>
      </trkpt>
      <trkpt lat="46.33777" lon="6.70969">
        <ele>1762.671</ele>
        <time>2014-08-27T13:51:50Z</time>
      </trkpt>
      <trkpt lat="46.33777" lon="6.70968">
        <ele>1762.671</ele>
        <time>2014-08-27T13:51:55Z</time>
      </trkpt>
      <trkpt lat="46.33778" lon="6.70968">
        <ele>1762.671</ele>
        <time>2014-08-27T13:52:00Z</time>
      </trkpt>
      <trkpt lat="46.33777" lon="6.7097">
        <ele>1762.671</ele>
        <time>2014-08-27T13:52:05Z</time>
      </trkpt>
      <trkpt lat="46.33776" lon="6.70974">
        <ele>1762.671</ele>
        <time>2014-08-27T13:52:10Z</time>
      </trkpt>
      <trkpt lat="46.33773" lon="6.70981">
        <ele>1763.7953</ele>
        <time>2014-08-27T13:52:15Z</time>
      </trkpt>
      <trkpt lat="46.33771" lon="6.70994">
        <ele>1764.738</ele>
        <time>2014-08-27T13:52:20Z</time>
      </trkpt>
      <trkpt lat="46.33768" lon="6.71">
        <ele>1764.738</ele>
        <time>2014-08-27T13:52:25Z</time>
      </trkpt>
      <trkpt lat="46.33767" lon="6.71005">
        <ele>1764.738</ele>
        <time>2014-08-27T13:52:30Z</time>
      </trkpt>
      <trkpt lat="46.33765" lon="6.71013">
        <ele>1765.4219</ele>
        <time>2014-08-27T13:52:35Z</time>
      </trkpt>
      <trkpt lat="46.33761" lon="6.7102">
        <ele>1765.4219</ele>
        <time>2014-08-27T13:52:40Z</time>
      </trkpt>
      <trkpt lat="46.3376" lon="6.71029">
        <ele>1765.8335</ele>
        <time>2014-08-27T13:52:45Z</time>
      </trkpt>
      <trkpt lat="46.33759" lon="6.71034">
        <ele>1765.8335</ele>
        <time>2014-08-27T13:52:50Z</time>
      </trkpt>
      <trkpt lat="46.33757" lon="6.71038">
        <ele>1765.8335</ele>
        <time>2014-08-27T13:52:55Z</time>
      </trkpt>
      <trkpt lat="46.33754" lon="6.71046">
        <ele>1765.7742</ele>
        <time>2014-08-27T13:53:00Z</time>
      </trkpt>
      <trkpt lat="46.33753" lon="6.7105">
        <ele>1765.7742</ele>
        <time>2014-08-27T13:53:05Z</time>
      </trkpt>
      <trkpt lat="46.33752" lon="6.71051">
        <ele>1765.7742</ele>
        <time>2014-08-27T13:53:10Z</time>
      </trkpt>
      <trkpt lat="46.3375" lon="6.71052">
        <ele>1765.7742</ele>
        <time>2014-08-27T13:53:15Z</time>
      </trkpt>
      <trkpt lat="46.33749" lon="6.71052">
        <ele>1765.7742</ele>
        <time>2014-08-27T13:53:20Z</time>
      </trkpt>
      <trkpt lat="46.3375" lon="6.71053">
        <ele>1765.7742</ele>
        <time>2014-08-27T13:53:25Z</time>
      </trkpt>
      <trkpt lat="46.33749" lon="6.71053">
        <ele>1765.7742</ele>
        <time>2014-08-27T13:53:30Z</time>
      </trkpt>
      <trkpt lat="46.33749" lon="6.71055">
        <ele>1765.5364</ele>
        <time>2014-08-27T13:53:35Z</time>
      </trkpt>
      <trkpt lat="46.33749" lon="6.71061">
        <ele>1765.5364</ele>
        <time>2014-08-27T13:53:40Z</time>
      </trkpt>
      <trkpt lat="46.33748" lon="6.71068">
        <ele>1765.5364</ele>
        <time>2014-08-27T13:53:45Z</time>
      </trkpt>
      <trkpt lat="46.33752" lon="6.71075">
        <ele>1765.0605</ele>
        <time>2014-08-27T13:53:50Z</time>
      </trkpt>
      <trkpt lat="46.33752" lon="6.7108">
        <ele>1765.0605</ele>
        <time>2014-08-27T13:53:55Z</time>
      </trkpt>
      <trkpt lat="46.33753" lon="6.71086">
        <ele>1765.0605</ele>
        <time>2014-08-27T13:54:00Z</time>
      </trkpt>
      <trkpt lat="46.33754" lon="6.71087">
        <ele>1765.0605</ele>
        <time>2014-08-27T13:54:05Z</time>
      </trkpt>
      <trkpt lat="46.33755" lon="6.71086">
        <ele>1764.4794</ele>
        <time>2014-08-27T13:54:10Z</time>
      </trkpt>
      <trkpt lat="46.33758" lon="6.71087">
        <ele>1764.4794</ele>
        <time>2014-08-27T13:54:15Z</time>
      </trkpt>
      <trkpt lat="46.33761" lon="6.71093">
        <ele>1764.4794</ele>
        <time>2014-08-27T13:54:20Z</time>
      </trkpt>
      <trkpt lat="46.33761" lon="6.71094">
        <ele>1764.4794</ele>
        <time>2014-08-27T13:54:25Z</time>
      </trkpt>
      <trkpt lat="46.33761" lon="6.71095">
        <ele>1763.9739</ele>
        <time>2014-08-27T13:54:30Z</time>
      </trkpt>
      <trkpt lat="46.33762" lon="6.71096">
        <ele>1763.9739</ele>
        <time>2014-08-27T13:54:35Z</time>
      </trkpt>
      <trkpt lat="46.33761" lon="6.71096">
        <ele>1763.9739</ele>
        <time>2014-08-27T13:54:40Z</time>
      </trkpt>
      <trkpt lat="46.33761" lon="6.71095">
        <ele>1763.9739</ele>
        <time>2014-08-27T13:54:45Z</time>
      </trkpt>
      <trkpt lat="46.33762" lon="6.71095">
        <ele>1763.9739</ele>
        <time>2014-08-27T13:54:50Z</time>
      </trkpt>
      <trkpt lat="46.33761" lon="6.71094">
        <ele>1763.9739</ele>
        <time>2014-08-27T13:54:55Z</time>
      </trkpt>
      <trkpt lat="46.33762" lon="6.71094">
        <ele>1763.9739</ele>
        <time>2014-08-27T13:55:00Z</time>
      </trkpt>
      <trkpt lat="46.33762" lon="6.71094">
        <ele>1763.9739</ele>
        <time>2014-08-27T13:55:05Z</time>
      </trkpt>
      <trkpt lat="46.33761" lon="6.71095">
        <ele>1763.9739</ele>
        <time>2014-08-27T13:55:10Z</time>
      </trkpt>
      <trkpt lat="46.33761" lon="6.71096">
        <ele>1763.9739</ele>
        <time>2014-08-27T13:55:15Z</time>
      </trkpt>
      <trkpt lat="46.3376" lon="6.71096">
        <ele>1763.9739</ele>
        <time>2014-08-27T13:55:20Z</time>
      </trkpt>
      <trkpt lat="46.33759" lon="6.71096">
        <ele>1763.9739</ele>
        <time>2014-08-27T13:55:25Z</time>
      </trkpt>
      <trkpt lat="46.33759" lon="6.71096">
        <ele>1763.9739</ele>
        <time>2014-08-27T13:55:30Z</time>
      </trkpt>
      <trkpt lat="46.33759" lon="6.71097">
        <ele>1763.9739</ele>
        <time>2014-08-27T13:55:35Z</time>
      </trkpt>
      <trkpt lat="46.33759" lon="6.71096">
        <ele>1763.9739</ele>
        <time>2014-08-27T13:55:40Z</time>
      </trkpt>
      <trkpt lat="46.33759" lon="6.71096">
        <ele>1763.9739</ele>
        <time>2014-08-27T13:55:45Z</time>
      </trkpt>
      <trkpt lat="46.33759" lon="6.71095">
        <ele>1763.4233</ele>
        <time>2014-08-27T13:55:50Z</time>
      </trkpt>
      <trkpt lat="46.3376" lon="6.71094">
        <ele>1763.4233</ele>
        <time>2014-08-27T13:55:55Z</time>
      </trkpt>
      <trkpt lat="46.3376" lon="6.71094">
        <ele>1763.4233</ele>
        <time>2014-08-27T13:56:00Z</time>
      </trkpt>
      <trkpt lat="46.33759" lon="6.71094">
        <ele>1763.4233</ele>
        <time>2014-08-27T13:56:05Z</time>
      </trkpt>
      <trkpt lat="46.33758" lon="6.71093">
        <ele>1763.4233</ele>
        <time>2014-08-27T13:56:10Z</time>
      </trkpt>
      <trkpt lat="46.33757" lon="6.71093">
        <ele>1763.4233</ele>
        <time>2014-08-27T13:56:15Z</time>
      </trkpt>
      <trkpt lat="46.33756" lon="6.71093">
        <ele>1763.4233</ele>
        <time>2014-08-27T13:56:20Z</time>
      </trkpt>
      <trkpt lat="46.33755" lon="6.71093">
        <ele>1763.4233</ele>
        <time>2014-08-27T13:56:25Z</time>
      </trkpt>
      <trkpt lat="46.33754" lon="6.71092">
        <ele>1763.4233</ele>
        <time>2014-08-27T13:56:30Z</time>
      </trkpt>
      <trkpt lat="46.33755" lon="6.71092">
        <ele>1763.4233</ele>
        <time>2014-08-27T13:56:35Z</time>
      </trkpt>
      <trkpt lat="46.33756" lon="6.71091">
        <ele>1763.4233</ele>
        <time>2014-08-27T13:56:40Z</time>
      </trkpt>
      <trkpt lat="46.33756" lon="6.71092">
        <ele>1763.4233</ele>
        <time>2014-08-27T13:56:45Z</time>
      </trkpt>
      <trkpt lat="46.33757" lon="6.71091">
        <ele>1763.4233</ele>
        <time>2014-08-27T13:56:50Z</time>
      </trkpt>
      <trkpt lat="46.33758" lon="6.7109">
        <ele>1762.9899</ele>
        <time>2014-08-27T13:56:55Z</time>
      </trkpt>
      <trkpt lat="46.33758" lon="6.71091">
        <ele>1762.9899</ele>
        <time>2014-08-27T13:57:00Z</time>
      </trkpt>
      <trkpt lat="46.3376" lon="6.71093">
        <ele>1762.9899</ele>
        <time>2014-08-27T13:57:05Z</time>
      </trkpt>
      <trkpt lat="46.3376" lon="6.71093">
        <ele>1762.9899</ele>
        <time>2014-08-27T13:57:10Z</time>
      </trkpt>
      <trkpt lat="46.33757" lon="6.7109">
        <ele>1762.9899</ele>
        <time>2014-08-27T13:57:15Z</time>
      </trkpt>
      <trkpt lat="46.33754" lon="6.71087">
        <ele>1762.4775</ele>
        <time>2014-08-27T13:57:20Z</time>
      </trkpt>
      <trkpt lat="46.33752" lon="6.71089">
        <ele>1762.4775</ele>
        <time>2014-08-27T13:57:25Z</time>
      </trkpt>
      <trkpt lat="46.33753" lon="6.71089">
        <ele>1762.4775</ele>
        <time>2014-08-27T13:57:30Z</time>
      </trkpt>
      <trkpt lat="46.33753" lon="6.7109">
        <ele>1762.4775</ele>
        <time>2014-08-27T13:57:35Z</time>
      </trkpt>
      <trkpt lat="46.33753" lon="6.7109">
        <ele>1762.4775</ele>
        <time>2014-08-27T13:57:40Z</time>
      </trkpt>
      <trkpt lat="46.33753" lon="6.71098">
        <ele>1762.4775</ele>
        <time>2014-08-27T13:57:45Z</time>
      </trkpt>
      <trkpt lat="46.33752" lon="6.71107">
        <ele>1762.2239</ele>
        <time>2014-08-27T13:57:50Z</time>
      </trkpt>
      <trkpt lat="46.33752" lon="6.71116">
        <ele>1762.2239</ele>
        <time>2014-08-27T13:57:55Z</time>
      </trkpt>
      <trkpt lat="46.33752" lon="6.7112">
        <ele>1762.2239</ele>
        <time>2014-08-27T13:58:00Z</time>
      </trkpt>
      <trkpt lat="46.33748" lon="6.71129">
        <ele>1761.7628</ele>
        <time>2014-08-27T13:58:05Z</time>
      </trkpt>
      <trkpt lat="46.33749" lon="6.71137">
        <ele>1761.7628</ele>
        <time>2014-08-27T13:58:10Z</time>
      </trkpt>
      <trkpt lat="46.33752" lon="6.71144">
        <ele>1761.297</ele>
        <time>2014-08-27T13:58:15Z</time>
      </trkpt>
      <trkpt lat="46.33753" lon="6.71149">
        <ele>1761.297</ele>
        <time>2014-08-27T13:58:20Z</time>
      </trkpt>
      <trkpt lat="46.33754" lon="6.71156">
        <ele>1761.297</ele>
        <time>2014-08-27T13:58:25Z</time>
      </trkpt>
      <trkpt lat="46.33753" lon="6.71162">
        <ele>1760.8848</ele>
        <time>2014-08-27T13:58:30Z</time>
      </trkpt>
      <trkpt lat="46.33754" lon="6.71169">
        <ele>1760.8848</ele>
        <time>2014-08-27T13:58:35Z</time>
      </trkpt>
      <trkpt lat="46.33756" lon="6.71173">
        <ele>1760.8848</ele>
        <time>2014-08-27T13:58:40Z</time>
      </trkpt>
      <trkpt lat="46.33756" lon="6.71178">
        <ele>1760.5077</ele>
        <time>2014-08-27T13:58:45Z</time>
      </trkpt>
      <trkpt lat="46.33756" lon="6.71181">
        <ele>1760.5077</ele>
        <time>2014-08-27T13:58:50Z</time>
      </trkpt>
      <trkpt lat="46.33757" lon="6.71179">
        <ele>1760.5077</ele>
        <time>2014-08-27T13:58:55Z</time>
      </trkpt>
      <trkpt lat="46.33757" lon="6.71178">
        <ele>1760.5077</ele>
        <time>2014-08-27T13:59:00Z</time>
      </trkpt>
      <trkpt lat="46.33757" lon="6.71177">
        <ele>1760.5077</ele>
        <time>2014-08-27T13:59:05Z</time>
      </trkpt>
      <trkpt lat="46.33757" lon="6.71176">
        <ele>1760.5077</ele>
        <time>2014-08-27T13:59:10Z</time>
      </trkpt>
      <trkpt lat="46.33758" lon="6.71177">
        <ele>1760.5077</ele>
        <time>2014-08-27T13:59:15Z</time>
      </trkpt>
      <trkpt lat="46.3376" lon="6.71179">
        <ele>1760.5077</ele>
        <time>2014-08-27T13:59:20Z</time>
      </trkpt>
      <trkpt lat="46.33761" lon="6.71183">
        <ele>1760.2211</ele>
        <time>2014-08-27T13:59:25Z</time>
      </trkpt>
      <trkpt lat="46.33762" lon="6.71187">
        <ele>1760.2211</ele>
        <time>2014-08-27T13:59:30Z</time>
      </trkpt>
      <trkpt lat="46.33763" lon="6.71191">
        <ele>1760.2211</ele>
        <time>2014-08-27T13:59:35Z</time>
      </trkpt>
      <trkpt lat="46.33764" lon="6.71198">
        <ele>1760.018</ele>
        <time>2014-08-27T13:59:40Z</time>
      </trkpt>
      <trkpt lat="46.33765" lon="6.71203">
        <ele>1760.018</ele>
        <time>2014-08-27T13:59:45Z</time>
      </trkpt>
      <trkpt lat="46.33766" lon="6.71207">
        <ele>1760.018</ele>
        <time>2014-08-27T13:59:50Z</time>
      </trkpt>
      <trkpt lat="46.33768" lon="6.71211">
        <ele>1759.9637</ele>
        <time>2014-08-27T13:59:55Z</time>
      </trkpt>
      <trkpt lat="46.33768" lon="6.71213">
        <ele>1759.9637</ele>
        <time>2014-08-27T14:00:00Z</time>
      </trkpt>
      <trkpt lat="46.33768" lon="6.71216">
        <ele>1759.9637</ele>
        <time>2014-08-27T14:00:05Z</time>
      </trkpt>
      <trkpt lat="46.33769" lon="6.7122">
        <ele>1759.9637</ele>
        <time>2014-08-27T14:00:10Z</time>
      </trkpt>
      <trkpt lat="46.3377" lon="6.71223">
        <ele>1759.9637</ele>
        <time>2014-08-27T14:00:15Z</time>
      </trkpt>
      <trkpt lat="46.3377" lon="6.71223">
        <ele>1760.0901</ele>
        <time>2014-08-27T14:00:20Z</time>
      </trkpt>
      <trkpt lat="46.33771" lon="6.71223">
        <ele>1760.0901</ele>
        <time>2014-08-27T14:00:25Z</time>
      </trkpt>
      <trkpt lat="46.33771" lon="6.71223">
        <ele>1760.0901</ele>
        <time>2014-08-27T14:00:30Z</time>
      </trkpt>
      <trkpt lat="46.33772" lon="6.71223">
        <ele>1760.0901</ele>
        <time>2014-08-27T14:00:35Z</time>
      </trkpt>
      <trkpt lat="46.33772" lon="6.71225">
        <ele>1760.0901</ele>
        <time>2014-08-27T14:00:40Z</time>
      </trkpt>
      <trkpt lat="46.33772" lon="6.71225">
        <ele>1760.0901</ele>
        <time>2014-08-27T14:00:45Z</time>
      </trkpt>
      <trkpt lat="46.33772" lon="6.71225">
        <ele>1760.0901</ele>
        <time>2014-08-27T14:00:50Z</time>
      </trkpt>
      <trkpt lat="46.33773" lon="6.71224">
        <ele>1760.0901</ele>
        <time>2014-08-27T14:00:55Z</time>
      </trkpt>
      <trkpt lat="46.33771" lon="6.71219">
        <ele>1760.0901</ele>
        <time>2014-08-27T14:01:00Z</time>
      </trkpt>
      <trkpt lat="46.33768" lon="6.7121">
        <ele>1760.9443</ele>
        <time>2014-08-27T14:01:05Z</time>
      </trkpt>
      <trkpt lat="46.33765" lon="6.71202">
        <ele>1760.9443</ele>
        <time>2014-08-27T14:01:10Z</time>
      </trkpt>
      <trkpt lat="46.3376" lon="6.71197">
        <ele>1761.8357</ele>
        <time>2014-08-27T14:01:15Z</time>
      </trkpt>
      <trkpt lat="46.33759" lon="6.71192">
        <ele>1761.8357</ele>
        <time>2014-08-27T14:01:20Z</time>
      </trkpt>
      <trkpt lat="46.33757" lon="6.71183">
        <ele>1762.6426</ele>
        <time>2014-08-27T14:01:25Z</time>
      </trkpt>
      <trkpt lat="46.33758" lon="6.71175">
        <ele>1762.6426</ele>
        <time>2014-08-27T14:01:30Z</time>
      </trkpt>
      <trkpt lat="46.33759" lon="6.71166">
        <ele>1763.4115</ele>
        <time>2014-08-27T14:01:35Z</time>
      </trkpt>
      <trkpt lat="46.33759" lon="6.7116">
        <ele>1763.4115</ele>
        <time>2014-08-27T14:01:40Z</time>
      </trkpt>
      <trkpt lat="46.33758" lon="6.71154">
        <ele>1763.4115</ele>
        <time>2014-08-27T14:01:45Z</time>
      </trkpt>
      <trkpt lat="46.33755" lon="6.71146">
        <ele>1763.9117</ele>
        <time>2014-08-27T14:01:50Z</time>
      </trkpt>
      <trkpt lat="46.33754" lon="6.71136">
        <ele>1763.9117</ele>
        <time>2014-08-27T14:01:55Z</time>
      </trkpt>
      <trkpt lat="46.33755" lon="6.71125">
        <ele>1764.1895</ele>
        <time>2014-08-27T14:02:00Z</time>
      </trkpt>
      <trkpt lat="46.33755" lon="6.71116">
        <ele>1764.1895</ele>
        <time>2014-08-27T14:02:05Z</time>
      </trkpt>
      <trkpt lat="46.33757" lon="6.7111">
        <ele>1764.3174</ele>
        <time>2014-08-27T14:02:10Z</time>
      </trkpt>
      <trkpt lat="46.33756" lon="6.71103">
        <ele>1764.3174</ele>
        <time>2014-08-27T14:02:15Z</time>
      </trkpt>
      <trkpt lat="46.33757" lon="6.71097">
        <ele>1764.3485</ele>
        <time>2014-08-27T14:02:20Z</time>
      </trkpt>
      <trkpt lat="46.33758" lon="6.71093">
        <ele>1764.3485</ele>
        <time>2014-08-27T14:02:25Z</time>
      </trkpt>
      <trkpt lat="46.33757" lon="6.7109">
        <ele>1764.3485</ele>
        <time>2014-08-27T14:02:30Z</time>
      </trkpt>
      <trkpt lat="46.33759" lon="6.7109">
        <ele>1764.3485</ele>
        <time>2014-08-27T14:02:35Z</time>
      </trkpt>
      <trkpt lat="46.33764" lon="6.71092">
        <ele>1764.1742</ele>
        <time>2014-08-27T14:02:40Z</time>
      </trkpt>
      <trkpt lat="46.33763" lon="6.71094">
        <ele>1764.1742</ele>
        <time>2014-08-27T14:02:45Z</time>
      </trkpt>
      <trkpt lat="46.33764" lon="6.71097">
        <ele>1764.1742</ele>
        <time>2014-08-27T14:02:50Z</time>
      </trkpt>
      <trkpt lat="46.33765" lon="6.71099">
        <ele>1764.1742</ele>
        <time>2014-08-27T14:02:55Z</time>
      </trkpt>
      <trkpt lat="46.33765" lon="6.71102">
        <ele>1764.1742</ele>
        <time>2014-08-27T14:03:00Z</time>
      </trkpt>
      <trkpt lat="46.33765" lon="6.71105">
        <ele>1763.5355</ele>
        <time>2014-08-27T14:03:05Z</time>
      </trkpt>
      <trkpt lat="46.33764" lon="6.7111">
        <ele>1763.5355</ele>
        <time>2014-08-27T14:03:10Z</time>
      </trkpt>
      <trkpt lat="46.33763" lon="6.71115">
        <ele>1763.5355</ele>
        <time>2014-08-27T14:03:15Z</time>
      </trkpt>
      <trkpt lat="46.33764" lon="6.71121">
        <ele>1762.6985</ele>
        <time>2014-08-27T14:03:20Z</time>
      </trkpt>
      <trkpt lat="46.33766" lon="6.71132">
        <ele>1762.6985</ele>
        <time>2014-08-27T14:03:25Z</time>
      </trkpt>
      <trkpt lat="46.33766" lon="6.71139">
        <ele>1761.7372</ele>
        <time>2014-08-27T14:03:30Z</time>
      </trkpt>
      <trkpt lat="46.33767" lon="6.71144">
        <ele>1761.7372</ele>
        <time>2014-08-27T14:03:35Z</time>
      </trkpt>
      <trkpt lat="46.33768" lon="6.71149">
        <ele>1761.7372</ele>
        <time>2014-08-27T14:03:40Z</time>
      </trkpt>
      <trkpt lat="46.33771" lon="6.71154">
        <ele>1760.663</ele>
        <time>2014-08-27T14:03:45Z</time>
      </trkpt>
      <trkpt lat="46.33775" lon="6.71161">
        <ele>1760.663</ele>
        <time>2014-08-27T14:03:50Z</time>
      </trkpt>
      <trkpt lat="46.33778" lon="6.71167">
        <ele>1759.53</ele>
        <time>2014-08-27T14:03:55Z</time>
      </trkpt>
      <trkpt lat="46.3378" lon="6.7117">
        <ele>1759.53</ele>
        <time>2014-08-27T14:04:00Z</time>
      </trkpt>
      <trkpt lat="46.33781" lon="6.71174">
        <ele>1759.53</ele>
        <time>2014-08-27T14:04:05Z</time>
      </trkpt>
      <trkpt lat="46.33784" lon="6.71179">
        <ele>1758.2588</ele>
        <time>2014-08-27T14:04:10Z</time>
      </trkpt>
      <trkpt lat="46.33787" lon="6.71184">
        <ele>1758.2588</ele>
        <time>2014-08-27T14:04:15Z</time>
      </trkpt>
      <trkpt lat="46.33787" lon="6.71187">
        <ele>1758.2588</ele>
        <time>2014-08-27T14:04:20Z</time>
      </trkpt>
      <trkpt lat="46.33789" lon="6.71191">
        <ele>1756.8916</ele>
        <time>2014-08-27T14:04:25Z</time>
      </trkpt>
      <trkpt lat="46.33791" lon="6.71193">
        <ele>1756.8916</ele>
        <time>2014-08-27T14:04:30Z</time>
      </trkpt>
      <trkpt lat="46.33793" lon="6.71196">
        <ele>1756.8916</ele>
        <time>2014-08-27T14:04:35Z</time>
      </trkpt>
      <trkpt lat="46.33793" lon="6.71196">
        <ele>1756.8916</ele>
        <time>2014-08-27T14:04:40Z</time>
      </trkpt>
      <trkpt lat="46.33792" lon="6.71196">
        <ele>1756.8916</ele>
        <time>2014-08-27T14:04:45Z</time>
      </trkpt>
      <trkpt lat="46.33793" lon="6.71195">
        <ele>1756.8916</ele>
        <time>2014-08-27T14:04:50Z</time>
      </trkpt>
      <trkpt lat="46.33795" lon="6.71194">
        <ele>1755.655</ele>
        <time>2014-08-27T14:04:55Z</time>
      </trkpt>
      <trkpt lat="46.33794" lon="6.71194">
        <ele>1755.655</ele>
        <time>2014-08-27T14:05:00Z</time>
      </trkpt>
      <trkpt lat="46.33794" lon="6.71195">
        <ele>1755.655</ele>
        <time>2014-08-27T14:05:05Z</time>
      </trkpt>
      <trkpt lat="46.33794" lon="6.71195">
        <ele>1755.655</ele>
        <time>2014-08-27T14:05:10Z</time>
      </trkpt>
      <trkpt lat="46.33793" lon="6.71196">
        <ele>1755.655</ele>
        <time>2014-08-27T14:05:15Z</time>
      </trkpt>
      <trkpt lat="46.33793" lon="6.71197">
        <ele>1755.655</ele>
        <time>2014-08-27T14:05:20Z</time>
      </trkpt>
      <trkpt lat="46.33793" lon="6.71199">
        <ele>1755.655</ele>
        <time>2014-08-27T14:05:25Z</time>
      </trkpt>
      <trkpt lat="46.33792" lon="6.71201">
        <ele>1755.655</ele>
        <time>2014-08-27T14:05:30Z</time>
      </trkpt>
      <trkpt lat="46.33791" lon="6.71201">
        <ele>1755.655</ele>
        <time>2014-08-27T14:05:35Z</time>
      </trkpt>
      <trkpt lat="46.3379" lon="6.71202">
        <ele>1755.655</ele>
        <time>2014-08-27T14:05:40Z</time>
      </trkpt>
      <trkpt lat="46.33791" lon="6.71202">
        <ele>1754.3984</ele>
        <time>2014-08-27T14:05:45Z</time>
      </trkpt>
      <trkpt lat="46.33794" lon="6.71203">
        <ele>1754.3984</ele>
        <time>2014-08-27T14:05:50Z</time>
      </trkpt>
      <trkpt lat="46.338" lon="6.71206">
        <ele>1753.1982</ele>
        <time>2014-08-27T14:05:55Z</time>
      </trkpt>
      <trkpt lat="46.33804" lon="6.7121">
        <ele>1753.1982</ele>
        <time>2014-08-27T14:06:00Z</time>
      </trkpt>
      <trkpt lat="46.33807" lon="6.71213">
        <ele>1753.1982</ele>
        <time>2014-08-27T14:06:05Z</time>
      </trkpt>
      <trkpt lat="46.33809" lon="6.71215">
        <ele>1752.0101</ele>
        <time>2014-08-27T14:06:10Z</time>
      </trkpt>
      <trkpt lat="46.33812" lon="6.7122">
        <ele>1752.0101</ele>
        <time>2014-08-27T14:06:15Z</time>
      </trkpt>
      <trkpt lat="46.33814" lon="6.71224">
        <ele>1752.0101</ele>
        <time>2014-08-27T14:06:20Z</time>
      </trkpt>
      <trkpt lat="46.33813" lon="6.71229">
        <ele>1750.9369</ele>
        <time>2014-08-27T14:06:25Z</time>
      </trkpt>
      <trkpt lat="46.33814" lon="6.71232">
        <ele>1750.9369</ele>
        <time>2014-08-27T14:06:30Z</time>
      </trkpt>
      <trkpt lat="46.33815" lon="6.71233">
        <ele>1750.9369</ele>
        <time>2014-08-27T14:06:35Z</time>
      </trkpt>
      <trkpt lat="46.33818" lon="6.71234">
        <ele>1750.9369</ele>
        <time>2014-08-27T14:06:40Z</time>
      </trkpt>
      <trkpt lat="46.33822" lon="6.71237">
        <ele>1749.9149</ele>
        <time>2014-08-27T14:06:45Z</time>
      </trkpt>
      <trkpt lat="46.33824" lon="6.71239">
        <ele>1749.9149</ele>
        <time>2014-08-27T14:06:50Z</time>
      </trkpt>
      <trkpt lat="46.33824" lon="6.71244">
        <ele>1749.9149</ele>
        <time>2014-08-27T14:06:55Z</time>
      </trkpt>
      <trkpt lat="46.33825" lon="6.71249">
        <ele>1749.0145</ele>
        <time>2014-08-27T14:07:00Z</time>
      </trkpt>
      <trkpt lat="46.33825" lon="6.71252">
        <ele>1749.0145</ele>
        <time>2014-08-27T14:07:05Z</time>
      </trkpt>
      <trkpt lat="46.33827" lon="6.71254">
        <ele>1749.0145</ele>
        <time>2014-08-27T14:07:10Z</time>
      </trkpt>
      <trkpt lat="46.33831" lon="6.71256">
        <ele>1749.0145</ele>
        <time>2014-08-27T14:07:15Z</time>
      </trkpt>
      <trkpt lat="46.33833" lon="6.71262">
        <ele>1748.2722</ele>
        <time>2014-08-27T14:07:20Z</time>
      </trkpt>
      <trkpt lat="46.33837" lon="6.71268">
        <ele>1748.2722</ele>
        <time>2014-08-27T14:07:25Z</time>
      </trkpt>
      <trkpt lat="46.3384" lon="6.71272">
        <ele>1747.7207</ele>
        <time>2014-08-27T14:07:30Z</time>
      </trkpt>
      <trkpt lat="46.33844" lon="6.71273">
        <ele>1747.7207</ele>
        <time>2014-08-27T14:07:35Z</time>
      </trkpt>
      <trkpt lat="46.33847" lon="6.71273">
        <ele>1747.7207</ele>
        <time>2014-08-27T14:07:40Z</time>
      </trkpt>
      <trkpt lat="46.3385" lon="6.71278">
        <ele>1747.3756</ele>
        <time>2014-08-27T14:07:45Z</time>
      </trkpt>
      <trkpt lat="46.33852" lon="6.7128">
        <ele>1747.3756</ele>
        <time>2014-08-27T14:07:50Z</time>
      </trkpt>
      <trkpt lat="46.33857" lon="6.71283">
        <ele>1747.3756</ele>
        <time>2014-08-27T14:07:55Z</time>
      </trkpt>
      <trkpt lat="46.3386" lon="6.71284">
        <ele>1747.222</ele>
        <time>2014-08-27T14:08:00Z</time>
      </trkpt>
      <trkpt lat="46.33863" lon="6.71287">
        <ele>1747.222</ele>
        <time>2014-08-27T14:08:05Z</time>
      </trkpt>
      <trkpt lat="46.33865" lon="6.7129">
        <ele>1747.222</ele>
        <time>2014-08-27T14:08:10Z</time>
      </trkpt>
      <trkpt lat="46.33867" lon="6.71292">
        <ele>1747.222</ele>
        <time>2014-08-27T14:08:15Z</time>
      </trkpt>
      <trkpt lat="46.33869" lon="6.71294">
        <ele>1747.0581</ele>
        <time>2014-08-27T14:08:20Z</time>
      </trkpt>
      <trkpt lat="46.33872" lon="6.71298">
        <ele>1747.0581</ele>
        <time>2014-08-27T14:08:25Z</time>
      </trkpt>
      <trkpt lat="46.33877" lon="6.713">
        <ele>1746.9705</ele>
        <time>2014-08-27T14:08:30Z</time>
      </trkpt>
      <trkpt lat="46.33879" lon="6.71301">
        <ele>1746.9705</ele>
        <time>2014-08-27T14:08:35Z</time>
      </trkpt>
      <trkpt lat="46.3388" lon="6.71303">
        <ele>1746.9705</ele>
        <time>2014-08-27T14:08:40Z</time>
      </trkpt>
      <trkpt lat="46.33885" lon="6.71307">
        <ele>1747.1116</ele>
        <time>2014-08-27T14:08:45Z</time>
      </trkpt>
      <trkpt lat="46.33887" lon="6.71311">
        <ele>1747.1116</ele>
        <time>2014-08-27T14:08:50Z</time>
      </trkpt>
      <trkpt lat="46.3389" lon="6.71313">
        <ele>1747.1116</ele>
        <time>2014-08-27T14:08:55Z</time>
      </trkpt>
      <trkpt lat="46.33891" lon="6.71314">
        <ele>1747.1116</ele>
        <time>2014-08-27T14:09:00Z</time>
      </trkpt>
      <trkpt lat="46.33892" lon="6.71316">
        <ele>1747.5928</ele>
        <time>2014-08-27T14:09:05Z</time>
      </trkpt>
      <trkpt lat="46.33893" lon="6.71318">
        <ele>1747.5928</ele>
        <time>2014-08-27T14:09:10Z</time>
      </trkpt>
      <trkpt lat="46.33895" lon="6.7132">
        <ele>1747.5928</ele>
        <time>2014-08-27T14:09:15Z</time>
      </trkpt>
      <trkpt lat="46.33899" lon="6.71327">
        <ele>1748.1273</ele>
        <time>2014-08-27T14:09:20Z</time>
      </trkpt>
      <trkpt lat="46.33901" lon="6.71327">
        <ele>1748.1273</ele>
        <time>2014-08-27T14:09:25Z</time>
      </trkpt>
      <trkpt lat="46.33902" lon="6.71327">
        <ele>1748.1273</ele>
        <time>2014-08-27T14:09:30Z</time>
      </trkpt>
      <trkpt lat="46.33904" lon="6.71331">
        <ele>1748.1273</ele>
        <time>2014-08-27T14:09:35Z</time>
      </trkpt>
      <trkpt lat="46.33904" lon="6.71333">
        <ele>1748.1273</ele>
        <time>2014-08-27T14:09:40Z</time>
      </trkpt>
      <trkpt lat="46.33903" lon="6.71332">
        <ele>1748.1273</ele>
        <time>2014-08-27T14:09:45Z</time>
      </trkpt>
      <trkpt lat="46.33902" lon="6.71333">
        <ele>1748.7522</ele>
        <time>2014-08-27T14:09:50Z</time>
      </trkpt>
      <trkpt lat="46.33902" lon="6.71332">
        <ele>1748.7522</ele>
        <time>2014-08-27T14:09:55Z</time>
      </trkpt>
      <trkpt lat="46.33902" lon="6.7133">
        <ele>1748.7522</ele>
        <time>2014-08-27T14:10:00Z</time>
      </trkpt>
      <trkpt lat="46.33901" lon="6.7133">
        <ele>1748.7522</ele>
        <time>2014-08-27T14:10:05Z</time>
      </trkpt>
      <trkpt lat="46.33901" lon="6.71329">
        <ele>1748.7522</ele>
        <time>2014-08-27T14:10:10Z</time>
      </trkpt>
      <trkpt lat="46.33902" lon="6.71328">
        <ele>1748.7522</ele>
        <time>2014-08-27T14:10:15Z</time>
      </trkpt>
      <trkpt lat="46.33903" lon="6.71329">
        <ele>1748.7522</ele>
        <time>2014-08-27T14:10:20Z</time>
      </trkpt>
      <trkpt lat="46.33903" lon="6.7133">
        <ele>1748.7522</ele>
        <time>2014-08-27T14:10:25Z</time>
      </trkpt>
      <trkpt lat="46.33903" lon="6.7133">
        <ele>1748.7522</ele>
        <time>2014-08-27T14:10:30Z</time>
      </trkpt>
      <trkpt lat="46.33903" lon="6.71329">
        <ele>1748.7522</ele>
        <time>2014-08-27T14:10:35Z</time>
      </trkpt>
      <trkpt lat="46.33904" lon="6.71329">
        <ele>1748.7522</ele>
        <time>2014-08-27T14:10:40Z</time>
      </trkpt>
      <trkpt lat="46.33903" lon="6.71329">
        <ele>1748.7522</ele>
        <time>2014-08-27T14:10:45Z</time>
      </trkpt>
      <trkpt lat="46.33903" lon="6.71329">
        <ele>1748.7522</ele>
        <time>2014-08-27T14:10:50Z</time>
      </trkpt>
      <trkpt lat="46.33903" lon="6.71329">
        <ele>1748.7522</ele>
        <time>2014-08-27T14:10:55Z</time>
      </trkpt>
      <trkpt lat="46.33903" lon="6.71329">
        <ele>1748.7522</ele>
        <time>2014-08-27T14:11:00Z</time>
      </trkpt>
      <trkpt lat="46.33902" lon="6.7133">
        <ele>1748.7522</ele>
        <time>2014-08-27T14:11:05Z</time>
      </trkpt>
      <trkpt lat="46.33901" lon="6.71332">
        <ele>1749.6451</ele>
        <time>2014-08-27T14:11:10Z</time>
      </trkpt>
      <trkpt lat="46.339" lon="6.71334">
        <ele>1749.6451</ele>
        <time>2014-08-27T14:11:15Z</time>
      </trkpt>
      <trkpt lat="46.33899" lon="6.71337">
        <ele>1749.6451</ele>
        <time>2014-08-27T14:11:20Z</time>
      </trkpt>
      <trkpt lat="46.33897" lon="6.71338">
        <ele>1749.6451</ele>
        <time>2014-08-27T14:11:25Z</time>
      </trkpt>
      <trkpt lat="46.33897" lon="6.71339">
        <ele>1749.6451</ele>
        <time>2014-08-27T14:11:30Z</time>
      </trkpt>
      <trkpt lat="46.33898" lon="6.71343">
        <ele>1750.5236</ele>
        <time>2014-08-27T14:11:35Z</time>
      </trkpt>
      <trkpt lat="46.33901" lon="6.71348">
        <ele>1750.5236</ele>
        <time>2014-08-27T14:11:40Z</time>
      </trkpt>
      <trkpt lat="46.33902" lon="6.71352">
        <ele>1750.5236</ele>
        <time>2014-08-27T14:11:45Z</time>
      </trkpt>
      <trkpt lat="46.339" lon="6.71353">
        <ele>1751.6013</ele>
        <time>2014-08-27T14:11:50Z</time>
      </trkpt>
      <trkpt lat="46.339" lon="6.71353">
        <ele>1751.6013</ele>
        <time>2014-08-27T14:11:55Z</time>
      </trkpt>
      <trkpt lat="46.33896" lon="6.71354">
        <ele>1751.6013</ele>
        <time>2014-08-27T14:12:00Z</time>
      </trkpt>
      <trkpt lat="46.33895" lon="6.71356">
        <ele>1751.6013</ele>
        <time>2014-08-27T14:12:05Z</time>
      </trkpt>
      <trkpt lat="46.33896" lon="6.71358">
        <ele>1751.6013</ele>
        <time>2014-08-27T14:12:10Z</time>
      </trkpt>
      <trkpt lat="46.33896" lon="6.71359">
        <ele>1751.6013</ele>
        <time>2014-08-27T14:12:15Z</time>
      </trkpt>
      <trkpt lat="46.33896" lon="6.71361">
        <ele>1752.8885</ele>
        <time>2014-08-27T14:12:20Z</time>
      </trkpt>
      <trkpt lat="46.33895" lon="6.71362">
        <ele>1752.8885</ele>
        <time>2014-08-27T14:12:25Z</time>
      </trkpt>
      <trkpt lat="46.33895" lon="6.71365">
        <ele>1752.8885</ele>
        <time>2014-08-27T14:12:30Z</time>
      </trkpt>
      <trkpt lat="46.33895" lon="6.71366">
        <ele>1752.8885</ele>
        <time>2014-08-27T14:12:35Z</time>
      </trkpt>
      <trkpt lat="46.33894" lon="6.71369">
        <ele>1752.8885</ele>
        <time>2014-08-27T14:12:40Z</time>
      </trkpt>
      <trkpt lat="46.33894" lon="6.7137">
        <ele>1752.8885</ele>
        <time>2014-08-27T14:12:45Z</time>
      </trkpt>
      <trkpt lat="46.33895" lon="6.71369">
        <ele>1752.8885</ele>
        <time>2014-08-27T14:12:50Z</time>
      </trkpt>
      <trkpt lat="46.33896" lon="6.71368">
        <ele>1754.4949</ele>
        <time>2014-08-27T14:12:55Z</time>
      </trkpt>
      <trkpt lat="46.33894" lon="6.71368">
        <ele>1754.4949</ele>
        <time>2014-08-27T14:13:00Z</time>
      </trkpt>
      <trkpt lat="46.33893" lon="6.71369">
        <ele>1754.4949</ele>
        <time>2014-08-27T14:13:05Z</time>
      </trkpt>
      <trkpt lat="46.33891" lon="6.71369">
        <ele>1754.4949</ele>
        <time>2014-08-27T14:13:10Z</time>
      </trkpt>
      <trkpt lat="46.33887" lon="6.71365">
        <ele>1756.3339</ele>
        <time>2014-08-27T14:13:15Z</time>
      </trkpt>
      <trkpt lat="46.33883" lon="6.71367">
        <ele>1756.3339</ele>
        <time>2014-08-27T14:13:20Z</time>
      </trkpt>
      <trkpt lat="46.33882" lon="6.71372">
        <ele>1756.3339</ele>
        <time>2014-08-27T14:13:25Z</time>
      </trkpt>
      <trkpt lat="46.33883" lon="6.71372">
        <ele>1756.3339</ele>
        <time>2014-08-27T14:13:30Z</time>
      </trkpt>
      <trkpt lat="46.33886" lon="6.71374">
        <ele>1758.3104</ele>
        <time>2014-08-27T14:13:35Z</time>
      </trkpt>
      <trkpt lat="46.33886" lon="6.71376">
        <ele>1758.3104</ele>
        <time>2014-08-27T14:13:40Z</time>
      </trkpt>
      <trkpt lat="46.33887" lon="6.71375">
        <ele>1758.3104</ele>
        <time>2014-08-27T14:13:45Z</time>
      </trkpt>
      <trkpt lat="46.33887" lon="6.71375">
        <ele>1758.3104</ele>
        <time>2014-08-27T14:13:50Z</time>
      </trkpt>
      <trkpt lat="46.33887" lon="6.71375">
        <ele>1758.3104</ele>
        <time>2014-08-27T14:13:55Z</time>
      </trkpt>
      <trkpt lat="46.33886" lon="6.71376">
        <ele>1758.3104</ele>
        <time>2014-08-27T14:14:00Z</time>
      </trkpt>
      <trkpt lat="46.33885" lon="6.71378">
        <ele>1758.3104</ele>
        <time>2014-08-27T14:14:05Z</time>
      </trkpt>
      <trkpt lat="46.33885" lon="6.7138">
        <ele>1758.3104</ele>
        <time>2014-08-27T14:14:10Z</time>
      </trkpt>
      <trkpt lat="46.33885" lon="6.7138">
        <ele>1758.3104</ele>
        <time>2014-08-27T14:14:15Z</time>
      </trkpt>
      <trkpt lat="46.33885" lon="6.71379">
        <ele>1758.3104</ele>
        <time>2014-08-27T14:14:20Z</time>
      </trkpt>
      <trkpt lat="46.33885" lon="6.71379">
        <ele>1758.3104</ele>
        <time>2014-08-27T14:14:25Z</time>
      </trkpt>
      <trkpt lat="46.33886" lon="6.71381">
        <ele>1758.3104</ele>
        <time>2014-08-27T14:14:30Z</time>
      </trkpt>
      <trkpt lat="46.33888" lon="6.71385">
        <ele>1760.7684</ele>
        <time>2014-08-27T14:14:35Z</time>
      </trkpt>
      <trkpt lat="46.33891" lon="6.71393">
        <ele>1760.7684</ele>
        <time>2014-08-27T14:14:40Z</time>
      </trkpt>
      <trkpt lat="46.33893" lon="6.71399">
        <ele>1763.2035</ele>
        <time>2014-08-27T14:14:45Z</time>
      </trkpt>
      <trkpt lat="46.33894" lon="6.71404">
        <ele>1763.2035</ele>
        <time>2014-08-27T14:14:50Z</time>
      </trkpt>
      <trkpt lat="46.33896" lon="6.71409">
        <ele>1763.2035</ele>
        <time>2014-08-27T14:14:55Z</time>
      </trkpt>
      <trkpt lat="46.33899" lon="6.71416">
        <ele>1765.6967</ele>
        <time>2014-08-27T14:15:00Z</time>
      </trkpt>
      <trkpt lat="46.339" lon="6.7142">
        <ele>1765.6967</ele>
        <time>2014-08-27T14:15:05Z</time>
      </trkpt>
      <trkpt lat="46.33903" lon="6.71424">
        <ele>1765.6967</ele>
        <time>2014-08-27T14:15:10Z</time>
      </trkpt>
      <trkpt lat="46.33906" lon="6.71429">
        <ele>1768.1351</ele>
        <time>2014-08-27T14:15:15Z</time>
      </trkpt>
      <trkpt lat="46.3391" lon="6.71432">
        <ele>1768.1351</ele>
        <time>2014-08-27T14:15:20Z</time>
      </trkpt>
      <trkpt lat="46.33914" lon="6.71434">
        <ele>1770.5302</ele>
        <time>2014-08-27T14:15:25Z</time>
      </trkpt>
      <trkpt lat="46.33919" lon="6.71436">
        <ele>1770.5302</ele>
        <time>2014-08-27T14:15:30Z</time>
      </trkpt>
      <trkpt lat="46.33923" lon="6.71441">
        <ele>1772.8347</ele>
        <time>2014-08-27T14:15:35Z</time>
      </trkpt>
      <trkpt lat="46.33924" lon="6.71443">
        <ele>1772.8347</ele>
        <time>2014-08-27T14:15:40Z</time>
      </trkpt>
      <trkpt lat="46.33927" lon="6.71447">
        <ele>1772.8347</ele>
        <time>2014-08-27T14:15:45Z</time>
      </trkpt>
      <trkpt lat="46.33927" lon="6.71452">
        <ele>1772.8347</ele>
        <time>2014-08-27T14:15:50Z</time>
      </trkpt>
      <trkpt lat="46.33929" lon="6.71456">
        <ele>1774.9193</ele>
        <time>2014-08-27T14:15:55Z</time>
      </trkpt>
      <trkpt lat="46.33933" lon="6.71458">
        <ele>1774.9193</ele>
        <time>2014-08-27T14:16:00Z</time>
      </trkpt>
      <trkpt lat="46.33937" lon="6.71463">
        <ele>1776.9528</ele>
        <time>2014-08-27T14:16:05Z</time>
      </trkpt>
      <trkpt lat="46.3394" lon="6.71468">
        <ele>1776.9528</ele>
        <time>2014-08-27T14:16:10Z</time>
      </trkpt>
      <trkpt lat="46.33942" lon="6.7147">
        <ele>1776.9528</ele>
        <time>2014-08-27T14:16:15Z</time>
      </trkpt>
      <trkpt lat="46.33944" lon="6.71474">
        <ele>1778.9047</ele>
        <time>2014-08-27T14:16:20Z</time>
      </trkpt>
      <trkpt lat="46.33945" lon="6.71478">
        <ele>1778.9047</ele>
        <time>2014-08-27T14:16:25Z</time>
      </trkpt>
      <trkpt lat="46.33949" lon="6.71481">
        <ele>1778.9047</ele>
        <time>2014-08-27T14:16:30Z</time>
      </trkpt>
      <trkpt lat="46.33952" lon="6.71483">
        <ele>1780.6895</ele>
        <time>2014-08-27T14:16:35Z</time>
      </trkpt>
      <trkpt lat="46.33956" lon="6.71486">
        <ele>1780.6895</ele>
        <time>2014-08-27T14:16:40Z</time>
      </trkpt>
      <trkpt lat="46.3396" lon="6.71489">
        <ele>1782.5167</ele>
        <time>2014-08-27T14:16:45Z</time>
      </trkpt>
      <trkpt lat="46.33964" lon="6.71494">
        <ele>1782.5167</ele>
        <time>2014-08-27T14:16:50Z</time>
      </trkpt>
      <trkpt lat="46.33966" lon="6.71494">
        <ele>1782.5167</ele>
        <time>2014-08-27T14:16:55Z</time>
      </trkpt>
      <trkpt lat="46.33965" lon="6.71494">
        <ele>1782.5167</ele>
        <time>2014-08-27T14:17:00Z</time>
      </trkpt>
      <trkpt lat="46.33966" lon="6.71495">
        <ele>1782.5167</ele>
        <time>2014-08-27T14:17:05Z</time>
      </trkpt>
      <trkpt lat="46.33965" lon="6.71496">
        <ele>1782.5167</ele>
        <time>2014-08-27T14:17:10Z</time>
      </trkpt>
      <trkpt lat="46.33964" lon="6.71496">
        <ele>1784.2206</ele>
        <time>2014-08-27T14:17:15Z</time>
      </trkpt>
      <trkpt lat="46.33964" lon="6.71496">
        <ele>1784.2206</ele>
        <time>2014-08-27T14:17:20Z</time>
      </trkpt>
      <trkpt lat="46.33963" lon="6.71495">
        <ele>1784.2206</ele>
        <time>2014-08-27T14:17:25Z</time>
      </trkpt>
      <trkpt lat="46.33963" lon="6.71496">
        <ele>1784.2206</ele>
        <time>2014-08-27T14:17:30Z</time>
      </trkpt>
      <trkpt lat="46.33962" lon="6.71496">
        <ele>1784.2206</ele>
        <time>2014-08-27T14:17:35Z</time>
      </trkpt>
      <trkpt lat="46.33962" lon="6.71497">
        <ele>1784.2206</ele>
        <time>2014-08-27T14:17:40Z</time>
      </trkpt>
      <trkpt lat="46.33962" lon="6.71497">
        <ele>1784.2206</ele>
        <time>2014-08-27T14:17:45Z</time>
      </trkpt>
      <trkpt lat="46.33967" lon="6.71502">
        <ele>1784.2206</ele>
        <time>2014-08-27T14:18:20Z</time>
      </trkpt>
      <trkpt lat="46.33973" lon="6.71505">
        <ele>1785.9645</ele>
        <time>2014-08-27T14:18:25Z</time>
      </trkpt>
      <trkpt lat="46.33975" lon="6.71506">
        <ele>1785.9645</ele>
        <time>2014-08-27T14:18:30Z</time>
      </trkpt>
      <trkpt lat="46.33978" lon="6.71507">
        <ele>1785.9645</ele>
        <time>2014-08-27T14:18:35Z</time>
      </trkpt>
      <trkpt lat="46.33981" lon="6.71508">
        <ele>1785.9645</ele>
        <time>2014-08-27T14:18:40Z</time>
      </trkpt>
      <trkpt lat="46.33984" lon="6.71509">
        <ele>1787.6411</ele>
        <time>2014-08-27T14:18:45Z</time>
      </trkpt>
      <trkpt lat="46.33988" lon="6.71513">
        <ele>1787.6411</ele>
        <time>2014-08-27T14:18:50Z</time>
      </trkpt>
      <trkpt lat="46.3399" lon="6.71516">
        <ele>1787.6411</ele>
        <time>2014-08-27T14:18:55Z</time>
      </trkpt>
      <trkpt lat="46.33993" lon="6.71518">
        <ele>1789.2374</ele>
        <time>2014-08-27T14:19:00Z</time>
      </trkpt>
      <trkpt lat="46.33995" lon="6.71519">
        <ele>1789.2374</ele>
        <time>2014-08-27T14:19:05Z</time>
      </trkpt>
      <trkpt lat="46.33998" lon="6.71523">
        <ele>1789.2374</ele>
        <time>2014-08-27T14:19:10Z</time>
      </trkpt>
      <trkpt lat="46.34001" lon="6.71525">
        <ele>1790.7996</ele>
        <time>2014-08-27T14:19:15Z</time>
      </trkpt>
      <trkpt lat="46.34003" lon="6.71529">
        <ele>1790.7996</ele>
        <time>2014-08-27T14:19:20Z</time>
      </trkpt>
      <trkpt lat="46.34004" lon="6.71532">
        <ele>1790.7996</ele>
        <time>2014-08-27T14:19:25Z</time>
      </trkpt>
      <trkpt lat="46.34006" lon="6.71533">
        <ele>1790.7996</ele>
        <time>2014-08-27T14:19:30Z</time>
      </trkpt>
      <trkpt lat="46.34009" lon="6.71537">
        <ele>1792.3848</ele>
        <time>2014-08-27T14:19:35Z</time>
      </trkpt>
      <trkpt lat="46.34012" lon="6.7154">
        <ele>1792.3848</ele>
        <time>2014-08-27T14:19:40Z</time>
      </trkpt>
      <trkpt lat="46.34014" lon="6.71546">
        <ele>1792.3848</ele>
        <time>2014-08-27T14:19:45Z</time>
      </trkpt>
      <trkpt lat="46.34015" lon="6.7155">
        <ele>1793.7871</ele>
        <time>2014-08-27T14:19:50Z</time>
      </trkpt>
      <trkpt lat="46.34015" lon="6.7155">
        <ele>1793.7871</ele>
        <time>2014-08-27T14:19:55Z</time>
      </trkpt>
      <trkpt lat="46.34015" lon="6.71551">
        <ele>1793.7871</ele>
        <time>2014-08-27T14:20:00Z</time>
      </trkpt>
      <trkpt lat="46.34015" lon="6.71551">
        <ele>1793.7871</ele>
        <time>2014-08-27T14:20:05Z</time>
      </trkpt>
      <trkpt lat="46.34014" lon="6.71552">
        <ele>1793.7871</ele>
        <time>2014-08-27T14:20:10Z</time>
      </trkpt>
      <trkpt lat="46.34013" lon="6.71553">
        <ele>1793.7871</ele>
        <time>2014-08-27T14:20:15Z</time>
      </trkpt>
      <trkpt lat="46.34013" lon="6.71553">
        <ele>1793.7871</ele>
        <time>2014-08-27T14:20:20Z</time>
      </trkpt>
      <trkpt lat="46.34014" lon="6.71555">
        <ele>1793.7871</ele>
        <time>2014-08-27T14:20:25Z</time>
      </trkpt>
      <trkpt lat="46.34016" lon="6.71559">
        <ele>1793.7871</ele>
        <time>2014-08-27T14:20:30Z</time>
      </trkpt>
      <trkpt lat="46.34017" lon="6.71565">
        <ele>1795.234</ele>
        <time>2014-08-27T14:20:35Z</time>
      </trkpt>
      <trkpt lat="46.3402" lon="6.7157">
        <ele>1795.234</ele>
        <time>2014-08-27T14:20:40Z</time>
      </trkpt>
      <trkpt lat="46.34022" lon="6.71577">
        <ele>1796.533</ele>
        <time>2014-08-27T14:20:45Z</time>
      </trkpt>
      <trkpt lat="46.34024" lon="6.71583">
        <ele>1796.533</ele>
        <time>2014-08-27T14:20:50Z</time>
      </trkpt>
      <trkpt lat="46.34023" lon="6.71591">
        <ele>1797.6644</ele>
        <time>2014-08-27T14:20:55Z</time>
      </trkpt>
      <trkpt lat="46.34022" lon="6.716">
        <ele>1797.6644</ele>
        <time>2014-08-27T14:21:00Z</time>
      </trkpt>
      <trkpt lat="46.34021" lon="6.71607">
        <ele>1798.5391</ele>
        <time>2014-08-27T14:21:05Z</time>
      </trkpt>
      <trkpt lat="46.34019" lon="6.71614">
        <ele>1798.5391</ele>
        <time>2014-08-27T14:21:10Z</time>
      </trkpt>
      <trkpt lat="46.34017" lon="6.7162">
        <ele>1799.0317</ele>
        <time>2014-08-27T14:21:15Z</time>
      </trkpt>
      <trkpt lat="46.34019" lon="6.71633">
        <ele>1799.3157</ele>
        <time>2014-08-27T14:21:20Z</time>
      </trkpt>
      <trkpt lat="46.3402" lon="6.71641">
        <ele>1799.3157</ele>
        <time>2014-08-27T14:21:25Z</time>
      </trkpt>
      <trkpt lat="46.34021" lon="6.71649">
        <ele>1799.4514</ele>
        <time>2014-08-27T14:21:30Z</time>
      </trkpt>
      <trkpt lat="46.34022" lon="6.71657">
        <ele>1799.4514</ele>
        <time>2014-08-27T14:21:35Z</time>
      </trkpt>
      <trkpt lat="46.34022" lon="6.71663">
        <ele>1799.337</ele>
        <time>2014-08-27T14:21:40Z</time>
      </trkpt>
      <trkpt lat="46.34022" lon="6.71668">
        <ele>1799.337</ele>
        <time>2014-08-27T14:21:45Z</time>
      </trkpt>
      <trkpt lat="46.34022" lon="6.71674">
        <ele>1799.337</ele>
        <time>2014-08-27T14:21:50Z</time>
      </trkpt>
      <trkpt lat="46.34022" lon="6.7168">
        <ele>1798.8209</ele>
        <time>2014-08-27T14:21:55Z</time>
      </trkpt>
      <trkpt lat="46.34022" lon="6.71685">
        <ele>1798.8209</ele>
        <time>2014-08-27T14:22:00Z</time>
      </trkpt>
      <trkpt lat="46.3402" lon="6.71689">
        <ele>1798.8209</ele>
        <time>2014-08-27T14:22:05Z</time>
      </trkpt>
      <trkpt lat="46.3402" lon="6.71696">
        <ele>1797.8074</ele>
        <time>2014-08-27T14:22:10Z</time>
      </trkpt>
      <trkpt lat="46.34017" lon="6.71702">
        <ele>1797.8074</ele>
        <time>2014-08-27T14:22:15Z</time>
      </trkpt>
      <trkpt lat="46.34017" lon="6.71709">
        <ele>1796.3677</ele>
        <time>2014-08-27T14:22:20Z</time>
      </trkpt>
      <trkpt lat="46.34019" lon="6.71719">
        <ele>1796.3677</ele>
        <time>2014-08-27T14:22:25Z</time>
      </trkpt>
      <trkpt lat="46.3402" lon="6.71726">
        <ele>1794.6697</ele>
        <time>2014-08-27T14:22:30Z</time>
      </trkpt>
      <trkpt lat="46.34021" lon="6.71731">
        <ele>1794.6697</ele>
        <time>2014-08-27T14:22:35Z</time>
      </trkpt>
      <trkpt lat="46.34022" lon="6.71736">
        <ele>1794.6697</ele>
        <time>2014-08-27T14:22:40Z</time>
      </trkpt>
      <trkpt lat="46.34024" lon="6.71741">
        <ele>1792.7545</ele>
        <time>2014-08-27T14:22:45Z</time>
      </trkpt>
      <trkpt lat="46.34025" lon="6.71745">
        <ele>1792.7545</ele>
        <time>2014-08-27T14:22:50Z</time>
      </trkpt>
      <trkpt lat="46.34028" lon="6.71747">
        <ele>1792.7545</ele>
        <time>2014-08-27T14:22:55Z</time>
      </trkpt>
      <trkpt lat="46.34029" lon="6.71753">
        <ele>1790.56</ele>
        <time>2014-08-27T14:23:00Z</time>
      </trkpt>
      <trkpt lat="46.34029" lon="6.71757">
        <ele>1790.56</ele>
        <time>2014-08-27T14:23:05Z</time>
      </trkpt>
      <trkpt lat="46.34028" lon="6.71761">
        <ele>1790.56</ele>
        <time>2014-08-27T14:23:10Z</time>
      </trkpt>
      <trkpt lat="46.34026" lon="6.71769">
        <ele>1788.0295</ele>
        <time>2014-08-27T14:23:15Z</time>
      </trkpt>
      <trkpt lat="46.3403" lon="6.71774">
        <ele>1788.0295</ele>
        <time>2014-08-27T14:23:20Z</time>
      </trkpt>
      <trkpt lat="46.34033" lon="6.7178">
        <ele>1785.399</ele>
        <time>2014-08-27T14:23:25Z</time>
      </trkpt>
      <trkpt lat="46.34035" lon="6.71783">
        <ele>1785.399</ele>
        <time>2014-08-27T14:23:30Z</time>
      </trkpt>
      <trkpt lat="46.34036" lon="6.71784">
        <ele>1785.399</ele>
        <time>2014-08-27T14:23:35Z</time>
      </trkpt>
      <trkpt lat="46.34036" lon="6.71784">
        <ele>1785.399</ele>
        <time>2014-08-27T14:23:40Z</time>
      </trkpt>
      <trkpt lat="46.34036" lon="6.71785">
        <ele>1785.399</ele>
        <time>2014-08-27T14:23:50Z</time>
      </trkpt>
      <trkpt lat="46.34037" lon="6.71785">
        <ele>1785.399</ele>
        <time>2014-08-27T14:23:55Z</time>
      </trkpt>
      <trkpt lat="46.34037" lon="6.71785">
        <ele>1785.399</ele>
        <time>2014-08-27T14:24:00Z</time>
      </trkpt>
      <trkpt lat="46.34037" lon="6.71786">
        <ele>1785.399</ele>
        <time>2014-08-27T14:25:25Z</time>
      </trkpt>
      <trkpt lat="46.34037" lon="6.71786">
        <ele>1785.399</ele>
        <time>2014-08-27T14:25:30Z</time>
      </trkpt>
      <trkpt lat="46.34035" lon="6.71784">
        <ele>1782.2108</ele>
        <time>2014-08-27T14:26:40Z</time>
      </trkpt>
      <trkpt lat="46.34034" lon="6.71784">
        <ele>1782.2108</ele>
        <time>2014-08-27T14:26:45Z</time>
      </trkpt>
      <trkpt lat="46.34034" lon="6.71787">
        <ele>1782.2108</ele>
        <time>2014-08-27T14:26:50Z</time>
      </trkpt>
      <trkpt lat="46.34033" lon="6.71791">
        <ele>1782.2108</ele>
        <time>2014-08-27T14:26:55Z</time>
      </trkpt>
      <trkpt lat="46.34032" lon="6.71795">
        <ele>1778.7621</ele>
        <time>2014-08-27T14:27:00Z</time>
      </trkpt>
      <trkpt lat="46.34032" lon="6.71803">
        <ele>1778.7621</ele>
        <time>2014-08-27T14:27:05Z</time>
      </trkpt>
      <trkpt lat="46.34032" lon="6.71803">
        <ele>1778.7621</ele>
        <time>2014-08-27T14:27:10Z</time>
      </trkpt>
      <trkpt lat="46.34033" lon="6.71806">
        <ele>1778.7621</ele>
        <time>2014-08-27T14:27:40Z</time>
      </trkpt>
      <trkpt lat="46.34036" lon="6.71814">
        <ele>1775.2717</ele>
        <time>2014-08-27T14:27:45Z</time>
      </trkpt>
      <trkpt lat="46.34036" lon="6.71816">
        <ele>1775.2717</ele>
        <time>2014-08-27T14:27:50Z</time>
      </trkpt>
      <trkpt lat="46.34035" lon="6.71817">
        <ele>1775.2717</ele>
        <time>2014-08-27T14:27:55Z</time>
      </trkpt>
      <trkpt lat="46.34032" lon="6.71819">
        <ele>1775.2717</ele>
        <time>2014-08-27T14:28:00Z</time>
      </trkpt>
      <trkpt lat="46.34028" lon="6.71818">
        <ele>1771.164</ele>
        <time>2014-08-27T14:28:05Z</time>
      </trkpt>
      <trkpt lat="46.34024" lon="6.71818">
        <ele>1771.164</ele>
        <time>2014-08-27T14:28:10Z</time>
      </trkpt>
      <trkpt lat="46.34023" lon="6.71819">
        <ele>1771.164</ele>
        <time>2014-08-27T14:28:15Z</time>
      </trkpt>
      <trkpt lat="46.34022" lon="6.71822">
        <ele>1771.164</ele>
        <time>2014-08-27T14:28:20Z</time>
      </trkpt>
      <trkpt lat="46.34023" lon="6.71832">
        <ele>1766.3103</ele>
        <time>2014-08-27T14:28:25Z</time>
      </trkpt>
      <trkpt lat="46.34024" lon="6.71841">
        <ele>1766.3103</ele>
        <time>2014-08-27T14:28:30Z</time>
      </trkpt>
      <trkpt lat="46.34025" lon="6.71848">
        <ele>1761.6891</ele>
        <time>2014-08-27T14:28:35Z</time>
      </trkpt>
      <trkpt lat="46.34027" lon="6.71858">
        <ele>1761.6891</ele>
        <time>2014-08-27T14:28:40Z</time>
      </trkpt>
      <trkpt lat="46.34032" lon="6.71864">
        <ele>1757.5139</ele>
        <time>2014-08-27T14:28:45Z</time>
      </trkpt>
      <trkpt lat="46.34035" lon="6.71868">
        <ele>1757.5139</ele>
        <time>2014-08-27T14:28:50Z</time>
      </trkpt>
      <trkpt lat="46.34039" lon="6.71872">
        <ele>1757.5139</ele>
        <time>2014-08-27T14:28:55Z</time>
      </trkpt>
      <trkpt lat="46.34042" lon="6.71876">
        <ele>1753.9237</ele>
        <time>2014-08-27T14:29:00Z</time>
      </trkpt>
      <trkpt lat="46.34043" lon="6.71882">
        <ele>1753.9237</ele>
        <time>2014-08-27T14:29:05Z</time>
      </trkpt>
      <trkpt lat="46.34043" lon="6.71887">
        <ele>1753.9237</ele>
        <time>2014-08-27T14:29:10Z</time>
      </trkpt>
      <trkpt lat="46.34045" lon="6.71892">
        <ele>1750.7426</ele>
        <time>2014-08-27T14:29:15Z</time>
      </trkpt>
      <trkpt lat="46.34047" lon="6.71893">
        <ele>1750.7426</ele>
        <time>2014-08-27T14:29:20Z</time>
      </trkpt>
      <trkpt lat="46.34047" lon="6.71894">
        <ele>1750.7426</ele>
        <time>2014-08-27T14:29:25Z</time>
      </trkpt>
      <trkpt lat="46.34047" lon="6.71894">
        <ele>1750.7426</ele>
        <time>2014-08-27T14:29:30Z</time>
      </trkpt>
      <trkpt lat="46.34049" lon="6.71898">
        <ele>1750.7426</ele>
        <time>2014-08-27T14:29:35Z</time>
      </trkpt>
      <trkpt lat="46.34049" lon="6.71898">
        <ele>1750.7426</ele>
        <time>2014-08-27T14:29:40Z</time>
      </trkpt>
      <trkpt lat="46.34048" lon="6.71899">
        <ele>1750.7426</ele>
        <time>2014-08-27T14:29:45Z</time>
      </trkpt>
      <trkpt lat="46.34048" lon="6.719">
        <ele>1750.7426</ele>
        <time>2014-08-27T14:29:50Z</time>
      </trkpt>
      <trkpt lat="46.34048" lon="6.719">
        <ele>1750.7426</ele>
        <time>2014-08-27T14:29:55Z</time>
      </trkpt>
      <trkpt lat="46.34049" lon="6.71901">
        <ele>1750.7426</ele>
        <time>2014-08-27T14:30:00Z</time>
      </trkpt>
      <trkpt lat="46.34049" lon="6.71901">
        <ele>1750.7426</ele>
        <time>2014-08-27T14:30:05Z</time>
      </trkpt>
      <trkpt lat="46.34048" lon="6.71903">
        <ele>1747.8347</ele>
        <time>2014-08-27T14:30:10Z</time>
      </trkpt>
      <trkpt lat="46.34048" lon="6.71903">
        <ele>1747.8347</ele>
        <time>2014-08-27T14:30:15Z</time>
      </trkpt>
      <trkpt lat="46.34048" lon="6.71907">
        <ele>1747.8347</ele>
        <time>2014-08-27T14:30:20Z</time>
      </trkpt>
      <trkpt lat="46.34048" lon="6.71907">
        <ele>1747.8347</ele>
        <time>2014-08-27T14:30:25Z</time>
      </trkpt>
      <trkpt lat="46.34051" lon="6.71911">
        <ele>1747.8347</ele>
        <time>2014-08-27T14:30:40Z</time>
      </trkpt>
      <trkpt lat="46.34051" lon="6.71911">
        <ele>1747.8347</ele>
        <time>2014-08-27T14:30:45Z</time>
      </trkpt>
      <trkpt lat="46.34052" lon="6.71914">
        <ele>1745.506</ele>
        <time>2014-08-27T14:30:55Z</time>
      </trkpt>
      <trkpt lat="46.34055" lon="6.7192">
        <ele>1745.506</ele>
        <time>2014-08-27T14:31:00Z</time>
      </trkpt>
      <trkpt lat="46.34055" lon="6.71921">
        <ele>1745.506</ele>
        <time>2014-08-27T14:31:05Z</time>
      </trkpt>
      <trkpt lat="46.34055" lon="6.71921">
        <ele>1745.506</ele>
        <time>2014-08-27T14:31:10Z</time>
      </trkpt>
      <trkpt lat="46.34056" lon="6.71923">
        <ele>1745.506</ele>
        <time>2014-08-27T14:31:15Z</time>
      </trkpt>
      <trkpt lat="46.34058" lon="6.71927">
        <ele>1743.8356</ele>
        <time>2014-08-27T14:31:20Z</time>
      </trkpt>
      <trkpt lat="46.34063" lon="6.71933">
        <ele>1743.8356</ele>
        <time>2014-08-27T14:31:25Z</time>
      </trkpt>
      <trkpt lat="46.34065" lon="6.71936">
        <ele>1742.4482</ele>
        <time>2014-08-27T14:31:30Z</time>
      </trkpt>
      <trkpt lat="46.34066" lon="6.71936">
        <ele>1742.4482</ele>
        <time>2014-08-27T14:31:35Z</time>
      </trkpt>
      <trkpt lat="46.34066" lon="6.71937">
        <ele>1742.4482</ele>
        <time>2014-08-27T14:31:40Z</time>
      </trkpt>
      <trkpt lat="46.34067" lon="6.71937">
        <ele>1742.4482</ele>
        <time>2014-08-27T14:31:45Z</time>
      </trkpt>
      <trkpt lat="46.34068" lon="6.71937">
        <ele>1742.4482</ele>
        <time>2014-08-27T14:31:50Z</time>
      </trkpt>
      <trkpt lat="46.34068" lon="6.71936">
        <ele>1742.4482</ele>
        <time>2014-08-27T14:31:55Z</time>
      </trkpt>
      <trkpt lat="46.34067" lon="6.71937">
        <ele>1742.4482</ele>
        <time>2014-08-27T14:32:00Z</time>
      </trkpt>
      <trkpt lat="46.34067" lon="6.71937">
        <ele>1742.4482</ele>
        <time>2014-08-27T14:32:05Z</time>
      </trkpt>
      <trkpt lat="46.34068" lon="6.71937">
        <ele>1742.4482</ele>
        <time>2014-08-27T14:32:10Z</time>
      </trkpt>
      <trkpt lat="46.34068" lon="6.71937">
        <ele>1742.4482</ele>
        <time>2014-08-27T14:32:15Z</time>
      </trkpt>
      <trkpt lat="46.34069" lon="6.71938">
        <ele>1742.4482</ele>
        <time>2014-08-27T14:32:20Z</time>
      </trkpt>
      <trkpt lat="46.3407" lon="6.71939">
        <ele>1741.543</ele>
        <time>2014-08-27T14:32:25Z</time>
      </trkpt>
      <trkpt lat="46.34069" lon="6.71939">
        <ele>1741.543</ele>
        <time>2014-08-27T14:32:30Z</time>
      </trkpt>
      <trkpt lat="46.34068" lon="6.71938">
        <ele>1741.543</ele>
        <time>2014-08-27T14:32:35Z</time>
      </trkpt>
      <trkpt lat="46.34068" lon="6.71937">
        <ele>1741.543</ele>
        <time>2014-08-27T14:32:40Z</time>
      </trkpt>
      <trkpt lat="46.34067" lon="6.71939">
        <ele>1741.543</ele>
        <time>2014-08-27T14:32:45Z</time>
      </trkpt>
      <trkpt lat="46.34066" lon="6.7194">
        <ele>1741.543</ele>
        <time>2014-08-27T14:32:50Z</time>
      </trkpt>
      <trkpt lat="46.34067" lon="6.71941">
        <ele>1741.543</ele>
        <time>2014-08-27T14:32:55Z</time>
      </trkpt>
      <trkpt lat="46.34068" lon="6.71943">
        <ele>1740.7402</ele>
        <time>2014-08-27T14:33:00Z</time>
      </trkpt>
      <trkpt lat="46.34069" lon="6.71944">
        <ele>1740.7402</ele>
        <time>2014-08-27T14:33:05Z</time>
      </trkpt>
      <trkpt lat="46.34069" lon="6.71945">
        <ele>1740.7402</ele>
        <time>2014-08-27T14:33:10Z</time>
      </trkpt>
      <trkpt lat="46.3407" lon="6.71948">
        <ele>1740.7402</ele>
        <time>2014-08-27T14:33:15Z</time>
      </trkpt>
      <trkpt lat="46.3407" lon="6.7195">
        <ele>1740.7402</ele>
        <time>2014-08-27T14:33:20Z</time>
      </trkpt>
      <trkpt lat="46.34071" lon="6.71952">
        <ele>1740.7402</ele>
        <time>2014-08-27T14:33:25Z</time>
      </trkpt>
      <trkpt lat="46.34071" lon="6.71954">
        <ele>1740.7402</ele>
        <time>2014-08-27T14:33:30Z</time>
      </trkpt>
      <trkpt lat="46.34071" lon="6.71956">
        <ele>1740.2499</ele>
        <time>2014-08-27T14:33:35Z</time>
      </trkpt>
      <trkpt lat="46.34071" lon="6.71958">
        <ele>1740.2499</ele>
        <time>2014-08-27T14:33:40Z</time>
      </trkpt>
      <trkpt lat="46.34071" lon="6.71958">
        <ele>1740.2499</ele>
        <time>2014-08-27T14:33:45Z</time>
      </trkpt>
      <trkpt lat="46.34071" lon="6.7196">
        <ele>1740.2499</ele>
        <time>2014-08-27T14:34:05Z</time>
      </trkpt>
      <trkpt lat="46.34072" lon="6.71963">
        <ele>1740.2499</ele>
        <time>2014-08-27T14:34:10Z</time>
      </trkpt>
      <trkpt lat="46.34074" lon="6.71971">
        <ele>1740.5679</ele>
        <time>2014-08-27T14:34:15Z</time>
      </trkpt>
      <trkpt lat="46.34075" lon="6.71973">
        <ele>1740.5679</ele>
        <time>2014-08-27T14:34:20Z</time>
      </trkpt>
      <trkpt lat="46.34076" lon="6.71975">
        <ele>1740.5679</ele>
        <time>2014-08-27T14:34:25Z</time>
      </trkpt>
      <trkpt lat="46.34075" lon="6.71979">
        <ele>1740.5679</ele>
        <time>2014-08-27T14:34:30Z</time>
      </trkpt>
      <trkpt lat="46.34077" lon="6.71983">
        <ele>1741.3442</ele>
        <time>2014-08-27T14:34:35Z</time>
      </trkpt>
      <trkpt lat="46.34079" lon="6.71985">
        <ele>1741.3442</ele>
        <time>2014-08-27T14:34:40Z</time>
      </trkpt>
      <trkpt lat="46.3408" lon="6.71986">
        <ele>1741.3442</ele>
        <time>2014-08-27T14:34:45Z</time>
      </trkpt>
      <trkpt lat="46.34081" lon="6.71986">
        <ele>1741.3442</ele>
        <time>2014-08-27T14:34:50Z</time>
      </trkpt>
      <trkpt lat="46.34082" lon="6.71987">
        <ele>1741.3442</ele>
        <time>2014-08-27T14:34:55Z</time>
      </trkpt>
      <trkpt lat="46.34082" lon="6.7199">
        <ele>1741.3442</ele>
        <time>2014-08-27T14:35:00Z</time>
      </trkpt>
      <trkpt lat="46.34085" lon="6.71992">
        <ele>1742.7001</ele>
        <time>2014-08-27T14:35:05Z</time>
      </trkpt>
      <trkpt lat="46.34085" lon="6.71993">
        <ele>1742.7001</ele>
        <time>2014-08-27T14:35:10Z</time>
      </trkpt>
      <trkpt lat="46.34085" lon="6.71993">
        <ele>1742.7001</ele>
        <time>2014-08-27T14:35:15Z</time>
      </trkpt>
      <trkpt lat="46.34085" lon="6.71995">
        <ele>1742.7001</ele>
        <time>2014-08-27T14:35:20Z</time>
      </trkpt>
      <trkpt lat="46.34085" lon="6.71995">
        <ele>1742.7001</ele>
        <time>2014-08-27T14:35:25Z</time>
      </trkpt>
      <trkpt lat="46.34084" lon="6.71995">
        <ele>1742.7001</ele>
        <time>2014-08-27T14:35:30Z</time>
      </trkpt>
      <trkpt lat="46.34084" lon="6.71994">
        <ele>1742.7001</ele>
        <time>2014-08-27T14:35:35Z</time>
      </trkpt>
      <trkpt lat="46.34084" lon="6.71998">
        <ele>1742.7001</ele>
        <time>2014-08-27T14:35:50Z</time>
      </trkpt>
      <trkpt lat="46.34084" lon="6.71998">
        <ele>1742.7001</ele>
        <time>2014-08-27T14:35:55Z</time>
      </trkpt>
      <trkpt lat="46.34086" lon="6.72002">
        <ele>1744.6736</ele>
        <time>2014-08-27T14:36:30Z</time>
      </trkpt>
      <trkpt lat="46.34085" lon="6.72007">
        <ele>1744.6736</ele>
        <time>2014-08-27T14:36:35Z</time>
      </trkpt>
      <trkpt lat="46.34089" lon="6.72019">
        <ele>1746.909</ele>
        <time>2014-08-27T14:36:40Z</time>
      </trkpt>
      <trkpt lat="46.34091" lon="6.72025">
        <ele>1746.909</ele>
        <time>2014-08-27T14:36:45Z</time>
      </trkpt>
      <trkpt lat="46.34093" lon="6.72026">
        <ele>1746.909</ele>
        <time>2014-08-27T14:36:50Z</time>
      </trkpt>
      <trkpt lat="46.34094" lon="6.72027">
        <ele>1746.909</ele>
        <time>2014-08-27T14:36:55Z</time>
      </trkpt>
      <trkpt lat="46.34096" lon="6.72029">
        <ele>1749.451</ele>
        <time>2014-08-27T14:37:00Z</time>
      </trkpt>
      <trkpt lat="46.34098" lon="6.7203">
        <ele>1749.451</ele>
        <time>2014-08-27T14:37:05Z</time>
      </trkpt>
      <trkpt lat="46.34099" lon="6.7203">
        <ele>1749.451</ele>
        <time>2014-08-27T14:37:10Z</time>
      </trkpt>
      <trkpt lat="46.34099" lon="6.7203">
        <ele>1749.451</ele>
        <time>2014-08-27T14:37:15Z</time>
      </trkpt>
      <trkpt lat="46.34099" lon="6.72031">
        <ele>1749.451</ele>
        <time>2014-08-27T14:37:20Z</time>
      </trkpt>
      <trkpt lat="46.34099" lon="6.72032">
        <ele>1749.451</ele>
        <time>2014-08-27T14:37:25Z</time>
      </trkpt>
      <trkpt lat="46.34098" lon="6.72032">
        <ele>1749.451</ele>
        <time>2014-08-27T14:37:30Z</time>
      </trkpt>
      <trkpt lat="46.34097" lon="6.72033">
        <ele>1749.451</ele>
        <time>2014-08-27T14:37:35Z</time>
      </trkpt>
      <trkpt lat="46.34097" lon="6.72033">
        <ele>1749.451</ele>
        <time>2014-08-27T14:37:40Z</time>
      </trkpt>
      <trkpt lat="46.34097" lon="6.72032">
        <ele>1749.451</ele>
        <time>2014-08-27T14:37:45Z</time>
      </trkpt>
      <trkpt lat="46.34097" lon="6.72034">
        <ele>1749.451</ele>
        <time>2014-08-27T14:37:50Z</time>
      </trkpt>
      <trkpt lat="46.34098" lon="6.72035">
        <ele>1752.3973</ele>
        <time>2014-08-27T14:37:55Z</time>
      </trkpt>
      <trkpt lat="46.341" lon="6.72037">
        <ele>1752.3973</ele>
        <time>2014-08-27T14:38:00Z</time>
      </trkpt>
      <trkpt lat="46.34101" lon="6.72041">
        <ele>1752.3973</ele>
        <time>2014-08-27T14:38:05Z</time>
      </trkpt>
      <trkpt lat="46.34101" lon="6.72043">
        <ele>1752.3973</ele>
        <time>2014-08-27T14:38:10Z</time>
      </trkpt>
      <trkpt lat="46.34103" lon="6.72047">
        <ele>1755.5061</ele>
        <time>2014-08-27T14:38:15Z</time>
      </trkpt>
      <trkpt lat="46.34105" lon="6.72049">
        <ele>1755.5061</ele>
        <time>2014-08-27T14:38:20Z</time>
      </trkpt>
      <trkpt lat="46.34106" lon="6.72052">
        <ele>1755.5061</ele>
        <time>2014-08-27T14:38:25Z</time>
      </trkpt>
      <trkpt lat="46.34106" lon="6.72053">
        <ele>1755.5061</ele>
        <time>2014-08-27T14:38:30Z</time>
      </trkpt>
      <trkpt lat="46.34106" lon="6.72055">
        <ele>1755.5061</ele>
        <time>2014-08-27T14:38:35Z</time>
      </trkpt>
      <trkpt lat="46.34105" lon="6.72059">
        <ele>1758.7974</ele>
        <time>2014-08-27T14:38:40Z</time>
      </trkpt>
      <trkpt lat="46.34106" lon="6.72062">
        <ele>1758.7974</ele>
        <time>2014-08-27T14:38:45Z</time>
      </trkpt>
      <trkpt lat="46.34106" lon="6.72062">
        <ele>1758.7974</ele>
        <time>2014-08-27T14:38:50Z</time>
      </trkpt>
      <trkpt lat="46.34107" lon="6.72062">
        <ele>1758.7974</ele>
        <time>2014-08-27T14:38:55Z</time>
      </trkpt>
      <trkpt lat="46.34109" lon="6.72061">
        <ele>1758.7974</ele>
        <time>2014-08-27T14:39:00Z</time>
      </trkpt>
      <trkpt lat="46.3411" lon="6.72062">
        <ele>1758.7974</ele>
        <time>2014-08-27T14:39:05Z</time>
      </trkpt>
      <trkpt lat="46.34112" lon="6.72062">
        <ele>1758.7974</ele>
        <time>2014-08-27T14:39:10Z</time>
      </trkpt>
      <trkpt lat="46.34113" lon="6.72063">
        <ele>1762.0735</ele>
        <time>2014-08-27T14:39:15Z</time>
      </trkpt>
      <trkpt lat="46.34113" lon="6.72063">
        <ele>1762.0735</ele>
        <time>2014-08-27T14:39:20Z</time>
      </trkpt>
      <trkpt lat="46.34113" lon="6.72066">
        <ele>1762.0735</ele>
        <time>2014-08-27T14:39:25Z</time>
      </trkpt>
      <trkpt lat="46.34115" lon="6.72068">
        <ele>1762.0735</ele>
        <time>2014-08-27T14:39:30Z</time>
      </trkpt>
      <trkpt lat="46.34115" lon="6.72071">
        <ele>1762.0735</ele>
        <time>2014-08-27T14:39:35Z</time>
      </trkpt>
      <trkpt lat="46.34115" lon="6.72071">
        <ele>1762.0735</ele>
        <time>2014-08-27T14:39:40Z</time>
      </trkpt>
      <trkpt lat="46.34114" lon="6.7207">
        <ele>1762.0735</ele>
        <time>2014-08-27T14:39:45Z</time>
      </trkpt>
      <trkpt lat="46.34115" lon="6.72072">
        <ele>1762.0735</ele>
        <time>2014-08-27T14:39:50Z</time>
      </trkpt>
      <trkpt lat="46.34117" lon="6.72075">
        <ele>1765.5548</ele>
        <time>2014-08-27T14:39:55Z</time>
      </trkpt>
      <trkpt lat="46.34117" lon="6.72078">
        <ele>1765.5548</ele>
        <time>2014-08-27T14:40:00Z</time>
      </trkpt>
      <trkpt lat="46.34118" lon="6.72082">
        <ele>1765.5548</ele>
        <time>2014-08-27T14:40:05Z</time>
      </trkpt>
      <trkpt lat="46.34119" lon="6.72087">
        <ele>1765.5548</ele>
        <time>2014-08-27T14:40:10Z</time>
      </trkpt>
      <trkpt lat="46.34118" lon="6.72088">
        <ele>1769.0846</ele>
        <time>2014-08-27T14:40:15Z</time>
      </trkpt>
      <trkpt lat="46.34118" lon="6.72096">
        <ele>1769.0846</ele>
        <time>2014-08-27T14:40:20Z</time>
      </trkpt>
      <trkpt lat="46.34119" lon="6.72099">
        <ele>1769.0846</ele>
        <time>2014-08-27T14:40:25Z</time>
      </trkpt>
      <trkpt lat="46.34119" lon="6.72101">
        <ele>1772.6185</ele>
        <time>2014-08-27T14:40:30Z</time>
      </trkpt>
      <trkpt lat="46.34118" lon="6.72104">
        <ele>1772.6185</ele>
        <time>2014-08-27T14:40:35Z</time>
      </trkpt>
      <trkpt lat="46.34119" lon="6.72106">
        <ele>1772.6185</ele>
        <time>2014-08-27T14:40:40Z</time>
      </trkpt>
      <trkpt lat="46.3412" lon="6.7211">
        <ele>1772.6185</ele>
        <time>2014-08-27T14:40:45Z</time>
      </trkpt>
      <trkpt lat="46.3412" lon="6.7211">
        <ele>1772.6185</ele>
        <time>2014-08-27T14:40:50Z</time>
      </trkpt>
      <trkpt lat="46.34121" lon="6.72115">
        <ele>1776.5914</ele>
        <time>2014-08-27T14:40:55Z</time>
      </trkpt>
      <trkpt lat="46.34119" lon="6.72118">
        <ele>1776.5914</ele>
        <time>2014-08-27T14:41:00Z</time>
      </trkpt>
      <trkpt lat="46.34121" lon="6.72124">
        <ele>1776.5914</ele>
        <time>2014-08-27T14:41:05Z</time>
      </trkpt>
      <trkpt lat="46.34121" lon="6.72126">
        <ele>1776.5914</ele>
        <time>2014-08-27T14:41:10Z</time>
      </trkpt>
      <trkpt lat="46.3412" lon="6.72128">
        <ele>1780.6122</ele>
        <time>2014-08-27T14:41:15Z</time>
      </trkpt>
      <trkpt lat="46.3412" lon="6.7213">
        <ele>1780.6122</ele>
        <time>2014-08-27T14:41:20Z</time>
      </trkpt>
      <trkpt lat="46.34123" lon="6.72135">
        <ele>1780.6122</ele>
        <time>2014-08-27T14:41:25Z</time>
      </trkpt>
      <trkpt lat="46.34121" lon="6.72139">
        <ele>1784.4917</ele>
        <time>2014-08-27T14:41:30Z</time>
      </trkpt>
      <trkpt lat="46.34119" lon="6.72143">
        <ele>1784.4917</ele>
        <time>2014-08-27T14:41:35Z</time>
      </trkpt>
      <trkpt lat="46.34119" lon="6.72146">
        <ele>1784.4917</ele>
        <time>2014-08-27T14:41:40Z</time>
      </trkpt>
      <trkpt lat="46.34119" lon="6.72149">
        <ele>1784.4917</ele>
        <time>2014-08-27T14:41:45Z</time>
      </trkpt>
      <trkpt lat="46.3412" lon="6.72152">
        <ele>1788.3289</ele>
        <time>2014-08-27T14:41:50Z</time>
      </trkpt>
      <trkpt lat="46.34121" lon="6.72157">
        <ele>1788.3289</ele>
        <time>2014-08-27T14:41:55Z</time>
      </trkpt>
      <trkpt lat="46.34123" lon="6.72162">
        <ele>1788.3289</ele>
        <time>2014-08-27T14:42:00Z</time>
      </trkpt>
      <trkpt lat="46.34123" lon="6.72164">
        <ele>1788.3289</ele>
        <time>2014-08-27T14:42:05Z</time>
      </trkpt>
      <trkpt lat="46.34123" lon="6.72165">
        <ele>1792.0432</ele>
        <time>2014-08-27T14:42:10Z</time>
      </trkpt>
      <trkpt lat="46.34123" lon="6.72166">
        <ele>1792.0432</ele>
        <time>2014-08-27T14:42:15Z</time>
      </trkpt>
      <trkpt lat="46.34123" lon="6.72169">
        <ele>1792.0432</ele>
        <time>2014-08-27T14:42:20Z</time>
      </trkpt>
      <trkpt lat="46.34125" lon="6.72173">
        <ele>1792.0432</ele>
        <time>2014-08-27T14:42:25Z</time>
      </trkpt>
      <trkpt lat="46.34127" lon="6.7218">
        <ele>1795.5746</ele>
        <time>2014-08-27T14:42:30Z</time>
      </trkpt>
      <trkpt lat="46.34127" lon="6.72183">
        <ele>1795.5746</ele>
        <time>2014-08-27T14:42:35Z</time>
      </trkpt>
      <trkpt lat="46.34127" lon="6.72186">
        <ele>1795.5746</ele>
        <time>2014-08-27T14:42:40Z</time>
      </trkpt>
      <trkpt lat="46.34129" lon="6.72188">
        <ele>1795.5746</ele>
        <time>2014-08-27T14:42:45Z</time>
      </trkpt>
      <trkpt lat="46.34129" lon="6.72191">
        <ele>1795.5746</ele>
        <time>2014-08-27T14:42:50Z</time>
      </trkpt>
      <trkpt lat="46.34131" lon="6.72196">
        <ele>1799.0848</ele>
        <time>2014-08-27T14:42:55Z</time>
      </trkpt>
      <trkpt lat="46.34131" lon="6.72199">
        <ele>1799.0848</ele>
        <time>2014-08-27T14:43:00Z</time>
      </trkpt>
      <trkpt lat="46.34132" lon="6.72202">
        <ele>1799.0848</ele>
        <time>2014-08-27T14:43:05Z</time>
      </trkpt>
      <trkpt lat="46.34132" lon="6.72206">
        <ele>1799.0848</ele>
        <time>2014-08-27T14:43:10Z</time>
      </trkpt>
      <trkpt lat="46.34133" lon="6.72209">
        <ele>1802.5364</ele>
        <time>2014-08-27T14:43:15Z</time>
      </trkpt>
      <trkpt lat="46.34133" lon="6.7221">
        <ele>1802.5364</ele>
        <time>2014-08-27T14:43:20Z</time>
      </trkpt>
      <trkpt lat="46.34134" lon="6.72212">
        <ele>1802.5364</ele>
        <time>2014-08-27T14:43:25Z</time>
      </trkpt>
      <trkpt lat="46.34135" lon="6.72214">
        <ele>1802.5364</ele>
        <time>2014-08-27T14:43:30Z</time>
      </trkpt>
      <trkpt lat="46.34136" lon="6.72215">
        <ele>1802.5364</ele>
        <time>2014-08-27T14:43:35Z</time>
      </trkpt>
      <trkpt lat="46.34138" lon="6.72215">
        <ele>1802.5364</ele>
        <time>2014-08-27T14:43:40Z</time>
      </trkpt>
      <trkpt lat="46.34139" lon="6.72216">
        <ele>1802.5364</ele>
        <time>2014-08-27T14:43:45Z</time>
      </trkpt>
      <trkpt lat="46.34141" lon="6.72217">
        <ele>1805.9816</ele>
        <time>2014-08-27T14:43:50Z</time>
      </trkpt>
      <trkpt lat="46.34141" lon="6.72216">
        <ele>1805.9816</ele>
        <time>2014-08-27T14:43:55Z</time>
      </trkpt>
      <trkpt lat="46.34143" lon="6.72217">
        <ele>1805.9816</ele>
        <time>2014-08-27T14:44:00Z</time>
      </trkpt>
      <trkpt lat="46.34144" lon="6.72217">
        <ele>1805.9816</ele>
        <time>2014-08-27T14:44:05Z</time>
      </trkpt>
      <trkpt lat="46.34144" lon="6.72217">
        <ele>1805.9816</ele>
        <time>2014-08-27T14:44:10Z</time>
      </trkpt>
      <trkpt lat="46.34145" lon="6.72217">
        <ele>1805.9816</ele>
        <time>2014-08-27T14:44:15Z</time>
      </trkpt>
      <trkpt lat="46.34145" lon="6.72217">
        <ele>1805.9816</ele>
        <time>2014-08-27T14:44:20Z</time>
      </trkpt>
      <trkpt lat="46.34144" lon="6.72217">
        <ele>1805.9816</ele>
        <time>2014-08-27T14:44:25Z</time>
      </trkpt>
      <trkpt lat="46.34144" lon="6.72217">
        <ele>1805.9816</ele>
        <time>2014-08-27T14:44:30Z</time>
      </trkpt>
      <trkpt lat="46.34144" lon="6.72218">
        <ele>1805.9816</ele>
        <time>2014-08-27T14:44:35Z</time>
      </trkpt>
      <trkpt lat="46.34144" lon="6.72222">
        <ele>1805.9816</ele>
        <time>2014-08-27T14:44:40Z</time>
      </trkpt>
      <trkpt lat="46.34144" lon="6.72224">
        <ele>1809.5557</ele>
        <time>2014-08-27T14:44:45Z</time>
      </trkpt>
      <trkpt lat="46.34144" lon="6.72229">
        <ele>1809.5557</ele>
        <time>2014-08-27T14:44:50Z</time>
      </trkpt>
      <trkpt lat="46.34143" lon="6.72233">
        <ele>1809.5557</ele>
        <time>2014-08-27T14:44:55Z</time>
      </trkpt>
      <trkpt lat="46.34143" lon="6.72237">
        <ele>1809.5557</ele>
        <time>2014-08-27T14:45:00Z</time>
      </trkpt>
      <trkpt lat="46.34143" lon="6.7224">
        <ele>1813.1102</ele>
        <time>2014-08-27T14:45:05Z</time>
      </trkpt>
      <trkpt lat="46.34144" lon="6.72242">
        <ele>1813.1102</ele>
        <time>2014-08-27T14:45:10Z</time>
      </trkpt>
      <trkpt lat="46.34144" lon="6.72245">
        <ele>1813.1102</ele>
        <time>2014-08-27T14:45:15Z</time>
      </trkpt>
      <trkpt lat="46.34147" lon="6.72249">
        <ele>1813.1102</ele>
        <time>2014-08-27T14:45:20Z</time>
      </trkpt>
      <trkpt lat="46.34147" lon="6.72251">
        <ele>1813.1102</ele>
        <time>2014-08-27T14:45:25Z</time>
      </trkpt>
      <trkpt lat="46.3415" lon="6.72255">
        <ele>1816.5942</ele>
        <time>2014-08-27T14:45:30Z</time>
      </trkpt>
      <trkpt lat="46.34151" lon="6.72258">
        <ele>1816.5942</ele>
        <time>2014-08-27T14:45:35Z</time>
      </trkpt>
      <trkpt lat="46.34153" lon="6.72263">
        <ele>1816.5942</ele>
        <time>2014-08-27T14:45:40Z</time>
      </trkpt>
      <trkpt lat="46.34153" lon="6.72266">
        <ele>1816.5942</ele>
        <time>2014-08-27T14:45:45Z</time>
      </trkpt>
      <trkpt lat="46.34153" lon="6.72265">
        <ele>1816.5942</ele>
        <time>2014-08-27T14:45:50Z</time>
      </trkpt>
      <trkpt lat="46.34156" lon="6.72268">
        <ele>1820.0044</ele>
        <time>2014-08-27T14:45:55Z</time>
      </trkpt>
      <trkpt lat="46.34157" lon="6.7227">
        <ele>1820.0044</ele>
        <time>2014-08-27T14:46:00Z</time>
      </trkpt>
      <trkpt lat="46.34156" lon="6.72273">
        <ele>1820.0044</ele>
        <time>2014-08-27T14:46:05Z</time>
      </trkpt>
      <trkpt lat="46.34156" lon="6.72273">
        <ele>1820.0044</ele>
        <time>2014-08-27T14:46:10Z</time>
      </trkpt>
      <trkpt lat="46.34157" lon="6.72274">
        <ele>1820.0044</ele>
        <time>2014-08-27T14:46:15Z</time>
      </trkpt>
      <trkpt lat="46.34157" lon="6.72274">
        <ele>1820.0044</ele>
        <time>2014-08-27T14:46:20Z</time>
      </trkpt>
      <trkpt lat="46.34156" lon="6.72275">
        <ele>1820.0044</ele>
        <time>2014-08-27T14:46:25Z</time>
      </trkpt>
      <trkpt lat="46.34156" lon="6.72275">
        <ele>1820.0044</ele>
        <time>2014-08-27T14:46:30Z</time>
      </trkpt>
      <trkpt lat="46.34156" lon="6.72275">
        <ele>1820.0044</ele>
        <time>2014-08-27T14:46:35Z</time>
      </trkpt>
      <trkpt lat="46.34157" lon="6.72275">
        <ele>1820.0044</ele>
        <time>2014-08-27T14:46:40Z</time>
      </trkpt>
      <trkpt lat="46.34157" lon="6.72276">
        <ele>1820.0044</ele>
        <time>2014-08-27T14:46:45Z</time>
      </trkpt>
      <trkpt lat="46.34158" lon="6.72278">
        <ele>1823.4823</ele>
        <time>2014-08-27T14:46:50Z</time>
      </trkpt>
      <trkpt lat="46.34158" lon="6.7228">
        <ele>1823.4823</ele>
        <time>2014-08-27T14:46:55Z</time>
      </trkpt>
      <trkpt lat="46.3416" lon="6.72282">
        <ele>1823.4823</ele>
        <time>2014-08-27T14:47:00Z</time>
      </trkpt>
      <trkpt lat="46.3416" lon="6.72283">
        <ele>1823.4823</ele>
        <time>2014-08-27T14:47:05Z</time>
      </trkpt>
      <trkpt lat="46.3416" lon="6.72285">
        <ele>1823.4823</ele>
        <time>2014-08-27T14:47:10Z</time>
      </trkpt>
      <trkpt lat="46.34162" lon="6.72287">
        <ele>1823.4823</ele>
        <time>2014-08-27T14:47:15Z</time>
      </trkpt>
      <trkpt lat="46.34163" lon="6.7229">
        <ele>1827.0151</ele>
        <time>2014-08-27T14:47:20Z</time>
      </trkpt>
      <trkpt lat="46.34163" lon="6.72293">
        <ele>1827.0151</ele>
        <time>2014-08-27T14:47:25Z</time>
      </trkpt>
      <trkpt lat="46.34163" lon="6.72297">
        <ele>1827.0151</ele>
        <time>2014-08-27T14:47:30Z</time>
      </trkpt>
      <trkpt lat="46.34163" lon="6.72299">
        <ele>1827.0151</ele>
        <time>2014-08-27T14:47:35Z</time>
      </trkpt>
      <trkpt lat="46.34163" lon="6.72302">
        <ele>1827.0151</ele>
        <time>2014-08-27T14:47:40Z</time>
      </trkpt>
      <trkpt lat="46.34164" lon="6.72306">
        <ele>1830.5334</ele>
        <time>2014-08-27T14:47:45Z</time>
      </trkpt>
      <trkpt lat="46.34167" lon="6.72308">
        <ele>1830.5334</ele>
        <time>2014-08-27T14:47:50Z</time>
      </trkpt>
      <trkpt lat="46.34167" lon="6.72307">
        <ele>1830.5334</ele>
        <time>2014-08-27T14:47:55Z</time>
      </trkpt>
      <trkpt lat="46.34167" lon="6.72306">
        <ele>1830.5334</ele>
        <time>2014-08-27T14:48:00Z</time>
      </trkpt>
      <trkpt lat="46.34169" lon="6.72306">
        <ele>1830.5334</ele>
        <time>2014-08-27T14:48:05Z</time>
      </trkpt>
      <trkpt lat="46.34169" lon="6.72305">
        <ele>1830.5334</ele>
        <time>2014-08-27T14:48:10Z</time>
      </trkpt>
      <trkpt lat="46.34169" lon="6.72305">
        <ele>1830.5334</ele>
        <time>2014-08-27T14:48:15Z</time>
      </trkpt>
      <trkpt lat="46.3417" lon="6.72307">
        <ele>1830.5334</ele>
        <time>2014-08-27T14:48:20Z</time>
      </trkpt>
      <trkpt lat="46.34173" lon="6.72311">
        <ele>1833.786</ele>
        <time>2014-08-27T14:48:25Z</time>
      </trkpt>
      <trkpt lat="46.34177" lon="6.72314">
        <ele>1833.786</ele>
        <time>2014-08-27T14:48:30Z</time>
      </trkpt>
      <trkpt lat="46.34181" lon="6.72319">
        <ele>1836.8003</ele>
        <time>2014-08-27T14:48:35Z</time>
      </trkpt>
      <trkpt lat="46.34186" lon="6.72325">
        <ele>1836.8003</ele>
        <time>2014-08-27T14:48:40Z</time>
      </trkpt>
      <trkpt lat="46.34186" lon="6.72325">
        <ele>1836.8003</ele>
        <time>2014-08-27T14:48:45Z</time>
      </trkpt>
      <trkpt lat="46.34188" lon="6.72327">
        <ele>1836.8003</ele>
        <time>2014-08-27T14:48:50Z</time>
      </trkpt>
      <trkpt lat="46.3419" lon="6.72331">
        <ele>1839.7328</ele>
        <time>2014-08-27T14:48:55Z</time>
      </trkpt>
      <trkpt lat="46.34192" lon="6.72333">
        <ele>1839.7328</ele>
        <time>2014-08-27T14:49:00Z</time>
      </trkpt>
      <trkpt lat="46.34196" lon="6.72339">
        <ele>1839.7328</ele>
        <time>2014-08-27T14:49:05Z</time>
      </trkpt>
      <trkpt lat="46.34199" lon="6.72341">
        <ele>1842.671</ele>
        <time>2014-08-27T14:49:10Z</time>
      </trkpt>
      <trkpt lat="46.34201" lon="6.72344">
        <ele>1842.671</ele>
        <time>2014-08-27T14:49:15Z</time>
      </trkpt>
      <trkpt lat="46.34204" lon="6.72348">
        <ele>1842.671</ele>
        <time>2014-08-27T14:49:20Z</time>
      </trkpt>
      <trkpt lat="46.34207" lon="6.72354">
        <ele>1845.4803</ele>
        <time>2014-08-27T14:49:25Z</time>
      </trkpt>
      <trkpt lat="46.3421" lon="6.72357">
        <ele>1845.4803</ele>
        <time>2014-08-27T14:49:30Z</time>
      </trkpt>
      <trkpt lat="46.34213" lon="6.7236">
        <ele>1845.4803</ele>
        <time>2014-08-27T14:49:35Z</time>
      </trkpt>
      <trkpt lat="46.34215" lon="6.72362">
        <ele>1848.0366</ele>
        <time>2014-08-27T14:49:40Z</time>
      </trkpt>
      <trkpt lat="46.34221" lon="6.72369">
        <ele>1848.0366</ele>
        <time>2014-08-27T14:49:45Z</time>
      </trkpt>
      <trkpt lat="46.34222" lon="6.72369">
        <ele>1848.0366</ele>
        <time>2014-08-27T14:49:50Z</time>
      </trkpt>
      <trkpt lat="46.34222" lon="6.72369">
        <ele>1848.0366</ele>
        <time>2014-08-27T14:49:55Z</time>
      </trkpt>
      <trkpt lat="46.34222" lon="6.72369">
        <ele>1850.3413</ele>
        <time>2014-08-27T14:50:00Z</time>
      </trkpt>
      <trkpt lat="46.34223" lon="6.72368">
        <ele>1850.3413</ele>
        <time>2014-08-27T14:50:05Z</time>
      </trkpt>
      <trkpt lat="46.34223" lon="6.72368">
        <ele>1850.3413</ele>
        <time>2014-08-27T14:50:10Z</time>
      </trkpt>
      <trkpt lat="46.34224" lon="6.72367">
        <ele>1850.3413</ele>
        <time>2014-08-27T14:50:15Z</time>
      </trkpt>
      <trkpt lat="46.34226" lon="6.72369">
        <ele>1850.3413</ele>
        <time>2014-08-27T14:50:20Z</time>
      </trkpt>
      <trkpt lat="46.34229" lon="6.72372">
        <ele>1850.3413</ele>
        <time>2014-08-27T14:50:25Z</time>
      </trkpt>
      <trkpt lat="46.34231" lon="6.72376">
        <ele>1852.3098</ele>
        <time>2014-08-27T14:50:30Z</time>
      </trkpt>
      <trkpt lat="46.34234" lon="6.7238">
        <ele>1852.3098</ele>
        <time>2014-08-27T14:50:35Z</time>
      </trkpt>
      <trkpt lat="46.34236" lon="6.72383">
        <ele>1852.3098</ele>
        <time>2014-08-27T14:50:40Z</time>
      </trkpt>
      <trkpt lat="46.34238" lon="6.72387">
        <ele>1853.9663</ele>
        <time>2014-08-27T14:50:45Z</time>
      </trkpt>
      <trkpt lat="46.3424" lon="6.72392">
        <ele>1853.9663</ele>
        <time>2014-08-27T14:50:50Z</time>
      </trkpt>
      <trkpt lat="46.34242" lon="6.72395">
        <ele>1853.9663</ele>
        <time>2014-08-27T14:50:55Z</time>
      </trkpt>
      <trkpt lat="46.34245" lon="6.72399">
        <ele>1855.305</ele>
        <time>2014-08-27T14:51:00Z</time>
      </trkpt>
      <trkpt lat="46.34248" lon="6.72405">
        <ele>1855.305</ele>
        <time>2014-08-27T14:51:05Z</time>
      </trkpt>
      <trkpt lat="46.34251" lon="6.72412">
        <ele>1856.3364</ele>
        <time>2014-08-27T14:51:10Z</time>
      </trkpt>
      <trkpt lat="46.34256" lon="6.7242">
        <ele>1856.3364</ele>
        <time>2014-08-27T14:51:15Z</time>
      </trkpt>
      <trkpt lat="46.34262" lon="6.72428">
        <ele>1857.2299</ele>
        <time>2014-08-27T14:51:20Z</time>
      </trkpt>
      <trkpt lat="46.34264" lon="6.72435">
        <ele>1857.2299</ele>
        <time>2014-08-27T14:51:25Z</time>
      </trkpt>
      <trkpt lat="46.34266" lon="6.72438">
        <ele>1857.2299</ele>
        <time>2014-08-27T14:51:30Z</time>
      </trkpt>
      <trkpt lat="46.34268" lon="6.72442">
        <ele>1857.8397</ele>
        <time>2014-08-27T14:51:35Z</time>
      </trkpt>
      <trkpt lat="46.34271" lon="6.72448">
        <ele>1857.8397</ele>
        <time>2014-08-27T14:51:40Z</time>
      </trkpt>
      <trkpt lat="46.34272" lon="6.72452">
        <ele>1857.8397</ele>
        <time>2014-08-27T14:51:45Z</time>
      </trkpt>
      <trkpt lat="46.34273" lon="6.7246">
        <ele>1858.0902</ele>
        <time>2014-08-27T14:51:50Z</time>
      </trkpt>
      <trkpt lat="46.34276" lon="6.72465">
        <ele>1858.0902</ele>
        <time>2014-08-27T14:51:55Z</time>
      </trkpt>
      <trkpt lat="46.34279" lon="6.72469">
        <ele>1858.0902</ele>
        <time>2014-08-27T14:52:00Z</time>
      </trkpt>
      <trkpt lat="46.34281" lon="6.72473">
        <ele>1858.2145</ele>
        <time>2014-08-27T14:52:05Z</time>
      </trkpt>
      <trkpt lat="46.34285" lon="6.72479">
        <ele>1858.2145</ele>
        <time>2014-08-27T14:52:10Z</time>
      </trkpt>
      <trkpt lat="46.34286" lon="6.72483">
        <ele>1858.2145</ele>
        <time>2014-08-27T14:52:15Z</time>
      </trkpt>
      <trkpt lat="46.34287" lon="6.72487">
        <ele>1858.04</ele>
        <time>2014-08-27T14:52:20Z</time>
      </trkpt>
      <trkpt lat="46.34287" lon="6.72488">
        <ele>1858.04</ele>
        <time>2014-08-27T14:52:25Z</time>
      </trkpt>
      <trkpt lat="46.34288" lon="6.72488">
        <ele>1858.04</ele>
        <time>2014-08-27T14:52:30Z</time>
      </trkpt>
      <trkpt lat="46.34287" lon="6.72486">
        <ele>1858.04</ele>
        <time>2014-08-27T14:52:35Z</time>
      </trkpt>
      <trkpt lat="46.34287" lon="6.72486">
        <ele>1858.04</ele>
        <time>2014-08-27T14:52:40Z</time>
      </trkpt>
      <trkpt lat="46.34286" lon="6.72486">
        <ele>1858.04</ele>
        <time>2014-08-27T14:52:45Z</time>
      </trkpt>
      <trkpt lat="46.34286" lon="6.72487">
        <ele>1858.04</ele>
        <time>2014-08-27T14:52:50Z</time>
      </trkpt>
      <trkpt lat="46.34287" lon="6.72487">
        <ele>1858.04</ele>
        <time>2014-08-27T14:52:55Z</time>
      </trkpt>
      <trkpt lat="46.34286" lon="6.72487">
        <ele>1858.04</ele>
        <time>2014-08-27T14:53:00Z</time>
      </trkpt>
      <trkpt lat="46.34286" lon="6.72489">
        <ele>1858.04</ele>
        <time>2014-08-27T14:53:05Z</time>
      </trkpt>
      <trkpt lat="46.34288" lon="6.72496">
        <ele>1857.6241</ele>
        <time>2014-08-27T14:53:10Z</time>
      </trkpt>
      <trkpt lat="46.34292" lon="6.72504">
        <ele>1857.6241</ele>
        <time>2014-08-27T14:53:15Z</time>
      </trkpt>
      <trkpt lat="46.34295" lon="6.7251">
        <ele>1856.9773</ele>
        <time>2014-08-27T14:53:20Z</time>
      </trkpt>
      <trkpt lat="46.34299" lon="6.72515">
        <ele>1856.9773</ele>
        <time>2014-08-27T14:53:25Z</time>
      </trkpt>
      <trkpt lat="46.34301" lon="6.72519">
        <ele>1856.9773</ele>
        <time>2014-08-27T14:53:30Z</time>
      </trkpt>
      <trkpt lat="46.34302" lon="6.72523">
        <ele>1856.0813</ele>
        <time>2014-08-27T14:53:35Z</time>
      </trkpt>
      <trkpt lat="46.34303" lon="6.72529">
        <ele>1856.0813</ele>
        <time>2014-08-27T14:53:40Z</time>
      </trkpt>
      <trkpt lat="46.34304" lon="6.72535">
        <ele>1856.0813</ele>
        <time>2014-08-27T14:53:45Z</time>
      </trkpt>
      <trkpt lat="46.34306" lon="6.72541">
        <ele>1854.7323</ele>
        <time>2014-08-27T14:53:50Z</time>
      </trkpt>
      <trkpt lat="46.34307" lon="6.72545">
        <ele>1854.7323</ele>
        <time>2014-08-27T14:53:55Z</time>
      </trkpt>
      <trkpt lat="46.34309" lon="6.72551">
        <ele>1854.7323</ele>
        <time>2014-08-27T14:54:00Z</time>
      </trkpt>
      <trkpt lat="46.3431" lon="6.72557">
        <ele>1852.9302</ele>
        <time>2014-08-27T14:54:05Z</time>
      </trkpt>
      <trkpt lat="46.34311" lon="6.72562">
        <ele>1852.9302</ele>
        <time>2014-08-27T14:54:10Z</time>
      </trkpt>
      <trkpt lat="46.34311" lon="6.72568">
        <ele>1852.9302</ele>
        <time>2014-08-27T14:54:15Z</time>
      </trkpt>
      <trkpt lat="46.34313" lon="6.72574">
        <ele>1850.6906</ele>
        <time>2014-08-27T14:54:20Z</time>
      </trkpt>
      <trkpt lat="46.34315" lon="6.72581">
        <ele>1850.6906</ele>
        <time>2014-08-27T14:54:25Z</time>
      </trkpt>
      <trkpt lat="46.34317" lon="6.72587">
        <ele>1848.2449</ele>
        <time>2014-08-27T14:54:30Z</time>
      </trkpt>
      <trkpt lat="46.34318" lon="6.72595">
        <ele>1848.2449</ele>
        <time>2014-08-27T14:54:35Z</time>
      </trkpt>
      <trkpt lat="46.3432" lon="6.72603">
        <ele>1845.7797</ele>
        <time>2014-08-27T14:54:40Z</time>
      </trkpt>
      <trkpt lat="46.34322" lon="6.72612">
        <ele>1845.7797</ele>
        <time>2014-08-27T14:54:45Z</time>
      </trkpt>
      <trkpt lat="46.34323" lon="6.7262">
        <ele>1843.3375</ele>
        <time>2014-08-27T14:54:50Z</time>
      </trkpt>
      <trkpt lat="46.34327" lon="6.72628">
        <ele>1843.3375</ele>
        <time>2014-08-27T14:54:55Z</time>
      </trkpt>
      <trkpt lat="46.3433" lon="6.72632">
        <ele>1840.9149</ele>
        <time>2014-08-27T14:55:00Z</time>
      </trkpt>
      <trkpt lat="46.34331" lon="6.72637">
        <ele>1840.9149</ele>
        <time>2014-08-27T14:55:05Z</time>
      </trkpt>
      <trkpt lat="46.34334" lon="6.72642">
        <ele>1840.9149</ele>
        <time>2014-08-27T14:55:10Z</time>
      </trkpt>
      <trkpt lat="46.34338" lon="6.7265">
        <ele>1838.5366</ele>
        <time>2014-08-27T14:55:15Z</time>
      </trkpt>
      <trkpt lat="46.34341" lon="6.72657">
        <ele>1838.5366</ele>
        <time>2014-08-27T14:55:20Z</time>
      </trkpt>
      <trkpt lat="46.34345" lon="6.72661">
        <ele>1836.2257</ele>
        <time>2014-08-27T14:55:25Z</time>
      </trkpt>
      <trkpt lat="46.34349" lon="6.72666">
        <ele>1836.2257</ele>
        <time>2014-08-27T14:55:30Z</time>
      </trkpt>
      <trkpt lat="46.34352" lon="6.7267">
        <ele>1834.0029</ele>
        <time>2014-08-27T14:55:35Z</time>
      </trkpt>
      <trkpt lat="46.34355" lon="6.72674">
        <ele>1834.0029</ele>
        <time>2014-08-27T14:55:40Z</time>
      </trkpt>
      <trkpt lat="46.34357" lon="6.72677">
        <ele>1834.0029</ele>
        <time>2014-08-27T14:55:45Z</time>
      </trkpt>
      <trkpt lat="46.34359" lon="6.72685">
        <ele>1831.8004</ele>
        <time>2014-08-27T14:55:50Z</time>
      </trkpt>
      <trkpt lat="46.34362" lon="6.72692">
        <ele>1831.8004</ele>
        <time>2014-08-27T14:55:55Z</time>
      </trkpt>
      <trkpt lat="46.34367" lon="6.72698">
        <ele>1829.5696</ele>
        <time>2014-08-27T14:56:00Z</time>
      </trkpt>
      <trkpt lat="46.3437" lon="6.72701">
        <ele>1829.5696</ele>
        <time>2014-08-27T14:56:05Z</time>
      </trkpt>
      <trkpt lat="46.34374" lon="6.72703">
        <ele>1829.5696</ele>
        <time>2014-08-27T14:56:10Z</time>
      </trkpt>
      <trkpt lat="46.34376" lon="6.72708">
        <ele>1827.3085</ele>
        <time>2014-08-27T14:56:15Z</time>
      </trkpt>
      <trkpt lat="46.34379" lon="6.72716">
        <ele>1827.3085</ele>
        <time>2014-08-27T14:56:20Z</time>
      </trkpt>
      <trkpt lat="46.3438" lon="6.72723">
        <ele>1825.1735</ele>
        <time>2014-08-27T14:56:25Z</time>
      </trkpt>
      <trkpt lat="46.3438" lon="6.72732">
        <ele>1825.1735</ele>
        <time>2014-08-27T14:56:30Z</time>
      </trkpt>
      <trkpt lat="46.3438" lon="6.72741">
        <ele>1823.2224</ele>
        <time>2014-08-27T14:56:35Z</time>
      </trkpt>
      <trkpt lat="46.34382" lon="6.72747">
        <ele>1823.2224</ele>
        <time>2014-08-27T14:56:40Z</time>
      </trkpt>
      <trkpt lat="46.34385" lon="6.72756">
        <ele>1821.4647</ele>
        <time>2014-08-27T14:56:45Z</time>
      </trkpt>
      <trkpt lat="46.34387" lon="6.72762">
        <ele>1821.4647</ele>
        <time>2014-08-27T14:56:50Z</time>
      </trkpt>
      <trkpt lat="46.34389" lon="6.72767">
        <ele>1821.4647</ele>
        <time>2014-08-27T14:56:55Z</time>
      </trkpt>
      <trkpt lat="46.34392" lon="6.72772">
        <ele>1819.8219</ele>
        <time>2014-08-27T14:57:00Z</time>
      </trkpt>
      <trkpt lat="46.34394" lon="6.72775">
        <ele>1819.8219</ele>
        <time>2014-08-27T14:57:05Z</time>
      </trkpt>
      <trkpt lat="46.34395" lon="6.72778">
        <ele>1819.8219</ele>
        <time>2014-08-27T14:57:10Z</time>
      </trkpt>
      <trkpt lat="46.34396" lon="6.72781">
        <ele>1819.8219</ele>
        <time>2014-08-27T14:57:15Z</time>
      </trkpt>
      <trkpt lat="46.34398" lon="6.72785">
        <ele>1818.264</ele>
        <time>2014-08-27T14:57:20Z</time>
      </trkpt>
      <trkpt lat="46.34399" lon="6.72789">
        <ele>1818.264</ele>
        <time>2014-08-27T14:57:25Z</time>
      </trkpt>
      <trkpt lat="46.34399" lon="6.72797">
        <ele>1818.264</ele>
        <time>2014-08-27T14:57:30Z</time>
      </trkpt>
      <trkpt lat="46.34399" lon="6.72802">
        <ele>1816.9642</ele>
        <time>2014-08-27T14:57:35Z</time>
      </trkpt>
      <trkpt lat="46.34399" lon="6.72804">
        <ele>1816.9642</ele>
        <time>2014-08-27T14:57:40Z</time>
      </trkpt>
      <trkpt lat="46.34399" lon="6.72805">
        <ele>1816.9642</ele>
        <time>2014-08-27T14:57:45Z</time>
      </trkpt>
      <trkpt lat="46.344" lon="6.72805">
        <ele>1816.9642</ele>
        <time>2014-08-27T14:57:50Z</time>
      </trkpt>
      <trkpt lat="46.344" lon="6.72805">
        <ele>1816.9642</ele>
        <time>2014-08-27T14:57:55Z</time>
      </trkpt>
      <trkpt lat="46.34398" lon="6.72804">
        <ele>1816.9642</ele>
        <time>2014-08-27T14:58:00Z</time>
      </trkpt>
      <trkpt lat="46.34397" lon="6.72804">
        <ele>1816.9642</ele>
        <time>2014-08-27T14:58:05Z</time>
      </trkpt>
      <trkpt lat="46.34397" lon="6.72803">
        <ele>1816.9642</ele>
        <time>2014-08-27T14:58:10Z</time>
      </trkpt>
      <trkpt lat="46.34398" lon="6.72803">
        <ele>1816.9642</ele>
        <time>2014-08-27T14:58:15Z</time>
      </trkpt>
      <trkpt lat="46.34399" lon="6.72803">
        <ele>1816.9642</ele>
        <time>2014-08-27T14:58:20Z</time>
      </trkpt>
      <trkpt lat="46.344" lon="6.72805">
        <ele>1815.8226</ele>
        <time>2014-08-27T14:58:25Z</time>
      </trkpt>
      <trkpt lat="46.34401" lon="6.72805">
        <ele>1815.8226</ele>
        <time>2014-08-27T14:58:30Z</time>
      </trkpt>
      <trkpt lat="46.34401" lon="6.72804">
        <ele>1815.8226</ele>
        <time>2014-08-27T14:58:35Z</time>
      </trkpt>
      <trkpt lat="46.34401" lon="6.72803">
        <ele>1815.8226</ele>
        <time>2014-08-27T14:58:40Z</time>
      </trkpt>
      <trkpt lat="46.34402" lon="6.72803">
        <ele>1815.8226</ele>
        <time>2014-08-27T14:58:45Z</time>
      </trkpt>
      <trkpt lat="46.34403" lon="6.72804">
        <ele>1815.8226</ele>
        <time>2014-08-27T14:58:50Z</time>
      </trkpt>
      <trkpt lat="46.34405" lon="6.72808">
        <ele>1815.8226</ele>
        <time>2014-08-27T14:58:55Z</time>
      </trkpt>
      <trkpt lat="46.34406" lon="6.7281">
        <ele>1814.847</ele>
        <time>2014-08-27T14:59:00Z</time>
      </trkpt>
      <trkpt lat="46.34407" lon="6.72811">
        <ele>1814.847</ele>
        <time>2014-08-27T14:59:05Z</time>
      </trkpt>
      <trkpt lat="46.34408" lon="6.72814">
        <ele>1814.847</ele>
        <time>2014-08-27T14:59:10Z</time>
      </trkpt>
      <trkpt lat="46.34407" lon="6.72815">
        <ele>1814.847</ele>
        <time>2014-08-27T14:59:15Z</time>
      </trkpt>
      <trkpt lat="46.3441" lon="6.72822">
        <ele>1813.8708</ele>
        <time>2014-08-27T14:59:20Z</time>
      </trkpt>
      <trkpt lat="46.34412" lon="6.72825">
        <ele>1813.8708</ele>
        <time>2014-08-27T14:59:25Z</time>
      </trkpt>
      <trkpt lat="46.34413" lon="6.7283">
        <ele>1813.8708</ele>
        <time>2014-08-27T14:59:30Z</time>
      </trkpt>
      <trkpt lat="46.34415" lon="6.72834">
        <ele>1812.7969</ele>
        <time>2014-08-27T14:59:35Z</time>
      </trkpt>
      <trkpt lat="46.34416" lon="6.72841">
        <ele>1812.7969</ele>
        <time>2014-08-27T14:59:40Z</time>
      </trkpt>
      <trkpt lat="46.34418" lon="6.72846">
        <ele>1812.7969</ele>
        <time>2014-08-27T14:59:45Z</time>
      </trkpt>
      <trkpt lat="46.3442" lon="6.72849">
        <ele>1811.6361</ele>
        <time>2014-08-27T14:59:50Z</time>
      </trkpt>
      <trkpt lat="46.34424" lon="6.72855">
        <ele>1811.6361</ele>
        <time>2014-08-27T14:59:55Z</time>
      </trkpt>
      <trkpt lat="46.34421" lon="6.7286">
        <ele>1810.5575</ele>
        <time>2014-08-27T15:00:00Z</time>
      </trkpt>
      <trkpt lat="46.34424" lon="6.72868">
        <ele>1810.5575</ele>
        <time>2014-08-27T15:00:05Z</time>
      </trkpt>
      <trkpt lat="46.34426" lon="6.72873">
        <ele>1809.5437</ele>
        <time>2014-08-27T15:00:10Z</time>
      </trkpt>
      <trkpt lat="46.34429" lon="6.72876">
        <ele>1809.5437</ele>
        <time>2014-08-27T15:00:15Z</time>
      </trkpt>
      <trkpt lat="46.3443" lon="6.72879">
        <ele>1809.5437</ele>
        <time>2014-08-27T15:00:20Z</time>
      </trkpt>
      <trkpt lat="46.34436" lon="6.72885">
        <ele>1808.5498</ele>
        <time>2014-08-27T15:00:25Z</time>
      </trkpt>
      <trkpt lat="46.34436" lon="6.72893">
        <ele>1808.5498</ele>
        <time>2014-08-27T15:00:30Z</time>
      </trkpt>
      <trkpt lat="46.34436" lon="6.72899">
        <ele>1807.4182</ele>
        <time>2014-08-27T15:00:35Z</time>
      </trkpt>
      <trkpt lat="46.34436" lon="6.72904">
        <ele>1807.4182</ele>
        <time>2014-08-27T15:00:40Z</time>
      </trkpt>
      <trkpt lat="46.34436" lon="6.7291">
        <ele>1807.4182</ele>
        <time>2014-08-27T15:00:45Z</time>
      </trkpt>
      <trkpt lat="46.34439" lon="6.72916">
        <ele>1806.0613</ele>
        <time>2014-08-27T15:00:50Z</time>
      </trkpt>
      <trkpt lat="46.34443" lon="6.72924">
        <ele>1806.0613</ele>
        <time>2014-08-27T15:00:55Z</time>
      </trkpt>
      <trkpt lat="46.34447" lon="6.72932">
        <ele>1804.5704</ele>
        <time>2014-08-27T15:01:00Z</time>
      </trkpt>
      <trkpt lat="46.34449" lon="6.7294">
        <ele>1804.5704</ele>
        <time>2014-08-27T15:01:05Z</time>
      </trkpt>
      <trkpt lat="46.34448" lon="6.72941">
        <ele>1804.5704</ele>
        <time>2014-08-27T15:01:10Z</time>
      </trkpt>
      <trkpt lat="46.34449" lon="6.72942">
        <ele>1804.5704</ele>
        <time>2014-08-27T15:01:15Z</time>
      </trkpt>
      <trkpt lat="46.34451" lon="6.72946">
        <ele>1803.0168</ele>
        <time>2014-08-27T15:01:20Z</time>
      </trkpt>
      <trkpt lat="46.34452" lon="6.72952">
        <ele>1803.0168</ele>
        <time>2014-08-27T15:01:25Z</time>
      </trkpt>
      <trkpt lat="46.34454" lon="6.72957">
        <ele>1803.0168</ele>
        <time>2014-08-27T15:01:30Z</time>
      </trkpt>
      <trkpt lat="46.34456" lon="6.7296">
        <ele>1801.61</ele>
        <time>2014-08-27T15:01:35Z</time>
      </trkpt>
      <trkpt lat="46.34459" lon="6.72968">
        <ele>1801.61</ele>
        <time>2014-08-27T15:01:40Z</time>
      </trkpt>
      <trkpt lat="46.3446" lon="6.72982">
        <ele>1800.3564</ele>
        <time>2014-08-27T15:01:45Z</time>
      </trkpt>
      <trkpt lat="46.34459" lon="6.72993">
        <ele>1800.3564</ele>
        <time>2014-08-27T15:01:50Z</time>
      </trkpt>
      <trkpt lat="46.3446" lon="6.72996">
        <ele>1799.218</ele>
        <time>2014-08-27T15:01:55Z</time>
      </trkpt>
      <trkpt lat="46.34463" lon="6.73004">
        <ele>1799.218</ele>
        <time>2014-08-27T15:02:00Z</time>
      </trkpt>
      <trkpt lat="46.34461" lon="6.7301">
        <ele>1798.0583</ele>
        <time>2014-08-27T15:02:05Z</time>
      </trkpt>
      <trkpt lat="46.3446" lon="6.73016">
        <ele>1798.0583</ele>
        <time>2014-08-27T15:02:10Z</time>
      </trkpt>
      <trkpt lat="46.3446" lon="6.73018">
        <ele>1798.0583</ele>
        <time>2014-08-27T15:02:15Z</time>
      </trkpt>
      <trkpt lat="46.34461" lon="6.73023">
        <ele>1796.7507</ele>
        <time>2014-08-27T15:02:20Z</time>
      </trkpt>
      <trkpt lat="46.34467" lon="6.7303">
        <ele>1796.7507</ele>
        <time>2014-08-27T15:02:25Z</time>
      </trkpt>
      <trkpt lat="46.3447" lon="6.73044">
        <ele>1795.4087</ele>
        <time>2014-08-27T15:02:30Z</time>
      </trkpt>
      <trkpt lat="46.34471" lon="6.7305">
        <ele>1795.4087</ele>
        <time>2014-08-27T15:02:35Z</time>
      </trkpt>
      <trkpt lat="46.34471" lon="6.73052">
        <ele>1795.4087</ele>
        <time>2014-08-27T15:02:40Z</time>
      </trkpt>
      <trkpt lat="46.34471" lon="6.73052">
        <ele>1795.4087</ele>
        <time>2014-08-27T15:02:45Z</time>
      </trkpt>
      <trkpt lat="46.34471" lon="6.73052">
        <ele>1795.4087</ele>
        <time>2014-08-27T15:02:50Z</time>
      </trkpt>
      <trkpt lat="46.3447" lon="6.73052">
        <ele>1795.4087</ele>
        <time>2014-08-27T15:02:55Z</time>
      </trkpt>
      <trkpt lat="46.3447" lon="6.73052">
        <ele>1795.4087</ele>
        <time>2014-08-27T15:03:00Z</time>
      </trkpt>
      <trkpt lat="46.34469" lon="6.73053">
        <ele>1795.4087</ele>
        <time>2014-08-27T15:03:15Z</time>
      </trkpt>
      <trkpt lat="46.34469" lon="6.73055">
        <ele>1795.4087</ele>
        <time>2014-08-27T15:03:20Z</time>
      </trkpt>
      <trkpt lat="46.34469" lon="6.73055">
        <ele>1795.4087</ele>
        <time>2014-08-27T15:03:25Z</time>
      </trkpt>
      <trkpt lat="46.34467" lon="6.73058">
        <ele>1793.7914</ele>
        <time>2014-08-27T15:03:30Z</time>
      </trkpt>
      <trkpt lat="46.34467" lon="6.73059">
        <ele>1793.7914</ele>
        <time>2014-08-27T15:03:35Z</time>
      </trkpt>
      <trkpt lat="46.34467" lon="6.73061">
        <ele>1793.7914</ele>
        <time>2014-08-27T15:03:40Z</time>
      </trkpt>
      <trkpt lat="46.34467" lon="6.73064">
        <ele>1793.7914</ele>
        <time>2014-08-27T15:03:45Z</time>
      </trkpt>
      <trkpt lat="46.34467" lon="6.73065">
        <ele>1793.7914</ele>
        <time>2014-08-27T15:03:50Z</time>
      </trkpt>
      <trkpt lat="46.34467" lon="6.73066">
        <ele>1793.7914</ele>
        <time>2014-08-27T15:03:55Z</time>
      </trkpt>
      <trkpt lat="46.34471" lon="6.73073">
        <ele>1791.5322</ele>
        <time>2014-08-27T15:04:00Z</time>
      </trkpt>
      <trkpt lat="46.34472" lon="6.73074">
        <ele>1791.5322</ele>
        <time>2014-08-27T15:04:05Z</time>
      </trkpt>
      <trkpt lat="46.34473" lon="6.73079">
        <ele>1791.5322</ele>
        <time>2014-08-27T15:04:10Z</time>
      </trkpt>
      <trkpt lat="46.34478" lon="6.73095">
        <ele>1789.2589</ele>
        <time>2014-08-27T15:04:15Z</time>
      </trkpt>
      <trkpt lat="46.34478" lon="6.73105">
        <ele>1789.2589</ele>
        <time>2014-08-27T15:04:20Z</time>
      </trkpt>
      <trkpt lat="46.34479" lon="6.73108">
        <ele>1787.2356</ele>
        <time>2014-08-27T15:04:25Z</time>
      </trkpt>
      <trkpt lat="46.34479" lon="6.73113">
        <ele>1787.2356</ele>
        <time>2014-08-27T15:04:30Z</time>
      </trkpt>
      <trkpt lat="46.34479" lon="6.73116">
        <ele>1787.2356</ele>
        <time>2014-08-27T15:04:35Z</time>
      </trkpt>
      <trkpt lat="46.3448" lon="6.7312">
        <ele>1787.2356</ele>
        <time>2014-08-27T15:04:40Z</time>
      </trkpt>
      <trkpt lat="46.34481" lon="6.73127">
        <ele>1785.1299</ele>
        <time>2014-08-27T15:04:45Z</time>
      </trkpt>
      <trkpt lat="46.34481" lon="6.73137">
        <ele>1785.1299</ele>
        <time>2014-08-27T15:04:50Z</time>
      </trkpt>
      <trkpt lat="46.34482" lon="6.73145">
        <ele>1783.1096</ele>
        <time>2014-08-27T15:04:55Z</time>
      </trkpt>
      <trkpt lat="46.34482" lon="6.73154">
        <ele>1783.1096</ele>
        <time>2014-08-27T15:05:00Z</time>
      </trkpt>
      <trkpt lat="46.34483" lon="6.73163">
        <ele>1781.1854</ele>
        <time>2014-08-27T15:05:05Z</time>
      </trkpt>
      <trkpt lat="46.34483" lon="6.73164">
        <ele>1781.1854</ele>
        <time>2014-08-27T15:05:10Z</time>
      </trkpt>
      <trkpt lat="46.34485" lon="6.73166">
        <ele>1781.1854</ele>
        <time>2014-08-27T15:05:15Z</time>
      </trkpt>
      <trkpt lat="46.34487" lon="6.73169">
        <ele>1781.1854</ele>
        <time>2014-08-27T15:05:20Z</time>
      </trkpt>
      <trkpt lat="46.34488" lon="6.73172">
        <ele>1781.1854</ele>
        <time>2014-08-27T15:05:25Z</time>
      </trkpt>
      <trkpt lat="46.34491" lon="6.73175">
        <ele>1778.733</ele>
        <time>2014-08-27T15:05:30Z</time>
      </trkpt>
      <trkpt lat="46.34492" lon="6.73175">
        <ele>1778.733</ele>
        <time>2014-08-27T15:05:35Z</time>
      </trkpt>
      <trkpt lat="46.34495" lon="6.73175">
        <ele>1778.733</ele>
        <time>2014-08-27T15:05:40Z</time>
      </trkpt>
      <trkpt lat="46.34499" lon="6.73178">
        <ele>1778.733</ele>
        <time>2014-08-27T15:05:45Z</time>
      </trkpt>
      <trkpt lat="46.345" lon="6.73181">
        <ele>1776.1694</ele>
        <time>2014-08-27T15:05:50Z</time>
      </trkpt>
      <trkpt lat="46.34502" lon="6.73184">
        <ele>1776.1694</ele>
        <time>2014-08-27T15:05:55Z</time>
      </trkpt>
      <trkpt lat="46.34507" lon="6.73189">
        <ele>1773.5211</ele>
        <time>2014-08-27T15:06:00Z</time>
      </trkpt>
      <trkpt lat="46.34508" lon="6.73189">
        <ele>1773.5211</ele>
        <time>2014-08-27T15:06:05Z</time>
      </trkpt>
      <trkpt lat="46.3451" lon="6.73191">
        <ele>1773.5211</ele>
        <time>2014-08-27T15:06:10Z</time>
      </trkpt>
      <trkpt lat="46.34513" lon="6.73193">
        <ele>1773.5211</ele>
        <time>2014-08-27T15:06:15Z</time>
      </trkpt>
      <trkpt lat="46.34515" lon="6.73195">
        <ele>1773.5211</ele>
        <time>2014-08-27T15:06:20Z</time>
      </trkpt>
      <trkpt lat="46.34516" lon="6.732">
        <ele>1770.4812</ele>
        <time>2014-08-27T15:06:25Z</time>
      </trkpt>
      <trkpt lat="46.34521" lon="6.73204">
        <ele>1770.4812</ele>
        <time>2014-08-27T15:06:30Z</time>
      </trkpt>
      <trkpt lat="46.34523" lon="6.73208">
        <ele>1770.4812</ele>
        <time>2014-08-27T15:06:35Z</time>
      </trkpt>
      <trkpt lat="46.34527" lon="6.73215">
        <ele>1767.3138</ele>
        <time>2014-08-27T15:06:40Z</time>
      </trkpt>
      <trkpt lat="46.34529" lon="6.73215">
        <ele>1767.3138</ele>
        <time>2014-08-27T15:06:45Z</time>
      </trkpt>
      <trkpt lat="46.34535" lon="6.7322">
        <ele>1767.3138</ele>
        <time>2014-08-27T15:06:50Z</time>
      </trkpt>
      <trkpt lat="46.34542" lon="6.73223">
        <ele>1763.9327</ele>
        <time>2014-08-27T15:06:55Z</time>
      </trkpt>
      <trkpt lat="46.3455" lon="6.73222">
        <ele>1763.9327</ele>
        <time>2014-08-27T15:07:00Z</time>
      </trkpt>
      <trkpt lat="46.34556" lon="6.73219">
        <ele>1760.8201</ele>
        <time>2014-08-27T15:07:05Z</time>
      </trkpt>
      <trkpt lat="46.3456" lon="6.73217">
        <ele>1760.8201</ele>
        <time>2014-08-27T15:07:10Z</time>
      </trkpt>
      <trkpt lat="46.34561" lon="6.73216">
        <ele>1760.8201</ele>
        <time>2014-08-27T15:07:15Z</time>
      </trkpt>
      <trkpt lat="46.34565" lon="6.73209">
        <ele>1757.9465</ele>
        <time>2014-08-27T15:07:20Z</time>
      </trkpt>
      <trkpt lat="46.34568" lon="6.73206">
        <ele>1757.9465</ele>
        <time>2014-08-27T15:07:25Z</time>
      </trkpt>
      <trkpt lat="46.3457" lon="6.73198">
        <ele>1755.3414</ele>
        <time>2014-08-27T15:07:30Z</time>
      </trkpt>
      <trkpt lat="46.34572" lon="6.7319">
        <ele>1755.3414</ele>
        <time>2014-08-27T15:07:35Z</time>
      </trkpt>
      <trkpt lat="46.34571" lon="6.73183">
        <ele>1752.9592</ele>
        <time>2014-08-27T15:07:40Z</time>
      </trkpt>
      <trkpt lat="46.34572" lon="6.73175">
        <ele>1752.9592</ele>
        <time>2014-08-27T15:07:45Z</time>
      </trkpt>
      <trkpt lat="46.34571" lon="6.73172">
        <ele>1752.9592</ele>
        <time>2014-08-27T15:07:50Z</time>
      </trkpt>
      <trkpt lat="46.34571" lon="6.73173">
        <ele>1752.9592</ele>
        <time>2014-08-27T15:07:55Z</time>
      </trkpt>
      <trkpt lat="46.34569" lon="6.73174">
        <ele>1750.8578</ele>
        <time>2014-08-27T15:08:00Z</time>
      </trkpt>
      <trkpt lat="46.34568" lon="6.73175">
        <ele>1750.8578</ele>
        <time>2014-08-27T15:08:05Z</time>
      </trkpt>
      <trkpt lat="46.34567" lon="6.73172">
        <ele>1750.8578</ele>
        <time>2014-08-27T15:08:10Z</time>
      </trkpt>
      <trkpt lat="46.34567" lon="6.73167">
        <ele>1750.8578</ele>
        <time>2014-08-27T15:08:15Z</time>
      </trkpt>
      <trkpt lat="46.34568" lon="6.73162">
        <ele>1748.9312</ele>
        <time>2014-08-27T15:08:20Z</time>
      </trkpt>
      <trkpt lat="46.34569" lon="6.73154">
        <ele>1748.9312</ele>
        <time>2014-08-27T15:08:25Z</time>
      </trkpt>
      <trkpt lat="46.3457" lon="6.73149">
        <ele>1747.2823</ele>
        <time>2014-08-27T15:08:30Z</time>
      </trkpt>
      <trkpt lat="46.34571" lon="6.73145">
        <ele>1747.2823</ele>
        <time>2014-08-27T15:08:35Z</time>
      </trkpt>
      <trkpt lat="46.34571" lon="6.73143">
        <ele>1747.2823</ele>
        <time>2014-08-27T15:08:40Z</time>
      </trkpt>
      <trkpt lat="46.34572" lon="6.73142">
        <ele>1747.2823</ele>
        <time>2014-08-27T15:08:45Z</time>
      </trkpt>
      <trkpt lat="46.34572" lon="6.73141">
        <ele>1747.2823</ele>
        <time>2014-08-27T15:08:50Z</time>
      </trkpt>
      <trkpt lat="46.3457" lon="6.73141">
        <ele>1747.2823</ele>
        <time>2014-08-27T15:08:55Z</time>
      </trkpt>
      <trkpt lat="46.34569" lon="6.73141">
        <ele>1747.2823</ele>
        <time>2014-08-27T15:09:00Z</time>
      </trkpt>
      <trkpt lat="46.3457" lon="6.73141">
        <ele>1745.6888</ele>
        <time>2014-08-27T15:09:05Z</time>
      </trkpt>
      <trkpt lat="46.3457" lon="6.73141">
        <ele>1745.6888</ele>
        <time>2014-08-27T15:09:10Z</time>
      </trkpt>
      <trkpt lat="46.34569" lon="6.73137">
        <ele>1745.6888</ele>
        <time>2014-08-27T15:09:15Z</time>
      </trkpt>
      <trkpt lat="46.34569" lon="6.73129">
        <ele>1745.6888</ele>
        <time>2014-08-27T15:09:20Z</time>
      </trkpt>
      <trkpt lat="46.34568" lon="6.7312">
        <ele>1744.3044</ele>
        <time>2014-08-27T15:09:25Z</time>
      </trkpt>
      <trkpt lat="46.34569" lon="6.7311">
        <ele>1744.3044</ele>
        <time>2014-08-27T15:09:30Z</time>
      </trkpt>
      <trkpt lat="46.3457" lon="6.731">
        <ele>1743.1559</ele>
        <time>2014-08-27T15:09:35Z</time>
      </trkpt>
      <trkpt lat="46.34573" lon="6.73092">
        <ele>1743.1559</ele>
        <time>2014-08-27T15:09:40Z</time>
      </trkpt>
      <trkpt lat="46.34575" lon="6.73084">
        <ele>1742.1515</ele>
        <time>2014-08-27T15:09:45Z</time>
      </trkpt>
      <trkpt lat="46.34577" lon="6.73076">
        <ele>1742.1515</ele>
        <time>2014-08-27T15:09:50Z</time>
      </trkpt>
      <trkpt lat="46.3458" lon="6.73069">
        <ele>1741.2926</ele>
        <time>2014-08-27T15:09:55Z</time>
      </trkpt>
      <trkpt lat="46.34581" lon="6.7306">
        <ele>1741.2926</ele>
        <time>2014-08-27T15:10:00Z</time>
      </trkpt>
      <trkpt lat="46.3458" lon="6.73054">
        <ele>1740.6233</ele>
        <time>2014-08-27T15:10:05Z</time>
      </trkpt>
      <trkpt lat="46.34581" lon="6.73049">
        <ele>1740.6233</ele>
        <time>2014-08-27T15:10:10Z</time>
      </trkpt>
      <trkpt lat="46.34583" lon="6.73043">
        <ele>1740.6233</ele>
        <time>2014-08-27T15:10:15Z</time>
      </trkpt>
      <trkpt lat="46.34585" lon="6.73039">
        <ele>1740.0394</ele>
        <time>2014-08-27T15:10:20Z</time>
      </trkpt>
      <trkpt lat="46.34585" lon="6.73037">
        <ele>1740.0394</ele>
        <time>2014-08-27T15:10:25Z</time>
      </trkpt>
      <trkpt lat="46.34591" lon="6.73032">
        <ele>1740.0394</ele>
        <time>2014-08-27T15:10:30Z</time>
      </trkpt>
      <trkpt lat="46.34598" lon="6.73028">
        <ele>1739.329</ele>
        <time>2014-08-27T15:10:35Z</time>
      </trkpt>
      <trkpt lat="46.34602" lon="6.73024">
        <ele>1739.329</ele>
        <time>2014-08-27T15:10:40Z</time>
      </trkpt>
      <trkpt lat="46.34608" lon="6.73018">
        <ele>1738.4691</ele>
        <time>2014-08-27T15:10:45Z</time>
      </trkpt>
      <trkpt lat="46.3461" lon="6.73015">
        <ele>1738.4691</ele>
        <time>2014-08-27T15:10:50Z</time>
      </trkpt>
      <trkpt lat="46.34614" lon="6.73007">
        <ele>1737.597</ele>
        <time>2014-08-27T15:10:55Z</time>
      </trkpt>
      <trkpt lat="46.34616" lon="6.72993">
        <ele>1736.754</ele>
        <time>2014-08-27T15:11:00Z</time>
      </trkpt>
      <trkpt lat="46.34614" lon="6.72988">
        <ele>1736.754</ele>
        <time>2014-08-27T15:11:05Z</time>
      </trkpt>
      <trkpt lat="46.34614" lon="6.72981">
        <ele>1736.754</ele>
        <time>2014-08-27T15:11:10Z</time>
      </trkpt>
      <trkpt lat="46.34611" lon="6.72976">
        <ele>1735.8339</ele>
        <time>2014-08-27T15:11:15Z</time>
      </trkpt>
      <trkpt lat="46.34609" lon="6.72971">
        <ele>1735.8339</ele>
        <time>2014-08-27T15:11:20Z</time>
      </trkpt>
      <trkpt lat="46.34609" lon="6.72965">
        <ele>1735.8339</ele>
        <time>2014-08-27T15:11:25Z</time>
      </trkpt>
      <trkpt lat="46.34607" lon="6.72957">
        <ele>1734.839</ele>
        <time>2014-08-27T15:11:30Z</time>
      </trkpt>
      <trkpt lat="46.34607" lon="6.72953">
        <ele>1734.839</ele>
        <time>2014-08-27T15:11:35Z</time>
      </trkpt>
      <trkpt lat="46.34604" lon="6.72946">
        <ele>1734.839</ele>
        <time>2014-08-27T15:11:40Z</time>
      </trkpt>
      <trkpt lat="46.346" lon="6.7294">
        <ele>1733.7867</ele>
        <time>2014-08-27T15:11:45Z</time>
      </trkpt>
      <trkpt lat="46.34598" lon="6.72934">
        <ele>1733.7867</ele>
        <time>2014-08-27T15:11:50Z</time>
      </trkpt>
      <trkpt lat="46.34599" lon="6.72929">
        <ele>1733.7867</ele>
        <time>2014-08-27T15:11:55Z</time>
      </trkpt>
      <trkpt lat="46.34601" lon="6.72921">
        <ele>1732.5492</ele>
        <time>2014-08-27T15:12:00Z</time>
      </trkpt>
      <trkpt lat="46.34602" lon="6.72916">
        <ele>1732.5492</ele>
        <time>2014-08-27T15:12:05Z</time>
      </trkpt>
      <trkpt lat="46.34602" lon="6.72913">
        <ele>1732.5492</ele>
        <time>2014-08-27T15:12:10Z</time>
      </trkpt>
      <trkpt lat="46.34603" lon="6.7291">
        <ele>1732.5492</ele>
        <time>2014-08-27T15:12:15Z</time>
      </trkpt>
      <trkpt lat="46.34601" lon="6.72907">
        <ele>1730.9937</ele>
        <time>2014-08-27T15:12:20Z</time>
      </trkpt>
      <trkpt lat="46.346" lon="6.72902">
        <ele>1730.9937</ele>
        <time>2014-08-27T15:12:25Z</time>
      </trkpt>
      <trkpt lat="46.34598" lon="6.72893">
        <ele>1729.3154</ele>
        <time>2014-08-27T15:12:30Z</time>
      </trkpt>
      <trkpt lat="46.34597" lon="6.72891">
        <ele>1729.3154</ele>
        <time>2014-08-27T15:12:35Z</time>
      </trkpt>
      <trkpt lat="46.34594" lon="6.72888">
        <ele>1729.3154</ele>
        <time>2014-08-27T15:12:40Z</time>
      </trkpt>
      <trkpt lat="46.34589" lon="6.72879">
        <ele>1727.3932</ele>
        <time>2014-08-27T15:12:45Z</time>
      </trkpt>
      <trkpt lat="46.34585" lon="6.72871">
        <ele>1727.3932</ele>
        <time>2014-08-27T15:12:50Z</time>
      </trkpt>
      <trkpt lat="46.34585" lon="6.72865">
        <ele>1725.4321</ele>
        <time>2014-08-27T15:12:55Z</time>
      </trkpt>
      <trkpt lat="46.34582" lon="6.72856">
        <ele>1725.4321</ele>
        <time>2014-08-27T15:13:00Z</time>
      </trkpt>
      <trkpt lat="46.34581" lon="6.72854">
        <ele>1725.4321</ele>
        <time>2014-08-27T15:13:05Z</time>
      </trkpt>
      <trkpt lat="46.34582" lon="6.72852">
        <ele>1723.3635</ele>
        <time>2014-08-27T15:13:10Z</time>
      </trkpt>
      <trkpt lat="46.34581" lon="6.72847">
        <ele>1723.3635</ele>
        <time>2014-08-27T15:13:15Z</time>
      </trkpt>
      <trkpt lat="46.34579" lon="6.72843">
        <ele>1723.3635</ele>
        <time>2014-08-27T15:13:20Z</time>
      </trkpt>
      <trkpt lat="46.34579" lon="6.72843">
        <ele>1723.3635</ele>
        <time>2014-08-27T15:13:25Z</time>
      </trkpt>
      <trkpt lat="46.34577" lon="6.72835">
        <ele>1721.3684</ele>
        <time>2014-08-27T15:13:30Z</time>
      </trkpt>
      <trkpt lat="46.34577" lon="6.7283">
        <ele>1721.3684</ele>
        <time>2014-08-27T15:13:35Z</time>
      </trkpt>
      <trkpt lat="46.34579" lon="6.72822">
        <ele>1721.3684</ele>
        <time>2014-08-27T15:13:40Z</time>
      </trkpt>
      <trkpt lat="46.34585" lon="6.72814">
        <ele>1719.4275</ele>
        <time>2014-08-27T15:13:45Z</time>
      </trkpt>
      <trkpt lat="46.34587" lon="6.7281">
        <ele>1719.4275</ele>
        <time>2014-08-27T15:13:50Z</time>
      </trkpt>
      <trkpt lat="46.34587" lon="6.72808">
        <ele>1719.4275</ele>
        <time>2014-08-27T15:13:55Z</time>
      </trkpt>
      <trkpt lat="46.34588" lon="6.72804">
        <ele>1719.4275</ele>
        <time>2014-08-27T15:14:00Z</time>
      </trkpt>
      <trkpt lat="46.34593" lon="6.72802">
        <ele>1717.3064</ele>
        <time>2014-08-27T15:14:05Z</time>
      </trkpt>
      <trkpt lat="46.34595" lon="6.72797">
        <ele>1717.3064</ele>
        <time>2014-08-27T15:14:10Z</time>
      </trkpt>
      <trkpt lat="46.34596" lon="6.72794">
        <ele>1717.3064</ele>
        <time>2014-08-27T15:14:15Z</time>
      </trkpt>
      <trkpt lat="46.34598" lon="6.72789">
        <ele>1715.0624</ele>
        <time>2014-08-27T15:14:20Z</time>
      </trkpt>
      <trkpt lat="46.34599" lon="6.72787">
        <ele>1715.0624</ele>
        <time>2014-08-27T15:14:25Z</time>
      </trkpt>
      <trkpt lat="46.34601" lon="6.72785">
        <ele>1715.0624</ele>
        <time>2014-08-27T15:14:30Z</time>
      </trkpt>
      <trkpt lat="46.34606" lon="6.72778">
        <ele>1712.619</ele>
        <time>2014-08-27T15:14:35Z</time>
      </trkpt>
      <trkpt lat="46.34611" lon="6.72776">
        <ele>1712.619</ele>
        <time>2014-08-27T15:14:40Z</time>
      </trkpt>
      <trkpt lat="46.34618" lon="6.72777">
        <ele>1709.964</ele>
        <time>2014-08-27T15:14:45Z</time>
      </trkpt>
      <trkpt lat="46.34623" lon="6.72783">
        <ele>1709.964</ele>
        <time>2014-08-27T15:14:50Z</time>
      </trkpt>
      <trkpt lat="46.34625" lon="6.72786">
        <ele>1707.1437</ele>
        <time>2014-08-27T15:14:55Z</time>
      </trkpt>
      <trkpt lat="46.34626" lon="6.72788">
        <ele>1707.1437</ele>
        <time>2014-08-27T15:15:00Z</time>
      </trkpt>
      <trkpt lat="46.34626" lon="6.72788">
        <ele>1707.1437</ele>
        <time>2014-08-27T15:15:05Z</time>
      </trkpt>
      <trkpt lat="46.34627" lon="6.72786">
        <ele>1707.1437</ele>
        <time>2014-08-27T15:15:10Z</time>
      </trkpt>
      <trkpt lat="46.34628" lon="6.72786">
        <ele>1707.1437</ele>
        <time>2014-08-27T15:15:15Z</time>
      </trkpt>
      <trkpt lat="46.3463" lon="6.72787">
        <ele>1707.1437</ele>
        <time>2014-08-27T15:15:20Z</time>
      </trkpt>
      <trkpt lat="46.3463" lon="6.72788">
        <ele>1707.1437</ele>
        <time>2014-08-27T15:15:25Z</time>
      </trkpt>
      <trkpt lat="46.34633" lon="6.72791">
        <ele>1703.6833</ele>
        <time>2014-08-27T15:16:00Z</time>
      </trkpt>
      <trkpt lat="46.34639" lon="6.72796">
        <ele>1703.6833</ele>
        <time>2014-08-27T15:16:05Z</time>
      </trkpt>
      <trkpt lat="46.34645" lon="6.72801">
        <ele>1700.3547</ele>
        <time>2014-08-27T15:16:10Z</time>
      </trkpt>
      <trkpt lat="46.34652" lon="6.72806">
        <ele>1700.3547</ele>
        <time>2014-08-27T15:16:15Z</time>
      </trkpt>
      <trkpt lat="46.34658" lon="6.72811">
        <ele>1696.9652</ele>
        <time>2014-08-27T15:16:20Z</time>
      </trkpt>
      <trkpt lat="46.34663" lon="6.72815">
        <ele>1696.9652</ele>
        <time>2014-08-27T15:16:25Z</time>
      </trkpt>
      <trkpt lat="46.34667" lon="6.72819">
        <ele>1693.8693</ele>
        <time>2014-08-27T15:16:30Z</time>
      </trkpt>
      <trkpt lat="46.34672" lon="6.72822">
        <ele>1693.8693</ele>
        <time>2014-08-27T15:16:35Z</time>
      </trkpt>
      <trkpt lat="46.34676" lon="6.72823">
        <ele>1690.8616</ele>
        <time>2014-08-27T15:16:40Z</time>
      </trkpt>
      <trkpt lat="46.34682" lon="6.72821">
        <ele>1690.8616</ele>
        <time>2014-08-27T15:16:45Z</time>
      </trkpt>
      <trkpt lat="46.34685" lon="6.72823">
        <ele>1687.7512</ele>
        <time>2014-08-27T15:16:50Z</time>
      </trkpt>
      <trkpt lat="46.34687" lon="6.72824">
        <ele>1687.7512</ele>
        <time>2014-08-27T15:16:55Z</time>
      </trkpt>
      <trkpt lat="46.3469" lon="6.7283">
        <ele>1687.7512</ele>
        <time>2014-08-27T15:17:00Z</time>
      </trkpt>
      <trkpt lat="46.34692" lon="6.72836">
        <ele>1684.722</ele>
        <time>2014-08-27T15:17:05Z</time>
      </trkpt>
      <trkpt lat="46.34695" lon="6.7284">
        <ele>1684.722</ele>
        <time>2014-08-27T15:17:10Z</time>
      </trkpt>
      <trkpt lat="46.34698" lon="6.72848">
        <ele>1681.7281</ele>
        <time>2014-08-27T15:17:15Z</time>
      </trkpt>
      <trkpt lat="46.34699" lon="6.72856">
        <ele>1681.7281</ele>
        <time>2014-08-27T15:17:20Z</time>
      </trkpt>
      <trkpt lat="46.347" lon="6.72861">
        <ele>1679.1155</ele>
        <time>2014-08-27T15:17:25Z</time>
      </trkpt>
      <trkpt lat="46.347" lon="6.72866">
        <ele>1679.1155</ele>
        <time>2014-08-27T15:17:30Z</time>
      </trkpt>
      <trkpt lat="46.34699" lon="6.7287">
        <ele>1679.1155</ele>
        <time>2014-08-27T15:17:35Z</time>
      </trkpt>
      <trkpt lat="46.347" lon="6.72872">
        <ele>1679.1155</ele>
        <time>2014-08-27T15:17:40Z</time>
      </trkpt>
      <trkpt lat="46.34701" lon="6.72873">
        <ele>1676.7137</ele>
        <time>2014-08-27T15:17:45Z</time>
      </trkpt>
      <trkpt lat="46.34706" lon="6.72877">
        <ele>1676.7137</ele>
        <time>2014-08-27T15:17:50Z</time>
      </trkpt>
      <trkpt lat="46.34708" lon="6.72884">
        <ele>1674.3644</ele>
        <time>2014-08-27T15:17:55Z</time>
      </trkpt>
      <trkpt lat="46.34709" lon="6.72888">
        <ele>1674.3644</ele>
        <time>2014-08-27T15:18:00Z</time>
      </trkpt>
      <trkpt lat="46.34711" lon="6.72891">
        <ele>1674.3644</ele>
        <time>2014-08-27T15:18:05Z</time>
      </trkpt>
      <trkpt lat="46.34714" lon="6.72893">
        <ele>1672.079</ele>
        <time>2014-08-27T15:18:10Z</time>
      </trkpt>
      <trkpt lat="46.3472" lon="6.72902">
        <ele>1672.079</ele>
        <time>2014-08-27T15:18:15Z</time>
      </trkpt>
      <trkpt lat="46.34723" lon="6.72905">
        <ele>1669.9832</ele>
        <time>2014-08-27T15:18:20Z</time>
      </trkpt>
      <trkpt lat="46.34725" lon="6.72907">
        <ele>1669.9832</ele>
        <time>2014-08-27T15:18:25Z</time>
      </trkpt>
      <trkpt lat="46.34731" lon="6.72907">
        <ele>1669.9832</ele>
        <time>2014-08-27T15:18:30Z</time>
      </trkpt>
      <trkpt lat="46.3474" lon="6.72907">
        <ele>1667.8468</ele>
        <time>2014-08-27T15:18:35Z</time>
      </trkpt>
      <trkpt lat="46.34743" lon="6.72912">
        <ele>1667.8468</ele>
        <time>2014-08-27T15:18:40Z</time>
      </trkpt>
      <trkpt lat="46.34747" lon="6.72918">
        <ele>1665.8315</ele>
        <time>2014-08-27T15:18:45Z</time>
      </trkpt>
      <trkpt lat="46.34748" lon="6.72918">
        <ele>1665.8315</ele>
        <time>2014-08-27T15:18:50Z</time>
      </trkpt>
      <trkpt lat="46.34751" lon="6.72913">
        <ele>1665.8315</ele>
        <time>2014-08-27T15:18:55Z</time>
      </trkpt>
      <trkpt lat="46.34755" lon="6.72908">
        <ele>1663.6978</ele>
        <time>2014-08-27T15:19:00Z</time>
      </trkpt>
      <trkpt lat="46.34758" lon="6.72906">
        <ele>1663.6978</ele>
        <time>2014-08-27T15:19:05Z</time>
      </trkpt>
      <trkpt lat="46.34764" lon="6.72902">
        <ele>1661.6844</ele>
        <time>2014-08-27T15:19:10Z</time>
      </trkpt>
      <trkpt lat="46.34765" lon="6.72897">
        <ele>1661.6844</ele>
        <time>2014-08-27T15:19:15Z</time>
      </trkpt>
      <trkpt lat="46.34767" lon="6.72889">
        <ele>1659.8691</ele>
        <time>2014-08-27T15:19:20Z</time>
      </trkpt>
      <trkpt lat="46.34766" lon="6.72882">
        <ele>1659.8691</ele>
        <time>2014-08-27T15:19:25Z</time>
      </trkpt>
      <trkpt lat="46.34764" lon="6.72874">
        <ele>1658.4523</ele>
        <time>2014-08-27T15:19:30Z</time>
      </trkpt>
      <trkpt lat="46.34763" lon="6.72866">
        <ele>1658.4523</ele>
        <time>2014-08-27T15:19:35Z</time>
      </trkpt>
      <trkpt lat="46.3476" lon="6.72857">
        <ele>1657.3882</ele>
        <time>2014-08-27T15:19:40Z</time>
      </trkpt>
      <trkpt lat="46.3476" lon="6.72854">
        <ele>1657.3882</ele>
        <time>2014-08-27T15:19:45Z</time>
      </trkpt>
      <trkpt lat="46.34757" lon="6.72849">
        <ele>1657.3882</ele>
        <time>2014-08-27T15:19:50Z</time>
      </trkpt>
      <trkpt lat="46.34756" lon="6.72844">
        <ele>1656.7197</ele>
        <time>2014-08-27T15:19:55Z</time>
      </trkpt>
      <trkpt lat="46.34756" lon="6.72837">
        <ele>1656.7197</ele>
        <time>2014-08-27T15:20:00Z</time>
      </trkpt>
      <trkpt lat="46.34756" lon="6.72833">
        <ele>1656.7197</ele>
        <time>2014-08-27T15:20:05Z</time>
      </trkpt>
      <trkpt lat="46.34756" lon="6.72833">
        <ele>1656.7197</ele>
        <time>2014-08-27T15:20:10Z</time>
      </trkpt>
      <trkpt lat="46.34756" lon="6.72835">
        <ele>1656.3129</ele>
        <time>2014-08-27T15:20:15Z</time>
      </trkpt>
      <trkpt lat="46.34756" lon="6.72834">
        <ele>1656.3129</ele>
        <time>2014-08-27T15:20:20Z</time>
      </trkpt>
      <trkpt lat="46.34755" lon="6.7283">
        <ele>1656.3129</ele>
        <time>2014-08-27T15:20:25Z</time>
      </trkpt>
      <trkpt lat="46.34755" lon="6.72823">
        <ele>1656.3129</ele>
        <time>2014-08-27T15:20:30Z</time>
      </trkpt>
      <trkpt lat="46.34754" lon="6.72815">
        <ele>1656.2297</ele>
        <time>2014-08-27T15:20:35Z</time>
      </trkpt>
      <trkpt lat="46.34754" lon="6.7281">
        <ele>1656.2297</ele>
        <time>2014-08-27T15:20:40Z</time>
      </trkpt>
      <trkpt lat="46.34754" lon="6.72804">
        <ele>1656.2297</ele>
        <time>2014-08-27T15:20:45Z</time>
      </trkpt>
      <trkpt lat="46.34753" lon="6.72798">
        <ele>1656.4119</ele>
        <time>2014-08-27T15:20:50Z</time>
      </trkpt>
      <trkpt lat="46.34754" lon="6.72792">
        <ele>1656.4119</ele>
        <time>2014-08-27T15:20:55Z</time>
      </trkpt>
      <trkpt lat="46.34755" lon="6.72786">
        <ele>1656.6442</ele>
        <time>2014-08-27T15:21:00Z</time>
      </trkpt>
      <trkpt lat="46.34757" lon="6.72782">
        <ele>1656.8765</ele>
        <time>2014-08-27T15:21:05Z</time>
      </trkpt>
      <trkpt lat="46.34759" lon="6.72777">
        <ele>1656.8765</ele>
        <time>2014-08-27T15:21:10Z</time>
      </trkpt>
      <trkpt lat="46.34758" lon="6.72772">
        <ele>1656.8765</ele>
        <time>2014-08-27T15:21:15Z</time>
      </trkpt>
      <trkpt lat="46.34758" lon="6.72765">
        <ele>1657.5522</ele>
        <time>2014-08-27T15:21:20Z</time>
      </trkpt>
      <trkpt lat="46.34758" lon="6.72759">
        <ele>1657.5522</ele>
        <time>2014-08-27T15:21:25Z</time>
      </trkpt>
      <trkpt lat="46.34758" lon="6.72751">
        <ele>1658.286</ele>
        <time>2014-08-27T15:21:30Z</time>
      </trkpt>
      <trkpt lat="46.34758" lon="6.72745">
        <ele>1658.286</ele>
        <time>2014-08-27T15:21:35Z</time>
      </trkpt>
      <trkpt lat="46.34759" lon="6.72738">
        <ele>1659.0511</ele>
        <time>2014-08-27T15:21:40Z</time>
      </trkpt>
      <trkpt lat="46.3476" lon="6.72731">
        <ele>1659.0511</ele>
        <time>2014-08-27T15:21:45Z</time>
      </trkpt>
      <trkpt lat="46.34759" lon="6.72725">
        <ele>1659.0511</ele>
        <time>2014-08-27T15:21:50Z</time>
      </trkpt>
      <trkpt lat="46.3476" lon="6.72719">
        <ele>1659.8087</ele>
        <time>2014-08-27T15:21:55Z</time>
      </trkpt>
      <trkpt lat="46.34759" lon="6.7271">
        <ele>1659.8087</ele>
        <time>2014-08-27T15:22:00Z</time>
      </trkpt>
      <trkpt lat="46.34759" lon="6.72705">
        <ele>1660.5803</ele>
        <time>2014-08-27T15:22:05Z</time>
      </trkpt>
      <trkpt lat="46.34759" lon="6.727">
        <ele>1660.5803</ele>
        <time>2014-08-27T15:22:10Z</time>
      </trkpt>
      <trkpt lat="46.3476" lon="6.72694">
        <ele>1660.5803</ele>
        <time>2014-08-27T15:22:15Z</time>
      </trkpt>
      <trkpt lat="46.34761" lon="6.72687">
        <ele>1661.2852</ele>
        <time>2014-08-27T15:22:20Z</time>
      </trkpt>
      <trkpt lat="46.34761" lon="6.72681">
        <ele>1661.2852</ele>
        <time>2014-08-27T15:22:25Z</time>
      </trkpt>
      <trkpt lat="46.34761" lon="6.72676">
        <ele>1661.2852</ele>
        <time>2014-08-27T15:22:30Z</time>
      </trkpt>
      <trkpt lat="46.3476" lon="6.72672">
        <ele>1661.7478</ele>
        <time>2014-08-27T15:22:35Z</time>
      </trkpt>
      <trkpt lat="46.34759" lon="6.72671">
        <ele>1661.7478</ele>
        <time>2014-08-27T15:22:40Z</time>
      </trkpt>
      <trkpt lat="46.34758" lon="6.72661">
        <ele>1661.7478</ele>
        <time>2014-08-27T15:22:45Z</time>
      </trkpt>
      <trkpt lat="46.34757" lon="6.72654">
        <ele>1661.8931</ele>
        <time>2014-08-27T15:22:50Z</time>
      </trkpt>
      <trkpt lat="46.34756" lon="6.72647">
        <ele>1661.8931</ele>
        <time>2014-08-27T15:22:55Z</time>
      </trkpt>
      <trkpt lat="46.34753" lon="6.72638">
        <ele>1661.8973</ele>
        <time>2014-08-27T15:23:00Z</time>
      </trkpt>
      <trkpt lat="46.34752" lon="6.7263">
        <ele>1661.8973</ele>
        <time>2014-08-27T15:23:05Z</time>
      </trkpt>
      <trkpt lat="46.34751" lon="6.72625">
        <ele>1661.8668</ele>
        <time>2014-08-27T15:23:10Z</time>
      </trkpt>
      <trkpt lat="46.3475" lon="6.72622">
        <ele>1661.8668</ele>
        <time>2014-08-27T15:23:15Z</time>
      </trkpt>
      <trkpt lat="46.34746" lon="6.72614">
        <ele>1661.6844</ele>
        <time>2014-08-27T15:23:20Z</time>
      </trkpt>
      <trkpt lat="46.34745" lon="6.72605">
        <ele>1661.6844</ele>
        <time>2014-08-27T15:23:25Z</time>
      </trkpt>
      <trkpt lat="46.34744" lon="6.72601">
        <ele>1661.4724</ele>
        <time>2014-08-27T15:23:30Z</time>
      </trkpt>
      <trkpt lat="46.34742" lon="6.72596">
        <ele>1661.4724</ele>
        <time>2014-08-27T15:23:35Z</time>
      </trkpt>
      <trkpt lat="46.34739" lon="6.72588">
        <ele>1661.2435</ele>
        <time>2014-08-27T15:23:40Z</time>
      </trkpt>
      <trkpt lat="46.34739" lon="6.72578">
        <ele>1661.2435</ele>
        <time>2014-08-27T15:23:45Z</time>
      </trkpt>
      <trkpt lat="46.34738" lon="6.72573">
        <ele>1661.0243</ele>
        <time>2014-08-27T15:23:50Z</time>
      </trkpt>
      <trkpt lat="46.34736" lon="6.72567">
        <ele>1661.0243</ele>
        <time>2014-08-27T15:23:55Z</time>
      </trkpt>
      <trkpt lat="46.34734" lon="6.72561">
        <ele>1660.8684</ele>
        <time>2014-08-27T15:24:00Z</time>
      </trkpt>
      <trkpt lat="46.34731" lon="6.72556">
        <ele>1660.8684</ele>
        <time>2014-08-27T15:24:05Z</time>
      </trkpt>
      <trkpt lat="46.3473" lon="6.72551">
        <ele>1660.8684</ele>
        <time>2014-08-27T15:24:10Z</time>
      </trkpt>
      <trkpt lat="46.3473" lon="6.72546">
        <ele>1660.681</ele>
        <time>2014-08-27T15:24:15Z</time>
      </trkpt>
      <trkpt lat="46.34728" lon="6.72537">
        <ele>1660.681</ele>
        <time>2014-08-27T15:24:20Z</time>
      </trkpt>
      <trkpt lat="46.34729" lon="6.72528">
        <ele>1660.4182</ele>
        <time>2014-08-27T15:24:25Z</time>
      </trkpt>
      <trkpt lat="46.34728" lon="6.7252">
        <ele>1660.4182</ele>
        <time>2014-08-27T15:24:30Z</time>
      </trkpt>
      <trkpt lat="46.34729" lon="6.72511">
        <ele>1660.126</ele>
        <time>2014-08-27T15:24:35Z</time>
      </trkpt>
      <trkpt lat="46.3473" lon="6.72506">
        <ele>1660.126</ele>
        <time>2014-08-27T15:24:40Z</time>
      </trkpt>
      <trkpt lat="46.3473" lon="6.72502">
        <ele>1660.126</ele>
        <time>2014-08-27T15:24:45Z</time>
      </trkpt>
      <trkpt lat="46.34732" lon="6.72496">
        <ele>1659.5587</ele>
        <time>2014-08-27T15:24:50Z</time>
      </trkpt>
      <trkpt lat="46.34732" lon="6.72489">
        <ele>1659.5587</ele>
        <time>2014-08-27T15:24:55Z</time>
      </trkpt>
      <trkpt lat="46.34736" lon="6.72482">
        <ele>1658.8649</ele>
        <time>2014-08-27T15:25:00Z</time>
      </trkpt>
      <trkpt lat="46.34736" lon="6.7248">
        <ele>1658.8649</ele>
        <time>2014-08-27T15:25:05Z</time>
      </trkpt>
      <trkpt lat="46.34736" lon="6.72479">
        <ele>1658.8649</ele>
        <time>2014-08-27T15:25:10Z</time>
      </trkpt>
      <trkpt lat="46.34738" lon="6.72477">
        <ele>1658.8649</ele>
        <time>2014-08-27T15:25:15Z</time>
      </trkpt>
      <trkpt lat="46.34737" lon="6.72475">
        <ele>1658.8649</ele>
        <time>2014-08-27T15:25:20Z</time>
      </trkpt>
      <trkpt lat="46.34734" lon="6.72475">
        <ele>1658.8649</ele>
        <time>2014-08-27T15:25:25Z</time>
      </trkpt>
      <trkpt lat="46.34732" lon="6.72475">
        <ele>1657.9517</ele>
        <time>2014-08-27T15:25:30Z</time>
      </trkpt>
      <trkpt lat="46.34727" lon="6.72469">
        <ele>1657.9517</ele>
        <time>2014-08-27T15:25:35Z</time>
      </trkpt>
      <trkpt lat="46.34723" lon="6.72464">
        <ele>1656.9789</ele>
        <time>2014-08-27T15:25:40Z</time>
      </trkpt>
      <trkpt lat="46.34718" lon="6.7246">
        <ele>1656.9789</ele>
        <time>2014-08-27T15:25:45Z</time>
      </trkpt>
      <trkpt lat="46.34714" lon="6.72456">
        <ele>1655.8644</ele>
        <time>2014-08-27T15:25:50Z</time>
      </trkpt>
      <trkpt lat="46.34712" lon="6.72454">
        <ele>1655.8644</ele>
        <time>2014-08-27T15:25:55Z</time>
      </trkpt>
      <trkpt lat="46.3471" lon="6.72451">
        <ele>1655.8644</ele>
        <time>2014-08-27T15:26:00Z</time>
      </trkpt>
      <trkpt lat="46.34705" lon="6.72449">
        <ele>1654.4316</ele>
        <time>2014-08-27T15:26:05Z</time>
      </trkpt>
      <trkpt lat="46.34701" lon="6.72447">
        <ele>1654.4316</ele>
        <time>2014-08-27T15:26:10Z</time>
      </trkpt>
      <trkpt lat="46.34701" lon="6.72441">
        <ele>1654.4316</ele>
        <time>2014-08-27T15:26:15Z</time>
      </trkpt>
      <trkpt lat="46.347" lon="6.72436">
        <ele>1652.9215</ele>
        <time>2014-08-27T15:26:20Z</time>
      </trkpt>
      <trkpt lat="46.347" lon="6.72436">
        <ele>1652.9215</ele>
        <time>2014-08-27T15:26:25Z</time>
      </trkpt>
      <trkpt lat="46.347" lon="6.72435">
        <ele>1652.9215</ele>
        <time>2014-08-27T15:26:35Z</time>
      </trkpt>
      <trkpt lat="46.347" lon="6.72435">
        <ele>1652.9215</ele>
        <time>2014-08-27T15:26:40Z</time>
      </trkpt>
      <trkpt lat="46.34701" lon="6.72436">
        <ele>1652.9215</ele>
        <time>2014-08-27T15:27:25Z</time>
      </trkpt>
      <trkpt lat="46.34702" lon="6.72436">
        <ele>1652.9215</ele>
        <time>2014-08-27T15:27:30Z</time>
      </trkpt>
      <trkpt lat="46.34702" lon="6.72436">
        <ele>1652.9215</ele>
        <time>2014-08-27T15:27:35Z</time>
      </trkpt>
      <trkpt lat="46.34703" lon="6.72437">
        <ele>1652.9215</ele>
        <time>2014-08-27T15:28:20Z</time>
      </trkpt>
      <trkpt lat="46.34703" lon="6.7244">
        <ele>1652.9215</ele>
        <time>2014-08-27T15:28:25Z</time>
      </trkpt>
      <trkpt lat="46.34704" lon="6.72445">
        <ele>1650.8228</ele>
        <time>2014-08-27T15:28:30Z</time>
      </trkpt>
      <trkpt lat="46.34705" lon="6.72451">
        <ele>1650.8228</ele>
        <time>2014-08-27T15:28:35Z</time>
      </trkpt>
      <trkpt lat="46.34705" lon="6.72451">
        <ele>1650.8228</ele>
        <time>2014-08-27T15:28:40Z</time>
      </trkpt>
      <trkpt lat="46.34704" lon="6.72447">
        <ele>1650.8228</ele>
        <time>2014-08-27T15:30:00Z</time>
      </trkpt>
      <trkpt lat="46.34704" lon="6.72441">
        <ele>1648.9313</ele>
        <time>2014-08-27T15:30:05Z</time>
      </trkpt>
      <trkpt lat="46.34704" lon="6.7244">
        <ele>1648.9313</ele>
        <time>2014-08-27T15:30:10Z</time>
      </trkpt>
      <trkpt lat="46.347" lon="6.72442">
        <ele>1648.9313</ele>
        <time>2014-08-27T15:30:20Z</time>
      </trkpt>
      <trkpt lat="46.34697" lon="6.72441">
        <ele>1648.9313</ele>
        <time>2014-08-27T15:30:25Z</time>
      </trkpt>
      <trkpt lat="46.34696" lon="6.72439">
        <ele>1646.745</ele>
        <time>2014-08-27T15:30:30Z</time>
      </trkpt>
      <trkpt lat="46.34696" lon="6.72439">
        <ele>1646.745</ele>
        <time>2014-08-27T15:30:35Z</time>
      </trkpt>
      <trkpt lat="46.34696" lon="6.72439">
        <ele>1646.745</ele>
        <time>2014-08-27T15:32:05Z</time>
      </trkpt>
      <trkpt lat="46.34697" lon="6.72439">
        <ele>1646.745</ele>
        <time>2014-08-27T15:32:10Z</time>
      </trkpt>
      <trkpt lat="46.34699" lon="6.72438">
        <ele>1646.745</ele>
        <time>2014-08-27T15:32:15Z</time>
      </trkpt>
      <trkpt lat="46.347" lon="6.72439">
        <ele>1646.745</ele>
        <time>2014-08-27T15:32:20Z</time>
      </trkpt>
      <trkpt lat="46.347" lon="6.72439">
        <ele>1646.745</ele>
        <time>2014-08-27T15:32:25Z</time>
      </trkpt>
      <trkpt lat="46.347" lon="6.72437">
        <ele>1646.745</ele>
        <time>2014-08-27T15:33:00Z</time>
      </trkpt>
      <trkpt lat="46.347" lon="6.72435">
        <ele>1646.745</ele>
        <time>2014-08-27T15:33:05Z</time>
      </trkpt>
      <trkpt lat="46.34701" lon="6.72434">
        <ele>1644.9377</ele>
        <time>2014-08-27T15:33:10Z</time>
      </trkpt>
      <trkpt lat="46.34702" lon="6.72434">
        <ele>1644.9377</ele>
        <time>2014-08-27T15:33:15Z</time>
      </trkpt>
      <trkpt lat="46.34701" lon="6.72433">
        <ele>1644.9377</ele>
        <time>2014-08-27T15:33:20Z</time>
      </trkpt>
      <trkpt lat="46.34703" lon="6.72435">
        <ele>1644.9377</ele>
        <time>2014-08-27T15:33:25Z</time>
      </trkpt>
      <trkpt lat="46.34704" lon="6.72436">
        <ele>1644.9377</ele>
        <time>2014-08-27T15:33:30Z</time>
      </trkpt>
      <trkpt lat="46.34703" lon="6.72437">
        <ele>1644.9377</ele>
        <time>2014-08-27T15:33:35Z</time>
      </trkpt>
      <trkpt lat="46.34703" lon="6.72438">
        <ele>1644.9377</ele>
        <time>2014-08-27T15:33:40Z</time>
      </trkpt>
      <trkpt lat="46.34703" lon="6.72439">
        <ele>1644.9377</ele>
        <time>2014-08-27T15:33:45Z</time>
      </trkpt>
      <trkpt lat="46.34703" lon="6.72439">
        <ele>1644.9377</ele>
        <time>2014-08-27T15:33:50Z</time>
      </trkpt>
      <trkpt lat="46.34704" lon="6.72438">
        <ele>1643.182</ele>
        <time>2014-08-27T15:33:55Z</time>
      </trkpt>
      <trkpt lat="46.34704" lon="6.72437">
        <ele>1643.182</ele>
        <time>2014-08-27T15:34:00Z</time>
      </trkpt>
      <trkpt lat="46.34706" lon="6.72439">
        <ele>1643.182</ele>
        <time>2014-08-27T15:34:05Z</time>
      </trkpt>
      <trkpt lat="46.34707" lon="6.7244">
        <ele>1643.182</ele>
        <time>2014-08-27T15:34:10Z</time>
      </trkpt>
      <trkpt lat="46.34706" lon="6.72441">
        <ele>1643.182</ele>
        <time>2014-08-27T15:34:15Z</time>
      </trkpt>
      <trkpt lat="46.34706" lon="6.72438">
        <ele>1643.182</ele>
        <time>2014-08-27T15:34:20Z</time>
      </trkpt>
      <trkpt lat="46.34705" lon="6.72438">
        <ele>1643.182</ele>
        <time>2014-08-27T15:34:25Z</time>
      </trkpt>
      <trkpt lat="46.34705" lon="6.72436">
        <ele>1643.182</ele>
        <time>2014-08-27T15:34:30Z</time>
      </trkpt>
      <trkpt lat="46.34708" lon="6.72434">
        <ele>1641.4332</ele>
        <time>2014-08-27T15:34:35Z</time>
      </trkpt>
      <trkpt lat="46.34709" lon="6.72434">
        <ele>1641.4332</ele>
        <time>2014-08-27T15:34:40Z</time>
      </trkpt>
      <trkpt lat="46.3471" lon="6.72435">
        <ele>1641.4332</ele>
        <time>2014-08-27T15:34:45Z</time>
      </trkpt>
      <trkpt lat="46.3471" lon="6.72436">
        <ele>1641.4332</ele>
        <time>2014-08-27T15:34:50Z</time>
      </trkpt>
      <trkpt lat="46.3471" lon="6.72438">
        <ele>1641.4332</ele>
        <time>2014-08-27T15:34:55Z</time>
      </trkpt>
      <trkpt lat="46.34709" lon="6.72439">
        <ele>1641.4332</ele>
        <time>2014-08-27T15:35:00Z</time>
      </trkpt>
      <trkpt lat="46.34709" lon="6.72438">
        <ele>1641.4332</ele>
        <time>2014-08-27T15:35:05Z</time>
      </trkpt>
      <trkpt lat="46.3471" lon="6.72439">
        <ele>1641.4332</ele>
        <time>2014-08-27T15:35:10Z</time>
      </trkpt>
      <trkpt lat="46.3471" lon="6.72439">
        <ele>1641.4332</ele>
        <time>2014-08-27T15:35:15Z</time>
      </trkpt>
      <trkpt lat="46.34709" lon="6.72439">
        <ele>1641.4332</ele>
        <time>2014-08-27T15:35:20Z</time>
      </trkpt>
      <trkpt lat="46.34708" lon="6.72439">
        <ele>1639.7083</ele>
        <time>2014-08-27T15:35:25Z</time>
      </trkpt>
      <trkpt lat="46.34708" lon="6.7244">
        <ele>1639.7083</ele>
        <time>2014-08-27T15:35:30Z</time>
      </trkpt>
      <trkpt lat="46.34706" lon="6.72439">
        <ele>1639.7083</ele>
        <time>2014-08-27T15:35:35Z</time>
      </trkpt>
      <trkpt lat="46.34704" lon="6.72439">
        <ele>1639.7083</ele>
        <time>2014-08-27T15:35:40Z</time>
      </trkpt>
      <trkpt lat="46.34704" lon="6.7244">
        <ele>1639.7083</ele>
        <time>2014-08-27T15:35:45Z</time>
      </trkpt>
      <trkpt lat="46.34703" lon="6.72438">
        <ele>1639.7083</ele>
        <time>2014-08-27T15:35:50Z</time>
      </trkpt>
      <trkpt lat="46.34703" lon="6.72437">
        <ele>1639.7083</ele>
        <time>2014-08-27T15:35:55Z</time>
      </trkpt>
      <trkpt lat="46.34703" lon="6.72438">
        <ele>1639.7083</ele>
        <time>2014-08-27T15:36:00Z</time>
      </trkpt>
      <trkpt lat="46.34704" lon="6.72438">
        <ele>1639.7083</ele>
        <time>2014-08-27T15:36:05Z</time>
      </trkpt>
      <trkpt lat="46.34704" lon="6.72438">
        <ele>1639.7083</ele>
        <time>2014-08-27T15:36:10Z</time>
      </trkpt>
      <trkpt lat="46.34704" lon="6.72439">
        <ele>1638.0365</ele>
        <time>2014-08-27T15:36:15Z</time>
      </trkpt>
      <trkpt lat="46.34704" lon="6.72437">
        <ele>1638.0365</ele>
        <time>2014-08-27T15:36:20Z</time>
      </trkpt>
      <trkpt lat="46.34704" lon="6.72437">
        <ele>1638.0365</ele>
        <time>2014-08-27T15:36:25Z</time>
      </trkpt>
      <trkpt lat="46.34704" lon="6.72435">
        <ele>1638.0365</ele>
        <time>2014-08-27T15:36:30Z</time>
      </trkpt>
      <trkpt lat="46.34705" lon="6.72436">
        <ele>1638.0365</ele>
        <time>2014-08-27T15:36:35Z</time>
      </trkpt>
      <trkpt lat="46.34705" lon="6.72437">
        <ele>1638.0365</ele>
        <time>2014-08-27T15:36:40Z</time>
      </trkpt>
      <trkpt lat="46.34706" lon="6.72438">
        <ele>1638.0365</ele>
        <time>2014-08-27T15:36:45Z</time>
      </trkpt>
      <trkpt lat="46.34706" lon="6.72438">
        <ele>1638.0365</ele>
        <time>2014-08-27T15:36:50Z</time>
      </trkpt>
      <trkpt lat="46.34705" lon="6.72438">
        <ele>1638.0365</ele>
        <time>2014-08-27T15:36:55Z</time>
      </trkpt>
      <trkpt lat="46.34705" lon="6.72436">
        <ele>1638.0365</ele>
        <time>2014-08-27T15:37:00Z</time>
      </trkpt>
      <trkpt lat="46.34705" lon="6.72436">
        <ele>1638.0365</ele>
        <time>2014-08-27T15:37:05Z</time>
      </trkpt>
      <trkpt lat="46.34703" lon="6.72437">
        <ele>1636.6185</ele>
        <time>2014-08-27T15:37:10Z</time>
      </trkpt>
      <trkpt lat="46.34701" lon="6.72437">
        <ele>1636.6185</ele>
        <time>2014-08-27T15:37:15Z</time>
      </trkpt>
      <trkpt lat="46.34702" lon="6.72437">
        <ele>1636.6185</ele>
        <time>2014-08-27T15:37:20Z</time>
      </trkpt>
      <trkpt lat="46.34701" lon="6.72437">
        <ele>1636.6185</ele>
        <time>2014-08-27T15:37:25Z</time>
      </trkpt>
      <trkpt lat="46.34702" lon="6.72438">
        <ele>1636.6185</ele>
        <time>2014-08-27T15:37:30Z</time>
      </trkpt>
      <trkpt lat="46.34701" lon="6.7244">
        <ele>1636.6185</ele>
        <time>2014-08-27T15:37:35Z</time>
      </trkpt>
      <trkpt lat="46.34701" lon="6.72442">
        <ele>1636.6185</ele>
        <time>2014-08-27T15:37:40Z</time>
      </trkpt>
      <trkpt lat="46.34702" lon="6.72443">
        <ele>1636.6185</ele>
        <time>2014-08-27T15:37:45Z</time>
      </trkpt>
      <trkpt lat="46.34703" lon="6.72443">
        <ele>1636.6185</ele>
        <time>2014-08-27T15:37:50Z</time>
      </trkpt>
      <trkpt lat="46.34703" lon="6.72442">
        <ele>1636.6185</ele>
        <time>2014-08-27T15:37:55Z</time>
      </trkpt>
      <trkpt lat="46.34704" lon="6.72443">
        <ele>1635.4517</ele>
        <time>2014-08-27T15:38:00Z</time>
      </trkpt>
      <trkpt lat="46.34704" lon="6.72443">
        <ele>1635.4517</ele>
        <time>2014-08-27T15:38:05Z</time>
      </trkpt>
      <trkpt lat="46.34703" lon="6.72443">
        <ele>1635.4517</ele>
        <time>2014-08-27T15:38:45Z</time>
      </trkpt>
      <trkpt lat="46.34705" lon="6.72446">
        <ele>1635.4517</ele>
        <time>2014-08-27T15:38:50Z</time>
      </trkpt>
      <trkpt lat="46.34705" lon="6.72447">
        <ele>1635.4517</ele>
        <time>2014-08-27T15:38:55Z</time>
      </trkpt>
      <trkpt lat="46.34705" lon="6.72453">
        <ele>1634.6627</ele>
        <time>2014-08-27T15:39:00Z</time>
      </trkpt>
      <trkpt lat="46.34705" lon="6.72453">
        <ele>1634.6627</ele>
        <time>2014-08-27T15:39:05Z</time>
      </trkpt>
      <trkpt lat="46.34706" lon="6.72453">
        <ele>1634.6627</ele>
        <time>2014-08-27T15:39:10Z</time>
      </trkpt>
      <trkpt lat="46.34706" lon="6.72453">
        <ele>1634.6627</ele>
        <time>2014-08-27T15:39:15Z</time>
      </trkpt>
      <trkpt lat="46.34706" lon="6.72453">
        <ele>1634.6627</ele>
        <time>2014-08-27T15:39:20Z</time>
      </trkpt>
      <trkpt lat="46.34705" lon="6.72454">
        <ele>1634.6627</ele>
        <time>2014-08-27T15:39:25Z</time>
      </trkpt>
      <trkpt lat="46.34705" lon="6.72454">
        <ele>1634.6627</ele>
        <time>2014-08-27T15:39:30Z</time>
      </trkpt>
      <trkpt lat="46.34705" lon="6.72453">
        <ele>1634.6627</ele>
        <time>2014-08-27T15:41:10Z</time>
      </trkpt>
      <trkpt lat="46.34704" lon="6.72449">
        <ele>1634.6627</ele>
        <time>2014-08-27T15:41:15Z</time>
      </trkpt>
      <trkpt lat="46.34704" lon="6.72448">
        <ele>1634.6627</ele>
        <time>2014-08-27T15:41:20Z</time>
      </trkpt>
      <trkpt lat="46.34704" lon="6.72449">
        <ele>1634.6627</ele>
        <time>2014-08-27T15:41:25Z</time>
      </trkpt>
      <trkpt lat="46.34703" lon="6.7245">
        <ele>1634.6627</ele>
        <time>2014-08-27T15:41:30Z</time>
      </trkpt>
      <trkpt lat="46.34702" lon="6.72451">
        <ele>1634.6627</ele>
        <time>2014-08-27T15:41:35Z</time>
      </trkpt>
      <trkpt lat="46.34702" lon="6.72451">
        <ele>1633.8636</ele>
        <time>2014-08-27T15:41:40Z</time>
      </trkpt>
      <trkpt lat="46.34702" lon="6.7245">
        <ele>1633.8636</ele>
        <time>2014-08-27T15:41:45Z</time>
      </trkpt>
      <trkpt lat="46.34703" lon="6.7245">
        <ele>1633.8636</ele>
        <time>2014-08-27T15:41:50Z</time>
      </trkpt>
      <trkpt lat="46.34703" lon="6.72446">
        <ele>1633.8636</ele>
        <time>2014-08-27T15:41:55Z</time>
      </trkpt>
      <trkpt lat="46.34704" lon="6.72444">
        <ele>1633.8636</ele>
        <time>2014-08-27T15:42:00Z</time>
      </trkpt>
      <trkpt lat="46.34703" lon="6.72443">
        <ele>1633.8636</ele>
        <time>2014-08-27T15:42:05Z</time>
      </trkpt>
      <trkpt lat="46.34703" lon="6.72442">
        <ele>1633.8636</ele>
        <time>2014-08-27T15:42:10Z</time>
      </trkpt>
      <trkpt lat="46.347" lon="6.72443">
        <ele>1633.3</ele>
        <time>2014-08-27T15:42:15Z</time>
      </trkpt>
      <trkpt lat="46.34701" lon="6.72445">
        <ele>1633.3</ele>
        <time>2014-08-27T15:42:20Z</time>
      </trkpt>
      <trkpt lat="46.34702" lon="6.72446">
        <ele>1633.3</ele>
        <time>2014-08-27T15:42:25Z</time>
      </trkpt>
      <trkpt lat="46.34703" lon="6.72446">
        <ele>1633.3</ele>
        <time>2014-08-27T15:42:30Z</time>
      </trkpt>
      <trkpt lat="46.34702" lon="6.72446">
        <ele>1633.3</ele>
        <time>2014-08-27T15:42:35Z</time>
      </trkpt>
      <trkpt lat="46.34702" lon="6.72447">
        <ele>1633.3</ele>
        <time>2014-08-27T15:42:40Z</time>
      </trkpt>
      <trkpt lat="46.34702" lon="6.72447">
        <ele>1633.3</ele>
        <time>2014-08-27T15:42:45Z</time>
      </trkpt>
      <trkpt lat="46.34702" lon="6.72447">
        <ele>1633.3</ele>
        <time>2014-08-27T15:43:00Z</time>
      </trkpt>
      <trkpt lat="46.34707" lon="6.72453">
        <ele>1633.0261</ele>
        <time>2014-08-27T15:43:05Z</time>
      </trkpt>
      <trkpt lat="46.3471" lon="6.72455">
        <ele>1633.0261</ele>
        <time>2014-08-27T15:43:10Z</time>
      </trkpt>
      <trkpt lat="46.34712" lon="6.72459">
        <ele>1633.0261</ele>
        <time>2014-08-27T15:43:15Z</time>
      </trkpt>
      <trkpt lat="46.34721" lon="6.72465">
        <ele>1632.8027</ele>
        <time>2014-08-27T15:43:20Z</time>
      </trkpt>
      <trkpt lat="46.34726" lon="6.72472">
        <ele>1632.8027</ele>
        <time>2014-08-27T15:43:25Z</time>
      </trkpt>
      <trkpt lat="46.34731" lon="6.72476">
        <ele>1632.9128</ele>
        <time>2014-08-27T15:43:30Z</time>
      </trkpt>
      <trkpt lat="46.34734" lon="6.7248">
        <ele>1632.9128</ele>
        <time>2014-08-27T15:43:35Z</time>
      </trkpt>
      <trkpt lat="46.34737" lon="6.72482">
        <ele>1632.9128</ele>
        <time>2014-08-27T15:43:40Z</time>
      </trkpt>
      <trkpt lat="46.34741" lon="6.72483">
        <ele>1633.3148</ele>
        <time>2014-08-27T15:43:45Z</time>
      </trkpt>
      <trkpt lat="46.34742" lon="6.72484">
        <ele>1633.3148</ele>
        <time>2014-08-27T15:43:50Z</time>
      </trkpt>
      <trkpt lat="46.34742" lon="6.72484">
        <ele>1633.3148</ele>
        <time>2014-08-27T15:43:55Z</time>
      </trkpt>
      <trkpt lat="46.34744" lon="6.72483">
        <ele>1633.3148</ele>
        <time>2014-08-27T15:44:00Z</time>
      </trkpt>
      <trkpt lat="46.34745" lon="6.72484">
        <ele>1633.3148</ele>
        <time>2014-08-27T15:44:05Z</time>
      </trkpt>
      <trkpt lat="46.34745" lon="6.72483">
        <ele>1633.3148</ele>
        <time>2014-08-27T15:44:10Z</time>
      </trkpt>
      <trkpt lat="46.34749" lon="6.72483">
        <ele>1633.3148</ele>
        <time>2014-08-27T15:44:15Z</time>
      </trkpt>
      <trkpt lat="46.3475" lon="6.72484">
        <ele>1634.0128</ele>
        <time>2014-08-27T15:44:20Z</time>
      </trkpt>
      <trkpt lat="46.34753" lon="6.72483">
        <ele>1634.0128</ele>
        <time>2014-08-27T15:44:25Z</time>
      </trkpt>
      <trkpt lat="46.34758" lon="6.72483">
        <ele>1634.0128</ele>
        <time>2014-08-27T15:44:30Z</time>
      </trkpt>
      <trkpt lat="46.34758" lon="6.72483">
        <ele>1634.0128</ele>
        <time>2014-08-27T15:44:35Z</time>
      </trkpt>
      <trkpt lat="46.3476" lon="6.72482">
        <ele>1634.9664</ele>
        <time>2014-08-27T15:44:40Z</time>
      </trkpt>
      <trkpt lat="46.34763" lon="6.72482">
        <ele>1634.9664</ele>
        <time>2014-08-27T15:44:45Z</time>
      </trkpt>
      <trkpt lat="46.34763" lon="6.72482">
        <ele>1634.9664</ele>
        <time>2014-08-27T15:44:50Z</time>
      </trkpt>
      <trkpt lat="46.34766" lon="6.72482">
        <ele>1634.9664</ele>
        <time>2014-08-27T15:44:55Z</time>
      </trkpt>
      <trkpt lat="46.34767" lon="6.72482">
        <ele>1634.9664</ele>
        <time>2014-08-27T15:45:00Z</time>
      </trkpt>
      <trkpt lat="46.3477" lon="6.72481">
        <ele>1636.2671</ele>
        <time>2014-08-27T15:45:05Z</time>
      </trkpt>
      <trkpt lat="46.3477" lon="6.72481">
        <ele>1636.2671</ele>
        <time>2014-08-27T15:45:10Z</time>
      </trkpt>
      <trkpt lat="46.3477" lon="6.72481">
        <ele>1636.2671</ele>
        <time>2014-08-27T15:45:15Z</time>
      </trkpt>
      <trkpt lat="46.34771" lon="6.72477">
        <ele>1636.2671</ele>
        <time>2014-08-27T15:45:20Z</time>
      </trkpt>
      <trkpt lat="46.34774" lon="6.72476">
        <ele>1636.2671</ele>
        <time>2014-08-27T15:45:25Z</time>
      </trkpt>
      <trkpt lat="46.34775" lon="6.72475">
        <ele>1636.2671</ele>
        <time>2014-08-27T15:45:30Z</time>
      </trkpt>
      <trkpt lat="46.34777" lon="6.72474">
        <ele>1636.2671</ele>
        <time>2014-08-27T15:45:35Z</time>
      </trkpt>
      <trkpt lat="46.34782" lon="6.7247">
        <ele>1638.316</ele>
        <time>2014-08-27T15:45:40Z</time>
      </trkpt>
      <trkpt lat="46.34785" lon="6.72469">
        <ele>1638.316</ele>
        <time>2014-08-27T15:45:45Z</time>
      </trkpt>
      <trkpt lat="46.3479" lon="6.72466">
        <ele>1638.316</ele>
        <time>2014-08-27T15:45:50Z</time>
      </trkpt>
      <trkpt lat="46.34791" lon="6.72465">
        <ele>1640.6469</ele>
        <time>2014-08-27T15:45:55Z</time>
      </trkpt>
      <trkpt lat="46.34792" lon="6.72463">
        <ele>1640.6469</ele>
        <time>2014-08-27T15:46:00Z</time>
      </trkpt>
      <trkpt lat="46.34793" lon="6.7246">
        <ele>1640.6469</ele>
        <time>2014-08-27T15:46:05Z</time>
      </trkpt>
      <trkpt lat="46.34794" lon="6.72459">
        <ele>1640.6469</ele>
        <time>2014-08-27T15:46:10Z</time>
      </trkpt>
      <trkpt lat="46.34796" lon="6.7246">
        <ele>1640.6469</ele>
        <time>2014-08-27T15:46:15Z</time>
      </trkpt>
      <trkpt lat="46.34797" lon="6.72459">
        <ele>1640.6469</ele>
        <time>2014-08-27T15:46:20Z</time>
      </trkpt>
      <trkpt lat="46.34797" lon="6.72459">
        <ele>1640.6469</ele>
        <time>2014-08-27T15:46:25Z</time>
      </trkpt>
      <trkpt lat="46.34798" lon="6.72458">
        <ele>1643.1293</ele>
        <time>2014-08-27T15:46:30Z</time>
      </trkpt>
      <trkpt lat="46.34797" lon="6.72457">
        <ele>1643.1293</ele>
        <time>2014-08-27T15:46:35Z</time>
      </trkpt>
      <trkpt lat="46.34795" lon="6.72456">
        <ele>1643.1293</ele>
        <time>2014-08-27T15:46:40Z</time>
      </trkpt>
      <trkpt lat="46.34795" lon="6.72455">
        <ele>1643.1293</ele>
        <time>2014-08-27T15:46:45Z</time>
      </trkpt>
      <trkpt lat="46.34795" lon="6.72455">
        <ele>1643.1293</ele>
        <time>2014-08-27T15:46:50Z</time>
      </trkpt>
      <trkpt lat="46.34796" lon="6.72455">
        <ele>1643.1293</ele>
        <time>2014-08-27T15:46:55Z</time>
      </trkpt>
      <trkpt lat="46.34798" lon="6.72456">
        <ele>1643.1293</ele>
        <time>2014-08-27T15:47:00Z</time>
      </trkpt>
      <trkpt lat="46.34799" lon="6.72456">
        <ele>1643.1293</ele>
        <time>2014-08-27T15:47:05Z</time>
      </trkpt>
      <trkpt lat="46.34802" lon="6.72455">
        <ele>1646.2189</ele>
        <time>2014-08-27T15:47:10Z</time>
      </trkpt>
      <trkpt lat="46.34806" lon="6.72454">
        <ele>1646.2189</ele>
        <time>2014-08-27T15:47:15Z</time>
      </trkpt>
      <trkpt lat="46.34809" lon="6.72452">
        <ele>1646.2189</ele>
        <time>2014-08-27T15:47:20Z</time>
      </trkpt>
      <trkpt lat="46.34813" lon="6.72451">
        <ele>1649.5002</ele>
        <time>2014-08-27T15:47:25Z</time>
      </trkpt>
      <trkpt lat="46.34815" lon="6.72451">
        <ele>1649.5002</ele>
        <time>2014-08-27T15:47:30Z</time>
      </trkpt>
      <trkpt lat="46.34818" lon="6.72452">
        <ele>1649.5002</ele>
        <time>2014-08-27T15:47:35Z</time>
      </trkpt>
      <trkpt lat="46.3482" lon="6.72453">
        <ele>1649.5002</ele>
        <time>2014-08-27T15:47:40Z</time>
      </trkpt>
      <trkpt lat="46.34822" lon="6.72453">
        <ele>1652.6891</ele>
        <time>2014-08-27T15:47:45Z</time>
      </trkpt>
      <trkpt lat="46.34822" lon="6.72451">
        <ele>1652.6891</ele>
        <time>2014-08-27T15:47:50Z</time>
      </trkpt>
      <trkpt lat="46.34825" lon="6.7245">
        <ele>1652.6891</ele>
        <time>2014-08-27T15:47:55Z</time>
      </trkpt>
      <trkpt lat="46.34827" lon="6.72447">
        <ele>1652.6891</ele>
        <time>2014-08-27T15:48:00Z</time>
      </trkpt>
      <trkpt lat="46.34828" lon="6.72444">
        <ele>1656.0266</ele>
        <time>2014-08-27T15:48:05Z</time>
      </trkpt>
      <trkpt lat="46.34829" lon="6.72443">
        <ele>1656.0266</ele>
        <time>2014-08-27T15:48:10Z</time>
      </trkpt>
      <trkpt lat="46.34829" lon="6.72441">
        <ele>1656.0266</ele>
        <time>2014-08-27T15:48:15Z</time>
      </trkpt>
      <trkpt lat="46.34829" lon="6.72439">
        <ele>1656.0266</ele>
        <time>2014-08-27T15:48:20Z</time>
      </trkpt>
      <trkpt lat="46.34829" lon="6.72438">
        <ele>1656.0266</ele>
        <time>2014-08-27T15:48:25Z</time>
      </trkpt>
      <trkpt lat="46.3483" lon="6.72435">
        <ele>1656.0266</ele>
        <time>2014-08-27T15:48:30Z</time>
      </trkpt>
      <trkpt lat="46.34831" lon="6.7243">
        <ele>1659.4625</ele>
        <time>2014-08-27T15:48:35Z</time>
      </trkpt>
      <trkpt lat="46.3483" lon="6.72427">
        <ele>1659.4625</ele>
        <time>2014-08-27T15:48:40Z</time>
      </trkpt>
      <trkpt lat="46.3483" lon="6.72426">
        <ele>1659.4625</ele>
        <time>2014-08-27T15:48:45Z</time>
      </trkpt>
      <trkpt lat="46.34829" lon="6.72423">
        <ele>1659.4625</ele>
        <time>2014-08-27T15:48:50Z</time>
      </trkpt>
      <trkpt lat="46.34829" lon="6.72423">
        <ele>1659.4625</ele>
        <time>2014-08-27T15:48:55Z</time>
      </trkpt>
      <trkpt lat="46.3483" lon="6.72426">
        <ele>1659.4625</ele>
        <time>2014-08-27T15:49:00Z</time>
      </trkpt>
      <trkpt lat="46.34829" lon="6.72429">
        <ele>1662.7913</ele>
        <time>2014-08-27T15:49:05Z</time>
      </trkpt>
      <trkpt lat="46.34829" lon="6.72431">
        <ele>1662.7913</ele>
        <time>2014-08-27T15:49:10Z</time>
      </trkpt>
      <trkpt lat="46.34829" lon="6.72431">
        <ele>1662.7913</ele>
        <time>2014-08-27T15:49:15Z</time>
      </trkpt>
      <trkpt lat="46.34832" lon="6.72429">
        <ele>1662.7913</ele>
        <time>2014-08-27T15:49:20Z</time>
      </trkpt>
      <trkpt lat="46.34836" lon="6.72426">
        <ele>1665.8663</ele>
        <time>2014-08-27T15:49:25Z</time>
      </trkpt>
      <trkpt lat="46.34839" lon="6.72423">
        <ele>1665.8663</ele>
        <time>2014-08-27T15:49:30Z</time>
      </trkpt>
      <trkpt lat="46.34842" lon="6.72423">
        <ele>1665.8663</ele>
        <time>2014-08-27T15:49:35Z</time>
      </trkpt>
      <trkpt lat="46.34843" lon="6.72423">
        <ele>1665.8663</ele>
        <time>2014-08-27T15:49:40Z</time>
      </trkpt>
      <trkpt lat="46.34845" lon="6.72426">
        <ele>1668.8125</ele>
        <time>2014-08-27T15:49:45Z</time>
      </trkpt>
      <trkpt lat="46.34845" lon="6.7243">
        <ele>1668.8125</ele>
        <time>2014-08-27T15:49:50Z</time>
      </trkpt>
      <trkpt lat="46.34847" lon="6.72435">
        <ele>1668.8125</ele>
        <time>2014-08-27T15:49:55Z</time>
      </trkpt>
      <trkpt lat="46.34846" lon="6.72438">
        <ele>1668.8125</ele>
        <time>2014-08-27T15:50:00Z</time>
      </trkpt>
      <trkpt lat="46.34846" lon="6.72439">
        <ele>1671.7024</ele>
        <time>2014-08-27T15:50:05Z</time>
      </trkpt>
      <trkpt lat="46.34847" lon="6.72441">
        <ele>1671.7024</ele>
        <time>2014-08-27T15:50:10Z</time>
      </trkpt>
      <trkpt lat="46.34849" lon="6.72444">
        <ele>1671.7024</ele>
        <time>2014-08-27T15:50:15Z</time>
      </trkpt>
      <trkpt lat="46.3485" lon="6.72447">
        <ele>1671.7024</ele>
        <time>2014-08-27T15:50:20Z</time>
      </trkpt>
      <trkpt lat="46.34851" lon="6.72453">
        <ele>1674.8201</ele>
        <time>2014-08-27T15:50:25Z</time>
      </trkpt>
      <trkpt lat="46.34851" lon="6.72455">
        <ele>1674.8201</ele>
        <time>2014-08-27T15:50:30Z</time>
      </trkpt>
      <trkpt lat="46.34852" lon="6.72461">
        <ele>1674.8201</ele>
        <time>2014-08-27T15:50:35Z</time>
      </trkpt>
      <trkpt lat="46.34851" lon="6.72462">
        <ele>1674.8201</ele>
        <time>2014-08-27T15:50:40Z</time>
      </trkpt>
      <trkpt lat="46.34855" lon="6.72464">
        <ele>1678.3563</ele>
        <time>2014-08-27T15:50:45Z</time>
      </trkpt>
      <trkpt lat="46.34857" lon="6.72465">
        <ele>1678.3563</ele>
        <time>2014-08-27T15:50:50Z</time>
      </trkpt>
      <trkpt lat="46.34859" lon="6.72469">
        <ele>1678.3563</ele>
        <time>2014-08-27T15:50:55Z</time>
      </trkpt>
      <trkpt lat="46.3486" lon="6.72473">
        <ele>1678.3563</ele>
        <time>2014-08-27T15:51:00Z</time>
      </trkpt>
      <trkpt lat="46.34861" lon="6.72476">
        <ele>1681.9824</ele>
        <time>2014-08-27T15:51:05Z</time>
      </trkpt>
      <trkpt lat="46.34861" lon="6.72479">
        <ele>1681.9824</ele>
        <time>2014-08-27T15:51:10Z</time>
      </trkpt>
      <trkpt lat="46.3486" lon="6.72486">
        <ele>1681.9824</ele>
        <time>2014-08-27T15:51:15Z</time>
      </trkpt>
      <trkpt lat="46.3486" lon="6.72488">
        <ele>1681.9824</ele>
        <time>2014-08-27T15:51:20Z</time>
      </trkpt>
      <trkpt lat="46.34859" lon="6.72491">
        <ele>1685.985</ele>
        <time>2014-08-27T15:51:25Z</time>
      </trkpt>
      <trkpt lat="46.34859" lon="6.72496">
        <ele>1685.985</ele>
        <time>2014-08-27T15:51:30Z</time>
      </trkpt>
      <trkpt lat="46.3486" lon="6.72499">
        <ele>1685.985</ele>
        <time>2014-08-27T15:51:35Z</time>
      </trkpt>
      <trkpt lat="46.34861" lon="6.72505">
        <ele>1690.1096</ele>
        <time>2014-08-27T15:51:40Z</time>
      </trkpt>
      <trkpt lat="46.34861" lon="6.72506">
        <ele>1690.1096</ele>
        <time>2014-08-27T15:51:45Z</time>
      </trkpt>
      <trkpt lat="46.34862" lon="6.72507">
        <ele>1690.1096</ele>
        <time>2014-08-27T15:51:50Z</time>
      </trkpt>
      <trkpt lat="46.34863" lon="6.72509">
        <ele>1690.1096</ele>
        <time>2014-08-27T15:51:55Z</time>
      </trkpt>
      <trkpt lat="46.34863" lon="6.7251">
        <ele>1690.1096</ele>
        <time>2014-08-27T15:52:00Z</time>
      </trkpt>
      <trkpt lat="46.34863" lon="6.72513">
        <ele>1690.1096</ele>
        <time>2014-08-27T15:52:05Z</time>
      </trkpt>
      <trkpt lat="46.34864" lon="6.72515">
        <ele>1690.1096</ele>
        <time>2014-08-27T15:52:10Z</time>
      </trkpt>
      <trkpt lat="46.34864" lon="6.72516">
        <ele>1694.3948</ele>
        <time>2014-08-27T15:52:15Z</time>
      </trkpt>
      <trkpt lat="46.34864" lon="6.72519">
        <ele>1694.3948</ele>
        <time>2014-08-27T15:52:20Z</time>
      </trkpt>
      <trkpt lat="46.34864" lon="6.72522">
        <ele>1694.3948</ele>
        <time>2014-08-27T15:52:25Z</time>
      </trkpt>
      <trkpt lat="46.34865" lon="6.72523">
        <ele>1694.3948</ele>
        <time>2014-08-27T15:52:30Z</time>
      </trkpt>
      <trkpt lat="46.34864" lon="6.72525">
        <ele>1694.3948</ele>
        <time>2014-08-27T15:52:35Z</time>
      </trkpt>
      <trkpt lat="46.34862" lon="6.72528">
        <ele>1698.1838</ele>
        <time>2014-08-27T15:52:40Z</time>
      </trkpt>
      <trkpt lat="46.34861" lon="6.72532">
        <ele>1698.1838</ele>
        <time>2014-08-27T15:52:45Z</time>
      </trkpt>
      <trkpt lat="46.34861" lon="6.72536">
        <ele>1698.1838</ele>
        <time>2014-08-27T15:52:50Z</time>
      </trkpt>
      <trkpt lat="46.3486" lon="6.72538">
        <ele>1698.1838</ele>
        <time>2014-08-27T15:52:55Z</time>
      </trkpt>
      <trkpt lat="46.34859" lon="6.72539">
        <ele>1698.1838</ele>
        <time>2014-08-27T15:53:00Z</time>
      </trkpt>
      <trkpt lat="46.34859" lon="6.72539">
        <ele>1698.1838</ele>
        <time>2014-08-27T15:53:05Z</time>
      </trkpt>
      <trkpt lat="46.3486" lon="6.72538">
        <ele>1701.9513</ele>
        <time>2014-08-27T15:53:10Z</time>
      </trkpt>
      <trkpt lat="46.3486" lon="6.72538">
        <ele>1701.9513</ele>
        <time>2014-08-27T15:53:15Z</time>
      </trkpt>
      <trkpt lat="46.3486" lon="6.72539">
        <ele>1701.9513</ele>
        <time>2014-08-27T15:53:20Z</time>
      </trkpt>
      <trkpt lat="46.34861" lon="6.72539">
        <ele>1701.9513</ele>
        <time>2014-08-27T15:53:25Z</time>
      </trkpt>
      <trkpt lat="46.34862" lon="6.72542">
        <ele>1701.9513</ele>
        <time>2014-08-27T15:53:30Z</time>
      </trkpt>
      <trkpt lat="46.34861" lon="6.72542">
        <ele>1701.9513</ele>
        <time>2014-08-27T15:53:35Z</time>
      </trkpt>
      <trkpt lat="46.34861" lon="6.72542">
        <ele>1701.9513</ele>
        <time>2014-08-27T15:53:40Z</time>
      </trkpt>
      <trkpt lat="46.34861" lon="6.72541">
        <ele>1701.9513</ele>
        <time>2014-08-27T15:53:45Z</time>
      </trkpt>
      <trkpt lat="46.34861" lon="6.72541">
        <ele>1701.9513</ele>
        <time>2014-08-27T15:53:50Z</time>
      </trkpt>
      <trkpt lat="46.3486" lon="6.72544">
        <ele>1701.9513</ele>
        <time>2014-08-27T15:53:55Z</time>
      </trkpt>
      <trkpt lat="46.3486" lon="6.72548">
        <ele>1705.6611</ele>
        <time>2014-08-27T15:54:00Z</time>
      </trkpt>
      <trkpt lat="46.34861" lon="6.72552">
        <ele>1705.6611</ele>
        <time>2014-08-27T15:54:05Z</time>
      </trkpt>
      <trkpt lat="46.34861" lon="6.72555">
        <ele>1705.6611</ele>
        <time>2014-08-27T15:54:10Z</time>
      </trkpt>
      <trkpt lat="46.34862" lon="6.72557">
        <ele>1705.6611</ele>
        <time>2014-08-27T15:54:15Z</time>
      </trkpt>
      <trkpt lat="46.34863" lon="6.72561">
        <ele>1709.3242</ele>
        <time>2014-08-27T15:54:20Z</time>
      </trkpt>
      <trkpt lat="46.34863" lon="6.72565">
        <ele>1709.3242</ele>
        <time>2014-08-27T15:54:25Z</time>
      </trkpt>
      <trkpt lat="46.34863" lon="6.72566">
        <ele>1709.3242</ele>
        <time>2014-08-27T15:54:30Z</time>
      </trkpt>
      <trkpt lat="46.34865" lon="6.72568">
        <ele>1709.3242</ele>
        <time>2014-08-27T15:54:35Z</time>
      </trkpt>
      <trkpt lat="46.34867" lon="6.72567">
        <ele>1709.3242</ele>
        <time>2014-08-27T15:54:40Z</time>
      </trkpt>
      <trkpt lat="46.34868" lon="6.72569">
        <ele>1712.1869</ele>
        <time>2014-08-27T15:54:45Z</time>
      </trkpt>
      <trkpt lat="46.34869" lon="6.72573">
        <ele>1712.1869</ele>
        <time>2014-08-27T15:54:50Z</time>
      </trkpt>
      <trkpt lat="46.34868" lon="6.72577">
        <ele>1712.1869</ele>
        <time>2014-08-27T15:54:55Z</time>
      </trkpt>
      <trkpt lat="46.34869" lon="6.7258">
        <ele>1712.1869</ele>
        <time>2014-08-27T15:55:00Z</time>
      </trkpt>
      <trkpt lat="46.34869" lon="6.72582">
        <ele>1714.865</ele>
        <time>2014-08-27T15:55:05Z</time>
      </trkpt>
      <trkpt lat="46.34868" lon="6.72586">
        <ele>1714.865</ele>
        <time>2014-08-27T15:55:10Z</time>
      </trkpt>
      <trkpt lat="46.34867" lon="6.72589">
        <ele>1714.865</ele>
        <time>2014-08-27T15:55:15Z</time>
      </trkpt>
      <trkpt lat="46.34867" lon="6.72595">
        <ele>1714.865</ele>
        <time>2014-08-27T15:55:20Z</time>
      </trkpt>
      <trkpt lat="46.34867" lon="6.72595">
        <ele>1717.4976</ele>
        <time>2014-08-27T15:55:25Z</time>
      </trkpt>
      <trkpt lat="46.34868" lon="6.72599">
        <ele>1717.4976</ele>
        <time>2014-08-27T15:55:30Z</time>
      </trkpt>
      <trkpt lat="46.34868" lon="6.72603">
        <ele>1717.4976</ele>
        <time>2014-08-27T15:55:35Z</time>
      </trkpt>
      <trkpt lat="46.34868" lon="6.72605">
        <ele>1717.4976</ele>
        <time>2014-08-27T15:55:40Z</time>
      </trkpt>
      <trkpt lat="46.34868" lon="6.72605">
        <ele>1717.4976</ele>
        <time>2014-08-27T15:55:45Z</time>
      </trkpt>
      <trkpt lat="46.34869" lon="6.72615">
        <ele>1720.3579</ele>
        <time>2014-08-27T15:55:50Z</time>
      </trkpt>
      <trkpt lat="46.34871" lon="6.72623">
        <ele>1720.3579</ele>
        <time>2014-08-27T15:55:55Z</time>
      </trkpt>
      <trkpt lat="46.34871" lon="6.72625">
        <ele>1720.3579</ele>
        <time>2014-08-27T15:56:00Z</time>
      </trkpt>
      <trkpt lat="46.34874" lon="6.7263">
        <ele>1723.382</ele>
        <time>2014-08-27T15:56:05Z</time>
      </trkpt>
      <trkpt lat="46.34874" lon="6.72631">
        <ele>1723.382</ele>
        <time>2014-08-27T15:56:10Z</time>
      </trkpt>
      <trkpt lat="46.34874" lon="6.72638">
        <ele>1723.382</ele>
        <time>2014-08-27T15:56:15Z</time>
      </trkpt>
      <trkpt lat="46.34876" lon="6.72645">
        <ele>1726.2074</ele>
        <time>2014-08-27T15:56:20Z</time>
      </trkpt>
      <trkpt lat="46.34877" lon="6.72648">
        <ele>1726.2074</ele>
        <time>2014-08-27T15:56:25Z</time>
      </trkpt>
      <trkpt lat="46.34877" lon="6.72648">
        <ele>1726.2074</ele>
        <time>2014-08-27T15:56:30Z</time>
      </trkpt>
      <trkpt lat="46.34878" lon="6.7265">
        <ele>1726.2074</ele>
        <time>2014-08-27T15:57:35Z</time>
      </trkpt>
      <trkpt lat="46.34878" lon="6.7265">
        <ele>1726.2074</ele>
        <time>2014-08-27T15:57:40Z</time>
      </trkpt>
      <trkpt lat="46.34879" lon="6.72651">
        <ele>1726.2074</ele>
        <time>2014-08-27T15:57:45Z</time>
      </trkpt>
      <trkpt lat="46.3488" lon="6.72656">
        <ele>1726.2074</ele>
        <time>2014-08-27T15:57:50Z</time>
      </trkpt>
      <trkpt lat="46.3488" lon="6.72656">
        <ele>1726.2074</ele>
        <time>2014-08-27T15:57:55Z</time>
      </trkpt>
      <trkpt lat="46.34882" lon="6.72663">
        <ele>1729.0906</ele>
        <time>2014-08-27T15:58:05Z</time>
      </trkpt>
      <trkpt lat="46.34882" lon="6.72663">
        <ele>1729.0906</ele>
        <time>2014-08-27T15:58:10Z</time>
      </trkpt>
      <trkpt lat="46.34884" lon="6.72669">
        <ele>1729.0906</ele>
        <time>2014-08-27T15:58:15Z</time>
      </trkpt>
      <trkpt lat="46.34886" lon="6.72674">
        <ele>1729.0906</ele>
        <time>2014-08-27T15:58:20Z</time>
      </trkpt>
      <trkpt lat="46.34887" lon="6.72677">
        <ele>1731.62</ele>
        <time>2014-08-27T15:58:25Z</time>
      </trkpt>
      <trkpt lat="46.34887" lon="6.72678">
        <ele>1731.62</ele>
        <time>2014-08-27T15:58:30Z</time>
      </trkpt>
      <trkpt lat="46.34888" lon="6.72679">
        <ele>1731.62</ele>
        <time>2014-08-27T15:58:35Z</time>
      </trkpt>
      <trkpt lat="46.34888" lon="6.72683">
        <ele>1731.62</ele>
        <time>2014-08-27T15:58:40Z</time>
      </trkpt>
      <trkpt lat="46.34889" lon="6.72686">
        <ele>1731.62</ele>
        <time>2014-08-27T15:58:45Z</time>
      </trkpt>
      <trkpt lat="46.3489" lon="6.72688">
        <ele>1731.62</ele>
        <time>2014-08-27T15:58:50Z</time>
      </trkpt>
      <trkpt lat="46.34889" lon="6.7269">
        <ele>1734.2087</ele>
        <time>2014-08-27T15:58:55Z</time>
      </trkpt>
      <trkpt lat="46.34888" lon="6.72691">
        <ele>1734.2087</ele>
        <time>2014-08-27T15:59:00Z</time>
      </trkpt>
      <trkpt lat="46.3489" lon="6.72694">
        <ele>1734.2087</ele>
        <time>2014-08-27T15:59:05Z</time>
      </trkpt>
      <trkpt lat="46.34892" lon="6.72698">
        <ele>1734.2087</ele>
        <time>2014-08-27T15:59:10Z</time>
      </trkpt>
      <trkpt lat="46.34892" lon="6.72701">
        <ele>1734.2087</ele>
        <time>2014-08-27T15:59:15Z</time>
      </trkpt>
      <trkpt lat="46.34891" lon="6.72704">
        <ele>1737.0953</ele>
        <time>2014-08-27T15:59:20Z</time>
      </trkpt>
      <trkpt lat="46.34891" lon="6.72707">
        <ele>1737.0953</ele>
        <time>2014-08-27T15:59:25Z</time>
      </trkpt>
      <trkpt lat="46.34892" lon="6.72713">
        <ele>1737.0953</ele>
        <time>2014-08-27T15:59:30Z</time>
      </trkpt>
      <trkpt lat="46.34892" lon="6.72718">
        <ele>1739.8083</ele>
        <time>2014-08-27T15:59:35Z</time>
      </trkpt>
      <trkpt lat="46.34893" lon="6.72721">
        <ele>1739.8083</ele>
        <time>2014-08-27T15:59:40Z</time>
      </trkpt>
      <trkpt lat="46.34894" lon="6.72722">
        <ele>1739.8083</ele>
        <time>2014-08-27T15:59:45Z</time>
      </trkpt>
      <trkpt lat="46.34895" lon="6.72723">
        <ele>1739.8083</ele>
        <time>2014-08-27T15:59:50Z</time>
      </trkpt>
      <trkpt lat="46.34898" lon="6.72727">
        <ele>1742.6901</ele>
        <time>2014-08-27T15:59:55Z</time>
      </trkpt>
      <trkpt lat="46.34898" lon="6.72727">
        <ele>1742.6901</ele>
        <time>2014-08-27T16:00:00Z</time>
      </trkpt>
      <trkpt lat="46.34899" lon="6.7273">
        <ele>1742.6901</ele>
        <time>2014-08-27T16:00:45Z</time>
      </trkpt>
      <trkpt lat="46.34899" lon="6.7273">
        <ele>1742.6901</ele>
        <time>2014-08-27T16:00:50Z</time>
      </trkpt>
      <trkpt lat="46.34903" lon="6.72736">
        <ele>1742.6901</ele>
        <time>2014-08-27T16:00:55Z</time>
      </trkpt>
      <trkpt lat="46.34903" lon="6.72736">
        <ele>1742.6901</ele>
        <time>2014-08-27T16:01:00Z</time>
      </trkpt>
      <trkpt lat="46.34903" lon="6.72736">
        <ele>1742.6901</ele>
        <time>2014-08-27T16:01:05Z</time>
      </trkpt>
      <trkpt lat="46.34904" lon="6.72737">
        <ele>1742.6901</ele>
        <time>2014-08-27T16:01:10Z</time>
      </trkpt>
      <trkpt lat="46.34909" lon="6.72744">
        <ele>1746.7922</ele>
        <time>2014-08-27T16:01:15Z</time>
      </trkpt>
      <trkpt lat="46.34909" lon="6.72744">
        <ele>1746.7922</ele>
        <time>2014-08-27T16:01:20Z</time>
      </trkpt>
      <trkpt lat="46.3491" lon="6.72745">
        <ele>1746.7922</ele>
        <time>2014-08-27T16:01:30Z</time>
      </trkpt>
      <trkpt lat="46.34911" lon="6.72749">
        <ele>1746.7922</ele>
        <time>2014-08-27T16:01:35Z</time>
      </trkpt>
      <trkpt lat="46.34911" lon="6.72749">
        <ele>1746.7922</ele>
        <time>2014-08-27T16:01:40Z</time>
      </trkpt>
      <trkpt lat="46.34914" lon="6.72753">
        <ele>1746.7922</ele>
        <time>2014-08-27T16:01:50Z</time>
      </trkpt>
      <trkpt lat="46.34915" lon="6.72758">
        <ele>1750.8523</ele>
        <time>2014-08-27T16:01:55Z</time>
      </trkpt>
      <trkpt lat="46.34915" lon="6.72758">
        <ele>1750.8523</ele>
        <time>2014-08-27T16:02:00Z</time>
      </trkpt>
      <trkpt lat="46.34916" lon="6.72759">
        <ele>1750.8523</ele>
        <time>2014-08-27T16:02:20Z</time>
      </trkpt>
      <trkpt lat="46.34917" lon="6.72759">
        <ele>1750.8523</ele>
        <time>2014-08-27T16:02:25Z</time>
      </trkpt>
      <trkpt lat="46.34921" lon="6.72764">
        <ele>1750.8523</ele>
        <time>2014-08-27T16:03:20Z</time>
      </trkpt>
      <trkpt lat="46.34921" lon="6.72764">
        <ele>1750.8523</ele>
        <time>2014-08-27T16:03:25Z</time>
      </trkpt>
      <trkpt lat="46.34922" lon="6.72764">
        <ele>1750.8523</ele>
        <time>2014-08-27T16:03:30Z</time>
      </trkpt>
      <trkpt lat="46.34923" lon="6.72764">
        <ele>1755.1853</ele>
        <time>2014-08-27T16:03:35Z</time>
      </trkpt>
      <trkpt lat="46.34923" lon="6.72764">
        <ele>1755.1853</ele>
        <time>2014-08-27T16:03:40Z</time>
      </trkpt>
      <trkpt lat="46.34925" lon="6.72766">
        <ele>1755.1853</ele>
        <time>2014-08-27T16:03:45Z</time>
      </trkpt>
      <trkpt lat="46.34927" lon="6.72771">
        <ele>1755.1853</ele>
        <time>2014-08-27T16:03:50Z</time>
      </trkpt>
      <trkpt lat="46.34927" lon="6.72771">
        <ele>1755.1853</ele>
        <time>2014-08-27T16:03:55Z</time>
      </trkpt>
      <trkpt lat="46.34928" lon="6.72774">
        <ele>1755.1853</ele>
        <time>2014-08-27T16:04:05Z</time>
      </trkpt>
      <trkpt lat="46.34929" lon="6.72776">
        <ele>1759.2034</ele>
        <time>2014-08-27T16:04:10Z</time>
      </trkpt>
      <trkpt lat="46.34929" lon="6.72776">
        <ele>1759.2034</ele>
        <time>2014-08-27T16:04:15Z</time>
      </trkpt>
      <trkpt lat="46.34931" lon="6.72781">
        <ele>1759.2034</ele>
        <time>2014-08-27T16:04:25Z</time>
      </trkpt>
      <trkpt lat="46.34934" lon="6.72785">
        <ele>1759.2034</ele>
        <time>2014-08-27T16:04:30Z</time>
      </trkpt>
      <trkpt lat="46.34935" lon="6.7279">
        <ele>1763.1123</ele>
        <time>2014-08-27T16:04:35Z</time>
      </trkpt>
      <trkpt lat="46.34936" lon="6.72795">
        <ele>1763.1123</ele>
        <time>2014-08-27T16:04:40Z</time>
      </trkpt>
      <trkpt lat="46.34937" lon="6.72799">
        <ele>1763.1123</ele>
        <time>2014-08-27T16:04:45Z</time>
      </trkpt>
      <trkpt lat="46.34938" lon="6.72801">
        <ele>1763.1123</ele>
        <time>2014-08-27T16:04:50Z</time>
      </trkpt>
      <trkpt lat="46.34938" lon="6.72804">
        <ele>1766.8008</ele>
        <time>2014-08-27T16:04:55Z</time>
      </trkpt>
      <trkpt lat="46.34938" lon="6.72807">
        <ele>1766.8008</ele>
        <time>2014-08-27T16:05:00Z</time>
      </trkpt>
      <trkpt lat="46.34938" lon="6.72808">
        <ele>1766.8008</ele>
        <time>2014-08-27T16:05:05Z</time>
      </trkpt>
      <trkpt lat="46.34939" lon="6.72811">
        <ele>1766.8008</ele>
        <time>2014-08-27T16:05:10Z</time>
      </trkpt>
      <trkpt lat="46.34941" lon="6.72813">
        <ele>1766.8008</ele>
        <time>2014-08-27T16:05:15Z</time>
      </trkpt>
      <trkpt lat="46.34943" lon="6.72815">
        <ele>1769.8635</ele>
        <time>2014-08-27T16:05:20Z</time>
      </trkpt>
      <trkpt lat="46.34943" lon="6.72815">
        <ele>1769.8635</ele>
        <time>2014-08-27T16:05:25Z</time>
      </trkpt>
      <trkpt lat="46.34943" lon="6.72815">
        <ele>1769.8635</ele>
        <time>2014-08-27T16:05:30Z</time>
      </trkpt>
      <trkpt lat="46.34943" lon="6.72814">
        <ele>1769.8635</ele>
        <time>2014-08-27T16:05:55Z</time>
      </trkpt>
      <trkpt lat="46.34945" lon="6.72808">
        <ele>1769.8635</ele>
        <time>2014-08-27T16:06:00Z</time>
      </trkpt>
      <trkpt lat="46.34945" lon="6.72808">
        <ele>1769.8635</ele>
        <time>2014-08-27T16:06:05Z</time>
      </trkpt>
      <trkpt lat="46.34946" lon="6.72808">
        <ele>1769.8635</ele>
        <time>2014-08-27T16:06:15Z</time>
      </trkpt>
      <trkpt lat="46.34948" lon="6.72805">
        <ele>1773.6566</ele>
        <time>2014-08-27T16:06:20Z</time>
      </trkpt>
      <trkpt lat="46.34948" lon="6.72805">
        <ele>1773.6566</ele>
        <time>2014-08-27T16:06:25Z</time>
      </trkpt>
      <trkpt lat="46.34949" lon="6.72803">
        <ele>1773.6566</ele>
        <time>2014-08-27T16:06:35Z</time>
      </trkpt>
      <trkpt lat="46.34951" lon="6.72797">
        <ele>1773.6566</ele>
        <time>2014-08-27T16:06:40Z</time>
      </trkpt>
      <trkpt lat="46.34953" lon="6.72794">
        <ele>1773.6566</ele>
        <time>2014-08-27T16:06:45Z</time>
      </trkpt>
      <trkpt lat="46.34953" lon="6.72794">
        <ele>1773.6566</ele>
        <time>2014-08-27T16:06:50Z</time>
      </trkpt>
      <trkpt lat="46.34955" lon="6.7279">
        <ele>1777.9213</ele>
        <time>2014-08-27T16:07:00Z</time>
      </trkpt>
      <trkpt lat="46.34955" lon="6.7279">
        <ele>1777.9213</ele>
        <time>2014-08-27T16:07:05Z</time>
      </trkpt>
      <trkpt lat="46.34955" lon="6.72788">
        <ele>1777.9213</ele>
        <time>2014-08-27T16:07:15Z</time>
      </trkpt>
      <trkpt lat="46.34954" lon="6.7278">
        <ele>1777.9213</ele>
        <time>2014-08-27T16:07:20Z</time>
      </trkpt>
      <trkpt lat="46.34954" lon="6.72778">
        <ele>1777.9213</ele>
        <time>2014-08-27T16:07:25Z</time>
      </trkpt>
      <trkpt lat="46.34955" lon="6.72777">
        <ele>1782.4312</ele>
        <time>2014-08-27T16:07:30Z</time>
      </trkpt>
      <trkpt lat="46.34956" lon="6.72778">
        <ele>1782.4312</ele>
        <time>2014-08-27T16:07:40Z</time>
      </trkpt>
      <trkpt lat="46.34956" lon="6.72778">
        <ele>1782.4312</ele>
        <time>2014-08-27T16:07:45Z</time>
      </trkpt>
      <trkpt lat="46.3496" lon="6.72774">
        <ele>1782.4312</ele>
        <time>2014-08-27T16:07:50Z</time>
      </trkpt>
      <trkpt lat="46.34963" lon="6.72772">
        <ele>1782.4312</ele>
        <time>2014-08-27T16:07:55Z</time>
      </trkpt>
      <trkpt lat="46.34964" lon="6.72772">
        <ele>1786.4285</ele>
        <time>2014-08-27T16:08:00Z</time>
      </trkpt>
      <trkpt lat="46.34965" lon="6.72774">
        <ele>1786.4285</ele>
        <time>2014-08-27T16:08:05Z</time>
      </trkpt>
      <trkpt lat="46.34965" lon="6.72774">
        <ele>1786.4285</ele>
        <time>2014-08-27T16:08:10Z</time>
      </trkpt>
      <trkpt lat="46.34964" lon="6.72773">
        <ele>1786.4285</ele>
        <time>2014-08-27T16:08:15Z</time>
      </trkpt>
      <trkpt lat="46.34964" lon="6.72773">
        <ele>1786.4285</ele>
        <time>2014-08-27T16:08:20Z</time>
      </trkpt>
      <trkpt lat="46.34964" lon="6.72774">
        <ele>1786.4285</ele>
        <time>2014-08-27T16:09:00Z</time>
      </trkpt>
      <trkpt lat="46.34965" lon="6.72774">
        <ele>1786.4285</ele>
        <time>2014-08-27T16:09:05Z</time>
      </trkpt>
      <trkpt lat="46.34964" lon="6.72773">
        <ele>1786.4285</ele>
        <time>2014-08-27T16:09:10Z</time>
      </trkpt>
      <trkpt lat="46.34965" lon="6.72772">
        <ele>1786.4285</ele>
        <time>2014-08-27T16:09:15Z</time>
      </trkpt>
      <trkpt lat="46.34965" lon="6.72769">
        <ele>1786.4285</ele>
        <time>2014-08-27T16:09:20Z</time>
      </trkpt>
      <trkpt lat="46.34964" lon="6.72765">
        <ele>1790.8842</ele>
        <time>2014-08-27T16:09:25Z</time>
      </trkpt>
      <trkpt lat="46.34963" lon="6.7276">
        <ele>1790.8842</ele>
        <time>2014-08-27T16:09:30Z</time>
      </trkpt>
      <trkpt lat="46.34963" lon="6.72757">
        <ele>1790.8842</ele>
        <time>2014-08-27T16:09:35Z</time>
      </trkpt>
      <trkpt lat="46.34964" lon="6.72755">
        <ele>1790.8842</ele>
        <time>2014-08-27T16:09:40Z</time>
      </trkpt>
      <trkpt lat="46.34965" lon="6.72753">
        <ele>1795.1117</ele>
        <time>2014-08-27T16:09:45Z</time>
      </trkpt>
      <trkpt lat="46.34964" lon="6.72753">
        <ele>1795.1117</ele>
        <time>2014-08-27T16:09:50Z</time>
      </trkpt>
      <trkpt lat="46.34965" lon="6.72751">
        <ele>1795.1117</ele>
        <time>2014-08-27T16:09:55Z</time>
      </trkpt>
      <trkpt lat="46.34965" lon="6.72747">
        <ele>1795.1117</ele>
        <time>2014-08-27T16:10:00Z</time>
      </trkpt>
      <trkpt lat="46.34966" lon="6.72746">
        <ele>1795.1117</ele>
        <time>2014-08-27T16:10:05Z</time>
      </trkpt>
      <trkpt lat="46.34968" lon="6.72745">
        <ele>1795.1117</ele>
        <time>2014-08-27T16:10:10Z</time>
      </trkpt>
      <trkpt lat="46.3497" lon="6.72742">
        <ele>1799.0664</ele>
        <time>2014-08-27T16:10:15Z</time>
      </trkpt>
      <trkpt lat="46.3497" lon="6.7274">
        <ele>1799.0664</ele>
        <time>2014-08-27T16:10:20Z</time>
      </trkpt>
      <trkpt lat="46.3497" lon="6.72737">
        <ele>1799.0664</ele>
        <time>2014-08-27T16:10:25Z</time>
      </trkpt>
      <trkpt lat="46.34971" lon="6.72734">
        <ele>1799.0664</ele>
        <time>2014-08-27T16:10:30Z</time>
      </trkpt>
      <trkpt lat="46.34971" lon="6.72733">
        <ele>1799.0664</ele>
        <time>2014-08-27T16:10:35Z</time>
      </trkpt>
      <trkpt lat="46.34971" lon="6.72734">
        <ele>1799.0664</ele>
        <time>2014-08-27T16:10:40Z</time>
      </trkpt>
      <trkpt lat="46.34971" lon="6.72734">
        <ele>1799.0664</ele>
        <time>2014-08-27T16:10:45Z</time>
      </trkpt>
      <trkpt lat="46.34974" lon="6.72731">
        <ele>1803.6594</ele>
        <time>2014-08-27T16:11:45Z</time>
      </trkpt>
      <trkpt lat="46.34974" lon="6.72729">
        <ele>1803.6594</ele>
        <time>2014-08-27T16:11:50Z</time>
      </trkpt>
      <trkpt lat="46.34974" lon="6.72725">
        <ele>1803.6594</ele>
        <time>2014-08-27T16:11:55Z</time>
      </trkpt>
      <trkpt lat="46.34974" lon="6.72725">
        <ele>1803.6594</ele>
        <time>2014-08-27T16:12:00Z</time>
      </trkpt>
      <trkpt lat="46.34975" lon="6.72724">
        <ele>1803.6594</ele>
        <time>2014-08-27T16:12:15Z</time>
      </trkpt>
      <trkpt lat="46.34976" lon="6.72723">
        <ele>1803.6594</ele>
        <time>2014-08-27T16:12:20Z</time>
      </trkpt>
      <trkpt lat="46.34976" lon="6.72723">
        <ele>1803.6594</ele>
        <time>2014-08-27T16:12:25Z</time>
      </trkpt>
      <trkpt lat="46.34982" lon="6.72707">
        <ele>1808.263</ele>
        <time>2014-08-27T16:12:45Z</time>
      </trkpt>
      <trkpt lat="46.34984" lon="6.72697">
        <ele>1808.263</ele>
        <time>2014-08-27T16:12:50Z</time>
      </trkpt>
      <trkpt lat="46.34985" lon="6.72693">
        <ele>1812.4829</ele>
        <time>2014-08-27T16:12:55Z</time>
      </trkpt>
      <trkpt lat="46.34985" lon="6.72692">
        <ele>1812.4829</ele>
        <time>2014-08-27T16:13:00Z</time>
      </trkpt>
      <trkpt lat="46.34986" lon="6.72691">
        <ele>1812.4829</ele>
        <time>2014-08-27T16:13:05Z</time>
      </trkpt>
      <trkpt lat="46.34987" lon="6.7269">
        <ele>1812.4829</ele>
        <time>2014-08-27T16:13:10Z</time>
      </trkpt>
      <trkpt lat="46.34988" lon="6.72686">
        <ele>1812.4829</ele>
        <time>2014-08-27T16:13:15Z</time>
      </trkpt>
      <trkpt lat="46.34986" lon="6.72684">
        <ele>1812.4829</ele>
        <time>2014-08-27T16:13:20Z</time>
      </trkpt>
      <trkpt lat="46.34986" lon="6.72684">
        <ele>1812.4829</ele>
        <time>2014-08-27T16:13:25Z</time>
      </trkpt>
      <trkpt lat="46.34985" lon="6.72684">
        <ele>1816.6041</ele>
        <time>2014-08-27T16:13:30Z</time>
      </trkpt>
      <trkpt lat="46.34982" lon="6.72685">
        <ele>1816.6041</ele>
        <time>2014-08-27T16:13:35Z</time>
      </trkpt>
      <trkpt lat="46.3498" lon="6.72687">
        <ele>1816.6041</ele>
        <time>2014-08-27T16:13:40Z</time>
      </trkpt>
      <trkpt lat="46.34978" lon="6.72688">
        <ele>1816.6041</ele>
        <time>2014-08-27T16:13:45Z</time>
      </trkpt>
      <trkpt lat="46.34978" lon="6.72688">
        <ele>1816.6041</ele>
        <time>2014-08-27T16:13:50Z</time>
      </trkpt>
      <trkpt lat="46.34978" lon="6.72686">
        <ele>1816.6041</ele>
        <time>2014-08-27T16:13:55Z</time>
      </trkpt>
      <trkpt lat="46.3498" lon="6.7268">
        <ele>1820.2134</ele>
        <time>2014-08-27T16:14:00Z</time>
      </trkpt>
      <trkpt lat="46.34981" lon="6.72679">
        <ele>1820.2134</ele>
        <time>2014-08-27T16:14:05Z</time>
      </trkpt>
      <trkpt lat="46.34982" lon="6.72676">
        <ele>1820.2134</ele>
        <time>2014-08-27T16:14:10Z</time>
      </trkpt>
      <trkpt lat="46.34982" lon="6.72674">
        <ele>1820.2134</ele>
        <time>2014-08-27T16:14:15Z</time>
      </trkpt>
      <trkpt lat="46.34984" lon="6.72672">
        <ele>1820.2134</ele>
        <time>2014-08-27T16:14:20Z</time>
      </trkpt>
      <trkpt lat="46.34985" lon="6.72672">
        <ele>1820.2134</ele>
        <time>2014-08-27T16:14:25Z</time>
      </trkpt>
      <trkpt lat="46.34986" lon="6.72671">
        <ele>1823.4482</ele>
        <time>2014-08-27T16:14:30Z</time>
      </trkpt>
      <trkpt lat="46.34988" lon="6.72668">
        <ele>1823.4482</ele>
        <time>2014-08-27T16:14:35Z</time>
      </trkpt>
      <trkpt lat="46.34989" lon="6.72668">
        <ele>1823.4482</ele>
        <time>2014-08-27T16:14:40Z</time>
      </trkpt>
      <trkpt lat="46.3499" lon="6.72665">
        <ele>1823.4482</ele>
        <time>2014-08-27T16:14:45Z</time>
      </trkpt>
      <trkpt lat="46.34991" lon="6.72662">
        <ele>1823.4482</ele>
        <time>2014-08-27T16:14:50Z</time>
      </trkpt>
      <trkpt lat="46.34992" lon="6.72662">
        <ele>1826.4952</ele>
        <time>2014-08-27T16:14:55Z</time>
      </trkpt>
      <trkpt lat="46.34993" lon="6.72661">
        <ele>1826.4952</ele>
        <time>2014-08-27T16:15:00Z</time>
      </trkpt>
      <trkpt lat="46.34994" lon="6.72659">
        <ele>1826.4952</ele>
        <time>2014-08-27T16:15:05Z</time>
      </trkpt>
      <trkpt lat="46.34994" lon="6.72658">
        <ele>1826.4952</ele>
        <time>2014-08-27T16:15:10Z</time>
      </trkpt>
      <trkpt lat="46.34993" lon="6.72657">
        <ele>1826.4952</ele>
        <time>2014-08-27T16:15:15Z</time>
      </trkpt>
      <trkpt lat="46.34994" lon="6.72654">
        <ele>1826.4952</ele>
        <time>2014-08-27T16:15:20Z</time>
      </trkpt>
      <trkpt lat="46.34995" lon="6.7265">
        <ele>1829.3977</ele>
        <time>2014-08-27T16:15:25Z</time>
      </trkpt>
      <trkpt lat="46.34995" lon="6.72645">
        <ele>1829.3977</ele>
        <time>2014-08-27T16:15:30Z</time>
      </trkpt>
      <trkpt lat="46.34995" lon="6.72643">
        <ele>1829.3977</ele>
        <time>2014-08-27T16:15:35Z</time>
      </trkpt>
      <trkpt lat="46.34996" lon="6.72643">
        <ele>1829.3977</ele>
        <time>2014-08-27T16:15:40Z</time>
      </trkpt>
      <trkpt lat="46.34997" lon="6.72641">
        <ele>1829.3977</ele>
        <time>2014-08-27T16:15:45Z</time>
      </trkpt>
      <trkpt lat="46.34999" lon="6.7264">
        <ele>1832.24</ele>
        <time>2014-08-27T16:15:50Z</time>
      </trkpt>
      <trkpt lat="46.35" lon="6.72638">
        <ele>1832.24</ele>
        <time>2014-08-27T16:15:55Z</time>
      </trkpt>
      <trkpt lat="46.34999" lon="6.72638">
        <ele>1832.24</ele>
        <time>2014-08-27T16:16:00Z</time>
      </trkpt>
      <trkpt lat="46.34998" lon="6.72637">
        <ele>1832.24</ele>
        <time>2014-08-27T16:16:05Z</time>
      </trkpt>
      <trkpt lat="46.34997" lon="6.72634">
        <ele>1832.24</ele>
        <time>2014-08-27T16:16:10Z</time>
      </trkpt>
      <trkpt lat="46.34996" lon="6.72632">
        <ele>1832.24</ele>
        <time>2014-08-27T16:16:15Z</time>
      </trkpt>
      <trkpt lat="46.34996" lon="6.7263">
        <ele>1834.8696</ele>
        <time>2014-08-27T16:16:20Z</time>
      </trkpt>
      <trkpt lat="46.34996" lon="6.7263">
        <ele>1834.8696</ele>
        <time>2014-08-27T16:16:25Z</time>
      </trkpt>
      <trkpt lat="46.34996" lon="6.7263">
        <ele>1834.8696</ele>
        <time>2014-08-27T16:16:30Z</time>
      </trkpt>
      <trkpt lat="46.34997" lon="6.7263">
        <ele>1834.8696</ele>
        <time>2014-08-27T16:16:35Z</time>
      </trkpt>
      <trkpt lat="46.35002" lon="6.7263">
        <ele>1834.8696</ele>
        <time>2014-08-27T16:16:40Z</time>
      </trkpt>
      <trkpt lat="46.35003" lon="6.7263">
        <ele>1834.8696</ele>
        <time>2014-08-27T16:16:45Z</time>
      </trkpt>
      <trkpt lat="46.35004" lon="6.72629">
        <ele>1834.8696</ele>
        <time>2014-08-27T16:16:50Z</time>
      </trkpt>
      <trkpt lat="46.35004" lon="6.7263">
        <ele>1837.3914</ele>
        <time>2014-08-27T16:16:55Z</time>
      </trkpt>
      <trkpt lat="46.35005" lon="6.72629">
        <ele>1837.3914</ele>
        <time>2014-08-27T16:17:00Z</time>
      </trkpt>
      <trkpt lat="46.35006" lon="6.72628">
        <ele>1837.3914</ele>
        <time>2014-08-27T16:17:05Z</time>
      </trkpt>
      <trkpt lat="46.35008" lon="6.72626">
        <ele>1837.3914</ele>
        <time>2014-08-27T16:17:10Z</time>
      </trkpt>
      <trkpt lat="46.35009" lon="6.72623">
        <ele>1837.3914</ele>
        <time>2014-08-27T16:17:15Z</time>
      </trkpt>
      <trkpt lat="46.3501" lon="6.72621">
        <ele>1837.3914</ele>
        <time>2014-08-27T16:17:20Z</time>
      </trkpt>
      <trkpt lat="46.3501" lon="6.7262">
        <ele>1839.888</ele>
        <time>2014-08-27T16:17:25Z</time>
      </trkpt>
      <trkpt lat="46.35009" lon="6.72621">
        <ele>1839.888</ele>
        <time>2014-08-27T16:17:30Z</time>
      </trkpt>
      <trkpt lat="46.35008" lon="6.72624">
        <ele>1839.888</ele>
        <time>2014-08-27T16:17:35Z</time>
      </trkpt>
      <trkpt lat="46.35009" lon="6.72626">
        <ele>1839.888</ele>
        <time>2014-08-27T16:17:40Z</time>
      </trkpt>
      <trkpt lat="46.35009" lon="6.72628">
        <ele>1839.888</ele>
        <time>2014-08-27T16:17:45Z</time>
      </trkpt>
      <trkpt lat="46.35011" lon="6.72628">
        <ele>1839.888</ele>
        <time>2014-08-27T16:17:50Z</time>
      </trkpt>
      <trkpt lat="46.35012" lon="6.72627">
        <ele>1842.0328</ele>
        <time>2014-08-27T16:17:55Z</time>
      </trkpt>
      <trkpt lat="46.35012" lon="6.72628">
        <ele>1842.0328</ele>
        <time>2014-08-27T16:18:00Z</time>
      </trkpt>
      <trkpt lat="46.35011" lon="6.72627">
        <ele>1842.0328</ele>
        <time>2014-08-27T16:18:05Z</time>
      </trkpt>
      <trkpt lat="46.35011" lon="6.72626">
        <ele>1842.0328</ele>
        <time>2014-08-27T16:18:10Z</time>
      </trkpt>
      <trkpt lat="46.35012" lon="6.72628">
        <ele>1842.0328</ele>
        <time>2014-08-27T16:18:15Z</time>
      </trkpt>
      <trkpt lat="46.35013" lon="6.72631">
        <ele>1842.0328</ele>
        <time>2014-08-27T16:18:20Z</time>
      </trkpt>
      <trkpt lat="46.35015" lon="6.72634">
        <ele>1842.0328</ele>
        <time>2014-08-27T16:18:25Z</time>
      </trkpt>
      <trkpt lat="46.35016" lon="6.72631">
        <ele>1843.899</ele>
        <time>2014-08-27T16:18:30Z</time>
      </trkpt>
      <trkpt lat="46.35017" lon="6.72629">
        <ele>1843.899</ele>
        <time>2014-08-27T16:18:35Z</time>
      </trkpt>
      <trkpt lat="46.35018" lon="6.72628">
        <ele>1843.899</ele>
        <time>2014-08-27T16:18:40Z</time>
      </trkpt>
      <trkpt lat="46.35019" lon="6.72628">
        <ele>1843.899</ele>
        <time>2014-08-27T16:18:45Z</time>
      </trkpt>
      <trkpt lat="46.35019" lon="6.72624">
        <ele>1843.899</ele>
        <time>2014-08-27T16:18:50Z</time>
      </trkpt>
      <trkpt lat="46.35021" lon="6.72622">
        <ele>1843.899</ele>
        <time>2014-08-27T16:18:55Z</time>
      </trkpt>
      <trkpt lat="46.35023" lon="6.7262">
        <ele>1845.9586</ele>
        <time>2014-08-27T16:19:00Z</time>
      </trkpt>
      <trkpt lat="46.35024" lon="6.7262">
        <ele>1845.9586</ele>
        <time>2014-08-27T16:19:05Z</time>
      </trkpt>
      <trkpt lat="46.35024" lon="6.72619">
        <ele>1845.9586</ele>
        <time>2014-08-27T16:19:10Z</time>
      </trkpt>
      <trkpt lat="46.35024" lon="6.72618">
        <ele>1845.9586</ele>
        <time>2014-08-27T16:19:15Z</time>
      </trkpt>
      <trkpt lat="46.35023" lon="6.72618">
        <ele>1845.9586</ele>
        <time>2014-08-27T16:19:20Z</time>
      </trkpt>
      <trkpt lat="46.35023" lon="6.72617">
        <ele>1845.9586</ele>
        <time>2014-08-27T16:19:25Z</time>
      </trkpt>
      <trkpt lat="46.35024" lon="6.72615">
        <ele>1845.9586</ele>
        <time>2014-08-27T16:19:30Z</time>
      </trkpt>
      <trkpt lat="46.35023" lon="6.72614">
        <ele>1845.9586</ele>
        <time>2014-08-27T16:19:35Z</time>
      </trkpt>
      <trkpt lat="46.35023" lon="6.72613">
        <ele>1845.9586</ele>
        <time>2014-08-27T16:19:40Z</time>
      </trkpt>
      <trkpt lat="46.35024" lon="6.72612">
        <ele>1845.9586</ele>
        <time>2014-08-27T16:19:45Z</time>
      </trkpt>
      <trkpt lat="46.35025" lon="6.7261">
        <ele>1848.389</ele>
        <time>2014-08-27T16:19:50Z</time>
      </trkpt>
      <trkpt lat="46.35025" lon="6.72609">
        <ele>1848.389</ele>
        <time>2014-08-27T16:19:55Z</time>
      </trkpt>
      <trkpt lat="46.35027" lon="6.72608">
        <ele>1848.389</ele>
        <time>2014-08-27T16:20:00Z</time>
      </trkpt>
      <trkpt lat="46.35029" lon="6.72607">
        <ele>1848.389</ele>
        <time>2014-08-27T16:20:05Z</time>
      </trkpt>
      <trkpt lat="46.35029" lon="6.72606">
        <ele>1848.389</ele>
        <time>2014-08-27T16:20:10Z</time>
      </trkpt>
      <trkpt lat="46.3503" lon="6.72604">
        <ele>1848.389</ele>
        <time>2014-08-27T16:20:15Z</time>
      </trkpt>
      <trkpt lat="46.35031" lon="6.72603">
        <ele>1848.389</ele>
        <time>2014-08-27T16:20:20Z</time>
      </trkpt>
      <trkpt lat="46.35033" lon="6.72604">
        <ele>1851.0079</ele>
        <time>2014-08-27T16:20:25Z</time>
      </trkpt>
      <trkpt lat="46.35033" lon="6.726">
        <ele>1851.0079</ele>
        <time>2014-08-27T16:20:30Z</time>
      </trkpt>
      <trkpt lat="46.35034" lon="6.72597">
        <ele>1851.0079</ele>
        <time>2014-08-27T16:20:35Z</time>
      </trkpt>
      <trkpt lat="46.35034" lon="6.72596">
        <ele>1851.0079</ele>
        <time>2014-08-27T16:20:40Z</time>
      </trkpt>
      <trkpt lat="46.35034" lon="6.72596">
        <ele>1851.0079</ele>
        <time>2014-08-27T16:20:45Z</time>
      </trkpt>
      <trkpt lat="46.35034" lon="6.72595">
        <ele>1851.0079</ele>
        <time>2014-08-27T16:20:50Z</time>
      </trkpt>
      <trkpt lat="46.35034" lon="6.72595">
        <ele>1851.0079</ele>
        <time>2014-08-27T16:20:55Z</time>
      </trkpt>
      <trkpt lat="46.35034" lon="6.72595">
        <ele>1851.0079</ele>
        <time>2014-08-27T16:21:00Z</time>
      </trkpt>
      <trkpt lat="46.35034" lon="6.72596">
        <ele>1851.0079</ele>
        <time>2014-08-27T16:21:05Z</time>
      </trkpt>
      <trkpt lat="46.35034" lon="6.72596">
        <ele>1851.0079</ele>
        <time>2014-08-27T16:21:10Z</time>
      </trkpt>
      <trkpt lat="46.35035" lon="6.72593">
        <ele>1854.0636</ele>
        <time>2014-08-27T16:21:15Z</time>
      </trkpt>
      <trkpt lat="46.35035" lon="6.7259">
        <ele>1854.0636</ele>
        <time>2014-08-27T16:21:20Z</time>
      </trkpt>
      <trkpt lat="46.35036" lon="6.72588">
        <ele>1854.0636</ele>
        <time>2014-08-27T16:21:25Z</time>
      </trkpt>
      <trkpt lat="46.35035" lon="6.72589">
        <ele>1854.0636</ele>
        <time>2014-08-27T16:21:30Z</time>
      </trkpt>
      <trkpt lat="46.35037" lon="6.72589">
        <ele>1854.0636</ele>
        <time>2014-08-27T16:21:35Z</time>
      </trkpt>
      <trkpt lat="46.35038" lon="6.72587">
        <ele>1854.0636</ele>
        <time>2014-08-27T16:21:40Z</time>
      </trkpt>
      <trkpt lat="46.35038" lon="6.72585">
        <ele>1854.0636</ele>
        <time>2014-08-27T16:21:45Z</time>
      </trkpt>
      <trkpt lat="46.35038" lon="6.72583">
        <ele>1856.8192</ele>
        <time>2014-08-27T16:21:50Z</time>
      </trkpt>
      <trkpt lat="46.35039" lon="6.7258">
        <ele>1856.8192</ele>
        <time>2014-08-27T16:21:55Z</time>
      </trkpt>
      <trkpt lat="46.35038" lon="6.72579">
        <ele>1856.8192</ele>
        <time>2014-08-27T16:22:00Z</time>
      </trkpt>
      <trkpt lat="46.35038" lon="6.72579">
        <ele>1856.8192</ele>
        <time>2014-08-27T16:22:05Z</time>
      </trkpt>
      <trkpt lat="46.35038" lon="6.72576">
        <ele>1856.8192</ele>
        <time>2014-08-27T16:22:10Z</time>
      </trkpt>
      <trkpt lat="46.3504" lon="6.72573">
        <ele>1856.8192</ele>
        <time>2014-08-27T16:22:15Z</time>
      </trkpt>
      <trkpt lat="46.35041" lon="6.7257">
        <ele>1859.3713</ele>
        <time>2014-08-27T16:22:20Z</time>
      </trkpt>
      <trkpt lat="46.35042" lon="6.72567">
        <ele>1859.3713</ele>
        <time>2014-08-27T16:22:25Z</time>
      </trkpt>
      <trkpt lat="46.35043" lon="6.72564">
        <ele>1859.3713</ele>
        <time>2014-08-27T16:22:30Z</time>
      </trkpt>
      <trkpt lat="46.35044" lon="6.72561">
        <ele>1859.3713</ele>
        <time>2014-08-27T16:22:35Z</time>
      </trkpt>
      <trkpt lat="46.35043" lon="6.7256">
        <ele>1859.3713</ele>
        <time>2014-08-27T16:22:40Z</time>
      </trkpt>
      <trkpt lat="46.35043" lon="6.72558">
        <ele>1859.3713</ele>
        <time>2014-08-27T16:22:45Z</time>
      </trkpt>
      <trkpt lat="46.35043" lon="6.72558">
        <ele>1862.026</ele>
        <time>2014-08-27T16:22:50Z</time>
      </trkpt>
      <trkpt lat="46.35043" lon="6.72558">
        <ele>1862.026</ele>
        <time>2014-08-27T16:22:55Z</time>
      </trkpt>
      <trkpt lat="46.35043" lon="6.72557">
        <ele>1862.026</ele>
        <time>2014-08-27T16:23:00Z</time>
      </trkpt>
      <trkpt lat="46.35042" lon="6.72556">
        <ele>1862.026</ele>
        <time>2014-08-27T16:23:05Z</time>
      </trkpt>
      <trkpt lat="46.35042" lon="6.72556">
        <ele>1862.026</ele>
        <time>2014-08-27T16:23:10Z</time>
      </trkpt>
      <trkpt lat="46.35042" lon="6.72556">
        <ele>1862.026</ele>
        <time>2014-08-27T16:23:15Z</time>
      </trkpt>
      <trkpt lat="46.35043" lon="6.72556">
        <ele>1862.026</ele>
        <time>2014-08-27T16:23:20Z</time>
      </trkpt>
      <trkpt lat="46.35043" lon="6.72557">
        <ele>1862.026</ele>
        <time>2014-08-27T16:23:25Z</time>
      </trkpt>
      <trkpt lat="46.35043" lon="6.72557">
        <ele>1862.026</ele>
        <time>2014-08-27T16:23:30Z</time>
      </trkpt>
      <trkpt lat="46.35043" lon="6.72555">
        <ele>1862.026</ele>
        <time>2014-08-27T16:23:35Z</time>
      </trkpt>
      <trkpt lat="46.35044" lon="6.72554">
        <ele>1862.026</ele>
        <time>2014-08-27T16:23:40Z</time>
      </trkpt>
      <trkpt lat="46.35045" lon="6.72551">
        <ele>1862.026</ele>
        <time>2014-08-27T16:23:45Z</time>
      </trkpt>
      <trkpt lat="46.35045" lon="6.72549">
        <ele>1864.4899</ele>
        <time>2014-08-27T16:23:50Z</time>
      </trkpt>
      <trkpt lat="46.35045" lon="6.72548">
        <ele>1864.4899</ele>
        <time>2014-08-27T16:23:55Z</time>
      </trkpt>
      <trkpt lat="46.35045" lon="6.72545">
        <ele>1864.4899</ele>
        <time>2014-08-27T16:24:00Z</time>
      </trkpt>
      <trkpt lat="46.35045" lon="6.72539">
        <ele>1864.4899</ele>
        <time>2014-08-27T16:24:05Z</time>
      </trkpt>
      <trkpt lat="46.35046" lon="6.72532">
        <ele>1866.838</ele>
        <time>2014-08-27T16:24:10Z</time>
      </trkpt>
      <trkpt lat="46.35048" lon="6.72527">
        <ele>1866.838</ele>
        <time>2014-08-27T16:24:15Z</time>
      </trkpt>
      <trkpt lat="46.35048" lon="6.72523">
        <ele>1866.838</ele>
        <time>2014-08-27T16:24:20Z</time>
      </trkpt>
      <trkpt lat="46.35048" lon="6.7252">
        <ele>1866.838</ele>
        <time>2014-08-27T16:24:25Z</time>
      </trkpt>
      <trkpt lat="46.35049" lon="6.72519">
        <ele>1869.0675</ele>
        <time>2014-08-27T16:24:30Z</time>
      </trkpt>
      <trkpt lat="46.35049" lon="6.72515">
        <ele>1869.0675</ele>
        <time>2014-08-27T16:24:35Z</time>
      </trkpt>
      <trkpt lat="46.3505" lon="6.72511">
        <ele>1869.0675</ele>
        <time>2014-08-27T16:24:40Z</time>
      </trkpt>
      <trkpt lat="46.3505" lon="6.72509">
        <ele>1869.0675</ele>
        <time>2014-08-27T16:24:45Z</time>
      </trkpt>
      <trkpt lat="46.35051" lon="6.72505">
        <ele>1871.2487</ele>
        <time>2014-08-27T16:24:50Z</time>
      </trkpt>
      <trkpt lat="46.35051" lon="6.72501">
        <ele>1871.2487</ele>
        <time>2014-08-27T16:24:55Z</time>
      </trkpt>
      <trkpt lat="46.35053" lon="6.72499">
        <ele>1871.2487</ele>
        <time>2014-08-27T16:25:00Z</time>
      </trkpt>
      <trkpt lat="46.35053" lon="6.72498">
        <ele>1871.2487</ele>
        <time>2014-08-27T16:25:05Z</time>
      </trkpt>
      <trkpt lat="46.35054" lon="6.72495">
        <ele>1871.2487</ele>
        <time>2014-08-27T16:25:10Z</time>
      </trkpt>
      <trkpt lat="46.35054" lon="6.72493">
        <ele>1873.4462</ele>
        <time>2014-08-27T16:25:15Z</time>
      </trkpt>
      <trkpt lat="46.35054" lon="6.72493">
        <ele>1873.4462</ele>
        <time>2014-08-27T16:25:20Z</time>
      </trkpt>
      <trkpt lat="46.35053" lon="6.72493">
        <ele>1873.4462</ele>
        <time>2014-08-27T16:25:25Z</time>
      </trkpt>
      <trkpt lat="46.35054" lon="6.72495">
        <ele>1873.4462</ele>
        <time>2014-08-27T16:25:30Z</time>
      </trkpt>
      <trkpt lat="46.35053" lon="6.72497">
        <ele>1873.4462</ele>
        <time>2014-08-27T16:25:35Z</time>
      </trkpt>
      <trkpt lat="46.35053" lon="6.72499">
        <ele>1873.4462</ele>
        <time>2014-08-27T16:25:40Z</time>
      </trkpt>
      <trkpt lat="46.35053" lon="6.72497">
        <ele>1873.4462</ele>
        <time>2014-08-27T16:25:45Z</time>
      </trkpt>
      <trkpt lat="46.35056" lon="6.72493">
        <ele>1875.187</ele>
        <time>2014-08-27T16:25:50Z</time>
      </trkpt>
      <trkpt lat="46.35056" lon="6.72493">
        <ele>1875.187</ele>
        <time>2014-08-27T16:25:55Z</time>
      </trkpt>
      <trkpt lat="46.35056" lon="6.72493">
        <ele>1875.187</ele>
        <time>2014-08-27T16:26:00Z</time>
      </trkpt>
      <trkpt lat="46.35058" lon="6.72489">
        <ele>1875.187</ele>
        <time>2014-08-27T16:26:05Z</time>
      </trkpt>
      <trkpt lat="46.35059" lon="6.72486">
        <ele>1875.187</ele>
        <time>2014-08-27T16:26:10Z</time>
      </trkpt>
      <trkpt lat="46.3506" lon="6.72485">
        <ele>1875.187</ele>
        <time>2014-08-27T16:26:15Z</time>
      </trkpt>
      <trkpt lat="46.35063" lon="6.72485">
        <ele>1876.884</ele>
        <time>2014-08-27T16:26:20Z</time>
      </trkpt>
      <trkpt lat="46.35063" lon="6.72487">
        <ele>1876.884</ele>
        <time>2014-08-27T16:26:25Z</time>
      </trkpt>
      <trkpt lat="46.35064" lon="6.72487">
        <ele>1876.884</ele>
        <time>2014-08-27T16:26:30Z</time>
      </trkpt>
      <trkpt lat="46.35066" lon="6.72486">
        <ele>1876.884</ele>
        <time>2014-08-27T16:26:35Z</time>
      </trkpt>
      <trkpt lat="46.35067" lon="6.72484">
        <ele>1876.884</ele>
        <time>2014-08-27T16:26:40Z</time>
      </trkpt>
      <trkpt lat="46.35068" lon="6.72484">
        <ele>1876.884</ele>
        <time>2014-08-27T16:26:45Z</time>
      </trkpt>
      <trkpt lat="46.35068" lon="6.72484">
        <ele>1876.884</ele>
        <time>2014-08-27T16:26:50Z</time>
      </trkpt>
      <trkpt lat="46.35068" lon="6.72483">
        <ele>1876.884</ele>
        <time>2014-08-27T16:26:55Z</time>
      </trkpt>
      <trkpt lat="46.35069" lon="6.72483">
        <ele>1876.884</ele>
        <time>2014-08-27T16:27:00Z</time>
      </trkpt>
      <trkpt lat="46.35069" lon="6.72482">
        <ele>1878.3151</ele>
        <time>2014-08-27T16:27:05Z</time>
      </trkpt>
      <trkpt lat="46.35069" lon="6.72482">
        <ele>1878.3151</ele>
        <time>2014-08-27T16:27:10Z</time>
      </trkpt>
      <trkpt lat="46.35069" lon="6.72485">
        <ele>1878.3151</ele>
        <time>2014-08-27T16:28:45Z</time>
      </trkpt>
      <trkpt lat="46.35069" lon="6.72485">
        <ele>1878.3151</ele>
        <time>2014-08-27T16:28:50Z</time>
      </trkpt>
      <trkpt lat="46.35068" lon="6.72491">
        <ele>1878.3151</ele>
        <time>2014-08-27T16:29:25Z</time>
      </trkpt>
      <trkpt lat="46.35069" lon="6.72492">
        <ele>1878.3151</ele>
        <time>2014-08-27T16:29:30Z</time>
      </trkpt>
      <trkpt lat="46.35069" lon="6.72494">
        <ele>1878.3151</ele>
        <time>2014-08-27T16:29:35Z</time>
      </trkpt>
      <trkpt lat="46.35069" lon="6.72494">
        <ele>1878.3151</ele>
        <time>2014-08-27T16:29:40Z</time>
      </trkpt>
      <trkpt lat="46.3507" lon="6.72496">
        <ele>1880.5713</ele>
        <time>2014-08-27T16:29:45Z</time>
      </trkpt>
      <trkpt lat="46.3507" lon="6.72496">
        <ele>1880.5713</ele>
        <time>2014-08-27T16:29:50Z</time>
      </trkpt>
      <trkpt lat="46.3507" lon="6.72497">
        <ele>1880.5713</ele>
        <time>2014-08-27T16:29:55Z</time>
      </trkpt>
      <trkpt lat="46.3507" lon="6.72497">
        <ele>1880.5713</ele>
        <time>2014-08-27T16:30:00Z</time>
      </trkpt>
      <trkpt lat="46.35071" lon="6.72498">
        <ele>1880.5713</ele>
        <time>2014-08-27T16:30:10Z</time>
      </trkpt>
      <trkpt lat="46.35071" lon="6.72498">
        <ele>1880.5713</ele>
        <time>2014-08-27T16:30:15Z</time>
      </trkpt>
      <trkpt lat="46.35071" lon="6.72498">
        <ele>1880.5713</ele>
        <time>2014-08-27T16:30:20Z</time>
      </trkpt>
      <trkpt lat="46.35074" lon="6.72499">
        <ele>1880.5713</ele>
        <time>2014-08-27T16:30:30Z</time>
      </trkpt>
      <trkpt lat="46.35074" lon="6.72499">
        <ele>1880.5713</ele>
        <time>2014-08-27T16:30:35Z</time>
      </trkpt>
      <trkpt lat="46.35074" lon="6.72499">
        <ele>1880.5713</ele>
        <time>2014-08-27T16:31:10Z</time>
      </trkpt>
      <trkpt lat="46.35075" lon="6.72499">
        <ele>1880.5713</ele>
        <time>2014-08-27T16:31:15Z</time>
      </trkpt>
      <trkpt lat="46.35077" lon="6.72499">
        <ele>1880.5713</ele>
        <time>2014-08-27T16:31:20Z</time>
      </trkpt>
      <trkpt lat="46.35079" lon="6.72497">
        <ele>1883.7971</ele>
        <time>2014-08-27T16:31:25Z</time>
      </trkpt>
      <trkpt lat="46.3508" lon="6.72498">
        <ele>1883.7971</ele>
        <time>2014-08-27T16:31:30Z</time>
      </trkpt>
      <trkpt lat="46.35083" lon="6.72499">
        <ele>1883.7971</ele>
        <time>2014-08-27T16:31:35Z</time>
      </trkpt>
      <trkpt lat="46.35085" lon="6.72498">
        <ele>1883.7971</ele>
        <time>2014-08-27T16:31:40Z</time>
      </trkpt>
      <trkpt lat="46.35087" lon="6.72496">
        <ele>1883.7971</ele>
        <time>2014-08-27T16:31:45Z</time>
      </trkpt>
      <trkpt lat="46.35089" lon="6.72495">
        <ele>1886.9703</ele>
        <time>2014-08-27T16:31:50Z</time>
      </trkpt>
      <trkpt lat="46.35091" lon="6.72493">
        <ele>1886.9703</ele>
        <time>2014-08-27T16:31:55Z</time>
      </trkpt>
      <trkpt lat="46.35092" lon="6.72492">
        <ele>1886.9703</ele>
        <time>2014-08-27T16:32:00Z</time>
      </trkpt>
      <trkpt lat="46.35094" lon="6.72495">
        <ele>1886.9703</ele>
        <time>2014-08-27T16:32:05Z</time>
      </trkpt>
      <trkpt lat="46.35094" lon="6.72497">
        <ele>1886.9703</ele>
        <time>2014-08-27T16:32:10Z</time>
      </trkpt>
      <trkpt lat="46.35094" lon="6.72498">
        <ele>1886.9703</ele>
        <time>2014-08-27T16:32:15Z</time>
      </trkpt>
      <trkpt lat="46.35095" lon="6.72501">
        <ele>1889.8359</ele>
        <time>2014-08-27T16:32:20Z</time>
      </trkpt>
      <trkpt lat="46.35098" lon="6.72502">
        <ele>1889.8359</ele>
        <time>2014-08-27T16:32:25Z</time>
      </trkpt>
      <trkpt lat="46.35098" lon="6.72503">
        <ele>1889.8359</ele>
        <time>2014-08-27T16:32:30Z</time>
      </trkpt>
      <trkpt lat="46.35099" lon="6.72506">
        <ele>1889.8359</ele>
        <time>2014-08-27T16:32:35Z</time>
      </trkpt>
      <trkpt lat="46.35098" lon="6.72508">
        <ele>1889.8359</ele>
        <time>2014-08-27T16:32:40Z</time>
      </trkpt>
      <trkpt lat="46.35098" lon="6.72511">
        <ele>1892.5042</ele>
        <time>2014-08-27T16:32:45Z</time>
      </trkpt>
      <trkpt lat="46.35098" lon="6.72512">
        <ele>1892.5042</ele>
        <time>2014-08-27T16:32:50Z</time>
      </trkpt>
      <trkpt lat="46.35099" lon="6.7251">
        <ele>1892.5042</ele>
        <time>2014-08-27T16:32:55Z</time>
      </trkpt>
      <trkpt lat="46.35099" lon="6.7251">
        <ele>1892.5042</ele>
        <time>2014-08-27T16:33:00Z</time>
      </trkpt>
      <trkpt lat="46.35099" lon="6.7251">
        <ele>1892.5042</ele>
        <time>2014-08-27T16:33:05Z</time>
      </trkpt>
      <trkpt lat="46.35098" lon="6.72509">
        <ele>1892.5042</ele>
        <time>2014-08-27T16:33:10Z</time>
      </trkpt>
      <trkpt lat="46.35097" lon="6.72509">
        <ele>1892.5042</ele>
        <time>2014-08-27T16:33:15Z</time>
      </trkpt>
      <trkpt lat="46.35097" lon="6.72509">
        <ele>1892.5042</ele>
        <time>2014-08-27T16:33:20Z</time>
      </trkpt>
      <trkpt lat="46.35097" lon="6.7251">
        <ele>1892.5042</ele>
        <time>2014-08-27T16:33:25Z</time>
      </trkpt>
      <trkpt lat="46.35097" lon="6.72509">
        <ele>1892.5042</ele>
        <time>2014-08-27T16:33:30Z</time>
      </trkpt>
      <trkpt lat="46.35096" lon="6.72508">
        <ele>1892.5042</ele>
        <time>2014-08-27T16:33:35Z</time>
      </trkpt>
      <trkpt lat="46.35097" lon="6.72506">
        <ele>1892.5042</ele>
        <time>2014-08-27T16:33:40Z</time>
      </trkpt>
      <trkpt lat="46.35097" lon="6.72505">
        <ele>1895.0052</ele>
        <time>2014-08-27T16:33:45Z</time>
      </trkpt>
      <trkpt lat="46.35097" lon="6.72505">
        <ele>1895.0052</ele>
        <time>2014-08-27T16:33:50Z</time>
      </trkpt>
      <trkpt lat="46.35097" lon="6.72505">
        <ele>1895.0052</ele>
        <time>2014-08-27T16:33:55Z</time>
      </trkpt>
      <trkpt lat="46.35096" lon="6.72504">
        <ele>1895.0052</ele>
        <time>2014-08-27T16:34:00Z</time>
      </trkpt>
      <trkpt lat="46.35097" lon="6.72505">
        <ele>1895.0052</ele>
        <time>2014-08-27T16:34:05Z</time>
      </trkpt>
      <trkpt lat="46.35097" lon="6.72508">
        <ele>1895.0052</ele>
        <time>2014-08-27T16:34:10Z</time>
      </trkpt>
      <trkpt lat="46.35098" lon="6.72512">
        <ele>1895.0052</ele>
        <time>2014-08-27T16:34:15Z</time>
      </trkpt>
      <trkpt lat="46.35099" lon="6.72516">
        <ele>1896.878</ele>
        <time>2014-08-27T16:34:20Z</time>
      </trkpt>
      <trkpt lat="46.35099" lon="6.72522">
        <ele>1896.878</ele>
        <time>2014-08-27T16:34:25Z</time>
      </trkpt>
      <trkpt lat="46.351" lon="6.72525">
        <ele>1896.878</ele>
        <time>2014-08-27T16:34:30Z</time>
      </trkpt>
      <trkpt lat="46.35101" lon="6.72526">
        <ele>1896.878</ele>
        <time>2014-08-27T16:34:35Z</time>
      </trkpt>
      <trkpt lat="46.35103" lon="6.72528">
        <ele>1898.5038</ele>
        <time>2014-08-27T16:34:40Z</time>
      </trkpt>
      <trkpt lat="46.35103" lon="6.72529">
        <ele>1898.5038</ele>
        <time>2014-08-27T16:34:45Z</time>
      </trkpt>
      <trkpt lat="46.35104" lon="6.72529">
        <ele>1898.5038</ele>
        <time>2014-08-27T16:34:50Z</time>
      </trkpt>
      <trkpt lat="46.35105" lon="6.72528">
        <ele>1898.5038</ele>
        <time>2014-08-27T16:34:55Z</time>
      </trkpt>
      <trkpt lat="46.35107" lon="6.72525">
        <ele>1898.5038</ele>
        <time>2014-08-27T16:35:00Z</time>
      </trkpt>
      <trkpt lat="46.35108" lon="6.72522">
        <ele>1898.5038</ele>
        <time>2014-08-27T16:35:05Z</time>
      </trkpt>
      <trkpt lat="46.35109" lon="6.7252">
        <ele>1900.6687</ele>
        <time>2014-08-27T16:35:10Z</time>
      </trkpt>
      <trkpt lat="46.35109" lon="6.72516">
        <ele>1900.6687</ele>
        <time>2014-08-27T16:35:15Z</time>
      </trkpt>
      <trkpt lat="46.3511" lon="6.72512">
        <ele>1900.6687</ele>
        <time>2014-08-27T16:35:20Z</time>
      </trkpt>
      <trkpt lat="46.35111" lon="6.72508">
        <ele>1900.6687</ele>
        <time>2014-08-27T16:35:25Z</time>
      </trkpt>
      <trkpt lat="46.35111" lon="6.72504">
        <ele>1903.1053</ele>
        <time>2014-08-27T16:35:30Z</time>
      </trkpt>
      <trkpt lat="46.35112" lon="6.72501">
        <ele>1903.1053</ele>
        <time>2014-08-27T16:35:35Z</time>
      </trkpt>
      <trkpt lat="46.35115" lon="6.72498">
        <ele>1903.1053</ele>
        <time>2014-08-27T16:35:40Z</time>
      </trkpt>
      <trkpt lat="46.35116" lon="6.72497">
        <ele>1903.1053</ele>
        <time>2014-08-27T16:35:45Z</time>
      </trkpt>
      <trkpt lat="46.35118" lon="6.72496">
        <ele>1903.1053</ele>
        <time>2014-08-27T16:35:50Z</time>
      </trkpt>
      <trkpt lat="46.35118" lon="6.72494">
        <ele>1905.6945</ele>
        <time>2014-08-27T16:35:55Z</time>
      </trkpt>
      <trkpt lat="46.3512" lon="6.72494">
        <ele>1905.6945</ele>
        <time>2014-08-27T16:36:00Z</time>
      </trkpt>
      <trkpt lat="46.3512" lon="6.72492">
        <ele>1905.6945</ele>
        <time>2014-08-27T16:36:05Z</time>
      </trkpt>
      <trkpt lat="46.35119" lon="6.72489">
        <ele>1905.6945</ele>
        <time>2014-08-27T16:36:10Z</time>
      </trkpt>
      <trkpt lat="46.35119" lon="6.72488">
        <ele>1905.6945</ele>
        <time>2014-08-27T16:36:15Z</time>
      </trkpt>
      <trkpt lat="46.3512" lon="6.72488">
        <ele>1905.6945</ele>
        <time>2014-08-27T16:36:20Z</time>
      </trkpt>
      <trkpt lat="46.35121" lon="6.72488">
        <ele>1905.6945</ele>
        <time>2014-08-27T16:36:25Z</time>
      </trkpt>
      <trkpt lat="46.35121" lon="6.72487">
        <ele>1905.6945</ele>
        <time>2014-08-27T16:36:30Z</time>
      </trkpt>
      <trkpt lat="46.35121" lon="6.72484">
        <ele>1908.1382</ele>
        <time>2014-08-27T16:36:35Z</time>
      </trkpt>
      <trkpt lat="46.35121" lon="6.72486">
        <ele>1908.1382</ele>
        <time>2014-08-27T16:36:40Z</time>
      </trkpt>
      <trkpt lat="46.35121" lon="6.72486">
        <ele>1908.1382</ele>
        <time>2014-08-27T16:36:45Z</time>
      </trkpt>
      <trkpt lat="46.35122" lon="6.72487">
        <ele>1908.1382</ele>
        <time>2014-08-27T16:36:50Z</time>
      </trkpt>
      <trkpt lat="46.35122" lon="6.72487">
        <ele>1908.1382</ele>
        <time>2014-08-27T16:36:55Z</time>
      </trkpt>
      <trkpt lat="46.35123" lon="6.72486">
        <ele>1908.1382</ele>
        <time>2014-08-27T16:37:00Z</time>
      </trkpt>
      <trkpt lat="46.35123" lon="6.72486">
        <ele>1908.1382</ele>
        <time>2014-08-27T16:37:05Z</time>
      </trkpt>
      <trkpt lat="46.35123" lon="6.72488">
        <ele>1908.1382</ele>
        <time>2014-08-27T16:37:10Z</time>
      </trkpt>
      <trkpt lat="46.35124" lon="6.72488">
        <ele>1908.1382</ele>
        <time>2014-08-27T16:37:15Z</time>
      </trkpt>
      <trkpt lat="46.35123" lon="6.72488">
        <ele>1908.1382</ele>
        <time>2014-08-27T16:37:20Z</time>
      </trkpt>
      <trkpt lat="46.35123" lon="6.72488">
        <ele>1908.1382</ele>
        <time>2014-08-27T16:37:25Z</time>
      </trkpt>
      <trkpt lat="46.35123" lon="6.72489">
        <ele>1910.2035</ele>
        <time>2014-08-27T16:37:30Z</time>
      </trkpt>
      <trkpt lat="46.35123" lon="6.7249">
        <ele>1910.2035</ele>
        <time>2014-08-27T16:37:35Z</time>
      </trkpt>
      <trkpt lat="46.35122" lon="6.7249">
        <ele>1910.2035</ele>
        <time>2014-08-27T16:37:40Z</time>
      </trkpt>
      <trkpt lat="46.35122" lon="6.72491">
        <ele>1910.2035</ele>
        <time>2014-08-27T16:37:45Z</time>
      </trkpt>
      <trkpt lat="46.35123" lon="6.7249">
        <ele>1910.2035</ele>
        <time>2014-08-27T16:37:50Z</time>
      </trkpt>
      <trkpt lat="46.35125" lon="6.72488">
        <ele>1910.2035</ele>
        <time>2014-08-27T16:37:55Z</time>
      </trkpt>
      <trkpt lat="46.35126" lon="6.72485">
        <ele>1910.2035</ele>
        <time>2014-08-27T16:38:00Z</time>
      </trkpt>
      <trkpt lat="46.35128" lon="6.72482">
        <ele>1912.2814</ele>
        <time>2014-08-27T16:38:05Z</time>
      </trkpt>
      <trkpt lat="46.35128" lon="6.72482">
        <ele>1912.2814</ele>
        <time>2014-08-27T16:38:10Z</time>
      </trkpt>
      <trkpt lat="46.35128" lon="6.72476">
        <ele>1912.2814</ele>
        <time>2014-08-27T16:38:15Z</time>
      </trkpt>
      <trkpt lat="46.35127" lon="6.72469">
        <ele>1914.3444</ele>
        <time>2014-08-27T16:38:20Z</time>
      </trkpt>
      <trkpt lat="46.35129" lon="6.72464">
        <ele>1914.3444</ele>
        <time>2014-08-27T16:38:25Z</time>
      </trkpt>
      <trkpt lat="46.35131" lon="6.72462">
        <ele>1914.3444</ele>
        <time>2014-08-27T16:38:30Z</time>
      </trkpt>
      <trkpt lat="46.35131" lon="6.72463">
        <ele>1914.3444</ele>
        <time>2014-08-27T16:38:35Z</time>
      </trkpt>
      <trkpt lat="46.35132" lon="6.72462">
        <ele>1914.3444</ele>
        <time>2014-08-27T16:38:40Z</time>
      </trkpt>
      <trkpt lat="46.35134" lon="6.72464">
        <ele>1916.3527</ele>
        <time>2014-08-27T16:38:45Z</time>
      </trkpt>
      <trkpt lat="46.35135" lon="6.72465">
        <ele>1916.3527</ele>
        <time>2014-08-27T16:38:50Z</time>
      </trkpt>
      <trkpt lat="46.35136" lon="6.72465">
        <ele>1916.3527</ele>
        <time>2014-08-27T16:38:55Z</time>
      </trkpt>
      <trkpt lat="46.35136" lon="6.72465">
        <ele>1916.3527</ele>
        <time>2014-08-27T16:39:00Z</time>
      </trkpt>
      <trkpt lat="46.35135" lon="6.72464">
        <ele>1916.3527</ele>
        <time>2014-08-27T16:39:05Z</time>
      </trkpt>
      <trkpt lat="46.35134" lon="6.72464">
        <ele>1916.3527</ele>
        <time>2014-08-27T16:39:10Z</time>
      </trkpt>
      <trkpt lat="46.35133" lon="6.72465">
        <ele>1916.3527</ele>
        <time>2014-08-27T16:39:15Z</time>
      </trkpt>
      <trkpt lat="46.35132" lon="6.72465">
        <ele>1916.3527</ele>
        <time>2014-08-27T16:39:20Z</time>
      </trkpt>
      <trkpt lat="46.35132" lon="6.72465">
        <ele>1916.3527</ele>
        <time>2014-08-27T16:39:25Z</time>
      </trkpt>
      <trkpt lat="46.35131" lon="6.72466">
        <ele>1916.3527</ele>
        <time>2014-08-27T16:39:30Z</time>
      </trkpt>
      <trkpt lat="46.35131" lon="6.72464">
        <ele>1916.3527</ele>
        <time>2014-08-27T16:39:35Z</time>
      </trkpt>
      <trkpt lat="46.35131" lon="6.72462">
        <ele>1918.4714</ele>
        <time>2014-08-27T16:39:40Z</time>
      </trkpt>
      <trkpt lat="46.35132" lon="6.72463">
        <ele>1918.4714</ele>
        <time>2014-08-27T16:39:45Z</time>
      </trkpt>
      <trkpt lat="46.35132" lon="6.72463">
        <ele>1918.4714</ele>
        <time>2014-08-27T16:39:50Z</time>
      </trkpt>
      <trkpt lat="46.35131" lon="6.72463">
        <ele>1918.4714</ele>
        <time>2014-08-27T16:39:55Z</time>
      </trkpt>
      <trkpt lat="46.35129" lon="6.72462">
        <ele>1918.4714</ele>
        <time>2014-08-27T16:40:00Z</time>
      </trkpt>
      <trkpt lat="46.35129" lon="6.72462">
        <ele>1918.4714</ele>
        <time>2014-08-27T16:40:05Z</time>
      </trkpt>
      <trkpt lat="46.35129" lon="6.72461">
        <ele>1918.4714</ele>
        <time>2014-08-27T16:40:10Z</time>
      </trkpt>
      <trkpt lat="46.3513" lon="6.7246">
        <ele>1918.4714</ele>
        <time>2014-08-27T16:40:15Z</time>
      </trkpt>
      <trkpt lat="46.3513" lon="6.72458">
        <ele>1918.4714</ele>
        <time>2014-08-27T16:40:20Z</time>
      </trkpt>
      <trkpt lat="46.3513" lon="6.72457">
        <ele>1918.4714</ele>
        <time>2014-08-27T16:40:25Z</time>
      </trkpt>
      <trkpt lat="46.3513" lon="6.72458">
        <ele>1918.4714</ele>
        <time>2014-08-27T16:40:30Z</time>
      </trkpt>
      <trkpt lat="46.35131" lon="6.72459">
        <ele>1918.4714</ele>
        <time>2014-08-27T16:40:35Z</time>
      </trkpt>
      <trkpt lat="46.3513" lon="6.72461">
        <ele>1920.363</ele>
        <time>2014-08-27T16:40:40Z</time>
      </trkpt>
      <trkpt lat="46.3513" lon="6.72462">
        <ele>1920.363</ele>
        <time>2014-08-27T16:40:45Z</time>
      </trkpt>
      <trkpt lat="46.3513" lon="6.72463">
        <ele>1920.363</ele>
        <time>2014-08-27T16:40:50Z</time>
      </trkpt>
      <trkpt lat="46.3513" lon="6.72463">
        <ele>1920.363</ele>
        <time>2014-08-27T16:40:55Z</time>
      </trkpt>
      <trkpt lat="46.35131" lon="6.72465">
        <ele>1920.363</ele>
        <time>2014-08-27T16:41:00Z</time>
      </trkpt>
      <trkpt lat="46.35131" lon="6.72468">
        <ele>1920.363</ele>
        <time>2014-08-27T16:41:05Z</time>
      </trkpt>
      <trkpt lat="46.35131" lon="6.7247">
        <ele>1920.363</ele>
        <time>2014-08-27T16:41:10Z</time>
      </trkpt>
      <trkpt lat="46.35131" lon="6.72475">
        <ele>1921.8884</ele>
        <time>2014-08-27T16:41:15Z</time>
      </trkpt>
      <trkpt lat="46.35132" lon="6.72481">
        <ele>1921.8884</ele>
        <time>2014-08-27T16:41:20Z</time>
      </trkpt>
      <trkpt lat="46.35133" lon="6.72485">
        <ele>1921.8884</ele>
        <time>2014-08-27T16:41:25Z</time>
      </trkpt>
      <trkpt lat="46.35134" lon="6.72484">
        <ele>1921.8884</ele>
        <time>2014-08-27T16:41:30Z</time>
      </trkpt>
      <trkpt lat="46.35135" lon="6.72488">
        <ele>1923.4238</ele>
        <time>2014-08-27T16:41:35Z</time>
      </trkpt>
      <trkpt lat="46.35136" lon="6.72491">
        <ele>1923.4238</ele>
        <time>2014-08-27T16:41:40Z</time>
      </trkpt>
      <trkpt lat="46.35137" lon="6.72495">
        <ele>1923.4238</ele>
        <time>2014-08-27T16:41:45Z</time>
      </trkpt>
      <trkpt lat="46.35137" lon="6.72497">
        <ele>1923.4238</ele>
        <time>2014-08-27T16:41:50Z</time>
      </trkpt>
      <trkpt lat="46.35138" lon="6.72499">
        <ele>1923.4238</ele>
        <time>2014-08-27T16:41:55Z</time>
      </trkpt>
      <trkpt lat="46.35139" lon="6.725">
        <ele>1925.361</ele>
        <time>2014-08-27T16:42:00Z</time>
      </trkpt>
      <trkpt lat="46.35138" lon="6.725">
        <ele>1925.361</ele>
        <time>2014-08-27T16:42:05Z</time>
      </trkpt>
      <trkpt lat="46.35138" lon="6.725">
        <ele>1925.361</ele>
        <time>2014-08-27T16:42:10Z</time>
      </trkpt>
      <trkpt lat="46.35138" lon="6.72503">
        <ele>1925.361</ele>
        <time>2014-08-27T16:42:15Z</time>
      </trkpt>
      <trkpt lat="46.35138" lon="6.72507">
        <ele>1925.361</ele>
        <time>2014-08-27T16:42:20Z</time>
      </trkpt>
      <trkpt lat="46.35139" lon="6.72511">
        <ele>1925.361</ele>
        <time>2014-08-27T16:42:25Z</time>
      </trkpt>
      <trkpt lat="46.35139" lon="6.72513">
        <ele>1927.3988</ele>
        <time>2014-08-27T16:42:30Z</time>
      </trkpt>
      <trkpt lat="46.35138" lon="6.72515">
        <ele>1927.3988</ele>
        <time>2014-08-27T16:42:35Z</time>
      </trkpt>
      <trkpt lat="46.35139" lon="6.72518">
        <ele>1927.3988</ele>
        <time>2014-08-27T16:42:40Z</time>
      </trkpt>
      <trkpt lat="46.35138" lon="6.7252">
        <ele>1927.3988</ele>
        <time>2014-08-27T16:42:45Z</time>
      </trkpt>
      <trkpt lat="46.35137" lon="6.72521">
        <ele>1927.3988</ele>
        <time>2014-08-27T16:42:50Z</time>
      </trkpt>
      <trkpt lat="46.35137" lon="6.72521">
        <ele>1927.3988</ele>
        <time>2014-08-27T16:42:55Z</time>
      </trkpt>
      <trkpt lat="46.35137" lon="6.72523">
        <ele>1929.2146</ele>
        <time>2014-08-27T16:43:00Z</time>
      </trkpt>
      <trkpt lat="46.35136" lon="6.72524">
        <ele>1929.2146</ele>
        <time>2014-08-27T16:43:05Z</time>
      </trkpt>
      <trkpt lat="46.35133" lon="6.72527">
        <ele>1929.2146</ele>
        <time>2014-08-27T16:43:10Z</time>
      </trkpt>
      <trkpt lat="46.35132" lon="6.7253">
        <ele>1929.2146</ele>
        <time>2014-08-27T16:43:15Z</time>
      </trkpt>
      <trkpt lat="46.35133" lon="6.72531">
        <ele>1929.2146</ele>
        <time>2014-08-27T16:43:20Z</time>
      </trkpt>
      <trkpt lat="46.35132" lon="6.72531">
        <ele>1929.2146</ele>
        <time>2014-08-27T16:43:25Z</time>
      </trkpt>
      <trkpt lat="46.35132" lon="6.7253">
        <ele>1930.8849</ele>
        <time>2014-08-27T16:43:30Z</time>
      </trkpt>
      <trkpt lat="46.35132" lon="6.7253">
        <ele>1930.8849</ele>
        <time>2014-08-27T16:43:35Z</time>
      </trkpt>
      <trkpt lat="46.35133" lon="6.72531">
        <ele>1930.8849</ele>
        <time>2014-08-27T16:43:40Z</time>
      </trkpt>
      <trkpt lat="46.35132" lon="6.72534">
        <ele>1930.8849</ele>
        <time>2014-08-27T16:43:45Z</time>
      </trkpt>
      <trkpt lat="46.35132" lon="6.72534">
        <ele>1930.8849</ele>
        <time>2014-08-27T16:43:50Z</time>
      </trkpt>
      <trkpt lat="46.35133" lon="6.72533">
        <ele>1930.8849</ele>
        <time>2014-08-27T16:44:15Z</time>
      </trkpt>
      <trkpt lat="46.35133" lon="6.72532">
        <ele>1930.8849</ele>
        <time>2014-08-27T16:44:20Z</time>
      </trkpt>
      <trkpt lat="46.3514" lon="6.7253">
        <ele>1933.23</ele>
        <time>2014-08-27T16:44:45Z</time>
      </trkpt>
      <trkpt lat="46.35147" lon="6.7253">
        <ele>1933.23</ele>
        <time>2014-08-27T16:44:50Z</time>
      </trkpt>
      <trkpt lat="46.3515" lon="6.72529">
        <ele>1935.466</ele>
        <time>2014-08-27T16:44:55Z</time>
      </trkpt>
      <trkpt lat="46.35151" lon="6.72529">
        <ele>1935.466</ele>
        <time>2014-08-27T16:45:00Z</time>
      </trkpt>
      <trkpt lat="46.35151" lon="6.7253">
        <ele>1935.466</ele>
        <time>2014-08-27T16:45:05Z</time>
      </trkpt>
      <trkpt lat="46.35151" lon="6.72533">
        <ele>1935.466</ele>
        <time>2014-08-27T16:45:10Z</time>
      </trkpt>
      <trkpt lat="46.35151" lon="6.72534">
        <ele>1935.466</ele>
        <time>2014-08-27T16:45:15Z</time>
      </trkpt>
      <trkpt lat="46.35151" lon="6.72535">
        <ele>1935.466</ele>
        <time>2014-08-27T16:45:20Z</time>
      </trkpt>
      <trkpt lat="46.3515" lon="6.72536">
        <ele>1935.466</ele>
        <time>2014-08-27T16:45:25Z</time>
      </trkpt>
      <trkpt lat="46.35151" lon="6.72537">
        <ele>1935.466</ele>
        <time>2014-08-27T16:45:30Z</time>
      </trkpt>
      <trkpt lat="46.35151" lon="6.72537">
        <ele>1935.466</ele>
        <time>2014-08-27T16:45:35Z</time>
      </trkpt>
      <trkpt lat="46.35152" lon="6.72538">
        <ele>1935.466</ele>
        <time>2014-08-27T16:45:40Z</time>
      </trkpt>
      <trkpt lat="46.35152" lon="6.7254">
        <ele>1937.7891</ele>
        <time>2014-08-27T16:45:45Z</time>
      </trkpt>
      <trkpt lat="46.35151" lon="6.72541">
        <ele>1937.7891</ele>
        <time>2014-08-27T16:45:50Z</time>
      </trkpt>
      <trkpt lat="46.35151" lon="6.72542">
        <ele>1937.7891</ele>
        <time>2014-08-27T16:45:55Z</time>
      </trkpt>
      <trkpt lat="46.35149" lon="6.72544">
        <ele>1937.7891</ele>
        <time>2014-08-27T16:46:00Z</time>
      </trkpt>
      <trkpt lat="46.35148" lon="6.72546">
        <ele>1937.7891</ele>
        <time>2014-08-27T16:46:05Z</time>
      </trkpt>
      <trkpt lat="46.35151" lon="6.72547">
        <ele>1937.7891</ele>
        <time>2014-08-27T16:46:10Z</time>
      </trkpt>
      <trkpt lat="46.35151" lon="6.72547">
        <ele>1937.7891</ele>
        <time>2014-08-27T16:46:15Z</time>
      </trkpt>
      <trkpt lat="46.35151" lon="6.72546">
        <ele>1939.8477</ele>
        <time>2014-08-27T16:46:20Z</time>
      </trkpt>
      <trkpt lat="46.35149" lon="6.72546">
        <ele>1939.8477</ele>
        <time>2014-08-27T16:46:25Z</time>
      </trkpt>
      <trkpt lat="46.35148" lon="6.72545">
        <ele>1939.8477</ele>
        <time>2014-08-27T16:46:30Z</time>
      </trkpt>
      <trkpt lat="46.35147" lon="6.72547">
        <ele>1939.8477</ele>
        <time>2014-08-27T16:46:35Z</time>
      </trkpt>
      <trkpt lat="46.35148" lon="6.72549">
        <ele>1939.8477</ele>
        <time>2014-08-27T16:46:40Z</time>
      </trkpt>
      <trkpt lat="46.35149" lon="6.72551">
        <ele>1939.8477</ele>
        <time>2014-08-27T16:46:45Z</time>
      </trkpt>
      <trkpt lat="46.35149" lon="6.72553">
        <ele>1942.0659</ele>
        <time>2014-08-27T16:46:50Z</time>
      </trkpt>
      <trkpt lat="46.35149" lon="6.72556">
        <ele>1942.0659</ele>
        <time>2014-08-27T16:46:55Z</time>
      </trkpt>
      <trkpt lat="46.35151" lon="6.72558">
        <ele>1942.0659</ele>
        <time>2014-08-27T16:47:00Z</time>
      </trkpt>
      <trkpt lat="46.35153" lon="6.72562">
        <ele>1942.0659</ele>
        <time>2014-08-27T16:47:05Z</time>
      </trkpt>
      <trkpt lat="46.35154" lon="6.7256">
        <ele>1942.0659</ele>
        <time>2014-08-27T16:47:10Z</time>
      </trkpt>
      <trkpt lat="46.35155" lon="6.72562">
        <ele>1944.5048</ele>
        <time>2014-08-27T16:47:15Z</time>
      </trkpt>
      <trkpt lat="46.35156" lon="6.72563">
        <ele>1944.5048</ele>
        <time>2014-08-27T16:47:20Z</time>
      </trkpt>
      <trkpt lat="46.35158" lon="6.72564">
        <ele>1944.5048</ele>
        <time>2014-08-27T16:47:25Z</time>
      </trkpt>
      <trkpt lat="46.35158" lon="6.72564">
        <ele>1944.5048</ele>
        <time>2014-08-27T16:47:30Z</time>
      </trkpt>
      <trkpt lat="46.35158" lon="6.72564">
        <ele>1944.5048</ele>
        <time>2014-08-27T16:47:35Z</time>
      </trkpt>
      <trkpt lat="46.35159" lon="6.72566">
        <ele>1944.5048</ele>
        <time>2014-08-27T16:48:10Z</time>
      </trkpt>
      <trkpt lat="46.35159" lon="6.72566">
        <ele>1944.5048</ele>
        <time>2014-08-27T16:48:15Z</time>
      </trkpt>
      <trkpt lat="46.35159" lon="6.72567">
        <ele>1944.5048</ele>
        <time>2014-08-27T16:48:20Z</time>
      </trkpt>
      <trkpt lat="46.35159" lon="6.72567">
        <ele>1944.5048</ele>
        <time>2014-08-27T16:48:25Z</time>
      </trkpt>
      <trkpt lat="46.35159" lon="6.72569">
        <ele>1944.5048</ele>
        <time>2014-08-27T16:48:30Z</time>
      </trkpt>
      <trkpt lat="46.35159" lon="6.72569">
        <ele>1944.5048</ele>
        <time>2014-08-27T16:48:35Z</time>
      </trkpt>
      <trkpt lat="46.35159" lon="6.72571">
        <ele>1944.5048</ele>
        <time>2014-08-27T16:48:40Z</time>
      </trkpt>
      <trkpt lat="46.35159" lon="6.72571">
        <ele>1944.5048</ele>
        <time>2014-08-27T16:48:45Z</time>
      </trkpt>
      <trkpt lat="46.35159" lon="6.72583">
        <ele>1948.301</ele>
        <time>2014-08-27T16:48:50Z</time>
      </trkpt>
      <trkpt lat="46.35159" lon="6.72589">
        <ele>1948.301</ele>
        <time>2014-08-27T16:48:55Z</time>
      </trkpt>
      <trkpt lat="46.35159" lon="6.72592">
        <ele>1948.301</ele>
        <time>2014-08-27T16:49:00Z</time>
      </trkpt>
      <trkpt lat="46.35159" lon="6.72594">
        <ele>1948.301</ele>
        <time>2014-08-27T16:49:05Z</time>
      </trkpt>
      <trkpt lat="46.35159" lon="6.72594">
        <ele>1948.301</ele>
        <time>2014-08-27T16:49:10Z</time>
      </trkpt>
      <trkpt lat="46.35159" lon="6.72595">
        <ele>1948.301</ele>
        <time>2014-08-27T16:49:50Z</time>
      </trkpt>
      <trkpt lat="46.35159" lon="6.72596">
        <ele>1951.982</ele>
        <time>2014-08-27T16:49:55Z</time>
      </trkpt>
      <trkpt lat="46.3516" lon="6.72597">
        <ele>1951.982</ele>
        <time>2014-08-27T16:50:00Z</time>
      </trkpt>
      <trkpt lat="46.3516" lon="6.72597">
        <ele>1951.982</ele>
        <time>2014-08-27T16:50:05Z</time>
      </trkpt>
      <trkpt lat="46.3516" lon="6.72599">
        <ele>1951.982</ele>
        <time>2014-08-27T16:50:10Z</time>
      </trkpt>
      <trkpt lat="46.35161" lon="6.72603">
        <ele>1951.982</ele>
        <time>2014-08-27T16:50:15Z</time>
      </trkpt>
      <trkpt lat="46.3516" lon="6.72609">
        <ele>1955.351</ele>
        <time>2014-08-27T16:50:20Z</time>
      </trkpt>
      <trkpt lat="46.35159" lon="6.72613">
        <ele>1955.351</ele>
        <time>2014-08-27T16:50:25Z</time>
      </trkpt>
      <trkpt lat="46.35158" lon="6.72615">
        <ele>1955.351</ele>
        <time>2014-08-27T16:50:30Z</time>
      </trkpt>
      <trkpt lat="46.35159" lon="6.7262">
        <ele>1955.351</ele>
        <time>2014-08-27T16:50:35Z</time>
      </trkpt>
      <trkpt lat="46.35159" lon="6.72621">
        <ele>1955.351</ele>
        <time>2014-08-27T16:50:40Z</time>
      </trkpt>
      <trkpt lat="46.3516" lon="6.72623">
        <ele>1958.5863</ele>
        <time>2014-08-27T16:50:45Z</time>
      </trkpt>
      <trkpt lat="46.3516" lon="6.72625">
        <ele>1958.5863</ele>
        <time>2014-08-27T16:50:50Z</time>
      </trkpt>
      <trkpt lat="46.35162" lon="6.72627">
        <ele>1958.5863</ele>
        <time>2014-08-27T16:50:55Z</time>
      </trkpt>
      <trkpt lat="46.35163" lon="6.72626">
        <ele>1958.5863</ele>
        <time>2014-08-27T16:51:00Z</time>
      </trkpt>
      <trkpt lat="46.35163" lon="6.72626">
        <ele>1958.5863</ele>
        <time>2014-08-27T16:51:05Z</time>
      </trkpt>
      <trkpt lat="46.35165" lon="6.72625">
        <ele>1958.5863</ele>
        <time>2014-08-27T16:51:15Z</time>
      </trkpt>
      <trkpt lat="46.35165" lon="6.72625">
        <ele>1958.5863</ele>
        <time>2014-08-27T16:51:20Z</time>
      </trkpt>
      <trkpt lat="46.35166" lon="6.72624">
        <ele>1958.5863</ele>
        <time>2014-08-27T16:53:05Z</time>
      </trkpt>
      <trkpt lat="46.35167" lon="6.72628">
        <ele>1962.7045</ele>
        <time>2014-08-27T16:53:10Z</time>
      </trkpt>
      <trkpt lat="46.35168" lon="6.72629">
        <ele>1962.7045</ele>
        <time>2014-08-27T16:53:15Z</time>
      </trkpt>
      <trkpt lat="46.35168" lon="6.72629">
        <ele>1962.7045</ele>
        <time>2014-08-27T16:53:20Z</time>
      </trkpt>
      <trkpt lat="46.35168" lon="6.7263">
        <ele>1962.7045</ele>
        <time>2014-08-27T16:53:25Z</time>
      </trkpt>
      <trkpt lat="46.35168" lon="6.7263">
        <ele>1962.7045</ele>
        <time>2014-08-27T16:53:30Z</time>
      </trkpt>
      <trkpt lat="46.35168" lon="6.72631">
        <ele>1962.7045</ele>
        <time>2014-08-27T16:53:40Z</time>
      </trkpt>
      <trkpt lat="46.35168" lon="6.72631">
        <ele>1962.7045</ele>
        <time>2014-08-27T16:53:45Z</time>
      </trkpt>
      <trkpt lat="46.35169" lon="6.72633">
        <ele>1962.7045</ele>
        <time>2014-08-27T16:53:50Z</time>
      </trkpt>
      <trkpt lat="46.3517" lon="6.72636">
        <ele>1962.7045</ele>
        <time>2014-08-27T16:53:55Z</time>
      </trkpt>
      <trkpt lat="46.3517" lon="6.72639">
        <ele>1962.7045</ele>
        <time>2014-08-27T16:54:00Z</time>
      </trkpt>
      <trkpt lat="46.3517" lon="6.72639">
        <ele>1962.7045</ele>
        <time>2014-08-27T16:54:05Z</time>
      </trkpt>
      <trkpt lat="46.35173" lon="6.7264">
        <ele>1967.4484</ele>
        <time>2014-08-27T16:54:10Z</time>
      </trkpt>
      <trkpt lat="46.35173" lon="6.7264">
        <ele>1967.4484</ele>
        <time>2014-08-27T16:54:15Z</time>
      </trkpt>
      <trkpt lat="46.35174" lon="6.72645">
        <ele>1967.4484</ele>
        <time>2014-08-27T16:54:40Z</time>
      </trkpt>
      <trkpt lat="46.35174" lon="6.72645">
        <ele>1967.4484</ele>
        <time>2014-08-27T16:54:45Z</time>
      </trkpt>
      <trkpt lat="46.35177" lon="6.72645">
        <ele>1967.4484</ele>
        <time>2014-08-27T16:54:50Z</time>
      </trkpt>
      <trkpt lat="46.35177" lon="6.72645">
        <ele>1967.4484</ele>
        <time>2014-08-27T16:54:55Z</time>
      </trkpt>
      <trkpt lat="46.35178" lon="6.72647">
        <ele>1967.4484</ele>
        <time>2014-08-27T16:55:00Z</time>
      </trkpt>
      <trkpt lat="46.35178" lon="6.72647">
        <ele>1967.4484</ele>
        <time>2014-08-27T16:55:05Z</time>
      </trkpt>
      <trkpt lat="46.35187" lon="6.72647">
        <ele>1972.5345</ele>
        <time>2014-08-27T16:55:25Z</time>
      </trkpt>
      <trkpt lat="46.35188" lon="6.72647">
        <ele>1972.5345</ele>
        <time>2014-08-27T16:55:30Z</time>
      </trkpt>
      <trkpt lat="46.3519" lon="6.72647">
        <ele>1972.5345</ele>
        <time>2014-08-27T16:55:35Z</time>
      </trkpt>
      <trkpt lat="46.35191" lon="6.72647">
        <ele>1972.5345</ele>
        <time>2014-08-27T16:55:40Z</time>
      </trkpt>
      <trkpt lat="46.35192" lon="6.7265">
        <ele>1972.5345</ele>
        <time>2014-08-27T16:55:50Z</time>
      </trkpt>
      <trkpt lat="46.35193" lon="6.72651">
        <ele>1972.5345</ele>
        <time>2014-08-27T16:55:55Z</time>
      </trkpt>
      <trkpt lat="46.35193" lon="6.72651">
        <ele>1972.5345</ele>
        <time>2014-08-27T16:56:00Z</time>
      </trkpt>
      <trkpt lat="46.35194" lon="6.72655">
        <ele>1978.4927</ele>
        <time>2014-08-27T16:56:45Z</time>
      </trkpt>
      <trkpt lat="46.35194" lon="6.72655">
        <ele>1978.4927</ele>
        <time>2014-08-27T16:56:50Z</time>
      </trkpt>
      <trkpt lat="46.35196" lon="6.7266">
        <ele>1978.4927</ele>
        <time>2014-08-27T16:57:05Z</time>
      </trkpt>
      <trkpt lat="46.35194" lon="6.72662">
        <ele>1978.4927</ele>
        <time>2014-08-27T16:57:10Z</time>
      </trkpt>
      <trkpt lat="46.35194" lon="6.72669">
        <ele>1984.254</ele>
        <time>2014-08-27T16:57:15Z</time>
      </trkpt>
      <trkpt lat="46.35195" lon="6.72673">
        <ele>1984.254</ele>
        <time>2014-08-27T16:57:20Z</time>
      </trkpt>
      <trkpt lat="46.35195" lon="6.72674">
        <ele>1984.254</ele>
        <time>2014-08-27T16:57:25Z</time>
      </trkpt>
      <trkpt lat="46.35195" lon="6.72674">
        <ele>1984.254</ele>
        <time>2014-08-27T16:57:30Z</time>
      </trkpt>
      <trkpt lat="46.35195" lon="6.72674">
        <ele>1984.254</ele>
        <time>2014-08-27T16:57:55Z</time>
      </trkpt>
      <trkpt lat="46.35195" lon="6.72674">
        <ele>1984.254</ele>
        <time>2014-08-27T16:58:00Z</time>
      </trkpt>
      <trkpt lat="46.35195" lon="6.72674">
        <ele>1984.254</ele>
        <time>2014-08-27T16:58:05Z</time>
      </trkpt>
      <trkpt lat="46.35195" lon="6.72674">
        <ele>1984.254</ele>
        <time>2014-08-27T16:58:10Z</time>
      </trkpt>
      <trkpt lat="46.35195" lon="6.72675">
        <ele>1984.254</ele>
        <time>2014-08-27T16:58:15Z</time>
      </trkpt>
      <trkpt lat="46.35195" lon="6.72675">
        <ele>1984.254</ele>
        <time>2014-08-27T16:58:20Z</time>
      </trkpt>
      <trkpt lat="46.35197" lon="6.72676">
        <ele>1984.254</ele>
        <time>2014-08-27T16:58:30Z</time>
      </trkpt>
      <trkpt lat="46.352" lon="6.72675">
        <ele>1990.3859</ele>
        <time>2014-08-27T16:58:35Z</time>
      </trkpt>
      <trkpt lat="46.352" lon="6.72676">
        <ele>1990.3859</ele>
        <time>2014-08-27T16:58:40Z</time>
      </trkpt>
      <trkpt lat="46.35201" lon="6.72678">
        <ele>1990.3859</ele>
        <time>2014-08-27T16:58:45Z</time>
      </trkpt>
      <trkpt lat="46.352" lon="6.72679">
        <ele>1990.3859</ele>
        <time>2014-08-27T16:58:50Z</time>
      </trkpt>
      <trkpt lat="46.352" lon="6.7268">
        <ele>1990.3859</ele>
        <time>2014-08-27T16:58:55Z</time>
      </trkpt>
      <trkpt lat="46.35201" lon="6.7268">
        <ele>1990.3859</ele>
        <time>2014-08-27T16:59:10Z</time>
      </trkpt>
      <trkpt lat="46.35201" lon="6.72679">
        <ele>1990.3859</ele>
        <time>2014-08-27T16:59:15Z</time>
      </trkpt>
      <trkpt lat="46.35202" lon="6.72679">
        <ele>1990.3859</ele>
        <time>2014-08-27T16:59:20Z</time>
      </trkpt>
      <trkpt lat="46.35202" lon="6.72679">
        <ele>1990.3859</ele>
        <time>2014-08-27T16:59:25Z</time>
      </trkpt>
      <trkpt lat="46.35203" lon="6.72679">
        <ele>1990.3859</ele>
        <time>2014-08-27T16:59:40Z</time>
      </trkpt>
      <trkpt lat="46.35203" lon="6.72679">
        <ele>1990.3859</ele>
        <time>2014-08-27T16:59:45Z</time>
      </trkpt>
      <trkpt lat="46.35204" lon="6.7268">
        <ele>1990.3859</ele>
        <time>2014-08-27T17:00:10Z</time>
      </trkpt>
      <trkpt lat="46.35204" lon="6.7268">
        <ele>1990.3859</ele>
        <time>2014-08-27T17:00:15Z</time>
      </trkpt>
      <trkpt lat="46.35204" lon="6.72681">
        <ele>1997.3263</ele>
        <time>2014-08-27T17:00:35Z</time>
      </trkpt>
      <trkpt lat="46.35204" lon="6.72681">
        <ele>1997.3263</ele>
        <time>2014-08-27T17:00:40Z</time>
      </trkpt>
      <trkpt lat="46.35204" lon="6.72682">
        <ele>1997.3263</ele>
        <time>2014-08-27T17:01:00Z</time>
      </trkpt>
      <trkpt lat="46.35204" lon="6.72686">
        <ele>1997.3263</ele>
        <time>2014-08-27T17:01:05Z</time>
      </trkpt>
      <trkpt lat="46.35204" lon="6.72686">
        <ele>1997.3263</ele>
        <time>2014-08-27T17:01:10Z</time>
      </trkpt>
      <trkpt lat="46.35207" lon="6.72687">
        <ele>1997.3263</ele>
        <time>2014-08-27T17:01:50Z</time>
      </trkpt>
      <trkpt lat="46.35208" lon="6.72687">
        <ele>1997.3263</ele>
        <time>2014-08-27T17:01:55Z</time>
      </trkpt>
      <trkpt lat="46.35208" lon="6.72687">
        <ele>1997.3263</ele>
        <time>2014-08-27T17:02:00Z</time>
      </trkpt>
      <trkpt lat="46.35208" lon="6.7269">
        <ele>2004.2396</ele>
        <time>2014-08-27T17:02:25Z</time>
      </trkpt>
      <trkpt lat="46.35209" lon="6.72694">
        <ele>2004.2396</ele>
        <time>2014-08-27T17:02:30Z</time>
      </trkpt>
      <trkpt lat="46.35209" lon="6.72694">
        <ele>2004.2396</ele>
        <time>2014-08-27T17:02:35Z</time>
      </trkpt>
      <trkpt lat="46.35209" lon="6.727">
        <ele>2004.2396</ele>
        <time>2014-08-27T17:02:50Z</time>
      </trkpt>
      <trkpt lat="46.35209" lon="6.727">
        <ele>2004.2396</ele>
        <time>2014-08-27T17:02:55Z</time>
      </trkpt>
      <trkpt lat="46.3521" lon="6.72702">
        <ele>2011.1587</ele>
        <time>2014-08-27T17:03:00Z</time>
      </trkpt>
      <trkpt lat="46.3521" lon="6.72702">
        <ele>2011.1587</ele>
        <time>2014-08-27T17:03:05Z</time>
      </trkpt>
      <trkpt lat="46.35209" lon="6.72703">
        <ele>2011.1587</ele>
        <time>2014-08-27T17:03:45Z</time>
      </trkpt>
      <trkpt lat="46.35208" lon="6.72705">
        <ele>2011.1587</ele>
        <time>2014-08-27T17:04:00Z</time>
      </trkpt>
      <trkpt lat="46.35208" lon="6.72705">
        <ele>2011.1587</ele>
        <time>2014-08-27T17:04:05Z</time>
      </trkpt>
      <trkpt lat="46.35209" lon="6.72706">
        <ele>2011.1587</ele>
        <time>2014-08-27T17:04:10Z</time>
      </trkpt>
      <trkpt lat="46.35209" lon="6.72706">
        <ele>2011.1587</ele>
        <time>2014-08-27T17:04:15Z</time>
      </trkpt>
      <trkpt lat="46.35209" lon="6.72706">
        <ele>2011.1587</ele>
        <time>2014-08-27T17:04:20Z</time>
      </trkpt>
      <trkpt lat="46.35208" lon="6.72709">
        <ele>2011.1587</ele>
        <time>2014-08-27T17:04:30Z</time>
      </trkpt>
      <trkpt lat="46.35205" lon="6.72715">
        <ele>2020.694</ele>
        <time>2014-08-27T17:04:35Z</time>
      </trkpt>
      <trkpt lat="46.35205" lon="6.72719">
        <ele>2020.694</ele>
        <time>2014-08-27T17:04:40Z</time>
      </trkpt>
      <trkpt lat="46.35206" lon="6.72721">
        <ele>2020.694</ele>
        <time>2014-08-27T17:04:45Z</time>
      </trkpt>
      <trkpt lat="46.35207" lon="6.72724">
        <ele>2020.694</ele>
        <time>2014-08-27T17:04:50Z</time>
      </trkpt>
      <trkpt lat="46.35206" lon="6.72726">
        <ele>2020.694</ele>
        <time>2014-08-27T17:04:55Z</time>
      </trkpt>
      <trkpt lat="46.35205" lon="6.72729">
        <ele>2029.4204</ele>
        <time>2014-08-27T17:05:00Z</time>
      </trkpt>
      <trkpt lat="46.35205" lon="6.7273">
        <ele>2029.4204</ele>
        <time>2014-08-27T17:05:05Z</time>
      </trkpt>
      <trkpt lat="46.35206" lon="6.72731">
        <ele>2029.4204</ele>
        <time>2014-08-27T17:05:10Z</time>
      </trkpt>
      <trkpt lat="46.35207" lon="6.7273">
        <ele>2029.4204</ele>
        <time>2014-08-27T17:05:15Z</time>
      </trkpt>
      <trkpt lat="46.35208" lon="6.72729">
        <ele>2029.4204</ele>
        <time>2014-08-27T17:05:20Z</time>
      </trkpt>
      <trkpt lat="46.3521" lon="6.72728">
        <ele>2029.4204</ele>
        <time>2014-08-27T17:05:25Z</time>
      </trkpt>
      <trkpt lat="46.35212" lon="6.72726">
        <ele>2029.4204</ele>
        <time>2014-08-27T17:05:30Z</time>
      </trkpt>
      <trkpt lat="46.35212" lon="6.72726">
        <ele>2029.4204</ele>
        <time>2014-08-27T17:05:35Z</time>
      </trkpt>
      <trkpt lat="46.35213" lon="6.72727">
        <ele>2037.467</ele>
        <time>2014-08-27T17:05:55Z</time>
      </trkpt>
      <trkpt lat="46.35212" lon="6.72729">
        <ele>2037.467</ele>
        <time>2014-08-27T17:06:00Z</time>
      </trkpt>
      <trkpt lat="46.35213" lon="6.72731">
        <ele>2037.467</ele>
        <time>2014-08-27T17:06:05Z</time>
      </trkpt>
      <trkpt lat="46.35215" lon="6.72731">
        <ele>2037.467</ele>
        <time>2014-08-27T17:06:10Z</time>
      </trkpt>
      <trkpt lat="46.35216" lon="6.7273">
        <ele>2037.467</ele>
        <time>2014-08-27T17:06:15Z</time>
      </trkpt>
      <trkpt lat="46.35217" lon="6.72728">
        <ele>2037.467</ele>
        <time>2014-08-27T17:06:20Z</time>
      </trkpt>
      <trkpt lat="46.35219" lon="6.72729">
        <ele>2045.0854</ele>
        <time>2014-08-27T17:06:25Z</time>
      </trkpt>
      <trkpt lat="46.35219" lon="6.72731">
        <ele>2045.0854</ele>
        <time>2014-08-27T17:06:30Z</time>
      </trkpt>
      <trkpt lat="46.3522" lon="6.72732">
        <ele>2045.0854</ele>
        <time>2014-08-27T17:06:35Z</time>
      </trkpt>
      <trkpt lat="46.35222" lon="6.72732">
        <ele>2045.0854</ele>
        <time>2014-08-27T17:06:40Z</time>
      </trkpt>
      <trkpt lat="46.35224" lon="6.7273">
        <ele>2045.0854</ele>
        <time>2014-08-27T17:06:45Z</time>
      </trkpt>
      <trkpt lat="46.35224" lon="6.7273">
        <ele>2045.0854</ele>
        <time>2014-08-27T17:06:50Z</time>
      </trkpt>
      <trkpt lat="46.35224" lon="6.72731">
        <ele>2045.0854</ele>
        <time>2014-08-27T17:07:10Z</time>
      </trkpt>
      <trkpt lat="46.35225" lon="6.72732">
        <ele>2045.0854</ele>
        <time>2014-08-27T17:07:15Z</time>
      </trkpt>
      <trkpt lat="46.35225" lon="6.72731">
        <ele>2045.0854</ele>
        <time>2014-08-27T17:07:20Z</time>
      </trkpt>
      <trkpt lat="46.35226" lon="6.72732">
        <ele>2051.732</ele>
        <time>2014-08-27T17:07:35Z</time>
      </trkpt>
      <trkpt lat="46.35226" lon="6.72733">
        <ele>2051.732</ele>
        <time>2014-08-27T17:07:40Z</time>
      </trkpt>
      <trkpt lat="46.35226" lon="6.72734">
        <ele>2051.732</ele>
        <time>2014-08-27T17:07:45Z</time>
      </trkpt>
      <trkpt lat="46.35228" lon="6.72736">
        <ele>2051.732</ele>
        <time>2014-08-27T17:07:50Z</time>
      </trkpt>
      <trkpt lat="46.35228" lon="6.72736">
        <ele>2051.732</ele>
        <time>2014-08-27T17:07:55Z</time>
      </trkpt>
      <trkpt lat="46.35228" lon="6.72736">
        <ele>2051.732</ele>
        <time>2014-08-27T17:08:00Z</time>
      </trkpt>
      <trkpt lat="46.35228" lon="6.72736">
        <ele>2051.732</ele>
        <time>2014-08-27T17:08:05Z</time>
      </trkpt>
      <trkpt lat="46.35228" lon="6.72737">
        <ele>2051.732</ele>
        <time>2014-08-27T17:08:10Z</time>
      </trkpt>
      <trkpt lat="46.35227" lon="6.72737">
        <ele>2051.732</ele>
        <time>2014-08-27T17:08:15Z</time>
      </trkpt>
      <trkpt lat="46.35227" lon="6.72736">
        <ele>2051.732</ele>
        <time>2014-08-27T17:08:20Z</time>
      </trkpt>
      <trkpt lat="46.35227" lon="6.72737">
        <ele>2051.732</ele>
        <time>2014-08-27T17:08:25Z</time>
      </trkpt>
      <trkpt lat="46.35227" lon="6.72737">
        <ele>2051.732</ele>
        <time>2014-08-27T17:08:30Z</time>
      </trkpt>
      <trkpt lat="46.35228" lon="6.72737">
        <ele>2051.732</ele>
        <time>2014-08-27T17:08:35Z</time>
      </trkpt>
      <trkpt lat="46.35227" lon="6.72741">
        <ele>2057.7563</ele>
        <time>2014-08-27T17:08:40Z</time>
      </trkpt>
      <trkpt lat="46.35226" lon="6.72743">
        <ele>2057.7563</ele>
        <time>2014-08-27T17:08:45Z</time>
      </trkpt>
      <trkpt lat="46.35226" lon="6.72743">
        <ele>2057.7563</ele>
        <time>2014-08-27T17:08:50Z</time>
      </trkpt>
      <trkpt lat="46.35227" lon="6.72742">
        <ele>2057.7563</ele>
        <time>2014-08-27T17:08:55Z</time>
      </trkpt>
      <trkpt lat="46.35227" lon="6.72744">
        <ele>2057.7563</ele>
        <time>2014-08-27T17:09:00Z</time>
      </trkpt>
      <trkpt lat="46.35227" lon="6.72745">
        <ele>2057.7563</ele>
        <time>2014-08-27T17:09:05Z</time>
      </trkpt>
      <trkpt lat="46.35227" lon="6.72745">
        <ele>2057.7563</ele>
        <time>2014-08-27T17:09:10Z</time>
      </trkpt>
      <trkpt lat="46.35227" lon="6.72746">
        <ele>2057.7563</ele>
        <time>2014-08-27T17:09:15Z</time>
      </trkpt>
      <trkpt lat="46.35227" lon="6.72747">
        <ele>2057.7563</ele>
        <time>2014-08-27T17:09:20Z</time>
      </trkpt>
      <trkpt lat="46.35226" lon="6.72751">
        <ele>2062.85</ele>
        <time>2014-08-27T17:09:25Z</time>
      </trkpt>
      <trkpt lat="46.35227" lon="6.72753">
        <ele>2062.85</ele>
        <time>2014-08-27T17:09:30Z</time>
      </trkpt>
      <trkpt lat="46.35226" lon="6.72753">
        <ele>2062.85</ele>
        <time>2014-08-27T17:09:35Z</time>
      </trkpt>
      <trkpt lat="46.35225" lon="6.72752">
        <ele>2062.85</ele>
        <time>2014-08-27T17:09:40Z</time>
      </trkpt>
      <trkpt lat="46.35229" lon="6.72753">
        <ele>2062.85</ele>
        <time>2014-08-27T17:09:45Z</time>
      </trkpt>
      <trkpt lat="46.35229" lon="6.72753">
        <ele>2062.85</ele>
        <time>2014-08-27T17:09:50Z</time>
      </trkpt>
      <trkpt lat="46.35229" lon="6.72753">
        <ele>2062.85</ele>
        <time>2014-08-27T17:09:55Z</time>
      </trkpt>
      <trkpt lat="46.35231" lon="6.72754">
        <ele>2062.85</ele>
        <time>2014-08-27T17:10:00Z</time>
      </trkpt>
      <trkpt lat="46.35231" lon="6.72754">
        <ele>2062.85</ele>
        <time>2014-08-27T17:10:05Z</time>
      </trkpt>
      <trkpt lat="46.35231" lon="6.72755">
        <ele>2066.904</ele>
        <time>2014-08-27T17:10:10Z</time>
      </trkpt>
      <trkpt lat="46.35231" lon="6.72756">
        <ele>2066.904</ele>
        <time>2014-08-27T17:10:15Z</time>
      </trkpt>
      <trkpt lat="46.35233" lon="6.72753">
        <ele>2066.904</ele>
        <time>2014-08-27T17:10:20Z</time>
      </trkpt>
      <trkpt lat="46.35237" lon="6.72754">
        <ele>2066.904</ele>
        <time>2014-08-27T17:10:25Z</time>
      </trkpt>
      <trkpt lat="46.35237" lon="6.72755">
        <ele>2066.904</ele>
        <time>2014-08-27T17:10:30Z</time>
      </trkpt>
      <trkpt lat="46.35238" lon="6.72755">
        <ele>2070.1653</ele>
        <time>2014-08-27T17:10:35Z</time>
      </trkpt>
      <trkpt lat="46.35238" lon="6.72754">
        <ele>2070.1653</ele>
        <time>2014-08-27T17:10:40Z</time>
      </trkpt>
      <trkpt lat="46.35237" lon="6.72754">
        <ele>2070.1653</ele>
        <time>2014-08-27T17:10:45Z</time>
      </trkpt>
      <trkpt lat="46.35234" lon="6.72755">
        <ele>2070.1653</ele>
        <time>2014-08-27T17:10:50Z</time>
      </trkpt>
      <trkpt lat="46.35232" lon="6.72758">
        <ele>2070.1653</ele>
        <time>2014-08-27T17:10:55Z</time>
      </trkpt>
      <trkpt lat="46.35234" lon="6.72758">
        <ele>2070.1653</ele>
        <time>2014-08-27T17:11:00Z</time>
      </trkpt>
      <trkpt lat="46.35234" lon="6.72757">
        <ele>2072.938</ele>
        <time>2014-08-27T17:11:05Z</time>
      </trkpt>
      <trkpt lat="46.35237" lon="6.72756">
        <ele>2072.938</ele>
        <time>2014-08-27T17:11:10Z</time>
      </trkpt>
      <trkpt lat="46.35239" lon="6.72756">
        <ele>2072.938</ele>
        <time>2014-08-27T17:11:15Z</time>
      </trkpt>
      <trkpt lat="46.35239" lon="6.72754">
        <ele>2072.938</ele>
        <time>2014-08-27T17:11:20Z</time>
      </trkpt>
      <trkpt lat="46.3524" lon="6.72752">
        <ele>2072.938</ele>
        <time>2014-08-27T17:11:25Z</time>
      </trkpt>
      <trkpt lat="46.3524" lon="6.72753">
        <ele>2072.938</ele>
        <time>2014-08-27T17:11:30Z</time>
      </trkpt>
      <trkpt lat="46.35236" lon="6.72754">
        <ele>2075.6782</ele>
        <time>2014-08-27T17:11:35Z</time>
      </trkpt>
      <trkpt lat="46.35236" lon="6.72756">
        <ele>2075.6782</ele>
        <time>2014-08-27T17:11:40Z</time>
      </trkpt>
      <trkpt lat="46.35236" lon="6.72756">
        <ele>2075.6782</ele>
        <time>2014-08-27T17:11:45Z</time>
      </trkpt>
      <trkpt lat="46.35236" lon="6.72756">
        <ele>2075.6782</ele>
        <time>2014-08-27T17:11:50Z</time>
      </trkpt>
      <trkpt lat="46.35238" lon="6.72756">
        <ele>2075.6782</ele>
        <time>2014-08-27T17:11:55Z</time>
      </trkpt>
      <trkpt lat="46.35239" lon="6.72756">
        <ele>2075.6782</ele>
        <time>2014-08-27T17:12:00Z</time>
      </trkpt>
      <trkpt lat="46.3524" lon="6.72755">
        <ele>2075.6782</ele>
        <time>2014-08-27T17:12:05Z</time>
      </trkpt>
      <trkpt lat="46.35241" lon="6.72755">
        <ele>2075.6782</ele>
        <time>2014-08-27T17:12:10Z</time>
      </trkpt>
      <trkpt lat="46.35242" lon="6.72755">
        <ele>2075.6782</ele>
        <time>2014-08-27T17:12:15Z</time>
      </trkpt>
      <trkpt lat="46.35241" lon="6.72756">
        <ele>2075.6782</ele>
        <time>2014-08-27T17:12:20Z</time>
      </trkpt>
      <trkpt lat="46.35241" lon="6.72757">
        <ele>2078.117</ele>
        <time>2014-08-27T17:12:25Z</time>
      </trkpt>
      <trkpt lat="46.35239" lon="6.72762">
        <ele>2078.117</ele>
        <time>2014-08-27T17:12:30Z</time>
      </trkpt>
      <trkpt lat="46.3524" lon="6.72763">
        <ele>2078.117</ele>
        <time>2014-08-27T17:12:35Z</time>
      </trkpt>
      <trkpt lat="46.35241" lon="6.72765">
        <ele>2078.117</ele>
        <time>2014-08-27T17:12:40Z</time>
      </trkpt>
      <trkpt lat="46.35241" lon="6.72765">
        <ele>2078.117</ele>
        <time>2014-08-27T17:12:45Z</time>
      </trkpt>
      <trkpt lat="46.35242" lon="6.72763">
        <ele>2078.117</ele>
        <time>2014-08-27T17:12:50Z</time>
      </trkpt>
      <trkpt lat="46.35245" lon="6.72762">
        <ele>2079.9631</ele>
        <time>2014-08-27T17:12:55Z</time>
      </trkpt>
      <trkpt lat="46.35247" lon="6.72759">
        <ele>2079.9631</ele>
        <time>2014-08-27T17:13:00Z</time>
      </trkpt>
      <trkpt lat="46.35247" lon="6.72758">
        <ele>2079.9631</ele>
        <time>2014-08-27T17:13:05Z</time>
      </trkpt>
      <trkpt lat="46.35248" lon="6.72757">
        <ele>2079.9631</ele>
        <time>2014-08-27T17:13:10Z</time>
      </trkpt>
      <trkpt lat="46.35248" lon="6.72757">
        <ele>2079.9631</ele>
        <time>2014-08-27T17:13:15Z</time>
      </trkpt>
      <trkpt lat="46.35248" lon="6.72758">
        <ele>2079.9631</ele>
        <time>2014-08-27T17:13:20Z</time>
      </trkpt>
      <trkpt lat="46.35248" lon="6.72759">
        <ele>2079.9631</ele>
        <time>2014-08-27T17:13:25Z</time>
      </trkpt>
      <trkpt lat="46.35249" lon="6.72759">
        <ele>2079.9631</ele>
        <time>2014-08-27T17:13:30Z</time>
      </trkpt>
      <trkpt lat="46.35249" lon="6.72759">
        <ele>2079.9631</ele>
        <time>2014-08-27T17:13:35Z</time>
      </trkpt>
      <trkpt lat="46.35249" lon="6.72759">
        <ele>2079.9631</ele>
        <time>2014-08-27T17:13:40Z</time>
      </trkpt>
      <trkpt lat="46.35249" lon="6.7276">
        <ele>2079.9631</ele>
        <time>2014-08-27T17:13:45Z</time>
      </trkpt>
      <trkpt lat="46.35249" lon="6.7276">
        <ele>2079.9631</ele>
        <time>2014-08-27T17:13:50Z</time>
      </trkpt>
      <trkpt lat="46.35249" lon="6.7276">
        <ele>2079.9631</ele>
        <time>2014-08-27T17:13:55Z</time>
      </trkpt>
      <trkpt lat="46.35249" lon="6.72761">
        <ele>2079.9631</ele>
        <time>2014-08-27T17:14:00Z</time>
      </trkpt>
      <trkpt lat="46.35249" lon="6.72761">
        <ele>2079.9631</ele>
        <time>2014-08-27T17:14:05Z</time>
      </trkpt>
      <trkpt lat="46.35249" lon="6.72761">
        <ele>2079.9631</ele>
        <time>2014-08-27T17:14:10Z</time>
      </trkpt>
      <trkpt lat="46.35249" lon="6.72761">
        <ele>2079.9631</ele>
        <time>2014-08-27T17:14:15Z</time>
      </trkpt>
      <trkpt lat="46.3525" lon="6.72761">
        <ele>2079.9631</ele>
        <time>2014-08-27T17:14:20Z</time>
      </trkpt>
      <trkpt lat="46.3525" lon="6.72761">
        <ele>2079.9631</ele>
        <time>2014-08-27T17:14:25Z</time>
      </trkpt>
      <trkpt lat="46.3525" lon="6.72761">
        <ele>2079.9631</ele>
        <time>2014-08-27T17:14:30Z</time>
      </trkpt>
      <trkpt lat="46.3525" lon="6.7276">
        <ele>2081.2517</ele>
        <time>2014-08-27T17:14:50Z</time>
      </trkpt>
      <trkpt lat="46.3525" lon="6.7276">
        <ele>2081.2517</ele>
        <time>2014-08-27T17:14:55Z</time>
      </trkpt>
      <trkpt lat="46.35251" lon="6.72759">
        <ele>2081.2517</ele>
        <time>2014-08-27T17:15:35Z</time>
      </trkpt>
      <trkpt lat="46.35252" lon="6.72759">
        <ele>2081.2517</ele>
        <time>2014-08-27T17:15:40Z</time>
      </trkpt>
      <trkpt lat="46.35252" lon="6.72759">
        <ele>2081.2517</ele>
        <time>2014-08-27T17:15:45Z</time>
      </trkpt>
      <trkpt lat="46.35253" lon="6.72759">
        <ele>2081.2517</ele>
        <time>2014-08-27T17:15:55Z</time>
      </trkpt>
      <trkpt lat="46.35253" lon="6.72759">
        <ele>2081.2517</ele>
        <time>2014-08-27T17:16:00Z</time>
      </trkpt>
      <trkpt lat="46.35252" lon="6.7276">
        <ele>2081.2517</ele>
        <time>2014-08-27T17:16:10Z</time>
      </trkpt>
      <trkpt lat="46.35253" lon="6.7276">
        <ele>2081.2517</ele>
        <time>2014-08-27T17:16:15Z</time>
      </trkpt>
      <trkpt lat="46.35253" lon="6.7276">
        <ele>2081.2517</ele>
        <time>2014-08-27T17:16:20Z</time>
      </trkpt>
      <trkpt lat="46.35255" lon="6.72762">
        <ele>2081.2517</ele>
        <time>2014-08-27T17:16:25Z</time>
      </trkpt>
      <trkpt lat="46.35255" lon="6.72762">
        <ele>2081.2517</ele>
        <time>2014-08-27T17:16:30Z</time>
      </trkpt>
      <trkpt lat="46.35255" lon="6.72762">
        <ele>2081.2517</ele>
        <time>2014-08-27T17:16:35Z</time>
      </trkpt>
      <trkpt lat="46.35255" lon="6.72762">
        <ele>2082.6067</ele>
        <time>2014-08-27T17:16:40Z</time>
      </trkpt>
      <trkpt lat="46.35253" lon="6.72763">
        <ele>2082.6067</ele>
        <time>2014-08-27T17:16:45Z</time>
      </trkpt>
      <trkpt lat="46.35252" lon="6.72764">
        <ele>2082.6067</ele>
        <time>2014-08-27T17:16:50Z</time>
      </trkpt>
      <trkpt lat="46.35251" lon="6.72764">
        <ele>2082.6067</ele>
        <time>2014-08-27T17:16:55Z</time>
      </trkpt>
      <trkpt lat="46.35251" lon="6.72765">
        <ele>2082.6067</ele>
        <time>2014-08-27T17:17:00Z</time>
      </trkpt>
      <trkpt lat="46.35249" lon="6.72764">
        <ele>2082.6067</ele>
        <time>2014-08-27T17:17:05Z</time>
      </trkpt>
      <trkpt lat="46.35248" lon="6.72765">
        <ele>2082.6067</ele>
        <time>2014-08-27T17:17:10Z</time>
      </trkpt>
      <trkpt lat="46.35247" lon="6.72767">
        <ele>2082.6067</ele>
        <time>2014-08-27T17:17:15Z</time>
      </trkpt>
      <trkpt lat="46.35247" lon="6.72767">
        <ele>2082.6067</ele>
        <time>2014-08-27T17:17:20Z</time>
      </trkpt>
      <trkpt lat="46.35247" lon="6.72767">
        <ele>2082.6067</ele>
        <time>2014-08-27T17:17:25Z</time>
      </trkpt>
      <trkpt lat="46.35248" lon="6.72768">
        <ele>2084.031</ele>
        <time>2014-08-27T17:17:30Z</time>
      </trkpt>
      <trkpt lat="46.35249" lon="6.72767">
        <ele>2084.031</ele>
        <time>2014-08-27T17:17:35Z</time>
      </trkpt>
      <trkpt lat="46.35249" lon="6.72767">
        <ele>2084.031</ele>
        <time>2014-08-27T17:17:40Z</time>
      </trkpt>
      <trkpt lat="46.3525" lon="6.72767">
        <ele>2084.031</ele>
        <time>2014-08-27T17:17:45Z</time>
      </trkpt>
      <trkpt lat="46.3525" lon="6.72768">
        <ele>2084.031</ele>
        <time>2014-08-27T17:17:50Z</time>
      </trkpt>
      <trkpt lat="46.3525" lon="6.72769">
        <ele>2084.031</ele>
        <time>2014-08-27T17:17:55Z</time>
      </trkpt>
      <trkpt lat="46.35249" lon="6.72769">
        <ele>2084.031</ele>
        <time>2014-08-27T17:18:00Z</time>
      </trkpt>
      <trkpt lat="46.35248" lon="6.72771">
        <ele>2084.031</ele>
        <time>2014-08-27T17:18:05Z</time>
      </trkpt>
      <trkpt lat="46.35248" lon="6.72772">
        <ele>2084.031</ele>
        <time>2014-08-27T17:18:10Z</time>
      </trkpt>
      <trkpt lat="46.35248" lon="6.72771">
        <ele>2084.031</ele>
        <time>2014-08-27T17:18:15Z</time>
      </trkpt>
      <trkpt lat="46.35248" lon="6.72772">
        <ele>2084.031</ele>
        <time>2014-08-27T17:18:20Z</time>
      </trkpt>
      <trkpt lat="46.35248" lon="6.72773">
        <ele>2086.074</ele>
        <time>2014-08-27T17:18:25Z</time>
      </trkpt>
      <trkpt lat="46.35248" lon="6.72773">
        <ele>2086.074</ele>
        <time>2014-08-27T17:18:30Z</time>
      </trkpt>
      <trkpt lat="46.35249" lon="6.72773">
        <ele>2086.074</ele>
        <time>2014-08-27T17:18:35Z</time>
      </trkpt>
      <trkpt lat="46.35249" lon="6.72773">
        <ele>2086.074</ele>
        <time>2014-08-27T17:18:40Z</time>
      </trkpt>
      <trkpt lat="46.35249" lon="6.72775">
        <ele>2086.074</ele>
        <time>2014-08-27T17:18:45Z</time>
      </trkpt>
      <trkpt lat="46.35249" lon="6.72774">
        <ele>2086.074</ele>
        <time>2014-08-27T17:18:50Z</time>
      </trkpt>
      <trkpt lat="46.35249" lon="6.72774">
        <ele>2086.074</ele>
        <time>2014-08-27T17:18:55Z</time>
      </trkpt>
      <trkpt lat="46.35251" lon="6.72775">
        <ele>2086.074</ele>
        <time>2014-08-27T17:19:00Z</time>
      </trkpt>
      <trkpt lat="46.35252" lon="6.72776">
        <ele>2086.074</ele>
        <time>2014-08-27T17:19:05Z</time>
      </trkpt>
      <trkpt lat="46.35252" lon="6.72777">
        <ele>2086.074</ele>
        <time>2014-08-27T17:19:10Z</time>
      </trkpt>
      <trkpt lat="46.35253" lon="6.72777">
        <ele>2086.074</ele>
        <time>2014-08-27T17:19:15Z</time>
      </trkpt>
      <trkpt lat="46.35257" lon="6.72777">
        <ele>2087.8596</ele>
        <time>2014-08-27T17:19:20Z</time>
      </trkpt>
      <trkpt lat="46.35257" lon="6.72778">
        <ele>2087.8596</ele>
        <time>2014-08-27T17:19:25Z</time>
      </trkpt>
      <trkpt lat="46.35259" lon="6.7278">
        <ele>2087.8596</ele>
        <time>2014-08-27T17:19:30Z</time>
      </trkpt>
      <trkpt lat="46.35259" lon="6.7278">
        <ele>2087.8596</ele>
        <time>2014-08-27T17:19:35Z</time>
      </trkpt>
      <trkpt lat="46.3526" lon="6.7278">
        <ele>2087.8596</ele>
        <time>2014-08-27T17:19:40Z</time>
      </trkpt>
      <trkpt lat="46.35259" lon="6.72778">
        <ele>2087.8596</ele>
        <time>2014-08-27T17:19:45Z</time>
      </trkpt>
      <trkpt lat="46.35258" lon="6.72776">
        <ele>2087.8596</ele>
        <time>2014-08-27T17:19:50Z</time>
      </trkpt>
      <trkpt lat="46.35257" lon="6.72774">
        <ele>2089.2834</ele>
        <time>2014-08-27T17:19:55Z</time>
      </trkpt>
      <trkpt lat="46.35257" lon="6.72773">
        <ele>2089.2834</ele>
        <time>2014-08-27T17:20:00Z</time>
      </trkpt>
      <trkpt lat="46.35256" lon="6.72772">
        <ele>2089.2834</ele>
        <time>2014-08-27T17:20:05Z</time>
      </trkpt>
      <trkpt lat="46.35256" lon="6.72772">
        <ele>2089.2834</ele>
        <time>2014-08-27T17:20:10Z</time>
      </trkpt>
      <trkpt lat="46.35257" lon="6.72771">
        <ele>2089.2834</ele>
        <time>2014-08-27T17:20:15Z</time>
      </trkpt>
      <trkpt lat="46.35257" lon="6.72771">
        <ele>2089.2834</ele>
        <time>2014-08-27T17:20:20Z</time>
      </trkpt>
      <trkpt lat="46.35258" lon="6.72772">
        <ele>2089.2834</ele>
        <time>2014-08-27T17:20:25Z</time>
      </trkpt>
      <trkpt lat="46.35259" lon="6.72773">
        <ele>2089.2834</ele>
        <time>2014-08-27T17:20:30Z</time>
      </trkpt>
      <trkpt lat="46.3526" lon="6.72773">
        <ele>2089.2834</ele>
        <time>2014-08-27T17:20:35Z</time>
      </trkpt>
      <trkpt lat="46.35261" lon="6.72773">
        <ele>2089.2834</ele>
        <time>2014-08-27T17:20:40Z</time>
      </trkpt>
      <trkpt lat="46.3526" lon="6.72774">
        <ele>2089.2834</ele>
        <time>2014-08-27T17:20:45Z</time>
      </trkpt>
      <trkpt lat="46.35259" lon="6.72774">
        <ele>2090.61</ele>
        <time>2014-08-27T17:20:50Z</time>
      </trkpt>
      <trkpt lat="46.35255" lon="6.72778">
        <ele>2090.61</ele>
        <time>2014-08-27T17:20:55Z</time>
      </trkpt>
      <trkpt lat="46.35254" lon="6.72779">
        <ele>2090.61</ele>
        <time>2014-08-27T17:21:00Z</time>
      </trkpt>
      <trkpt lat="46.35254" lon="6.7278">
        <ele>2090.61</ele>
        <time>2014-08-27T17:21:05Z</time>
      </trkpt>
      <trkpt lat="46.35254" lon="6.72779">
        <ele>2090.61</ele>
        <time>2014-08-27T17:21:10Z</time>
      </trkpt>
      <trkpt lat="46.35254" lon="6.72779">
        <ele>2090.61</ele>
        <time>2014-08-27T17:21:15Z</time>
      </trkpt>
      <trkpt lat="46.35254" lon="6.72779">
        <ele>2090.61</ele>
        <time>2014-08-27T17:21:20Z</time>
      </trkpt>
      <trkpt lat="46.35253" lon="6.72778">
        <ele>2090.61</ele>
        <time>2014-08-27T17:21:25Z</time>
      </trkpt>
      <trkpt lat="46.35252" lon="6.72778">
        <ele>2090.61</ele>
        <time>2014-08-27T17:21:30Z</time>
      </trkpt>
      <trkpt lat="46.35252" lon="6.72781">
        <ele>2092.2573</ele>
        <time>2014-08-27T17:21:35Z</time>
      </trkpt>
      <trkpt lat="46.35253" lon="6.72784">
        <ele>2092.2573</ele>
        <time>2014-08-27T17:21:40Z</time>
      </trkpt>
      <trkpt lat="46.35252" lon="6.72785">
        <ele>2092.2573</ele>
        <time>2014-08-27T17:21:45Z</time>
      </trkpt>
      <trkpt lat="46.35251" lon="6.72787">
        <ele>2092.2573</ele>
        <time>2014-08-27T17:21:50Z</time>
      </trkpt>
      <trkpt lat="46.35251" lon="6.72785">
        <ele>2092.2573</ele>
        <time>2014-08-27T17:21:55Z</time>
      </trkpt>
      <trkpt lat="46.3525" lon="6.72783">
        <ele>2092.2573</ele>
        <time>2014-08-27T17:22:00Z</time>
      </trkpt>
      <trkpt lat="46.3525" lon="6.72782">
        <ele>2092.2573</ele>
        <time>2014-08-27T17:22:05Z</time>
      </trkpt>
      <trkpt lat="46.3525" lon="6.72782">
        <ele>2092.2573</ele>
        <time>2014-08-27T17:22:10Z</time>
      </trkpt>
      <trkpt lat="46.3525" lon="6.72782">
        <ele>2092.2573</ele>
        <time>2014-08-27T17:22:15Z</time>
      </trkpt>
      <trkpt lat="46.3525" lon="6.72783">
        <ele>2093.9487</ele>
        <time>2014-08-27T17:22:23Z</time>
      </trkpt>
      <trkpt lat="46.3525" lon="6.72783">
        <ele>2093.9487</ele>
        <time>2014-08-27T17:22:25Z</time>
      </trkpt>
      <trkpt lat="46.3525" lon="6.72783">
        <ele>2093.9487</ele>
        <time>2014-08-27T17:22:30Z</time>
      </trkpt>
      <trkpt lat="46.35251" lon="6.72783">
        <ele>2093.9487</ele>
        <time>2014-08-27T17:22:35Z</time>
      </trkpt>
      <trkpt lat="46.35252" lon="6.72783">
        <ele>2093.9487</ele>
        <time>2014-08-27T17:22:40Z</time>
      </trkpt>
      <trkpt lat="46.35253" lon="6.72784">
        <ele>2093.9487</ele>
        <time>2014-08-27T17:22:45Z</time>
      </trkpt>
      <trkpt lat="46.35254" lon="6.72784">
        <ele>2093.9487</ele>
        <time>2014-08-27T17:22:50Z</time>
      </trkpt>
      <trkpt lat="46.35254" lon="6.72784">
        <ele>2093.9487</ele>
        <time>2014-08-27T17:22:55Z</time>
      </trkpt>
      <trkpt lat="46.35255" lon="6.72783">
        <ele>2093.9487</ele>
        <time>2014-08-27T17:23:00Z</time>
      </trkpt>
      <trkpt lat="46.35258" lon="6.72786">
        <ele>2095.313</ele>
        <time>2014-08-27T17:23:05Z</time>
      </trkpt>
      <trkpt lat="46.35259" lon="6.72787">
        <ele>2095.313</ele>
        <time>2014-08-27T17:23:10Z</time>
      </trkpt>
      <trkpt lat="46.35259" lon="6.72788">
        <ele>2095.313</ele>
        <time>2014-08-27T17:23:15Z</time>
      </trkpt>
      <trkpt lat="46.35259" lon="6.72788">
        <ele>2095.313</ele>
        <time>2014-08-27T17:23:20Z</time>
      </trkpt>
      <trkpt lat="46.35259" lon="6.7279">
        <ele>2095.313</ele>
        <time>2014-08-27T17:23:25Z</time>
      </trkpt>
      <trkpt lat="46.35259" lon="6.7279">
        <ele>2095.313</ele>
        <time>2014-08-27T17:23:30Z</time>
      </trkpt>
      <trkpt lat="46.35258" lon="6.72792">
        <ele>2095.313</ele>
        <time>2014-08-27T17:23:35Z</time>
      </trkpt>
      <trkpt lat="46.35257" lon="6.72795">
        <ele>2095.313</ele>
        <time>2014-08-27T17:23:40Z</time>
      </trkpt>
      <trkpt lat="46.35256" lon="6.72799">
        <ele>2096.6838</ele>
        <time>2014-08-27T17:23:45Z</time>
      </trkpt>
      <trkpt lat="46.35255" lon="6.728">
        <ele>2096.6838</ele>
        <time>2014-08-27T17:23:50Z</time>
      </trkpt>
      <trkpt lat="46.35255" lon="6.72801">
        <ele>2096.6838</ele>
        <time>2014-08-27T17:23:55Z</time>
      </trkpt>
      <trkpt lat="46.35255" lon="6.72801">
        <ele>2096.6838</ele>
        <time>2014-08-27T17:24:00Z</time>
      </trkpt>
      <trkpt lat="46.35255" lon="6.728">
        <ele>2096.6838</ele>
        <time>2014-08-27T17:24:05Z</time>
      </trkpt>
      <trkpt lat="46.35255" lon="6.728">
        <ele>2096.6838</ele>
        <time>2014-08-27T17:24:10Z</time>
      </trkpt>
      <trkpt lat="46.35256" lon="6.72799">
        <ele>2096.6838</ele>
        <time>2014-08-27T17:24:15Z</time>
      </trkpt>
      <trkpt lat="46.35256" lon="6.728">
        <ele>2096.6838</ele>
        <time>2014-08-27T17:24:20Z</time>
      </trkpt>
      <trkpt lat="46.35257" lon="6.72803">
        <ele>2096.6838</ele>
        <time>2014-08-27T17:24:25Z</time>
      </trkpt>
      <trkpt lat="46.35258" lon="6.72803">
        <ele>2096.6838</ele>
        <time>2014-08-27T17:24:30Z</time>
      </trkpt>
      <trkpt lat="46.35258" lon="6.72803">
        <ele>2096.6838</ele>
        <time>2014-08-27T17:24:35Z</time>
      </trkpt>
      <trkpt lat="46.35257" lon="6.72806">
        <ele>2098.169</ele>
        <time>2014-08-27T17:24:40Z</time>
      </trkpt>
      <trkpt lat="46.35257" lon="6.72807">
        <ele>2098.169</ele>
        <time>2014-08-27T17:24:45Z</time>
      </trkpt>
      <trkpt lat="46.35255" lon="6.72807">
        <ele>2098.169</ele>
        <time>2014-08-27T17:24:50Z</time>
      </trkpt>
      <trkpt lat="46.35254" lon="6.72807">
        <ele>2098.169</ele>
        <time>2014-08-27T17:24:55Z</time>
      </trkpt>
      <trkpt lat="46.35253" lon="6.72807">
        <ele>2098.169</ele>
        <time>2014-08-27T17:25:00Z</time>
      </trkpt>
      <trkpt lat="46.35253" lon="6.72807">
        <ele>2098.169</ele>
        <time>2014-08-27T17:25:05Z</time>
      </trkpt>
      <trkpt lat="46.35252" lon="6.72808">
        <ele>2098.169</ele>
        <time>2014-08-27T17:25:10Z</time>
      </trkpt>
      <trkpt lat="46.35252" lon="6.72809">
        <ele>2098.169</ele>
        <time>2014-08-27T17:25:15Z</time>
      </trkpt>
      <trkpt lat="46.35252" lon="6.72809">
        <ele>2098.169</ele>
        <time>2014-08-27T17:25:20Z</time>
      </trkpt>
      <trkpt lat="46.35252" lon="6.7281">
        <ele>2098.169</ele>
        <time>2014-08-27T17:25:25Z</time>
      </trkpt>
      <trkpt lat="46.35253" lon="6.72809">
        <ele>2098.169</ele>
        <time>2014-08-27T17:25:30Z</time>
      </trkpt>
      <trkpt lat="46.35252" lon="6.72809">
        <ele>2098.169</ele>
        <time>2014-08-27T17:25:35Z</time>
      </trkpt>
      <trkpt lat="46.35253" lon="6.72812">
        <ele>2099.7234</ele>
        <time>2014-08-27T17:25:40Z</time>
      </trkpt>
      <trkpt lat="46.35254" lon="6.72813">
        <ele>2099.7234</ele>
        <time>2014-08-27T17:25:45Z</time>
      </trkpt>
      <trkpt lat="46.35254" lon="6.72814">
        <ele>2099.7234</ele>
        <time>2014-08-27T17:25:50Z</time>
      </trkpt>
      <trkpt lat="46.35254" lon="6.72815">
        <ele>2099.7234</ele>
        <time>2014-08-27T17:25:55Z</time>
      </trkpt>
      <trkpt lat="46.35255" lon="6.72815">
        <ele>2099.7234</ele>
        <time>2014-08-27T17:26:00Z</time>
      </trkpt>
      <trkpt lat="46.35256" lon="6.72816">
        <ele>2099.7234</ele>
        <time>2014-08-27T17:26:05Z</time>
      </trkpt>
      <trkpt lat="46.35256" lon="6.72816">
        <ele>2099.7234</ele>
        <time>2014-08-27T17:26:10Z</time>
      </trkpt>
      <trkpt lat="46.35257" lon="6.72816">
        <ele>2099.7234</ele>
        <time>2014-08-27T17:26:15Z</time>
      </trkpt>
      <trkpt lat="46.35257" lon="6.72816">
        <ele>2099.7234</ele>
        <time>2014-08-27T17:26:20Z</time>
      </trkpt>
      <trkpt lat="46.35257" lon="6.72816">
        <ele>2099.7234</ele>
        <time>2014-08-27T17:26:25Z</time>
      </trkpt>
      <trkpt lat="46.35258" lon="6.72816">
        <ele>2099.7234</ele>
        <time>2014-08-27T17:26:30Z</time>
      </trkpt>
      <trkpt lat="46.35258" lon="6.72817">
        <ele>2099.7234</ele>
        <time>2014-08-27T17:26:35Z</time>
      </trkpt>
      <trkpt lat="46.35258" lon="6.72817">
        <ele>2099.7234</ele>
        <time>2014-08-27T17:26:40Z</time>
      </trkpt>
      <trkpt lat="46.35259" lon="6.72817">
        <ele>2099.7234</ele>
        <time>2014-08-27T17:26:50Z</time>
      </trkpt>
      <trkpt lat="46.35261" lon="6.72816">
        <ele>2101.9248</ele>
        <time>2014-08-27T17:26:55Z</time>
      </trkpt>
      <trkpt lat="46.3526" lon="6.72817">
        <ele>2101.9248</ele>
        <time>2014-08-27T17:27:00Z</time>
      </trkpt>
      <trkpt lat="46.35259" lon="6.72819">
        <ele>2101.9248</ele>
        <time>2014-08-27T17:27:05Z</time>
      </trkpt>
      <trkpt lat="46.35259" lon="6.7282">
        <ele>2101.9248</ele>
        <time>2014-08-27T17:27:10Z</time>
      </trkpt>
      <trkpt lat="46.3526" lon="6.7282">
        <ele>2101.9248</ele>
        <time>2014-08-27T17:27:15Z</time>
      </trkpt>
      <trkpt lat="46.35261" lon="6.72822">
        <ele>2101.9248</ele>
        <time>2014-08-27T17:27:20Z</time>
      </trkpt>
      <trkpt lat="46.35262" lon="6.72823">
        <ele>2101.9248</ele>
        <time>2014-08-27T17:27:25Z</time>
      </trkpt>
      <trkpt lat="46.35263" lon="6.72825">
        <ele>2104.0818</ele>
        <time>2014-08-27T17:27:30Z</time>
      </trkpt>
      <trkpt lat="46.35263" lon="6.72825">
        <ele>2104.0818</ele>
        <time>2014-08-27T17:27:35Z</time>
      </trkpt>
      <trkpt lat="46.35262" lon="6.72827">
        <ele>2104.0818</ele>
        <time>2014-08-27T17:27:40Z</time>
      </trkpt>
      <trkpt lat="46.35263" lon="6.72827">
        <ele>2104.0818</ele>
        <time>2014-08-27T17:27:45Z</time>
      </trkpt>
      <trkpt lat="46.35263" lon="6.72827">
        <ele>2104.0818</ele>
        <time>2014-08-27T17:27:50Z</time>
      </trkpt>
      <trkpt lat="46.35263" lon="6.72827">
        <ele>2104.0818</ele>
        <time>2014-08-27T17:27:55Z</time>
      </trkpt>
      <trkpt lat="46.35263" lon="6.72828">
        <ele>2104.0818</ele>
        <time>2014-08-27T17:28:00Z</time>
      </trkpt>
      <trkpt lat="46.35263" lon="6.72829">
        <ele>2104.0818</ele>
        <time>2014-08-27T17:28:05Z</time>
      </trkpt>
      <trkpt lat="46.35263" lon="6.72828">
        <ele>2104.0818</ele>
        <time>2014-08-27T17:28:10Z</time>
      </trkpt>
      <trkpt lat="46.35263" lon="6.72828">
        <ele>2104.0818</ele>
        <time>2014-08-27T17:28:15Z</time>
      </trkpt>
      <trkpt lat="46.35263" lon="6.72828">
        <ele>2104.0818</ele>
        <time>2014-08-27T17:28:20Z</time>
      </trkpt>
      <trkpt lat="46.35264" lon="6.72828">
        <ele>2104.0818</ele>
        <time>2014-08-27T17:28:25Z</time>
      </trkpt>
      <trkpt lat="46.35264" lon="6.72828">
        <ele>2104.0818</ele>
        <time>2014-08-27T17:28:30Z</time>
      </trkpt>
      <trkpt lat="46.35264" lon="6.72828">
        <ele>2104.0818</ele>
        <time>2014-08-27T17:28:35Z</time>
      </trkpt>
      <trkpt lat="46.35265" lon="6.72829">
        <ele>2104.0818</ele>
        <time>2014-08-27T17:28:40Z</time>
      </trkpt>
      <trkpt lat="46.35265" lon="6.72825">
        <ele>2106.1736</ele>
        <time>2014-08-27T17:28:45Z</time>
      </trkpt>
      <trkpt lat="46.35267" lon="6.72822">
        <ele>2106.1736</ele>
        <time>2014-08-27T17:28:50Z</time>
      </trkpt>
      <trkpt lat="46.35268" lon="6.72822">
        <ele>2106.1736</ele>
        <time>2014-08-27T17:28:55Z</time>
      </trkpt>
      <trkpt lat="46.35269" lon="6.72822">
        <ele>2106.1736</ele>
        <time>2014-08-27T17:29:00Z</time>
      </trkpt>
      <trkpt lat="46.35269" lon="6.72822">
        <ele>2106.1736</ele>
        <time>2014-08-27T17:29:05Z</time>
      </trkpt>
      <trkpt lat="46.35268" lon="6.72823">
        <ele>2106.1736</ele>
        <time>2014-08-27T17:29:10Z</time>
      </trkpt>
      <trkpt lat="46.35268" lon="6.72825">
        <ele>2106.1736</ele>
        <time>2014-08-27T17:29:15Z</time>
      </trkpt>
      <trkpt lat="46.35268" lon="6.72827">
        <ele>2106.1736</ele>
        <time>2014-08-27T17:29:20Z</time>
      </trkpt>
      <trkpt lat="46.35267" lon="6.72827">
        <ele>2106.1736</ele>
        <time>2014-08-27T17:29:25Z</time>
      </trkpt>
      <trkpt lat="46.35267" lon="6.72828">
        <ele>2108.2666</ele>
        <time>2014-08-27T17:29:30Z</time>
      </trkpt>
      <trkpt lat="46.35266" lon="6.72829">
        <ele>2108.2666</ele>
        <time>2014-08-27T17:29:35Z</time>
      </trkpt>
      <trkpt lat="46.35266" lon="6.7283">
        <ele>2108.2666</ele>
        <time>2014-08-27T17:29:40Z</time>
      </trkpt>
      <trkpt lat="46.35266" lon="6.7283">
        <ele>2108.2666</ele>
        <time>2014-08-27T17:29:45Z</time>
      </trkpt>
      <trkpt lat="46.35267" lon="6.7283">
        <ele>2108.2666</ele>
        <time>2014-08-27T17:29:50Z</time>
      </trkpt>
      <trkpt lat="46.35268" lon="6.7283">
        <ele>2108.2666</ele>
        <time>2014-08-27T17:29:55Z</time>
      </trkpt>
      <trkpt lat="46.35269" lon="6.72829">
        <ele>2108.2666</ele>
        <time>2014-08-27T17:30:00Z</time>
      </trkpt>
      <trkpt lat="46.35269" lon="6.72829">
        <ele>2108.2666</ele>
        <time>2014-08-27T17:30:05Z</time>
      </trkpt>
      <trkpt lat="46.35269" lon="6.72829">
        <ele>2108.2666</ele>
        <time>2014-08-27T17:30:10Z</time>
      </trkpt>
      <trkpt lat="46.3527" lon="6.7283">
        <ele>2108.2666</ele>
        <time>2014-08-27T17:30:15Z</time>
      </trkpt>
      <trkpt lat="46.35269" lon="6.72828">
        <ele>2108.2666</ele>
        <time>2014-08-27T17:30:20Z</time>
      </trkpt>
      <trkpt lat="46.35268" lon="6.72826">
        <ele>2108.2666</ele>
        <time>2014-08-27T17:30:25Z</time>
      </trkpt>
      <trkpt lat="46.35268" lon="6.72825">
        <ele>2110.1494</ele>
        <time>2014-08-27T17:30:30Z</time>
      </trkpt>
      <trkpt lat="46.35267" lon="6.72825">
        <ele>2110.1494</ele>
        <time>2014-08-27T17:30:35Z</time>
      </trkpt>
      <trkpt lat="46.35266" lon="6.72825">
        <ele>2110.1494</ele>
        <time>2014-08-27T17:30:40Z</time>
      </trkpt>
      <trkpt lat="46.35265" lon="6.72826">
        <ele>2110.1494</ele>
        <time>2014-08-27T17:30:45Z</time>
      </trkpt>
      <trkpt lat="46.35264" lon="6.72825">
        <ele>2110.1494</ele>
        <time>2014-08-27T17:30:50Z</time>
      </trkpt>
      <trkpt lat="46.35264" lon="6.72825">
        <ele>2110.1494</ele>
        <time>2014-08-27T17:30:55Z</time>
      </trkpt>
      <trkpt lat="46.35263" lon="6.72824">
        <ele>2110.1494</ele>
        <time>2014-08-27T17:31:00Z</time>
      </trkpt>
      <trkpt lat="46.35263" lon="6.72824">
        <ele>2110.1494</ele>
        <time>2014-08-27T17:31:05Z</time>
      </trkpt>
      <trkpt lat="46.35263" lon="6.72824">
        <ele>2110.1494</ele>
        <time>2014-08-27T17:31:10Z</time>
      </trkpt>
      <trkpt lat="46.35263" lon="6.72823">
        <ele>2110.1494</ele>
        <time>2014-08-27T17:31:15Z</time>
      </trkpt>
      <trkpt lat="46.35264" lon="6.72823">
        <ele>2110.1494</ele>
        <time>2014-08-27T17:31:20Z</time>
      </trkpt>
      <trkpt lat="46.35264" lon="6.72824">
        <ele>2110.1494</ele>
        <time>2014-08-27T17:31:25Z</time>
      </trkpt>
      <trkpt lat="46.35264" lon="6.72826">
        <ele>2111.8423</ele>
        <time>2014-08-27T17:31:30Z</time>
      </trkpt>
      <trkpt lat="46.35265" lon="6.72826">
        <ele>2111.8423</ele>
        <time>2014-08-27T17:31:35Z</time>
      </trkpt>
      <trkpt lat="46.35264" lon="6.72827">
        <ele>2111.8423</ele>
        <time>2014-08-27T17:31:40Z</time>
      </trkpt>
      <trkpt lat="46.35264" lon="6.72828">
        <ele>2111.8423</ele>
        <time>2014-08-27T17:31:45Z</time>
      </trkpt>
      <trkpt lat="46.35265" lon="6.72829">
        <ele>2111.8423</ele>
        <time>2014-08-27T17:31:50Z</time>
      </trkpt>
      <trkpt lat="46.35265" lon="6.72828">
        <ele>2111.8423</ele>
        <time>2014-08-27T17:31:55Z</time>
      </trkpt>
      <trkpt lat="46.35265" lon="6.72826">
        <ele>2111.8423</ele>
        <time>2014-08-27T17:32:00Z</time>
      </trkpt>
      <trkpt lat="46.35265" lon="6.72825">
        <ele>2111.8423</ele>
        <time>2014-08-27T17:32:05Z</time>
      </trkpt>
      <trkpt lat="46.35265" lon="6.72823">
        <ele>2111.8423</ele>
        <time>2014-08-27T17:32:10Z</time>
      </trkpt>
      <trkpt lat="46.35266" lon="6.72821">
        <ele>2111.8423</ele>
        <time>2014-08-27T17:32:15Z</time>
      </trkpt>
      <trkpt lat="46.35266" lon="6.72821">
        <ele>2111.8423</ele>
        <time>2014-08-27T17:32:20Z</time>
      </trkpt>
      <trkpt lat="46.35266" lon="6.72821">
        <ele>2113.2922</ele>
        <time>2014-08-27T17:32:25Z</time>
      </trkpt>
      <trkpt lat="46.35266" lon="6.72821">
        <ele>2113.2922</ele>
        <time>2014-08-27T17:32:30Z</time>
      </trkpt>
      <trkpt lat="46.35266" lon="6.72821">
        <ele>2113.2922</ele>
        <time>2014-08-27T17:32:35Z</time>
      </trkpt>
      <trkpt lat="46.35266" lon="6.72821">
        <ele>2113.2922</ele>
        <time>2014-08-27T17:32:40Z</time>
      </trkpt>
      <trkpt lat="46.35266" lon="6.72821">
        <ele>2113.2922</ele>
        <time>2014-08-27T17:32:45Z</time>
      </trkpt>
      <trkpt lat="46.35266" lon="6.72821">
        <ele>2113.2922</ele>
        <time>2014-08-27T17:32:50Z</time>
      </trkpt>
      <trkpt lat="46.35265" lon="6.72822">
        <ele>2113.2922</ele>
        <time>2014-08-27T17:32:55Z</time>
      </trkpt>
      <trkpt lat="46.35266" lon="6.72822">
        <ele>2113.2922</ele>
        <time>2014-08-27T17:33:00Z</time>
      </trkpt>
      <trkpt lat="46.35266" lon="6.72821">
        <ele>2113.2922</ele>
        <time>2014-08-27T17:33:05Z</time>
      </trkpt>
      <trkpt lat="46.35266" lon="6.72821">
        <ele>2113.2922</ele>
        <time>2014-08-27T17:33:10Z</time>
      </trkpt>
      <trkpt lat="46.35266" lon="6.7282">
        <ele>2113.2922</ele>
        <time>2014-08-27T17:33:15Z</time>
      </trkpt>
      <trkpt lat="46.35268" lon="6.72823">
        <ele>2113.2922</ele>
        <time>2014-08-27T17:33:20Z</time>
      </trkpt>
      <trkpt lat="46.35268" lon="6.72827">
        <ele>2113.2922</ele>
        <time>2014-08-27T17:33:25Z</time>
      </trkpt>
      <trkpt lat="46.35269" lon="6.72828">
        <ele>2114.552</ele>
        <time>2014-08-27T17:33:30Z</time>
      </trkpt>
      <trkpt lat="46.35269" lon="6.7283">
        <ele>2114.552</ele>
        <time>2014-08-27T17:33:35Z</time>
      </trkpt>
      <trkpt lat="46.35268" lon="6.72832">
        <ele>2114.552</ele>
        <time>2014-08-27T17:33:40Z</time>
      </trkpt>
      <trkpt lat="46.35267" lon="6.72833">
        <ele>2114.552</ele>
        <time>2014-08-27T17:33:45Z</time>
      </trkpt>
      <trkpt lat="46.35266" lon="6.72834">
        <ele>2114.552</ele>
        <time>2014-08-27T17:33:50Z</time>
      </trkpt>
      <trkpt lat="46.35267" lon="6.72835">
        <ele>2114.552</ele>
        <time>2014-08-27T17:33:55Z</time>
      </trkpt>
      <trkpt lat="46.35268" lon="6.72836">
        <ele>2114.552</ele>
        <time>2014-08-27T17:34:00Z</time>
      </trkpt>
      <trkpt lat="46.35268" lon="6.72837">
        <ele>2114.552</ele>
        <time>2014-08-27T17:34:05Z</time>
      </trkpt>
      <trkpt lat="46.35268" lon="6.72836">
        <ele>2114.552</ele>
        <time>2014-08-27T17:34:10Z</time>
      </trkpt>
      <trkpt lat="46.35268" lon="6.72836">
        <ele>2114.552</ele>
        <time>2014-08-27T17:34:15Z</time>
      </trkpt>
      <trkpt lat="46.35269" lon="6.72837">
        <ele>2115.6128</ele>
        <time>2014-08-27T17:34:20Z</time>
      </trkpt>
      <trkpt lat="46.35269" lon="6.7284">
        <ele>2115.6128</ele>
        <time>2014-08-27T17:34:25Z</time>
      </trkpt>
      <trkpt lat="46.35269" lon="6.72841">
        <ele>2115.6128</ele>
        <time>2014-08-27T17:34:30Z</time>
      </trkpt>
      <trkpt lat="46.35269" lon="6.72841">
        <ele>2115.6128</ele>
        <time>2014-08-27T17:34:35Z</time>
      </trkpt>
      <trkpt lat="46.35269" lon="6.72842">
        <ele>2115.6128</ele>
        <time>2014-08-27T17:34:40Z</time>
      </trkpt>
      <trkpt lat="46.3527" lon="6.72843">
        <ele>2115.6128</ele>
        <time>2014-08-27T17:34:45Z</time>
      </trkpt>
      <trkpt lat="46.35271" lon="6.72844">
        <ele>2115.6128</ele>
        <time>2014-08-27T17:34:50Z</time>
      </trkpt>
      <trkpt lat="46.35271" lon="6.72845">
        <ele>2115.6128</ele>
        <time>2014-08-27T17:34:55Z</time>
      </trkpt>
      <trkpt lat="46.35272" lon="6.72845">
        <ele>2115.6128</ele>
        <time>2014-08-27T17:35:00Z</time>
      </trkpt>
      <trkpt lat="46.35272" lon="6.72847">
        <ele>2115.6128</ele>
        <time>2014-08-27T17:35:05Z</time>
      </trkpt>
      <trkpt lat="46.35271" lon="6.72848">
        <ele>2116.164</ele>
        <time>2014-08-27T17:35:10Z</time>
      </trkpt>
      <trkpt lat="46.35271" lon="6.72848">
        <ele>2116.164</ele>
        <time>2014-08-27T17:35:15Z</time>
      </trkpt>
      <trkpt lat="46.35271" lon="6.72848">
        <ele>2116.164</ele>
        <time>2014-08-27T17:35:20Z</time>
      </trkpt>
      <trkpt lat="46.3527" lon="6.72849">
        <ele>2116.164</ele>
        <time>2014-08-27T17:35:25Z</time>
      </trkpt>
      <trkpt lat="46.3527" lon="6.72849">
        <ele>2116.164</ele>
        <time>2014-08-27T17:35:30Z</time>
      </trkpt>
      <trkpt lat="46.3527" lon="6.72849">
        <ele>2116.164</ele>
        <time>2014-08-27T17:35:35Z</time>
      </trkpt>
      <trkpt lat="46.3527" lon="6.72849">
        <ele>2116.164</ele>
        <time>2014-08-27T17:35:40Z</time>
      </trkpt>
      <trkpt lat="46.35271" lon="6.72849">
        <ele>2116.164</ele>
        <time>2014-08-27T17:35:45Z</time>
      </trkpt>
      <trkpt lat="46.35271" lon="6.72848">
        <ele>2116.164</ele>
        <time>2014-08-27T17:35:50Z</time>
      </trkpt>
      <trkpt lat="46.3527" lon="6.72846">
        <ele>2116.164</ele>
        <time>2014-08-27T17:35:55Z</time>
      </trkpt>
      <trkpt lat="46.35269" lon="6.72846">
        <ele>2116.164</ele>
        <time>2014-08-27T17:36:00Z</time>
      </trkpt>
      <trkpt lat="46.35269" lon="6.72846">
        <ele>2116.164</ele>
        <time>2014-08-27T17:36:05Z</time>
      </trkpt>
      <trkpt lat="46.35269" lon="6.72845">
        <ele>2116.164</ele>
        <time>2014-08-27T17:36:10Z</time>
      </trkpt>
      <trkpt lat="46.35269" lon="6.72844">
        <ele>2116.164</ele>
        <time>2014-08-27T17:36:15Z</time>
      </trkpt>
      <trkpt lat="46.35269" lon="6.72844">
        <ele>2116.164</ele>
        <time>2014-08-27T17:36:20Z</time>
      </trkpt>
      <trkpt lat="46.35269" lon="6.72843">
        <ele>2116.164</ele>
        <time>2014-08-27T17:36:25Z</time>
      </trkpt>
      <trkpt lat="46.3527" lon="6.72842">
        <ele>2116.5833</ele>
        <time>2014-08-27T17:36:30Z</time>
      </trkpt>
      <trkpt lat="46.3527" lon="6.72843">
        <ele>2116.5833</ele>
        <time>2014-08-27T17:36:35Z</time>
      </trkpt>
      <trkpt lat="46.3527" lon="6.72843">
        <ele>2116.5833</ele>
        <time>2014-08-27T17:36:40Z</time>
      </trkpt>
      <trkpt lat="46.3527" lon="6.72842">
        <ele>2116.5833</ele>
        <time>2014-08-27T17:36:45Z</time>
      </trkpt>
      <trkpt lat="46.3527" lon="6.72842">
        <ele>2116.5833</ele>
        <time>2014-08-27T17:36:50Z</time>
      </trkpt>
      <trkpt lat="46.3527" lon="6.72842">
        <ele>2116.5833</ele>
        <time>2014-08-27T17:36:55Z</time>
      </trkpt>
      <trkpt lat="46.3527" lon="6.72841">
        <ele>2116.5833</ele>
        <time>2014-08-27T17:37:00Z</time>
      </trkpt>
      <trkpt lat="46.3527" lon="6.72841">
        <ele>2116.5833</ele>
        <time>2014-08-27T17:37:05Z</time>
      </trkpt>
      <trkpt lat="46.3527" lon="6.72841">
        <ele>2116.5833</ele>
        <time>2014-08-27T17:37:10Z</time>
      </trkpt>
      <trkpt lat="46.35269" lon="6.72842">
        <ele>2116.5833</ele>
        <time>2014-08-27T17:37:15Z</time>
      </trkpt>
      <trkpt lat="46.35269" lon="6.72842">
        <ele>2116.5833</ele>
        <time>2014-08-27T17:37:20Z</time>
      </trkpt>
      <trkpt lat="46.3527" lon="6.72842">
        <ele>2116.5833</ele>
        <time>2014-08-27T17:37:25Z</time>
      </trkpt>
      <trkpt lat="46.3527" lon="6.72841">
        <ele>2116.5833</ele>
        <time>2014-08-27T17:37:30Z</time>
      </trkpt>
      <trkpt lat="46.3527" lon="6.72841">
        <ele>2116.5833</ele>
        <time>2014-08-27T17:37:35Z</time>
      </trkpt>
      <trkpt lat="46.3527" lon="6.72841">
        <ele>2116.5833</ele>
        <time>2014-08-27T17:37:40Z</time>
      </trkpt>
      <trkpt lat="46.3527" lon="6.7284">
        <ele>2116.5833</ele>
        <time>2014-08-27T17:37:45Z</time>
      </trkpt>
      <trkpt lat="46.3527" lon="6.7284">
        <ele>2116.5833</ele>
        <time>2014-08-27T17:37:50Z</time>
      </trkpt>
      <trkpt lat="46.35271" lon="6.7284">
        <ele>2116.5833</ele>
        <time>2014-08-27T17:37:55Z</time>
      </trkpt>
      <trkpt lat="46.35271" lon="6.7284">
        <ele>2116.5833</ele>
        <time>2014-08-27T17:38:00Z</time>
      </trkpt>
      <trkpt lat="46.35271" lon="6.7284">
        <ele>2116.5833</ele>
        <time>2014-08-27T17:38:05Z</time>
      </trkpt>
      <trkpt lat="46.35271" lon="6.72841">
        <ele>2116.5833</ele>
        <time>2014-08-27T17:38:10Z</time>
      </trkpt>
      <trkpt lat="46.35272" lon="6.72841">
        <ele>2116.5833</ele>
        <time>2014-08-27T17:38:15Z</time>
      </trkpt>
      <trkpt lat="46.35272" lon="6.72842">
        <ele>2116.5833</ele>
        <time>2014-08-27T17:38:20Z</time>
      </trkpt>
      <trkpt lat="46.35272" lon="6.72842">
        <ele>2116.5833</ele>
        <time>2014-08-27T17:38:25Z</time>
      </trkpt>
      <trkpt lat="46.35272" lon="6.72843">
        <ele>2116.5833</ele>
        <time>2014-08-27T17:38:30Z</time>
      </trkpt>
      <trkpt lat="46.35272" lon="6.72843">
        <ele>2116.5833</ele>
        <time>2014-08-27T17:38:35Z</time>
      </trkpt>
      <trkpt lat="46.35272" lon="6.72844">
        <ele>2116.5833</ele>
        <time>2014-08-27T17:38:40Z</time>
      </trkpt>
      <trkpt lat="46.35273" lon="6.72844">
        <ele>2116.5833</ele>
        <time>2014-08-27T17:38:45Z</time>
      </trkpt>
      <trkpt lat="46.35273" lon="6.72844">
        <ele>2116.5833</ele>
        <time>2014-08-27T17:38:50Z</time>
      </trkpt>
      <trkpt lat="46.35273" lon="6.72844">
        <ele>2116.5833</ele>
        <time>2014-08-27T17:38:55Z</time>
      </trkpt>
      <trkpt lat="46.35273" lon="6.72844">
        <ele>2116.8008</ele>
        <time>2014-08-27T17:39:00Z</time>
      </trkpt>
      <trkpt lat="46.35273" lon="6.72845">
        <ele>2116.8008</ele>
        <time>2014-08-27T17:39:05Z</time>
      </trkpt>
      <trkpt lat="46.35273" lon="6.72846">
        <ele>2116.8008</ele>
        <time>2014-08-27T17:39:10Z</time>
      </trkpt>
      <trkpt lat="46.35273" lon="6.72847">
        <ele>2116.8008</ele>
        <time>2014-08-27T17:39:15Z</time>
      </trkpt>
      <trkpt lat="46.35273" lon="6.72847">
        <ele>2116.8008</ele>
        <time>2014-08-27T17:39:20Z</time>
      </trkpt>
      <trkpt lat="46.35274" lon="6.72848">
        <ele>2116.8008</ele>
        <time>2014-08-27T17:39:25Z</time>
      </trkpt>
      <trkpt lat="46.35274" lon="6.72849">
        <ele>2116.8008</ele>
        <time>2014-08-27T17:39:30Z</time>
      </trkpt>
      <trkpt lat="46.35274" lon="6.72849">
        <ele>2116.8008</ele>
        <time>2014-08-27T17:39:35Z</time>
      </trkpt>
      <trkpt lat="46.35275" lon="6.7285">
        <ele>2116.8008</ele>
        <time>2014-08-27T17:39:40Z</time>
      </trkpt>
      <trkpt lat="46.35274" lon="6.72851">
        <ele>2116.8008</ele>
        <time>2014-08-27T17:39:45Z</time>
      </trkpt>
      <trkpt lat="46.35274" lon="6.72852">
        <ele>2116.8008</ele>
        <time>2014-08-27T17:39:50Z</time>
      </trkpt>
      <trkpt lat="46.35273" lon="6.72853">
        <ele>2116.8008</ele>
        <time>2014-08-27T17:39:55Z</time>
      </trkpt>
      <trkpt lat="46.35273" lon="6.72855">
        <ele>2116.8008</ele>
        <time>2014-08-27T17:40:00Z</time>
      </trkpt>
      <trkpt lat="46.35272" lon="6.72856">
        <ele>2116.5813</ele>
        <time>2014-08-27T17:40:05Z</time>
      </trkpt>
      <trkpt lat="46.35272" lon="6.72856">
        <ele>2116.5813</ele>
        <time>2014-08-27T17:40:10Z</time>
      </trkpt>
      <trkpt lat="46.35271" lon="6.72856">
        <ele>2116.5813</ele>
        <time>2014-08-27T17:40:15Z</time>
      </trkpt>
      <trkpt lat="46.35271" lon="6.72855">
        <ele>2116.5813</ele>
        <time>2014-08-27T17:40:20Z</time>
      </trkpt>
      <trkpt lat="46.35272" lon="6.72855">
        <ele>2116.5813</ele>
        <time>2014-08-27T17:40:25Z</time>
      </trkpt>
      <trkpt lat="46.35272" lon="6.72854">
        <ele>2116.5813</ele>
        <time>2014-08-27T17:40:30Z</time>
      </trkpt>
      <trkpt lat="46.35272" lon="6.72854">
        <ele>2116.5813</ele>
        <time>2014-08-27T17:40:35Z</time>
      </trkpt>
      <trkpt lat="46.35273" lon="6.72853">
        <ele>2116.5813</ele>
        <time>2014-08-27T17:40:45Z</time>
      </trkpt>
      <trkpt lat="46.35273" lon="6.7285">
        <ele>2116.5813</ele>
        <time>2014-08-27T17:40:50Z</time>
      </trkpt>
      <trkpt lat="46.35273" lon="6.72849">
        <ele>2116.5813</ele>
        <time>2014-08-27T17:40:55Z</time>
      </trkpt>
      <trkpt lat="46.35273" lon="6.72849">
        <ele>2116.5813</ele>
        <time>2014-08-27T17:41:00Z</time>
      </trkpt>
      <trkpt lat="46.35273" lon="6.72849">
        <ele>2116.5813</ele>
        <time>2014-08-27T17:41:05Z</time>
      </trkpt>
      <trkpt lat="46.35272" lon="6.72849">
        <ele>2116.5813</ele>
        <time>2014-08-27T17:41:10Z</time>
      </trkpt>
      <trkpt lat="46.35271" lon="6.72848">
        <ele>2116.5813</ele>
        <time>2014-08-27T17:41:15Z</time>
      </trkpt>
      <trkpt lat="46.35271" lon="6.72848">
        <ele>2116.5813</ele>
        <time>2014-08-27T17:41:20Z</time>
      </trkpt>
      <trkpt lat="46.35271" lon="6.72848">
        <ele>2116.5813</ele>
        <time>2014-08-27T17:41:25Z</time>
      </trkpt>
      <trkpt lat="46.3527" lon="6.72848">
        <ele>2116.0667</ele>
        <time>2014-08-27T17:41:55Z</time>
      </trkpt>
      <trkpt lat="46.35272" lon="6.72847">
        <ele>2116.0667</ele>
        <time>2014-08-27T17:42:10Z</time>
      </trkpt>
      <trkpt lat="46.35275" lon="6.72844">
        <ele>2116.0667</ele>
        <time>2014-08-27T17:42:15Z</time>
      </trkpt>
      <trkpt lat="46.35275" lon="6.72845">
        <ele>2116.0667</ele>
        <time>2014-08-27T17:42:20Z</time>
      </trkpt>
      <trkpt lat="46.35276" lon="6.72843">
        <ele>2116.0667</ele>
        <time>2014-08-27T17:42:25Z</time>
      </trkpt>
      <trkpt lat="46.35273" lon="6.72845">
        <ele>2115.9517</ele>
        <time>2014-08-27T17:42:30Z</time>
      </trkpt>
      <trkpt lat="46.35271" lon="6.7285">
        <ele>2115.9517</ele>
        <time>2014-08-27T17:42:35Z</time>
      </trkpt>
      <trkpt lat="46.35263" lon="6.72848">
        <ele>2116.043</ele>
        <time>2014-08-27T17:42:40Z</time>
      </trkpt>
      <trkpt lat="46.35263" lon="6.72848">
        <ele>2116.043</ele>
        <time>2014-08-27T17:42:45Z</time>
      </trkpt>
      <trkpt lat="46.35261" lon="6.72848">
        <ele>2116.043</ele>
        <time>2014-08-27T17:44:05Z</time>
      </trkpt>
      <trkpt lat="46.35261" lon="6.72849">
        <ele>2116.043</ele>
        <time>2014-08-27T17:44:10Z</time>
      </trkpt>
      <trkpt lat="46.35261" lon="6.72849">
        <ele>2116.043</ele>
        <time>2014-08-27T17:44:15Z</time>
      </trkpt>
      <trkpt lat="46.3526" lon="6.72849">
        <ele>2116.043</ele>
        <time>2014-08-27T17:44:40Z</time>
      </trkpt>
      <trkpt lat="46.35258" lon="6.7285">
        <ele>2116.043</ele>
        <time>2014-08-27T17:44:45Z</time>
      </trkpt>
      <trkpt lat="46.35258" lon="6.7285">
        <ele>2116.043</ele>
        <time>2014-08-27T17:44:50Z</time>
      </trkpt>
      <trkpt lat="46.35261" lon="6.72853">
        <ele>2116.043</ele>
        <time>2014-08-27T17:44:55Z</time>
      </trkpt>
    </trkseg>
  </trk>
</gpx>